﻿<?xml version="1.0" encoding="utf-8"?><gpx creator="Garmin Desktop App" version="1.1" xsi:schemaLocation="http://www.topografix.com/GPX/1/1 http://www.topografix.com/GPX/1/1/gpx.xsd http://www.garmin.com/xmlschemas/WaypointExtension/v1 http://www8.garmin.com/xmlschemas/WaypointExtensionv1.xsd http://www.garmin.com/xmlschemas/TrackPointExtension/v1 http://www.garmin.com/xmlschemas/TrackPointExtensionv1.xsd http://www.garmin.com/xmlschemas/GpxExtensions/v3 http://www8.garmin.com/xmlschemas/GpxExtensionsv3.xsd http://www.garmin.com/xmlschemas/ActivityExtension/v1 http://www8.garmin.com/xmlschemas/ActivityExtensionv1.xsd http://www.garmin.com/xmlschemas/AdventuresExtensions/v1 http://www8.garmin.com/xmlschemas/AdventuresExtensionv1.xsd http://www.garmin.com/xmlschemas/PressureExtension/v1 http://www.garmin.com/xmlschemas/PressureExtensionv1.xsd http://www.garmin.com/xmlschemas/TripExtensions/v1 http://www.garmin.com/xmlschemas/TripExtensionsv1.xsd http://www.garmin.com/xmlschemas/TripMetaDataExtensions/v1 http://www.garmin.com/xmlschemas/TripMetaDataExtensionsv1.xsd http://www.garmin.com/xmlschemas/ViaPointTransportationModeExtensions/v1 http://www.garmin.com/xmlschemas/ViaPointTransportationModeExtensionsv1.xsd http://www.garmin.com/xmlschemas/CreationTimeExtension/v1 http://www.garmin.com/xmlschemas/CreationTimeExtensionsv1.xsd http://www.garmin.com/xmlschemas/AccelerationExtension/v1 http://www.garmin.com/xmlschemas/AccelerationExtensionv1.xsd http://www.garmin.com/xmlschemas/PowerExtension/v1 http://www.garmin.com/xmlschemas/PowerExtensionv1.xsd http://www.garmin.com/xmlschemas/VideoExtension/v1 http://www.garmin.com/xmlschemas/VideoExtensionv1.xsd" xmlns="http://www.topografix.com/GPX/1/1" xmlns:xsi="http://www.w3.org/2001/XMLSchema-instance" xmlns:wptx1="http://www.garmin.com/xmlschemas/WaypointExtension/v1" xmlns:gpxtrx="http://www.garmin.com/xmlschemas/GpxExtensions/v3" xmlns:gpxtpx="http://www.garmin.com/xmlschemas/TrackPointExtension/v1" xmlns:gpxx="http://www.garmin.com/xmlschemas/GpxExtensions/v3" xmlns:trp="http://www.garmin.com/xmlschemas/TripExtensions/v1" xmlns:adv="http://www.garmin.com/xmlschemas/AdventuresExtensions/v1" xmlns:prs="http://www.garmin.com/xmlschemas/PressureExtension/v1" xmlns:tmd="http://www.garmin.com/xmlschemas/TripMetaDataExtensions/v1" xmlns:vptm="http://www.garmin.com/xmlschemas/ViaPointTransportationModeExtensions/v1" xmlns:ctx="http://www.garmin.com/xmlschemas/CreationTimeExtension/v1" xmlns:gpxacc="http://www.garmin.com/xmlschemas/AccelerationExtension/v1" xmlns:gpxpx="http://www.garmin.com/xmlschemas/PowerExtension/v1" xmlns:vidx1="http://www.garmin.com/xmlschemas/VideoExtension/v1">

  <metadata>
    <link href="http://www.garmin.com">
      <text>Garmin International</text>
    </link>
    <time>2017-04-03T14:50:33Z</time>
    <bounds maxlat="25.418416662141681" maxlon="110.51929333247244" minlat="25.358006693422794" minlon="110.44199667870998" />
  </metadata>

  <trk>
    <name>20131117-迪塘-大岭头水库-湘桂古道#</name>
    <extensions>
      <gpxx:TrackExtension>
        <gpxx:DisplayColor>DarkGray</gpxx:DisplayColor>
      </gpxx:TrackExtension>
    </extensions>
    <trkseg>
      <trkpt lat="25.401420006528497" lon="110.44199667870998">
        <ele>252.09999999999999</ele>
        <time>2013-11-17T01:51:11Z</time>
      </trkpt>
      <trkpt lat="25.401416653767228" lon="110.44201830402017">
        <ele>254.09999999999999</ele>
        <time>2013-11-17T01:51:17Z</time>
      </trkpt>
      <trkpt lat="25.401406679302454" lon="110.44204001314938">
        <ele>253.59999999999999</ele>
        <time>2013-11-17T01:51:23Z</time>
      </trkpt>
      <trkpt lat="25.401408355683088" lon="110.44205501675606">
        <ele>255.5</ele>
        <time>2013-11-17T01:51:29Z</time>
      </trkpt>
      <trkpt lat="25.401398297399282" lon="110.44208167120814">
        <ele>258.69999999999999</ele>
        <time>2013-11-17T01:51:35Z</time>
      </trkpt>
      <trkpt lat="25.401398297399282" lon="110.44208334758878">
        <ele>260</ele>
        <time>2013-11-17T01:51:41Z</time>
      </trkpt>
      <trkpt lat="25.40140500292182" lon="110.44208167120814">
        <ele>260.39999999999998</ele>
        <time>2013-11-17T01:51:47Z</time>
      </trkpt>
      <trkpt lat="25.401399973779917" lon="110.44207496568561">
        <ele>259.89999999999998</ele>
        <time>2013-11-17T01:51:53Z</time>
      </trkpt>
      <trkpt lat="25.401393352076411" lon="110.44207831844687">
        <ele>262.80000000000001</ele>
        <time>2013-11-17T01:51:59Z</time>
      </trkpt>
      <trkpt lat="25.401373319327831" lon="110.44209499843419">
        <ele>261.30000000000001</ele>
        <time>2013-11-17T01:52:05Z</time>
      </trkpt>
      <trkpt lat="25.401366697624326" lon="110.44210002757609">
        <ele>259.19999999999999</ele>
        <time>2013-11-17T01:52:11Z</time>
      </trkpt>
      <trkpt lat="25.40135663934052" lon="110.44211000204086">
        <ele>260.39999999999998</ele>
        <time>2013-11-17T01:52:17Z</time>
      </trkpt>
      <trkpt lat="25.401351694017649" lon="110.44211503118277">
        <ele>259.39999999999998</ele>
        <time>2013-11-17T01:52:23Z</time>
      </trkpt>
      <trkpt lat="25.401346664875746" lon="110.442118300125">
        <ele>258.69999999999999</ele>
        <time>2013-11-17T01:52:29Z</time>
      </trkpt>
      <trkpt lat="25.40135663934052" lon="110.44211335480213">
        <ele>255.80000000000001</ele>
        <time>2013-11-17T01:52:35Z</time>
      </trkpt>
      <trkpt lat="25.401353370398283" lon="110.4421167075634">
        <ele>256.5</ele>
        <time>2013-11-17T01:52:41Z</time>
      </trkpt>
      <trkpt lat="25.40135663934052" lon="110.4421167075634">
        <ele>258.10000000000002</ele>
        <time>2013-11-17T01:52:47Z</time>
      </trkpt>
      <trkpt lat="25.401343312114477" lon="110.44211503118277">
        <ele>258.10000000000002</ele>
        <time>2013-11-17T01:52:53Z</time>
      </trkpt>
      <trkpt lat="25.401333337649703" lon="110.4421167075634">
        <ele>258.89999999999998</ele>
        <time>2013-11-17T01:52:59Z</time>
      </trkpt>
      <trkpt lat="25.40132001042366" lon="110.44212165288627">
        <ele>261</ele>
        <time>2013-11-17T01:53:05Z</time>
      </trkpt>
      <trkpt lat="25.401305006816983" lon="110.44212165288627">
        <ele>261.30000000000001</ele>
        <time>2013-11-17T01:53:11Z</time>
      </trkpt>
      <trkpt lat="25.40129997767508" lon="110.44212500564754">
        <ele>262.39999999999998</ele>
        <time>2013-11-17T01:53:17Z</time>
      </trkpt>
      <trkpt lat="25.401310035958886" lon="110.44212332926691">
        <ele>264.69999999999999</ele>
        <time>2013-11-17T01:53:23Z</time>
      </trkpt>
      <trkpt lat="25.401311628520489" lon="110.4421116784215">
        <ele>263.30000000000001</ele>
        <time>2013-11-17T01:53:29Z</time>
      </trkpt>
      <trkpt lat="25.401306683197618" lon="110.44211335480213">
        <ele>264.19999999999999</ele>
        <time>2013-11-17T01:53:35Z</time>
      </trkpt>
      <trkpt lat="25.401298301294446" lon="110.44210497289896">
        <ele>263.19999999999999</ele>
        <time>2013-11-17T01:53:41Z</time>
      </trkpt>
      <trkpt lat="25.40129167959094" lon="110.44210002757609">
        <ele>262.10000000000002</ele>
        <time>2013-11-17T01:53:47Z</time>
      </trkpt>
      <trkpt lat="25.401283297687769" lon="110.44210170395672">
        <ele>262.10000000000002</ele>
        <time>2013-11-17T01:53:53Z</time>
      </trkpt>
      <trkpt lat="25.401280028745532" lon="110.44209332205355">
        <ele>261.60000000000002</ele>
        <time>2013-11-17T01:53:59Z</time>
      </trkpt>
      <trkpt lat="25.401283297687769" lon="110.44208502396941">
        <ele>260.60000000000002</ele>
        <time>2013-11-17T01:54:05Z</time>
      </trkpt>
      <trkpt lat="25.40129997767508" lon="110.44207999482751">
        <ele>259.5</ele>
        <time>2013-11-17T01:54:11Z</time>
      </trkpt>
      <trkpt lat="25.401305006816983" lon="110.44207664206624">
        <ele>258.5</ele>
        <time>2013-11-17T01:54:17Z</time>
      </trkpt>
      <trkpt lat="25.401318334043026" lon="110.44207002036273">
        <ele>257.80000000000001</ele>
        <time>2013-11-17T01:54:23Z</time>
      </trkpt>
      <trkpt lat="25.401318334043026" lon="110.44208167120814">
        <ele>258.39999999999998</ele>
        <time>2013-11-17T01:54:29Z</time>
      </trkpt>
      <trkpt lat="25.401314981281757" lon="110.44210497289896">
        <ele>260.19999999999999</ele>
        <time>2013-11-17T01:54:35Z</time>
      </trkpt>
      <trkpt lat="25.4013283085078" lon="110.44209499843419">
        <ele>256.80000000000001</ele>
        <time>2013-11-17T01:54:41Z</time>
      </trkpt>
      <trkpt lat="25.401318334043026" lon="110.44210329651833">
        <ele>258.19999999999999</ele>
        <time>2013-11-17T01:54:47Z</time>
      </trkpt>
      <trkpt lat="25.401318334043026" lon="110.442118300125">
        <ele>261</ele>
        <time>2013-11-17T01:54:53Z</time>
      </trkpt>
      <trkpt lat="25.401314981281757" lon="110.44214168563485">
        <ele>263.69999999999999</ele>
        <time>2013-11-17T01:54:59Z</time>
      </trkpt>
      <trkpt lat="25.401305006816983" lon="110.44217001646757">
        <ele>264.69999999999999</ele>
        <time>2013-11-17T01:55:05Z</time>
      </trkpt>
      <trkpt lat="25.401298301294446" lon="110.44218669645488">
        <ele>264.60000000000002</ele>
        <time>2013-11-17T01:55:11Z</time>
      </trkpt>
      <trkpt lat="25.401276675984263" lon="110.44219499453902">
        <ele>263.5</ele>
        <time>2013-11-17T01:55:17Z</time>
      </trkpt>
      <trkpt lat="25.401258319616318" lon="110.44218166731298">
        <ele>264.5</ele>
        <time>2013-11-17T01:55:23Z</time>
      </trkpt>
      <trkpt lat="25.401274999603629" lon="110.44214000925422">
        <ele>268</ele>
        <time>2013-11-17T01:55:29Z</time>
      </trkpt>
      <trkpt lat="25.401261672377586" lon="110.44213162735105">
        <ele>268.19999999999999</ele>
        <time>2013-11-17T01:55:35Z</time>
      </trkpt>
      <trkpt lat="25.401263348758221" lon="110.44213330373168">
        <ele>268.39999999999998</ele>
        <time>2013-11-17T01:55:41Z</time>
      </trkpt>
      <trkpt lat="25.40127164684236" lon="110.442118300125">
        <ele>266.69999999999999</ele>
        <time>2013-11-17T01:55:47Z</time>
      </trkpt>
      <trkpt lat="25.401265025138855" lon="110.44212165288627">
        <ele>267</ele>
        <time>2013-11-17T01:55:53Z</time>
      </trkpt>
      <trkpt lat="25.401263348758221" lon="110.44210002757609">
        <ele>268.19999999999999</ele>
        <time>2013-11-17T01:55:59Z</time>
      </trkpt>
      <trkpt lat="25.401265025138855" lon="110.44211000204086">
        <ele>266.89999999999998</ele>
        <time>2013-11-17T01:56:05Z</time>
      </trkpt>
      <trkpt lat="25.401266701519489" lon="110.44212500564754">
        <ele>265</ele>
        <time>2013-11-17T01:56:11Z</time>
      </trkpt>
      <trkpt lat="25.401266701519489" lon="110.44211997650564">
        <ele>263.69999999999999</ele>
        <time>2013-11-17T01:56:17Z</time>
      </trkpt>
      <trkpt lat="25.401265025138855" lon="110.44211997650564">
        <ele>263</ele>
        <time>2013-11-17T01:56:23Z</time>
      </trkpt>
      <trkpt lat="25.401269970461726" lon="110.44212165288627">
        <ele>261.69999999999999</ele>
        <time>2013-11-17T01:56:29Z</time>
      </trkpt>
      <trkpt lat="25.401278352364898" lon="110.44211997650564">
        <ele>259.30000000000001</ele>
        <time>2013-11-17T01:56:35Z</time>
      </trkpt>
      <trkpt lat="25.401283297687769" lon="110.44212668202817">
        <ele>258.10000000000002</ele>
        <time>2013-11-17T01:56:41Z</time>
      </trkpt>
      <trkpt lat="25.40129167959094" lon="110.44214000925422">
        <ele>255.80000000000001</ele>
        <time>2013-11-17T01:56:47Z</time>
      </trkpt>
      <trkpt lat="25.40129997767508" lon="110.44215333648026">
        <ele>255.69999999999999</ele>
        <time>2013-11-17T01:56:53Z</time>
      </trkpt>
      <trkpt lat="25.401290003210306" lon="110.44217663817108">
        <ele>257</ele>
        <time>2013-11-17T01:56:59Z</time>
      </trkpt>
      <trkpt lat="25.401278352364898" lon="110.44217336922884">
        <ele>257.89999999999998</ele>
        <time>2013-11-17T01:57:05Z</time>
      </trkpt>
      <trkpt lat="25.401280028745532" lon="110.44215333648026">
        <ele>257.69999999999999</ele>
        <time>2013-11-17T01:57:11Z</time>
      </trkpt>
      <trkpt lat="25.401273323222995" lon="110.44212165288627">
        <ele>259.80000000000001</ele>
        <time>2013-11-17T01:57:17Z</time>
      </trkpt>
      <trkpt lat="25.401263348758221" lon="110.4421616345644">
        <ele>263.69999999999999</ele>
        <time>2013-11-17T01:57:23Z</time>
      </trkpt>
      <trkpt lat="25.401239963248372" lon="110.44218166731298">
        <ele>268.19999999999999</ele>
        <time>2013-11-17T01:57:29Z</time>
      </trkpt>
      <trkpt lat="25.401221690699458" lon="110.44219331815839">
        <ele>272.30000000000001</ele>
        <time>2013-11-17T01:57:35Z</time>
      </trkpt>
      <trkpt lat="25.401171650737524" lon="110.44221670366824">
        <ele>273</ele>
        <time>2013-11-17T01:57:41Z</time>
      </trkpt>
      <trkpt lat="25.401109959930182" lon="110.44224335812032">
        <ele>277.5</ele>
        <time>2013-11-17T01:57:47Z</time>
      </trkpt>
      <trkpt lat="25.401086658239365" lon="110.44226330704987">
        <ele>280.80000000000001</ele>
        <time>2013-11-17T01:57:53Z</time>
      </trkpt>
      <trkpt lat="25.401026643812656" lon="110.44229666702449">
        <ele>279.5</ele>
        <time>2013-11-17T01:57:59Z</time>
      </trkpt>
      <trkpt lat="25.400973334908485" lon="110.44230337254703">
        <ele>277</ele>
        <time>2013-11-17T01:58:05Z</time>
      </trkpt>
      <trkpt lat="25.400943327695131" lon="110.44229331426322">
        <ele>274.80000000000001</ele>
        <time>2013-11-17T01:58:11Z</time>
      </trkpt>
      <trkpt lat="25.400935029610991" lon="110.44229331426322">
        <ele>272.69999999999999</ele>
        <time>2013-11-17T01:58:17Z</time>
      </trkpt>
      <trkpt lat="25.400931676849723" lon="110.44231502339244">
        <ele>273.10000000000002</ele>
        <time>2013-11-17T01:58:23Z</time>
      </trkpt>
      <trkpt lat="25.40091834962368" lon="110.44233170337975">
        <ele>276.10000000000002</ele>
        <time>2013-11-17T01:58:29Z</time>
      </trkpt>
      <trkpt lat="25.400903346017003" lon="110.4423516523093">
        <ele>276.30000000000001</ele>
        <time>2013-11-17T01:58:35Z</time>
      </trkpt>
      <trkpt lat="25.400896640494466" lon="110.44235835783184">
        <ele>275.69999999999999</ele>
        <time>2013-11-17T01:58:41Z</time>
      </trkpt>
      <trkpt lat="25.400883313268423" lon="110.44234335422516">
        <ele>273.60000000000002</ele>
        <time>2013-11-17T01:58:47Z</time>
      </trkpt>
      <trkpt lat="25.400884989649057" lon="110.44228669255972">
        <ele>273.10000000000002</ele>
        <time>2013-11-17T01:58:53Z</time>
      </trkpt>
      <trkpt lat="25.400876691564918" lon="110.442258361727">
        <ele>282.19999999999999</ele>
        <time>2013-11-17T01:58:59Z</time>
      </trkpt>
      <trkpt lat="25.400846684351563" lon="110.44230337254703">
        <ele>283.80000000000001</ele>
        <time>2013-11-17T01:59:05Z</time>
      </trkpt>
      <trkpt lat="25.400809971615672" lon="110.44236497953534">
        <ele>285.69999999999999</ele>
        <time>2013-11-17T01:59:11Z</time>
      </trkpt>
      <trkpt lat="25.400808295235038" lon="110.44238836504519">
        <ele>282.80000000000001</ele>
        <time>2013-11-17T01:59:17Z</time>
      </trkpt>
      <trkpt lat="25.400781640782952" lon="110.44241996482015">
        <ele>280.69999999999999</ele>
        <time>2013-11-17T01:59:23Z</time>
      </trkpt>
      <trkpt lat="25.400769989937544" lon="110.44244167394936">
        <ele>278.5</ele>
        <time>2013-11-17T01:59:29Z</time>
      </trkpt>
      <trkpt lat="25.400771666318178" lon="110.44243832118809">
        <ele>277.30000000000001</ele>
        <time>2013-11-17T01:59:35Z</time>
      </trkpt>
      <trkpt lat="25.400769989937544" lon="110.44246329925954">
        <ele>277.30000000000001</ele>
        <time>2013-11-17T01:59:41Z</time>
      </trkpt>
      <trkpt lat="25.400764960795641" lon="110.44251836836338">
        <ele>278.39999999999998</ele>
        <time>2013-11-17T01:59:47Z</time>
      </trkpt>
      <trkpt lat="25.40076831355691" lon="110.44257829897106">
        <ele>279.80000000000001</ele>
        <time>2013-11-17T01:59:53Z</time>
      </trkpt>
      <trkpt lat="25.400776695460081" lon="110.44262666255236">
        <ele>280.39999999999998</ele>
        <time>2013-11-17T01:59:59Z</time>
      </trkpt>
      <trkpt lat="25.400793291628361" lon="110.44266999699175">
        <ele>281.19999999999999</ele>
        <time>2013-11-17T02:00:05Z</time>
      </trkpt>
      <trkpt lat="25.400813324376941" lon="110.44269665144384">
        <ele>280.80000000000001</ele>
        <time>2013-11-17T02:00:11Z</time>
      </trkpt>
      <trkpt lat="25.400846684351563" lon="110.44272330589592">
        <ele>280</ele>
        <time>2013-11-17T02:00:17Z</time>
      </trkpt>
      <trkpt lat="25.400873338803649" lon="110.44276169501245">
        <ele>278.80000000000001</ele>
        <time>2013-11-17T02:00:23Z</time>
      </trkpt>
      <trkpt lat="25.40089001879096" lon="110.44280502945185">
        <ele>277.39999999999998</ele>
        <time>2013-11-17T02:00:29Z</time>
      </trkpt>
      <trkpt lat="25.400921702384949" lon="110.44282162562013">
        <ele>275.69999999999999</ele>
        <time>2013-11-17T02:00:35Z</time>
      </trkpt>
      <trkpt lat="25.400924971327186" lon="110.44286663644016">
        <ele>273.69999999999999</ele>
        <time>2013-11-17T02:00:41Z</time>
      </trkpt>
      <trkpt lat="25.400936705991626" lon="110.44285833835602">
        <ele>271.19999999999999</ele>
        <time>2013-11-17T02:00:47Z</time>
      </trkpt>
      <trkpt lat="25.400941651314497" lon="110.44286001473665">
        <ele>268.60000000000002</ele>
        <time>2013-11-17T02:00:53Z</time>
      </trkpt>
      <trkpt lat="25.400950033217669" lon="110.44284668751061">
        <ele>267.60000000000002</ele>
        <time>2013-11-17T02:00:59Z</time>
      </trkpt>
      <trkpt lat="25.400956654921174" lon="110.44284836389124">
        <ele>266.30000000000001</ele>
        <time>2013-11-17T02:01:05Z</time>
      </trkpt>
      <trkpt lat="25.400956654921174" lon="110.4428799636662">
        <ele>266.5</ele>
        <time>2013-11-17T02:01:11Z</time>
      </trkpt>
      <trkpt lat="25.400965036824346" lon="110.44289337471128">
        <ele>267.60000000000002</ele>
        <time>2013-11-17T02:01:17Z</time>
      </trkpt>
      <trkpt lat="25.400994960218668" lon="110.44288331642747">
        <ele>267.69999999999999</ele>
        <time>2013-11-17T02:01:23Z</time>
      </trkpt>
      <trkpt lat="25.401038294658065" lon="110.4428733419627">
        <ele>269.10000000000002</ele>
        <time>2013-11-17T02:01:29Z</time>
      </trkpt>
      <trkpt lat="25.40108498185873" lon="110.44287501834333">
        <ele>269.39999999999998</ele>
        <time>2013-11-17T02:01:35Z</time>
      </trkpt>
      <trkpt lat="25.401126639917493" lon="110.44285666197538">
        <ele>270.10000000000002</ele>
        <time>2013-11-17T02:01:41Z</time>
      </trkpt>
      <trkpt lat="25.40116997435689" lon="110.44284501112998">
        <ele>268.89999999999998</ele>
        <time>2013-11-17T02:01:47Z</time>
      </trkpt>
      <trkpt lat="25.401188330724835" lon="110.44283830560744">
        <ele>268.69999999999999</ele>
        <time>2013-11-17T02:01:53Z</time>
      </trkpt>
      <trkpt lat="25.401224959641695" lon="110.44284165836871">
        <ele>270</ele>
        <time>2013-11-17T02:01:59Z</time>
      </trkpt>
      <trkpt lat="25.401276675984263" lon="110.44281500391662">
        <ele>273.60000000000002</ele>
        <time>2013-11-17T02:02:05Z</time>
      </trkpt>
      <trkpt lat="25.401288326829672" lon="110.44279832392931">
        <ele>275</ele>
        <time>2013-11-17T02:02:11Z</time>
      </trkpt>
      <trkpt lat="25.401329984888434" lon="110.44274166226387">
        <ele>280.5</ele>
        <time>2013-11-17T02:02:17Z</time>
      </trkpt>
      <trkpt lat="25.401354962959886" lon="110.44270000420511">
        <ele>285.89999999999998</ele>
        <time>2013-11-17T02:02:23Z</time>
      </trkpt>
      <trkpt lat="25.401343312114477" lon="110.44262833893299">
        <ele>285.19999999999999</ele>
        <time>2013-11-17T02:02:29Z</time>
      </trkpt>
      <trkpt lat="25.401323363184929" lon="110.44256497174501">
        <ele>282.89999999999998</ele>
        <time>2013-11-17T02:02:35Z</time>
      </trkpt>
      <trkpt lat="25.401310035958886" lon="110.44251501560211">
        <ele>280.69999999999999</ele>
        <time>2013-11-17T02:02:41Z</time>
      </trkpt>
      <trkpt lat="25.401301654055715" lon="110.44245667755604">
        <ele>278.69999999999999</ele>
        <time>2013-11-17T02:02:47Z</time>
      </trkpt>
      <trkpt lat="25.401316657662392" lon="110.44239833950996">
        <ele>278.60000000000002</ele>
        <time>2013-11-17T02:02:53Z</time>
      </trkpt>
      <trkpt lat="25.40132001042366" lon="110.44233497232199">
        <ele>280.30000000000001</ele>
        <time>2013-11-17T02:02:59Z</time>
      </trkpt>
      <trkpt lat="25.401286650449038" lon="110.44231167063117">
        <ele>277.5</ele>
        <time>2013-11-17T02:03:05Z</time>
      </trkpt>
      <trkpt lat="25.401295032352209" lon="110.44226003810763">
        <ele>274.89999999999998</ele>
        <time>2013-11-17T02:03:11Z</time>
      </trkpt>
      <trkpt lat="25.40129167959094" lon="110.44223832897842">
        <ele>271.30000000000001</ele>
        <time>2013-11-17T02:03:17Z</time>
      </trkpt>
      <trkpt lat="25.401296708732843" lon="110.44221829622984">
        <ele>269.30000000000001</ele>
        <time>2013-11-17T02:03:23Z</time>
      </trkpt>
      <trkpt lat="25.401303330436349" lon="110.44219834730029">
        <ele>268.5</ele>
        <time>2013-11-17T02:03:29Z</time>
      </trkpt>
      <trkpt lat="25.401310035958886" lon="110.44218837283552">
        <ele>267.5</ele>
        <time>2013-11-17T02:03:35Z</time>
      </trkpt>
      <trkpt lat="25.401335014030337" lon="110.44217001646757">
        <ele>266</ele>
        <time>2013-11-17T02:03:41Z</time>
      </trkpt>
      <trkpt lat="25.401369966566563" lon="110.44220002368093">
        <ele>267.39999999999998</ele>
        <time>2013-11-17T02:03:47Z</time>
      </trkpt>
      <trkpt lat="25.401388322934508" lon="110.44224000535905">
        <ele>269.60000000000002</ele>
        <time>2013-11-17T02:03:53Z</time>
      </trkpt>
      <trkpt lat="25.401408355683088" lon="110.44229834340513">
        <ele>272.5</ele>
        <time>2013-11-17T02:03:59Z</time>
      </trkpt>
      <trkpt lat="25.401421682909131" lon="110.44237168505788">
        <ele>274.19999999999999</ele>
        <time>2013-11-17T02:04:05Z</time>
      </trkpt>
      <trkpt lat="25.401443308219314" lon="110.44244335033">
        <ele>273.39999999999998</ele>
        <time>2013-11-17T02:04:11Z</time>
      </trkpt>
      <trkpt lat="25.401468370109797" lon="110.44251166284084">
        <ele>272.80000000000001</ele>
        <time>2013-11-17T02:04:17Z</time>
      </trkpt>
      <trkpt lat="25.401480020955205" lon="110.44256170280278">
        <ele>273.30000000000001</ele>
        <time>2013-11-17T02:04:23Z</time>
      </trkpt>
      <trkpt lat="25.401501646265388" lon="110.44256170280278">
        <ele>272.30000000000001</ele>
        <time>2013-11-17T02:04:29Z</time>
      </trkpt>
      <trkpt lat="25.401516649872065" lon="110.44257670640945">
        <ele>272.19999999999999</ele>
        <time>2013-11-17T02:04:35Z</time>
      </trkpt>
      <trkpt lat="25.401536682620645" lon="110.4426399897784">
        <ele>270.80000000000001</ele>
        <time>2013-11-17T02:04:41Z</time>
      </trkpt>
      <trkpt lat="25.401546657085419" lon="110.44265164062381">
        <ele>268.60000000000002</ele>
        <time>2013-11-17T02:04:47Z</time>
      </trkpt>
      <trkpt lat="25.401550009846687" lon="110.44266329146922">
        <ele>266.89999999999998</ele>
        <time>2013-11-17T02:04:53Z</time>
      </trkpt>
      <trkpt lat="25.40156333707273" lon="110.44269002974033">
        <ele>265.80000000000001</ele>
        <time>2013-11-17T02:04:59Z</time>
      </trkpt>
      <trkpt lat="25.401610024273396" lon="110.44266664423048">
        <ele>266.60000000000002</ele>
        <time>2013-11-17T02:05:05Z</time>
      </trkpt>
      <trkpt lat="25.401653358712792" lon="110.44267334975302">
        <ele>270.5</ele>
        <time>2013-11-17T02:05:11Z</time>
      </trkpt>
      <trkpt lat="25.401706667616963" lon="110.44266002252698">
        <ele>273.5</ele>
        <time>2013-11-17T02:05:17Z</time>
      </trkpt>
      <trkpt lat="25.401755031198263" lon="110.44265834614635">
        <ele>275.30000000000001</ele>
        <time>2013-11-17T02:05:23Z</time>
      </trkpt>
      <trkpt lat="25.401795012876391" lon="110.44264669530094">
        <ele>274.89999999999998</ele>
        <time>2013-11-17T02:05:29Z</time>
      </trkpt>
      <trkpt lat="25.401870030909777" lon="110.44263001531363">
        <ele>274.80000000000001</ele>
        <time>2013-11-17T02:05:35Z</time>
      </trkpt>
      <trkpt lat="25.401918310672045" lon="110.44262004084885">
        <ele>277</ele>
        <time>2013-11-17T02:05:41Z</time>
      </trkpt>
      <trkpt lat="25.401959968730807" lon="110.44265499338508">
        <ele>277.19999999999999</ele>
        <time>2013-11-17T02:05:47Z</time>
      </trkpt>
      <trkpt lat="25.40198503062129" lon="110.44268500059843">
        <ele>274.80000000000001</ele>
        <time>2013-11-17T02:05:53Z</time>
      </trkpt>
      <trkpt lat="25.40201336145401" lon="110.44272162951529">
        <ele>276.39999999999998</ele>
        <time>2013-11-17T02:05:59Z</time>
      </trkpt>
      <trkpt lat="25.402059964835644" lon="110.44274996034801">
        <ele>274.69999999999999</ele>
        <time>2013-11-17T02:06:05Z</time>
      </trkpt>
      <trkpt lat="25.402078321203589" lon="110.44273001141846">
        <ele>271.5</ele>
        <time>2013-11-17T02:06:11Z</time>
      </trkpt>
      <trkpt lat="25.402081673964858" lon="110.44269170612097">
        <ele>271.69999999999999</ele>
        <time>2013-11-17T02:06:17Z</time>
      </trkpt>
      <trkpt lat="25.402063317596912" lon="110.44267167337239">
        <ele>270.5</ele>
        <time>2013-11-17T02:06:23Z</time>
      </trkpt>
      <trkpt lat="25.402055019512773" lon="110.44266664423048">
        <ele>267.60000000000002</ele>
        <time>2013-11-17T02:06:29Z</time>
      </trkpt>
      <trkpt lat="25.402051666751504" lon="110.44266169890761">
        <ele>265.30000000000001</ele>
        <time>2013-11-17T02:06:35Z</time>
      </trkpt>
      <trkpt lat="25.401991652324796" lon="110.44268667697906">
        <ele>270.19999999999999</ele>
        <time>2013-11-17T02:06:41Z</time>
      </trkpt>
      <trkpt lat="25.401911688968539" lon="110.4426949750632">
        <ele>277.30000000000001</ele>
        <time>2013-11-17T02:06:47Z</time>
      </trkpt>
      <trkpt lat="25.401856703683734" lon="110.44269170612097">
        <ele>282.60000000000002</ele>
        <time>2013-11-17T02:06:53Z</time>
      </trkpt>
      <trkpt lat="25.401785038411617" lon="110.44269329868257">
        <ele>284.5</ele>
        <time>2013-11-17T02:06:59Z</time>
      </trkpt>
      <trkpt lat="25.401718318462372" lon="110.44267502613366">
        <ele>278.89999999999998</ele>
        <time>2013-11-17T02:07:05Z</time>
      </trkpt>
      <trkpt lat="25.401668362319469" lon="110.44271668419242">
        <ele>278</ele>
        <time>2013-11-17T02:07:11Z</time>
      </trkpt>
      <trkpt lat="25.401641707867384" lon="110.44277334585786">
        <ele>277.5</ele>
        <time>2013-11-17T02:07:17Z</time>
      </trkpt>
      <trkpt lat="25.401629973202944" lon="110.44280502945185">
        <ele>280.60000000000002</ele>
        <time>2013-11-17T02:07:23Z</time>
      </trkpt>
      <trkpt lat="25.401646653190255" lon="110.44286998920143">
        <ele>281.80000000000001</ele>
        <time>2013-11-17T02:07:29Z</time>
      </trkpt>
      <trkpt lat="25.401676660403609" lon="110.44294333085418">
        <ele>280.80000000000001</ele>
        <time>2013-11-17T02:07:35Z</time>
      </trkpt>
      <trkpt lat="25.401704991236329" lon="110.44300166890025">
        <ele>278.89999999999998</ele>
        <time>2013-11-17T02:07:41Z</time>
      </trkpt>
      <trkpt lat="25.401736674830317" lon="110.44305665418506">
        <ele>277.60000000000002</ele>
        <time>2013-11-17T02:07:47Z</time>
      </trkpt>
      <trkpt lat="25.4017583001405" lon="110.4431133158505">
        <ele>277.60000000000002</ele>
        <time>2013-11-17T02:07:53Z</time>
      </trkpt>
      <trkpt lat="25.401801634579897" lon="110.44317668303847">
        <ele>276.60000000000002</ele>
        <time>2013-11-17T02:07:59Z</time>
      </trkpt>
      <trkpt lat="25.401841700077057" lon="110.44324499554932">
        <ele>276</ele>
        <time>2013-11-17T02:08:05Z</time>
      </trkpt>
      <trkpt lat="25.401885034516454" lon="110.4433033335954">
        <ele>275.19999999999999</ele>
        <time>2013-11-17T02:08:11Z</time>
      </trkpt>
      <trkpt lat="25.401925016194582" lon="110.4433633480221">
        <ele>273.5</ele>
        <time>2013-11-17T02:08:17Z</time>
      </trkpt>
      <trkpt lat="25.401968350633979" lon="110.44341833330691">
        <ele>271.30000000000001</ele>
        <time>2013-11-17T02:08:23Z</time>
      </trkpt>
      <trkpt lat="25.402006655931473" lon="110.44347667135298">
        <ele>268.60000000000002</ele>
        <time>2013-11-17T02:08:29Z</time>
      </trkpt>
      <trkpt lat="25.402048313990235" lon="110.44353333301842">
        <ele>266.69999999999999</ele>
        <time>2013-11-17T02:08:35Z</time>
      </trkpt>
      <trkpt lat="25.402088295668364" lon="110.44358999468386">
        <ele>265.30000000000001</ele>
        <time>2013-11-17T02:08:41Z</time>
      </trkpt>
      <trkpt lat="25.402126684784889" lon="110.44365503825247">
        <ele>264.60000000000002</ele>
        <time>2013-11-17T02:08:47Z</time>
      </trkpt>
      <trkpt lat="25.402161637321115" lon="110.44370667077601">
        <ele>264.60000000000002</ele>
        <time>2013-11-17T02:08:53Z</time>
      </trkpt>
      <trkpt lat="25.402198350057006" lon="110.44376500882208">
        <ele>265.10000000000002</ele>
        <time>2013-11-17T02:08:59Z</time>
      </trkpt>
      <trkpt lat="25.402234978973866" lon="110.44381831772625">
        <ele>265.10000000000002</ele>
        <time>2013-11-17T02:09:05Z</time>
      </trkpt>
      <trkpt lat="25.402273368090391" lon="110.44387330301106">
        <ele>265.5</ele>
        <time>2013-11-17T02:09:11Z</time>
      </trkpt>
      <trkpt lat="25.402316702529788" lon="110.44392501935363">
        <ele>265.69999999999999</ele>
        <time>2013-11-17T02:09:17Z</time>
      </trkpt>
      <trkpt lat="25.402368335053325" lon="110.4439732991159">
        <ele>266.39999999999998</ele>
        <time>2013-11-17T02:09:23Z</time>
      </trkpt>
      <trkpt lat="25.402424996718764" lon="110.4440216626972">
        <ele>266.19999999999999</ele>
        <time>2013-11-17T02:09:29Z</time>
      </trkpt>
      <trkpt lat="25.402485011145473" lon="110.44405996799469">
        <ele>265.69999999999999</ele>
        <time>2013-11-17T02:09:35Z</time>
      </trkpt>
      <trkpt lat="25.402548294514418" lon="110.44409165158868">
        <ele>265.69999999999999</ele>
        <time>2013-11-17T02:09:41Z</time>
      </trkpt>
      <trkpt lat="25.402611661702394" lon="110.4441250115633">
        <ele>266.39999999999998</ele>
        <time>2013-11-17T02:09:47Z</time>
      </trkpt>
      <trkpt lat="25.402671676129103" lon="110.44415837153792">
        <ele>267.69999999999999</ele>
        <time>2013-11-17T02:09:53Z</time>
      </trkpt>
      <trkpt lat="25.402733366936445" lon="110.4441749677062">
        <ele>268.39999999999998</ele>
        <time>2013-11-17T02:09:59Z</time>
      </trkpt>
      <trkpt lat="25.402798326686025" lon="110.44419164769351">
        <ele>268.39999999999998</ele>
        <time>2013-11-17T02:10:05Z</time>
      </trkpt>
      <trkpt lat="25.402860017493367" lon="110.44421662576497">
        <ele>269.10000000000002</ele>
        <time>2013-11-17T02:10:11Z</time>
      </trkpt>
      <trkpt lat="25.402916679158807" lon="110.44424504041672">
        <ele>268.89999999999998</ele>
        <time>2013-11-17T02:10:17Z</time>
      </trkpt>
      <trkpt lat="25.402971664443612" lon="110.44427337124944">
        <ele>269</ele>
        <time>2013-11-17T02:10:23Z</time>
      </trkpt>
      <trkpt lat="25.403041653335094" lon="110.44430002570152">
        <ele>269.39999999999998</ele>
        <time>2013-11-17T02:10:29Z</time>
      </trkpt>
      <trkpt lat="25.403113318607211" lon="110.44433497823775">
        <ele>269.10000000000002</ele>
        <time>2013-11-17T02:10:35Z</time>
      </trkpt>
      <trkpt lat="25.403176685795188" lon="110.44436163268983">
        <ele>270</ele>
        <time>2013-11-17T02:10:41Z</time>
      </trkpt>
      <trkpt lat="25.403241645544767" lon="110.44437831267715">
        <ele>271</ele>
        <time>2013-11-17T02:10:47Z</time>
      </trkpt>
      <trkpt lat="25.403296630829573" lon="110.44439163990319">
        <ele>273.5</ele>
        <time>2013-11-17T02:10:53Z</time>
      </trkpt>
      <trkpt lat="25.403350023552775" lon="110.44439834542572">
        <ele>277.5</ele>
        <time>2013-11-17T02:10:59Z</time>
      </trkpt>
      <trkpt lat="25.403414983302355" lon="110.44442332349718">
        <ele>278.19999999999999</ele>
        <time>2013-11-17T02:11:05Z</time>
      </trkpt>
      <trkpt lat="25.403483295813203" lon="110.44445835985243">
        <ele>276.60000000000002</ele>
        <time>2013-11-17T02:11:11Z</time>
      </trkpt>
      <trkpt lat="25.403523361310363" lon="110.44448669068515">
        <ele>274.5</ele>
        <time>2013-11-17T02:11:17Z</time>
      </trkpt>
      <trkpt lat="25.403584968298674" lon="110.44450337067246">
        <ele>274.30000000000001</ele>
        <time>2013-11-17T02:11:23Z</time>
      </trkpt>
      <trkpt lat="25.403633331879973" lon="110.44452164322138">
        <ele>272.89999999999998</ele>
        <time>2013-11-17T02:11:29Z</time>
      </trkpt>
      <trkpt lat="25.40368496440351" lon="110.44453664682806">
        <ele>273.30000000000001</ele>
        <time>2013-11-17T02:11:35Z</time>
      </trkpt>
      <trkpt lat="25.403744978830218" lon="110.44454670511186">
        <ele>273.60000000000002</ele>
        <time>2013-11-17T02:11:41Z</time>
      </trkpt>
      <trkpt lat="25.403771633282304" lon="110.44456665404141">
        <ele>273.60000000000002</ele>
        <time>2013-11-17T02:11:47Z</time>
      </trkpt>
      <trkpt lat="25.403831647709012" lon="110.44457998126745">
        <ele>274.69999999999999</ele>
        <time>2013-11-17T02:11:53Z</time>
      </trkpt>
      <trkpt lat="25.403895014896989" lon="110.44460169039667">
        <ele>275.30000000000001</ele>
        <time>2013-11-17T02:11:59Z</time>
      </trkpt>
      <trkpt lat="25.403955029323697" lon="110.44462834484875">
        <ele>275.30000000000001</ele>
        <time>2013-11-17T02:12:05Z</time>
      </trkpt>
      <trkpt lat="25.404006661847234" lon="110.4446467012167">
        <ele>274.69999999999999</ele>
        <time>2013-11-17T02:12:11Z</time>
      </trkpt>
      <trkpt lat="25.404043374583125" lon="110.44466002844274">
        <ele>274.30000000000001</ele>
        <time>2013-11-17T02:12:17Z</time>
      </trkpt>
      <trkpt lat="25.40409835986793" lon="110.44468668289483">
        <ele>274.10000000000002</ele>
        <time>2013-11-17T02:12:23Z</time>
      </trkpt>
      <trkpt lat="25.404161643236876" lon="110.44470336288214">
        <ele>274.10000000000002</ele>
        <time>2013-11-17T02:12:29Z</time>
      </trkpt>
      <trkpt lat="25.404219981282949" lon="110.44471333734691">
        <ele>274.39999999999998</ele>
        <time>2013-11-17T02:12:35Z</time>
      </trkpt>
      <trkpt lat="25.404274966567755" lon="110.44473663903773">
        <ele>273.39999999999998</ele>
        <time>2013-11-17T02:12:41Z</time>
      </trkpt>
      <trkpt lat="25.40431335568428" lon="110.44475834816694">
        <ele>272.80000000000001</ele>
        <time>2013-11-17T02:12:47Z</time>
      </trkpt>
      <trkpt lat="25.404374962672591" lon="110.44477997347713">
        <ele>272.80000000000001</ele>
        <time>2013-11-17T02:12:53Z</time>
      </trkpt>
      <trkpt lat="25.404434977099299" lon="110.44479330070317">
        <ele>273.19999999999999</ele>
        <time>2013-11-17T02:12:59Z</time>
      </trkpt>
      <trkpt lat="25.404494991526008" lon="110.44481668621302">
        <ele>272.19999999999999</ele>
        <time>2013-11-17T02:13:05Z</time>
      </trkpt>
      <trkpt lat="25.40455668233335" lon="110.44484501704574">
        <ele>271.5</ele>
        <time>2013-11-17T02:13:11Z</time>
      </trkpt>
      <trkpt lat="25.404616696760058" lon="110.44486999511719">
        <ele>270.5</ele>
        <time>2013-11-17T02:13:17Z</time>
      </trkpt>
      <trkpt lat="25.404670005664229" lon="110.44487167149782">
        <ele>269.19999999999999</ele>
        <time>2013-11-17T02:13:23Z</time>
      </trkpt>
      <trkpt lat="25.404721638187766" lon="110.44487996958196">
        <ele>269.5</ele>
        <time>2013-11-17T02:13:29Z</time>
      </trkpt>
      <trkpt lat="25.404775030910969" lon="110.44490000233054">
        <ele>269.10000000000002</ele>
        <time>2013-11-17T02:13:35Z</time>
      </trkpt>
      <trkpt lat="25.404830016195774" lon="110.44490000233054">
        <ele>269.5</ele>
        <time>2013-11-17T02:13:41Z</time>
      </trkpt>
      <trkpt lat="25.404890030622482" lon="110.44491332955658">
        <ele>269.10000000000002</ele>
        <time>2013-11-17T02:13:47Z</time>
      </trkpt>
      <trkpt lat="25.404946692287922" lon="110.44494836591184">
        <ele>269</ele>
        <time>2013-11-17T02:13:53Z</time>
      </trkpt>
      <trkpt lat="25.405009975656867" lon="110.44497334398329">
        <ele>268.69999999999999</ele>
        <time>2013-11-17T02:13:59Z</time>
      </trkpt>
      <trkpt lat="25.40507166646421" lon="110.44499329291284">
        <ele>268.89999999999998</ele>
        <time>2013-11-17T02:14:05Z</time>
      </trkpt>
      <trkpt lat="25.405139978975058" lon="110.44500829651952">
        <ele>268.60000000000002</ele>
        <time>2013-11-17T02:14:11Z</time>
      </trkpt>
      <trkpt lat="25.4052016697824" lon="110.44502497650683">
        <ele>267.89999999999998</ele>
        <time>2013-11-17T02:14:17Z</time>
      </trkpt>
      <trkpt lat="25.405265036970377" lon="110.44503662735224">
        <ele>267.69999999999999</ele>
        <time>2013-11-17T02:14:23Z</time>
      </trkpt>
      <trkpt lat="25.405331673100591" lon="110.44505833648145">
        <ele>267</ele>
        <time>2013-11-17T02:14:29Z</time>
      </trkpt>
      <trkpt lat="25.405395040288568" lon="110.44506495818496">
        <ele>267.30000000000001</ele>
        <time>2013-11-17T02:14:35Z</time>
      </trkpt>
      <trkpt lat="25.405454970896244" lon="110.44506998732686">
        <ele>267.89999999999998</ele>
        <time>2013-11-17T02:14:41Z</time>
      </trkpt>
      <trkpt lat="25.405463352799416" lon="110.44506998732686">
        <ele>267.69999999999999</ele>
        <time>2013-11-17T02:14:47Z</time>
      </trkpt>
      <trkpt lat="25.405498305335641" lon="110.44506663456559">
        <ele>268.80000000000001</ele>
        <time>2013-11-17T02:14:53Z</time>
      </trkpt>
      <trkpt lat="25.405571646988392" lon="110.44509169645607">
        <ele>267.60000000000002</ele>
        <time>2013-11-17T02:14:59Z</time>
      </trkpt>
      <trkpt lat="25.405629985034466" lon="110.44509169645607">
        <ele>269.19999999999999</ele>
        <time>2013-11-17T02:15:05Z</time>
      </trkpt>
      <trkpt lat="25.405678348615766" lon="110.44508499093354">
        <ele>272.19999999999999</ele>
        <time>2013-11-17T02:15:11Z</time>
      </trkpt>
      <trkpt lat="25.405736686661839" lon="110.44509496539831">
        <ele>273.80000000000001</ele>
        <time>2013-11-17T02:15:17Z</time>
      </trkpt>
      <trkpt lat="25.405806675553322" lon="110.44510502368212">
        <ele>273</ele>
        <time>2013-11-17T02:15:23Z</time>
      </trkpt>
      <trkpt lat="25.405865013599396" lon="110.44510829262435">
        <ele>273.80000000000001</ele>
        <time>2013-11-17T02:15:29Z</time>
      </trkpt>
      <trkpt lat="25.405940031632781" lon="110.44513670727611">
        <ele>273.89999999999998</ele>
        <time>2013-11-17T02:15:35Z</time>
      </trkpt>
      <trkpt lat="25.406014965847135" lon="110.44516168534756">
        <ele>273.30000000000001</ele>
        <time>2013-11-17T02:15:41Z</time>
      </trkpt>
      <trkpt lat="25.406059976667166" lon="110.44519496150315">
        <ele>271.30000000000001</ele>
        <time>2013-11-17T02:15:47Z</time>
      </trkpt>
      <trkpt lat="25.406095013022423" lon="110.44520334340632">
        <ele>271.60000000000002</ele>
        <time>2013-11-17T02:15:53Z</time>
      </trkpt>
      <trkpt lat="25.406134994700551" lon="110.44522169977427">
        <ele>271</ele>
        <time>2013-11-17T02:15:59Z</time>
      </trkpt>
      <trkpt lat="25.406181681901217" lon="110.44526503421366">
        <ele>271.5</ele>
        <time>2013-11-17T02:16:05Z</time>
      </trkpt>
      <trkpt lat="25.406234990805387" lon="110.44530836865306">
        <ele>272.5</ele>
        <time>2013-11-17T02:16:11Z</time>
      </trkpt>
      <trkpt lat="25.406289976090193" lon="110.44535329565406">
        <ele>273.5</ele>
        <time>2013-11-17T02:16:17Z</time>
      </trkpt>
      <trkpt lat="25.406338339671493" lon="110.44539503753185">
        <ele>274.60000000000002</ele>
        <time>2013-11-17T02:16:23Z</time>
      </trkpt>
      <trkpt lat="25.406379997730255" lon="110.44542663730681">
        <ele>276.19999999999999</ele>
        <time>2013-11-17T02:16:29Z</time>
      </trkpt>
      <trkpt lat="25.406418303027749" lon="110.4454583209008">
        <ele>278</ele>
        <time>2013-11-17T02:16:35Z</time>
      </trkpt>
      <trkpt lat="25.406459961086512" lon="110.44548832811415">
        <ele>280.10000000000002</ele>
        <time>2013-11-17T02:16:41Z</time>
      </trkpt>
      <trkpt lat="25.406498350203037" lon="110.4455066844821">
        <ele>282</ele>
        <time>2013-11-17T02:16:47Z</time>
      </trkpt>
      <trkpt lat="25.406531626358628" lon="110.44553166255355">
        <ele>281</ele>
        <time>2013-11-17T02:16:53Z</time>
      </trkpt>
      <trkpt lat="25.406579989939928" lon="110.44555169530213">
        <ele>281.80000000000001</ele>
        <time>2013-11-17T02:16:59Z</time>
      </trkpt>
      <trkpt lat="25.406606644392014" lon="110.4456050042063">
        <ele>277.39999999999998</ele>
        <time>2013-11-17T02:17:05Z</time>
      </trkpt>
      <trkpt lat="25.406626677140594" lon="110.44561833143234">
        <ele>277</ele>
        <time>2013-11-17T02:17:11Z</time>
      </trkpt>
      <trkpt lat="25.406676633283496" lon="110.44562998227775">
        <ele>278.39999999999998</ele>
        <time>2013-11-17T02:17:17Z</time>
      </trkpt>
      <trkpt lat="25.406715022400022" lon="110.44564330950379">
        <ele>279.89999999999998</ele>
        <time>2013-11-17T02:17:23Z</time>
      </trkpt>
      <trkpt lat="25.406756680458784" lon="110.44565831311047">
        <ele>281.5</ele>
        <time>2013-11-17T02:17:29Z</time>
      </trkpt>
      <trkpt lat="25.406794985756278" lon="110.44566996395588">
        <ele>281.5</ele>
        <time>2013-11-17T02:17:35Z</time>
      </trkpt>
      <trkpt lat="25.406838320195675" lon="110.4456982947886">
        <ele>282</ele>
        <time>2013-11-17T02:17:41Z</time>
      </trkpt>
      <trkpt lat="25.406873356550932" lon="110.44571497477591">
        <ele>282.69999999999999</ele>
        <time>2013-11-17T02:17:47Z</time>
      </trkpt>
      <trkpt lat="25.406911661848426" lon="110.44572335667908">
        <ele>284.19999999999999</ele>
        <time>2013-11-17T02:17:53Z</time>
      </trkpt>
      <trkpt lat="25.406960025429726" lon="110.44573836028576">
        <ele>286</ele>
        <time>2013-11-17T02:17:59Z</time>
      </trkpt>
      <trkpt lat="25.407015010714531" lon="110.44575663283467">
        <ele>286.69999999999999</ele>
        <time>2013-11-17T02:18:05Z</time>
      </trkpt>
      <trkpt lat="25.407083323225379" lon="110.4457950219512">
        <ele>285.10000000000002</ele>
        <time>2013-11-17T02:18:11Z</time>
      </trkpt>
      <trkpt lat="25.40714836679399" lon="110.44583668000996">
        <ele>283.30000000000001</ele>
        <time>2013-11-17T02:18:17Z</time>
      </trkpt>
      <trkpt lat="25.407198322936893" lon="110.44586501084268">
        <ele>282.89999999999998</ele>
        <time>2013-11-17T02:18:23Z</time>
      </trkpt>
      <trkpt lat="25.407256660982966" lon="110.44590834528208">
        <ele>281.80000000000001</ele>
        <time>2013-11-17T02:18:29Z</time>
      </trkpt>
      <trkpt lat="25.407316675409675" lon="110.44594832696021">
        <ele>282.30000000000001</ele>
        <time>2013-11-17T02:18:35Z</time>
      </trkpt>
      <trkpt lat="25.407375013455749" lon="110.44598830863833">
        <ele>282.39999999999998</ele>
        <time>2013-11-17T02:18:41Z</time>
      </trkpt>
      <trkpt lat="25.407433351501822" lon="110.44603164307773">
        <ele>282.19999999999999</ele>
        <time>2013-11-17T02:18:47Z</time>
      </trkpt>
      <trkpt lat="25.407481631264091" lon="110.44606500305235">
        <ele>283.60000000000002</ele>
        <time>2013-11-17T02:18:53Z</time>
      </trkpt>
      <trkpt lat="25.40753829292953" lon="110.44610003940761">
        <ele>283.89999999999998</ele>
        <time>2013-11-17T02:18:59Z</time>
      </trkpt>
      <trkpt lat="25.407595038414001" lon="110.4461333155632">
        <ele>283.39999999999998</ele>
        <time>2013-11-17T02:19:05Z</time>
      </trkpt>
      <trkpt lat="25.407651700079441" lon="110.44616835191846">
        <ele>282.5</ele>
        <time>2013-11-17T02:19:11Z</time>
      </trkpt>
      <trkpt lat="25.407710038125515" lon="110.44621336273849">
        <ele>283.30000000000001</ele>
        <time>2013-11-17T02:19:17Z</time>
      </trkpt>
      <trkpt lat="25.407774997875094" lon="110.44626499526203">
        <ele>283.30000000000001</ele>
        <time>2013-11-17T02:19:23Z</time>
      </trkpt>
      <trkpt lat="25.407838365063071" lon="110.44630497694016">
        <ele>284</ele>
        <time>2013-11-17T02:19:29Z</time>
      </trkpt>
      <trkpt lat="25.407881699502468" lon="110.44633666053414">
        <ele>283.10000000000002</ele>
        <time>2013-11-17T02:19:35Z</time>
      </trkpt>
      <trkpt lat="25.407935008406639" lon="110.44637496583164">
        <ele>282.5</ele>
        <time>2013-11-17T02:19:41Z</time>
      </trkpt>
      <trkpt lat="25.407986640930176" lon="110.44642835855484">
        <ele>283.89999999999998</ele>
        <time>2013-11-17T02:19:47Z</time>
      </trkpt>
      <trkpt lat="25.408038357272744" lon="110.4464649874717">
        <ele>285.80000000000001</ele>
        <time>2013-11-17T02:19:53Z</time>
      </trkpt>
      <trkpt lat="25.408098371699452" lon="110.446513351053">
        <ele>286.30000000000001</ele>
        <time>2013-11-17T02:19:59Z</time>
      </trkpt>
      <trkpt lat="25.408158302307129" lon="110.44655836187303">
        <ele>286.30000000000001</ele>
        <time>2013-11-17T02:20:05Z</time>
      </trkpt>
      <trkpt lat="25.408214963972569" lon="110.44660337269306">
        <ele>286.10000000000002</ele>
        <time>2013-11-17T02:20:11Z</time>
      </trkpt>
      <trkpt lat="25.408266680315137" lon="110.44664167799056">
        <ele>288.19999999999999</ele>
        <time>2013-11-17T02:20:17Z</time>
      </trkpt>
      <trkpt lat="25.408303309231997" lon="110.44666497968137">
        <ele>291.89999999999998</ele>
        <time>2013-11-17T02:20:23Z</time>
      </trkpt>
      <trkpt lat="25.408333316445351" lon="110.44667998328805">
        <ele>298</ele>
        <time>2013-11-17T02:20:29Z</time>
      </trkpt>
      <trkpt lat="25.408356701955199" lon="110.44667663052678">
        <ele>304.60000000000002</ele>
        <time>2013-11-17T02:20:35Z</time>
      </trkpt>
      <trkpt lat="25.408388301730156" lon="110.44667830690742">
        <ele>309.30000000000001</ele>
        <time>2013-11-17T02:20:41Z</time>
      </trkpt>
      <trkpt lat="25.408433312550187" lon="110.44670663774014">
        <ele>311</ele>
        <time>2013-11-17T02:20:47Z</time>
      </trkpt>
      <trkpt lat="25.408464996144176" lon="110.44672331772745">
        <ele>313</ele>
        <time>2013-11-17T02:20:53Z</time>
      </trkpt>
      <trkpt lat="25.408496679738164" lon="110.44676329940557">
        <ele>315.5</ele>
        <time>2013-11-17T02:20:59Z</time>
      </trkpt>
      <trkpt lat="25.408533308655024" lon="110.44677168130875">
        <ele>319.60000000000002</ele>
        <time>2013-11-17T02:21:05Z</time>
      </trkpt>
      <trkpt lat="25.408561639487743" lon="110.4467533249408">
        <ele>322.19999999999999</ele>
        <time>2013-11-17T02:21:11Z</time>
      </trkpt>
      <trkpt lat="25.408579995855689" lon="110.44675667770207">
        <ele>318.5</ele>
        <time>2013-11-17T02:21:17Z</time>
      </trkpt>
      <trkpt lat="25.408583348616958" lon="110.44671334326267">
        <ele>316.80000000000001</ele>
        <time>2013-11-17T02:21:23Z</time>
      </trkpt>
      <trkpt lat="25.408621653914452" lon="110.44672834686935">
        <ele>309</ele>
        <time>2013-11-17T02:21:29Z</time>
      </trkpt>
      <trkpt lat="25.4086899664253" lon="110.4467467032373">
        <ele>298.5</ele>
        <time>2013-11-17T02:21:35Z</time>
      </trkpt>
      <trkpt lat="25.408751657232642" lon="110.44676170684397">
        <ele>289.69999999999999</ele>
        <time>2013-11-17T02:21:41Z</time>
      </trkpt>
      <trkpt lat="25.408764984458685" lon="110.44681166298687">
        <ele>289.30000000000001</ele>
        <time>2013-11-17T02:21:47Z</time>
      </trkpt>
      <trkpt lat="25.408766660839319" lon="110.44684829190373">
        <ele>291.39999999999998</ele>
        <time>2013-11-17T02:21:53Z</time>
      </trkpt>
      <trkpt lat="25.408770013600588" lon="110.44686002656817">
        <ele>295.5</ele>
        <time>2013-11-17T02:21:59Z</time>
      </trkpt>
      <trkpt lat="25.408804966136813" lon="110.4468016885221">
        <ele>308.39999999999998</ele>
        <time>2013-11-17T02:22:05Z</time>
      </trkpt>
      <trkpt lat="25.408813348039985" lon="110.4467533249408">
        <ele>320.69999999999999</ele>
        <time>2013-11-17T02:22:11Z</time>
      </trkpt>
      <trkpt lat="25.408828351646662" lon="110.44672667048872">
        <ele>325.69999999999999</ele>
        <time>2013-11-17T02:22:17Z</time>
      </trkpt>
      <trkpt lat="25.408879984170198" lon="110.44672499410808">
        <ele>328.5</ele>
        <time>2013-11-17T02:22:23Z</time>
      </trkpt>
      <trkpt lat="25.408949973061681" lon="110.44670663774014">
        <ele>327.80000000000001</ele>
        <time>2013-11-17T02:22:29Z</time>
      </trkpt>
      <trkpt lat="25.409001689404249" lon="110.44669666327536">
        <ele>327.69999999999999</ele>
        <time>2013-11-17T02:22:35Z</time>
      </trkpt>
      <trkpt lat="25.409056674689054" lon="110.44673329219222">
        <ele>323.5</ele>
        <time>2013-11-17T02:22:41Z</time>
      </trkpt>
      <trkpt lat="25.40913169272244" lon="110.44673832133412">
        <ele>320.89999999999998</ele>
        <time>2013-11-17T02:22:47Z</time>
      </trkpt>
      <trkpt lat="25.409205034375191" lon="110.4467583540827">
        <ele>320.10000000000002</ele>
        <time>2013-11-17T02:22:53Z</time>
      </trkpt>
      <trkpt lat="25.409266641363502" lon="110.44678836129606">
        <ele>318.89999999999998</ele>
        <time>2013-11-17T02:22:59Z</time>
      </trkpt>
      <trkpt lat="25.409324979409575" lon="110.44680504128337">
        <ele>319.60000000000002</ele>
        <time>2013-11-17T02:23:05Z</time>
      </trkpt>
      <trkpt lat="25.409378372132778" lon="110.44678836129606">
        <ele>323.10000000000002</ele>
        <time>2013-11-17T02:23:11Z</time>
      </trkpt>
      <trkpt lat="25.409435033798218" lon="110.44678333215415">
        <ele>323.30000000000001</ele>
        <time>2013-11-17T02:23:17Z</time>
      </trkpt>
      <trkpt lat="25.409499993547797" lon="110.44678668491542">
        <ele>321.80000000000001</ele>
        <time>2013-11-17T02:23:23Z</time>
      </trkpt>
      <trkpt lat="25.40956168435514" lon="110.44679163023829">
        <ele>319.60000000000002</ele>
        <time>2013-11-17T02:23:29Z</time>
      </trkpt>
      <trkpt lat="25.409593367949128" lon="110.44679330661893">
        <ele>316.80000000000001</ele>
        <time>2013-11-17T02:23:35Z</time>
      </trkpt>
      <trkpt lat="25.409660004079342" lon="110.44681166298687">
        <ele>315.30000000000001</ele>
        <time>2013-11-17T02:23:41Z</time>
      </trkpt>
      <trkpt lat="25.40972001850605" lon="110.44682499021292">
        <ele>313.89999999999998</ele>
        <time>2013-11-17T02:23:47Z</time>
      </trkpt>
      <trkpt lat="25.409791683778167" lon="110.44686002656817">
        <ele>311.30000000000001</ele>
        <time>2013-11-17T02:23:53Z</time>
      </trkpt>
      <trkpt lat="25.409841639921069" lon="110.44687335379422">
        <ele>310.69999999999999</ele>
        <time>2013-11-17T02:23:59Z</time>
      </trkpt>
      <trkpt lat="25.409913305193186" lon="110.44692666269839">
        <ele>307.69999999999999</ele>
        <time>2013-11-17T02:24:05Z</time>
      </trkpt>
      <trkpt lat="25.40997164323926" lon="110.4469483718276">
        <ele>305.10000000000002</ele>
        <time>2013-11-17T02:24:11Z</time>
      </trkpt>
      <trkpt lat="25.410029981285334" lon="110.44698500074446">
        <ele>304.89999999999998</ele>
        <time>2013-11-17T02:24:17Z</time>
      </trkpt>
      <trkpt lat="25.410086642950773" lon="110.44700830243528">
        <ele>307.60000000000002</ele>
        <time>2013-11-17T02:24:23Z</time>
      </trkpt>
      <trkpt lat="25.410148333758116" lon="110.44702833518386">
        <ele>308.80000000000001</ele>
        <time>2013-11-17T02:24:29Z</time>
      </trkpt>
      <trkpt lat="25.410204995423555" lon="110.44706169515848">
        <ele>311.60000000000002</ele>
        <time>2013-11-17T02:24:35Z</time>
      </trkpt>
      <trkpt lat="25.410265009850264" lon="110.44708164408803">
        <ele>313.80000000000001</ele>
        <time>2013-11-17T02:24:41Z</time>
      </trkpt>
      <trkpt lat="25.410329969599843" lon="110.44711668044329">
        <ele>314.5</ele>
        <time>2013-11-17T02:24:47Z</time>
      </trkpt>
      <trkpt lat="25.410391660407186" lon="110.44715330936015">
        <ele>312.80000000000001</ele>
        <time>2013-11-17T02:24:53Z</time>
      </trkpt>
      <trkpt lat="25.410440023988485" lon="110.44717669487">
        <ele>313.19999999999999</ele>
        <time>2013-11-17T02:24:59Z</time>
      </trkpt>
      <trkpt lat="25.410468354821205" lon="110.44720829464495">
        <ele>312.10000000000002</ele>
        <time>2013-11-17T02:25:05Z</time>
      </trkpt>
      <trkpt lat="25.410504983738065" lon="110.44724836014211">
        <ele>308.10000000000002</ele>
        <time>2013-11-17T02:25:11Z</time>
      </trkpt>
      <trkpt lat="25.41053163819015" lon="110.4472816362977">
        <ele>303.30000000000001</ele>
        <time>2013-11-17T02:25:17Z</time>
      </trkpt>
      <trkpt lat="25.410541696473956" lon="110.44729169458151">
        <ele>301.10000000000002</ele>
        <time>2013-11-17T02:25:23Z</time>
      </trkpt>
      <trkpt lat="25.410581678152084" lon="110.44730334542692">
        <ele>302.80000000000001</ele>
        <time>2013-11-17T02:25:29Z</time>
      </trkpt>
      <trkpt lat="25.410641692578793" lon="110.44732170179486">
        <ele>305.39999999999998</ele>
        <time>2013-11-17T02:25:35Z</time>
      </trkpt>
      <trkpt lat="25.410701707005501" lon="110.44735003262758">
        <ele>304.69999999999999</ele>
        <time>2013-11-17T02:25:41Z</time>
      </trkpt>
      <trkpt lat="25.41076666675508" lon="110.4473683051765">
        <ele>307.69999999999999</ele>
        <time>2013-11-17T02:25:47Z</time>
      </trkpt>
      <trkpt lat="25.410836655646563" lon="110.44740837067366">
        <ele>308.39999999999998</ele>
        <time>2013-11-17T02:25:53Z</time>
      </trkpt>
      <trkpt lat="25.410896670073271" lon="110.44745002873242">
        <ele>307.80000000000001</ele>
        <time>2013-11-17T02:25:59Z</time>
      </trkpt>
      <trkpt lat="25.410909997299314" lon="110.4474716540426">
        <ele>309.89999999999998</ele>
        <time>2013-11-17T02:26:05Z</time>
      </trkpt>
      <trkpt lat="25.410928353667259" lon="110.44748833402991">
        <ele>309.60000000000002</ele>
        <time>2013-11-17T02:26:11Z</time>
      </trkpt>
      <trkpt lat="25.410940004512668" lon="110.44749998487532">
        <ele>309.19999999999999</ele>
        <time>2013-11-17T02:26:17Z</time>
      </trkpt>
      <trkpt lat="25.410946626216173" lon="110.44749336317182">
        <ele>307.69999999999999</ele>
        <time>2013-11-17T02:26:23Z</time>
      </trkpt>
      <trkpt lat="25.410951655358076" lon="110.44750166125596">
        <ele>307.10000000000002</ele>
        <time>2013-11-17T02:26:29Z</time>
      </trkpt>
      <trkpt lat="25.410943357273936" lon="110.44751666486263">
        <ele>305.10000000000002</ele>
        <time>2013-11-17T02:26:35Z</time>
      </trkpt>
      <trkpt lat="25.410943357273936" lon="110.44752496294677">
        <ele>302.39999999999998</ele>
        <time>2013-11-17T02:26:41Z</time>
      </trkpt>
      <trkpt lat="25.410949978977442" lon="110.44751834124327">
        <ele>301.69999999999999</ele>
        <time>2013-11-17T02:26:47Z</time>
      </trkpt>
      <trkpt lat="25.410958360880613" lon="110.44751666486263">
        <ele>301.5</ele>
        <time>2013-11-17T02:26:53Z</time>
      </trkpt>
      <trkpt lat="25.410983338952065" lon="110.4475583229214">
        <ele>303.10000000000002</ele>
        <time>2013-11-17T02:26:59Z</time>
      </trkpt>
      <trkpt lat="25.41100999340415" lon="110.44759168289602">
        <ele>305.10000000000002</ele>
        <time>2013-11-17T02:27:05Z</time>
      </trkpt>
      <trkpt lat="25.411046706140041" lon="110.44763501733541">
        <ele>303</ele>
        <time>2013-11-17T02:27:11Z</time>
      </trkpt>
      <trkpt lat="25.411075036972761" lon="110.44767332263291">
        <ele>303.69999999999999</ele>
        <time>2013-11-17T02:27:17Z</time>
      </trkpt>
      <trkpt lat="25.411091633141041" lon="110.44766334816813">
        <ele>305</ele>
        <time>2013-11-17T02:27:23Z</time>
      </trkpt>
      <trkpt lat="25.411103367805481" lon="110.44767667539418">
        <ele>304.10000000000002</ele>
        <time>2013-11-17T02:27:29Z</time>
      </trkpt>
      <trkpt lat="25.411138320341706" lon="110.44773668982089">
        <ele>305.39999999999998</ele>
        <time>2013-11-17T02:27:35Z</time>
      </trkpt>
      <trkpt lat="25.411173356696963" lon="110.44778664596379">
        <ele>304.89999999999998</ele>
        <time>2013-11-17T02:27:41Z</time>
      </trkpt>
      <trkpt lat="25.411205040290952" lon="110.44784003868699">
        <ele>304.19999999999999</ele>
        <time>2013-11-17T02:27:47Z</time>
      </trkpt>
      <trkpt lat="25.4112249892205" lon="110.44790499843657">
        <ele>307.5</ele>
        <time>2013-11-17T02:27:53Z</time>
      </trkpt>
      <trkpt lat="25.411223312839866" lon="110.44796501286328">
        <ele>309.10000000000002</ele>
        <time>2013-11-17T02:27:59Z</time>
      </trkpt>
      <trkpt lat="25.411238316446543" lon="110.44798999093473">
        <ele>310.39999999999998</ele>
        <time>2013-11-17T02:28:05Z</time>
      </trkpt>
      <trkpt lat="25.411254996433854" lon="110.44801664538682">
        <ele>308.5</ele>
        <time>2013-11-17T02:28:11Z</time>
      </trkpt>
      <trkpt lat="25.4112733528018" lon="110.44807665981352">
        <ele>307.19999999999999</ele>
        <time>2013-11-17T02:28:17Z</time>
      </trkpt>
      <trkpt lat="25.41128165088594" lon="110.4481400270015">
        <ele>307</ele>
        <time>2013-11-17T02:28:23Z</time>
      </trkpt>
      <trkpt lat="25.411291625350714" lon="110.44820498675108">
        <ele>307.30000000000001</ele>
        <time>2013-11-17T02:28:29Z</time>
      </trkpt>
      <trkpt lat="25.41130168363452" lon="110.44826500117779">
        <ele>308.89999999999998</ele>
        <time>2013-11-17T02:28:35Z</time>
      </trkpt>
      <trkpt lat="25.411306628957391" lon="110.44831336475909">
        <ele>312</ele>
        <time>2013-11-17T02:28:41Z</time>
      </trkpt>
      <trkpt lat="25.411318363621831" lon="110.44837664812803">
        <ele>311.69999999999999</ele>
        <time>2013-11-17T02:28:47Z</time>
      </trkpt>
      <trkpt lat="25.411336636170745" lon="110.44844496063888">
        <ele>310.60000000000002</ele>
        <time>2013-11-17T02:28:53Z</time>
      </trkpt>
      <trkpt lat="25.411354992538691" lon="110.44851335696876">
        <ele>311.39999999999998</ele>
        <time>2013-11-17T02:28:59Z</time>
      </trkpt>
      <trkpt lat="25.41138332337141" lon="110.44857831671834">
        <ele>310.60000000000002</ele>
        <time>2013-11-17T02:29:05Z</time>
      </trkpt>
      <trkpt lat="25.411416683346033" lon="110.44863833114505">
        <ele>309.10000000000002</ele>
        <time>2013-11-17T02:29:11Z</time>
      </trkpt>
      <trkpt lat="25.411461694166064" lon="110.44867998920381">
        <ele>311.30000000000001</ele>
        <time>2013-11-17T02:29:17Z</time>
      </trkpt>
      <trkpt lat="25.41149664670229" lon="110.44869666919112">
        <ele>316</ele>
        <time>2013-11-17T02:29:23Z</time>
      </trkpt>
      <trkpt lat="25.411524977535009" lon="110.44870002195239">
        <ele>324.5</ele>
        <time>2013-11-17T02:29:29Z</time>
      </trkpt>
      <trkpt lat="25.411568311974406" lon="110.44870832003653">
        <ele>328.80000000000001</ele>
        <time>2013-11-17T02:29:35Z</time>
      </trkpt>
      <trkpt lat="25.411609970033169" lon="110.44872164726257">
        <ele>335.39999999999998</ele>
        <time>2013-11-17T02:29:41Z</time>
      </trkpt>
      <trkpt lat="25.411663362756371" lon="110.44875835999846">
        <ele>335.30000000000001</ele>
        <time>2013-11-17T02:29:47Z</time>
      </trkpt>
      <trkpt lat="25.411688340827823" lon="110.44879834167659">
        <ele>333.10000000000002</ele>
        <time>2013-11-17T02:29:53Z</time>
      </trkpt>
      <trkpt lat="25.411735028028488" lon="110.44879666529596">
        <ele>341.69999999999999</ele>
        <time>2013-11-17T02:29:59Z</time>
      </trkpt>
      <trkpt lat="25.411791689693928" lon="110.44878836721182">
        <ele>347.39999999999998</ele>
        <time>2013-11-17T02:30:05Z</time>
      </trkpt>
      <trkpt lat="25.411850027740002" lon="110.44877663254738">
        <ele>351.5</ele>
        <time>2013-11-17T02:30:11Z</time>
      </trkpt>
      <trkpt lat="25.411895038560033" lon="110.4487616289407">
        <ele>355.69999999999999</ele>
        <time>2013-11-17T02:30:17Z</time>
      </trkpt>
      <trkpt lat="25.411948347464204" lon="110.44877001084387">
        <ele>356.80000000000001</ele>
        <time>2013-11-17T02:30:23Z</time>
      </trkpt>
      <trkpt lat="25.412005009129643" lon="110.44877336360514">
        <ele>360.80000000000001</ele>
        <time>2013-11-17T02:30:29Z</time>
      </trkpt>
      <trkpt lat="25.412066699936986" lon="110.44877336360514">
        <ele>364</ele>
        <time>2013-11-17T02:30:35Z</time>
      </trkpt>
      <trkpt lat="25.412135012447834" lon="110.44877168722451">
        <ele>365.30000000000001</ele>
        <time>2013-11-17T02:30:41Z</time>
      </trkpt>
      <trkpt lat="25.412191674113274" lon="110.44876330532134">
        <ele>363.89999999999998</ele>
        <time>2013-11-17T02:30:47Z</time>
      </trkpt>
      <trkpt lat="25.412259986624122" lon="110.44877168722451">
        <ele>360.39999999999998</ele>
        <time>2013-11-17T02:30:53Z</time>
      </trkpt>
      <trkpt lat="25.412331651896238" lon="110.44878501445055">
        <ele>358.60000000000002</ele>
        <time>2013-11-17T02:30:59Z</time>
      </trkpt>
      <trkpt lat="25.412406669929624" lon="110.44879834167659">
        <ele>356.30000000000001</ele>
        <time>2013-11-17T02:31:05Z</time>
      </trkpt>
      <trkpt lat="25.412481687963009" lon="110.44882834888995">
        <ele>354.80000000000001</ele>
        <time>2013-11-17T02:31:11Z</time>
      </trkpt>
      <trkpt lat="25.412548324093223" lon="110.44885165058076">
        <ele>353.19999999999999</ele>
        <time>2013-11-17T02:31:17Z</time>
      </trkpt>
      <trkpt lat="25.412614960223436" lon="110.44889163225889">
        <ele>351.10000000000002</ele>
        <time>2013-11-17T02:31:23Z</time>
      </trkpt>
      <trkpt lat="25.412688301876187" lon="110.44893831945956">
        <ele>347</ele>
        <time>2013-11-17T02:31:29Z</time>
      </trkpt>
      <trkpt lat="25.412738341838121" lon="110.44897670857608">
        <ele>346.10000000000002</ele>
        <time>2013-11-17T02:31:35Z</time>
      </trkpt>
      <trkpt lat="25.412795003503561" lon="110.44901995919645">
        <ele>343.5</ele>
        <time>2013-11-17T02:31:41Z</time>
      </trkpt>
      <trkpt lat="25.412863316014409" lon="110.44906497001648">
        <ele>339.19999999999999</ele>
        <time>2013-11-17T02:31:47Z</time>
      </trkpt>
      <trkpt lat="25.412926683202386" lon="110.44911500997841">
        <ele>335.39999999999998</ele>
        <time>2013-11-17T02:31:53Z</time>
      </trkpt>
      <trkpt lat="25.412988374009728" lon="110.44916337355971">
        <ele>334.10000000000002</ele>
        <time>2013-11-17T02:31:59Z</time>
      </trkpt>
      <trkpt lat="25.413036653771996" lon="110.44919832609594">
        <ele>334.80000000000001</ele>
        <time>2013-11-17T02:32:05Z</time>
      </trkpt>
      <trkpt lat="25.413086693733931" lon="110.44923168607056">
        <ele>334</ele>
        <time>2013-11-17T02:32:11Z</time>
      </trkpt>
      <trkpt lat="25.413131704553962" lon="110.44925834052265">
        <ele>338</ele>
        <time>2013-11-17T02:32:17Z</time>
      </trkpt>
      <trkpt lat="25.413191635161638" lon="110.44930997304618">
        <ele>335.30000000000001</ele>
        <time>2013-11-17T02:32:23Z</time>
      </trkpt>
      <trkpt lat="25.413246704265475" lon="110.44935003854334">
        <ele>333.19999999999999</ele>
        <time>2013-11-17T02:32:29Z</time>
      </trkpt>
      <trkpt lat="25.413315016776323" lon="110.44938834384084">
        <ele>333.39999999999998</ele>
        <time>2013-11-17T02:32:35Z</time>
      </trkpt>
      <trkpt lat="25.41336664929986" lon="110.44942002743483">
        <ele>333</ele>
        <time>2013-11-17T02:32:41Z</time>
      </trkpt>
      <trkpt lat="25.41341501288116" lon="110.44943335466087">
        <ele>339.89999999999998</ele>
        <time>2013-11-17T02:32:47Z</time>
      </trkpt>
      <trkpt lat="25.413469998165965" lon="110.44945497997105">
        <ele>345.89999999999998</ele>
        <time>2013-11-17T02:32:53Z</time>
      </trkpt>
      <trkpt lat="25.413521630689502" lon="110.44946830719709">
        <ele>350.19999999999999</ele>
        <time>2013-11-17T02:32:59Z</time>
      </trkpt>
      <trkpt lat="25.413590027019382" lon="110.44950501993299">
        <ele>349.30000000000001</ele>
        <time>2013-11-17T02:33:05Z</time>
      </trkpt>
      <trkpt lat="25.413651634007692" lon="110.44952999800444">
        <ele>350.5</ele>
        <time>2013-11-17T02:33:11Z</time>
      </trkpt>
      <trkpt lat="25.413715001195669" lon="110.44954667799175">
        <ele>350.89999999999998</ele>
        <time>2013-11-17T02:33:17Z</time>
      </trkpt>
      <trkpt lat="25.413778368383646" lon="110.44956503435969">
        <ele>348.69999999999999</ele>
        <time>2013-11-17T02:33:23Z</time>
      </trkpt>
      <trkpt lat="25.413838298991323" lon="110.44958163052797">
        <ele>345</ele>
        <time>2013-11-17T02:33:29Z</time>
      </trkpt>
      <trkpt lat="25.413913317024708" lon="110.44959504157305">
        <ele>340.69999999999999</ele>
        <time>2013-11-17T02:33:35Z</time>
      </trkpt>
      <trkpt lat="25.413984982296824" lon="110.44959504157305">
        <ele>340.80000000000001</ele>
        <time>2013-11-17T02:33:41Z</time>
      </trkpt>
      <trkpt lat="25.414063353091478" lon="110.44962496496737">
        <ele>337.39999999999998</ele>
        <time>2013-11-17T02:33:47Z</time>
      </trkpt>
      <trkpt lat="25.414128312841058" lon="110.44963669963181">
        <ele>337.80000000000001</ele>
        <time>2013-11-17T02:33:53Z</time>
      </trkpt>
      <trkpt lat="25.414199978113174" lon="110.44965832494199">
        <ele>335.5</ele>
        <time>2013-11-17T02:33:59Z</time>
      </trkpt>
      <trkpt lat="25.414273319765925" lon="110.4496750049293">
        <ele>333.5</ele>
        <time>2013-11-17T02:34:05Z</time>
      </trkpt>
      <trkpt lat="25.414348337799311" lon="110.44969503767788">
        <ele>330</ele>
        <time>2013-11-17T02:34:11Z</time>
      </trkpt>
      <trkpt lat="25.414416650310159" lon="110.44970501214266">
        <ele>328.89999999999998</ele>
        <time>2013-11-17T02:34:17Z</time>
      </trkpt>
      <trkpt lat="25.414483370259404" lon="110.4497183393687">
        <ele>327.60000000000002</ele>
        <time>2013-11-17T02:34:23Z</time>
      </trkpt>
      <trkpt lat="25.414551682770252" lon="110.44973501935601">
        <ele>325.80000000000001</ele>
        <time>2013-11-17T02:34:29Z</time>
      </trkpt>
      <trkpt lat="25.4146199952811" lon="110.44977332465351">
        <ele>323.69999999999999</ele>
        <time>2013-11-17T02:34:35Z</time>
      </trkpt>
      <trkpt lat="25.414678333327174" lon="110.44982663355768">
        <ele>322.80000000000001</ele>
        <time>2013-11-17T02:34:41Z</time>
      </trkpt>
      <trkpt lat="25.414728373289108" lon="110.44988497160375">
        <ele>322.89999999999998</ele>
        <time>2013-11-17T02:34:47Z</time>
      </trkpt>
      <trkpt lat="25.414776653051376" lon="110.44995001517236">
        <ele>321.69999999999999</ele>
        <time>2013-11-17T02:34:53Z</time>
      </trkpt>
      <trkpt lat="25.414810013025999" lon="110.4500016476959">
        <ele>321.39999999999998</ele>
        <time>2013-11-17T02:34:59Z</time>
      </trkpt>
      <trkpt lat="25.414844965562224" lon="110.45004833489656">
        <ele>321.10000000000002</ele>
        <time>2013-11-17T02:35:05Z</time>
      </trkpt>
      <trkpt lat="25.414873296394944" lon="110.45008496381342">
        <ele>321.60000000000002</ele>
        <time>2013-11-17T02:35:11Z</time>
      </trkpt>
      <trkpt lat="25.414908332750201" lon="110.45015168376267">
        <ele>323.89999999999998</ele>
        <time>2013-11-17T02:35:17Z</time>
      </trkpt>
      <trkpt lat="25.414949990808964" lon="110.45021002180874">
        <ele>324.60000000000002</ele>
        <time>2013-11-17T02:35:23Z</time>
      </trkpt>
      <trkpt lat="25.415000030770898" lon="110.45026835985482">
        <ele>324.10000000000002</ele>
        <time>2013-11-17T02:35:29Z</time>
      </trkpt>
      <trkpt lat="25.415059961378574" lon="110.45033164322376">
        <ele>321.80000000000001</ele>
        <time>2013-11-17T02:35:35Z</time>
      </trkpt>
      <trkpt lat="25.415116706863046" lon="110.45038335956633">
        <ele>321.39999999999998</ele>
        <time>2013-11-17T02:35:41Z</time>
      </trkpt>
      <trkpt lat="25.415173368528485" lon="110.45042669400573">
        <ele>321.39999999999998</ele>
        <time>2013-11-17T02:35:47Z</time>
      </trkpt>
      <trkpt lat="25.415225001052022" lon="110.45047002844512">
        <ele>320.80000000000001</ele>
        <time>2013-11-17T02:35:53Z</time>
      </trkpt>
      <trkpt lat="25.415275041013956" lon="110.45051663182676">
        <ele>320.60000000000002</ele>
        <time>2013-11-17T02:35:59Z</time>
      </trkpt>
      <trkpt lat="25.415326673537493" lon="110.45057496987283">
        <ele>320.69999999999999</ele>
        <time>2013-11-17T02:36:05Z</time>
      </trkpt>
      <trkpt lat="25.415371684357524" lon="110.4506266862154">
        <ele>320.89999999999998</ele>
        <time>2013-11-17T02:36:11Z</time>
      </trkpt>
      <trkpt lat="25.415411666035652" lon="110.45068670064211">
        <ele>320.30000000000001</ele>
        <time>2013-11-17T02:36:17Z</time>
      </trkpt>
      <trkpt lat="25.415446702390909" lon="110.45074998401105">
        <ele>320.39999999999998</ele>
        <time>2013-11-17T02:36:23Z</time>
      </trkpt>
      <trkpt lat="25.415485007688403" lon="110.45081335119903">
        <ele>318.80000000000001</ele>
        <time>2013-11-17T02:36:29Z</time>
      </trkpt>
      <trkpt lat="25.415524989366531" lon="110.45086833648384">
        <ele>320.5</ele>
        <time>2013-11-17T02:36:35Z</time>
      </trkpt>
      <trkpt lat="25.415573352947831" lon="110.45091996900737">
        <ele>322.5</ele>
        <time>2013-11-17T02:36:41Z</time>
      </trkpt>
      <trkpt lat="25.415623309090734" lon="110.45097168534994">
        <ele>324.5</ele>
        <time>2013-11-17T02:36:47Z</time>
      </trkpt>
      <trkpt lat="25.41569497436285" lon="110.45102164149284">
        <ele>321.5</ele>
        <time>2013-11-17T02:36:53Z</time>
      </trkpt>
      <trkpt lat="25.415764963254333" lon="110.45104670338333">
        <ele>323.10000000000002</ele>
        <time>2013-11-17T02:36:59Z</time>
      </trkpt>
      <trkpt lat="25.415843334048986" lon="110.45107503421605">
        <ele>327.60000000000002</ele>
        <time>2013-11-17T02:37:05Z</time>
      </trkpt>
      <trkpt lat="25.415906701236963" lon="110.45109665952623">
        <ele>336</ele>
        <time>2013-11-17T02:37:11Z</time>
      </trkpt>
      <trkpt lat="25.415968308225274" lon="110.45110168866813">
        <ele>342.10000000000002</ele>
        <time>2013-11-17T02:37:17Z</time>
      </trkpt>
      <trkpt lat="25.416031675413251" lon="110.4511000122875">
        <ele>348.5</ele>
        <time>2013-11-17T02:37:23Z</time>
      </trkpt>
      <trkpt lat="25.416098311543465" lon="110.45111166313291">
        <ele>350.60000000000002</ele>
        <time>2013-11-17T02:37:29Z</time>
      </trkpt>
      <trkpt lat="25.416169976815581" lon="110.451106633991">
        <ele>351.69999999999999</ele>
        <time>2013-11-17T02:37:35Z</time>
      </trkpt>
      <trkpt lat="25.416226638481021" lon="110.45106497593224">
        <ele>356.89999999999998</ele>
        <time>2013-11-17T02:37:41Z</time>
      </trkpt>
      <trkpt lat="25.416273325681686" lon="110.4510083142668">
        <ele>364.69999999999999</ele>
        <time>2013-11-17T02:37:47Z</time>
      </trkpt>
      <trkpt lat="25.416320012882352" lon="110.45094335451722">
        <ele>371.80000000000001</ele>
        <time>2013-11-17T02:37:53Z</time>
      </trkpt>
      <trkpt lat="25.41638002730906" lon="110.45088996179402">
        <ele>378.60000000000002</ele>
        <time>2013-11-17T02:37:59Z</time>
      </trkpt>
      <trkpt lat="25.41644498705864" lon="110.45084998011589">
        <ele>379.19999999999999</ele>
        <time>2013-11-17T02:38:05Z</time>
      </trkpt>
      <trkpt lat="25.416523357853293" lon="110.45084168203175">
        <ele>377.60000000000002</ele>
        <time>2013-11-17T02:38:11Z</time>
      </trkpt>
      <trkpt lat="25.41660332120955" lon="110.45084998011589">
        <ele>369.60000000000002</ele>
        <time>2013-11-17T02:38:17Z</time>
      </trkpt>
      <trkpt lat="25.416695019230247" lon="110.45088836923242">
        <ele>359.89999999999998</ele>
        <time>2013-11-17T02:38:23Z</time>
      </trkpt>
      <trkpt lat="25.416774982586503" lon="110.45092499814928">
        <ele>353.89999999999998</ele>
        <time>2013-11-17T02:38:29Z</time>
      </trkpt>
      <trkpt lat="25.416863327845931" lon="110.45099163427949">
        <ele>344</ele>
        <time>2013-11-17T02:38:35Z</time>
      </trkpt>
      <trkpt lat="25.416928371414542" lon="110.45104670338333">
        <ele>335.5</ele>
        <time>2013-11-17T02:38:41Z</time>
      </trkpt>
      <trkpt lat="25.41697665117681" lon="110.45107830315828">
        <ele>327.10000000000002</ele>
        <time>2013-11-17T02:38:47Z</time>
      </trkpt>
      <trkpt lat="25.417028367519379" lon="110.4511499684304">
        <ele>324.30000000000001</ele>
        <time>2013-11-17T02:38:53Z</time>
      </trkpt>
      <trkpt lat="25.417080000042915" lon="110.45121501199901">
        <ele>321.80000000000001</ele>
        <time>2013-11-17T02:38:59Z</time>
      </trkpt>
      <trkpt lat="25.417141690850258" lon="110.45128500089049">
        <ele>318.80000000000001</ele>
        <time>2013-11-17T02:39:05Z</time>
      </trkpt>
      <trkpt lat="25.417201705276966" lon="110.45135666616261">
        <ele>316.10000000000002</ele>
        <time>2013-11-17T02:39:11Z</time>
      </trkpt>
      <trkpt lat="25.417259959504008" lon="110.45140502974391">
        <ele>316.60000000000002</ele>
        <time>2013-11-17T02:39:17Z</time>
      </trkpt>
      <trkpt lat="25.41731670498848" lon="110.45143503695726">
        <ele>317.30000000000001</ele>
        <time>2013-11-17T02:39:23Z</time>
      </trkpt>
      <trkpt lat="25.417374959215522" lon="110.45146001502872">
        <ele>319.19999999999999</ele>
        <time>2013-11-17T02:39:29Z</time>
      </trkpt>
      <trkpt lat="25.41743497364223" lon="110.45146336778998">
        <ele>320</ele>
        <time>2013-11-17T02:39:35Z</time>
      </trkpt>
      <trkpt lat="25.417489958927035" lon="110.45147334225476">
        <ele>322</ele>
        <time>2013-11-17T02:39:41Z</time>
      </trkpt>
      <trkpt lat="25.417549973353744" lon="110.45149496756494">
        <ele>322.89999999999998</ele>
        <time>2013-11-17T02:39:47Z</time>
      </trkpt>
      <trkpt lat="25.417616693302989" lon="110.45152497477829">
        <ele>323.39999999999998</ele>
        <time>2013-11-17T02:39:53Z</time>
      </trkpt>
      <trkpt lat="25.417676707729697" lon="110.45155330561101">
        <ele>324.69999999999999</ele>
        <time>2013-11-17T02:39:59Z</time>
      </trkpt>
      <trkpt lat="25.417739991098642" lon="110.451584989205">
        <ele>325.39999999999998</ele>
        <time>2013-11-17T02:40:05Z</time>
      </trkpt>
      <trkpt lat="25.417801681905985" lon="110.45161667279899">
        <ele>325.39999999999998</ele>
        <time>2013-11-17T02:40:11Z</time>
      </trkpt>
      <trkpt lat="25.417854990810156" lon="110.45165330171585">
        <ele>325.19999999999999</ele>
        <time>2013-11-17T02:40:17Z</time>
      </trkpt>
      <trkpt lat="25.417915005236864" lon="110.45170166529715">
        <ele>324.39999999999998</ele>
        <time>2013-11-17T02:40:23Z</time>
      </trkpt>
      <trkpt lat="25.417964961379766" lon="110.45175665058196">
        <ele>324.5</ele>
        <time>2013-11-17T02:40:29Z</time>
      </trkpt>
      <trkpt lat="25.418013324961066" lon="110.45180995948613">
        <ele>323.60000000000002</ele>
        <time>2013-11-17T02:40:35Z</time>
      </trkpt>
      <trkpt lat="25.41805163025856" lon="110.4518682975322">
        <ele>324</ele>
        <time>2013-11-17T02:40:41Z</time>
      </trkpt>
      <trkpt lat="25.418076692149043" lon="110.45192998833954">
        <ele>324.80000000000001</ele>
        <time>2013-11-17T02:40:47Z</time>
      </trkpt>
      <trkpt lat="25.418098317459226" lon="110.45199997723103">
        <ele>323.80000000000001</ele>
        <time>2013-11-17T02:40:53Z</time>
      </trkpt>
      <trkpt lat="25.418130001053214" lon="110.45206996612251">
        <ele>324.19999999999999</ele>
        <time>2013-11-17T02:40:59Z</time>
      </trkpt>
      <trkpt lat="25.4181566555053" lon="110.45212830416858">
        <ele>326.39999999999998</ele>
        <time>2013-11-17T02:41:05Z</time>
      </trkpt>
      <trkpt lat="25.418188339099288" lon="110.45217331498861">
        <ele>327.39999999999998</ele>
        <time>2013-11-17T02:41:11Z</time>
      </trkpt>
      <trkpt lat="25.418229997158051" lon="110.45222830027342">
        <ele>326.89999999999998</ele>
        <time>2013-11-17T02:41:17Z</time>
      </trkpt>
      <trkpt lat="25.418271655216813" lon="110.45227331109345">
        <ele>327.39999999999998</ele>
        <time>2013-11-17T02:41:23Z</time>
      </trkpt>
      <trkpt lat="25.418311636894941" lon="110.45232502743602">
        <ele>327.19999999999999</ele>
        <time>2013-11-17T02:41:29Z</time>
      </trkpt>
      <trkpt lat="25.418350026011467" lon="110.45238336548209">
        <ele>328.30000000000001</ele>
        <time>2013-11-17T02:41:35Z</time>
      </trkpt>
      <trkpt lat="25.418393360450864" lon="110.45245000161231">
        <ele>328.39999999999998</ele>
        <time>2013-11-17T02:41:41Z</time>
      </trkpt>
      <trkpt lat="25.418416662141681" lon="110.45250666327775">
        <ele>328.60000000000002</ele>
        <time>2013-11-17T02:41:47Z</time>
      </trkpt>
      <trkpt lat="25.418406687676907" lon="110.45253499411047">
        <ele>327.69999999999999</ele>
        <time>2013-11-17T02:41:53Z</time>
      </trkpt>
      <trkpt lat="25.418360000476241" lon="110.45255502685905">
        <ele>330.30000000000001</ele>
        <time>2013-11-17T02:41:59Z</time>
      </trkpt>
      <trkpt lat="25.41831498965621" lon="110.45257497578859">
        <ele>335.10000000000002</ele>
        <time>2013-11-17T02:42:05Z</time>
      </trkpt>
      <trkpt lat="25.418268302455544" lon="110.45258335769176">
        <ele>340.5</ele>
        <time>2013-11-17T02:42:11Z</time>
      </trkpt>
      <trkpt lat="25.418216669932008" lon="110.45257329940796">
        <ele>342.5</ele>
        <time>2013-11-17T02:42:17Z</time>
      </trkpt>
      <trkpt lat="25.4181566555053" lon="110.45255502685905">
        <ele>343.69999999999999</ele>
        <time>2013-11-17T02:42:23Z</time>
      </trkpt>
      <trkpt lat="25.41809999383986" lon="110.45252837240696">
        <ele>344.60000000000002</ele>
        <time>2013-11-17T02:42:29Z</time>
      </trkpt>
      <trkpt lat="25.418046684935689" lon="110.4524883069098">
        <ele>343.80000000000001</ele>
        <time>2013-11-17T02:42:35Z</time>
      </trkpt>
      <trkpt lat="25.417983317747712" lon="110.45245829969645">
        <ele>344.89999999999998</ele>
        <time>2013-11-17T02:42:41Z</time>
      </trkpt>
      <trkpt lat="25.417920034378767" lon="110.45242502354085">
        <ele>344.80000000000001</ele>
        <time>2013-11-17T02:42:47Z</time>
      </trkpt>
      <trkpt lat="25.417858343571424" lon="110.45240499079227">
        <ele>345.39999999999998</ele>
        <time>2013-11-17T02:42:53Z</time>
      </trkpt>
      <trkpt lat="25.417791707441211" lon="110.45238168910146">
        <ele>344.69999999999999</ele>
        <time>2013-11-17T02:42:59Z</time>
      </trkpt>
      <trkpt lat="25.417733369395137" lon="110.45237163081765">
        <ele>343.80000000000001</ele>
        <time>2013-11-17T02:43:05Z</time>
      </trkpt>
      <trkpt lat="25.417676707729697" lon="110.45236500911415">
        <ele>343.39999999999998</ele>
        <time>2013-11-17T02:43:11Z</time>
      </trkpt>
      <trkpt lat="25.4176333732903" lon="110.4523466527462">
        <ele>342.5</ele>
        <time>2013-11-17T02:43:17Z</time>
      </trkpt>
      <trkpt lat="25.417573358863592" lon="110.4523400310427">
        <ele>343.10000000000002</ele>
        <time>2013-11-17T02:43:23Z</time>
      </trkpt>
      <trkpt lat="25.417500017210841" lon="110.45233667828143">
        <ele>346</ele>
        <time>2013-11-17T02:43:29Z</time>
      </trkpt>
      <trkpt lat="25.417431704699993" lon="110.45234329998493">
        <ele>348.39999999999998</ele>
        <time>2013-11-17T02:43:35Z</time>
      </trkpt>
      <trkpt lat="25.417370013892651" lon="110.45234329998493">
        <ele>348.89999999999998</ele>
        <time>2013-11-17T02:43:41Z</time>
      </trkpt>
      <trkpt lat="25.417304970324039" lon="110.45233835466206">
        <ele>348.19999999999999</ele>
        <time>2013-11-17T02:43:47Z</time>
      </trkpt>
      <trkpt lat="25.417236657813191" lon="110.45235000550747">
        <ele>349.5</ele>
        <time>2013-11-17T02:43:53Z</time>
      </trkpt>
      <trkpt lat="25.417188294231892" lon="110.45233332552016">
        <ele>350</ele>
        <time>2013-11-17T02:43:59Z</time>
      </trkpt>
      <trkpt lat="25.417125010862947" lon="110.45232335105538">
        <ele>349.80000000000001</ele>
        <time>2013-11-17T02:44:05Z</time>
      </trkpt>
      <trkpt lat="25.417051669210196" lon="110.45231170020998">
        <ele>351.30000000000001</ele>
        <time>2013-11-17T02:44:11Z</time>
      </trkpt>
      <trkpt lat="25.416974974796176" lon="110.45231002382934">
        <ele>353.5</ele>
        <time>2013-11-17T02:44:17Z</time>
      </trkpt>
      <trkpt lat="25.416904985904694" lon="110.45230834744871">
        <ele>352.5</ele>
        <time>2013-11-17T02:44:23Z</time>
      </trkpt>
      <trkpt lat="25.4168666806072" lon="110.45233667828143">
        <ele>349.89999999999998</ele>
        <time>2013-11-17T02:44:29Z</time>
      </trkpt>
      <trkpt lat="25.416843295097351" lon="110.45238663442433">
        <ele>350.89999999999998</ele>
        <time>2013-11-17T02:44:35Z</time>
      </trkpt>
      <trkpt lat="25.416841702535748" lon="110.45238831080496">
        <ele>355.39999999999998</ele>
        <time>2013-11-17T02:44:41Z</time>
      </trkpt>
      <trkpt lat="25.416851677000523" lon="110.45237498357892">
        <ele>357.60000000000002</ele>
        <time>2013-11-17T02:44:47Z</time>
      </trkpt>
      <trkpt lat="25.416896687820554" lon="110.45235997997224">
        <ele>359.80000000000001</ele>
        <time>2013-11-17T02:44:53Z</time>
      </trkpt>
      <trkpt lat="25.416951673105359" lon="110.45237163081765">
        <ele>359.39999999999998</ele>
        <time>2013-11-17T02:44:59Z</time>
      </trkpt>
      <trkpt lat="25.416998360306025" lon="110.45239166356623">
        <ele>360.39999999999998</ele>
        <time>2013-11-17T02:45:05Z</time>
      </trkpt>
      <trkpt lat="25.417049992829561" lon="110.45240666717291">
        <ele>363.5</ele>
        <time>2013-11-17T02:45:11Z</time>
      </trkpt>
      <trkpt lat="25.417106654495001" lon="110.45243164524436">
        <ele>365.19999999999999</ele>
        <time>2013-11-17T02:45:17Z</time>
      </trkpt>
      <trkpt lat="25.417168345302343" lon="110.45246332883835">
        <ele>363.89999999999998</ele>
        <time>2013-11-17T02:45:23Z</time>
      </trkpt>
      <trkpt lat="25.417233305051923" lon="110.45251169241965">
        <ele>361.19999999999999</ele>
        <time>2013-11-17T02:45:29Z</time>
      </trkpt>
      <trkpt lat="25.41727663949132" lon="110.45255997218192">
        <ele>362.39999999999998</ele>
        <time>2013-11-17T02:45:35Z</time>
      </trkpt>
      <trkpt lat="25.417264988645911" lon="110.45260665938258">
        <ele>360.80000000000001</ele>
        <time>2013-11-17T02:45:41Z</time>
      </trkpt>
      <trkpt lat="25.417253337800503" lon="110.45264337211847">
        <ele>360.30000000000001</ele>
        <time>2013-11-17T02:45:47Z</time>
      </trkpt>
      <trkpt lat="25.417225006967783" lon="110.45266332104802">
        <ele>360.10000000000002</ele>
        <time>2013-11-17T02:45:53Z</time>
      </trkpt>
      <trkpt lat="25.417181672528386" lon="110.45267664827406">
        <ele>359.80000000000001</ele>
        <time>2013-11-17T02:45:59Z</time>
      </trkpt>
      <trkpt lat="25.417128363624215" lon="110.45268997550011">
        <ele>359.60000000000002</ele>
        <time>2013-11-17T02:46:05Z</time>
      </trkpt>
      <trkpt lat="25.417088298127055" lon="110.45270003378391">
        <ele>359</ele>
        <time>2013-11-17T02:46:11Z</time>
      </trkpt>
      <trkpt lat="25.417043371126056" lon="110.45270833186805">
        <ele>359.19999999999999</ele>
        <time>2013-11-17T02:46:17Z</time>
      </trkpt>
      <trkpt lat="25.416993331164122" lon="110.45272333547473">
        <ele>358.60000000000002</ele>
        <time>2013-11-17T02:46:23Z</time>
      </trkpt>
      <trkpt lat="25.416974974796176" lon="110.45273498632014">
        <ele>359.30000000000001</ele>
        <time>2013-11-17T02:46:29Z</time>
      </trkpt>
      <trkpt lat="25.416925018653274" lon="110.45276834629476">
        <ele>359.5</ele>
        <time>2013-11-17T02:46:35Z</time>
      </trkpt>
      <trkpt lat="25.416885036975145" lon="110.45280002988875">
        <ele>360.30000000000001</ele>
        <time>2013-11-17T02:46:41Z</time>
      </trkpt>
      <trkpt lat="25.416850000619888" lon="110.45284001156688">
        <ele>361.30000000000001</ele>
        <time>2013-11-17T02:46:47Z</time>
      </trkpt>
      <trkpt lat="25.416819993406534" lon="110.4528733715415">
        <ele>365.39999999999998</ele>
        <time>2013-11-17T02:46:53Z</time>
      </trkpt>
      <trkpt lat="25.416774982586503" lon="110.45292165130377">
        <ele>367.80000000000001</ele>
        <time>2013-11-17T02:46:59Z</time>
      </trkpt>
      <trkpt lat="25.416723350062966" lon="110.4529616329819">
        <ele>370.30000000000001</ele>
        <time>2013-11-17T02:47:05Z</time>
      </trkpt>
      <trkpt lat="25.416673310101032" lon="110.45300496742129">
        <ele>369.19999999999999</ele>
        <time>2013-11-17T02:47:11Z</time>
      </trkpt>
      <trkpt lat="25.416616648435593" lon="110.45303497463465">
        <ele>367.60000000000002</ele>
        <time>2013-11-17T02:47:17Z</time>
      </trkpt>
      <trkpt lat="25.416551688686013" lon="110.45306665822864">
        <ele>366.19999999999999</ele>
        <time>2013-11-17T02:47:23Z</time>
      </trkpt>
      <trkpt lat="25.416498295962811" lon="110.45307998545468">
        <ele>368.19999999999999</ele>
        <time>2013-11-17T02:47:29Z</time>
      </trkpt>
      <trkpt lat="25.416438365355134" lon="110.45308995991945">
        <ele>370.39999999999998</ele>
        <time>2013-11-17T02:47:35Z</time>
      </trkpt>
      <trkpt lat="25.416373321786523" lon="110.45308333821595">
        <ele>372.39999999999998</ele>
        <time>2013-11-17T02:47:41Z</time>
      </trkpt>
      <trkpt lat="25.416298303753138" lon="110.45307830907404">
        <ele>371.5</ele>
        <time>2013-11-17T02:47:47Z</time>
      </trkpt>
      <trkpt lat="25.41622999124229" lon="110.45307504013181">
        <ele>372.69999999999999</ele>
        <time>2013-11-17T02:47:53Z</time>
      </trkpt>
      <trkpt lat="25.416196631267667" lon="110.45307830907404">
        <ele>371.89999999999998</ele>
        <time>2013-11-17T02:47:59Z</time>
      </trkpt>
      <trkpt lat="25.416178358718753" lon="110.45309666544199">
        <ele>369.60000000000002</ele>
        <time>2013-11-17T02:48:05Z</time>
      </trkpt>
      <trkpt lat="25.41612496599555" lon="110.45308333821595">
        <ele>369.69999999999999</ele>
        <time>2013-11-17T02:48:11Z</time>
      </trkpt>
      <trkpt lat="25.416073333472013" lon="110.45307663269341">
        <ele>369.19999999999999</ele>
        <time>2013-11-17T02:48:17Z</time>
      </trkpt>
      <trkpt lat="25.416020024567842" lon="110.45308501459658">
        <ele>368.39999999999998</ele>
        <time>2013-11-17T02:48:23Z</time>
      </trkpt>
      <trkpt lat="25.415971660986543" lon="110.45310999266803">
        <ele>368</ele>
        <time>2013-11-17T02:48:29Z</time>
      </trkpt>
      <trkpt lat="25.415918352082372" lon="110.45313664712012">
        <ele>368</ele>
        <time>2013-11-17T02:48:35Z</time>
      </trkpt>
      <trkpt lat="25.415873341262341" lon="110.45318501070142">
        <ele>368</ele>
        <time>2013-11-17T02:48:41Z</time>
      </trkpt>
      <trkpt lat="25.415836628526449" lon="110.45323169790208">
        <ele>368.30000000000001</ele>
        <time>2013-11-17T02:48:47Z</time>
      </trkpt>
      <trkpt lat="25.415806705132127" lon="110.45326497405767">
        <ele>368.89999999999998</ele>
        <time>2013-11-17T02:48:53Z</time>
      </trkpt>
      <trkpt lat="25.415776697918773" lon="110.45329665765166">
        <ele>370.5</ele>
        <time>2013-11-17T02:48:59Z</time>
      </trkpt>
      <trkpt lat="25.415736632421613" lon="110.45334502123296">
        <ele>371.39999999999998</ele>
        <time>2013-11-17T02:49:05Z</time>
      </trkpt>
      <trkpt lat="25.41569497436285" lon="110.45340000651777">
        <ele>371</ele>
        <time>2013-11-17T02:49:11Z</time>
      </trkpt>
      <trkpt lat="25.415643341839314" lon="110.45344837009907">
        <ele>371</ele>
        <time>2013-11-17T02:49:17Z</time>
      </trkpt>
      <trkpt lat="25.415598331019282" lon="110.4534883517772">
        <ele>371.89999999999998</ele>
        <time>2013-11-17T02:49:23Z</time>
      </trkpt>
      <trkpt lat="25.4155767057091" lon="110.45351332984865">
        <ele>370.60000000000002</ele>
        <time>2013-11-17T02:49:29Z</time>
      </trkpt>
      <trkpt lat="25.415578298270702" lon="110.45353503897786">
        <ele>372.30000000000001</ele>
        <time>2013-11-17T02:49:35Z</time>
      </trkpt>
      <trkpt lat="25.415539992973208" lon="110.45356496237218">
        <ele>374.30000000000001</ele>
        <time>2013-11-17T02:49:41Z</time>
      </trkpt>
      <trkpt lat="25.415516691282392" lon="110.45361332595348">
        <ele>375.60000000000002</ele>
        <time>2013-11-17T02:49:47Z</time>
      </trkpt>
      <trkpt lat="25.415503364056349" lon="110.45360829681158">
        <ele>377.89999999999998</ele>
        <time>2013-11-17T02:49:53Z</time>
      </trkpt>
      <trkpt lat="25.41550830937922" lon="110.45358499512076">
        <ele>380.39999999999998</ele>
        <time>2013-11-17T02:49:59Z</time>
      </trkpt>
      <trkpt lat="25.415494982153177" lon="110.45356001704931">
        <ele>384.10000000000002</ele>
        <time>2013-11-17T02:50:05Z</time>
      </trkpt>
      <trkpt lat="25.4154799785465" lon="110.45355331152678">
        <ele>385.39999999999998</ele>
        <time>2013-11-17T02:50:11Z</time>
      </trkpt>
      <trkpt lat="25.415464974939823" lon="110.45356999151409">
        <ele>383</ele>
        <time>2013-11-17T02:50:17Z</time>
      </trkpt>
      <trkpt lat="25.415455000475049" lon="110.4535816423595">
        <ele>381.19999999999999</ele>
        <time>2013-11-17T02:50:23Z</time>
      </trkpt>
      <trkpt lat="25.415449971333146" lon="110.4535917006433">
        <ele>379.60000000000002</ele>
        <time>2013-11-17T02:50:29Z</time>
      </trkpt>
      <trkpt lat="25.415448294952512" lon="110.45359002426267">
        <ele>379.69999999999999</ele>
        <time>2013-11-17T02:50:35Z</time>
      </trkpt>
      <trkpt lat="25.415446702390909" lon="110.45358499512076">
        <ele>379.89999999999998</ele>
        <time>2013-11-17T02:50:41Z</time>
      </trkpt>
      <trkpt lat="25.415441673249006" lon="110.4535866715014">
        <ele>377.80000000000001</ele>
        <time>2013-11-17T02:50:47Z</time>
      </trkpt>
      <trkpt lat="25.415446702390909" lon="110.45360167510808">
        <ele>377.80000000000001</ele>
        <time>2013-11-17T02:50:53Z</time>
      </trkpt>
      <trkpt lat="25.415445026010275" lon="110.45365163125098">
        <ele>379.69999999999999</ele>
        <time>2013-11-17T02:50:59Z</time>
      </trkpt>
      <trkpt lat="25.415438320487738" lon="110.45370502397418">
        <ele>382.5</ele>
        <time>2013-11-17T02:51:05Z</time>
      </trkpt>
      <trkpt lat="25.415439996868372" lon="110.45376503840089">
        <ele>385.39999999999998</ele>
        <time>2013-11-17T02:51:11Z</time>
      </trkpt>
      <trkpt lat="25.415445026010275" lon="110.45382329262793">
        <ele>387</ele>
        <time>2013-11-17T02:51:17Z</time>
      </trkpt>
      <trkpt lat="25.415441673249006" lon="110.45388498343527">
        <ele>389.10000000000002</ele>
        <time>2013-11-17T02:51:23Z</time>
      </trkpt>
      <trkpt lat="25.415438320487738" lon="110.45394164510071">
        <ele>392</ele>
        <time>2013-11-17T02:51:29Z</time>
      </trkpt>
      <trkpt lat="25.415421640500426" lon="110.45399503782392">
        <ele>394.5</ele>
        <time>2013-11-17T02:51:35Z</time>
      </trkpt>
      <trkpt lat="25.415406636893749" lon="110.45405496843159">
        <ele>395.80000000000001</ele>
        <time>2013-11-17T02:51:41Z</time>
      </trkpt>
      <trkpt lat="25.415393309667706" lon="110.45410333201289">
        <ele>397.89999999999998</ele>
        <time>2013-11-17T02:51:47Z</time>
      </trkpt>
      <trkpt lat="25.415385011583567" lon="110.45416829176247">
        <ele>399</ele>
        <time>2013-11-17T02:51:53Z</time>
      </trkpt>
      <trkpt lat="25.415383335202932" lon="110.45424833893776">
        <ele>397.19999999999999</ele>
        <time>2013-11-17T02:51:59Z</time>
      </trkpt>
      <trkpt lat="25.415385011583567" lon="110.45433836057782">
        <ele>393.80000000000001</ele>
        <time>2013-11-17T02:52:05Z</time>
      </trkpt>
      <trkpt lat="25.415388364344835" lon="110.45438496395946">
        <ele>394.30000000000001</ele>
        <time>2013-11-17T02:52:11Z</time>
      </trkpt>
      <trkpt lat="25.415348298847675" lon="110.45443500392139">
        <ele>394.69999999999999</ele>
        <time>2013-11-17T02:52:17Z</time>
      </trkpt>
      <trkpt lat="25.415315022692084" lon="110.45447004027665">
        <ele>396</ele>
        <time>2013-11-17T02:52:23Z</time>
      </trkpt>
      <trkpt lat="25.415261629968882" lon="110.45451337471604">
        <ele>396.30000000000001</ele>
        <time>2013-11-17T02:52:29Z</time>
      </trkpt>
      <trkpt lat="25.415223324671388" lon="110.45455997809768">
        <ele>396.5</ele>
        <time>2013-11-17T02:52:35Z</time>
      </trkpt>
      <trkpt lat="25.415181666612625" lon="110.45461999252439">
        <ele>395.19999999999999</ele>
        <time>2013-11-17T02:52:41Z</time>
      </trkpt>
      <trkpt lat="25.415145037695765" lon="110.45468335971236">
        <ele>392.69999999999999</ele>
        <time>2013-11-17T02:52:47Z</time>
      </trkpt>
      <trkpt lat="25.415089968591928" lon="110.45472669415176">
        <ele>391.80000000000001</ele>
        <time>2013-11-17T02:52:53Z</time>
      </trkpt>
      <trkpt lat="25.415045041590929" lon="110.45476667582989">
        <ele>390.69999999999999</ele>
        <time>2013-11-17T02:52:59Z</time>
      </trkpt>
      <trkpt lat="25.414995001628995" lon="110.45479668304324">
        <ele>390.30000000000001</ele>
        <time>2013-11-17T02:53:05Z</time>
      </trkpt>
      <trkpt lat="25.414938339963555" lon="110.45481830835342">
        <ele>392.10000000000002</ele>
        <time>2013-11-17T02:53:11Z</time>
      </trkpt>
      <trkpt lat="25.414895005524158" lon="110.45484337024391">
        <ele>393.60000000000002</ele>
        <time>2013-11-17T02:53:17Z</time>
      </trkpt>
      <trkpt lat="25.414844965562224" lon="110.45487002469599">
        <ele>395.30000000000001</ele>
        <time>2013-11-17T02:53:23Z</time>
      </trkpt>
      <trkpt lat="25.41478662751615" lon="110.45489835552871">
        <ele>395.69999999999999</ele>
        <time>2013-11-17T02:53:29Z</time>
      </trkpt>
      <trkpt lat="25.414718315005302" lon="110.45493498444557">
        <ele>395.19999999999999</ele>
        <time>2013-11-17T02:53:35Z</time>
      </trkpt>
      <trkpt lat="25.414658300578594" lon="110.45497664250433">
        <ele>394.89999999999998</ele>
        <time>2013-11-17T02:53:41Z</time>
      </trkpt>
      <trkpt lat="25.414584958925843" lon="110.4550283588469">
        <ele>393.89999999999998</ele>
        <time>2013-11-17T02:53:47Z</time>
      </trkpt>
      <trkpt lat="25.414508348330855" lon="110.45507663860917">
        <ele>393.69999999999999</ele>
        <time>2013-11-17T02:53:53Z</time>
      </trkpt>
      <trkpt lat="25.414428301155567" lon="110.45511167496443">
        <ele>395.30000000000001</ele>
        <time>2013-11-17T02:53:59Z</time>
      </trkpt>
      <trkpt lat="25.414341632276773" lon="110.45513330027461">
        <ele>396.89999999999998</ele>
        <time>2013-11-17T02:54:05Z</time>
      </trkpt>
      <trkpt lat="25.414263345301151" lon="110.45515165664256">
        <ele>397.10000000000002</ele>
        <time>2013-11-17T02:54:11Z</time>
      </trkpt>
      <trkpt lat="25.414203330874443" lon="110.45517336577177">
        <ele>394</ele>
        <time>2013-11-17T02:54:17Z</time>
      </trkpt>
      <trkpt lat="25.414139963686466" lon="110.4551649838686">
        <ele>395.19999999999999</ele>
        <time>2013-11-17T02:54:23Z</time>
      </trkpt>
      <trkpt lat="25.414075003936887" lon="110.45518334023654">
        <ele>393.89999999999998</ele>
        <time>2013-11-17T02:54:29Z</time>
      </trkpt>
      <trkpt lat="25.41400333866477" lon="110.45520337298512">
        <ele>393.80000000000001</ele>
        <time>2013-11-17T02:54:35Z</time>
      </trkpt>
      <trkpt lat="25.413945000618696" lon="110.45521502383053">
        <ele>395.69999999999999</ele>
        <time>2013-11-17T02:54:41Z</time>
      </trkpt>
      <trkpt lat="25.41389336809516" lon="110.45524335466325">
        <ele>398.60000000000002</ele>
        <time>2013-11-17T02:54:47Z</time>
      </trkpt>
      <trkpt lat="25.413846680894494" lon="110.45527168549597">
        <ele>400.80000000000001</ele>
        <time>2013-11-17T02:54:53Z</time>
      </trkpt>
      <trkpt lat="25.41381667368114" lon="110.45531334355474">
        <ele>402.89999999999998</ele>
        <time>2013-11-17T02:54:59Z</time>
      </trkpt>
      <trkpt lat="25.413784990087152" lon="110.45534829609096">
        <ele>407.10000000000002</ele>
        <time>2013-11-17T02:55:05Z</time>
      </trkpt>
      <trkpt lat="25.413733357563615" lon="110.45537997968495">
        <ele>413.10000000000002</ele>
        <time>2013-11-17T02:55:11Z</time>
      </trkpt>
      <trkpt lat="25.413684993982315" lon="110.45543337240815">
        <ele>415.60000000000002</ele>
        <time>2013-11-17T02:55:17Z</time>
      </trkpt>
      <trkpt lat="25.413613328710198" lon="110.45550663024187">
        <ele>417.10000000000002</ele>
        <time>2013-11-17T02:55:23Z</time>
      </trkpt>
      <trkpt lat="25.413600001484156" lon="110.45554669573903">
        <ele>413.10000000000002</ele>
        <time>2013-11-17T02:55:29Z</time>
      </trkpt>
      <trkpt lat="25.413591703400016" lon="110.45557335019112">
        <ele>410.89999999999998</ele>
        <time>2013-11-17T02:55:35Z</time>
      </trkpt>
      <trkpt lat="25.413591703400016" lon="110.45558835379779">
        <ele>408.5</ele>
        <time>2013-11-17T02:55:41Z</time>
      </trkpt>
      <trkpt lat="25.413575023412704" lon="110.45556169934571">
        <ele>409</ele>
        <time>2013-11-17T02:55:47Z</time>
      </trkpt>
      <trkpt lat="25.413566641509533" lon="110.45554166659713">
        <ele>402.89999999999998</ele>
        <time>2013-11-17T02:55:53Z</time>
      </trkpt>
      <trkpt lat="25.413560019806027" lon="110.45557335019112">
        <ele>399</ele>
        <time>2013-11-17T02:55:59Z</time>
      </trkpt>
      <trkpt lat="25.413551637902856" lon="110.45559665188193">
        <ele>397.80000000000001</ele>
        <time>2013-11-17T02:56:05Z</time>
      </trkpt>
      <trkpt lat="25.413541663438082" lon="110.45564166270196">
        <ele>402.60000000000002</ele>
        <time>2013-11-17T02:56:11Z</time>
      </trkpt>
      <trkpt lat="25.413528336212039" lon="110.45564166270196">
        <ele>399</ele>
        <time>2013-11-17T02:56:17Z</time>
      </trkpt>
      <trkpt lat="25.413505034521222" lon="110.45568499714136">
        <ele>405.30000000000001</ele>
        <time>2013-11-17T02:56:23Z</time>
      </trkpt>
      <trkpt lat="25.413466645404696" lon="110.45569002628326">
        <ele>404.80000000000001</ele>
        <time>2013-11-17T02:56:29Z</time>
      </trkpt>
      <trkpt lat="25.413408307358623" lon="110.45572330243886">
        <ele>411.69999999999999</ele>
        <time>2013-11-17T02:56:35Z</time>
      </trkpt>
      <trkpt lat="25.413356674835086" lon="110.4557350371033">
        <ele>414.30000000000001</ele>
        <time>2013-11-17T02:56:41Z</time>
      </trkpt>
      <trkpt lat="25.413288362324238" lon="110.45577501878142">
        <ele>419.39999999999998</ele>
        <time>2013-11-17T02:56:47Z</time>
      </trkpt>
      <trkpt lat="25.413213344290853" lon="110.455839978531">
        <ele>430.30000000000001</ele>
        <time>2013-11-17T02:56:53Z</time>
      </trkpt>
      <trkpt lat="25.413134973496199" lon="110.45585003681481">
        <ele>433.19999999999999</ele>
        <time>2013-11-17T02:56:59Z</time>
      </trkpt>
      <trkpt lat="25.413063308224082" lon="110.45587501488626">
        <ele>436.80000000000001</ele>
        <time>2013-11-17T02:57:05Z</time>
      </trkpt>
      <trkpt lat="25.412991642951965" lon="110.45588666573167">
        <ele>440.19999999999999</ele>
        <time>2013-11-17T02:57:11Z</time>
      </trkpt>
      <trkpt lat="25.412919977679849" lon="110.45589496381581">
        <ele>439.30000000000001</ele>
        <time>2013-11-17T02:57:17Z</time>
      </trkpt>
      <trkpt lat="25.41285996325314" lon="110.45587669126689">
        <ele>435.80000000000001</ele>
        <time>2013-11-17T02:57:23Z</time>
      </trkpt>
      <trkpt lat="25.412793327122927" lon="110.45587836764753">
        <ele>433.10000000000002</ele>
        <time>2013-11-17T02:57:29Z</time>
      </trkpt>
      <trkpt lat="25.412733312696218" lon="110.4558883421123">
        <ele>432.19999999999999</ele>
        <time>2013-11-17T02:57:35Z</time>
      </trkpt>
      <trkpt lat="25.412674974650145" lon="110.45589999295771">
        <ele>431.80000000000001</ele>
        <time>2013-11-17T02:57:41Z</time>
      </trkpt>
      <trkpt lat="25.412604985758662" lon="110.45591164380312">
        <ele>430.19999999999999</ele>
        <time>2013-11-17T02:57:47Z</time>
      </trkpt>
      <trkpt lat="25.412544971331954" lon="110.45589496381581">
        <ele>428.30000000000001</ele>
        <time>2013-11-17T02:57:53Z</time>
      </trkpt>
      <trkpt lat="25.41252669878304" lon="110.45586504042149">
        <ele>423.39999999999998</ele>
        <time>2013-11-17T02:57:59Z</time>
      </trkpt>
      <trkpt lat="25.41250666603446" lon="110.45581164769828">
        <ele>415.80000000000001</ele>
        <time>2013-11-17T02:58:05Z</time>
      </trkpt>
      <trkpt lat="25.412493338808417" lon="110.45579496771097">
        <ele>413.89999999999998</ele>
        <time>2013-11-17T02:58:11Z</time>
      </trkpt>
      <trkpt lat="25.412491662427783" lon="110.45578666962683">
        <ele>412.10000000000002</ele>
        <time>2013-11-17T02:58:17Z</time>
      </trkpt>
      <trkpt lat="25.412466684356332" lon="110.45573168434203">
        <ele>400.80000000000001</ele>
        <time>2013-11-17T02:58:23Z</time>
      </trkpt>
      <trkpt lat="25.412453357130289" lon="110.45569002628326">
        <ele>390.5</ele>
        <time>2013-11-17T02:58:29Z</time>
      </trkpt>
      <trkpt lat="25.412446651607752" lon="110.45566999353468">
        <ele>386.60000000000002</ele>
        <time>2013-11-17T02:58:35Z</time>
      </trkpt>
      <trkpt lat="25.412441706284881" lon="110.45566664077342">
        <ele>386.69999999999999</ele>
        <time>2013-11-17T02:58:41Z</time>
      </trkpt>
      <trkpt lat="25.412441706284881" lon="110.45566001906991">
        <ele>384.39999999999998</ele>
        <time>2013-11-17T02:58:47Z</time>
      </trkpt>
      <trkpt lat="25.412436677142978" lon="110.45566169545054">
        <ele>384.69999999999999</ele>
        <time>2013-11-17T02:58:53Z</time>
      </trkpt>
      <trkpt lat="25.412389989942312" lon="110.45571500435472">
        <ele>391</ele>
        <time>2013-11-17T02:58:59Z</time>
      </trkpt>
      <trkpt lat="25.412338357418776" lon="110.45575666241348">
        <ele>394.10000000000002</ele>
        <time>2013-11-17T02:59:05Z</time>
      </trkpt>
      <trkpt lat="25.412316648289561" lon="110.45576998963952">
        <ele>393.10000000000002</ele>
        <time>2013-11-17T02:59:11Z</time>
      </trkpt>
      <trkpt lat="25.412306673824787" lon="110.4557849932462">
        <ele>395.10000000000002</ele>
        <time>2013-11-17T02:59:17Z</time>
      </trkpt>
      <trkpt lat="25.412308350205421" lon="110.45579999685287">
        <ele>393.69999999999999</ele>
        <time>2013-11-17T02:59:23Z</time>
      </trkpt>
      <trkpt lat="25.412298291921616" lon="110.45582329854369">
        <ele>395.89999999999998</ele>
        <time>2013-11-17T02:59:29Z</time>
      </trkpt>
      <trkpt lat="25.412274990230799" lon="110.45583830215037">
        <ele>396.89999999999998</ele>
        <time>2013-11-17T02:59:35Z</time>
      </trkpt>
      <trkpt lat="25.412248335778713" lon="110.45585665851831">
        <ele>397.69999999999999</ele>
        <time>2013-11-17T02:59:41Z</time>
      </trkpt>
      <trkpt lat="25.412221681326628" lon="110.45585330575705">
        <ele>400.60000000000002</ele>
        <time>2013-11-17T02:59:47Z</time>
      </trkpt>
      <trkpt lat="25.412156637758017" lon="110.45585330575705">
        <ele>401.80000000000001</ele>
        <time>2013-11-17T02:59:53Z</time>
      </trkpt>
      <trkpt lat="25.4120849724859" lon="110.45583000406623">
        <ele>401.60000000000002</ele>
        <time>2013-11-17T02:59:59Z</time>
      </trkpt>
      <trkpt lat="25.41204834356904" lon="110.45578834600747">
        <time>2013-11-17T03:00:04Z</time>
      </trkpt>
      <trkpt lat="25.412038369104266" lon="110.45578164048493">
        <ele>400.19999999999999</ele>
        <time>2013-11-17T03:00:05Z</time>
      </trkpt>
      <trkpt lat="25.411973325535655" lon="110.45573998242617">
        <ele>399.5</ele>
        <time>2013-11-17T03:00:11Z</time>
      </trkpt>
      <trkpt lat="25.411903336644173" lon="110.45573168434203">
        <ele>400.39999999999998</ele>
        <time>2013-11-17T03:00:17Z</time>
      </trkpt>
      <trkpt lat="25.411853296682239" lon="110.4557366296649">
        <ele>402.69999999999999</ele>
        <time>2013-11-17T03:00:22Z</time>
      </trkpt>
      <trkpt lat="25.411773333325982" lon="110.45573998242617">
        <ele>405.80000000000001</ele>
        <time>2013-11-17T03:00:29Z</time>
      </trkpt>
      <trkpt lat="25.411698315292597" lon="110.45566337183118">
        <ele>396.89999999999998</ele>
        <time>2013-11-17T03:00:40Z</time>
      </trkpt>
      <trkpt lat="25.411635031923652" lon="110.45566001906991">
        <ele>396</ele>
        <time>2013-11-17T03:00:46Z</time>
      </trkpt>
      <trkpt lat="25.411471668630838" lon="110.45565834268928">
        <ele>394.69999999999999</ele>
        <time>2013-11-17T03:01:04Z</time>
      </trkpt>
      <trkpt lat="25.411294978111982" lon="110.4556932952255">
        <ele>396.89999999999998</ele>
        <time>2013-11-17T03:01:22Z</time>
      </trkpt>
      <trkpt lat="25.411203363910317" lon="110.4556932952255">
        <time>2013-11-17T03:01:28Z</time>
      </trkpt>
      <trkpt lat="25.411191629245877" lon="110.4556932952255">
        <ele>395.69999999999999</ele>
        <time>2013-11-17T03:01:29Z</time>
      </trkpt>
      <trkpt lat="25.411126669496298" lon="110.45570167712867">
        <ele>394.80000000000001</ele>
        <time>2013-11-17T03:01:34Z</time>
      </trkpt>
      <trkpt lat="25.41105835698545" lon="110.45571835711598">
        <ele>394.39999999999998</ele>
        <time>2013-11-17T03:01:40Z</time>
      </trkpt>
      <trkpt lat="25.410986691713333" lon="110.45574501156807">
        <ele>394.10000000000002</ele>
        <time>2013-11-17T03:01:46Z</time>
      </trkpt>
      <trkpt lat="25.410906644538045" lon="110.45577334240079">
        <time>2013-11-17T03:01:52Z</time>
      </trkpt>
      <trkpt lat="25.410891640931368" lon="110.45577669516206">
        <ele>394.89999999999998</ele>
        <time>2013-11-17T03:01:53Z</time>
      </trkpt>
      <trkpt lat="25.41082332842052" lon="110.45578834600747">
        <ele>395.69999999999999</ele>
        <time>2013-11-17T03:01:58Z</time>
      </trkpt>
      <trkpt lat="25.410748310387135" lon="110.45582002960145">
        <time>2013-11-17T03:02:10Z</time>
      </trkpt>
      <trkpt lat="25.410745041444898" lon="110.45582497492433">
        <ele>394.39999999999998</ele>
        <time>2013-11-17T03:02:11Z</time>
      </trkpt>
      <trkpt lat="25.410583354532719" lon="110.45579832047224">
        <time>2013-11-17T03:02:28Z</time>
      </trkpt>
      <trkpt lat="25.41057170368731" lon="110.45579496771097">
        <ele>391.19999999999999</ele>
        <time>2013-11-17T03:02:29Z</time>
      </trkpt>
      <trkpt lat="25.410458296537399" lon="110.45575330965221">
        <ele>390.60000000000002</ele>
        <time>2013-11-17T03:02:40Z</time>
      </trkpt>
      <trkpt lat="25.41039333678782" lon="110.45573000796139">
        <time>2013-11-17T03:02:46Z</time>
      </trkpt>
      <trkpt lat="25.410383362323046" lon="110.45572665520012">
        <ele>390.19999999999999</ele>
        <time>2013-11-17T03:02:47Z</time>
      </trkpt>
      <trkpt lat="25.410256627947092" lon="110.45568834990263">
        <ele>387.69999999999999</ele>
        <time>2013-11-17T03:02:58Z</time>
      </trkpt>
      <trkpt lat="25.410211700946093" lon="110.45566999353468">
        <time>2013-11-17T03:03:04Z</time>
      </trkpt>
      <trkpt lat="25.410203319042921" lon="110.45566664077342">
        <ele>385.39999999999998</ele>
        <time>2013-11-17T03:03:05Z</time>
      </trkpt>
      <trkpt lat="25.410163337364793" lon="110.45566001906991">
        <time>2013-11-17T03:03:10Z</time>
      </trkpt>
      <trkpt lat="25.410155039280653" lon="110.45565834268928">
        <ele>384.10000000000002</ele>
        <time>2013-11-17T03:03:11Z</time>
      </trkpt>
      <trkpt lat="25.410113297402859" lon="110.45565331354737">
        <time>2013-11-17T03:03:16Z</time>
      </trkpt>
      <trkpt lat="25.410104999318719" lon="110.45565163716674">
        <ele>385.60000000000002</ele>
        <time>2013-11-17T03:03:17Z</time>
      </trkpt>
      <trkpt lat="25.410058312118053" lon="110.45563168823719">
        <time>2013-11-17T03:03:22Z</time>
      </trkpt>
      <trkpt lat="25.410046661272645" lon="110.45562833547592">
        <ele>384.89999999999998</ele>
        <time>2013-11-17T03:03:23Z</time>
      </trkpt>
      <trkpt lat="25.409989999607205" lon="110.45560997910798">
        <time>2013-11-17T03:03:28Z</time>
      </trkpt>
      <trkpt lat="25.409980025142431" lon="110.45560662634671">
        <ele>383.5</ele>
        <time>2013-11-17T03:03:29Z</time>
      </trkpt>
      <trkpt lat="25.409920010715723" lon="110.4556050337851">
        <time>2013-11-17T03:03:34Z</time>
      </trkpt>
      <trkpt lat="25.409908359870315" lon="110.4556050337851">
        <ele>381.69999999999999</ele>
        <time>2013-11-17T03:03:35Z</time>
      </trkpt>
      <trkpt lat="25.409865025430918" lon="110.45561668463051">
        <time>2013-11-17T03:03:40Z</time>
      </trkpt>
      <trkpt lat="25.409856643527746" lon="110.45562162995338">
        <ele>380.39999999999998</ele>
        <time>2013-11-17T03:03:41Z</time>
      </trkpt>
      <trkpt lat="25.40980501100421" lon="110.45564669184387">
        <time>2013-11-17T03:03:46Z</time>
      </trkpt>
      <trkpt lat="25.409796629101038" lon="110.45565331354737">
        <ele>378.39999999999998</ele>
        <time>2013-11-17T03:03:47Z</time>
      </trkpt>
      <trkpt lat="25.409771651029587" lon="110.45568499714136">
        <time>2013-11-17T03:03:52Z</time>
      </trkpt>
      <trkpt lat="25.409765029326081" lon="110.4556917026639">
        <ele>381.5</ele>
        <time>2013-11-17T03:03:53Z</time>
      </trkpt>
      <trkpt lat="25.409739967435598" lon="110.45572833158076">
        <time>2013-11-17T03:03:58Z</time>
      </trkpt>
      <trkpt lat="25.409735022112727" lon="110.4557366296649">
        <ele>380.5</ele>
        <time>2013-11-17T03:03:59Z</time>
      </trkpt>
      <trkpt lat="25.409714989364147" lon="110.45578164048493">
        <time>2013-11-17T03:04:04Z</time>
      </trkpt>
      <trkpt lat="25.409709960222244" lon="110.4557900223881">
        <ele>380.60000000000002</ele>
        <time>2013-11-17T03:04:05Z</time>
      </trkpt>
      <trkpt lat="25.409695040434599" lon="110.45582002960145">
        <time>2013-11-17T03:04:10Z</time>
      </trkpt>
      <trkpt lat="25.409690011292696" lon="110.45582665130496">
        <ele>383.39999999999998</ele>
        <time>2013-11-17T03:04:11Z</time>
      </trkpt>
      <trkpt lat="25.409663356840611" lon="110.45585003681481">
        <time>2013-11-17T03:04:16Z</time>
      </trkpt>
      <trkpt lat="25.409660004079342" lon="110.45585330575705">
        <ele>388</ele>
        <time>2013-11-17T03:04:17Z</time>
      </trkpt>
      <trkpt lat="25.409639971330762" lon="110.45586998574436">
        <time>2013-11-17T03:04:22Z</time>
      </trkpt>
      <trkpt lat="25.409638294950128" lon="110.45587333850563">
        <ele>393.60000000000002</ele>
        <time>2013-11-17T03:04:23Z</time>
      </trkpt>
      <trkpt lat="25.409628320485353" lon="110.45589001849294">
        <time>2013-11-17T03:04:28Z</time>
      </trkpt>
      <trkpt lat="25.409624967724085" lon="110.45589337125421">
        <ele>398.19999999999999</ele>
        <time>2013-11-17T03:04:29Z</time>
      </trkpt>
      <trkpt lat="25.409599989652634" lon="110.45592329464853">
        <time>2013-11-17T03:04:34Z</time>
      </trkpt>
      <trkpt lat="25.409594960510731" lon="110.45593000017107">
        <ele>404.5</ele>
        <time>2013-11-17T03:04:35Z</time>
      </trkpt>
      <trkpt lat="25.409583309665322" lon="110.45596503652632">
        <time>2013-11-17T03:04:40Z</time>
      </trkpt>
      <trkpt lat="25.409580040723085" lon="110.45597668737173">
        <ele>407.80000000000001</ele>
        <time>2013-11-17T03:04:41Z</time>
      </trkpt>
      <trkpt lat="25.409566629678011" lon="110.45603334903717">
        <time>2013-11-17T03:04:46Z</time>
      </trkpt>
      <trkpt lat="25.409566629678011" lon="110.45604164712131">
        <ele>408.80000000000001</ele>
        <time>2013-11-17T03:04:47Z</time>
      </trkpt>
      <trkpt lat="25.40954165160656" lon="110.45608833432198">
        <time>2013-11-17T03:04:52Z</time>
      </trkpt>
      <trkpt lat="25.409539975225925" lon="110.45609830878675">
        <ele>413.69999999999999</ele>
        <time>2013-11-17T03:04:53Z</time>
      </trkpt>
      <trkpt lat="25.40951332077384" lon="110.45614331960678">
        <time>2013-11-17T03:04:58Z</time>
      </trkpt>
      <trkpt lat="25.409506699070334" lon="110.45615497045219">
        <ele>420.19999999999999</ele>
        <time>2013-11-17T03:04:59Z</time>
      </trkpt>
      <trkpt lat="25.409491695463657" lon="110.45621330849826">
        <time>2013-11-17T03:05:04Z</time>
      </trkpt>
      <trkpt lat="25.409488342702389" lon="110.45622495934367">
        <ele>424.10000000000002</ele>
        <time>2013-11-17T03:05:05Z</time>
      </trkpt>
      <trkpt lat="25.40947669185698" lon="110.45627164654434">
        <time>2013-11-17T03:05:10Z</time>
      </trkpt>
      <trkpt lat="25.409475015476346" lon="110.45628002844751">
        <ele>420.89999999999998</ele>
        <time>2013-11-17T03:05:11Z</time>
      </trkpt>
      <trkpt lat="25.409475015476346" lon="110.45634331181645">
        <time>2013-11-17T03:05:16Z</time>
      </trkpt>
      <trkpt lat="25.40947669185698" lon="110.45635496266186">
        <ele>417.19999999999999</ele>
        <time>2013-11-17T03:05:17Z</time>
      </trkpt>
      <trkpt lat="25.409471662715077" lon="110.45642335899174">
        <time>2013-11-17T03:05:22Z</time>
      </trkpt>
      <trkpt lat="25.40947669185698" lon="110.45643836259842">
        <ele>417.60000000000002</ele>
        <time>2013-11-17T03:05:23Z</time>
      </trkpt>
      <trkpt lat="25.409488342702389" lon="110.45651664957404">
        <time>2013-11-17T03:05:28Z</time>
      </trkpt>
      <trkpt lat="25.409491695463657" lon="110.45653165318072">
        <ele>414.60000000000002</ele>
        <time>2013-11-17T03:05:29Z</time>
      </trkpt>
      <trkpt lat="25.409501669928432" lon="110.4566066712141">
        <time>2013-11-17T03:05:34Z</time>
      </trkpt>
      <trkpt lat="25.409503346309066" lon="110.45662167482078">
        <ele>408.69999999999999</ele>
        <time>2013-11-17T03:05:35Z</time>
      </trkpt>
      <trkpt lat="25.409514997154474" lon="110.4566933400929">
        <time>2013-11-17T03:05:40Z</time>
      </trkpt>
      <trkpt lat="25.409520026296377" lon="110.45670666731894">
        <ele>406.10000000000002</ele>
        <time>2013-11-17T03:05:41Z</time>
      </trkpt>
      <trkpt lat="25.409553302451968" lon="110.45675997622311">
        <time>2013-11-17T03:05:46Z</time>
      </trkpt>
      <trkpt lat="25.409558331593871" lon="110.45677162706852">
        <ele>407</ele>
        <time>2013-11-17T03:05:47Z</time>
      </trkpt>
      <trkpt lat="25.409575011581182" lon="110.4568349942565">
        <time>2013-11-17T03:05:52Z</time>
      </trkpt>
      <trkpt lat="25.409580040723085" lon="110.4568466451019">
        <ele>412.19999999999999</ele>
        <time>2013-11-17T03:05:53Z</time>
      </trkpt>
      <trkpt lat="25.409613316878676" lon="110.45691001228988">
        <ele>413.10000000000002</ele>
        <time>2013-11-17T03:05:58Z</time>
      </trkpt>
      <trkpt lat="25.409638294950128" lon="110.4569867067039">
        <time>2013-11-17T03:06:04Z</time>
      </trkpt>
      <trkpt lat="25.409641647711396" lon="110.45700003392994">
        <ele>411.10000000000002</ele>
        <time>2013-11-17T03:06:05Z</time>
      </trkpt>
      <trkpt lat="25.409648353233933" lon="110.45705669559538">
        <time>2013-11-17T03:06:10Z</time>
      </trkpt>
      <trkpt lat="25.409645000472665" lon="110.45706834644079">
        <ele>412.30000000000001</ele>
        <time>2013-11-17T03:06:11Z</time>
      </trkpt>
      <trkpt lat="25.409626644104719" lon="110.45712165534496">
        <ele>412.80000000000001</ele>
        <time>2013-11-17T03:06:16Z</time>
      </trkpt>
      <trkpt lat="25.409598313271999" lon="110.4571783170104">
        <time>2013-11-17T03:06:22Z</time>
      </trkpt>
      <trkpt lat="25.409596636891365" lon="110.45718829147518">
        <ele>414.60000000000002</ele>
        <time>2013-11-17T03:06:23Z</time>
      </trkpt>
      <trkpt lat="25.409573335200548" lon="110.45724336057901">
        <time>2013-11-17T03:06:28Z</time>
      </trkpt>
      <trkpt lat="25.40956998243928" lon="110.45725501142442">
        <ele>415.19999999999999</ele>
        <time>2013-11-17T03:06:29Z</time>
      </trkpt>
      <trkpt lat="25.409568306058645" lon="110.45730169862509">
        <ele>416.80000000000001</ele>
        <time>2013-11-17T03:06:34Z</time>
      </trkpt>
      <trkpt lat="25.40959001518786" lon="110.45738333836198">
        <time>2013-11-17T03:06:40Z</time>
      </trkpt>
      <trkpt lat="25.409593367949128" lon="110.45740001834929">
        <ele>411.69999999999999</ele>
        <time>2013-11-17T03:06:41Z</time>
      </trkpt>
      <trkpt lat="25.409616669639945" lon="110.45747336000204">
        <time>2013-11-17T03:06:46Z</time>
      </trkpt>
      <trkpt lat="25.409621698781848" lon="110.45748836360872">
        <ele>407.30000000000001</ele>
        <time>2013-11-17T03:06:47Z</time>
      </trkpt>
      <trkpt lat="25.409633349627256" lon="110.45754829421639">
        <ele>406.30000000000001</ele>
        <time>2013-11-17T03:06:52Z</time>
      </trkpt>
      <trkpt lat="25.409631673246622" lon="110.45762666501105">
        <ele>404.30000000000001</ele>
        <time>2013-11-17T03:06:58Z</time>
      </trkpt>
      <trkpt lat="25.409621698781848" lon="110.4577000066638">
        <time>2013-11-17T03:07:04Z</time>
      </trkpt>
      <trkpt lat="25.409618346020579" lon="110.45770998112857">
        <ele>406</ele>
        <time>2013-11-17T03:07:05Z</time>
      </trkpt>
      <trkpt lat="25.409621698781848" lon="110.45776337385178">
        <ele>407.5</ele>
        <time>2013-11-17T03:07:10Z</time>
      </trkpt>
      <trkpt lat="25.409638294950128" lon="110.45782833360136">
        <ele>408</ele>
        <time>2013-11-17T03:07:16Z</time>
      </trkpt>
      <trkpt lat="25.409673331305385" lon="110.45786496251822">
        <ele>411.80000000000001</ele>
        <time>2013-11-17T03:07:22Z</time>
      </trkpt>
      <trkpt lat="25.409721694886684" lon="110.45792003162205">
        <ele>410.80000000000001</ele>
        <time>2013-11-17T03:07:28Z</time>
      </trkpt>
      <trkpt lat="25.409763352945447" lon="110.45799496583641">
        <ele>409</ele>
        <time>2013-11-17T03:07:34Z</time>
      </trkpt>
      <trkpt lat="25.40977668017149" lon="110.45804668217897">
        <ele>412.19999999999999</ele>
        <time>2013-11-17T03:07:40Z</time>
      </trkpt>
      <trkpt lat="25.40977668017149" lon="110.45810996554792">
        <ele>416.69999999999999</ele>
        <time>2013-11-17T03:07:46Z</time>
      </trkpt>
      <trkpt lat="25.409781625494361" lon="110.45816000550985">
        <ele>420.39999999999998</ele>
        <time>2013-11-17T03:07:52Z</time>
      </trkpt>
      <trkpt lat="25.409799981862307" lon="110.4581783618778">
        <ele>419.19999999999999</ele>
        <time>2013-11-17T03:07:58Z</time>
      </trkpt>
      <trkpt lat="25.409813309088349" lon="110.45819831080735">
        <ele>424.5</ele>
        <time>2013-11-17T03:08:04Z</time>
      </trkpt>
      <trkpt lat="25.409833341836929" lon="110.45819001272321">
        <ele>429.19999999999999</ele>
        <time>2013-11-17T03:08:10Z</time>
      </trkpt>
      <trkpt lat="25.409863349050283" lon="110.45820669271052">
        <ele>432.30000000000001</ele>
        <time>2013-11-17T03:08:16Z</time>
      </trkpt>
      <trkpt lat="25.4098866507411" lon="110.45820166356862">
        <ele>428.19999999999999</ele>
        <time>2013-11-17T03:08:22Z</time>
      </trkpt>
      <trkpt lat="25.409884974360466" lon="110.45820333994925">
        <ele>426.39999999999998</ele>
        <time>2013-11-17T03:08:28Z</time>
      </trkpt>
      <trkpt lat="25.409890003502369" lon="110.45819168910384">
        <ele>423.19999999999999</ele>
        <time>2013-11-17T03:08:34Z</time>
      </trkpt>
      <trkpt lat="25.40990668348968" lon="110.4581733327359">
        <ele>422.80000000000001</ele>
        <time>2013-11-17T03:08:40Z</time>
      </trkpt>
      <trkpt lat="25.409950017929077" lon="110.45815329998732">
        <ele>422.30000000000001</ele>
        <time>2013-11-17T03:08:46Z</time>
      </trkpt>
      <trkpt lat="25.410021683201194" lon="110.4581783618778">
        <ele>415.69999999999999</ele>
        <time>2013-11-17T03:08:52Z</time>
      </trkpt>
      <trkpt lat="25.410106675699353" lon="110.45822999440134">
        <ele>409.80000000000001</ele>
        <time>2013-11-17T03:08:58Z</time>
      </trkpt>
      <trkpt lat="25.410193344578147" lon="110.45830333605409">
        <ele>405.5</ele>
        <time>2013-11-17T03:09:04Z</time>
      </trkpt>
      <trkpt lat="25.410261657088995" lon="110.45835496857762">
        <ele>404.19999999999999</ele>
        <time>2013-11-17T03:09:10Z</time>
      </trkpt>
      <trkpt lat="25.410331645980477" lon="110.45842831023037">
        <ele>402.60000000000002</ele>
        <time>2013-11-17T03:09:16Z</time>
      </trkpt>
      <trkpt lat="25.410395013168454" lon="110.45848329551518">
        <ele>401.39999999999998</ele>
        <time>2013-11-17T03:09:22Z</time>
      </trkpt>
      <trkpt lat="25.410456703975797" lon="110.45854330994189">
        <ele>402</ele>
        <time>2013-11-17T03:09:28Z</time>
      </trkpt>
      <trkpt lat="25.410514958202839" lon="110.45859334990382">
        <ele>401.5</ele>
        <time>2013-11-17T03:09:34Z</time>
      </trkpt>
      <trkpt lat="25.41055996902287" lon="110.45864833518863">
        <ele>400.19999999999999</ele>
        <time>2013-11-17T03:09:40Z</time>
      </trkpt>
      <trkpt lat="25.410601627081633" lon="110.45869502238929">
        <ele>400.19999999999999</ele>
        <time>2013-11-17T03:09:46Z</time>
      </trkpt>
      <trkpt lat="25.410640016198158" lon="110.4587449785322">
        <ele>401.19999999999999</ele>
        <time>2013-11-17T03:09:52Z</time>
      </trkpt>
      <trkpt lat="25.410674968734384" lon="110.45880666933954">
        <ele>403.10000000000002</ele>
        <time>2013-11-17T03:09:58Z</time>
      </trkpt>
      <trkpt lat="25.410701707005501" lon="110.4588483273983">
        <ele>407.5</ele>
        <time>2013-11-17T03:10:04Z</time>
      </trkpt>
      <trkpt lat="25.410740012302995" lon="110.45890834182501">
        <ele>409.30000000000001</ele>
        <time>2013-11-17T03:10:10Z</time>
      </trkpt>
      <trkpt lat="25.41076666675508" lon="110.45897330157459">
        <ele>408.10000000000002</ele>
        <time>2013-11-17T03:10:16Z</time>
      </trkpt>
      <trkpt lat="25.41078669950366" lon="110.45904664322734">
        <ele>406.69999999999999</ele>
        <time>2013-11-17T03:10:22Z</time>
      </trkpt>
      <trkpt lat="25.410806648433208" lon="110.45909835956991">
        <ele>408</ele>
        <time>2013-11-17T03:10:28Z</time>
      </trkpt>
      <trkpt lat="25.410819975659251" lon="110.45911998488009">
        <ele>410</ele>
        <time>2013-11-17T03:10:34Z</time>
      </trkpt>
      <trkpt lat="25.410849982872605" lon="110.45915334485471">
        <ele>413.10000000000002</ele>
        <time>2013-11-17T03:10:40Z</time>
      </trkpt>
      <trkpt lat="25.410888371989131" lon="110.45917170122266">
        <ele>414.69999999999999</ele>
        <time>2013-11-17T03:10:46Z</time>
      </trkpt>
      <trkpt lat="25.410923324525356" lon="110.45920665375888">
        <ele>415.80000000000001</ele>
        <time>2013-11-17T03:10:52Z</time>
      </trkpt>
      <trkpt lat="25.410975040867925" lon="110.45922165736556">
        <ele>415.19999999999999</ele>
        <time>2013-11-17T03:10:58Z</time>
      </trkpt>
      <trkpt lat="25.411031702533364" lon="110.45925669372082">
        <ele>416.69999999999999</ele>
        <time>2013-11-17T03:11:04Z</time>
      </trkpt>
      <trkpt lat="25.41108668781817" lon="110.45930002816021">
        <ele>414.30000000000001</ele>
        <time>2013-11-17T03:11:10Z</time>
      </trkpt>
      <trkpt lat="25.411143349483609" lon="110.45934503898025">
        <ele>414.19999999999999</ele>
        <time>2013-11-17T03:11:16Z</time>
      </trkpt>
      <trkpt lat="25.411198334768414" lon="110.45938334427774">
        <ele>414.5</ele>
        <time>2013-11-17T03:11:22Z</time>
      </trkpt>
      <trkpt lat="25.411251643672585" lon="110.45941167511046">
        <ele>414.30000000000001</ele>
        <time>2013-11-17T03:11:28Z</time>
      </trkpt>
      <trkpt lat="25.411308305338025" lon="110.45944503508508">
        <ele>410.19999999999999</ele>
        <time>2013-11-17T03:11:34Z</time>
      </trkpt>
      <trkpt lat="25.411354992538691" lon="110.45947168953717">
        <ele>409.80000000000001</ele>
        <time>2013-11-17T03:11:40Z</time>
      </trkpt>
      <trkpt lat="25.411388352513313" lon="110.45950002036989">
        <ele>411.39999999999998</ele>
        <time>2013-11-17T03:11:46Z</time>
      </trkpt>
      <trkpt lat="25.411430010572076" lon="110.45954503118992">
        <ele>413.89999999999998</ele>
        <time>2013-11-17T03:11:52Z</time>
      </trkpt>
      <trkpt lat="25.411478374153376" lon="110.45958501286805">
        <ele>418.80000000000001</ele>
        <time>2013-11-17T03:11:58Z</time>
      </trkpt>
      <trkpt lat="25.411518355831504" lon="110.45961837284267">
        <ele>423.39999999999998</ele>
        <time>2013-11-17T03:12:04Z</time>
      </trkpt>
      <trkpt lat="25.411566635593772" lon="110.45967335812747">
        <ele>426.39999999999998</ele>
        <time>2013-11-17T03:12:10Z</time>
      </trkpt>
      <trkpt lat="25.411591697484255" lon="110.45973001979291">
        <ele>428.19999999999999</ele>
        <time>2013-11-17T03:12:16Z</time>
      </trkpt>
      <trkpt lat="25.411621704697609" lon="110.4598000086844">
        <ele>425.89999999999998</ele>
        <time>2013-11-17T03:12:22Z</time>
      </trkpt>
      <trkpt lat="25.411638300865889" lon="110.45986832119524">
        <ele>422.80000000000001</ele>
        <time>2013-11-17T03:12:28Z</time>
      </trkpt>
      <trkpt lat="25.411660009995103" lon="110.45993336476386">
        <ele>420.10000000000002</ele>
        <time>2013-11-17T03:12:34Z</time>
      </trkpt>
      <trkpt lat="25.411666631698608" lon="110.46000503003597">
        <ele>417.60000000000002</ele>
        <time>2013-11-17T03:12:40Z</time>
      </trkpt>
      <trkpt lat="25.411684988066554" lon="110.46008666977286">
        <ele>413.5</ele>
        <time>2013-11-17T03:12:46Z</time>
      </trkpt>
      <trkpt lat="25.41171164251864" lon="110.46015498228371">
        <ele>410.60000000000002</ele>
        <time>2013-11-17T03:12:52Z</time>
      </trkpt>
      <trkpt lat="25.411741649731994" lon="110.46020996756852">
        <ele>407.39999999999998</ele>
        <time>2013-11-17T03:12:58Z</time>
      </trkpt>
      <trkpt lat="25.411776686087251" lon="110.46025330200791">
        <ele>407.10000000000002</ele>
        <time>2013-11-17T03:13:04Z</time>
      </trkpt>
      <trkpt lat="25.411818344146013" lon="110.46030334196985">
        <ele>406.69999999999999</ele>
        <time>2013-11-17T03:13:10Z</time>
      </trkpt>
      <trkpt lat="25.41186167858541" lon="110.46034835278988">
        <ele>407.69999999999999</ele>
        <time>2013-11-17T03:13:16Z</time>
      </trkpt>
      <trkpt lat="25.411891685798764" lon="110.46039503999054">
        <ele>410.39999999999998</ele>
        <time>2013-11-17T03:13:22Z</time>
      </trkpt>
      <trkpt lat="25.41191834025085" lon="110.46044499613345">
        <ele>414.69999999999999</ele>
        <time>2013-11-17T03:13:28Z</time>
      </trkpt>
      <trkpt lat="25.411943318322301" lon="110.46049503609538">
        <ele>418.80000000000001</ele>
        <time>2013-11-17T03:13:34Z</time>
      </trkpt>
      <trkpt lat="25.411975001916289" lon="110.46053166501224">
        <ele>425.69999999999999</ele>
        <time>2013-11-17T03:13:40Z</time>
      </trkpt>
      <trkpt lat="25.411980031058192" lon="110.46056502498686">
        <ele>432.30000000000001</ele>
        <time>2013-11-17T03:13:46Z</time>
      </trkpt>
      <trkpt lat="25.411999979987741" lon="110.46059503220022">
        <ele>435.89999999999998</ele>
        <time>2013-11-17T03:13:52Z</time>
      </trkpt>
      <trkpt lat="25.412033339962363" lon="110.46061833389103">
        <ele>439.30000000000001</ele>
        <time>2013-11-17T03:13:58Z</time>
      </trkpt>
      <trkpt lat="25.412071645259857" lon="110.46062336303294">
        <ele>441.5</ele>
        <time>2013-11-17T03:14:04Z</time>
      </trkpt>
      <trkpt lat="25.412121685221791" lon="110.4606216866523">
        <ele>444.80000000000001</ele>
        <time>2013-11-17T03:14:10Z</time>
      </trkpt>
      <trkpt lat="25.412165019661188" lon="110.46060500666499">
        <ele>445.60000000000002</ele>
        <time>2013-11-17T03:14:16Z</time>
      </trkpt>
      <trkpt lat="25.41221497580409" lon="110.46059167943895">
        <ele>445.89999999999998</ele>
        <time>2013-11-17T03:14:22Z</time>
      </trkpt>
      <trkpt lat="25.412278342992067" lon="110.46059000305831">
        <ele>446.19999999999999</ele>
        <time>2013-11-17T03:14:28Z</time>
      </trkpt>
      <trkpt lat="25.412329975515604" lon="110.460573323071">
        <ele>444.19999999999999</ele>
        <time>2013-11-17T03:14:34Z</time>
      </trkpt>
      <trkpt lat="25.412383368238807" lon="110.46056167222559">
        <ele>439.80000000000001</ele>
        <time>2013-11-17T03:14:40Z</time>
      </trkpt>
      <trkpt lat="25.412435000762343" lon="110.46055169776082">
        <ele>437.19999999999999</ele>
        <time>2013-11-17T03:14:46Z</time>
      </trkpt>
      <trkpt lat="25.412504989653826" lon="110.46055002138019">
        <ele>435.10000000000002</ele>
        <time>2013-11-17T03:14:52Z</time>
      </trkpt>
      <trkpt lat="25.412570033222437" lon="110.46053837053478">
        <ele>431</ele>
        <time>2013-11-17T03:14:58Z</time>
      </trkpt>
      <trkpt lat="25.412638345733285" lon="110.46051163226366">
        <ele>426.80000000000001</ele>
        <time>2013-11-17T03:15:04Z</time>
      </trkpt>
      <trkpt lat="25.412708334624767" lon="110.46050501056015">
        <ele>424</ele>
        <time>2013-11-17T03:15:10Z</time>
      </trkpt>
      <trkpt lat="25.412781676277518" lon="110.4605249594897">
        <ele>419.30000000000001</ele>
        <time>2013-11-17T03:15:16Z</time>
      </trkpt>
      <trkpt lat="25.412856694310904" lon="110.46057499945164">
        <ele>414.60000000000002</ele>
        <time>2013-11-17T03:15:22Z</time>
      </trkpt>
      <trkpt lat="25.412925006821752" lon="110.46062336303294">
        <ele>411.5</ele>
        <time>2013-11-17T03:15:28Z</time>
      </trkpt>
      <trkpt lat="25.412983344867826" lon="110.4606650210917">
        <ele>410.5</ele>
        <time>2013-11-17T03:15:34Z</time>
      </trkpt>
      <trkpt lat="25.413033301010728" lon="110.4607083555311">
        <ele>411.69999999999999</ele>
        <time>2013-11-17T03:15:40Z</time>
      </trkpt>
      <trkpt lat="25.413085017353296" lon="110.46075998805463">
        <ele>412.60000000000002</ele>
        <time>2013-11-17T03:15:46Z</time>
      </trkpt>
      <trkpt lat="25.413134973496199" lon="110.46081002801657">
        <ele>412.89999999999998</ele>
        <time>2013-11-17T03:15:52Z</time>
      </trkpt>
      <trkpt lat="25.413186689838767" lon="110.4608616605401">
        <ele>411.89999999999998</ele>
        <time>2013-11-17T03:15:58Z</time>
      </trkpt>
      <trkpt lat="25.413251649588346" lon="110.46091664582491">
        <ele>409.10000000000002</ele>
        <time>2013-11-17T03:16:04Z</time>
      </trkpt>
      <trkpt lat="25.413304958492517" lon="110.46096500940621">
        <ele>407.80000000000001</ele>
        <time>2013-11-17T03:16:10Z</time>
      </trkpt>
      <trkpt lat="25.413351645693183" lon="110.46101169660687">
        <ele>406.80000000000001</ele>
        <time>2013-11-17T03:16:16Z</time>
      </trkpt>
      <trkpt lat="25.413390034809709" lon="110.46106165274978">
        <ele>408.80000000000001</ele>
        <time>2013-11-17T03:16:22Z</time>
      </trkpt>
      <trkpt lat="25.413426663726568" lon="110.46110498718917">
        <ele>412.89999999999998</ele>
        <time>2013-11-17T03:16:28Z</time>
      </trkpt>
      <trkpt lat="25.413454994559288" lon="110.46115670353174">
        <ele>416.80000000000001</ele>
        <time>2013-11-17T03:16:34Z</time>
      </trkpt>
      <trkpt lat="25.413493299856782" lon="110.46121998690069">
        <ele>417.60000000000002</ele>
        <time>2013-11-17T03:16:40Z</time>
      </trkpt>
      <trkpt lat="25.413516685366631" lon="110.46126667410135">
        <ele>417.5</ele>
        <time>2013-11-17T03:16:46Z</time>
      </trkpt>
      <trkpt lat="25.413536634296179" lon="110.46132668852806">
        <ele>418.89999999999998</ele>
        <time>2013-11-17T03:16:52Z</time>
      </trkpt>
      <trkpt lat="25.413558343425393" lon="110.46138670295477">
        <ele>420.19999999999999</ele>
        <time>2013-11-17T03:16:58Z</time>
      </trkpt>
      <trkpt lat="25.413579968735576" lon="110.46144168823957">
        <ele>419</ele>
        <time>2013-11-17T03:17:04Z</time>
      </trkpt>
      <trkpt lat="25.413591703400016" lon="110.46145996078849">
        <ele>415.10000000000002</ele>
        <time>2013-11-17T03:17:10Z</time>
      </trkpt>
      <trkpt lat="25.413613328710198" lon="110.46149834990501">
        <ele>413.69999999999999</ele>
        <time>2013-11-17T03:17:16Z</time>
      </trkpt>
      <trkpt lat="25.413641659542918" lon="110.46154336072505">
        <ele>413.30000000000001</ele>
        <time>2013-11-17T03:17:22Z</time>
      </trkpt>
      <trkpt lat="25.413660015910864" lon="110.4615799896419">
        <ele>412.89999999999998</ele>
        <time>2013-11-17T03:17:28Z</time>
      </trkpt>
      <trkpt lat="25.413684993982315" lon="110.46163497492671">
        <ele>413.19999999999999</ele>
        <time>2013-11-17T03:17:34Z</time>
      </trkpt>
      <trkpt lat="25.413715001195669" lon="110.46169163659215">
        <ele>412.80000000000001</ele>
        <time>2013-11-17T03:17:40Z</time>
      </trkpt>
      <trkpt lat="25.413736626505852" lon="110.46173329465091">
        <ele>414.5</ele>
        <time>2013-11-17T03:17:46Z</time>
      </trkpt>
      <trkpt lat="25.413769986480474" lon="110.4617649782449">
        <ele>417</ele>
        <time>2013-11-17T03:17:52Z</time>
      </trkpt>
      <trkpt lat="25.41379664093256" lon="110.46182331629097">
        <ele>417.60000000000002</ele>
        <time>2013-11-17T03:17:58Z</time>
      </trkpt>
      <trkpt lat="25.413826648145914" lon="110.46187997795641">
        <ele>417.39999999999998</ele>
        <time>2013-11-17T03:18:04Z</time>
      </trkpt>
      <trkpt lat="25.413861684501171" lon="110.46193001791835">
        <ele>417.39999999999998</ele>
        <time>2013-11-17T03:18:10Z</time>
      </trkpt>
      <trkpt lat="25.413883309811354" lon="110.46199665404856">
        <ele>416.30000000000001</ele>
        <time>2013-11-17T03:18:16Z</time>
      </trkpt>
      <trkpt lat="25.413896637037396" lon="110.46205163933337">
        <ele>417.30000000000001</ele>
        <time>2013-11-17T03:18:22Z</time>
      </trkpt>
      <trkpt lat="25.413929997012019" lon="110.46211333014071">
        <ele>417</ele>
        <time>2013-11-17T03:18:28Z</time>
      </trkpt>
      <trkpt lat="25.41395497508347" lon="110.46217334456742">
        <ele>416.10000000000002</ele>
        <time>2013-11-17T03:18:34Z</time>
      </trkpt>
      <trkpt lat="25.413969978690147" lon="110.46220502816141">
        <ele>412.69999999999999</ele>
        <time>2013-11-17T03:18:40Z</time>
      </trkpt>
      <trkpt lat="25.413978360593319" lon="110.46226495876908">
        <ele>413.5</ele>
        <time>2013-11-17T03:18:46Z</time>
      </trkpt>
      <trkpt lat="25.41399504058063" lon="110.46232002787292">
        <ele>416.10000000000002</ele>
        <time>2013-11-17T03:18:52Z</time>
      </trkpt>
      <trkpt lat="25.414014989510179" lon="110.46237501315773">
        <ele>419</ele>
        <time>2013-11-17T03:18:58Z</time>
      </trkpt>
      <trkpt lat="25.414029993116856" lon="110.4624283220619">
        <ele>420.89999999999998</ele>
        <time>2013-11-17T03:19:04Z</time>
      </trkpt>
      <trkpt lat="25.414048349484801" lon="110.4624883364886">
        <ele>418.39999999999998</ele>
        <time>2013-11-17T03:19:10Z</time>
      </trkpt>
      <trkpt lat="25.414035022258759" lon="110.46254164539278">
        <ele>416.10000000000002</ele>
        <time>2013-11-17T03:19:16Z</time>
      </trkpt>
      <trkpt lat="25.413996633142233" lon="110.46260501258075">
        <ele>415</ele>
        <time>2013-11-17T03:19:22Z</time>
      </trkpt>
      <trkpt lat="25.413971655070782" lon="110.46266335062683">
        <ele>415.60000000000002</ele>
        <time>2013-11-17T03:19:28Z</time>
      </trkpt>
      <trkpt lat="25.413939971476793" lon="110.46270668506622">
        <ele>416.89999999999998</ele>
        <time>2013-11-17T03:19:34Z</time>
      </trkpt>
      <trkpt lat="25.413905018940568" lon="110.46277332119644">
        <ele>419.39999999999998</ele>
        <time>2013-11-17T03:19:40Z</time>
      </trkpt>
      <trkpt lat="25.413888338953257" lon="110.46282998286188">
        <ele>422.89999999999998</ele>
        <time>2013-11-17T03:19:46Z</time>
      </trkpt>
      <trkpt lat="25.413854978978634" lon="110.46288999728858">
        <ele>426.30000000000001</ele>
        <time>2013-11-17T03:19:52Z</time>
      </trkpt>
      <trkpt lat="25.413806699216366" lon="110.46294498257339">
        <ele>431.10000000000002</ele>
        <time>2013-11-17T03:19:58Z</time>
      </trkpt>
      <trkpt lat="25.413771662861109" lon="110.46298337168992">
        <ele>430</ele>
        <time>2013-11-17T03:20:04Z</time>
      </trkpt>
      <trkpt lat="25.413753306493163" lon="110.46302997507155">
        <ele>430.69999999999999</ele>
        <time>2013-11-17T03:20:10Z</time>
      </trkpt>
      <trkpt lat="25.41373997926712" lon="110.46305000782013">
        <ele>432.80000000000001</ele>
        <time>2013-11-17T03:20:16Z</time>
      </trkpt>
      <trkpt lat="25.4137600120157" lon="110.46308001503348">
        <ele>433.10000000000002</ele>
        <time>2013-11-17T03:20:22Z</time>
      </trkpt>
      <trkpt lat="25.413813320919871" lon="110.46312829479575">
        <ele>434.19999999999999</ele>
        <time>2013-11-17T03:20:28Z</time>
      </trkpt>
      <trkpt lat="25.413853302598" lon="110.46317330561578">
        <ele>435</ele>
        <time>2013-11-17T03:20:34Z</time>
      </trkpt>
      <trkpt lat="25.413905018940568" lon="110.46321169473231">
        <ele>437.30000000000001</ele>
        <time>2013-11-17T03:20:40Z</time>
      </trkpt>
      <trkpt lat="25.413941647857428" lon="110.46324832364917">
        <ele>443</ele>
        <time>2013-11-17T03:20:46Z</time>
      </trkpt>
      <trkpt lat="25.413976684212685" lon="110.46330163255334">
        <ele>445.60000000000002</ele>
        <time>2013-11-17T03:20:52Z</time>
      </trkpt>
      <trkpt lat="25.413996633142233" lon="110.46336332336068">
        <ele>443.5</ele>
        <time>2013-11-17T03:20:58Z</time>
      </trkpt>
      <trkpt lat="25.413986658677459" lon="110.46344496309757">
        <ele>441.39999999999998</ele>
        <time>2013-11-17T03:21:04Z</time>
      </trkpt>
      <trkpt lat="25.413973331451416" lon="110.46352165751159">
        <ele>438.5</ele>
        <time>2013-11-17T03:21:10Z</time>
      </trkpt>
      <trkpt lat="25.413969978690147" lon="110.46360170468688">
        <ele>434</ele>
        <time>2013-11-17T03:21:16Z</time>
      </trkpt>
      <trkpt lat="25.413991687819362" lon="110.46366834081709">
        <ele>432.80000000000001</ele>
        <time>2013-11-17T03:21:22Z</time>
      </trkpt>
      <trkpt lat="25.414008367806673" lon="110.46374503523111">
        <ele>430.60000000000002</ele>
        <time>2013-11-17T03:21:28Z</time>
      </trkpt>
      <trkpt lat="25.41403166949749" lon="110.46381829306483">
        <ele>428.80000000000001</ele>
        <time>2013-11-17T03:21:34Z</time>
      </trkpt>
      <trkpt lat="25.41405170224607" lon="110.46387998387218">
        <ele>428.80000000000001</ele>
        <time>2013-11-17T03:21:40Z</time>
      </trkpt>
      <trkpt lat="25.414069974794984" lon="110.46395500190556">
        <ele>426.89999999999998</ele>
        <time>2013-11-17T03:21:46Z</time>
      </trkpt>
      <trkpt lat="25.414086654782295" lon="110.46402666717768">
        <ele>425.89999999999998</ele>
        <time>2013-11-17T03:21:52Z</time>
      </trkpt>
      <trkpt lat="25.414095036685467" lon="110.46409497968853">
        <ele>425.69999999999999</ele>
        <time>2013-11-17T03:21:58Z</time>
      </trkpt>
      <trkpt lat="25.414091683924198" lon="110.46415499411523">
        <ele>423.60000000000002</ele>
        <time>2013-11-17T03:22:04Z</time>
      </trkpt>
      <trkpt lat="25.414101658388972" lon="110.46423001214862">
        <ele>422.10000000000002</ele>
        <time>2013-11-17T03:22:10Z</time>
      </trkpt>
      <trkpt lat="25.414123367518187" lon="110.46431332826614">
        <ele>421.80000000000001</ele>
        <time>2013-11-17T03:22:16Z</time>
      </trkpt>
      <trkpt lat="25.414133341982961" lon="110.4643983207643">
        <ele>420.69999999999999</ele>
        <time>2013-11-17T03:22:22Z</time>
      </trkpt>
      <trkpt lat="25.414138371124864" lon="110.46448163688183">
        <ele>420.19999999999999</ele>
        <time>2013-11-17T03:22:28Z</time>
      </trkpt>
      <trkpt lat="25.414131665602326" lon="110.46455665491521">
        <ele>421.10000000000002</ele>
        <time>2013-11-17T03:22:34Z</time>
      </trkpt>
      <trkpt lat="25.414128312841058" lon="110.46462999656796">
        <ele>421.30000000000001</ele>
        <time>2013-11-17T03:22:40Z</time>
      </trkpt>
      <trkpt lat="25.414121691137552" lon="110.46469168737531">
        <ele>421.69999999999999</ele>
        <time>2013-11-17T03:22:46Z</time>
      </trkpt>
      <trkpt lat="25.414144992828369" lon="110.46473996713758">
        <ele>424.69999999999999</ele>
        <time>2013-11-17T03:22:52Z</time>
      </trkpt>
      <trkpt lat="25.414183298125863" lon="110.46478162519634">
        <ele>426.60000000000002</ele>
        <time>2013-11-17T03:22:58Z</time>
      </trkpt>
      <trkpt lat="25.414229985326529" lon="110.46482663601637">
        <ele>427.60000000000002</ele>
        <time>2013-11-17T03:23:04Z</time>
      </trkpt>
      <trkpt lat="25.41427499614656" lon="110.46486167237163">
        <ele>431.69999999999999</ele>
        <time>2013-11-17T03:23:10Z</time>
      </trkpt>
      <trkpt lat="25.414313301444054" lon="110.46489830128849">
        <ele>435.39999999999998</ele>
        <time>2013-11-17T03:23:16Z</time>
      </trkpt>
      <trkpt lat="25.414358312264085" lon="110.46493501402438">
        <ele>439.19999999999999</ele>
        <time>2013-11-17T03:23:22Z</time>
      </trkpt>
      <trkpt lat="25.414395024999976" lon="110.46497667208314">
        <ele>441.69999999999999</ele>
        <time>2013-11-17T03:23:28Z</time>
      </trkpt>
      <trkpt lat="25.414436683058739" lon="110.46503501012921">
        <ele>443.30000000000001</ele>
        <time>2013-11-17T03:23:34Z</time>
      </trkpt>
      <trkpt lat="25.414474988356233" lon="110.46508664265275">
        <ele>447.10000000000002</ele>
        <time>2013-11-17T03:23:40Z</time>
      </trkpt>
      <trkpt lat="25.414473311975598" lon="110.46515000984073">
        <ele>445.89999999999998</ele>
        <time>2013-11-17T03:23:46Z</time>
      </trkpt>
      <trkpt lat="25.414455039426684" lon="110.46522335149348">
        <ele>443.5</ele>
        <time>2013-11-17T03:23:52Z</time>
      </trkpt>
      <trkpt lat="25.414450010284781" lon="110.46528663486242">
        <ele>441.69999999999999</ele>
        <time>2013-11-17T03:23:58Z</time>
      </trkpt>
      <trkpt lat="25.414443304762244" lon="110.4653550311923">
        <ele>441.19999999999999</ele>
        <time>2013-11-17T03:24:04Z</time>
      </trkpt>
      <trkpt lat="25.41442503221333" lon="110.46541831456125">
        <ele>440</ele>
        <time>2013-11-17T03:24:10Z</time>
      </trkpt>
      <trkpt lat="25.414399970322847" lon="110.46549500897527">
        <ele>439.19999999999999</ele>
        <time>2013-11-17T03:24:16Z</time>
      </trkpt>
      <trkpt lat="25.414378345012665" lon="110.46555829234421">
        <ele>438.80000000000001</ele>
        <time>2013-11-17T03:24:22Z</time>
      </trkpt>
      <trkpt lat="25.414354959502816" lon="110.46560497954488">
        <ele>441.30000000000001</ele>
        <time>2013-11-17T03:24:28Z</time>
      </trkpt>
      <trkpt lat="25.414338363334537" lon="110.46565837226808">
        <ele>442.39999999999998</ele>
        <time>2013-11-17T03:24:34Z</time>
      </trkpt>
      <trkpt lat="25.414321683347225" lon="110.46570170670748">
        <ele>444.80000000000001</ele>
        <time>2013-11-17T03:24:40Z</time>
      </trkpt>
      <trkpt lat="25.414305003359914" lon="110.46575501561165">
        <ele>445.69999999999999</ele>
        <time>2013-11-17T03:24:46Z</time>
      </trkpt>
      <trkpt lat="25.414281701669097" lon="110.46581000089645">
        <ele>447</ele>
        <time>2013-11-17T03:24:52Z</time>
      </trkpt>
      <trkpt lat="25.41422663256526" lon="110.46589331701398">
        <ele>441.19999999999999</ele>
        <time>2013-11-17T03:24:58Z</time>
      </trkpt>
      <trkpt lat="25.414165025576949" lon="110.4660199675709">
        <ele>430.10000000000002</ele>
        <time>2013-11-17T03:25:04Z</time>
      </trkpt>
      <trkpt lat="25.414129989221692" lon="110.46613002195954">
        <ele>426.39999999999998</ele>
        <time>2013-11-17T03:25:10Z</time>
      </trkpt>
      <trkpt lat="25.414073327556252" lon="110.46622163616121">
        <ele>422.89999999999998</ele>
        <time>2013-11-17T03:25:16Z</time>
      </trkpt>
      <trkpt lat="25.414029993116856" lon="110.46630830504">
        <ele>421.39999999999998</ele>
        <time>2013-11-17T03:25:22Z</time>
      </trkpt>
      <trkpt lat="25.413981629535556" lon="110.46639329753816">
        <ele>418.89999999999998</ele>
        <time>2013-11-17T03:25:28Z</time>
      </trkpt>
      <trkpt lat="25.413916669785976" lon="110.46644166111946">
        <ele>414.69999999999999</ele>
        <time>2013-11-17T03:25:34Z</time>
      </trkpt>
      <trkpt lat="25.413846680894494" lon="110.46648499555886">
        <ele>412.5</ele>
        <time>2013-11-17T03:25:40Z</time>
      </trkpt>
      <trkpt lat="25.413784990087152" lon="110.46651835553348">
        <ele>411.89999999999998</ele>
        <time>2013-11-17T03:25:46Z</time>
      </trkpt>
      <trkpt lat="25.413713324815035" lon="110.46653000637889">
        <ele>413.60000000000002</ele>
        <time>2013-11-17T03:25:52Z</time>
      </trkpt>
      <trkpt lat="25.41363830678165" lon="110.46652497723699">
        <ele>416.89999999999998</ele>
        <time>2013-11-17T03:25:58Z</time>
      </trkpt>
      <trkpt lat="25.413560019806027" lon="110.46650670468807">
        <ele>423.80000000000001</ele>
        <time>2013-11-17T03:26:04Z</time>
      </trkpt>
      <trkpt lat="25.413494976237416" lon="110.46648834832013">
        <ele>429.60000000000002</ele>
        <time>2013-11-17T03:26:10Z</time>
      </trkpt>
      <trkpt lat="25.413418365642428" lon="110.46646663919091">
        <ele>441.5</ele>
        <time>2013-11-17T03:26:16Z</time>
      </trkpt>
      <trkpt lat="25.413351645693183" lon="110.4664499592036">
        <ele>448.80000000000001</ele>
        <time>2013-11-17T03:26:22Z</time>
      </trkpt>
      <trkpt lat="25.413271682336926" lon="110.46643503941596">
        <ele>453.80000000000001</ele>
        <time>2013-11-17T03:26:28Z</time>
      </trkpt>
      <trkpt lat="25.413203369826078" lon="110.46640997752547">
        <ele>446.19999999999999</ele>
        <time>2013-11-17T03:26:34Z</time>
      </trkpt>
      <trkpt lat="25.413156682625413" lon="110.4664000030607">
        <ele>444</ele>
        <time>2013-11-17T03:26:40Z</time>
      </trkpt>
      <trkpt lat="25.413089962676167" lon="110.46638667583466">
        <ele>437.39999999999998</ele>
        <time>2013-11-17T03:26:46Z</time>
      </trkpt>
      <trkpt lat="25.413041682913899" lon="110.46637997031212">
        <ele>425.69999999999999</ele>
        <time>2013-11-17T03:26:52Z</time>
      </trkpt>
      <trkpt lat="25.413008322939277" lon="110.46637502498925">
        <ele>417</ele>
        <time>2013-11-17T03:26:58Z</time>
      </trkpt>
      <trkpt lat="25.412970017641783" lon="110.46636496670544">
        <ele>416.89999999999998</ele>
        <time>2013-11-17T03:27:04Z</time>
      </trkpt>
      <trkpt lat="25.412915032356977" lon="110.46633831225336">
        <ele>417.10000000000002</ele>
        <time>2013-11-17T03:27:10Z</time>
      </trkpt>
      <trkpt lat="25.412849988788366" lon="110.46632003970444">
        <ele>416.80000000000001</ele>
        <time>2013-11-17T03:27:16Z</time>
      </trkpt>
      <trkpt lat="25.412779999896884" lon="110.46630830504">
        <ele>415.5</ele>
        <time>2013-11-17T03:27:22Z</time>
      </trkpt>
      <trkpt lat="25.412711687386036" lon="110.46630000695586">
        <ele>417</ele>
        <time>2013-11-17T03:27:28Z</time>
      </trkpt>
      <trkpt lat="25.412659971043468" lon="110.46629665419459">
        <ele>415.60000000000002</ele>
        <time>2013-11-17T03:27:34Z</time>
      </trkpt>
      <trkpt lat="25.412629963830113" lon="110.46631501056254">
        <ele>407.19999999999999</ele>
        <time>2013-11-17T03:27:40Z</time>
      </trkpt>
      <trkpt lat="25.412586629390717" lon="110.46633831225336">
        <ele>406.69999999999999</ele>
        <time>2013-11-17T03:27:46Z</time>
      </trkpt>
      <trkpt lat="25.41255502961576" lon="110.46635331586003">
        <ele>410.5</ele>
        <time>2013-11-17T03:27:52Z</time>
      </trkpt>
      <trkpt lat="25.412533320486546" lon="110.46639329753816">
        <ele>407.80000000000001</ele>
        <time>2013-11-17T03:27:58Z</time>
      </trkpt>
      <trkpt lat="25.412488309666514" lon="110.46642833389342">
        <ele>410.69999999999999</ele>
        <time>2013-11-17T03:28:04Z</time>
      </trkpt>
      <trkpt lat="25.412421673536301" lon="110.46647502109408">
        <ele>412.19999999999999</ele>
        <time>2013-11-17T03:28:10Z</time>
      </trkpt>
      <trkpt lat="25.412353361025453" lon="110.46651332639158">
        <ele>414.19999999999999</ele>
        <time>2013-11-17T03:28:16Z</time>
      </trkpt>
      <trkpt lat="25.412304997444153" lon="110.46652170829475">
        <ele>417.30000000000001</ele>
        <time>2013-11-17T03:28:22Z</time>
      </trkpt>
      <trkpt lat="25.412241630256176" lon="110.46654500998557">
        <ele>416.10000000000002</ele>
        <time>2013-11-17T03:28:28Z</time>
      </trkpt>
      <trkpt lat="25.412176670506597" lon="110.46658331528306">
        <ele>411.10000000000002</ele>
        <time>2013-11-17T03:28:34Z</time>
      </trkpt>
      <trkpt lat="25.412120008841157" lon="110.46661332249641">
        <ele>405.69999999999999</ele>
        <time>2013-11-17T03:28:40Z</time>
      </trkpt>
      <trkpt lat="25.412081703543663" lon="110.4666450060904">
        <ele>400.89999999999998</ele>
        <time>2013-11-17T03:28:46Z</time>
      </trkpt>
      <trkpt lat="25.412038369104266" lon="110.46666998416185">
        <ele>397.19999999999999</ele>
        <time>2013-11-17T03:28:52Z</time>
      </trkpt>
      <trkpt lat="25.411978354677558" lon="110.46669169329107">
        <ele>396.10000000000002</ele>
        <time>2013-11-17T03:28:58Z</time>
      </trkpt>
      <trkpt lat="25.411920016631484" lon="110.46671834774315">
        <ele>396.89999999999998</ele>
        <time>2013-11-17T03:29:04Z</time>
      </trkpt>
      <trkpt lat="25.411860002204776" lon="110.4667382966727">
        <ele>395.80000000000001</ele>
        <time>2013-11-17T03:29:10Z</time>
      </trkpt>
      <trkpt lat="25.411796635016799" lon="110.46676998026669">
        <ele>395.80000000000001</ele>
        <time>2013-11-17T03:29:16Z</time>
      </trkpt>
      <trkpt lat="25.411728322505951" lon="110.46679495833814">
        <ele>395.89999999999998</ele>
        <time>2013-11-17T03:29:22Z</time>
      </trkpt>
      <trkpt lat="25.4116549808532" lon="110.46680334024131">
        <ele>398.30000000000001</ele>
        <time>2013-11-17T03:29:28Z</time>
      </trkpt>
      <trkpt lat="25.411584991961718" lon="110.4668299946934">
        <ele>399.39999999999998</ele>
        <time>2013-11-17T03:29:34Z</time>
      </trkpt>
      <trkpt lat="25.411526653915644" lon="110.46685497276485">
        <ele>401</ele>
        <time>2013-11-17T03:29:40Z</time>
      </trkpt>
      <trkpt lat="25.411483319476247" lon="110.46686829999089">
        <ele>404.89999999999998</ele>
        <time>2013-11-17T03:29:46Z</time>
      </trkpt>
      <trkpt lat="25.411461694166064" lon="110.46691666357219">
        <ele>407.89999999999998</ele>
        <time>2013-11-17T03:29:52Z</time>
      </trkpt>
      <trkpt lat="25.411428334191442" lon="110.466971648857">
        <ele>410.5</ele>
        <time>2013-11-17T03:29:58Z</time>
      </trkpt>
      <trkpt lat="25.411398326978087" lon="110.46703333966434">
        <ele>413.39999999999998</ele>
        <time>2013-11-17T03:30:04Z</time>
      </trkpt>
      <trkpt lat="25.41138332337141" lon="110.46706829220057">
        <ele>422.19999999999999</ele>
        <time>2013-11-17T03:30:10Z</time>
      </trkpt>
      <trkpt lat="25.411366643384099" lon="110.46707835048437">
        <ele>426.10000000000002</ele>
        <time>2013-11-17T03:30:16Z</time>
      </trkpt>
      <trkpt lat="25.411375025287271" lon="110.46708832494915">
        <ele>427.39999999999998</ele>
        <time>2013-11-17T03:30:22Z</time>
      </trkpt>
      <trkpt lat="25.411388352513313" lon="110.46705831773579">
        <ele>430.89999999999998</ele>
        <time>2013-11-17T03:30:28Z</time>
      </trkpt>
      <trkpt lat="25.411400003358722" lon="110.46710668131709">
        <ele>429.89999999999998</ele>
        <time>2013-11-17T03:30:34Z</time>
      </trkpt>
      <trkpt lat="25.411396650597453" lon="110.46715001575649">
        <ele>429.69999999999999</ele>
        <time>2013-11-17T03:30:40Z</time>
      </trkpt>
      <trkpt lat="25.411390028893948" lon="110.46718496829271">
        <ele>425.10000000000002</ele>
        <time>2013-11-17T03:30:46Z</time>
      </trkpt>
      <trkpt lat="25.411388352513313" lon="110.46719829551876">
        <ele>423.10000000000002</ele>
        <time>2013-11-17T03:30:52Z</time>
      </trkpt>
      <trkpt lat="25.411394974216819" lon="110.46721329912543">
        <ele>420.60000000000002</ele>
        <time>2013-11-17T03:30:58Z</time>
      </trkpt>
      <trkpt lat="25.411400003358722" lon="110.46722662635148">
        <ele>417.30000000000001</ele>
        <time>2013-11-17T03:31:04Z</time>
      </trkpt>
      <trkpt lat="25.411401679739356" lon="110.46723500825465">
        <ele>415.60000000000002</ele>
        <time>2013-11-17T03:31:10Z</time>
      </trkpt>
      <trkpt lat="25.411390028893948" lon="110.46724330633879">
        <ele>416.60000000000002</ele>
        <time>2013-11-17T03:31:16Z</time>
      </trkpt>
      <trkpt lat="25.411378294229507" lon="110.46724498271942">
        <ele>417.39999999999998</ele>
        <time>2013-11-17T03:31:22Z</time>
      </trkpt>
      <trkpt lat="25.411363374441862" lon="110.46723500825465">
        <ele>417.10000000000002</ele>
        <time>2013-11-17T03:31:28Z</time>
      </trkpt>
      <trkpt lat="25.411343341693282" lon="110.46721170656383">
        <ele>416.80000000000001</ele>
        <time>2013-11-17T03:31:34Z</time>
      </trkpt>
      <trkpt lat="25.411339988932014" lon="110.46721832826734">
        <ele>416.69999999999999</ele>
        <time>2013-11-17T03:31:40Z</time>
      </trkpt>
      <trkpt lat="25.411338312551379" lon="110.46723500825465">
        <ele>417</ele>
        <time>2013-11-17T03:31:46Z</time>
      </trkpt>
      <trkpt lat="25.411346694454551" lon="110.46723165549338">
        <ele>416.30000000000001</ele>
        <time>2013-11-17T03:31:52Z</time>
      </trkpt>
      <trkpt lat="25.411353316158056" lon="110.46721832826734">
        <ele>414.60000000000002</ele>
        <time>2013-11-17T03:31:58Z</time>
      </trkpt>
      <trkpt lat="25.411361698061228" lon="110.46719997189939">
        <ele>416</ele>
        <time>2013-11-17T03:32:04Z</time>
      </trkpt>
      <trkpt lat="25.411356668919325" lon="110.46718496829271">
        <ele>419.39999999999998</ele>
        <time>2013-11-17T03:32:10Z</time>
      </trkpt>
      <trkpt lat="25.411358345299959" lon="110.46716996468604">
        <ele>421.10000000000002</ele>
        <time>2013-11-17T03:32:16Z</time>
      </trkpt>
      <trkpt lat="25.411369996145368" lon="110.46717834658921">
        <ele>417.89999999999998</ele>
        <time>2013-11-17T03:32:22Z</time>
      </trkpt>
      <trkpt lat="25.411373348906636" lon="110.46718664467335">
        <ele>415.39999999999998</ele>
        <time>2013-11-17T03:32:28Z</time>
      </trkpt>
      <trkpt lat="25.411388352513313" lon="110.46720164828002">
        <ele>412.5</ele>
        <time>2013-11-17T03:32:34Z</time>
      </trkpt>
      <trkpt lat="25.411373348906636" lon="110.4672166518867">
        <ele>411.30000000000001</ele>
        <time>2013-11-17T03:32:40Z</time>
      </trkpt>
      <trkpt lat="25.411386676132679" lon="110.46721329912543">
        <ele>413.5</ele>
        <time>2013-11-17T03:32:46Z</time>
      </trkpt>
      <trkpt lat="25.411408301442862" lon="110.46720164828002">
        <ele>414.19999999999999</ele>
        <time>2013-11-17T03:32:52Z</time>
      </trkpt>
      <trkpt lat="25.411426657810807" lon="110.4672216810286">
        <ele>412.80000000000001</ele>
        <time>2013-11-17T03:32:58Z</time>
      </trkpt>
      <trkpt lat="25.411423305049539" lon="110.46723333187401">
        <ele>414.19999999999999</ele>
        <time>2013-11-17T03:33:04Z</time>
      </trkpt>
      <trkpt lat="25.411421628668904" lon="110.46724162995815">
        <ele>415.19999999999999</ele>
        <time>2013-11-17T03:33:10Z</time>
      </trkpt>
      <trkpt lat="25.411433363333344" lon="110.46725168824196">
        <ele>415.30000000000001</ele>
        <time>2013-11-17T03:33:16Z</time>
      </trkpt>
      <trkpt lat="25.411451635882258" lon="110.46725168824196">
        <ele>410.80000000000001</ele>
        <time>2013-11-17T03:33:22Z</time>
      </trkpt>
      <trkpt lat="25.411506704986095" lon="110.46727163717151">
        <ele>402</ele>
        <time>2013-11-17T03:33:28Z</time>
      </trkpt>
      <trkpt lat="25.411543333902955" lon="110.46729166992009">
        <ele>394.39999999999998</ele>
        <time>2013-11-17T03:33:34Z</time>
      </trkpt>
      <trkpt lat="25.411533359438181" lon="110.46730499714613">
        <ele>392.39999999999998</ele>
        <time>2013-11-17T03:33:40Z</time>
      </trkpt>
      <trkpt lat="25.411499999463558" lon="110.46726836822927">
        <ele>396</ele>
        <time>2013-11-17T03:33:46Z</time>
      </trkpt>
      <trkpt lat="25.411481643095613" lon="110.4672599863261">
        <ele>397.80000000000001</ele>
        <time>2013-11-17T03:33:52Z</time>
      </trkpt>
      <trkpt lat="25.411451635882258" lon="110.46727163717151">
        <ele>404</ele>
        <time>2013-11-17T03:33:58Z</time>
      </trkpt>
      <trkpt lat="25.411458341404796" lon="110.46729334630072">
        <ele>408.69999999999999</ele>
        <time>2013-11-17T03:34:04Z</time>
      </trkpt>
      <trkpt lat="25.411433363333344" lon="110.46727834269404">
        <ele>409.60000000000002</ele>
        <time>2013-11-17T03:34:10Z</time>
      </trkpt>
      <trkpt lat="25.411418359726667" lon="110.46724330633879">
        <ele>413.30000000000001</ele>
        <time>2013-11-17T03:34:16Z</time>
      </trkpt>
      <trkpt lat="25.411430010572076" lon="110.46722000464797">
        <ele>420.10000000000002</ele>
        <time>2013-11-17T03:34:22Z</time>
      </trkpt>
      <trkpt lat="25.411445014178753" lon="110.46721170656383">
        <ele>420.30000000000001</ele>
        <time>2013-11-17T03:34:28Z</time>
      </trkpt>
      <trkpt lat="25.411445014178753" lon="110.46719167381525">
        <ele>425.89999999999998</ele>
        <time>2013-11-17T03:34:34Z</time>
      </trkpt>
      <trkpt lat="25.411438308656216" lon="110.46716996468604">
        <ele>435.30000000000001</ele>
        <time>2013-11-17T03:34:40Z</time>
      </trkpt>
      <trkpt lat="25.411443337798119" lon="110.46718832105398">
        <ele>434.60000000000002</ele>
        <time>2013-11-17T03:34:46Z</time>
      </trkpt>
      <trkpt lat="25.411451635882258" lon="110.46718832105398">
        <ele>435.39999999999998</ele>
        <time>2013-11-17T03:34:52Z</time>
      </trkpt>
      <trkpt lat="25.411445014178753" lon="110.46718329191208">
        <ele>437.30000000000001</ele>
        <time>2013-11-17T03:34:58Z</time>
      </trkpt>
      <trkpt lat="25.411445014178753" lon="110.46725168824196">
        <ele>430.30000000000001</ele>
        <time>2013-11-17T03:35:04Z</time>
      </trkpt>
      <trkpt lat="25.411423305049539" lon="110.46725168824196">
        <ele>430.19999999999999</ele>
        <time>2013-11-17T03:35:10Z</time>
      </trkpt>
      <trkpt lat="25.411396650597453" lon="110.46722662635148">
        <ele>429.89999999999998</ele>
        <time>2013-11-17T03:35:16Z</time>
      </trkpt>
      <trkpt lat="25.411396650597453" lon="110.46720500104129">
        <ele>427.60000000000002</ele>
        <time>2013-11-17T03:35:22Z</time>
      </trkpt>
      <trkpt lat="25.411398326978087" lon="110.46716501936316">
        <ele>430.39999999999998</ele>
        <time>2013-11-17T03:35:28Z</time>
      </trkpt>
      <trkpt lat="25.411375025287271" lon="110.46715831384063">
        <ele>433.60000000000002</ele>
        <time>2013-11-17T03:35:34Z</time>
      </trkpt>
      <trkpt lat="25.411373348906636" lon="110.4671666957438">
        <ele>431.39999999999998</ele>
        <time>2013-11-17T03:35:40Z</time>
      </trkpt>
      <trkpt lat="25.411363374441862" lon="110.46716837212443">
        <ele>430.60000000000002</ele>
        <time>2013-11-17T03:35:46Z</time>
      </trkpt>
      <trkpt lat="25.411358345299959" lon="110.46715496107936">
        <ele>432.19999999999999</ele>
        <time>2013-11-17T03:35:52Z</time>
      </trkpt>
      <trkpt lat="25.411349963396788" lon="110.46715663745999">
        <ele>432.10000000000002</ele>
        <time>2013-11-17T03:35:58Z</time>
      </trkpt>
      <trkpt lat="25.411366643384099" lon="110.46717164106667">
        <ele>426.10000000000002</ele>
        <time>2013-11-17T03:36:04Z</time>
      </trkpt>
      <trkpt lat="25.411375025287271" lon="110.46715831384063">
        <ele>424.39999999999998</ele>
        <time>2013-11-17T03:36:10Z</time>
      </trkpt>
      <trkpt lat="25.411371672526002" lon="110.46715496107936">
        <ele>423.89999999999998</ele>
        <time>2013-11-17T03:36:16Z</time>
      </trkpt>
      <trkpt lat="25.411386676132679" lon="110.46718664467335">
        <ele>414.69999999999999</ele>
        <time>2013-11-17T03:36:22Z</time>
      </trkpt>
      <trkpt lat="25.411409977823496" lon="110.46718664467335">
        <ele>410.10000000000002</ele>
        <time>2013-11-17T03:36:28Z</time>
      </trkpt>
      <trkpt lat="25.411435039713979" lon="110.4671666957438">
        <ele>409</ele>
        <time>2013-11-17T03:36:34Z</time>
      </trkpt>
      <trkpt lat="25.411445014178753" lon="110.46719502657652">
        <ele>405.10000000000002</ele>
        <time>2013-11-17T03:36:40Z</time>
      </trkpt>
      <trkpt lat="25.411445014178753" lon="110.46723333187401">
        <ele>400.89999999999998</ele>
        <time>2013-11-17T03:36:46Z</time>
      </trkpt>
      <trkpt lat="25.411421628668904" lon="110.46722503378987">
        <ele>404.69999999999999</ele>
        <time>2013-11-17T03:36:52Z</time>
      </trkpt>
      <trkpt lat="25.411409977823496" lon="110.46721832826734">
        <ele>406.10000000000002</ele>
        <time>2013-11-17T03:36:58Z</time>
      </trkpt>
      <trkpt lat="25.411400003358722" lon="110.46723165549338">
        <ele>406.89999999999998</ele>
        <time>2013-11-17T03:37:04Z</time>
      </trkpt>
      <trkpt lat="25.411386676132679" lon="110.46723668463528">
        <ele>407.5</ele>
        <time>2013-11-17T03:37:10Z</time>
      </trkpt>
      <trkpt lat="25.411386676132679" lon="110.46722662635148">
        <ele>410.30000000000001</ele>
        <time>2013-11-17T03:37:16Z</time>
      </trkpt>
      <trkpt lat="25.411390028893948" lon="110.4672166518867">
        <ele>412.19999999999999</ele>
        <time>2013-11-17T03:37:22Z</time>
      </trkpt>
      <trkpt lat="25.411396650597453" lon="110.46720835380256">
        <ele>413.30000000000001</ele>
        <time>2013-11-17T03:37:28Z</time>
      </trkpt>
      <trkpt lat="25.411401679739356" lon="110.46720164828002">
        <ele>413.89999999999998</ele>
        <time>2013-11-17T03:37:34Z</time>
      </trkpt>
      <trkpt lat="25.411394974216819" lon="110.46720500104129">
        <ele>414.69999999999999</ele>
        <time>2013-11-17T03:37:40Z</time>
      </trkpt>
      <trkpt lat="25.411379970610142" lon="110.4672166518867">
        <ele>416.60000000000002</ele>
        <time>2013-11-17T03:37:46Z</time>
      </trkpt>
      <trkpt lat="25.41138332337141" lon="110.46722335740924">
        <ele>417.5</ele>
        <time>2013-11-17T03:37:52Z</time>
      </trkpt>
      <trkpt lat="25.411375025287271" lon="110.46718496829271">
        <ele>427</ele>
        <time>2013-11-17T03:37:58Z</time>
      </trkpt>
      <trkpt lat="25.411361698061228" lon="110.46714498661458">
        <ele>438.5</ele>
        <time>2013-11-17T03:38:04Z</time>
      </trkpt>
      <trkpt lat="25.411360021680593" lon="110.46710835769773">
        <ele>447.39999999999998</ele>
        <time>2013-11-17T03:38:10Z</time>
      </trkpt>
      <trkpt lat="25.411358345299959" lon="110.46708497218788">
        <ele>453.10000000000002</ele>
        <time>2013-11-17T03:38:16Z</time>
      </trkpt>
      <trkpt lat="25.411345018073916" lon="110.46712998300791">
        <ele>446.10000000000002</ele>
        <time>2013-11-17T03:38:22Z</time>
      </trkpt>
      <trkpt lat="25.411326661705971" lon="110.46718002296984">
        <ele>438.69999999999999</ele>
        <time>2013-11-17T03:38:28Z</time>
      </trkpt>
      <trkpt lat="25.411316687241197" lon="110.46718832105398">
        <ele>437.80000000000001</ele>
        <time>2013-11-17T03:38:34Z</time>
      </trkpt>
      <trkpt lat="25.411306628957391" lon="110.46718999743462">
        <ele>438.19999999999999</ele>
        <time>2013-11-17T03:38:40Z</time>
      </trkpt>
      <trkpt lat="25.411318363621831" lon="110.46716996468604">
        <ele>439.80000000000001</ele>
        <time>2013-11-17T03:38:46Z</time>
      </trkpt>
      <trkpt lat="25.411331690847874" lon="110.46716837212443">
        <ele>441.30000000000001</ele>
        <time>2013-11-17T03:38:52Z</time>
      </trkpt>
      <trkpt lat="25.411331690847874" lon="110.46717164106667">
        <ele>441.10000000000002</ele>
        <time>2013-11-17T03:38:58Z</time>
      </trkpt>
      <trkpt lat="25.411341665312648" lon="110.46719335019588">
        <ele>439.19999999999999</ele>
        <time>2013-11-17T03:39:04Z</time>
      </trkpt>
      <trkpt lat="25.411331690847874" lon="110.46722997911274">
        <ele>433.10000000000002</ele>
        <time>2013-11-17T03:39:10Z</time>
      </trkpt>
      <trkpt lat="25.411341665312648" lon="110.46725168824196">
        <ele>429.19999999999999</ele>
        <time>2013-11-17T03:39:16Z</time>
      </trkpt>
      <trkpt lat="25.411341665312648" lon="110.46723165549338">
        <ele>426.89999999999998</ele>
        <time>2013-11-17T03:39:22Z</time>
      </trkpt>
      <trkpt lat="25.411345018073916" lon="110.46724003739655">
        <ele>422.5</ele>
        <time>2013-11-17T03:39:28Z</time>
      </trkpt>
      <trkpt lat="25.411345018073916" lon="110.46724833548069">
        <ele>419.19999999999999</ele>
        <time>2013-11-17T03:39:34Z</time>
      </trkpt>
      <trkpt lat="25.411358345299959" lon="110.46719335019588">
        <ele>417.10000000000002</ele>
        <time>2013-11-17T03:39:40Z</time>
      </trkpt>
      <trkpt lat="25.411339988932014" lon="110.46713836491108">
        <ele>417.89999999999998</ele>
        <time>2013-11-17T03:39:46Z</time>
      </trkpt>
      <trkpt lat="25.411333367228508" lon="110.4671133030206">
        <ele>413.5</ele>
        <time>2013-11-17T03:39:52Z</time>
      </trkpt>
      <trkpt lat="25.411323308944702" lon="110.46711162663996">
        <ele>411.69999999999999</ele>
        <time>2013-11-17T03:39:58Z</time>
      </trkpt>
      <trkpt lat="25.411305036395788" lon="110.46709997579455">
        <ele>411.60000000000002</ele>
        <time>2013-11-17T03:40:04Z</time>
      </trkpt>
      <trkpt lat="25.411305036395788" lon="110.46710165217519">
        <ele>414.39999999999998</ele>
        <time>2013-11-17T03:40:10Z</time>
      </trkpt>
      <trkpt lat="25.411313334479928" lon="110.46707667410374">
        <ele>418.30000000000001</ele>
        <time>2013-11-17T03:40:16Z</time>
      </trkpt>
      <trkpt lat="25.411311658099294" lon="110.46705831773579">
        <ele>418.19999999999999</ele>
        <time>2013-11-17T03:40:22Z</time>
      </trkpt>
      <trkpt lat="25.411324985325336" lon="110.46705664135516">
        <ele>415.39999999999998</ele>
        <time>2013-11-17T03:40:28Z</time>
      </trkpt>
      <trkpt lat="25.411356668919325" lon="110.46706829220057">
        <ele>407</ele>
        <time>2013-11-17T03:40:34Z</time>
      </trkpt>
      <trkpt lat="25.411369996145368" lon="110.46705001965165">
        <ele>404.89999999999998</ele>
        <time>2013-11-17T03:40:40Z</time>
      </trkpt>
      <trkpt lat="25.411351639777422" lon="110.46701833605766">
        <ele>410.10000000000002</ele>
        <time>2013-11-17T03:40:46Z</time>
      </trkpt>
      <trkpt lat="25.411343341693282" lon="110.46699168160558">
        <ele>410.80000000000001</ele>
        <time>2013-11-17T03:40:52Z</time>
      </trkpt>
      <trkpt lat="25.411358345299959" lon="110.46697332523763">
        <ele>406</ele>
        <time>2013-11-17T03:40:58Z</time>
      </trkpt>
      <trkpt lat="25.411375025287271" lon="110.46695999801159">
        <ele>402.39999999999998</ele>
        <time>2013-11-17T03:41:04Z</time>
      </trkpt>
      <trkpt lat="25.411394974216819" lon="110.46701833605766">
        <ele>393.89999999999998</ele>
        <time>2013-11-17T03:41:10Z</time>
      </trkpt>
      <trkpt lat="25.411401679739356" lon="110.46705664135516">
        <ele>388.89999999999998</ele>
        <time>2013-11-17T03:41:16Z</time>
      </trkpt>
      <trkpt lat="25.411400003358722" lon="110.46707332134247">
        <ele>387.39999999999998</ele>
        <time>2013-11-17T03:41:22Z</time>
      </trkpt>
      <trkpt lat="25.411393297836185" lon="110.46704499050975">
        <ele>390.80000000000001</ele>
        <time>2013-11-17T03:41:28Z</time>
      </trkpt>
      <trkpt lat="25.411388352513313" lon="110.46701665967703">
        <ele>393.30000000000001</ele>
        <time>2013-11-17T03:41:34Z</time>
      </trkpt>
      <trkpt lat="25.41138332337141" lon="110.4669766779989">
        <ele>400</ele>
        <time>2013-11-17T03:41:40Z</time>
      </trkpt>
      <trkpt lat="25.411393297836185" lon="110.46698665246367">
        <ele>399.80000000000001</ele>
        <time>2013-11-17T03:41:46Z</time>
      </trkpt>
      <trkpt lat="25.411400003358722" lon="110.46698665246367">
        <ele>400.5</ele>
        <time>2013-11-17T03:41:52Z</time>
      </trkpt>
      <trkpt lat="25.411369996145368" lon="110.46700333245099">
        <ele>407.80000000000001</ele>
        <time>2013-11-17T03:41:58Z</time>
      </trkpt>
      <trkpt lat="25.411364967003465" lon="110.46702998690307">
        <ele>408.69999999999999</ele>
        <time>2013-11-17T03:42:04Z</time>
      </trkpt>
      <trkpt lat="25.411358345299959" lon="110.46701330691576">
        <ele>407.39999999999998</ele>
        <time>2013-11-17T03:42:10Z</time>
      </trkpt>
      <trkpt lat="25.411353316158056" lon="110.46699997968972">
        <ele>408.39999999999998</ele>
        <time>2013-11-17T03:42:16Z</time>
      </trkpt>
      <trkpt lat="25.411363374441862" lon="110.46703333966434">
        <ele>401.60000000000002</ele>
        <time>2013-11-17T03:42:22Z</time>
      </trkpt>
      <trkpt lat="25.411348370835185" lon="110.46703836880624">
        <ele>401.89999999999998</ele>
        <time>2013-11-17T03:42:28Z</time>
      </trkpt>
      <trkpt lat="25.411331690847874" lon="110.46701665967703">
        <ele>404.5</ele>
        <time>2013-11-17T03:42:34Z</time>
      </trkpt>
      <trkpt lat="25.411323308944702" lon="110.46701163053513">
        <ele>404.60000000000002</ele>
        <time>2013-11-17T03:42:40Z</time>
      </trkpt>
      <trkpt lat="25.411305036395788" lon="110.46699335798621">
        <ele>409.89999999999998</ele>
        <time>2013-11-17T03:42:46Z</time>
      </trkpt>
      <trkpt lat="25.411290032789111" lon="110.46696502715349">
        <ele>415.69999999999999</ele>
        <time>2013-11-17T03:42:52Z</time>
      </trkpt>
      <trkpt lat="25.41128165088594" lon="110.46694499440491">
        <ele>420.30000000000001</ele>
        <time>2013-11-17T03:42:58Z</time>
      </trkpt>
      <trkpt lat="25.411283327266574" lon="110.46695329248905">
        <ele>420.5</ele>
        <time>2013-11-17T03:43:04Z</time>
      </trkpt>
      <trkpt lat="25.411291625350714" lon="110.46695999801159">
        <ele>419.60000000000002</ele>
        <time>2013-11-17T03:43:10Z</time>
      </trkpt>
      <trkpt lat="25.411300007253885" lon="110.46696502715349">
        <ele>417.60000000000002</ele>
        <time>2013-11-17T03:43:16Z</time>
      </trkpt>
      <trkpt lat="25.411305036395788" lon="110.46699503436685">
        <ele>419.60000000000002</ele>
        <time>2013-11-17T03:43:22Z</time>
      </trkpt>
      <trkpt lat="25.411318363621831" lon="110.46702168881893">
        <ele>419.69999999999999</ele>
        <time>2013-11-17T03:43:28Z</time>
      </trkpt>
      <trkpt lat="25.411333367228508" lon="110.46704499050975">
        <ele>418.69999999999999</ele>
        <time>2013-11-17T03:43:34Z</time>
      </trkpt>
      <trkpt lat="25.411358345299959" lon="110.46708002686501">
        <ele>412.60000000000002</ele>
        <time>2013-11-17T03:43:40Z</time>
      </trkpt>
      <trkpt lat="25.411369996145368" lon="110.46709997579455">
        <ele>409.39999999999998</ele>
        <time>2013-11-17T03:43:46Z</time>
      </trkpt>
      <trkpt lat="25.411360021680593" lon="110.46710332855582">
        <ele>409.89999999999998</ele>
        <time>2013-11-17T03:43:52Z</time>
      </trkpt>
      <trkpt lat="25.411348370835185" lon="110.46709000132978">
        <ele>411.60000000000002</ele>
        <time>2013-11-17T03:43:58Z</time>
      </trkpt>
      <trkpt lat="25.411341665312648" lon="110.46708664856851">
        <ele>413.19999999999999</ele>
        <time>2013-11-17T03:44:04Z</time>
      </trkpt>
      <trkpt lat="25.411341665312648" lon="110.46708832494915">
        <ele>414.39999999999998</ele>
        <time>2013-11-17T03:44:10Z</time>
      </trkpt>
      <trkpt lat="25.411334959790111" lon="110.46708329580724">
        <ele>418.80000000000001</ele>
        <time>2013-11-17T03:44:16Z</time>
      </trkpt>
      <trkpt lat="25.411334959790111" lon="110.46709503047168">
        <ele>416.39999999999998</ele>
        <time>2013-11-17T03:44:22Z</time>
      </trkpt>
      <trkpt lat="25.411339988932014" lon="110.46709997579455">
        <ele>413.39999999999998</ele>
        <time>2013-11-17T03:44:28Z</time>
      </trkpt>
      <trkpt lat="25.411336636170745" lon="110.46709670685232">
        <ele>410.80000000000001</ele>
        <time>2013-11-17T03:44:34Z</time>
      </trkpt>
      <trkpt lat="25.411333367228508" lon="110.46709000132978">
        <ele>408.69999999999999</ele>
        <time>2013-11-17T03:44:40Z</time>
      </trkpt>
      <trkpt lat="25.411333367228508" lon="110.46708002686501">
        <ele>407.30000000000001</ele>
        <time>2013-11-17T03:44:46Z</time>
      </trkpt>
      <trkpt lat="25.411343341693282" lon="110.46709167771041">
        <ele>405.10000000000002</ele>
        <time>2013-11-17T03:44:52Z</time>
      </trkpt>
      <trkpt lat="25.411353316158056" lon="110.46710332855582">
        <ele>404.19999999999999</ele>
        <time>2013-11-17T03:44:58Z</time>
      </trkpt>
      <trkpt lat="25.411356668919325" lon="110.46709503047168">
        <ele>405.89999999999998</ele>
        <time>2013-11-17T03:45:04Z</time>
      </trkpt>
      <trkpt lat="25.411361698061228" lon="110.46706502325833">
        <ele>407.69999999999999</ele>
        <time>2013-11-17T03:45:10Z</time>
      </trkpt>
      <trkpt lat="25.411366643384099" lon="110.46705664135516">
        <ele>408</ele>
        <time>2013-11-17T03:45:16Z</time>
      </trkpt>
      <trkpt lat="25.411364967003465" lon="110.46707332134247">
        <ele>409.30000000000001</ele>
        <time>2013-11-17T03:45:22Z</time>
      </trkpt>
      <trkpt lat="25.411358345299959" lon="110.46709997579455">
        <ele>412.19999999999999</ele>
        <time>2013-11-17T03:45:28Z</time>
      </trkpt>
      <trkpt lat="25.411353316158056" lon="110.46712168492377">
        <ele>414.10000000000002</ele>
        <time>2013-11-17T03:45:34Z</time>
      </trkpt>
      <trkpt lat="25.411349963396788" lon="110.46714331023395">
        <ele>416.69999999999999</ele>
        <time>2013-11-17T03:45:40Z</time>
      </trkpt>
      <trkpt lat="25.411351639777422" lon="110.46714833937585">
        <ele>417.39999999999998</ele>
        <time>2013-11-17T03:45:46Z</time>
      </trkpt>
      <trkpt lat="25.411364967003465" lon="110.46714331023395">
        <ele>417</ele>
        <time>2013-11-17T03:45:52Z</time>
      </trkpt>
      <trkpt lat="25.411369996145368" lon="110.46713836491108">
        <ele>414.89999999999998</ele>
        <time>2013-11-17T03:45:58Z</time>
      </trkpt>
      <trkpt lat="25.411371672526002" lon="110.46712998300791">
        <ele>413.10000000000002</ele>
        <time>2013-11-17T03:46:04Z</time>
      </trkpt>
      <trkpt lat="25.411363374441862" lon="110.46712168492377">
        <ele>412.80000000000001</ele>
        <time>2013-11-17T03:46:10Z</time>
      </trkpt>
      <trkpt lat="25.411356668919325" lon="110.46712663024664">
        <ele>417.10000000000002</ele>
        <time>2013-11-17T03:46:16Z</time>
      </trkpt>
      <trkpt lat="25.411373348906636" lon="110.46710668131709">
        <ele>418.10000000000002</ele>
        <time>2013-11-17T03:46:22Z</time>
      </trkpt>
      <trkpt lat="25.411386676132679" lon="110.4670749977231">
        <ele>419</ele>
        <time>2013-11-17T03:46:28Z</time>
      </trkpt>
      <trkpt lat="25.411393297836185" lon="110.46705831773579">
        <ele>420.69999999999999</ele>
        <time>2013-11-17T03:46:34Z</time>
      </trkpt>
      <trkpt lat="25.411400003358722" lon="110.4670699685812">
        <ele>420.60000000000002</ele>
        <time>2013-11-17T03:46:40Z</time>
      </trkpt>
      <trkpt lat="25.411406708881259" lon="110.46707835048437">
        <ele>420</ele>
        <time>2013-11-17T03:46:46Z</time>
      </trkpt>
      <trkpt lat="25.411409977823496" lon="110.4670699685812">
        <ele>419</ele>
        <time>2013-11-17T03:46:52Z</time>
      </trkpt>
      <trkpt lat="25.41140335611999" lon="110.46710165217519">
        <ele>417.5</ele>
        <time>2013-11-17T03:46:58Z</time>
      </trkpt>
      <trkpt lat="25.411401679739356" lon="110.46712168492377">
        <ele>416.69999999999999</ele>
        <time>2013-11-17T03:47:04Z</time>
      </trkpt>
      <trkpt lat="25.411386676132679" lon="110.46712168492377">
        <ele>417.60000000000002</ele>
        <time>2013-11-17T03:47:10Z</time>
      </trkpt>
      <trkpt lat="25.411331690847874" lon="110.46709503047168">
        <ele>417.69999999999999</ele>
        <time>2013-11-17T03:47:16Z</time>
      </trkpt>
      <trkpt lat="25.411330014467239" lon="110.46706334687769">
        <ele>419.30000000000001</ele>
        <time>2013-11-17T03:47:22Z</time>
      </trkpt>
      <trkpt lat="25.411333367228508" lon="110.46703501604497">
        <ele>420</ele>
        <time>2013-11-17T03:47:28Z</time>
      </trkpt>
      <trkpt lat="25.411356668919325" lon="110.46700165607035">
        <ele>419.80000000000001</ele>
        <time>2013-11-17T03:47:34Z</time>
      </trkpt>
      <trkpt lat="25.411373348906636" lon="110.46696997247636">
        <ele>420.80000000000001</ele>
        <time>2013-11-17T03:47:40Z</time>
      </trkpt>
      <trkpt lat="25.411376701667905" lon="110.46695832163095">
        <ele>420.19999999999999</ele>
        <time>2013-11-17T03:47:46Z</time>
      </trkpt>
      <trkpt lat="25.411393297836185" lon="110.46696167439222">
        <ele>420.80000000000001</ele>
        <time>2013-11-17T03:47:52Z</time>
      </trkpt>
      <trkpt lat="25.411396650597453" lon="110.46695832163095">
        <ele>419.5</ele>
        <time>2013-11-17T03:47:58Z</time>
      </trkpt>
      <trkpt lat="25.41140335611999" lon="110.46694667078555">
        <ele>418.89999999999998</ele>
        <time>2013-11-17T03:48:04Z</time>
      </trkpt>
      <trkpt lat="25.411394974216819" lon="110.46692336909473">
        <ele>421.19999999999999</ele>
        <time>2013-11-17T03:48:10Z</time>
      </trkpt>
      <trkpt lat="25.411364967003465" lon="110.46695002354681">
        <ele>421.39999999999998</ele>
        <time>2013-11-17T03:48:16Z</time>
      </trkpt>
      <trkpt lat="25.411341665312648" lon="110.46698665246367">
        <ele>423.39999999999998</ele>
        <time>2013-11-17T03:48:22Z</time>
      </trkpt>
      <trkpt lat="25.411308305338025" lon="110.46697332523763">
        <ele>425.89999999999998</ele>
        <time>2013-11-17T03:48:28Z</time>
      </trkpt>
      <trkpt lat="25.411288356408477" lon="110.46695496886969">
        <ele>425.80000000000001</ele>
        <time>2013-11-17T03:48:34Z</time>
      </trkpt>
      <trkpt lat="25.411264970898628" lon="110.46695002354681">
        <ele>425.10000000000002</ele>
        <time>2013-11-17T03:48:40Z</time>
      </trkpt>
      <trkpt lat="25.41124502196908" lon="110.46693669632077">
        <ele>424.19999999999999</ele>
        <time>2013-11-17T03:48:46Z</time>
      </trkpt>
      <trkpt lat="25.4112249892205" lon="110.46694667078555">
        <ele>423.30000000000001</ele>
        <time>2013-11-17T03:48:52Z</time>
      </trkpt>
      <trkpt lat="25.411178302019835" lon="110.46695999801159">
        <ele>423.5</ele>
        <time>2013-11-17T03:48:58Z</time>
      </trkpt>
      <trkpt lat="25.411131698638201" lon="110.46696829609573">
        <ele>425.19999999999999</ele>
        <time>2013-11-17T03:49:04Z</time>
      </trkpt>
      <trkpt lat="25.411079982295632" lon="110.46696997247636">
        <ele>425.89999999999998</ele>
        <time>2013-11-17T03:49:10Z</time>
      </trkpt>
      <trkpt lat="25.411013346165419" lon="110.46696502715349">
        <ele>425</ele>
        <time>2013-11-17T03:49:16Z</time>
      </trkpt>
      <trkpt lat="25.410951655358076" lon="110.46696997247636">
        <ele>426.30000000000001</ele>
        <time>2013-11-17T03:49:22Z</time>
      </trkpt>
      <trkpt lat="25.410894993692636" lon="110.46696502715349">
        <ele>429.39999999999998</ele>
        <time>2013-11-17T03:49:28Z</time>
      </trkpt>
      <trkpt lat="25.410840008407831" lon="110.46695832163095">
        <ele>430.10000000000002</ele>
        <time>2013-11-17T03:49:34Z</time>
      </trkpt>
      <trkpt lat="25.410781670361757" lon="110.46695832163095">
        <ele>430.10000000000002</ele>
        <time>2013-11-17T03:49:40Z</time>
      </trkpt>
      <trkpt lat="25.410730037838221" lon="110.46697500161827">
        <ele>430</ele>
        <time>2013-11-17T03:49:46Z</time>
      </trkpt>
      <trkpt lat="25.410689972341061" lon="110.46699830330908">
        <ele>430.19999999999999</ele>
        <time>2013-11-17T03:49:52Z</time>
      </trkpt>
      <trkpt lat="25.410625012591481" lon="110.46701163053513">
        <ele>430.5</ele>
        <time>2013-11-17T03:49:58Z</time>
      </trkpt>
      <trkpt lat="25.41055167093873" lon="110.4670200124383">
        <ele>430.19999999999999</ele>
        <time>2013-11-17T03:50:04Z</time>
      </trkpt>
      <trkpt lat="25.410478329285979" lon="110.46703333966434">
        <ele>427.5</ele>
        <time>2013-11-17T03:50:10Z</time>
      </trkpt>
      <trkpt lat="25.41042166762054" lon="110.46703501604497">
        <ele>425.30000000000001</ele>
        <time>2013-11-17T03:50:16Z</time>
      </trkpt>
      <trkpt lat="25.410371627658606" lon="110.46703166328371">
        <ele>423.30000000000001</ele>
        <time>2013-11-17T03:50:22Z</time>
      </trkpt>
      <trkpt lat="25.410319995135069" lon="110.46703669242561">
        <ele>422</ele>
        <time>2013-11-17T03:50:28Z</time>
      </trkpt>
      <trkpt lat="25.410278337076306" lon="110.46704331412911">
        <ele>420.69999999999999</ele>
        <time>2013-11-17T03:50:34Z</time>
      </trkpt>
      <trkpt lat="25.410201642662287" lon="110.46705337241292">
        <ele>419.80000000000001</ele>
        <time>2013-11-17T03:50:40Z</time>
      </trkpt>
      <trkpt lat="25.410126708447933" lon="110.46705337241292">
        <ele>419.60000000000002</ele>
        <time>2013-11-17T03:50:46Z</time>
      </trkpt>
      <trkpt lat="25.410059988498688" lon="110.46705999411643">
        <ele>420.89999999999998</ele>
        <time>2013-11-17T03:50:52Z</time>
      </trkpt>
      <trkpt lat="25.410001650452614" lon="110.46706334687769">
        <ele>421.89999999999998</ele>
        <time>2013-11-17T03:50:58Z</time>
      </trkpt>
      <trkpt lat="25.409946665167809" lon="110.4670699685812">
        <ele>423.10000000000002</ele>
        <time>2013-11-17T03:51:04Z</time>
      </trkpt>
      <trkpt lat="25.409883297979832" lon="110.46708329580724">
        <ele>424.5</ele>
        <time>2013-11-17T03:51:10Z</time>
      </trkpt>
      <trkpt lat="25.409818338230252" lon="110.46709503047168">
        <ele>424.5</ele>
        <time>2013-11-17T03:51:16Z</time>
      </trkpt>
      <trkpt lat="25.409746672958136" lon="110.46709670685232">
        <ele>423.30000000000001</ele>
        <time>2013-11-17T03:51:22Z</time>
      </trkpt>
      <trkpt lat="25.409675007686019" lon="110.46708832494915">
        <ele>422.69999999999999</ele>
        <time>2013-11-17T03:51:28Z</time>
      </trkpt>
      <trkpt lat="25.409608371555805" lon="110.46706829220057">
        <ele>423</ele>
        <time>2013-11-17T03:51:34Z</time>
      </trkpt>
      <trkpt lat="25.409543327987194" lon="110.46704666689038">
        <ele>423.30000000000001</ele>
        <time>2013-11-17T03:51:40Z</time>
      </trkpt>
      <trkpt lat="25.409486666321754" lon="110.46700836159289">
        <ele>422.30000000000001</ele>
        <time>2013-11-17T03:51:46Z</time>
      </trkpt>
      <trkpt lat="25.409433357417583" lon="110.46696997247636">
        <ele>421.80000000000001</ele>
        <time>2013-11-17T03:51:52Z</time>
      </trkpt>
      <trkpt lat="25.40937501937151" lon="110.46693501994014">
        <ele>421.69999999999999</ele>
        <time>2013-11-17T03:51:58Z</time>
      </trkpt>
      <trkpt lat="25.409311652183533" lon="110.46690165996552">
        <ele>421.30000000000001</ele>
        <time>2013-11-17T03:52:04Z</time>
      </trkpt>
      <trkpt lat="25.409256666898727" lon="110.46686167828739">
        <ele>420.80000000000001</ele>
        <time>2013-11-17T03:52:10Z</time>
      </trkpt>
      <trkpt lat="25.409196652472019" lon="110.4668249655515">
        <ele>420.10000000000002</ele>
        <time>2013-11-17T03:52:16Z</time>
      </trkpt>
      <trkpt lat="25.409136638045311" lon="110.46678833663464">
        <ele>419.5</ele>
        <time>2013-11-17T03:52:22Z</time>
      </trkpt>
      <trkpt lat="25.409086681902409" lon="110.46674500219524">
        <ele>420.80000000000001</ele>
        <time>2013-11-17T03:52:28Z</time>
      </trkpt>
      <trkpt lat="25.409021638333797" lon="110.46669663861394">
        <ele>421</ele>
        <time>2013-11-17T03:52:34Z</time>
      </trkpt>
      <trkpt lat="25.408976627513766" lon="110.46667333692312">
        <ele>423.80000000000001</ele>
        <time>2013-11-17T03:52:40Z</time>
      </trkpt>
      <trkpt lat="25.408926671370864" lon="110.46665665693581">
        <ele>424.89999999999998</ele>
        <time>2013-11-17T03:52:46Z</time>
      </trkpt>
      <trkpt lat="25.408875038847327" lon="110.46665498055518">
        <ele>425.10000000000002</ele>
        <time>2013-11-17T03:52:52Z</time>
      </trkpt>
      <trkpt lat="25.40881167165935" lon="110.46665498055518">
        <ele>426.60000000000002</ele>
        <time>2013-11-17T03:52:58Z</time>
      </trkpt>
      <trkpt lat="25.408789962530136" lon="110.46663670800626">
        <ele>427.5</ele>
        <time>2013-11-17T03:53:04Z</time>
      </trkpt>
      <trkpt lat="25.408778311684728" lon="110.46663335524499">
        <ele>428.60000000000002</ele>
        <time>2013-11-17T03:53:10Z</time>
      </trkpt>
      <trkpt lat="25.408751657232642" lon="110.46663000248373">
        <ele>428.80000000000001</ele>
        <time>2013-11-17T03:53:16Z</time>
      </trkpt>
      <trkpt lat="25.408725002780557" lon="110.46660996973515">
        <ele>426.5</ele>
        <time>2013-11-17T03:53:22Z</time>
      </trkpt>
      <trkpt lat="25.408663311973214" lon="110.4666399769485">
        <ele>429.10000000000002</ele>
        <time>2013-11-17T03:53:28Z</time>
      </trkpt>
      <trkpt lat="25.408586701378226" lon="110.46666998416185">
        <ele>432.19999999999999</ele>
        <time>2013-11-17T03:53:34Z</time>
      </trkpt>
      <trkpt lat="25.408511683344841" lon="110.46669001691043">
        <ele>433.80000000000001</ele>
        <time>2013-11-17T03:53:40Z</time>
      </trkpt>
      <trkpt lat="25.408444963395596" lon="110.46671164222062">
        <ele>434.30000000000001</ele>
        <time>2013-11-17T03:53:46Z</time>
      </trkpt>
      <trkpt lat="25.408376650884748" lon="110.46672002412379">
        <ele>436</ele>
        <time>2013-11-17T03:53:52Z</time>
      </trkpt>
      <trkpt lat="25.408301632851362" lon="110.46673997305334">
        <ele>438.80000000000001</ele>
        <time>2013-11-17T03:53:58Z</time>
      </trkpt>
      <trkpt lat="25.408241702243686" lon="110.46675170771778">
        <ele>439.60000000000002</ele>
        <time>2013-11-17T03:54:04Z</time>
      </trkpt>
      <trkpt lat="25.408180011436343" lon="110.46673502773046">
        <ele>440.30000000000001</ele>
        <time>2013-11-17T03:54:10Z</time>
      </trkpt>
      <trkpt lat="25.408121673390269" lon="110.46673997305334">
        <ele>444.69999999999999</ele>
        <time>2013-11-17T03:54:16Z</time>
      </trkpt>
      <trkpt lat="25.408068364486098" lon="110.46673335134983">
        <ele>453</ele>
        <time>2013-11-17T03:54:22Z</time>
      </trkpt>
      <trkpt lat="25.408070040866733" lon="110.46671164222062">
        <ele>456.30000000000001</ele>
        <time>2013-11-17T03:54:28Z</time>
      </trkpt>
      <trkpt lat="25.408074986189604" lon="110.46667995862663">
        <ele>458.30000000000001</ele>
        <time>2013-11-17T03:54:34Z</time>
      </trkpt>
      <trkpt lat="25.408071633428335" lon="110.46665665693581">
        <ele>459.80000000000001</ele>
        <time>2013-11-17T03:54:40Z</time>
      </trkpt>
      <trkpt lat="25.408066688105464" lon="110.46665330417454">
        <ele>460</ele>
        <time>2013-11-17T03:54:46Z</time>
      </trkpt>
      <trkpt lat="25.408068364486098" lon="110.46665498055518">
        <ele>462.39999999999998</ele>
        <time>2013-11-17T03:54:52Z</time>
      </trkpt>
      <trkpt lat="25.408080015331507" lon="110.46668163500726">
        <ele>462.89999999999998</ele>
        <time>2013-11-17T03:54:58Z</time>
      </trkpt>
      <trkpt lat="25.408098371699452" lon="110.46669999137521">
        <ele>464.39999999999998</ele>
        <time>2013-11-17T03:55:04Z</time>
      </trkpt>
      <trkpt lat="25.408119997009635" lon="110.46671331860125">
        <ele>470.89999999999998</ele>
        <time>2013-11-17T03:55:10Z</time>
      </trkpt>
      <trkpt lat="25.408150004222989" lon="110.46674835495651">
        <ele>476.10000000000002</ele>
        <time>2013-11-17T03:55:16Z</time>
      </trkpt>
      <trkpt lat="25.408188309520483" lon="110.46680669300258">
        <ele>475.89999999999998</ele>
        <time>2013-11-17T03:55:22Z</time>
      </trkpt>
      <trkpt lat="25.408218316733837" lon="110.46691004186869">
        <ele>466.69999999999999</ele>
        <time>2013-11-17T03:55:28Z</time>
      </trkpt>
      <trkpt lat="25.408256705850363" lon="110.46702831052244">
        <ele>459.5</ele>
        <time>2013-11-17T03:55:34Z</time>
      </trkpt>
      <trkpt lat="25.408286629244685" lon="110.46713165938854">
        <ele>452.39999999999998</ele>
        <time>2013-11-17T03:55:40Z</time>
      </trkpt>
      <trkpt lat="25.408314960077405" lon="110.46722662635148">
        <ele>449</ele>
        <time>2013-11-17T03:55:46Z</time>
      </trkpt>
      <trkpt lat="25.408281683921814" lon="110.46727834269404">
        <ele>444.80000000000001</ele>
        <time>2013-11-17T03:55:52Z</time>
      </trkpt>
      <trkpt lat="25.408278331160545" lon="110.46731170266867">
        <ele>436.89999999999998</ele>
        <time>2013-11-17T03:55:58Z</time>
      </trkpt>
      <trkpt lat="25.408246647566557" lon="110.46734330244362">
        <ele>430.60000000000002</ele>
        <time>2013-11-17T03:56:04Z</time>
      </trkpt>
      <trkpt lat="25.408225022256374" lon="110.46737666241825">
        <ele>430.30000000000001</ele>
        <time>2013-11-17T03:56:10Z</time>
      </trkpt>
      <trkpt lat="25.408221669495106" lon="110.46741496771574">
        <ele>430.89999999999998</ele>
        <time>2013-11-17T03:56:16Z</time>
      </trkpt>
      <trkpt lat="25.408229967579246" lon="110.46742997132242">
        <ele>427.10000000000002</ele>
        <time>2013-11-17T03:56:22Z</time>
      </trkpt>
      <trkpt lat="25.408233320340514" lon="110.46743667684495">
        <ele>424.10000000000002</ele>
        <time>2013-11-17T03:56:28Z</time>
      </trkpt>
      <trkpt lat="25.40823164395988" lon="110.46745168045163">
        <ele>423.80000000000001</ele>
        <time>2013-11-17T03:56:34Z</time>
      </trkpt>
      <trkpt lat="25.408221669495106" lon="110.46746333129704">
        <ele>424.5</ele>
        <time>2013-11-17T03:56:40Z</time>
      </trkpt>
      <trkpt lat="25.408221669495106" lon="110.46748001128435">
        <ele>421.80000000000001</ele>
        <time>2013-11-17T03:56:46Z</time>
      </trkpt>
      <trkpt lat="25.408225022256374" lon="110.46747665852308">
        <ele>420.19999999999999</ele>
        <time>2013-11-17T03:56:52Z</time>
      </trkpt>
      <trkpt lat="25.408226698637009" lon="110.46748336404562">
        <ele>418.69999999999999</ele>
        <time>2013-11-17T03:56:58Z</time>
      </trkpt>
      <trkpt lat="25.408226698637009" lon="110.46749333851039">
        <ele>418.10000000000002</ele>
        <time>2013-11-17T03:57:04Z</time>
      </trkpt>
      <trkpt lat="25.408221669495106" lon="110.46749501489103">
        <ele>417.60000000000002</ele>
        <time>2013-11-17T03:57:10Z</time>
      </trkpt>
      <trkpt lat="25.40822334587574" lon="110.46749669127166">
        <ele>417.19999999999999</ele>
        <time>2013-11-17T03:57:16Z</time>
      </trkpt>
      <trkpt lat="25.408191662281752" lon="110.46751001849771">
        <ele>417.10000000000002</ele>
        <time>2013-11-17T03:57:22Z</time>
      </trkpt>
      <trkpt lat="25.408159978687763" lon="110.46753834933043">
        <ele>418.5</ele>
        <time>2013-11-17T03:57:28Z</time>
      </trkpt>
      <trkpt lat="25.408114967867732" lon="110.46755670569837">
        <ele>420.80000000000001</ele>
        <time>2013-11-17T03:57:34Z</time>
      </trkpt>
      <trkpt lat="25.408053360879421" lon="110.46758662909269">
        <ele>422.89999999999998</ele>
        <time>2013-11-17T03:57:40Z</time>
      </trkpt>
      <trkpt lat="25.407999968156219" lon="110.46760498546064">
        <ele>425.30000000000001</ele>
        <time>2013-11-17T03:57:46Z</time>
      </trkpt>
      <trkpt lat="25.407950012013316" lon="110.46762837097049">
        <ele>425.80000000000001</ele>
        <time>2013-11-17T03:57:52Z</time>
      </trkpt>
      <trkpt lat="25.407881699502468" lon="110.46763666905463">
        <ele>425.10000000000002</ele>
        <time>2013-11-17T03:57:58Z</time>
      </trkpt>
      <trkpt lat="25.407806681469083" lon="110.46766332350671">
        <ele>425.69999999999999</ele>
        <time>2013-11-17T03:58:04Z</time>
      </trkpt>
      <trkpt lat="25.407733339816332" lon="110.46768830157816">
        <ele>426.19999999999999</ele>
        <time>2013-11-17T03:58:10Z</time>
      </trkpt>
      <trkpt lat="25.407683299854398" lon="110.46770330518484">
        <ele>424.30000000000001</ele>
        <time>2013-11-17T03:58:16Z</time>
      </trkpt>
      <trkpt lat="25.407636696472764" lon="110.46768335625529">
        <ele>425.30000000000001</ele>
        <time>2013-11-17T03:58:22Z</time>
      </trkpt>
      <trkpt lat="25.407595038414001" lon="110.46767497435212">
        <ele>425.89999999999998</ele>
        <time>2013-11-17T03:58:28Z</time>
      </trkpt>
      <trkpt lat="25.407544998452067" lon="110.4676400218159">
        <ele>425.10000000000002</ele>
        <time>2013-11-17T03:58:34Z</time>
      </trkpt>
      <trkpt lat="25.407498311251402" lon="110.4675966873765">
        <ele>427.39999999999998</ele>
        <time>2013-11-17T03:58:40Z</time>
      </trkpt>
      <trkpt lat="25.407469980418682" lon="110.46756165102124">
        <ele>429.5</ele>
        <time>2013-11-17T03:58:46Z</time>
      </trkpt>
      <trkpt lat="25.407439973205328" lon="110.46751496382058">
        <ele>429.89999999999998</ele>
        <time>2013-11-17T03:58:52Z</time>
      </trkpt>
      <trkpt lat="25.407406697049737" lon="110.4675049893558">
        <ele>427.89999999999998</ele>
        <time>2013-11-17T03:58:58Z</time>
      </trkpt>
      <trkpt lat="25.40739169344306" lon="110.46749669127166">
        <ele>427.30000000000001</ele>
        <time>2013-11-17T03:59:04Z</time>
      </trkpt>
      <trkpt lat="25.407381635159254" lon="110.46749166212976">
        <ele>427.10000000000002</ele>
        <time>2013-11-17T03:59:10Z</time>
      </trkpt>
      <trkpt lat="25.407361686229706" lon="110.46746668405831">
        <ele>425.39999999999998</ele>
        <time>2013-11-17T03:59:16Z</time>
      </trkpt>
      <trkpt lat="25.407308293506503" lon="110.46743500046432">
        <ele>427.30000000000001</ele>
        <time>2013-11-17T03:59:22Z</time>
      </trkpt>
      <trkpt lat="25.407279962673783" lon="110.46738496050239">
        <ele>428.39999999999998</ele>
        <time>2013-11-17T03:59:28Z</time>
      </trkpt>
      <trkpt lat="25.407276693731546" lon="110.46734833158553">
        <ele>427.80000000000001</ele>
        <time>2013-11-17T03:59:34Z</time>
      </trkpt>
      <trkpt lat="25.407286668196321" lon="110.46733332797885">
        <ele>426.19999999999999</ele>
        <time>2013-11-17T03:59:40Z</time>
      </trkpt>
      <trkpt lat="25.407296642661095" lon="110.46732997521758">
        <ele>425.10000000000002</ele>
        <time>2013-11-17T03:59:46Z</time>
      </trkpt>
      <trkpt lat="25.407311646267772" lon="110.46732167713344">
        <ele>421.69999999999999</ele>
        <time>2013-11-17T03:59:52Z</time>
      </trkpt>
      <trkpt lat="25.407331679016352" lon="110.46731329523027">
        <ele>415.30000000000001</ele>
        <time>2013-11-17T03:59:58Z</time>
      </trkpt>
      <trkpt lat="25.407341653481126" lon="110.46731170266867">
        <ele>411.69999999999999</ele>
        <time>2013-11-17T04:00:04Z</time>
      </trkpt>
      <trkpt lat="25.407345006242394" lon="110.46731170266867">
        <ele>410.89999999999998</ele>
        <time>2013-11-17T04:00:10Z</time>
      </trkpt>
      <trkpt lat="25.407346682623029" lon="110.4673083499074">
        <ele>411.30000000000001</ele>
        <time>2013-11-17T04:00:16Z</time>
      </trkpt>
      <trkpt lat="25.407316675409675" lon="110.46728999353945">
        <ele>415.10000000000002</ele>
        <time>2013-11-17T04:00:22Z</time>
      </trkpt>
      <trkpt lat="25.407269988209009" lon="110.46727163717151">
        <ele>419.10000000000002</ele>
        <time>2013-11-17T04:00:28Z</time>
      </trkpt>
      <trkpt lat="25.407216679304838" lon="110.46724330633879">
        <ele>421.10000000000002</ele>
        <time>2013-11-17T04:00:34Z</time>
      </trkpt>
      <trkpt lat="25.407175021246076" lon="110.46721832826734">
        <ele>421.80000000000001</ele>
        <time>2013-11-17T04:00:40Z</time>
      </trkpt>
      <trkpt lat="25.407179966568947" lon="110.46722662635148">
        <ele>425.19999999999999</ele>
        <time>2013-11-17T04:00:46Z</time>
      </trkpt>
      <trkpt lat="25.407211650162935" lon="110.46725001186132">
        <ele>428.30000000000001</ele>
        <time>2013-11-17T04:00:52Z</time>
      </trkpt>
      <trkpt lat="25.407250039279461" lon="110.46728169545531">
        <ele>430</ele>
        <time>2013-11-17T04:00:58Z</time>
      </trkpt>
      <trkpt lat="25.407273340970278" lon="110.46732000075281">
        <ele>429.89999999999998</ele>
        <time>2013-11-17T04:01:04Z</time>
      </trkpt>
      <trkpt lat="25.407286668196321" lon="110.46734833158553">
        <ele>428.39999999999998</ele>
        <time>2013-11-17T04:01:10Z</time>
      </trkpt>
      <trkpt lat="25.407278370112181" lon="110.46740834601223">
        <ele>429.19999999999999</ele>
        <time>2013-11-17T04:01:16Z</time>
      </trkpt>
      <trkpt lat="25.407293373718858" lon="110.46745335683227">
        <ele>430.80000000000001</ele>
        <time>2013-11-17T04:01:22Z</time>
      </trkpt>
      <trkpt lat="25.407333355396986" lon="110.46746836043894">
        <ele>438</ele>
        <time>2013-11-17T04:01:28Z</time>
      </trkpt>
      <trkpt lat="25.407361686229706" lon="110.46752334572375">
        <ele>441.69999999999999</ele>
        <time>2013-11-17T04:01:34Z</time>
      </trkpt>
      <trkpt lat="25.407358333468437" lon="110.46758662909269">
        <ele>443.10000000000002</ele>
        <time>2013-11-17T04:01:40Z</time>
      </trkpt>
      <trkpt lat="25.40734332986176" lon="110.46765829436481">
        <ele>447.80000000000001</ele>
        <time>2013-11-17T04:01:46Z</time>
      </trkpt>
      <trkpt lat="25.407320028170943" lon="110.46772669069469">
        <ele>450.19999999999999</ele>
        <time>2013-11-17T04:01:52Z</time>
      </trkpt>
      <trkpt lat="25.407331679016352" lon="110.46777999959886">
        <ele>450.19999999999999</ele>
        <time>2013-11-17T04:01:58Z</time>
      </trkpt>
      <trkpt lat="25.40734332986176" lon="110.46780003234744">
        <ele>449.19999999999999</ele>
        <time>2013-11-17T04:02:04Z</time>
      </trkpt>
      <trkpt lat="25.407356657087803" lon="110.46783330850303">
        <ele>445</ele>
        <time>2013-11-17T04:02:10Z</time>
      </trkpt>
      <trkpt lat="25.40736336261034" lon="110.46787169761956">
        <ele>442.10000000000002</ele>
        <time>2013-11-17T04:02:16Z</time>
      </trkpt>
      <trkpt lat="25.40737166069448" lon="110.46793162822723">
        <ele>441.80000000000001</ele>
        <time>2013-11-17T04:02:22Z</time>
      </trkpt>
      <trkpt lat="25.407413318753242" lon="110.46800999902189">
        <ele>439.89999999999998</ele>
        <time>2013-11-17T04:02:28Z</time>
      </trkpt>
      <trkpt lat="25.407393369823694" lon="110.46808501705527">
        <ele>433.89999999999998</ele>
        <time>2013-11-17T04:02:34Z</time>
      </trkpt>
      <trkpt lat="25.407390017062426" lon="110.46817830763757">
        <ele>429.89999999999998</ele>
        <time>2013-11-17T04:02:40Z</time>
      </trkpt>
      <trkpt lat="25.407390017062426" lon="110.46824829652905">
        <ele>430.19999999999999</ele>
        <time>2013-11-17T04:02:46Z</time>
      </trkpt>
      <trkpt lat="25.407396638765931" lon="110.46830001287162">
        <ele>435.69999999999999</ele>
        <time>2013-11-17T04:02:52Z</time>
      </trkpt>
      <trkpt lat="25.407375013455749" lon="110.46835332177579">
        <ele>437.30000000000001</ele>
        <time>2013-11-17T04:02:58Z</time>
      </trkpt>
      <trkpt lat="25.407346682623029" lon="110.46842163428664">
        <ele>435.5</ele>
        <time>2013-11-17T04:03:04Z</time>
      </trkpt>
      <trkpt lat="25.407311646267772" lon="110.46847997233272">
        <ele>434.39999999999998</ele>
        <time>2013-11-17T04:03:10Z</time>
      </trkpt>
      <trkpt lat="25.407275017350912" lon="110.4685499612242">
        <ele>431</ele>
        <time>2013-11-17T04:03:16Z</time>
      </trkpt>
      <trkpt lat="25.407231682911515" lon="110.46862162649632">
        <ele>428</ele>
        <time>2013-11-17T04:03:22Z</time>
      </trkpt>
      <trkpt lat="25.407196646556258" lon="110.46868834644556">
        <ele>424.80000000000001</ele>
        <time>2013-11-17T04:03:28Z</time>
      </trkpt>
      <trkpt lat="25.40715666487813" lon="110.46876168809831">
        <ele>422.30000000000001</ele>
        <time>2013-11-17T04:03:34Z</time>
      </trkpt>
      <trkpt lat="25.407113330438733" lon="110.46883167698979">
        <ele>420.10000000000002</ele>
        <time>2013-11-17T04:03:40Z</time>
      </trkpt>
      <trkpt lat="25.407075025141239" lon="110.46890501864254">
        <ele>419</ele>
        <time>2013-11-17T04:03:46Z</time>
      </trkpt>
      <trkpt lat="25.407045017927885" lon="110.46898003667593">
        <ele>417.10000000000002</ele>
        <time>2013-11-17T04:03:52Z</time>
      </trkpt>
      <trkpt lat="25.407006628811359" lon="110.46905002556741">
        <ele>417</ele>
        <time>2013-11-17T04:03:58Z</time>
      </trkpt>
      <trkpt lat="25.406976705417037" lon="110.46911330893636">
        <ele>416.19999999999999</ele>
        <time>2013-11-17T04:04:04Z</time>
      </trkpt>
      <trkpt lat="25.40694166906178" lon="110.46918170526624">
        <ele>414.39999999999998</ele>
        <time>2013-11-17T04:04:10Z</time>
      </trkpt>
      <trkpt lat="25.406879978254437" lon="110.46922998502851">
        <ele>413.30000000000001</ele>
        <time>2013-11-17T04:04:16Z</time>
      </trkpt>
      <trkpt lat="25.406811665743589" lon="110.46925999224186">
        <ele>413.60000000000002</ele>
        <time>2013-11-17T04:04:22Z</time>
      </trkpt>
      <trkpt lat="25.406740000471473" lon="110.46928329393268">
        <ele>411.69999999999999</ele>
        <time>2013-11-17T04:04:28Z</time>
      </trkpt>
      <trkpt lat="25.406685015186667" lon="110.46931003220379">
        <ele>411.19999999999999</ele>
        <time>2013-11-17T04:04:34Z</time>
      </trkpt>
      <trkpt lat="25.406628353521228" lon="110.46933501027524">
        <ele>411.19999999999999</ele>
        <time>2013-11-17T04:04:40Z</time>
      </trkpt>
      <trkpt lat="25.406546629965305" lon="110.46935495920479">
        <ele>410.19999999999999</ele>
        <time>2013-11-17T04:04:46Z</time>
      </trkpt>
      <trkpt lat="25.406478317454457" lon="110.46936669386923">
        <ele>409.39999999999998</ele>
        <time>2013-11-17T04:04:52Z</time>
      </trkpt>
      <trkpt lat="25.406413357704878" lon="110.4693716391921">
        <ele>409.39999999999998</ele>
        <time>2013-11-17T04:04:58Z</time>
      </trkpt>
      <trkpt lat="25.406351666897535" lon="110.46939334832132">
        <ele>410.60000000000002</ele>
        <time>2013-11-17T04:05:04Z</time>
      </trkpt>
      <trkpt lat="25.406310008838773" lon="110.46940164640546">
        <ele>410.69999999999999</ele>
        <time>2013-11-17T04:05:10Z</time>
      </trkpt>
      <trkpt lat="25.406263321638107" lon="110.46940332278609">
        <ele>412.60000000000002</ele>
        <time>2013-11-17T04:05:16Z</time>
      </trkpt>
      <trkpt lat="25.406229961663485" lon="110.46941170468926">
        <ele>412.80000000000001</ele>
        <time>2013-11-17T04:05:22Z</time>
      </trkpt>
      <trkpt lat="25.406163325533271" lon="110.46942167915404">
        <ele>414.80000000000001</ele>
        <time>2013-11-17T04:05:28Z</time>
      </trkpt>
      <trkpt lat="25.406093336641788" lon="110.46943500638008">
        <ele>413.69999999999999</ele>
        <time>2013-11-17T04:05:34Z</time>
      </trkpt>
      <trkpt lat="25.406058300286531" lon="110.46944330446422">
        <ele>412.39999999999998</ele>
        <time>2013-11-17T04:05:40Z</time>
      </trkpt>
      <trkpt lat="25.405993340536952" lon="110.46945336274803">
        <ele>412</ele>
        <time>2013-11-17T04:05:46Z</time>
      </trkpt>
      <trkpt lat="25.405901642516255" lon="110.46947498805821">
        <ele>411.60000000000002</ele>
        <time>2013-11-17T04:05:52Z</time>
      </trkpt>
      <trkpt lat="25.405821679159999" lon="110.46951002441347">
        <ele>411.5</ele>
        <time>2013-11-17T04:05:58Z</time>
      </trkpt>
      <trkpt lat="25.405766693875194" lon="110.46955000609159">
        <ele>411.60000000000002</ele>
        <time>2013-11-17T04:06:04Z</time>
      </trkpt>
      <trkpt lat="25.405703326687217" lon="110.46957666054368">
        <ele>412.30000000000001</ele>
        <time>2013-11-17T04:06:10Z</time>
      </trkpt>
      <trkpt lat="25.4056316614151" lon="110.46960666775703">
        <ele>410.80000000000001</ele>
        <time>2013-11-17T04:06:16Z</time>
      </trkpt>
      <trkpt lat="25.405559996142983" lon="110.46962334774435">
        <ele>410.19999999999999</ele>
        <time>2013-11-17T04:06:22Z</time>
      </trkpt>
      <trkpt lat="25.405490007251501" lon="110.46964664943516">
        <ele>410.10000000000002</ele>
        <time>2013-11-17T04:06:28Z</time>
      </trkpt>
      <trkpt lat="25.40543669834733" lon="110.46968503855169">
        <ele>410.5</ele>
        <time>2013-11-17T04:06:34Z</time>
      </trkpt>
      <trkpt lat="25.405391687527299" lon="110.46973331831396">
        <ele>412.19999999999999</ele>
        <time>2013-11-17T04:06:40Z</time>
      </trkpt>
      <trkpt lat="25.405339971184731" lon="110.46978503465652">
        <ele>413.30000000000001</ele>
        <time>2013-11-17T04:06:46Z</time>
      </trkpt>
      <trkpt lat="25.405280040577054" lon="110.46981998719275">
        <ele>414.89999999999998</ele>
        <time>2013-11-17T04:06:52Z</time>
      </trkpt>
      <trkpt lat="25.405254978686571" lon="110.46988335438073">
        <ele>417.69999999999999</ele>
        <time>2013-11-17T04:06:58Z</time>
      </trkpt>
      <trkpt lat="25.405220026150346" lon="110.46991663053632">
        <ele>417.19999999999999</ele>
        <time>2013-11-17T04:07:04Z</time>
      </trkpt>
      <trkpt lat="25.405198317021132" lon="110.46991830691695">
        <ele>414.10000000000002</ele>
        <time>2013-11-17T04:07:10Z</time>
      </trkpt>
      <trkpt lat="25.405179960653186" lon="110.46992836520076">
        <ele>411.30000000000001</ele>
        <time>2013-11-17T04:07:16Z</time>
      </trkpt>
      <trkpt lat="25.405121706426144" lon="110.46995501965284">
        <ele>410</ele>
        <time>2013-11-17T04:07:22Z</time>
      </trkpt>
      <trkpt lat="25.405078371986747" lon="110.46999500133097">
        <ele>409.80000000000001</ele>
        <time>2013-11-17T04:07:28Z</time>
      </trkpt>
      <trkpt lat="25.405033361166716" lon="110.47004831023514">
        <ele>410.80000000000001</ele>
        <time>2013-11-17T04:07:34Z</time>
      </trkpt>
      <trkpt lat="25.404984997585416" lon="110.47010170295835">
        <ele>412.19999999999999</ele>
        <time>2013-11-17T04:07:40Z</time>
      </trkpt>
      <trkpt lat="25.404930012300611" lon="110.47014830633998">
        <ele>412.10000000000002</ele>
        <time>2013-11-17T04:07:46Z</time>
      </trkpt>
      <trkpt lat="25.404886677861214" lon="110.47017998993397">
        <ele>412.69999999999999</ele>
        <time>2013-11-17T04:07:52Z</time>
      </trkpt>
      <trkpt lat="25.40483663789928" lon="110.47020999714732">
        <ele>412.69999999999999</ele>
        <time>2013-11-17T04:07:58Z</time>
      </trkpt>
      <trkpt lat="25.404783328995109" lon="110.47023665159941">
        <ele>411.80000000000001</ele>
        <time>2013-11-17T04:08:04Z</time>
      </trkpt>
      <trkpt lat="25.404730020090938" lon="110.47027663327754">
        <ele>411.69999999999999</ele>
        <time>2013-11-17T04:08:10Z</time>
      </trkpt>
      <trkpt lat="25.404676627367735" lon="110.47031502239406">
        <ele>411.30000000000001</ele>
        <time>2013-11-17T04:08:16Z</time>
      </trkpt>
      <trkpt lat="25.404633292928338" lon="110.47036497853696">
        <ele>410.80000000000001</ele>
        <time>2013-11-17T04:08:22Z</time>
      </trkpt>
      <trkpt lat="25.404573362320662" lon="110.47042499296367">
        <ele>410.10000000000002</ele>
        <time>2013-11-17T04:08:28Z</time>
      </trkpt>
      <trkpt lat="25.404524998739362" lon="110.47048165462911">
        <ele>411.39999999999998</ele>
        <time>2013-11-17T04:08:34Z</time>
      </trkpt>
      <trkpt lat="25.404481664299965" lon="110.47054166905582">
        <ele>412.19999999999999</ele>
        <time>2013-11-17T04:08:40Z</time>
      </trkpt>
      <trkpt lat="25.404440006241202" lon="110.4706050362438">
        <ele>411.80000000000001</ele>
        <time>2013-11-17T04:08:46Z</time>
      </trkpt>
      <trkpt lat="25.404400024563074" lon="110.47067167237401">
        <ele>412</ele>
        <time>2013-11-17T04:08:52Z</time>
      </trkpt>
      <trkpt lat="25.404334980994463" lon="110.47071835957468">
        <ele>411.60000000000002</ele>
        <time>2013-11-17T04:08:58Z</time>
      </trkpt>
      <trkpt lat="25.404273374006152" lon="110.47076831571758">
        <ele>411.30000000000001</ele>
        <time>2013-11-17T04:09:04Z</time>
      </trkpt>
      <trkpt lat="25.404230039566755" lon="110.47083335928619">
        <ele>411.19999999999999</ele>
        <time>2013-11-17T04:09:10Z</time>
      </trkpt>
      <trkpt lat="25.404179999604821" lon="110.47090670093894">
        <ele>411</ele>
        <time>2013-11-17T04:09:16Z</time>
      </trkpt>
      <trkpt lat="25.404133312404156" lon="110.47098163515329">
        <ele>410.89999999999998</ele>
        <time>2013-11-17T04:09:22Z</time>
      </trkpt>
      <trkpt lat="25.40408662520349" lon="110.4710350278765">
        <ele>411.39999999999998</ele>
        <time>2013-11-17T04:09:28Z</time>
      </trkpt>
      <trkpt lat="25.404038345441222" lon="110.47107333317399">
        <ele>409.60000000000002</ele>
        <time>2013-11-17T04:09:34Z</time>
      </trkpt>
      <trkpt lat="25.403983360156417" lon="110.4710849840194">
        <ele>407.80000000000001</ele>
        <time>2013-11-17T04:09:40Z</time>
      </trkpt>
      <trkpt lat="25.403926698490977" lon="110.4710900131613">
        <ele>408.89999999999998</ele>
        <time>2013-11-17T04:09:46Z</time>
      </trkpt>
      <trkpt lat="25.403858302161098" lon="110.47110334038734">
        <ele>408.69999999999999</ele>
        <time>2013-11-17T04:09:52Z</time>
      </trkpt>
      <trkpt lat="25.403803316876292" lon="110.47113502398133">
        <ele>409.69999999999999</ele>
        <time>2013-11-17T04:09:58Z</time>
      </trkpt>
      <trkpt lat="25.403759982436895" lon="110.4711833037436">
        <ele>411.80000000000001</ele>
        <time>2013-11-17T04:10:04Z</time>
      </trkpt>
      <trkpt lat="25.403718324378133" lon="110.47122999094427">
        <ele>414.39999999999998</ele>
        <time>2013-11-17T04:10:10Z</time>
      </trkpt>
      <trkpt lat="25.403678342700005" lon="110.47128497622907">
        <ele>416.89999999999998</ele>
        <time>2013-11-17T04:10:16Z</time>
      </trkpt>
      <trkpt lat="25.403631655499339" lon="110.47134499065578">
        <ele>417.5</ele>
        <time>2013-11-17T04:10:22Z</time>
      </trkpt>
      <trkpt lat="25.403584968298674" lon="110.47139503061771">
        <ele>418.5</ele>
        <time>2013-11-17T04:10:28Z</time>
      </trkpt>
      <trkpt lat="25.403536688536406" lon="110.47144004143775">
        <ele>419.80000000000001</ele>
        <time>2013-11-17T04:10:34Z</time>
      </trkpt>
      <trkpt lat="25.403496706858277" lon="110.4714766703546">
        <ele>422.60000000000002</ele>
        <time>2013-11-17T04:10:40Z</time>
      </trkpt>
      <trkpt lat="25.403451696038246" lon="110.47151665203273">
        <ele>424</ele>
        <time>2013-11-17T04:10:46Z</time>
      </trkpt>
      <trkpt lat="25.403410037979484" lon="110.47156501561403">
        <ele>424.10000000000002</ele>
        <time>2013-11-17T04:10:52Z</time>
      </trkpt>
      <trkpt lat="25.403363350778818" lon="110.47159996815026">
        <ele>424.10000000000002</ele>
        <time>2013-11-17T04:10:58Z</time>
      </trkpt>
      <trkpt lat="25.403318339958787" lon="110.47163668088615">
        <ele>424.19999999999999</ele>
        <time>2013-11-17T04:11:04Z</time>
      </trkpt>
      <trkpt lat="25.40329503826797" lon="110.4716550372541">
        <ele>421.69999999999999</ele>
        <time>2013-11-17T04:11:10Z</time>
      </trkpt>
      <trkpt lat="25.40325497277081" lon="110.47169501893222">
        <ele>419.69999999999999</ele>
        <time>2013-11-17T04:11:16Z</time>
      </trkpt>
      <trkpt lat="25.403211638331413" lon="110.47173332422972">
        <ele>417.5</ele>
        <time>2013-11-17T04:11:22Z</time>
      </trkpt>
      <trkpt lat="25.403166627511382" lon="110.47176668420434">
        <ele>417</ele>
        <time>2013-11-17T04:11:28Z</time>
      </trkpt>
      <trkpt lat="25.40311667136848" lon="110.47180666588247">
        <ele>416.5</ele>
        <time>2013-11-17T04:11:34Z</time>
      </trkpt>
      <trkpt lat="25.403061686083674" lon="110.47185335308313">
        <ele>416</ele>
        <time>2013-11-17T04:11:40Z</time>
      </trkpt>
      <trkpt lat="25.403008293360472" lon="110.47189668752253">
        <ele>415.60000000000002</ele>
        <time>2013-11-17T04:11:46Z</time>
      </trkpt>
      <trkpt lat="25.402958337217569" lon="110.4719449672848">
        <ele>417.60000000000002</ele>
        <time>2013-11-17T04:11:52Z</time>
      </trkpt>
      <trkpt lat="25.402924977242947" lon="110.47200330533087">
        <ele>419.60000000000002</ele>
        <time>2013-11-17T04:11:58Z</time>
      </trkpt>
      <trkpt lat="25.402898322790861" lon="110.47206331975758">
        <ele>422.10000000000002</ele>
        <time>2013-11-17T04:12:04Z</time>
      </trkpt>
      <trkpt lat="25.402888348326087" lon="110.47214663587511">
        <ele>420.69999999999999</ele>
        <time>2013-11-17T04:12:10Z</time>
      </trkpt>
      <trkpt lat="25.402893293648958" lon="110.47222165390849">
        <ele>419.69999999999999</ele>
        <time>2013-11-17T04:12:16Z</time>
      </trkpt>
      <trkpt lat="25.402894970029593" lon="110.47229499556124">
        <ele>419.69999999999999</ele>
        <time>2013-11-17T04:12:22Z</time>
      </trkpt>
      <trkpt lat="25.40288164280355" lon="110.47236833721399">
        <ele>419.10000000000002</ele>
        <time>2013-11-17T04:12:28Z</time>
      </trkpt>
      <trkpt lat="25.402851635590196" lon="110.47243832610548">
        <ele>423.30000000000001</ele>
        <time>2013-11-17T04:12:34Z</time>
      </trkpt>
      <trkpt lat="25.40284501388669" lon="110.47252834774554">
        <ele>424.39999999999998</ele>
        <time>2013-11-17T04:12:40Z</time>
      </trkpt>
      <trkpt lat="25.402835039421916" lon="110.4726133402437">
        <ele>425.89999999999998</ele>
        <time>2013-11-17T04:12:46Z</time>
      </trkpt>
      <trkpt lat="25.402826657518744" lon="110.47268500551581">
        <ele>427.39999999999998</ele>
        <time>2013-11-17T04:12:52Z</time>
      </trkpt>
      <trkpt lat="25.40282498113811" lon="110.47275667078793">
        <ele>430.80000000000001</ele>
        <time>2013-11-17T04:12:58Z</time>
      </trkpt>
      <trkpt lat="25.402818359434605" lon="110.47282833606005">
        <ele>434</ele>
        <time>2013-11-17T04:13:04Z</time>
      </trkpt>
      <trkpt lat="25.40279665030539" lon="110.47289832495153">
        <ele>434.39999999999998</ele>
        <time>2013-11-17T04:13:10Z</time>
      </trkpt>
      <trkpt lat="25.402781646698713" lon="110.47297501936555">
        <ele>436.19999999999999</ele>
        <time>2013-11-17T04:13:16Z</time>
      </trkpt>
      <trkpt lat="25.402768319472671" lon="110.47303168103099">
        <ele>438.30000000000001</ele>
        <time>2013-11-17T04:13:22Z</time>
      </trkpt>
      <trkpt lat="25.402756668627262" lon="110.47306336462498">
        <ele>437.10000000000002</ele>
        <time>2013-11-17T04:13:28Z</time>
      </trkpt>
      <trkpt lat="25.402738312259316" lon="110.47308498993516">
        <ele>436.39999999999998</ele>
        <time>2013-11-17T04:13:34Z</time>
      </trkpt>
      <trkpt lat="25.402723308652639" lon="110.47311499714851">
        <ele>437.39999999999998</ele>
        <time>2013-11-17T04:13:40Z</time>
      </trkpt>
      <trkpt lat="25.402693301439285" lon="110.47317501157522">
        <ele>440.10000000000002</ele>
        <time>2013-11-17T04:13:46Z</time>
      </trkpt>
      <trkpt lat="25.4026666469872" lon="110.47321499325335">
        <ele>440</ele>
        <time>2013-11-17T04:13:52Z</time>
      </trkpt>
      <trkpt lat="25.402636639773846" lon="110.47326503321528">
        <ele>438.5</ele>
        <time>2013-11-17T04:13:58Z</time>
      </trkpt>
      <trkpt lat="25.402605039998889" lon="110.47331666573882">
        <ele>438.5</ele>
        <time>2013-11-17T04:14:04Z</time>
      </trkpt>
      <trkpt lat="25.402573356404901" lon="110.47337332740426">
        <ele>437.89999999999998</ele>
        <time>2013-11-17T04:14:10Z</time>
      </trkpt>
      <trkpt lat="25.402555000036955" lon="110.47339998185635">
        <ele>436.60000000000002</ele>
        <time>2013-11-17T04:14:16Z</time>
      </trkpt>
      <trkpt lat="25.402543349191546" lon="110.47340501099825">
        <ele>436.5</ele>
        <time>2013-11-17T04:14:22Z</time>
      </trkpt>
      <trkpt lat="25.402523316442966" lon="110.47342001460493">
        <ele>437.5</ele>
        <time>2013-11-17T04:14:28Z</time>
      </trkpt>
      <trkpt lat="25.402481658384204" lon="110.47344331629574">
        <ele>436.19999999999999</ele>
        <time>2013-11-17T04:14:34Z</time>
      </trkpt>
      <trkpt lat="25.40247998200357" lon="110.47342169098556">
        <ele>435.80000000000001</ele>
        <time>2013-11-17T04:14:40Z</time>
      </trkpt>
      <trkpt lat="25.402501691132784" lon="110.47337165102363">
        <ele>434</ele>
        <time>2013-11-17T04:14:46Z</time>
      </trkpt>
      <trkpt lat="25.402531698346138" lon="110.47332337126136">
        <ele>433.30000000000001</ele>
        <time>2013-11-17T04:14:52Z</time>
      </trkpt>
      <trkpt lat="25.402558352798223" lon="110.47325832769275">
        <ele>432.5</ele>
        <time>2013-11-17T04:14:58Z</time>
      </trkpt>
      <trkpt lat="25.402608308941126" lon="110.47320501878858">
        <ele>432.39999999999998</ele>
        <time>2013-11-17T04:15:04Z</time>
      </trkpt>
      <trkpt lat="25.402653319761157" lon="110.47317165881395">
        <ele>432.60000000000002</ele>
        <time>2013-11-17T04:15:10Z</time>
      </trkpt>
      <trkpt lat="25.402675028890371" lon="110.47313000075519">
        <ele>431.19999999999999</ele>
        <time>2013-11-17T04:15:16Z</time>
      </trkpt>
      <trkpt lat="25.402679974213243" lon="110.47313670627773">
        <ele>430.39999999999998</ele>
        <time>2013-11-17T04:15:22Z</time>
      </trkpt>
      <trkpt lat="25.40269497781992" lon="110.47315162606537">
        <ele>433.89999999999998</ele>
        <time>2013-11-17T04:15:28Z</time>
      </trkpt>
      <trkpt lat="25.402705036103725" lon="110.47319496050477">
        <ele>437.60000000000002</ele>
        <time>2013-11-17T04:15:34Z</time>
      </trkpt>
      <trkpt lat="25.402724985033274" lon="110.47324667684734">
        <ele>442.69999999999999</ele>
        <time>2013-11-17T04:15:40Z</time>
      </trkpt>
      <trkpt lat="25.402743341401219" lon="110.47329830937088">
        <ele>446.30000000000001</ele>
        <time>2013-11-17T04:15:46Z</time>
      </trkpt>
      <trkpt lat="25.402753315865993" lon="110.47336000017822">
        <ele>450.10000000000002</ele>
        <time>2013-11-17T04:15:52Z</time>
      </trkpt>
      <trkpt lat="25.402756668627262" lon="110.47341330908239">
        <ele>451.5</ele>
        <time>2013-11-17T04:15:58Z</time>
      </trkpt>
      <trkpt lat="25.402748370543122" lon="110.47348329797387">
        <ele>450.80000000000001</ele>
        <time>2013-11-17T04:16:04Z</time>
      </trkpt>
      <trkpt lat="25.402731690555811" lon="110.47354666516185">
        <ele>452.89999999999998</ele>
        <time>2013-11-17T04:16:10Z</time>
      </trkpt>
      <trkpt lat="25.402726661413908" lon="110.47361170873046">
        <ele>454.5</ele>
        <time>2013-11-17T04:16:16Z</time>
      </trkpt>
      <trkpt lat="25.402739988639951" lon="110.47367834486067">
        <ele>453.19999999999999</ele>
        <time>2013-11-17T04:16:22Z</time>
      </trkpt>
      <trkpt lat="25.402743341401219" lon="110.47375001013279">
        <ele>446.10000000000002</ele>
        <time>2013-11-17T04:16:28Z</time>
      </trkpt>
      <trkpt lat="25.402754992246628" lon="110.47383332625031">
        <ele>440.30000000000001</ele>
        <time>2013-11-17T04:16:34Z</time>
      </trkpt>
      <trkpt lat="25.402749963104725" lon="110.4739033151418">
        <ele>438</ele>
        <time>2013-11-17T04:16:40Z</time>
      </trkpt>
      <trkpt lat="25.402739988639951" lon="110.47398998402059">
        <ele>435.39999999999998</ele>
        <time>2013-11-17T04:16:46Z</time>
      </trkpt>
      <trkpt lat="25.402753315865993" lon="110.47406667843461">
        <ele>433.60000000000002</ele>
        <time>2013-11-17T04:16:52Z</time>
      </trkpt>
      <trkpt lat="25.402773348614573" lon="110.47413499094546">
        <ele>430.19999999999999</ele>
        <time>2013-11-17T04:16:58Z</time>
      </trkpt>
      <trkpt lat="25.402773348614573" lon="110.47421998344362">
        <ele>431.5</ele>
        <time>2013-11-17T04:17:04Z</time>
      </trkpt>
      <trkpt lat="25.402786675840616" lon="110.47429835423827">
        <ele>430.30000000000001</ele>
        <time>2013-11-17T04:17:10Z</time>
      </trkpt>
      <trkpt lat="25.402809977531433" lon="110.47437496483326">
        <ele>426.89999999999998</ele>
        <time>2013-11-17T04:17:16Z</time>
      </trkpt>
      <trkpt lat="25.402841661125422" lon="110.47444998286664">
        <ele>424.60000000000002</ele>
        <time>2013-11-17T04:17:22Z</time>
      </trkpt>
      <trkpt lat="25.402860017493367" lon="110.47454000450671">
        <ele>424.10000000000002</ele>
        <time>2013-11-17T04:17:28Z</time>
      </trkpt>
      <trkpt lat="25.402871668338776" lon="110.47461669892073">
        <ele>423.19999999999999</ele>
        <time>2013-11-17T04:17:34Z</time>
      </trkpt>
      <trkpt lat="25.402843337506056" lon="110.47465500421822">
        <ele>425.30000000000001</ele>
        <time>2013-11-17T04:17:40Z</time>
      </trkpt>
      <trkpt lat="25.402809977531433" lon="110.47466003336012">
        <ele>425.19999999999999</ele>
        <time>2013-11-17T04:17:46Z</time>
      </trkpt>
      <trkpt lat="25.402778293937445" lon="110.47467998228967">
        <ele>425</ele>
        <time>2013-11-17T04:17:52Z</time>
      </trkpt>
      <trkpt lat="25.402761697769165" lon="110.47469163313508">
        <ele>423.80000000000001</ele>
        <time>2013-11-17T04:17:58Z</time>
      </trkpt>
      <trkpt lat="25.402746694162488" lon="110.47470001503825">
        <ele>421.80000000000001</ele>
        <time>2013-11-17T04:18:04Z</time>
      </trkpt>
      <trkpt lat="25.402693301439285" lon="110.4747199639678">
        <ele>419.89999999999998</ele>
        <time>2013-11-17T04:18:10Z</time>
      </trkpt>
      <trkpt lat="25.402660025283694" lon="110.47472834587097">
        <ele>418.89999999999998</ele>
        <time>2013-11-17T04:18:16Z</time>
      </trkpt>
      <trkpt lat="25.40260998532176" lon="110.4747249931097">
        <ele>419.60000000000002</ele>
        <time>2013-11-17T04:18:22Z</time>
      </trkpt>
      <trkpt lat="25.402603363618255" lon="110.47473664395511">
        <ele>419.60000000000002</ele>
        <time>2013-11-17T04:18:28Z</time>
      </trkpt>
      <trkpt lat="25.402591628953815" lon="110.47478333115578">
        <ele>418.5</ele>
        <time>2013-11-17T04:18:34Z</time>
      </trkpt>
      <trkpt lat="25.402585007250309" lon="110.47483496367931">
        <ele>418</ele>
        <time>2013-11-17T04:18:40Z</time>
      </trkpt>
      <trkpt lat="25.402563298121095" lon="110.47488165087998">
        <ele>417.80000000000001</ele>
        <time>2013-11-17T04:18:46Z</time>
      </trkpt>
      <trkpt lat="25.402543349191546" lon="110.47492330893874">
        <ele>417.30000000000001</ele>
        <time>2013-11-17T04:18:52Z</time>
      </trkpt>
      <trkpt lat="25.402536643669009" lon="110.47493336722255">
        <ele>416.30000000000001</ele>
        <time>2013-11-17T04:18:58Z</time>
      </trkpt>
      <trkpt lat="25.402551647275686" lon="110.47498332336545">
        <ele>415.39999999999998</ele>
        <time>2013-11-17T04:19:04Z</time>
      </trkpt>
      <trkpt lat="25.402545025572181" lon="110.47503001056612">
        <ele>414.19999999999999</ele>
        <time>2013-11-17T04:19:10Z</time>
      </trkpt>
      <trkpt lat="25.402538320049644" lon="110.47509497031569">
        <ele>417</ele>
        <time>2013-11-17T04:19:16Z</time>
      </trkpt>
      <trkpt lat="25.402531698346138" lon="110.47514333389699">
        <ele>417.10000000000002</ele>
        <time>2013-11-17T04:19:22Z</time>
      </trkpt>
      <trkpt lat="25.402521640062332" lon="110.47519664280117">
        <ele>416.19999999999999</ele>
        <time>2013-11-17T04:19:28Z</time>
      </trkpt>
      <trkpt lat="25.402519963681698" lon="110.47522329725325">
        <ele>415.30000000000001</ele>
        <time>2013-11-17T04:19:34Z</time>
      </trkpt>
      <trkpt lat="25.402506636455655" lon="110.47527836635709">
        <ele>415.39999999999998</ele>
        <time>2013-11-17T04:19:40Z</time>
      </trkpt>
      <trkpt lat="25.402490040287375" lon="110.47532664611936">
        <ele>415.5</ele>
        <time>2013-11-17T04:19:46Z</time>
      </trkpt>
      <trkpt lat="25.402461625635624" lon="110.47537333332002">
        <ele>417.19999999999999</ele>
        <time>2013-11-17T04:19:52Z</time>
      </trkpt>
      <trkpt lat="25.402458356693387" lon="110.47537668608129">
        <ele>416.39999999999998</ele>
        <time>2013-11-17T04:19:58Z</time>
      </trkpt>
      <trkpt lat="25.402436647564173" lon="110.47542831860483">
        <ele>417.5</ele>
        <time>2013-11-17T04:20:04Z</time>
      </trkpt>
      <trkpt lat="25.402416698634624" lon="110.4754916857928">
        <ele>418.89999999999998</ele>
        <time>2013-11-17T04:20:10Z</time>
      </trkpt>
      <trkpt lat="25.402383338660002" lon="110.47556335106492">
        <ele>420.60000000000002</ele>
        <time>2013-11-17T04:20:16Z</time>
      </trkpt>
      <trkpt lat="25.402363305911422" lon="110.47561498358846">
        <ele>423.89999999999998</ele>
        <time>2013-11-17T04:20:22Z</time>
      </trkpt>
      <trkpt lat="25.40234662592411" lon="110.47567499801517">
        <ele>425.30000000000001</ele>
        <time>2013-11-17T04:20:28Z</time>
      </trkpt>
      <trkpt lat="25.402334975078702" lon="110.47573668882251">
        <ele>429.80000000000001</ele>
        <time>2013-11-17T04:20:34Z</time>
      </trkpt>
      <trkpt lat="25.402333298698068" lon="110.47579997219145">
        <ele>433.80000000000001</ele>
        <time>2013-11-17T04:20:40Z</time>
      </trkpt>
      <trkpt lat="25.402315026149154" lon="110.47586836852133">
        <ele>436.19999999999999</ele>
        <time>2013-11-17T04:20:46Z</time>
      </trkpt>
      <trkpt lat="25.402303291484714" lon="110.47591832466424">
        <ele>437.10000000000002</ele>
        <time>2013-11-17T04:20:52Z</time>
      </trkpt>
      <trkpt lat="25.402301698923111" lon="110.47597163356841">
        <ele>437.89999999999998</ele>
        <time>2013-11-17T04:20:58Z</time>
      </trkpt>
      <trkpt lat="25.402286695316434" lon="110.47602997161448">
        <ele>440.80000000000001</ele>
        <time>2013-11-17T04:21:04Z</time>
      </trkpt>
      <trkpt lat="25.402288371697068" lon="110.47606165520847">
        <ele>442</ele>
        <time>2013-11-17T04:21:10Z</time>
      </trkpt>
      <trkpt lat="25.402268338948488" lon="110.47609669156373">
        <ele>441.30000000000001</ele>
        <time>2013-11-17T04:21:16Z</time>
      </trkpt>
      <trkpt lat="25.402253335341811" lon="110.47614170238376">
        <ele>442.5</ele>
        <time>2013-11-17T04:21:22Z</time>
      </trkpt>
      <trkpt lat="25.402234978973866" lon="110.47617665491998">
        <ele>441.19999999999999</ele>
        <time>2013-11-17T04:21:28Z</time>
      </trkpt>
      <trkpt lat="25.402218298986554" lon="110.47622501850128">
        <ele>438.5</ele>
        <time>2013-11-17T04:21:34Z</time>
      </trkpt>
      <trkpt lat="25.402194997295737" lon="110.47627002932131">
        <ele>437.80000000000001</ele>
        <time>2013-11-17T04:21:40Z</time>
      </trkpt>
      <trkpt lat="25.402181670069695" lon="110.4762916546315">
        <ele>438.80000000000001</ele>
        <time>2013-11-17T04:21:46Z</time>
      </trkpt>
      <trkpt lat="25.4021882917732" lon="110.47631998546422">
        <ele>432.89999999999998</ele>
        <time>2013-11-17T04:21:52Z</time>
      </trkpt>
      <trkpt lat="25.402191644534469" lon="110.47633498907089">
        <ele>431.10000000000002</ele>
        <time>2013-11-17T04:21:58Z</time>
      </trkpt>
      <trkpt lat="25.402185022830963" lon="110.4763400182128">
        <ele>428.69999999999999</ele>
        <time>2013-11-17T04:22:04Z</time>
      </trkpt>
      <trkpt lat="25.402183346450329" lon="110.47634337097406">
        <ele>427.5</ele>
        <time>2013-11-17T04:22:10Z</time>
      </trkpt>
      <trkpt lat="25.40215166285634" lon="110.47634169459343">
        <ele>426.89999999999998</ele>
        <time>2013-11-17T04:22:16Z</time>
      </trkpt>
      <trkpt lat="25.402125008404255" lon="110.47634496353567">
        <ele>428.10000000000002</ele>
        <time>2013-11-17T04:22:22Z</time>
      </trkpt>
      <trkpt lat="25.402086703106761" lon="110.4763400182128">
        <ele>427.30000000000001</ele>
        <time>2013-11-17T04:22:28Z</time>
      </trkpt>
      <trkpt lat="25.402036663144827" lon="110.47631998546422">
        <ele>427.30000000000001</ele>
        <time>2013-11-17T04:22:34Z</time>
      </trkpt>
      <trkpt lat="25.401986707001925" lon="110.47631168738008">
        <ele>426.5</ele>
        <time>2013-11-17T04:22:40Z</time>
      </trkpt>
      <trkpt lat="25.40193666703999" lon="110.4762966837734">
        <ele>425.39999999999998</ele>
        <time>2013-11-17T04:22:46Z</time>
      </trkpt>
      <trkpt lat="25.401885034516454" lon="110.47627497464418">
        <ele>423.80000000000001</ele>
        <time>2013-11-17T04:22:52Z</time>
      </trkpt>
      <trkpt lat="25.401831641793251" lon="110.47625167295337">
        <ele>423.39999999999998</ele>
        <time>2013-11-17T04:22:58Z</time>
      </trkpt>
      <trkpt lat="25.401789983734488" lon="110.47625997103751">
        <ele>426</ele>
        <time>2013-11-17T04:23:04Z</time>
      </trkpt>
      <trkpt lat="25.401768358424306" lon="110.47625167295337">
        <ele>423.60000000000002</ele>
        <time>2013-11-17T04:23:10Z</time>
      </trkpt>
      <trkpt lat="25.401746649295092" lon="110.47624496743083">
        <ele>423.19999999999999</ele>
        <time>2013-11-17T04:23:16Z</time>
      </trkpt>
      <trkpt lat="25.401736674830317" lon="110.47624169848859">
        <ele>423.5</ele>
        <time>2013-11-17T04:23:22Z</time>
      </trkpt>
      <trkpt lat="25.401731645688415" lon="110.47624169848859">
        <ele>422.89999999999998</ele>
        <time>2013-11-17T04:23:28Z</time>
      </trkpt>
      <trkpt lat="25.40172996930778" lon="110.47623834572732">
        <ele>421.30000000000001</ele>
        <time>2013-11-17T04:23:34Z</time>
      </trkpt>
      <trkpt lat="25.401725023984909" lon="110.47623666934669">
        <ele>419.60000000000002</ele>
        <time>2013-11-17T04:23:40Z</time>
      </trkpt>
      <trkpt lat="25.401718318462372" lon="110.47623499296606">
        <ele>419.19999999999999</ele>
        <time>2013-11-17T04:23:46Z</time>
      </trkpt>
      <trkpt lat="25.401710020378232" lon="110.47623666934669">
        <ele>419.60000000000002</ele>
        <time>2013-11-17T04:23:52Z</time>
      </trkpt>
      <trkpt lat="25.401699962094426" lon="110.47624002210796">
        <ele>420.30000000000001</ele>
        <time>2013-11-17T04:23:58Z</time>
      </trkpt>
      <trkpt lat="25.401693340390921" lon="110.47624337486923">
        <ele>420.10000000000002</ele>
        <time>2013-11-17T04:24:04Z</time>
      </trkpt>
      <trkpt lat="25.401686634868383" lon="110.47624496743083">
        <ele>418.5</ele>
        <time>2013-11-17T04:24:10Z</time>
      </trkpt>
      <trkpt lat="25.401686634868383" lon="110.4762483201921">
        <ele>418.80000000000001</ele>
        <time>2013-11-17T04:24:16Z</time>
      </trkpt>
      <trkpt lat="25.401691664010286" lon="110.47628000378609">
        <ele>420.89999999999998</ele>
        <time>2013-11-17T04:24:22Z</time>
      </trkpt>
      <trkpt lat="25.401710020378232" lon="110.47630003653467">
        <ele>420.39999999999998</ele>
        <time>2013-11-17T04:24:28Z</time>
      </trkpt>
      <trkpt lat="25.401748325675726" lon="110.47632669098675">
        <ele>421.30000000000001</ele>
        <time>2013-11-17T04:24:34Z</time>
      </trkpt>
      <trkpt lat="25.401780009269714" lon="110.47635996714234">
        <ele>425.19999999999999</ele>
        <time>2013-11-17T04:24:40Z</time>
      </trkpt>
      <trkpt lat="25.401825020089746" lon="110.47638335265219">
        <ele>427.5</ele>
        <time>2013-11-17T04:24:46Z</time>
      </trkpt>
      <trkpt lat="25.401870030909777" lon="110.47640162520111">
        <ele>431.80000000000001</ele>
        <time>2013-11-17T04:24:52Z</time>
      </trkpt>
      <trkpt lat="25.401921663433313" lon="110.476438337937">
        <ele>436.30000000000001</ele>
        <time>2013-11-17T04:24:58Z</time>
      </trkpt>
      <trkpt lat="25.401904983446002" lon="110.4764882940799">
        <ele>437.10000000000002</ele>
        <time>2013-11-17T04:25:04Z</time>
      </trkpt>
      <trkpt lat="25.401901630684733" lon="110.47649499960244">
        <ele>444.60000000000002</ele>
        <time>2013-11-17T04:25:10Z</time>
      </trkpt>
      <trkpt lat="25.401893332600594" lon="110.47651997767389">
        <ele>448.19999999999999</ele>
        <time>2013-11-17T04:25:16Z</time>
      </trkpt>
      <trkpt lat="25.401885034516454" lon="110.47654663212597">
        <ele>447.30000000000001</ele>
        <time>2013-11-17T04:25:22Z</time>
      </trkpt>
      <trkpt lat="25.401898361742496" lon="110.47654001042247">
        <ele>446.89999999999998</ele>
        <time>2013-11-17T04:25:28Z</time>
      </trkpt>
      <trkpt lat="25.401915041729808" lon="110.4765316285193">
        <ele>445.30000000000001</ele>
        <time>2013-11-17T04:25:34Z</time>
      </trkpt>
      <trkpt lat="25.401938343420625" lon="110.47651503235102">
        <ele>445.69999999999999</ele>
        <time>2013-11-17T04:25:40Z</time>
      </trkpt>
      <trkpt lat="25.401951670646667" lon="110.47647999599576">
        <ele>441.60000000000002</ele>
        <time>2013-11-17T04:25:46Z</time>
      </trkpt>
      <trkpt lat="25.40199332870543" lon="110.47644663602114">
        <ele>441.60000000000002</ele>
        <time>2013-11-17T04:25:52Z</time>
      </trkpt>
      <trkpt lat="25.402051666751504" lon="110.47643498517573">
        <ele>439.5</ele>
        <time>2013-11-17T04:25:58Z</time>
      </trkpt>
      <trkpt lat="25.402085026726127" lon="110.47642836347222">
        <ele>439</ele>
        <time>2013-11-17T04:26:04Z</time>
      </trkpt>
      <trkpt lat="25.402121655642986" lon="110.47643330879509">
        <ele>438.39999999999998</ele>
        <time>2013-11-17T04:26:10Z</time>
      </trkpt>
      <trkpt lat="25.40215166285634" lon="110.47644001431763">
        <ele>439.30000000000001</ele>
        <time>2013-11-17T04:26:16Z</time>
      </trkpt>
      <trkpt lat="25.4021882917732" lon="110.47643330879509">
        <ele>441.30000000000001</ele>
        <time>2013-11-17T04:26:22Z</time>
      </trkpt>
      <trkpt lat="25.402233302593231" lon="110.47642333433032">
        <ele>445.10000000000002</ele>
        <time>2013-11-17T04:26:28Z</time>
      </trkpt>
      <trkpt lat="25.402248306199908" lon="110.47641503624618">
        <ele>447.80000000000001</ele>
        <time>2013-11-17T04:26:34Z</time>
      </trkpt>
      <trkpt lat="25.40226498618722" lon="110.47640162520111">
        <ele>449.10000000000002</ele>
        <time>2013-11-17T04:26:40Z</time>
      </trkpt>
      <trkpt lat="25.402274960651994" lon="110.47639667987823">
        <ele>445.19999999999999</ele>
        <time>2013-11-17T04:26:46Z</time>
      </trkpt>
      <trkpt lat="25.402274960651994" lon="110.47641335986555">
        <ele>447.80000000000001</ele>
        <time>2013-11-17T04:26:52Z</time>
      </trkpt>
      <trkpt lat="25.402278313413262" lon="110.47644169069827">
        <ele>449.19999999999999</ele>
        <time>2013-11-17T04:26:58Z</time>
      </trkpt>
      <trkpt lat="25.4022850189358" lon="110.4764449596405">
        <ele>451.19999999999999</ele>
        <time>2013-11-17T04:27:04Z</time>
      </trkpt>
      <trkpt lat="25.402281666174531" lon="110.47645996324718">
        <time>2013-11-17T04:27:15Z</time>
      </trkpt>
      <trkpt lat="25.402283342555165" lon="110.47646163962781">
        <ele>441.39999999999998</ele>
        <time>2013-11-17T04:27:16Z</time>
      </trkpt>
      <trkpt lat="25.402286695316434" lon="110.47647002153099">
        <ele>436.69999999999999</ele>
        <time>2013-11-17T04:27:22Z</time>
      </trkpt>
      <trkpt lat="25.402286695316434" lon="110.47647002153099">
        <ele>439.5</ele>
        <time>2013-11-17T04:27:28Z</time>
      </trkpt>
      <trkpt lat="25.4022850189358" lon="110.47646499238908">
        <time>2013-11-17T04:27:33Z</time>
      </trkpt>
      <trkpt lat="25.4022850189358" lon="110.47646331600845">
        <ele>441</ele>
        <time>2013-11-17T04:27:34Z</time>
      </trkpt>
      <trkpt lat="25.402281666174531" lon="110.47646331600845">
        <ele>440.80000000000001</ele>
        <time>2013-11-17T04:27:40Z</time>
      </trkpt>
      <trkpt lat="25.402281666174531" lon="110.47647831961513">
        <ele>437.5</ele>
        <time>2013-11-17T04:27:51Z</time>
      </trkpt>
      <trkpt lat="25.402283342555165" lon="110.47647169791162">
        <ele>441.30000000000001</ele>
        <time>2013-11-17T04:27:58Z</time>
      </trkpt>
      <trkpt lat="25.402286695316434" lon="110.47646834515035">
        <ele>445</ele>
        <time>2013-11-17T04:28:09Z</time>
      </trkpt>
      <trkpt lat="25.402291640639305" lon="110.47646834515035">
        <ele>441.19999999999999</ele>
        <time>2013-11-17T04:28:16Z</time>
      </trkpt>
      <trkpt lat="25.402300022542477" lon="110.47643163241446">
        <ele>450.19999999999999</ele>
        <time>2013-11-17T04:28:27Z</time>
      </trkpt>
      <trkpt lat="25.402303291484714" lon="110.47646834515035">
        <time>2013-11-17T04:28:33Z</time>
      </trkpt>
      <trkpt lat="25.402303291484714" lon="110.47647496685386">
        <ele>453.19999999999999</ele>
        <time>2013-11-17T04:28:34Z</time>
      </trkpt>
      <trkpt lat="25.402326676994562" lon="110.47649835236371">
        <ele>451</ele>
        <time>2013-11-17T04:28:51Z</time>
      </trkpt>
      <trkpt lat="25.402303291484714" lon="110.47660497017205">
        <ele>444.10000000000002</ele>
        <time>2013-11-17T04:29:45Z</time>
      </trkpt>
      <trkpt lat="25.402286695316434" lon="110.47660329379141">
        <ele>444.10000000000002</ele>
        <time>2013-11-17T04:29:51Z</time>
      </trkpt>
      <trkpt lat="25.4022850189358" lon="110.47653330489993">
        <ele>448.80000000000001</ele>
        <time>2013-11-17T04:30:09Z</time>
      </trkpt>
      <trkpt lat="25.402283342555165" lon="110.4764882940799">
        <time>2013-11-17T04:30:15Z</time>
      </trkpt>
      <trkpt lat="25.402286695316434" lon="110.47647831961513">
        <ele>449.60000000000002</ele>
        <time>2013-11-17T04:30:16Z</time>
      </trkpt>
      <trkpt lat="25.402306644245982" lon="110.47645334154367">
        <time>2013-11-17T04:30:21Z</time>
      </trkpt>
      <trkpt lat="25.402311673387885" lon="110.47644998878241">
        <ele>450.5</ele>
        <time>2013-11-17T04:30:22Z</time>
      </trkpt>
      <trkpt lat="25.402358360588551" lon="110.47643163241446">
        <time>2013-11-17T04:30:27Z</time>
      </trkpt>
      <trkpt lat="25.402363305911422" lon="110.47642836347222">
        <ele>452.60000000000002</ele>
        <time>2013-11-17T04:30:28Z</time>
      </trkpt>
      <trkpt lat="25.402396665886045" lon="110.47642836347222">
        <time>2013-11-17T04:30:33Z</time>
      </trkpt>
      <trkpt lat="25.402401695027947" lon="110.47642836347222">
        <ele>451.80000000000001</ele>
        <time>2013-11-17T04:30:34Z</time>
      </trkpt>
      <trkpt lat="25.402503367513418" lon="110.47642333433032">
        <ele>449.89999999999998</ele>
        <time>2013-11-17T04:30:45Z</time>
      </trkpt>
      <trkpt lat="25.402558352798223" lon="110.47642836347222">
        <time>2013-11-17T04:30:51Z</time>
      </trkpt>
      <trkpt lat="25.402568327262998" lon="110.47643003985286">
        <ele>451.5</ele>
        <time>2013-11-17T04:30:52Z</time>
      </trkpt>
      <trkpt lat="25.40260168723762" lon="110.47643498517573">
        <time>2013-11-17T04:30:57Z</time>
      </trkpt>
      <trkpt lat="25.402605039998889" lon="110.47643498517573">
        <ele>448.69999999999999</ele>
        <time>2013-11-17T04:30:58Z</time>
      </trkpt>
      <trkpt lat="25.402633370831609" lon="110.47645334154367">
        <time>2013-11-17T04:31:03Z</time>
      </trkpt>
      <trkpt lat="25.40263831615448" lon="110.47645334154367">
        <ele>450.39999999999998</ele>
        <time>2013-11-17T04:31:04Z</time>
      </trkpt>
      <trkpt lat="25.402633370831609" lon="110.47647337429225">
        <time>2013-11-17T04:31:09Z</time>
      </trkpt>
      <trkpt lat="25.402631694450974" lon="110.47647999599576">
        <ele>449.30000000000001</ele>
        <time>2013-11-17T04:31:10Z</time>
      </trkpt>
      <trkpt lat="25.402624988928437" lon="110.47648997046053">
        <time>2013-11-17T04:31:15Z</time>
      </trkpt>
      <trkpt lat="25.402626665309072" lon="110.4764933232218">
        <ele>446</ele>
        <time>2013-11-17T04:31:16Z</time>
      </trkpt>
      <trkpt lat="25.402608308941126" lon="110.47649499960244">
        <time>2013-11-17T04:31:21Z</time>
      </trkpt>
      <trkpt lat="25.402603363618255" lon="110.47649164684117">
        <ele>444.89999999999998</ele>
        <time>2013-11-17T04:31:22Z</time>
      </trkpt>
      <trkpt lat="25.402600010856986" lon="110.4764882940799">
        <time>2013-11-17T04:31:27Z</time>
      </trkpt>
      <trkpt lat="25.402600010856986" lon="110.4764867015183">
        <ele>442.69999999999999</ele>
        <time>2013-11-17T04:31:28Z</time>
      </trkpt>
      <trkpt lat="25.402591628953815" lon="110.4764882940799">
        <time>2013-11-17T04:31:33Z</time>
      </trkpt>
      <trkpt lat="25.402590036392212" lon="110.47648502513766">
        <ele>442.19999999999999</ele>
        <time>2013-11-17T04:31:34Z</time>
      </trkpt>
      <trkpt lat="25.402588360011578" lon="110.47648334875703">
        <time>2013-11-17T04:31:39Z</time>
      </trkpt>
      <trkpt lat="25.402586683630943" lon="110.47648334875703">
        <ele>440.60000000000002</ele>
        <time>2013-11-17T04:31:40Z</time>
      </trkpt>
      <trkpt lat="25.402585007250309" lon="110.47647496685386">
        <time>2013-11-17T04:31:45Z</time>
      </trkpt>
      <trkpt lat="25.402585007250309" lon="110.47647337429225">
        <ele>440.30000000000001</ele>
        <time>2013-11-17T04:31:46Z</time>
      </trkpt>
      <trkpt lat="25.402583330869675" lon="110.47646331600845">
        <time>2013-11-17T04:31:51Z</time>
      </trkpt>
      <trkpt lat="25.40258165448904" lon="110.47646163962781">
        <ele>441.19999999999999</ele>
        <time>2013-11-17T04:31:52Z</time>
      </trkpt>
      <trkpt lat="25.40258165448904" lon="110.47644831240177">
        <time>2013-11-17T04:31:57Z</time>
      </trkpt>
      <trkpt lat="25.40258165448904" lon="110.47644831240177">
        <ele>440.10000000000002</ele>
        <time>2013-11-17T04:31:58Z</time>
      </trkpt>
      <trkpt lat="25.402586683630943" lon="110.4764449596405">
        <time>2013-11-17T04:32:03Z</time>
      </trkpt>
      <trkpt lat="25.402585007250309" lon="110.47644998878241">
        <ele>441.39999999999998</ele>
        <time>2013-11-17T04:32:04Z</time>
      </trkpt>
      <trkpt lat="25.402594981715083" lon="110.47645996324718">
        <time>2013-11-17T04:32:09Z</time>
      </trkpt>
      <trkpt lat="25.402594981715083" lon="110.47646331600845">
        <ele>443.69999999999999</ele>
        <time>2013-11-17T04:32:10Z</time>
      </trkpt>
      <trkpt lat="25.402603363618255" lon="110.47648334875703">
        <time>2013-11-17T04:32:15Z</time>
      </trkpt>
      <trkpt lat="25.402606632560492" lon="110.47648167237639">
        <ele>445.5</ele>
        <time>2013-11-17T04:32:16Z</time>
      </trkpt>
      <trkpt lat="25.402626665309072" lon="110.47649499960244">
        <time>2013-11-17T04:32:21Z</time>
      </trkpt>
      <trkpt lat="25.40263001807034" lon="110.47650170512497">
        <ele>446.89999999999998</ele>
        <time>2013-11-17T04:32:22Z</time>
      </trkpt>
      <trkpt lat="25.402631694450974" lon="110.47651997767389">
        <time>2013-11-17T04:32:27Z</time>
      </trkpt>
      <trkpt lat="25.402631694450974" lon="110.47651997767389">
        <ele>449.19999999999999</ele>
        <time>2013-11-17T04:32:28Z</time>
      </trkpt>
      <trkpt lat="25.40263831615448" lon="110.4765416868031">
        <time>2013-11-17T04:32:33Z</time>
      </trkpt>
      <trkpt lat="25.402639992535114" lon="110.47654503956437">
        <ele>449.39999999999998</ele>
        <time>2013-11-17T04:32:34Z</time>
      </trkpt>
      <trkpt lat="25.402636639773846" lon="110.47656163573265">
        <ele>452</ele>
        <time>2013-11-17T04:32:39Z</time>
      </trkpt>
      <trkpt lat="25.402636639773846" lon="110.47657337039709">
        <time>2013-11-17T04:32:45Z</time>
      </trkpt>
      <trkpt lat="25.402636639773846" lon="110.47657831571996">
        <ele>455</ele>
        <time>2013-11-17T04:32:46Z</time>
      </trkpt>
      <trkpt lat="25.402633370831609" lon="110.47659667208791">
        <time>2013-11-17T04:32:51Z</time>
      </trkpt>
      <trkpt lat="25.402634963393211" lon="110.47659834846854">
        <ele>457.19999999999999</ele>
        <time>2013-11-17T04:32:52Z</time>
      </trkpt>
      <trkpt lat="25.402648374438286" lon="110.47661502845585">
        <time>2013-11-17T04:32:57Z</time>
      </trkpt>
      <trkpt lat="25.402648374438286" lon="110.47661829739809">
        <ele>457.30000000000001</ele>
        <time>2013-11-17T04:32:58Z</time>
      </trkpt>
      <trkpt lat="25.402618367224932" lon="110.47664998099208">
        <time>2013-11-17T04:33:03Z</time>
      </trkpt>
      <trkpt lat="25.40260998532176" lon="110.47665501013398">
        <ele>455.10000000000002</ele>
        <time>2013-11-17T04:33:04Z</time>
      </trkpt>
      <trkpt lat="25.402585007250309" lon="110.47667663544416">
        <time>2013-11-17T04:33:09Z</time>
      </trkpt>
      <trkpt lat="25.402583330869675" lon="110.47667998820543">
        <ele>454</ele>
        <time>2013-11-17T04:33:10Z</time>
      </trkpt>
      <trkpt lat="25.402578301727772" lon="110.47669163905084">
        <time>2013-11-17T04:33:15Z</time>
      </trkpt>
      <trkpt lat="25.402578301727772" lon="110.47669331543148">
        <ele>452.89999999999998</ele>
        <time>2013-11-17T04:33:16Z</time>
      </trkpt>
      <trkpt lat="25.402591628953815" lon="110.47670496627688">
        <time>2013-11-17T04:33:21Z</time>
      </trkpt>
      <trkpt lat="25.402594981715083" lon="110.47670831903815">
        <ele>454.60000000000002</ele>
        <time>2013-11-17T04:33:22Z</time>
      </trkpt>
      <trkpt lat="25.402606632560492" lon="110.47671670094132">
        <ele>458.5</ele>
        <time>2013-11-17T04:33:27Z</time>
      </trkpt>
      <trkpt lat="25.402624988928437" lon="110.47671670094132">
        <time>2013-11-17T04:33:33Z</time>
      </trkpt>
      <trkpt lat="25.402628341689706" lon="110.47671334818006">
        <ele>466</ele>
        <time>2013-11-17T04:33:34Z</time>
      </trkpt>
      <trkpt lat="25.40263831615448" lon="110.47671167179942">
        <time>2013-11-17T04:33:39Z</time>
      </trkpt>
      <trkpt lat="25.402641668915749" lon="110.47671670094132">
        <ele>467.69999999999999</ele>
        <time>2013-11-17T04:33:40Z</time>
      </trkpt>
      <trkpt lat="25.402643345296383" lon="110.47673832625151">
        <ele>466.69999999999999</ele>
        <time>2013-11-17T04:33:45Z</time>
      </trkpt>
      <trkpt lat="25.402648374438286" lon="110.47676833346486">
        <time>2013-11-17T04:33:51Z</time>
      </trkpt>
      <trkpt lat="25.402648374438286" lon="110.476776631549">
        <ele>467.89999999999998</ele>
        <time>2013-11-17T04:33:52Z</time>
      </trkpt>
      <trkpt lat="25.402648374438286" lon="110.47680496238172">
        <ele>467.5</ele>
        <time>2013-11-17T04:33:57Z</time>
      </trkpt>
      <trkpt lat="25.402673352509737" lon="110.47682331874967">
        <ele>468.69999999999999</ele>
        <time>2013-11-17T04:34:03Z</time>
      </trkpt>
      <trkpt lat="25.402683326974511" lon="110.47684502787888">
        <ele>470.69999999999999</ele>
        <time>2013-11-17T04:34:09Z</time>
      </trkpt>
      <trkpt lat="25.402678297832608" lon="110.47688165679574">
        <ele>467.60000000000002</ele>
        <time>2013-11-17T04:34:15Z</time>
      </trkpt>
      <trkpt lat="25.402675028890371" lon="110.476916693151">
        <ele>462.60000000000002</ele>
        <time>2013-11-17T04:34:21Z</time>
      </trkpt>
      <trkpt lat="25.402696654200554" lon="110.47693831846118">
        <ele>455.89999999999998</ele>
        <time>2013-11-17T04:34:27Z</time>
      </trkpt>
      <trkpt lat="25.402693301439285" lon="110.4769666492939">
        <ele>452.69999999999999</ele>
        <time>2013-11-17T04:34:33Z</time>
      </trkpt>
      <trkpt lat="25.402673352509737" lon="110.47701166011393">
        <ele>451.60000000000002</ele>
        <time>2013-11-17T04:34:39Z</time>
      </trkpt>
      <trkpt lat="25.402661701664329" lon="110.47703831456602">
        <ele>453</ele>
        <time>2013-11-17T04:34:45Z</time>
      </trkpt>
      <trkpt lat="25.402646698057652" lon="110.47706329263747">
        <ele>454.10000000000002</ele>
        <time>2013-11-17T04:34:51Z</time>
      </trkpt>
      <trkpt lat="25.402631694450974" lon="110.47708835452795">
        <ele>456.60000000000002</ele>
        <time>2013-11-17T04:34:57Z</time>
      </trkpt>
      <trkpt lat="25.402603363618255" lon="110.47710503451526">
        <ele>457.5</ele>
        <time>2013-11-17T04:35:03Z</time>
      </trkpt>
      <trkpt lat="25.402590036392212" lon="110.47713998705149">
        <ele>457.39999999999998</ele>
        <time>2013-11-17T04:35:09Z</time>
      </trkpt>
      <trkpt lat="25.402575032785535" lon="110.4771566670388">
        <ele>455.69999999999999</ele>
        <time>2013-11-17T04:35:15Z</time>
      </trkpt>
      <trkpt lat="25.402546701952815" lon="110.47717669978738">
        <ele>454.69999999999999</ele>
        <time>2013-11-17T04:35:21Z</time>
      </trkpt>
      <trkpt lat="25.402543349191546" lon="110.47718164511025">
        <ele>454.60000000000002</ele>
        <time>2013-11-17T04:35:27Z</time>
      </trkpt>
      <trkpt lat="25.402549970895052" lon="110.47718164511025">
        <ele>456.80000000000001</ele>
        <time>2013-11-17T04:35:33Z</time>
      </trkpt>
      <trkpt lat="25.402568327262998" lon="110.47715834341943">
        <ele>466.60000000000002</ele>
        <time>2013-11-17T04:35:39Z</time>
      </trkpt>
      <trkpt lat="25.402549970895052" lon="110.47719832509756">
        <ele>469.19999999999999</ele>
        <time>2013-11-17T04:35:45Z</time>
      </trkpt>
      <trkpt lat="25.402549970895052" lon="110.47719170339406">
        <ele>471.89999999999998</ele>
        <time>2013-11-17T04:35:51Z</time>
      </trkpt>
      <trkpt lat="25.402558352798223" lon="110.47720997594297">
        <ele>470.60000000000002</ele>
        <time>2013-11-17T04:35:57Z</time>
      </trkpt>
      <trkpt lat="25.402551647275686" lon="110.47724501229823">
        <ele>466.30000000000001</ele>
        <time>2013-11-17T04:36:03Z</time>
      </trkpt>
      <trkpt lat="25.402531698346138" lon="110.47728164121509">
        <ele>462.5</ele>
        <time>2013-11-17T04:36:09Z</time>
      </trkpt>
      <trkpt lat="25.402509989216924" lon="110.47728331759572">
        <ele>466.30000000000001</ele>
        <time>2013-11-17T04:36:15Z</time>
      </trkpt>
      <trkpt lat="25.402476629242301" lon="110.47727166675031">
        <ele>471.5</ele>
        <time>2013-11-17T04:36:21Z</time>
      </trkpt>
      <trkpt lat="25.402464978396893" lon="110.47726663760841">
        <ele>475.10000000000002</ele>
        <time>2013-11-17T04:36:27Z</time>
      </trkpt>
      <trkpt lat="25.402461625635624" lon="110.477254986763">
        <ele>480.10000000000002</ele>
        <time>2013-11-17T04:36:33Z</time>
      </trkpt>
      <trkpt lat="25.402466654777527" lon="110.47726831398904">
        <ele>483.5</ele>
        <time>2013-11-17T04:36:39Z</time>
      </trkpt>
      <trkpt lat="25.40247168391943" lon="110.47726999036968">
        <ele>488.69999999999999</ele>
        <time>2013-11-17T04:36:45Z</time>
      </trkpt>
      <trkpt lat="25.402463302016258" lon="110.47727669589221">
        <ele>489.89999999999998</ele>
        <time>2013-11-17T04:36:51Z</time>
      </trkpt>
      <trkpt lat="25.402460033074021" lon="110.47728164121509">
        <ele>495.30000000000001</ele>
        <time>2013-11-17T04:36:57Z</time>
      </trkpt>
      <trkpt lat="25.402458356693387" lon="110.47727334313095">
        <ele>493</ele>
        <time>2013-11-17T04:37:03Z</time>
      </trkpt>
      <trkpt lat="25.402470007538795" lon="110.47728499397635">
        <ele>494.10000000000002</ele>
        <time>2013-11-17T04:37:09Z</time>
      </trkpt>
      <trkpt lat="25.402475036680698" lon="110.47729329206049">
        <ele>493</ele>
        <time>2013-11-17T04:37:15Z</time>
      </trkpt>
      <trkpt lat="25.402481658384204" lon="110.47729329206049">
        <ele>491.39999999999998</ele>
        <time>2013-11-17T04:37:21Z</time>
      </trkpt>
      <trkpt lat="25.402478305622935" lon="110.47727837227285">
        <ele>489.5</ele>
        <time>2013-11-17T04:37:27Z</time>
      </trkpt>
      <trkpt lat="25.402478305622935" lon="110.47724165953696">
        <ele>492.10000000000002</ele>
        <time>2013-11-17T04:37:33Z</time>
      </trkpt>
      <trkpt lat="25.402464978396893" lon="110.47725004144013">
        <ele>491.10000000000002</ele>
        <time>2013-11-17T04:37:39Z</time>
      </trkpt>
      <trkpt lat="25.402461625635624" lon="110.47726169228554">
        <ele>489.5</ele>
        <time>2013-11-17T04:37:45Z</time>
      </trkpt>
      <trkpt lat="25.40245165117085" lon="110.47727334313095">
        <ele>485.80000000000001</ele>
        <time>2013-11-17T04:37:51Z</time>
      </trkpt>
      <trkpt lat="25.402453327551484" lon="110.47728667035699">
        <ele>483.30000000000001</ele>
        <time>2013-11-17T04:37:57Z</time>
      </trkpt>
      <trkpt lat="25.402445029467344" lon="110.47732003033161">
        <ele>479.69999999999999</ele>
        <time>2013-11-17T04:38:03Z</time>
      </trkpt>
      <trkpt lat="25.402431702241302" lon="110.47736336477101">
        <ele>476.10000000000002</ele>
        <time>2013-11-17T04:38:09Z</time>
      </trkpt>
      <trkpt lat="25.402400018647313" lon="110.47738331370056">
        <ele>474.19999999999999</ele>
        <time>2013-11-17T04:38:15Z</time>
      </trkpt>
      <trkpt lat="25.402398342266679" lon="110.47739496454597">
        <ele>471.5</ele>
        <time>2013-11-17T04:38:21Z</time>
      </trkpt>
      <trkpt lat="25.402381662279367" lon="110.47740829177201">
        <ele>469.19999999999999</ele>
        <time>2013-11-17T04:38:27Z</time>
      </trkpt>
      <trkpt lat="25.40236665867269" lon="110.47742329537868">
        <ele>466</ele>
        <time>2013-11-17T04:38:33Z</time>
      </trkpt>
      <trkpt lat="25.402355007827282" lon="110.47743167728186">
        <ele>463.80000000000001</ele>
        <time>2013-11-17T04:38:39Z</time>
      </trkpt>
      <trkpt lat="25.402336651459336" lon="110.47744668088853">
        <ele>460.30000000000001</ele>
        <time>2013-11-17T04:38:45Z</time>
      </trkpt>
      <trkpt lat="25.402315026149154" lon="110.47745833173394">
        <ele>457.30000000000001</ele>
        <time>2013-11-17T04:38:51Z</time>
      </trkpt>
      <trkpt lat="25.402303291484714" lon="110.47746503725648">
        <ele>456.5</ele>
        <time>2013-11-17T04:38:57Z</time>
      </trkpt>
      <trkpt lat="25.402303291484714" lon="110.47748163342476">
        <time>2013-11-17T04:39:03Z</time>
      </trkpt>
      <trkpt lat="25.402303291484714" lon="110.47748666256666">
        <ele>457.80000000000001</ele>
        <time>2013-11-17T04:39:04Z</time>
      </trkpt>
      <trkpt lat="25.402294993400574" lon="110.47750996425748">
        <ele>457.39999999999998</ele>
        <time>2013-11-17T04:39:09Z</time>
      </trkpt>
      <trkpt lat="25.402286695316434" lon="110.47752169892192">
        <ele>457.10000000000002</ele>
        <time>2013-11-17T04:39:15Z</time>
      </trkpt>
      <trkpt lat="25.402283342555165" lon="110.47752496786416">
        <ele>457.89999999999998</ele>
        <time>2013-11-17T04:39:21Z</time>
      </trkpt>
      <trkpt lat="25.402281666174531" lon="110.47752002254128">
        <ele>459.89999999999998</ele>
        <time>2013-11-17T04:39:27Z</time>
      </trkpt>
      <trkpt lat="25.402273368090391" lon="110.47750669531524">
        <ele>460.30000000000001</ele>
        <time>2013-11-17T04:39:33Z</time>
      </trkpt>
      <trkpt lat="25.40226498618722" lon="110.47750166617334">
        <ele>458.5</ele>
        <time>2013-11-17T04:39:39Z</time>
      </trkpt>
      <trkpt lat="25.402258364483714" lon="110.4774999897927">
        <ele>458</ele>
        <time>2013-11-17T04:39:45Z</time>
      </trkpt>
      <trkpt lat="25.402253335341811" lon="110.4774933680892">
        <ele>457.60000000000002</ele>
        <time>2013-11-17T04:39:51Z</time>
      </trkpt>
      <trkpt lat="25.4022366553545" lon="110.47748330980539">
        <ele>456</ele>
        <time>2013-11-17T04:39:57Z</time>
      </trkpt>
      <trkpt lat="25.402231626212597" lon="110.47747668810189">
        <ele>454.80000000000001</ele>
        <time>2013-11-17T04:40:03Z</time>
      </trkpt>
      <trkpt lat="25.4022366553545" lon="110.47747836448252">
        <ele>454.19999999999999</ele>
        <time>2013-11-17T04:40:09Z</time>
      </trkpt>
      <trkpt lat="25.402230033650994" lon="110.47748004086316">
        <ele>453.89999999999998</ele>
        <time>2013-11-17T04:40:15Z</time>
      </trkpt>
      <trkpt lat="25.402221651747823" lon="110.47747501172125">
        <ele>454</ele>
        <time>2013-11-17T04:40:21Z</time>
      </trkpt>
      <trkpt lat="25.402211677283049" lon="110.47746336087584">
        <ele>453.80000000000001</ele>
        <time>2013-11-17T04:40:27Z</time>
      </trkpt>
      <trkpt lat="25.402203295379877" lon="110.47746662981808">
        <ele>452.89999999999998</ele>
        <time>2013-11-17T04:40:33Z</time>
      </trkpt>
      <trkpt lat="25.4021882917732" lon="110.47746503725648">
        <ele>451.60000000000002</ele>
        <time>2013-11-17T04:40:39Z</time>
      </trkpt>
      <trkpt lat="25.402183346450329" lon="110.47746662981808">
        <ele>450.69999999999999</ele>
        <time>2013-11-17T04:40:45Z</time>
      </trkpt>
      <trkpt lat="25.402178317308426" lon="110.47746503725648">
        <ele>451.19999999999999</ele>
        <time>2013-11-17T04:40:51Z</time>
      </trkpt>
      <trkpt lat="25.40217169560492" lon="110.47746336087584">
        <ele>451.10000000000002</ele>
        <time>2013-11-17T04:40:57Z</time>
      </trkpt>
      <trkpt lat="25.40215996094048" lon="110.47746503725648">
        <ele>452.69999999999999</ele>
        <time>2013-11-17T04:41:03Z</time>
      </trkpt>
      <trkpt lat="25.402148310095072" lon="110.47746000811458">
        <ele>453</ele>
        <time>2013-11-17T04:41:09Z</time>
      </trkpt>
      <trkpt lat="25.402146633714437" lon="110.47745665535331">
        <ele>450.30000000000001</ele>
        <time>2013-11-17T04:41:15Z</time>
      </trkpt>
      <trkpt lat="25.402136659249663" lon="110.47745665535331">
        <ele>447</ele>
        <time>2013-11-17T04:41:21Z</time>
      </trkpt>
      <trkpt lat="25.40213163010776" lon="110.47746000811458">
        <ele>444.69999999999999</ele>
        <time>2013-11-17T04:41:27Z</time>
      </trkpt>
      <trkpt lat="25.402121655642986" lon="110.47745833173394">
        <ele>442.30000000000001</ele>
        <time>2013-11-17T04:41:33Z</time>
      </trkpt>
      <trkpt lat="25.402104975655675" lon="110.4774450045079">
        <ele>440.39999999999998</ele>
        <time>2013-11-17T04:41:39Z</time>
      </trkpt>
      <trkpt lat="25.402100030332804" lon="110.47744165174663">
        <ele>439.69999999999999</ele>
        <time>2013-11-17T04:41:45Z</time>
      </trkpt>
      <trkpt lat="25.402098353952169" lon="110.47743167728186">
        <ele>440.39999999999998</ele>
        <time>2013-11-17T04:41:51Z</time>
      </trkpt>
      <trkpt lat="25.402089972048998" lon="110.47742497175932">
        <ele>440</ele>
        <time>2013-11-17T04:41:57Z</time>
      </trkpt>
      <trkpt lat="25.402074968442321" lon="110.47742497175932">
        <ele>440.39999999999998</ele>
        <time>2013-11-17T04:42:03Z</time>
      </trkpt>
      <trkpt lat="25.402066670358181" lon="110.47742664813995">
        <ele>439.89999999999998</ele>
        <time>2013-11-17T04:42:09Z</time>
      </trkpt>
      <trkpt lat="25.402058372274041" lon="110.47742832452059">
        <ele>439.39999999999998</ele>
        <time>2013-11-17T04:42:15Z</time>
      </trkpt>
      <trkpt lat="25.402046637609601" lon="110.47742664813995">
        <ele>439.60000000000002</ele>
        <time>2013-11-17T04:42:21Z</time>
      </trkpt>
      <trkpt lat="25.402034986764193" lon="110.47741835005581">
        <ele>441.30000000000001</ele>
        <time>2013-11-17T04:42:27Z</time>
      </trkpt>
      <trkpt lat="25.402018306776881" lon="110.47742497175932">
        <ele>444.69999999999999</ele>
        <time>2013-11-17T04:42:33Z</time>
      </trkpt>
      <trkpt lat="25.402003303170204" lon="110.47742170281708">
        <ele>446</ele>
        <time>2013-11-17T04:42:39Z</time>
      </trkpt>
      <trkpt lat="25.402003303170204" lon="110.47741835005581">
        <ele>446</ele>
        <time>2013-11-17T04:42:45Z</time>
      </trkpt>
      <trkpt lat="25.402028365060687" lon="110.47741164453328">
        <ele>451</ele>
        <time>2013-11-17T04:42:51Z</time>
      </trkpt>
      <trkpt lat="25.40204169228673" lon="110.47741667367518">
        <ele>452.69999999999999</ele>
        <time>2013-11-17T04:42:57Z</time>
      </trkpt>
      <trkpt lat="25.402043368667364" lon="110.47742497175932">
        <ele>454</ele>
        <time>2013-11-17T04:43:03Z</time>
      </trkpt>
      <trkpt lat="25.402046637609601" lon="110.47745497897267">
        <ele>453.30000000000001</ele>
        <time>2013-11-17T04:43:09Z</time>
      </trkpt>
      <trkpt lat="25.402038339525461" lon="110.47747836448252">
        <ele>451</ele>
        <time>2013-11-17T04:43:15Z</time>
      </trkpt>
      <trkpt lat="25.402034986764193" lon="110.47748330980539">
        <ele>448.89999999999998</ele>
        <time>2013-11-17T04:43:21Z</time>
      </trkpt>
      <trkpt lat="25.402036663144827" lon="110.4774949606508">
        <ele>446.60000000000002</ele>
        <time>2013-11-17T04:43:27Z</time>
      </trkpt>
      <trkpt lat="25.40204999037087" lon="110.47751499339938">
        <ele>440.89999999999998</ele>
        <time>2013-11-17T04:43:33Z</time>
      </trkpt>
      <trkpt lat="25.402071699500084" lon="110.47752496786416">
        <ele>436.69999999999999</ele>
        <time>2013-11-17T04:43:39Z</time>
      </trkpt>
      <trkpt lat="25.402068346738815" lon="110.47753334976733">
        <ele>429</ele>
        <time>2013-11-17T04:43:45Z</time>
      </trkpt>
      <trkpt lat="25.402081673964858" lon="110.47753502614796">
        <ele>426.39999999999998</ele>
        <time>2013-11-17T04:43:51Z</time>
      </trkpt>
      <trkpt lat="25.402081673964858" lon="110.47754667699337">
        <ele>421.69999999999999</ele>
        <time>2013-11-17T04:43:57Z</time>
      </trkpt>
      <trkpt lat="25.402074968442321" lon="110.47755002975464">
        <ele>421.60000000000002</ele>
        <time>2013-11-17T04:44:03Z</time>
      </trkpt>
      <trkpt lat="25.402064993977547" lon="110.47754667699337">
        <ele>419.69999999999999</ele>
        <time>2013-11-17T04:44:09Z</time>
      </trkpt>
      <trkpt lat="25.402059964835644" lon="110.4775433242321">
        <ele>417.30000000000001</ele>
        <time>2013-11-17T04:44:15Z</time>
      </trkpt>
      <trkpt lat="25.402053343132138" lon="110.47754667699337">
        <ele>420.30000000000001</ele>
        <time>2013-11-17T04:44:21Z</time>
      </trkpt>
      <trkpt lat="25.402064993977547" lon="110.47755832783878">
        <ele>421.60000000000002</ele>
        <time>2013-11-17T04:44:27Z</time>
      </trkpt>
      <trkpt lat="25.402074968442321" lon="110.47759001143277">
        <ele>423.69999999999999</ele>
        <time>2013-11-17T04:44:33Z</time>
      </trkpt>
      <trkpt lat="25.402079997584224" lon="110.47759830951691">
        <ele>423.5</ele>
        <time>2013-11-17T04:44:39Z</time>
      </trkpt>
      <trkpt lat="25.402093324810266" lon="110.47760501503944">
        <ele>424</ele>
        <time>2013-11-17T04:44:45Z</time>
      </trkpt>
      <trkpt lat="25.402071699500084" lon="110.47762496396899">
        <ele>428.30000000000001</ele>
        <time>2013-11-17T04:44:51Z</time>
      </trkpt>
      <trkpt lat="25.402076644822955" lon="110.47763996757567">
        <ele>431.39999999999998</ele>
        <time>2013-11-17T04:44:57Z</time>
      </trkpt>
      <trkpt lat="25.402088295668364" lon="110.47765497118235">
        <ele>434.10000000000002</ele>
        <time>2013-11-17T04:45:03Z</time>
      </trkpt>
      <trkpt lat="25.402081673964858" lon="110.47764834947884">
        <ele>436.10000000000002</ele>
        <time>2013-11-17T04:45:09Z</time>
      </trkpt>
      <trkpt lat="25.402076644822955" lon="110.47765002585948">
        <ele>438.30000000000001</ele>
        <time>2013-11-17T04:45:15Z</time>
      </trkpt>
      <trkpt lat="25.402066670358181" lon="110.47766000032425">
        <ele>441.19999999999999</ele>
        <time>2013-11-17T04:45:21Z</time>
      </trkpt>
      <trkpt lat="25.402046637609601" lon="110.47766502946615">
        <ele>441</ele>
        <time>2013-11-17T04:45:27Z</time>
      </trkpt>
      <trkpt lat="25.402046637609601" lon="110.47766335308552">
        <ele>443.5</ele>
        <time>2013-11-17T04:45:33Z</time>
      </trkpt>
      <trkpt lat="25.402015037834644" lon="110.47765002585948">
        <ele>444.5</ele>
        <time>2013-11-17T04:45:39Z</time>
      </trkpt>
      <trkpt lat="25.401983354240656" lon="110.47764667309821">
        <ele>446.19999999999999</ele>
        <time>2013-11-17T04:45:45Z</time>
      </trkpt>
      <trkpt lat="25.401971703395247" lon="110.47764667309821">
        <ele>445.10000000000002</ele>
        <time>2013-11-17T04:45:51Z</time>
      </trkpt>
      <trkpt lat="25.401959968730807" lon="110.47765170224011">
        <ele>444.89999999999998</ele>
        <time>2013-11-17T04:45:57Z</time>
      </trkpt>
      <trkpt lat="25.401953347027302" lon="110.47765664756298">
        <ele>445</ele>
        <time>2013-11-17T04:46:03Z</time>
      </trkpt>
      <trkpt lat="25.40194496512413" lon="110.47765832394361">
        <ele>444.69999999999999</ele>
        <time>2013-11-17T04:46:09Z</time>
      </trkpt>
      <trkpt lat="25.401943372562528" lon="110.47766829840839">
        <ele>446.89999999999998</ele>
        <time>2013-11-17T04:46:15Z</time>
      </trkpt>
      <trkpt lat="25.401961645111442" lon="110.47767668031156">
        <ele>450.80000000000001</ele>
        <time>2013-11-17T04:46:21Z</time>
      </trkpt>
      <trkpt lat="25.401974972337484" lon="110.47769168391824">
        <ele>452.10000000000002</ele>
        <time>2013-11-17T04:46:27Z</time>
      </trkpt>
      <trkpt lat="25.401991652324796" lon="110.47771498560905">
        <ele>454.10000000000002</ele>
        <time>2013-11-17T04:46:33Z</time>
      </trkpt>
      <trkpt lat="25.402004979550838" lon="110.47776997089386">
        <ele>454.10000000000002</ele>
        <time>2013-11-17T04:46:39Z</time>
      </trkpt>
      <trkpt lat="25.402016630396247" lon="110.47782001085579">
        <ele>453</ele>
        <time>2013-11-17T04:46:45Z</time>
      </trkpt>
      <trkpt lat="25.40201336145401" lon="110.47786334529519">
        <ele>454.30000000000001</ele>
        <time>2013-11-17T04:46:51Z</time>
      </trkpt>
      <trkpt lat="25.402003303170204" lon="110.47790500335395">
        <ele>452.10000000000002</ele>
        <time>2013-11-17T04:46:57Z</time>
      </trkpt>
      <trkpt lat="25.401995005086064" lon="110.4779233597219">
        <ele>450.30000000000001</ele>
        <time>2013-11-17T04:47:03Z</time>
      </trkpt>
      <trkpt lat="25.401976648718119" lon="110.47796166501939">
        <ele>449.39999999999998</ele>
        <time>2013-11-17T04:47:09Z</time>
      </trkpt>
      <trkpt lat="25.401949994266033" lon="110.47800667583942">
        <ele>448</ele>
        <time>2013-11-17T04:47:15Z</time>
      </trkpt>
      <trkpt lat="25.401943372562528" lon="110.47804665751755">
        <ele>452.69999999999999</ele>
        <time>2013-11-17T04:47:21Z</time>
      </trkpt>
      <trkpt lat="25.401941696181893" lon="110.47808496281505">
        <ele>454.89999999999998</ele>
        <time>2013-11-17T04:47:27Z</time>
      </trkpt>
      <trkpt lat="25.401966674253345" lon="110.47811832278967">
        <ele>460.39999999999998</ele>
        <time>2013-11-17T04:47:33Z</time>
      </trkpt>
      <trkpt lat="25.401998357847333" lon="110.47814170829952">
        <ele>468.89999999999998</ele>
        <time>2013-11-17T04:47:39Z</time>
      </trkpt>
      <trkpt lat="25.40204999037087" lon="110.47816165722907">
        <ele>471.60000000000002</ele>
        <time>2013-11-17T04:47:45Z</time>
      </trkpt>
      <trkpt lat="25.402101706713438" lon="110.47818663530052">
        <ele>475.60000000000002</ele>
        <time>2013-11-17T04:47:51Z</time>
      </trkpt>
      <trkpt lat="25.402140012010932" lon="110.47823332250118">
        <ele>475.39999999999998</ele>
        <time>2013-11-17T04:47:57Z</time>
      </trkpt>
      <trkpt lat="25.402164990082383" lon="110.47829668968916">
        <ele>479.39999999999998</ele>
        <time>2013-11-17T04:48:03Z</time>
      </trkpt>
      <trkpt lat="25.402156691998243" lon="110.47835167497396">
        <ele>477.80000000000001</ele>
        <time>2013-11-17T04:48:09Z</time>
      </trkpt>
      <trkpt lat="25.402161637321115" lon="110.47840498387814">
        <ele>475.19999999999999</ele>
        <time>2013-11-17T04:48:15Z</time>
      </trkpt>
      <trkpt lat="25.402168342843652" lon="110.47842836938798">
        <ele>471.69999999999999</ele>
        <time>2013-11-17T04:48:21Z</time>
      </trkpt>
      <trkpt lat="25.402164990082383" lon="110.47845829278231">
        <ele>470.30000000000001</ele>
        <time>2013-11-17T04:48:27Z</time>
      </trkpt>
      <trkpt lat="25.402163313701749" lon="110.47847329638898">
        <ele>470.19999999999999</ele>
        <time>2013-11-17T04:48:33Z</time>
      </trkpt>
      <trkpt lat="25.40215996094048" lon="110.47847329638898">
        <ele>470.69999999999999</ele>
        <time>2013-11-17T04:48:39Z</time>
      </trkpt>
      <trkpt lat="25.402168342843652" lon="110.47847664915025">
        <ele>468.89999999999998</ele>
        <time>2013-11-17T04:48:45Z</time>
      </trkpt>
      <trkpt lat="25.40215996094048" lon="110.47847832553089">
        <ele>467.5</ele>
        <time>2013-11-17T04:48:51Z</time>
      </trkpt>
      <trkpt lat="25.402149986475706" lon="110.47848167829216">
        <ele>463.39999999999998</ele>
        <time>2013-11-17T04:48:57Z</time>
      </trkpt>
      <trkpt lat="25.402138335630298" lon="110.47847832553089">
        <ele>461.80000000000001</ele>
        <time>2013-11-17T04:49:03Z</time>
      </trkpt>
      <trkpt lat="25.402123332023621" lon="110.47847002744675">
        <ele>461.19999999999999</ele>
        <time>2013-11-17T04:49:09Z</time>
      </trkpt>
      <trkpt lat="25.402110004797578" lon="110.47845996916294">
        <ele>463.19999999999999</ele>
        <time>2013-11-17T04:49:15Z</time>
      </trkpt>
      <trkpt lat="25.402104975655675" lon="110.47844831831753">
        <ele>464.10000000000002</ele>
        <time>2013-11-17T04:49:21Z</time>
      </trkpt>
      <trkpt lat="25.402125008404255" lon="110.47845829278231">
        <ele>462.19999999999999</ele>
        <time>2013-11-17T04:49:27Z</time>
      </trkpt>
      <trkpt lat="25.402141688391566" lon="110.47846164554358">
        <ele>459.39999999999998</ele>
        <time>2013-11-17T04:49:33Z</time>
      </trkpt>
      <trkpt lat="25.402155015617609" lon="110.47846332192421">
        <ele>457.89999999999998</ele>
        <time>2013-11-17T04:49:39Z</time>
      </trkpt>
      <trkpt lat="25.402158368378878" lon="110.47846164554358">
        <ele>456.5</ele>
        <time>2013-11-17T04:49:45Z</time>
      </trkpt>
      <trkpt lat="25.402156691998243" lon="110.47845829278231">
        <ele>455.30000000000001</ele>
        <time>2013-11-17T04:49:51Z</time>
      </trkpt>
      <trkpt lat="25.402155015617609" lon="110.47845502384007">
        <ele>454.30000000000001</ele>
        <time>2013-11-17T04:49:57Z</time>
      </trkpt>
      <trkpt lat="25.40215166285634" lon="110.47844831831753">
        <ele>452.69999999999999</ele>
        <time>2013-11-17T04:50:03Z</time>
      </trkpt>
      <trkpt lat="25.402149986475706" lon="110.47844496555626">
        <ele>453</ele>
        <time>2013-11-17T04:50:09Z</time>
      </trkpt>
      <trkpt lat="25.402143364772201" lon="110.47843834385276">
        <ele>455.60000000000002</ele>
        <time>2013-11-17T04:50:15Z</time>
      </trkpt>
      <trkpt lat="25.402140012010932" lon="110.47843834385276">
        <ele>454</ele>
        <time>2013-11-17T04:50:21Z</time>
      </trkpt>
      <trkpt lat="25.402140012010932" lon="110.47844002023339">
        <ele>452</ele>
        <time>2013-11-17T04:50:27Z</time>
      </trkpt>
      <trkpt lat="25.402143364772201" lon="110.47844002023339">
        <ele>452</ele>
        <time>2013-11-17T04:50:33Z</time>
      </trkpt>
      <trkpt lat="25.40215166285634" lon="110.47844169661403">
        <ele>451.10000000000002</ele>
        <time>2013-11-17T04:50:39Z</time>
      </trkpt>
      <trkpt lat="25.402155015617609" lon="110.47843834385276">
        <ele>452.69999999999999</ele>
        <time>2013-11-17T04:50:45Z</time>
      </trkpt>
      <trkpt lat="25.402155015617609" lon="110.47843499109149">
        <ele>453.80000000000001</ele>
        <time>2013-11-17T04:50:51Z</time>
      </trkpt>
      <trkpt lat="25.402161637321115" lon="110.47844002023339">
        <ele>451.5</ele>
        <time>2013-11-17T04:50:57Z</time>
      </trkpt>
      <trkpt lat="25.402166666463017" lon="110.47844496555626">
        <ele>449.5</ele>
        <time>2013-11-17T04:51:03Z</time>
      </trkpt>
      <trkpt lat="25.402173371985555" lon="110.47844999469817">
        <ele>447</ele>
        <time>2013-11-17T04:51:09Z</time>
      </trkpt>
      <trkpt lat="25.402178317308426" lon="110.47845502384007">
        <ele>445.69999999999999</ele>
        <time>2013-11-17T04:51:15Z</time>
      </trkpt>
      <trkpt lat="25.402178317308426" lon="110.47845502384007">
        <ele>446.30000000000001</ele>
        <time>2013-11-17T04:51:21Z</time>
      </trkpt>
      <trkpt lat="25.402178317308426" lon="110.4784567002207">
        <ele>446.69999999999999</ele>
        <time>2013-11-17T04:51:27Z</time>
      </trkpt>
      <trkpt lat="25.402183346450329" lon="110.47846499830484">
        <ele>445</ele>
        <time>2013-11-17T04:51:33Z</time>
      </trkpt>
      <trkpt lat="25.402181670069695" lon="110.47846164554358">
        <ele>445.60000000000002</ele>
        <time>2013-11-17T04:51:39Z</time>
      </trkpt>
      <trkpt lat="25.402185022830963" lon="110.47845996916294">
        <ele>446.5</ele>
        <time>2013-11-17T04:51:45Z</time>
      </trkpt>
      <trkpt lat="25.402186699211597" lon="110.47845829278231">
        <ele>447.5</ele>
        <time>2013-11-17T04:51:51Z</time>
      </trkpt>
      <trkpt lat="25.40217999368906" lon="110.47844999469817">
        <ele>449.30000000000001</ele>
        <time>2013-11-17T04:51:57Z</time>
      </trkpt>
      <trkpt lat="25.402168342843652" lon="110.47844169661403">
        <ele>451.19999999999999</ele>
        <time>2013-11-17T04:52:03Z</time>
      </trkpt>
      <trkpt lat="25.40215996094048" lon="110.47843834385276">
        <ele>451.5</ele>
        <time>2013-11-17T04:52:09Z</time>
      </trkpt>
      <trkpt lat="25.402155015617609" lon="110.47844169661403">
        <ele>454.80000000000001</ele>
        <time>2013-11-17T04:52:15Z</time>
      </trkpt>
      <trkpt lat="25.40217169560492" lon="110.4784567002207">
        <ele>461.69999999999999</ele>
        <time>2013-11-17T04:52:21Z</time>
      </trkpt>
      <trkpt lat="25.402176640927792" lon="110.47846164554358">
        <ele>463.69999999999999</ele>
        <time>2013-11-17T04:52:27Z</time>
      </trkpt>
      <trkpt lat="25.40217169560492" lon="110.47846332192421">
        <ele>464.80000000000001</ele>
        <time>2013-11-17T04:52:33Z</time>
      </trkpt>
      <trkpt lat="25.402173371985555" lon="110.47846499830484">
        <ele>463.19999999999999</ele>
        <time>2013-11-17T04:52:39Z</time>
      </trkpt>
      <trkpt lat="25.402174964547157" lon="110.47846499830484">
        <ele>460.89999999999998</ele>
        <time>2013-11-17T04:52:45Z</time>
      </trkpt>
      <trkpt lat="25.402178317308426" lon="110.47846835106611">
        <ele>462.10000000000002</ele>
        <time>2013-11-17T04:52:51Z</time>
      </trkpt>
      <trkpt lat="25.402176640927792" lon="110.47847002744675">
        <ele>460.80000000000001</ele>
        <time>2013-11-17T04:52:57Z</time>
      </trkpt>
      <trkpt lat="25.402173371985555" lon="110.47847329638898">
        <ele>459.10000000000002</ele>
        <time>2013-11-17T04:53:03Z</time>
      </trkpt>
      <trkpt lat="25.402170019224286" lon="110.47847329638898">
        <ele>459.39999999999998</ele>
        <time>2013-11-17T04:53:09Z</time>
      </trkpt>
      <trkpt lat="25.402168342843652" lon="110.47847664915025">
        <ele>457.39999999999998</ele>
        <time>2013-11-17T04:53:15Z</time>
      </trkpt>
      <trkpt lat="25.402163313701749" lon="110.47847329638898">
        <ele>457.69999999999999</ele>
        <time>2013-11-17T04:53:21Z</time>
      </trkpt>
      <trkpt lat="25.40215166285634" lon="110.47846667468548">
        <ele>460.19999999999999</ele>
        <time>2013-11-17T04:53:27Z</time>
      </trkpt>
      <trkpt lat="25.402141688391566" lon="110.47845996916294">
        <ele>460.89999999999998</ele>
        <time>2013-11-17T04:53:33Z</time>
      </trkpt>
      <trkpt lat="25.402119979262352" lon="110.4784466419369">
        <ele>467.80000000000001</ele>
        <time>2013-11-17T04:53:39Z</time>
      </trkpt>
      <trkpt lat="25.402113357558846" lon="110.47844337299466">
        <ele>468</ele>
        <time>2013-11-17T04:53:45Z</time>
      </trkpt>
      <trkpt lat="25.402118302881718" lon="110.47844999469817">
        <ele>466.5</ele>
        <time>2013-11-17T04:53:51Z</time>
      </trkpt>
      <trkpt lat="25.402118302881718" lon="110.47845502384007">
        <ele>464.19999999999999</ele>
        <time>2013-11-17T04:53:57Z</time>
      </trkpt>
      <trkpt lat="25.402121655642986" lon="110.47845996916294">
        <ele>460.5</ele>
        <time>2013-11-17T04:54:03Z</time>
      </trkpt>
      <trkpt lat="25.402126684784889" lon="110.47845996916294">
        <ele>463.60000000000002</ele>
        <time>2013-11-17T04:54:09Z</time>
      </trkpt>
      <trkpt lat="25.402116626501083" lon="110.47846499830484">
        <ele>461.30000000000001</ele>
        <time>2013-11-17T04:54:15Z</time>
      </trkpt>
      <trkpt lat="25.402098353952169" lon="110.47846332192421">
        <ele>456.30000000000001</ele>
        <time>2013-11-17T04:54:21Z</time>
      </trkpt>
      <trkpt lat="25.402093324810266" lon="110.47846164554358">
        <ele>454.39999999999998</ele>
        <time>2013-11-17T04:54:27Z</time>
      </trkpt>
      <trkpt lat="25.402089972048998" lon="110.47846164554358">
        <ele>449.60000000000002</ele>
        <time>2013-11-17T04:54:33Z</time>
      </trkpt>
      <trkpt lat="25.402096677571535" lon="110.47846499830484">
        <ele>448.30000000000001</ele>
        <time>2013-11-17T04:54:39Z</time>
      </trkpt>
      <trkpt lat="25.402100030332804" lon="110.47846499830484">
        <ele>447.80000000000001</ele>
        <time>2013-11-17T04:54:45Z</time>
      </trkpt>
      <trkpt lat="25.402101706713438" lon="110.47846835106611">
        <ele>448.39999999999998</ele>
        <time>2013-11-17T04:54:51Z</time>
      </trkpt>
      <trkpt lat="25.402104975655675" lon="110.47846835106611">
        <ele>448.19999999999999</ele>
        <time>2013-11-17T04:54:57Z</time>
      </trkpt>
      <trkpt lat="25.402111681178212" lon="110.47847002744675">
        <ele>446.5</ele>
        <time>2013-11-17T04:55:03Z</time>
      </trkpt>
      <trkpt lat="25.402104975655675" lon="110.47846499830484">
        <ele>444.5</ele>
        <time>2013-11-17T04:55:09Z</time>
      </trkpt>
      <trkpt lat="25.402104975655675" lon="110.47846332192421">
        <ele>443.5</ele>
        <time>2013-11-17T04:55:15Z</time>
      </trkpt>
      <trkpt lat="25.402095001190901" lon="110.47845996916294">
        <ele>443.69999999999999</ele>
        <time>2013-11-17T04:55:21Z</time>
      </trkpt>
      <trkpt lat="25.402096677571535" lon="110.47846164554358">
        <ele>442.5</ele>
        <time>2013-11-17T04:55:27Z</time>
      </trkpt>
      <trkpt lat="25.402104975655675" lon="110.47846499830484">
        <ele>439.30000000000001</ele>
        <time>2013-11-17T04:55:33Z</time>
      </trkpt>
      <trkpt lat="25.402106652036309" lon="110.47846667468548">
        <ele>438.30000000000001</ele>
        <time>2013-11-17T04:55:39Z</time>
      </trkpt>
      <trkpt lat="25.402110004797578" lon="110.47846835106611">
        <ele>437.39999999999998</ele>
        <time>2013-11-17T04:55:45Z</time>
      </trkpt>
      <trkpt lat="25.402108328416944" lon="110.47846835106611">
        <ele>438.69999999999999</ele>
        <time>2013-11-17T04:55:51Z</time>
      </trkpt>
      <trkpt lat="25.402106652036309" lon="110.47846667468548">
        <ele>433.60000000000002</ele>
        <time>2013-11-17T04:55:57Z</time>
      </trkpt>
      <trkpt lat="25.402106652036309" lon="110.47846499830484">
        <ele>428.60000000000002</ele>
        <time>2013-11-17T04:56:03Z</time>
      </trkpt>
      <trkpt lat="25.402104975655675" lon="110.47846332192421">
        <ele>425.5</ele>
        <time>2013-11-17T04:56:09Z</time>
      </trkpt>
      <trkpt lat="25.402095001190901" lon="110.47846164554358">
        <ele>422.30000000000001</ele>
        <time>2013-11-17T04:56:15Z</time>
      </trkpt>
      <trkpt lat="25.402073292061687" lon="110.47846164554358">
        <ele>415.19999999999999</ele>
        <time>2013-11-17T04:56:21Z</time>
      </trkpt>
      <trkpt lat="25.402071699500084" lon="110.47846499830484">
        <ele>413.5</ele>
        <time>2013-11-17T04:56:27Z</time>
      </trkpt>
      <trkpt lat="25.402078321203589" lon="110.47847002744675">
        <ele>422.39999999999998</ele>
        <time>2013-11-17T04:56:33Z</time>
      </trkpt>
      <trkpt lat="25.402088295668364" lon="110.47847832553089">
        <ele>428.80000000000001</ele>
        <time>2013-11-17T04:56:39Z</time>
      </trkpt>
      <trkpt lat="25.402110004797578" lon="110.47847664915025">
        <ele>433.80000000000001</ele>
        <time>2013-11-17T04:56:45Z</time>
      </trkpt>
      <trkpt lat="25.402134982869029" lon="110.47849165275693">
        <ele>437.80000000000001</ele>
        <time>2013-11-17T04:56:51Z</time>
      </trkpt>
      <trkpt lat="25.40213163010776" lon="110.47853004187346">
        <ele>440.89999999999998</ele>
        <time>2013-11-17T04:56:57Z</time>
      </trkpt>
      <trkpt lat="25.402141688391566" lon="110.47857002355158">
        <ele>445.30000000000001</ele>
        <time>2013-11-17T04:57:03Z</time>
      </trkpt>
      <trkpt lat="25.402145041152835" lon="110.47861335799098">
        <ele>448.30000000000001</ele>
        <time>2013-11-17T04:57:09Z</time>
      </trkpt>
      <trkpt lat="25.402153339236975" lon="110.47864663414657">
        <ele>447.80000000000001</ele>
        <time>2013-11-17T04:57:15Z</time>
      </trkpt>
      <trkpt lat="25.402170019224286" lon="110.47868669964373">
        <ele>447.80000000000001</ele>
        <time>2013-11-17T04:57:21Z</time>
      </trkpt>
      <trkpt lat="25.402178317308426" lon="110.47874168492854">
        <ele>450.30000000000001</ele>
        <time>2013-11-17T04:57:27Z</time>
      </trkpt>
      <trkpt lat="25.402183346450329" lon="110.47878669574857">
        <ele>451.5</ele>
        <time>2013-11-17T04:57:33Z</time>
      </trkpt>
      <trkpt lat="25.402185022830963" lon="110.47881670296192">
        <ele>450.19999999999999</ele>
        <time>2013-11-17T04:57:39Z</time>
      </trkpt>
      <trkpt lat="25.402196673676372" lon="110.47884662635624">
        <ele>450.30000000000001</ele>
        <time>2013-11-17T04:57:45Z</time>
      </trkpt>
      <trkpt lat="25.402201702818274" lon="110.47887336462736">
        <ele>452</ele>
        <time>2013-11-17T04:57:51Z</time>
      </trkpt>
      <trkpt lat="25.402213353663683" lon="110.47889498993754">
        <ele>455.19999999999999</ele>
        <time>2013-11-17T04:57:57Z</time>
      </trkpt>
      <trkpt lat="25.402225004509091" lon="110.47891669906676">
        <ele>455.19999999999999</ele>
        <time>2013-11-17T04:58:03Z</time>
      </trkpt>
      <trkpt lat="25.402233302593231" lon="110.47894335351884">
        <ele>454</ele>
        <time>2013-11-17T04:58:09Z</time>
      </trkpt>
      <trkpt lat="25.402268338948488" lon="110.47895500436425">
        <ele>455.60000000000002</ele>
        <time>2013-11-17T04:58:15Z</time>
      </trkpt>
      <trkpt lat="25.402294993400574" lon="110.47898668795824">
        <ele>452.39999999999998</ele>
        <time>2013-11-17T04:58:21Z</time>
      </trkpt>
      <trkpt lat="25.402300022542477" lon="110.47900998964906">
        <ele>448.39999999999998</ele>
        <time>2013-11-17T04:58:27Z</time>
      </trkpt>
      <trkpt lat="25.402279989793897" lon="110.47900831326842">
        <ele>449.30000000000001</ele>
        <time>2013-11-17T04:58:33Z</time>
      </trkpt>
      <trkpt lat="25.402273368090391" lon="110.47900831326842">
        <ele>450.69999999999999</ele>
        <time>2013-11-17T04:58:39Z</time>
      </trkpt>
      <trkpt lat="25.402283342555165" lon="110.47901669517159">
        <ele>454.30000000000001</ele>
        <time>2013-11-17T04:58:45Z</time>
      </trkpt>
      <trkpt lat="25.402291640639305" lon="110.47906002961099">
        <ele>455.19999999999999</ele>
        <time>2013-11-17T04:58:51Z</time>
      </trkpt>
      <trkpt lat="25.402298346161842" lon="110.47911333851516">
        <ele>454.69999999999999</ele>
        <time>2013-11-17T04:58:57Z</time>
      </trkpt>
      <trkpt lat="25.402308320626616" lon="110.47917829826474">
        <ele>453.10000000000002</ele>
        <time>2013-11-17T04:59:03Z</time>
      </trkpt>
      <trkpt lat="25.402356684207916" lon="110.47924996353686">
        <ele>455.10000000000002</ele>
        <time>2013-11-17T04:59:09Z</time>
      </trkpt>
      <trkpt lat="25.402385015040636" lon="110.4793050326407">
        <ele>457</ele>
        <time>2013-11-17T04:59:15Z</time>
      </trkpt>
      <trkpt lat="25.402389960363507" lon="110.47935834154487">
        <ele>457</ele>
        <time>2013-11-17T04:59:21Z</time>
      </trkpt>
      <trkpt lat="25.402416698634624" lon="110.47939832322299">
        <ele>458.80000000000001</ele>
        <time>2013-11-17T04:59:27Z</time>
      </trkpt>
      <trkpt lat="25.402460033074021" lon="110.47944836318493">
        <ele>467</ele>
        <time>2013-11-17T04:59:33Z</time>
      </trkpt>
      <trkpt lat="25.402461625635624" lon="110.47950829379261">
        <ele>469.69999999999999</ele>
        <time>2013-11-17T04:59:39Z</time>
      </trkpt>
      <trkpt lat="25.402464978396893" lon="110.47957669012249">
        <ele>472.30000000000001</ele>
        <time>2013-11-17T04:59:45Z</time>
      </trkpt>
      <trkpt lat="25.402458356693387" lon="110.4796382971108">
        <ele>474.39999999999998</ele>
        <time>2013-11-17T04:59:51Z</time>
      </trkpt>
      <trkpt lat="25.402445029467344" lon="110.47970334067941">
        <ele>474.69999999999999</ele>
        <time>2013-11-17T04:59:57Z</time>
      </trkpt>
      <trkpt lat="25.40244335308671" lon="110.47975497320294">
        <ele>474.10000000000002</ele>
        <time>2013-11-17T05:00:03Z</time>
      </trkpt>
      <trkpt lat="25.40241502225399" lon="110.47982999123633">
        <ele>466.60000000000002</ele>
        <time>2013-11-17T05:00:09Z</time>
      </trkpt>
      <trkpt lat="25.402409993112087" lon="110.47989830374718">
        <ele>465.60000000000002</ele>
        <time>2013-11-17T05:00:15Z</time>
      </trkpt>
      <trkpt lat="25.402400018647313" lon="110.47995337285101">
        <ele>463.10000000000002</ele>
        <time>2013-11-17T05:00:21Z</time>
      </trkpt>
      <trkpt lat="25.402389960363507" lon="110.48001162707806">
        <ele>461.10000000000002</ele>
        <time>2013-11-17T05:00:27Z</time>
      </trkpt>
      <trkpt lat="25.402385015040636" lon="110.48007164150476">
        <ele>462</ele>
        <time>2013-11-17T05:00:33Z</time>
      </trkpt>
      <trkpt lat="25.402391636744142" lon="110.4801283031702">
        <ele>461.80000000000001</ele>
        <time>2013-11-17T05:00:39Z</time>
      </trkpt>
      <trkpt lat="25.40239498950541" lon="110.48018169589341">
        <ele>461.19999999999999</ele>
        <time>2013-11-17T05:00:45Z</time>
      </trkpt>
      <trkpt lat="25.402391636744142" lon="110.48024330288172">
        <ele>460.89999999999998</ele>
        <time>2013-11-17T05:00:51Z</time>
      </trkpt>
      <trkpt lat="25.402388367801905" lon="110.4803183209151">
        <ele>459.69999999999999</ele>
        <time>2013-11-17T05:00:57Z</time>
      </trkpt>
      <trkpt lat="25.402383338660002" lon="110.4803666844964">
        <ele>461.80000000000001</ele>
        <time>2013-11-17T05:01:03Z</time>
      </trkpt>
      <trkpt lat="25.402389960363507" lon="110.48043499700725">
        <ele>463</ele>
        <time>2013-11-17T05:01:09Z</time>
      </trkpt>
      <trkpt lat="25.402388367801905" lon="110.48050004057586">
        <ele>465.39999999999998</ele>
        <time>2013-11-17T05:01:15Z</time>
      </trkpt>
      <trkpt lat="25.40239498950541" lon="110.48055502586067">
        <ele>465.10000000000002</ele>
        <time>2013-11-17T05:01:21Z</time>
      </trkpt>
      <trkpt lat="25.402381662279367" lon="110.48060833476484">
        <ele>464.60000000000002</ele>
        <time>2013-11-17T05:01:27Z</time>
      </trkpt>
      <trkpt lat="25.402370011433959" lon="110.48066834919155">
        <ele>462.60000000000002</ele>
        <time>2013-11-17T05:01:33Z</time>
      </trkpt>
      <trkpt lat="25.402364982292056" lon="110.48070665448904">
        <ele>461</ele>
        <time>2013-11-17T05:01:39Z</time>
      </trkpt>
      <trkpt lat="25.402376633137465" lon="110.48074001446366">
        <ele>457.39999999999998</ele>
        <time>2013-11-17T05:01:45Z</time>
      </trkpt>
      <trkpt lat="25.402403371408582" lon="110.48079499974847">
        <ele>455.39999999999998</ele>
        <time>2013-11-17T05:01:51Z</time>
      </trkpt>
      <trkpt lat="25.402433294802904" lon="110.48085669055581">
        <ele>459.39999999999998</ele>
        <time>2013-11-17T05:01:57Z</time>
      </trkpt>
      <trkpt lat="25.40244335308671" lon="110.48091502860188">
        <ele>466.5</ele>
        <time>2013-11-17T05:02:03Z</time>
      </trkpt>
      <trkpt lat="25.402449974790215" lon="110.48097831197083">
        <ele>470.60000000000002</ele>
        <time>2013-11-17T05:02:09Z</time>
      </trkpt>
      <trkpt lat="25.402441676706076" lon="110.48103170469403">
        <ele>471.39999999999998</ele>
        <time>2013-11-17T05:02:15Z</time>
      </trkpt>
      <trkpt lat="25.402441676706076" lon="110.48109163530171">
        <ele>473.5</ele>
        <time>2013-11-17T05:02:21Z</time>
      </trkpt>
      <trkpt lat="25.402445029467344" lon="110.48116330057383">
        <ele>473</ele>
        <time>2013-11-17T05:02:27Z</time>
      </trkpt>
      <trkpt lat="25.402440000325441" lon="110.48123337328434">
        <ele>473.5</ele>
        <time>2013-11-17T05:02:33Z</time>
      </trkpt>
      <trkpt lat="25.40242332033813" lon="110.48130000941455">
        <ele>474.10000000000002</ele>
        <time>2013-11-17T05:02:39Z</time>
      </trkpt>
      <trkpt lat="25.402401695027947" lon="110.48137167468667">
        <ele>474.30000000000001</ele>
        <time>2013-11-17T05:02:45Z</time>
      </trkpt>
      <trkpt lat="25.402383338660002" lon="110.48143504187465">
        <ele>475.10000000000002</ele>
        <time>2013-11-17T05:02:51Z</time>
      </trkpt>
      <trkpt lat="25.402353331446648" lon="110.4815033543855">
        <ele>474.10000000000002</ele>
        <time>2013-11-17T05:02:57Z</time>
      </trkpt>
      <trkpt lat="25.402328353375196" lon="110.48157334327698">
        <ele>469.30000000000001</ele>
        <time>2013-11-17T05:03:03Z</time>
      </trkpt>
      <trkpt lat="25.402303291484714" lon="110.48162497580051">
        <ele>467.60000000000002</ele>
        <time>2013-11-17T05:03:09Z</time>
      </trkpt>
      <trkpt lat="25.402263309806585" lon="110.48167166300118">
        <ele>463.89999999999998</ele>
        <time>2013-11-17T05:03:15Z</time>
      </trkpt>
      <trkpt lat="25.402218298986554" lon="110.48171835020185">
        <ele>462.19999999999999</ele>
        <time>2013-11-17T05:03:21Z</time>
      </trkpt>
      <trkpt lat="25.402176640927792" lon="110.48176000826061">
        <ele>459.39999999999998</ele>
        <time>2013-11-17T05:03:27Z</time>
      </trkpt>
      <trkpt lat="25.402140012010932" lon="110.48180166631937">
        <ele>456</ele>
        <time>2013-11-17T05:03:33Z</time>
      </trkpt>
      <trkpt lat="25.402101706713438" lon="110.48184332437813">
        <ele>453.89999999999998</ele>
        <time>2013-11-17T05:03:39Z</time>
      </trkpt>
      <trkpt lat="25.402061641216278" lon="110.48188330605626">
        <ele>452.10000000000002</ele>
        <time>2013-11-17T05:03:45Z</time>
      </trkpt>
      <trkpt lat="25.40202165953815" lon="110.48192664049566">
        <ele>452.19999999999999</ele>
        <time>2013-11-17T05:03:51Z</time>
      </trkpt>
      <trkpt lat="25.401976648718119" lon="110.48196670599282">
        <ele>454.39999999999998</ele>
        <time>2013-11-17T05:03:57Z</time>
      </trkpt>
      <trkpt lat="25.401931637898088" lon="110.48199662938714">
        <ele>454.69999999999999</ele>
        <time>2013-11-17T05:04:03Z</time>
      </trkpt>
      <trkpt lat="25.401889979839325" lon="110.4820316657424">
        <ele>453.60000000000002</ele>
        <time>2013-11-17T05:04:09Z</time>
      </trkpt>
      <trkpt lat="25.401871707290411" lon="110.48205664381385">
        <ele>453.10000000000002</ele>
        <time>2013-11-17T05:04:15Z</time>
      </trkpt>
      <trkpt lat="25.401849998161197" lon="110.48208497464657">
        <ele>453.10000000000002</ele>
        <time>2013-11-17T05:04:21Z</time>
      </trkpt>
      <trkpt lat="25.40179836563766" lon="110.48212336376309">
        <ele>453.19999999999999</ele>
        <time>2013-11-17T05:04:27Z</time>
      </trkpt>
      <trkpt lat="25.401743296533823" lon="110.48215663991868">
        <ele>454.39999999999998</ele>
        <time>2013-11-17T05:04:33Z</time>
      </trkpt>
      <trkpt lat="25.401691664010286" lon="110.48218832351267">
        <ele>456.80000000000001</ele>
        <time>2013-11-17T05:04:39Z</time>
      </trkpt>
      <trkpt lat="25.401633325964212" lon="110.4822216834873">
        <ele>457.30000000000001</ele>
        <time>2013-11-17T05:04:45Z</time>
      </trkpt>
      <trkpt lat="25.401569958776236" lon="110.48226669430733">
        <ele>458.60000000000002</ele>
        <time>2013-11-17T05:04:51Z</time>
      </trkpt>
      <trkpt lat="25.401528300717473" lon="110.48229997046292">
        <ele>456.39999999999998</ele>
        <time>2013-11-17T05:04:57Z</time>
      </trkpt>
      <trkpt lat="25.401488319039345" lon="110.48233165405691">
        <ele>455</ele>
        <time>2013-11-17T05:05:03Z</time>
      </trkpt>
      <trkpt lat="25.401436686515808" lon="110.4823633376509">
        <ele>453.5</ele>
        <time>2013-11-17T05:05:09Z</time>
      </trkpt>
      <trkpt lat="25.401411708444357" lon="110.48239166848361">
        <ele>451</ele>
        <time>2013-11-17T05:05:15Z</time>
      </trkpt>
      <trkpt lat="25.401399973779917" lon="110.48239502124488">
        <ele>446.60000000000002</ele>
        <time>2013-11-17T05:05:21Z</time>
      </trkpt>
      <trkpt lat="25.401373319327831" lon="110.48240834847093">
        <ele>441.80000000000001</ele>
        <time>2013-11-17T05:05:27Z</time>
      </trkpt>
      <trkpt lat="25.401331661269069" lon="110.48241999931633">
        <ele>438.30000000000001</ele>
        <time>2013-11-17T05:05:33Z</time>
      </trkpt>
      <trkpt lat="25.401314981281757" lon="110.48243165016174">
        <ele>435.69999999999999</ele>
        <time>2013-11-17T05:05:39Z</time>
      </trkpt>
      <trkpt lat="25.401313304901123" lon="110.48243667930365">
        <ele>435.39999999999998</ele>
        <time>2013-11-17T05:05:45Z</time>
      </trkpt>
      <trkpt lat="25.401336690410972" lon="110.4824132937938">
        <ele>436.80000000000001</ele>
        <time>2013-11-17T05:05:51Z</time>
      </trkpt>
      <trkpt lat="25.401290003210306" lon="110.4824233520776">
        <ele>436.19999999999999</ele>
        <time>2013-11-17T05:05:57Z</time>
      </trkpt>
      <trkpt lat="25.401261672377586" lon="110.48243667930365">
        <ele>435</ele>
        <time>2013-11-17T05:06:03Z</time>
      </trkpt>
      <trkpt lat="25.401223367080092" lon="110.48244497738779">
        <ele>432</ele>
        <time>2013-11-17T05:06:09Z</time>
      </trkpt>
      <trkpt lat="25.401181625202298" lon="110.48245830461383">
        <ele>431.19999999999999</ele>
        <time>2013-11-17T05:06:15Z</time>
      </trkpt>
      <trkpt lat="25.401150025427341" lon="110.48247833736241">
        <ele>430.60000000000002</ele>
        <time>2013-11-17T05:06:21Z</time>
      </trkpt>
      <trkpt lat="25.401111636310816" lon="110.48250331543386">
        <ele>430.19999999999999</ele>
        <time>2013-11-17T05:06:27Z</time>
      </trkpt>
      <trkpt lat="25.401073331013322" lon="110.48252996988595">
        <ele>429.89999999999998</ele>
        <time>2013-11-17T05:06:33Z</time>
      </trkpt>
      <trkpt lat="25.401038294658065" lon="110.48255503177643">
        <ele>432</ele>
        <time>2013-11-17T05:06:39Z</time>
      </trkpt>
      <trkpt lat="25.401031672954559" lon="110.48255830071867">
        <ele>432</ele>
        <time>2013-11-17T05:06:45Z</time>
      </trkpt>
      <trkpt lat="25.401021698489785" lon="110.48257162794471">
        <ele>431.19999999999999</ele>
        <time>2013-11-17T05:06:51Z</time>
      </trkpt>
      <trkpt lat="25.400968305766582" lon="110.48258663155138">
        <ele>430.69999999999999</ele>
        <time>2013-11-17T05:06:57Z</time>
      </trkpt>
      <trkpt lat="25.400920026004314" lon="110.48260498791933">
        <ele>429.89999999999998</ele>
        <time>2013-11-17T05:07:03Z</time>
      </trkpt>
      <trkpt lat="25.400875015184283" lon="110.48262996599078">
        <ele>430.39999999999998</ele>
        <time>2013-11-17T05:07:09Z</time>
      </trkpt>
      <trkpt lat="25.400833357125521" lon="110.48266164958477">
        <ele>431.39999999999998</ele>
        <time>2013-11-17T05:07:15Z</time>
      </trkpt>
      <trkpt lat="25.400813324376941" lon="110.48267170786858">
        <ele>431.80000000000001</ele>
        <time>2013-11-17T05:07:21Z</time>
      </trkpt>
      <trkpt lat="25.40078834630549" lon="110.48269165679812">
        <ele>434.60000000000002</ele>
        <time>2013-11-17T05:07:27Z</time>
      </trkpt>
      <trkpt lat="25.400773342698812" lon="110.48272166401148">
        <ele>434.80000000000001</ele>
        <time>2013-11-17T05:07:33Z</time>
      </trkpt>
      <trkpt lat="25.400761691853404" lon="110.48277002759278">
        <ele>435.69999999999999</ele>
        <time>2013-11-17T05:07:39Z</time>
      </trkpt>
      <trkpt lat="25.400750041007996" lon="110.48281663097441">
        <ele>436.5</ele>
        <time>2013-11-17T05:07:45Z</time>
      </trkpt>
      <trkpt lat="25.400726655498147" lon="110.48287496902049">
        <ele>434.60000000000002</ele>
        <time>2013-11-17T05:07:51Z</time>
      </trkpt>
      <trkpt lat="25.400709975510836" lon="110.48292500898242">
        <ele>432.69999999999999</ele>
        <time>2013-11-17T05:07:57Z</time>
      </trkpt>
      <trkpt lat="25.400721626356244" lon="110.48293833620846">
        <ele>430.39999999999998</ele>
        <time>2013-11-17T05:08:03Z</time>
      </trkpt>
      <trkpt lat="25.400715004652739" lon="110.48295333981514">
        <ele>428.19999999999999</ele>
        <time>2013-11-17T05:08:09Z</time>
      </trkpt>
      <trkpt lat="25.400693295523524" lon="110.482989968732">
        <ele>427.69999999999999</ele>
        <time>2013-11-17T05:08:15Z</time>
      </trkpt>
      <trkpt lat="25.400660019367933" lon="110.4830333031714">
        <ele>428</ele>
        <time>2013-11-17T05:08:21Z</time>
      </trkpt>
      <trkpt lat="25.400615008547902" lon="110.48306331038475">
        <ele>427.30000000000001</ele>
        <time>2013-11-17T05:08:27Z</time>
      </trkpt>
      <trkpt lat="25.400576703250408" lon="110.4830933175981">
        <ele>425.10000000000002</ele>
        <time>2013-11-17T05:08:33Z</time>
      </trkpt>
      <trkpt lat="25.400541666895151" lon="110.48312332481146">
        <ele>425.30000000000001</ele>
        <time>2013-11-17T05:08:39Z</time>
      </trkpt>
      <trkpt lat="25.400515012443066" lon="110.48315165564418">
        <ele>423.60000000000002</ele>
        <time>2013-11-17T05:08:45Z</time>
      </trkpt>
      <trkpt lat="25.400483328849077" lon="110.48319163732231">
        <ele>419.5</ele>
        <time>2013-11-17T05:08:51Z</time>
      </trkpt>
      <trkpt lat="25.40043999440968" lon="110.48323002643883">
        <ele>421.10000000000002</ele>
        <time>2013-11-17T05:08:57Z</time>
      </trkpt>
      <trkpt lat="25.400403365492821" lon="110.48327168449759">
        <ele>423.5</ele>
        <time>2013-11-17T05:09:03Z</time>
      </trkpt>
      <trkpt lat="25.400361707434058" lon="110.48331837169826">
        <ele>424.19999999999999</ele>
        <time>2013-11-17T05:09:09Z</time>
      </trkpt>
      <trkpt lat="25.400313343852758" lon="110.48335164785385">
        <ele>427.10000000000002</ele>
        <time>2013-11-17T05:09:15Z</time>
      </trkpt>
      <trkpt lat="25.400263303890824" lon="110.48338668420911">
        <ele>426.30000000000001</ele>
        <time>2013-11-17T05:09:21Z</time>
      </trkpt>
      <trkpt lat="25.400211671367288" lon="110.48341501504183">
        <ele>425.30000000000001</ele>
        <time>2013-11-17T05:09:27Z</time>
      </trkpt>
      <trkpt lat="25.400158362463117" lon="110.48345332033932">
        <ele>423.10000000000002</ele>
        <time>2013-11-17T05:09:33Z</time>
      </trkpt>
      <trkpt lat="25.40011502802372" lon="110.48349003307521">
        <ele>419.60000000000002</ele>
        <time>2013-11-17T05:09:39Z</time>
      </trkpt>
      <trkpt lat="25.400076638907194" lon="110.48351836390793">
        <ele>418.5</ele>
        <time>2013-11-17T05:09:45Z</time>
      </trkpt>
      <trkpt lat="25.400051660835743" lon="110.48352498561144">
        <ele>418.80000000000001</ele>
        <time>2013-11-17T05:09:51Z</time>
      </trkpt>
      <trkpt lat="25.400031628087163" lon="110.48356169834733">
        <ele>419.10000000000002</ele>
        <time>2013-11-17T05:09:57Z</time>
      </trkpt>
      <trkpt lat="25.400026682764292" lon="110.48360503278673">
        <ele>420.89999999999998</ele>
        <time>2013-11-17T05:10:03Z</time>
      </trkpt>
      <trkpt lat="25.400026682764292" lon="110.48364333808422">
        <ele>418.30000000000001</ele>
        <time>2013-11-17T05:10:09Z</time>
      </trkpt>
      <trkpt lat="25.400015031918883" lon="110.48368499614298">
        <ele>416.30000000000001</ele>
        <time>2013-11-17T05:10:15Z</time>
      </trkpt>
      <trkpt lat="25.400006650015712" lon="110.48371667973697">
        <ele>416.39999999999998</ele>
        <time>2013-11-17T05:10:21Z</time>
      </trkpt>
      <trkpt lat="25.399979995563626" lon="110.48375330865383">
        <ele>415.30000000000001</ele>
        <time>2013-11-17T05:10:27Z</time>
      </trkpt>
      <trkpt lat="25.399964991956949" lon="110.48377837054431">
        <ele>414.69999999999999</ele>
        <time>2013-11-17T05:10:33Z</time>
      </trkpt>
      <trkpt lat="25.399953341111541" lon="110.48381667584181">
        <ele>417.10000000000002</ele>
        <time>2013-11-17T05:10:39Z</time>
      </trkpt>
      <trkpt lat="25.399958370253444" lon="110.48383670859039">
        <ele>416.10000000000002</ele>
        <time>2013-11-17T05:10:45Z</time>
      </trkpt>
      <trkpt lat="25.399981671944261" lon="110.48385162837803">
        <ele>416.80000000000001</ele>
        <time>2013-11-17T05:10:51Z</time>
      </trkpt>
      <trkpt lat="25.3999899700284" lon="110.48386001028121">
        <ele>417.69999999999999</ele>
        <time>2013-11-17T05:10:57Z</time>
      </trkpt>
      <trkpt lat="25.399998351931572" lon="110.48385833390057">
        <ele>419.39999999999998</ele>
        <time>2013-11-17T05:11:03Z</time>
      </trkpt>
      <trkpt lat="25.400001704692841" lon="110.48385833390057">
        <ele>420.80000000000001</ele>
        <time>2013-11-17T05:11:09Z</time>
      </trkpt>
      <trkpt lat="25.400004973635077" lon="110.48385665751994">
        <ele>421.10000000000002</ele>
        <time>2013-11-17T05:11:15Z</time>
      </trkpt>
      <trkpt lat="25.400008326396346" lon="110.48385665751994">
        <ele>421.89999999999998</ele>
        <time>2013-11-17T05:11:21Z</time>
      </trkpt>
      <trkpt lat="25.400008326396346" lon="110.48385665751994">
        <ele>418</ele>
        <time>2013-11-17T05:11:27Z</time>
      </trkpt>
      <trkpt lat="25.400019977241755" lon="110.48386663198471">
        <ele>417.30000000000001</ele>
        <time>2013-11-17T05:11:33Z</time>
      </trkpt>
      <trkpt lat="25.400015031918883" lon="110.48389169387519">
        <ele>418.30000000000001</ele>
        <time>2013-11-17T05:11:39Z</time>
      </trkpt>
      <trkpt lat="25.40003003552556" lon="110.48392497003078">
        <ele>422.60000000000002</ele>
        <time>2013-11-17T05:11:45Z</time>
      </trkpt>
      <trkpt lat="25.400036657229066" lon="110.48395665362477">
        <ele>423.89999999999998</ele>
        <time>2013-11-17T05:11:51Z</time>
      </trkpt>
      <trkpt lat="25.400025006383657" lon="110.48400334082544">
        <ele>424.5</ele>
        <time>2013-11-17T05:11:57Z</time>
      </trkpt>
      <trkpt lat="25.400016708299518" lon="110.48406167887151">
        <ele>426</ele>
        <time>2013-11-17T05:12:03Z</time>
      </trkpt>
      <trkpt lat="25.400006650015712" lon="110.48413502052426">
        <ele>423.5</ele>
        <time>2013-11-17T05:12:09Z</time>
      </trkpt>
      <trkpt lat="25.400015031918883" lon="110.48419000580907">
        <ele>423.39999999999998</ele>
        <time>2013-11-17T05:12:15Z</time>
      </trkpt>
      <trkpt lat="25.400021653622389" lon="110.48423836939037">
        <ele>423.5</ele>
        <time>2013-11-17T05:12:21Z</time>
      </trkpt>
      <trkpt lat="25.400033304467797" lon="110.48429167829454">
        <ele>423.60000000000002</ele>
        <time>2013-11-17T05:12:27Z</time>
      </trkpt>
      <trkpt lat="25.40003003552556" lon="110.48435663804412">
        <ele>420.60000000000002</ele>
        <time>2013-11-17T05:12:33Z</time>
      </trkpt>
      <trkpt lat="25.400031628087163" lon="110.48443333245814">
        <ele>417.80000000000001</ele>
        <time>2013-11-17T05:12:39Z</time>
      </trkpt>
      <trkpt lat="25.400041686370969" lon="110.48450499773026">
        <ele>417.5</ele>
        <time>2013-11-17T05:12:45Z</time>
      </trkpt>
      <trkpt lat="25.400036657229066" lon="110.48457666300237">
        <ele>418.30000000000001</ele>
        <time>2013-11-17T05:12:51Z</time>
      </trkpt>
      <trkpt lat="25.400023330003023" lon="110.48464665189385">
        <ele>416.60000000000002</ele>
        <time>2013-11-17T05:12:57Z</time>
      </trkpt>
      <trkpt lat="25.400003297254443" lon="110.4847149644047">
        <ele>415</ele>
        <time>2013-11-17T05:13:03Z</time>
      </trkpt>
      <trkpt lat="25.399991646409035" lon="110.48478662967682">
        <ele>415.30000000000001</ele>
        <time>2013-11-17T05:13:09Z</time>
      </trkpt>
      <trkpt lat="25.399974966421723" lon="110.48485334962606">
        <ele>414.80000000000001</ele>
        <time>2013-11-17T05:13:15Z</time>
      </trkpt>
      <trkpt lat="25.399970021098852" lon="110.48491168767214">
        <ele>415.89999999999998</ele>
        <time>2013-11-17T05:13:21Z</time>
      </trkpt>
      <trkpt lat="25.399951664730906" lon="110.48497497104108">
        <ele>416.89999999999998</ele>
        <time>2013-11-17T05:13:27Z</time>
      </trkpt>
      <trkpt lat="25.399913359433413" lon="110.48503330908716">
        <ele>415.60000000000002</ele>
        <time>2013-11-17T05:13:33Z</time>
      </trkpt>
      <trkpt lat="25.399855021387339" lon="110.48508670181036">
        <ele>412.69999999999999</ele>
        <time>2013-11-17T05:13:39Z</time>
      </trkpt>
      <trkpt lat="25.399813363328576" lon="110.48513330519199">
        <ele>412</ele>
        <time>2013-11-17T05:13:45Z</time>
      </trkpt>
      <trkpt lat="25.399763323366642" lon="110.48518502153456">
        <ele>410.89999999999998</ele>
        <time>2013-11-17T05:13:51Z</time>
      </trkpt>
      <trkpt lat="25.399706661701202" lon="110.4852366540581">
        <ele>407.19999999999999</ele>
        <time>2013-11-17T05:13:57Z</time>
      </trkpt>
      <trkpt lat="25.399650000035763" lon="110.48528996296227">
        <ele>404.80000000000001</ele>
        <time>2013-11-17T05:14:03Z</time>
      </trkpt>
      <trkpt lat="25.399583363905549" lon="110.4853349737823">
        <ele>403.39999999999998</ele>
        <time>2013-11-17T05:14:09Z</time>
      </trkpt>
      <trkpt lat="25.399528294801712" lon="110.48536003567278">
        <ele>402.69999999999999</ele>
        <time>2013-11-17T05:14:15Z</time>
      </trkpt>
      <trkpt lat="25.399468364194036" lon="110.48536833375692">
        <ele>400.60000000000002</ele>
        <time>2013-11-17T05:14:21Z</time>
      </trkpt>
      <trkpt lat="25.399416647851467" lon="110.48537168651819">
        <ele>398.89999999999998</ele>
        <time>2013-11-17T05:14:27Z</time>
      </trkpt>
      <trkpt lat="25.399350011721253" lon="110.48537001013756">
        <ele>399.80000000000001</ele>
        <time>2013-11-17T05:14:33Z</time>
      </trkpt>
      <trkpt lat="25.399289997294545" lon="110.48534830100834">
        <ele>401.80000000000001</ele>
        <time>2013-11-17T05:14:39Z</time>
      </trkpt>
      <trkpt lat="25.399231659248471" lon="110.48532332293689">
        <ele>402.69999999999999</ele>
        <time>2013-11-17T05:14:45Z</time>
      </trkpt>
      <trkpt lat="25.399181703105569" lon="110.48528996296227">
        <ele>400.19999999999999</ele>
        <time>2013-11-17T05:14:51Z</time>
      </trkpt>
      <trkpt lat="25.399116659536958" lon="110.48526666127145">
        <ele>398.89999999999998</ele>
        <time>2013-11-17T05:14:57Z</time>
      </trkpt>
      <trkpt lat="25.399059997871518" lon="110.48527169041336">
        <ele>402.39999999999998</ele>
        <time>2013-11-17T05:15:03Z</time>
      </trkpt>
      <trkpt lat="25.399001659825444" lon="110.48527831211686">
        <ele>404.69999999999999</ele>
        <time>2013-11-17T05:15:09Z</time>
      </trkpt>
      <trkpt lat="25.398950027301908" lon="110.4852799884975">
        <ele>405.69999999999999</ele>
        <time>2013-11-17T05:15:15Z</time>
      </trkpt>
      <trkpt lat="25.398891689255834" lon="110.48529331572354">
        <ele>408</ele>
        <time>2013-11-17T05:15:21Z</time>
      </trkpt>
      <trkpt lat="25.398836703971028" lon="110.48529666848481">
        <ele>409.5</ele>
        <time>2013-11-17T05:15:27Z</time>
      </trkpt>
      <trkpt lat="25.398768307641149" lon="110.4852799884975">
        <ele>410.19999999999999</ele>
        <time>2013-11-17T05:15:33Z</time>
      </trkpt>
      <trkpt lat="25.398699995130301" lon="110.48526330851018">
        <ele>407.19999999999999</ele>
        <time>2013-11-17T05:15:39Z</time>
      </trkpt>
      <trkpt lat="25.39862665347755" lon="110.48526163212955">
        <ele>404.5</ele>
        <time>2013-11-17T05:15:45Z</time>
      </trkpt>
      <trkpt lat="25.398575020954013" lon="110.48528669402003">
        <ele>405.30000000000001</ele>
        <time>2013-11-17T05:15:51Z</time>
      </trkpt>
      <trkpt lat="25.398528333753347" lon="110.4853349737823">
        <ele>399.5</ele>
        <time>2013-11-17T05:15:57Z</time>
      </trkpt>
      <trkpt lat="25.39853336289525" lon="110.48535500653088">
        <ele>395.19999999999999</ele>
        <time>2013-11-17T05:16:03Z</time>
      </trkpt>
      <trkpt lat="25.398546690121293" lon="110.48536833375692">
        <ele>392</ele>
        <time>2013-11-17T05:16:09Z</time>
      </trkpt>
      <trkpt lat="25.39856999181211" lon="110.48538501374424">
        <ele>391.69999999999999</ele>
        <time>2013-11-17T05:16:15Z</time>
      </trkpt>
      <trkpt lat="25.398584995418787" lon="110.48541502095759">
        <ele>393.80000000000001</ele>
        <time>2013-11-17T05:16:21Z</time>
      </trkpt>
      <trkpt lat="25.398616679012775" lon="110.48544829711318">
        <ele>398.10000000000002</ele>
        <time>2013-11-17T05:16:27Z</time>
      </trkpt>
      <trkpt lat="25.398676693439484" lon="110.48547168262303">
        <ele>401</ele>
        <time>2013-11-17T05:16:33Z</time>
      </trkpt>
      <trkpt lat="25.398721704259515" lon="110.48548836261034">
        <ele>404.19999999999999</ele>
        <time>2013-11-17T05:16:39Z</time>
      </trkpt>
      <trkpt lat="25.398753304034472" lon="110.48549163155258">
        <ele>403.30000000000001</ele>
        <time>2013-11-17T05:16:45Z</time>
      </trkpt>
      <trkpt lat="25.398798314854503" lon="110.48550663515925">
        <ele>401.89999999999998</ele>
        <time>2013-11-17T05:16:51Z</time>
      </trkpt>
      <trkpt lat="25.398854976519942" lon="110.48552666790783">
        <ele>403.89999999999998</ele>
        <time>2013-11-17T05:16:57Z</time>
      </trkpt>
      <trkpt lat="25.398893365636468" lon="110.48555835150182">
        <ele>404.19999999999999</ele>
        <time>2013-11-17T05:17:03Z</time>
      </trkpt>
      <trkpt lat="25.398936700075865" lon="110.48561333678663">
        <ele>407.89999999999998</ele>
        <time>2013-11-17T05:17:09Z</time>
      </trkpt>
      <trkpt lat="25.398995038121939" lon="110.48565667122602">
        <ele>411.89999999999998</ele>
        <time>2013-11-17T05:17:15Z</time>
      </trkpt>
      <trkpt lat="25.399033343419433" lon="110.48570830374956">
        <ele>414.5</ele>
        <time>2013-11-17T05:17:21Z</time>
      </trkpt>
      <trkpt lat="25.399073325097561" lon="110.4857583437115">
        <ele>416</ele>
        <time>2013-11-17T05:17:27Z</time>
      </trkpt>
      <trkpt lat="25.399126634001732" lon="110.48580000177026">
        <ele>420.10000000000002</ele>
        <time>2013-11-17T05:17:33Z</time>
      </trkpt>
      <trkpt lat="25.399188324809074" lon="110.48583663068712">
        <ele>424.19999999999999</ele>
        <time>2013-11-17T05:17:39Z</time>
      </trkpt>
      <trkpt lat="25.39924331009388" lon="110.48586336895823">
        <ele>421.89999999999998</ele>
        <time>2013-11-17T05:17:45Z</time>
      </trkpt>
      <trkpt lat="25.399308353662491" lon="110.48587669618428">
        <ele>417.5</ele>
        <time>2013-11-17T05:17:51Z</time>
      </trkpt>
      <trkpt lat="25.399359986186028" lon="110.48590335063636">
        <ele>418</ele>
        <time>2013-11-17T05:17:57Z</time>
      </trkpt>
      <trkpt lat="25.399418324232101" lon="110.48593335784972">
        <ele>418.60000000000002</ele>
        <time>2013-11-17T05:18:03Z</time>
      </trkpt>
      <trkpt lat="25.399465011432767" lon="110.48593000508845">
        <ele>412.60000000000002</ele>
        <time>2013-11-17T05:18:09Z</time>
      </trkpt>
      <trkpt lat="25.399511698633432" lon="110.48593830317259">
        <ele>410.60000000000002</ele>
        <time>2013-11-17T05:18:15Z</time>
      </trkpt>
      <trkpt lat="25.399566683918238" lon="110.48593997955322">
        <ele>408.39999999999998</ele>
        <time>2013-11-17T05:18:21Z</time>
      </trkpt>
      <trkpt lat="25.399633320048451" lon="110.48595833592117">
        <ele>408</ele>
        <time>2013-11-17T05:18:27Z</time>
      </trkpt>
      <trkpt lat="25.399686628952622" lon="110.48596663400531">
        <ele>402.5</ele>
        <time>2013-11-17T05:18:33Z</time>
      </trkpt>
      <trkpt lat="25.399729963392019" lon="110.48598499037325">
        <ele>398.19999999999999</ele>
        <time>2013-11-17T05:18:39Z</time>
      </trkpt>
      <trkpt lat="25.399759970605373" lon="110.48599337227643">
        <ele>394.39999999999998</ele>
        <time>2013-11-17T05:18:45Z</time>
      </trkpt>
      <trkpt lat="25.399793330579996" lon="110.48598666675389">
        <ele>388.30000000000001</ele>
        <time>2013-11-17T05:18:51Z</time>
      </trkpt>
      <trkpt lat="25.399826690554619" lon="110.48598331399262">
        <ele>386.30000000000001</ele>
        <time>2013-11-17T05:18:57Z</time>
      </trkpt>
      <trkpt lat="25.399878323078156" lon="110.4859600123018">
        <ele>384.89999999999998</ele>
        <time>2013-11-17T05:19:03Z</time>
      </trkpt>
      <trkpt lat="25.399926686659455" lon="110.48593830317259">
        <ele>384.19999999999999</ele>
        <time>2013-11-17T05:19:09Z</time>
      </trkpt>
      <trkpt lat="25.399951664730906" lon="110.48594165593386">
        <ele>384</ele>
        <time>2013-11-17T05:19:15Z</time>
      </trkpt>
      <trkpt lat="25.399996675550938" lon="110.48591667786241">
        <ele>382.60000000000002</ele>
        <time>2013-11-17T05:19:21Z</time>
      </trkpt>
      <trkpt lat="25.400019977241755" lon="110.485905027017">
        <ele>380.89999999999998</ele>
        <time>2013-11-17T05:19:27Z</time>
      </trkpt>
      <trkpt lat="25.400034980848432" lon="110.48589329235256">
        <ele>382.69999999999999</ele>
        <time>2013-11-17T05:19:33Z</time>
      </trkpt>
      <trkpt lat="25.400048308074474" lon="110.48588331788778">
        <ele>382.19999999999999</ele>
        <time>2013-11-17T05:19:39Z</time>
      </trkpt>
      <trkpt lat="25.40005836635828" lon="110.48587669618428">
        <ele>382.30000000000001</ele>
        <time>2013-11-17T05:19:45Z</time>
      </trkpt>
      <trkpt lat="25.400081668049097" lon="110.48587334342301">
        <ele>383.5</ele>
        <time>2013-11-17T05:19:51Z</time>
      </trkpt>
      <trkpt lat="25.400133300572634" lon="110.48587334342301">
        <ele>387.30000000000001</ele>
        <time>2013-11-17T05:19:57Z</time>
      </trkpt>
      <trkpt lat="25.400185016915202" lon="110.48586001619697">
        <ele>390.30000000000001</ele>
        <time>2013-11-17T05:20:03Z</time>
      </trkpt>
      <trkpt lat="25.400240002200007" lon="110.4858566634357">
        <ele>393</ele>
        <time>2013-11-17T05:20:09Z</time>
      </trkpt>
      <trkpt lat="25.400315020233393" lon="110.48585163429379">
        <ele>394</ele>
        <time>2013-11-17T05:20:15Z</time>
      </trkpt>
      <trkpt lat="25.400390038266778" lon="110.48583336174488">
        <ele>391.5</ele>
        <time>2013-11-17T05:20:21Z</time>
      </trkpt>
      <trkpt lat="25.400456674396992" lon="110.48580167815089">
        <ele>389.60000000000002</ele>
        <time>2013-11-17T05:20:27Z</time>
      </trkpt>
      <trkpt lat="25.400513336062431" lon="110.4857633728534">
        <ele>389.10000000000002</ele>
        <time>2013-11-17T05:20:33Z</time>
      </trkpt>
      <trkpt lat="25.400568321347237" lon="110.4857216309756">
        <ele>387.10000000000002</ele>
        <time>2013-11-17T05:20:39Z</time>
      </trkpt>
      <trkpt lat="25.400598328560591" lon="110.48568500205874">
        <ele>385.69999999999999</ele>
        <time>2013-11-17T05:20:45Z</time>
      </trkpt>
      <trkpt lat="25.400620037689805" lon="110.48566496931016">
        <ele>385.10000000000002</ele>
        <time>2013-11-17T05:20:51Z</time>
      </trkpt>
      <trkpt lat="25.400624983012676" lon="110.48564669676125">
        <ele>385.30000000000001</ele>
        <time>2013-11-17T05:20:57Z</time>
      </trkpt>
      <trkpt lat="25.400624983012676" lon="110.48563336953521">
        <ele>383.5</ele>
        <time>2013-11-17T05:21:03Z</time>
      </trkpt>
      <trkpt lat="25.400624983012676" lon="110.48561333678663">
        <ele>382</ele>
        <time>2013-11-17T05:21:09Z</time>
      </trkpt>
      <trkpt lat="25.400628335773945" lon="110.48561166040599">
        <ele>383.39999999999998</ele>
        <time>2013-11-17T05:21:15Z</time>
      </trkpt>
      <trkpt lat="25.400621630251408" lon="110.48560168594122">
        <ele>382.5</ele>
        <time>2013-11-17T05:21:21Z</time>
      </trkpt>
      <trkpt lat="25.400635041296482" lon="110.48560000956059">
        <ele>382.5</ele>
        <time>2013-11-17T05:21:27Z</time>
      </trkpt>
      <trkpt lat="25.400646692141891" lon="110.48559833317995">
        <ele>381.60000000000002</ele>
        <time>2013-11-17T05:21:33Z</time>
      </trkpt>
      <trkpt lat="25.400656666606665" lon="110.48559498041868">
        <ele>380.60000000000002</ele>
        <time>2013-11-17T05:21:39Z</time>
      </trkpt>
      <trkpt lat="25.400673346593976" lon="110.48559665679932">
        <ele>380.69999999999999</ele>
        <time>2013-11-17T05:21:45Z</time>
      </trkpt>
      <trkpt lat="25.400681644678116" lon="110.48559833317995">
        <ele>381.89999999999998</ele>
        <time>2013-11-17T05:21:51Z</time>
      </trkpt>
      <trkpt lat="25.400690026581287" lon="110.48560336232185">
        <ele>383.60000000000002</ele>
        <time>2013-11-17T05:21:57Z</time>
      </trkpt>
      <trkpt lat="25.40071165189147" lon="110.48559665679932">
        <ele>383.5</ele>
        <time>2013-11-17T05:22:03Z</time>
      </trkpt>
      <trkpt lat="25.400701677426696" lon="110.48559003509581">
        <ele>382.69999999999999</ele>
        <time>2013-11-17T05:22:09Z</time>
      </trkpt>
      <trkpt lat="25.400721626356244" lon="110.48560336232185">
        <ele>383.80000000000001</ele>
        <time>2013-11-17T05:22:15Z</time>
      </trkpt>
      <trkpt lat="25.400745011866093" lon="110.4856166895479">
        <ele>384.80000000000001</ele>
        <time>2013-11-17T05:22:21Z</time>
      </trkpt>
      <trkpt lat="25.400783317163587" lon="110.48564334399998">
        <ele>385.39999999999998</ele>
        <time>2013-11-17T05:22:27Z</time>
      </trkpt>
      <trkpt lat="25.400808295235038" lon="110.48569170758128">
        <ele>387.60000000000002</ele>
        <time>2013-11-17T05:22:33Z</time>
      </trkpt>
      <trkpt lat="25.400820029899478" lon="110.48574669286609">
        <ele>390.39999999999998</ele>
        <time>2013-11-17T05:22:39Z</time>
      </trkpt>
      <trkpt lat="25.400824975222349" lon="110.48579664900899">
        <ele>391.69999999999999</ele>
        <time>2013-11-17T05:22:45Z</time>
      </trkpt>
      <trkpt lat="25.400823298841715" lon="110.48584668897092">
        <ele>392.60000000000002</ele>
        <time>2013-11-17T05:22:51Z</time>
      </trkpt>
      <trkpt lat="25.400813324376941" lon="110.48589664511383">
        <ele>396</ele>
        <time>2013-11-17T05:22:57Z</time>
      </trkpt>
      <trkpt lat="25.400805026292801" lon="110.48594333231449">
        <ele>399.39999999999998</ele>
        <time>2013-11-17T05:23:03Z</time>
      </trkpt>
      <trkpt lat="25.400809971615672" lon="110.4860033467412">
        <ele>399.39999999999998</ele>
        <time>2013-11-17T05:23:09Z</time>
      </trkpt>
      <trkpt lat="25.400828327983618" lon="110.48607836477458">
        <ele>398.39999999999998</ele>
        <time>2013-11-17T05:23:15Z</time>
      </trkpt>
      <trkpt lat="25.400851629674435" lon="110.4861500300467">
        <ele>397.39999999999998</ele>
        <time>2013-11-17T05:23:21Z</time>
      </trkpt>
      <trkpt lat="25.400873338803649" lon="110.48622496426105">
        <ele>397.10000000000002</ele>
        <time>2013-11-17T05:23:27Z</time>
      </trkpt>
      <trkpt lat="25.400896640494466" lon="110.48628162592649">
        <ele>395.80000000000001</ele>
        <time>2013-11-17T05:23:33Z</time>
      </trkpt>
      <trkpt lat="25.40091834962368" lon="110.48629336059093">
        <ele>392.89999999999998</ele>
        <time>2013-11-17T05:23:39Z</time>
      </trkpt>
      <trkpt lat="25.400935029610991" lon="110.48630165867507">
        <ele>390.39999999999998</ele>
        <time>2013-11-17T05:23:45Z</time>
      </trkpt>
      <trkpt lat="25.400951625779271" lon="110.48631498590112">
        <ele>388.5</ele>
        <time>2013-11-17T05:23:51Z</time>
      </trkpt>
      <trkpt lat="25.400963360443711" lon="110.4863416403532">
        <ele>386.30000000000001</ele>
        <time>2013-11-17T05:23:57Z</time>
      </trkpt>
      <trkpt lat="25.400961684063077" lon="110.48639168031514">
        <ele>387</ele>
        <time>2013-11-17T05:24:03Z</time>
      </trkpt>
      <trkpt lat="25.400951625779271" lon="110.48644834198058">
        <ele>388</ele>
        <time>2013-11-17T05:24:09Z</time>
      </trkpt>
      <trkpt lat="25.400943327695131" lon="110.48651162534952">
        <ele>388.39999999999998</ele>
        <time>2013-11-17T05:24:15Z</time>
      </trkpt>
      <trkpt lat="25.400938298553228" lon="110.4865749925375">
        <ele>388.19999999999999</ele>
        <time>2013-11-17T05:24:21Z</time>
      </trkpt>
      <trkpt lat="25.400941651314497" lon="110.48664833419025">
        <ele>387.39999999999998</ele>
        <time>2013-11-17T05:24:27Z</time>
      </trkpt>
      <trkpt lat="25.40095497854054" lon="110.48671170137823">
        <ele>386.60000000000002</ele>
        <time>2013-11-17T05:24:33Z</time>
      </trkpt>
      <trkpt lat="25.400930000469089" lon="110.48673667944968">
        <ele>383.30000000000001</ele>
        <time>2013-11-17T05:24:39Z</time>
      </trkpt>
      <trkpt lat="25.400896640494466" lon="110.48675998114049">
        <ele>380.80000000000001</ele>
        <time>2013-11-17T05:24:45Z</time>
      </trkpt>
      <trkpt lat="25.400871662423015" lon="110.48677330836654">
        <ele>379.5</ele>
        <time>2013-11-17T05:24:51Z</time>
      </trkpt>
      <trkpt lat="25.400871662423015" lon="110.48678495921195">
        <ele>377.60000000000002</ele>
        <time>2013-11-17T05:24:57Z</time>
      </trkpt>
      <trkpt lat="25.400868309661746" lon="110.48679334111512">
        <ele>376.5</ele>
        <time>2013-11-17T05:25:03Z</time>
      </trkpt>
      <trkpt lat="25.400846684351563" lon="110.48678998835385">
        <ele>375.10000000000002</ele>
        <time>2013-11-17T05:25:09Z</time>
      </trkpt>
      <trkpt lat="25.400805026292801" lon="110.48678495921195">
        <ele>374.5</ele>
        <time>2013-11-17T05:25:15Z</time>
      </trkpt>
      <trkpt lat="25.400763368234038" lon="110.48678336665034">
        <ele>373</ele>
        <time>2013-11-17T05:25:21Z</time>
      </trkpt>
      <trkpt lat="25.400736629962921" lon="110.48678336665034">
        <ele>371.5</ele>
        <time>2013-11-17T05:25:27Z</time>
      </trkpt>
      <trkpt lat="25.400741659104824" lon="110.48677666112781">
        <ele>370.89999999999998</ele>
        <time>2013-11-17T05:25:33Z</time>
      </trkpt>
      <trkpt lat="25.400706706568599" lon="110.4867716319859">
        <ele>369</ele>
        <time>2013-11-17T05:25:39Z</time>
      </trkpt>
      <trkpt lat="25.400651637464762" lon="110.48678831197321">
        <ele>366.69999999999999</ele>
        <time>2013-11-17T05:25:45Z</time>
      </trkpt>
      <trkpt lat="25.400596652179956" lon="110.48681664280593">
        <ele>365.69999999999999</ele>
        <time>2013-11-17T05:25:51Z</time>
      </trkpt>
      <trkpt lat="25.400575026869774" lon="110.48688000999391">
        <ele>366</ele>
        <time>2013-11-17T05:25:57Z</time>
      </trkpt>
      <trkpt lat="25.400526663288474" lon="110.48691001720726">
        <ele>365.39999999999998</ele>
        <time>2013-11-17T05:26:03Z</time>
      </trkpt>
      <trkpt lat="25.400481652468443" lon="110.48691999167204">
        <ele>365</ele>
        <time>2013-11-17T05:26:09Z</time>
      </trkpt>
      <trkpt lat="25.400458350777626" lon="110.48696835525334">
        <ele>368</ele>
        <time>2013-11-17T05:26:15Z</time>
      </trkpt>
      <trkpt lat="25.400421638041735" lon="110.48702334053814">
        <ele>368.80000000000001</ele>
        <time>2013-11-17T05:26:21Z</time>
      </trkpt>
      <trkpt lat="25.400371681898832" lon="110.48706667497754">
        <ele>370.60000000000002</ele>
        <time>2013-11-17T05:26:27Z</time>
      </trkpt>
      <trkpt lat="25.400311667472124" lon="110.4871033038944">
        <ele>372</ele>
        <time>2013-11-17T05:26:33Z</time>
      </trkpt>
      <trkpt lat="25.400251653045416" lon="110.48712166026235">
        <ele>371.89999999999998</ele>
        <time>2013-11-17T05:26:39Z</time>
      </trkpt>
      <trkpt lat="25.400198344141245" lon="110.48713331110775">
        <ele>370.5</ele>
        <time>2013-11-17T05:26:45Z</time>
      </trkpt>
      <trkpt lat="25.400173366069794" lon="110.48715837299824">
        <ele>369.80000000000001</ele>
        <time>2013-11-17T05:26:51Z</time>
      </trkpt>
      <trkpt lat="25.400148304179311" lon="110.48719164915383">
        <ele>371.39999999999998</ele>
        <time>2013-11-17T05:26:57Z</time>
      </trkpt>
      <trkpt lat="25.400089966133237" lon="110.4871950019151">
        <ele>372.80000000000001</ele>
        <time>2013-11-17T05:27:03Z</time>
      </trkpt>
      <trkpt lat="25.400041686370969" lon="110.48724001273513">
        <ele>372.80000000000001</ele>
        <time>2013-11-17T05:27:09Z</time>
      </trkpt>
      <trkpt lat="25.40001000277698" lon="110.4872933216393">
        <ele>372</ele>
        <time>2013-11-17T05:27:15Z</time>
      </trkpt>
      <trkpt lat="25.399974966421723" lon="110.48731997609138">
        <ele>373.69999999999999</ele>
        <time>2013-11-17T05:27:21Z</time>
      </trkpt>
      <trkpt lat="25.399919981136918" lon="110.48736004158854">
        <ele>373.80000000000001</ele>
        <time>2013-11-17T05:27:27Z</time>
      </trkpt>
      <trkpt lat="25.399866672232747" lon="110.48740664497018">
        <ele>374.5</ele>
        <time>2013-11-17T05:27:33Z</time>
      </trkpt>
      <trkpt lat="25.399816632270813" lon="110.48746163025498">
        <ele>374.60000000000002</ele>
        <time>2013-11-17T05:27:39Z</time>
      </trkpt>
      <trkpt lat="25.399770028889179" lon="110.48751167021692">
        <ele>375.10000000000002</ele>
        <time>2013-11-17T05:27:45Z</time>
      </trkpt>
      <trkpt lat="25.399726694449782" lon="110.48757998272777">
        <ele>374.60000000000002</ele>
        <time>2013-11-17T05:27:51Z</time>
      </trkpt>
      <trkpt lat="25.39968503639102" lon="110.48765164799988">
        <ele>373.10000000000002</ele>
        <time>2013-11-17T05:27:57Z</time>
      </trkpt>
      <trkpt lat="25.399634996429086" lon="110.48771836794913">
        <ele>371.30000000000001</ele>
        <time>2013-11-17T05:28:03Z</time>
      </trkpt>
      <trkpt lat="25.399611694738269" lon="110.48778668045998">
        <ele>369.39999999999998</ele>
        <time>2013-11-17T05:28:09Z</time>
      </trkpt>
      <trkpt lat="25.399599960073829" lon="110.48782498575747">
        <ele>370.80000000000001</ele>
        <time>2013-11-17T05:28:15Z</time>
      </trkpt>
      <trkpt lat="25.399598367512226" lon="110.48785834573209">
        <ele>369.80000000000001</ele>
        <time>2013-11-17T05:28:21Z</time>
      </trkpt>
      <trkpt lat="25.399611694738269" lon="110.48789002932608">
        <ele>364.60000000000002</ele>
        <time>2013-11-17T05:28:27Z</time>
      </trkpt>
      <trkpt lat="25.399619992822409" lon="110.48793001100421">
        <ele>358.60000000000002</ele>
        <time>2013-11-17T05:28:33Z</time>
      </trkpt>
      <trkpt lat="25.399591661989689" lon="110.48797502182424">
        <ele>353.69999999999999</ele>
        <time>2013-11-17T05:28:39Z</time>
      </trkpt>
      <trkpt lat="25.399565007537603" lon="110.48801332712173">
        <ele>351.60000000000002</ele>
        <time>2013-11-17T05:28:45Z</time>
      </trkpt>
      <trkpt lat="25.399521673098207" lon="110.48804165795445">
        <ele>350.80000000000001</ele>
        <time>2013-11-17T05:28:51Z</time>
      </trkpt>
      <trkpt lat="25.399468364194036" lon="110.48808331601322">
        <ele>349.69999999999999</ele>
        <time>2013-11-17T05:28:57Z</time>
      </trkpt>
      <trkpt lat="25.399423353374004" lon="110.48811667598784">
        <ele>349.19999999999999</ele>
        <time>2013-11-17T05:29:03Z</time>
      </trkpt>
      <trkpt lat="25.399374989792705" lon="110.4881533049047">
        <ele>349.19999999999999</ele>
        <time>2013-11-17T05:29:09Z</time>
      </trkpt>
      <trkpt lat="25.399320004507899" lon="110.4881583340466">
        <ele>349.5</ele>
        <time>2013-11-17T05:29:15Z</time>
      </trkpt>
      <trkpt lat="25.399261666461825" lon="110.48815498128533">
        <ele>350</ele>
        <time>2013-11-17T05:29:21Z</time>
      </trkpt>
      <trkpt lat="25.399195030331612" lon="110.48814668320119">
        <ele>349.60000000000002</ele>
        <time>2013-11-17T05:29:27Z</time>
      </trkpt>
      <trkpt lat="25.399113306775689" lon="110.48814333043993">
        <ele>351.5</ele>
        <time>2013-11-17T05:29:33Z</time>
      </trkpt>
      <trkpt lat="25.399059997871518" lon="110.48812665045261">
        <ele>353.89999999999998</ele>
        <time>2013-11-17T05:29:39Z</time>
      </trkpt>
      <trkpt lat="25.399006688967347" lon="110.48811332322657">
        <ele>358.39999999999998</ele>
        <time>2013-11-17T05:29:45Z</time>
      </trkpt>
      <trkpt lat="25.398956649005413" lon="110.4881033487618">
        <ele>362.19999999999999</ele>
        <time>2013-11-17T05:29:51Z</time>
      </trkpt>
      <trkpt lat="25.398890012875199" lon="110.48810829408467">
        <ele>363.10000000000002</ele>
        <time>2013-11-17T05:29:57Z</time>
      </trkpt>
      <trkpt lat="25.398828322067857" lon="110.48813167959452">
        <ele>364.30000000000001</ele>
        <time>2013-11-17T05:30:03Z</time>
      </trkpt>
      <trkpt lat="25.398766631260514" lon="110.48815665766597">
        <ele>364.30000000000001</ele>
        <time>2013-11-17T05:30:09Z</time>
      </trkpt>
      <trkpt lat="25.398711645975709" lon="110.48817995935678">
        <ele>365.30000000000001</ele>
        <time>2013-11-17T05:30:15Z</time>
      </trkpt>
      <trkpt lat="25.398648362606764" lon="110.488201668486">
        <ele>364.39999999999998</ele>
        <time>2013-11-17T05:30:21Z</time>
      </trkpt>
      <trkpt lat="25.39859832264483" lon="110.48823167569935">
        <ele>365.10000000000002</ele>
        <time>2013-11-17T05:30:27Z</time>
      </trkpt>
      <trkpt lat="25.398539984598756" lon="110.48826503567398">
        <ele>363.80000000000001</ele>
        <time>2013-11-17T05:30:33Z</time>
      </trkpt>
      <trkpt lat="25.398481646552682" lon="110.48828666098416">
        <ele>362</ele>
        <time>2013-11-17T05:30:39Z</time>
      </trkpt>
      <trkpt lat="25.398416686803102" lon="110.48832169733942">
        <ele>360.30000000000001</ele>
        <time>2013-11-17T05:30:45Z</time>
      </trkpt>
      <trkpt lat="25.398356672376394" lon="110.48835497349501">
        <ele>360.19999999999999</ele>
        <time>2013-11-17T05:30:51Z</time>
      </trkpt>
      <trkpt lat="25.398288359865546" lon="110.48836830072105">
        <ele>360.89999999999998</ele>
        <time>2013-11-17T05:30:57Z</time>
      </trkpt>
      <trkpt lat="25.39821669459343" lon="110.48838162794709">
        <ele>360.60000000000002</ele>
        <time>2013-11-17T05:31:03Z</time>
      </trkpt>
      <trkpt lat="25.398146705701947" lon="110.48838162794709">
        <ele>360.89999999999998</ele>
        <time>2013-11-17T05:31:09Z</time>
      </trkpt>
      <trkpt lat="25.398068334907293" lon="110.48838833346963">
        <ele>359</ele>
        <time>2013-11-17T05:31:15Z</time>
      </trkpt>
      <trkpt lat="25.397993316873908" lon="110.48839336261153">
        <ele>357.60000000000002</ele>
        <time>2013-11-17T05:31:21Z</time>
      </trkpt>
      <trkpt lat="25.397949982434511" lon="110.48841498792171">
        <ele>354.80000000000001</ele>
        <time>2013-11-17T05:31:27Z</time>
      </trkpt>
      <trkpt lat="25.397938331589103" lon="110.48843334428966">
        <ele>352.10000000000002</ele>
        <time>2013-11-17T05:31:33Z</time>
      </trkpt>
      <trkpt lat="25.397928357124329" lon="110.48845832236111">
        <ele>350.10000000000002</ele>
        <time>2013-11-17T05:31:39Z</time>
      </trkpt>
      <trkpt lat="25.397903295233846" lon="110.48848330043256">
        <ele>349.30000000000001</ele>
        <time>2013-11-17T05:31:45Z</time>
      </trkpt>
      <trkpt lat="25.397863313555717" lon="110.488539962098">
        <ele>349.69999999999999</ele>
        <time>2013-11-17T05:31:51Z</time>
      </trkpt>
      <trkpt lat="25.397856691852212" lon="110.48854331485927">
        <ele>349.10000000000002</ele>
        <time>2013-11-17T05:31:57Z</time>
      </trkpt>
      <trkpt lat="25.397855015471578" lon="110.48854163847864">
        <ele>349.80000000000001</ele>
        <time>2013-11-17T05:32:03Z</time>
      </trkpt>
      <trkpt lat="25.397853339090943" lon="110.488539962098">
        <ele>351.30000000000001</ele>
        <time>2013-11-17T05:32:09Z</time>
      </trkpt>
      <trkpt lat="25.397853339090943" lon="110.48854163847864">
        <ele>351.60000000000002</ele>
        <time>2013-11-17T05:32:15Z</time>
      </trkpt>
      <trkpt lat="25.397858368232846" lon="110.4885832965374">
        <ele>353.30000000000001</ele>
        <time>2013-11-17T05:32:21Z</time>
      </trkpt>
      <trkpt lat="25.397864989936352" lon="110.48860165290534">
        <ele>354.69999999999999</ele>
        <time>2013-11-17T05:32:27Z</time>
      </trkpt>
      <trkpt lat="25.397851662710309" lon="110.48860500566661">
        <ele>356</ele>
        <time>2013-11-17T05:32:33Z</time>
      </trkpt>
      <trkpt lat="25.397838335484266" lon="110.48862000927329">
        <ele>358.30000000000001</ele>
        <time>2013-11-17T05:32:39Z</time>
      </trkpt>
      <trkpt lat="25.397826684638858" lon="110.48865001648664">
        <ele>359.69999999999999</ele>
        <time>2013-11-17T05:32:45Z</time>
      </trkpt>
      <trkpt lat="25.397806651890278" lon="110.48867834731936">
        <ele>361.19999999999999</ele>
        <time>2013-11-17T05:32:51Z</time>
      </trkpt>
      <trkpt lat="25.397804975509644" lon="110.48869335092604">
        <ele>361.5</ele>
        <time>2013-11-17T05:32:57Z</time>
      </trkpt>
      <trkpt lat="25.397810004651546" lon="110.48869829624891">
        <ele>361</ele>
        <time>2013-11-17T05:33:03Z</time>
      </trkpt>
      <trkpt lat="25.39778670296073" lon="110.48872662708163">
        <ele>363</ele>
        <time>2013-11-17T05:33:09Z</time>
      </trkpt>
      <trkpt lat="25.397759964689612" lon="110.48877499066293">
        <ele>364.80000000000001</ele>
        <time>2013-11-17T05:33:15Z</time>
      </trkpt>
      <trkpt lat="25.397728364914656" lon="110.4888216778636">
        <ele>366.30000000000001</ele>
        <time>2013-11-17T05:33:21Z</time>
      </trkpt>
      <trkpt lat="25.397700034081936" lon="110.48886501230299">
        <ele>367.19999999999999</ele>
        <time>2013-11-17T05:33:27Z</time>
      </trkpt>
      <trkpt lat="25.397666674107313" lon="110.48889669589698">
        <ele>367.80000000000001</ele>
        <time>2013-11-17T05:33:33Z</time>
      </trkpt>
      <trkpt lat="25.397629961371422" lon="110.48892997205257">
        <ele>369.19999999999999</ele>
        <time>2013-11-17T05:33:39Z</time>
      </trkpt>
      <trkpt lat="25.397608336061239" lon="110.48894329927862">
        <ele>368.69999999999999</ele>
        <time>2013-11-17T05:33:45Z</time>
      </trkpt>
      <trkpt lat="25.397619986906648" lon="110.48894003033638">
        <ele>370.80000000000001</ele>
        <time>2013-11-17T05:33:51Z</time>
      </trkpt>
      <trkpt lat="25.397581681609154" lon="110.48897330649197">
        <ele>372.69999999999999</ele>
        <time>2013-11-17T05:33:57Z</time>
      </trkpt>
      <trkpt lat="25.397533318027854" lon="110.4890116956085">
        <ele>373.39999999999998</ele>
        <time>2013-11-17T05:34:03Z</time>
      </trkpt>
      <trkpt lat="25.397476656362414" lon="110.48906332813203">
        <ele>374.10000000000002</ele>
        <time>2013-11-17T05:34:09Z</time>
      </trkpt>
      <trkpt lat="25.397421671077609" lon="110.48912501893938">
        <ele>373.80000000000001</ele>
        <time>2013-11-17T05:34:15Z</time>
      </trkpt>
      <trkpt lat="25.397378336638212" lon="110.48919500783086">
        <ele>373.80000000000001</ele>
        <time>2013-11-17T05:34:21Z</time>
      </trkpt>
      <trkpt lat="25.397358303889632" lon="110.48923498950899">
        <ele>372.80000000000001</ele>
        <time>2013-11-17T05:34:27Z</time>
      </trkpt>
      <trkpt lat="25.397341707721353" lon="110.48925334587693">
        <ele>372.19999999999999</ele>
        <time>2013-11-17T05:34:33Z</time>
      </trkpt>
      <trkpt lat="25.397333325818181" lon="110.48926164396107">
        <ele>371.60000000000002</ele>
        <time>2013-11-17T05:34:39Z</time>
      </trkpt>
      <trkpt lat="25.397325027734041" lon="110.48932165838778">
        <ele>372.39999999999998</ele>
        <time>2013-11-17T05:34:45Z</time>
      </trkpt>
      <trkpt lat="25.39730834774673" lon="110.48933666199446">
        <ele>372.19999999999999</ele>
        <time>2013-11-17T05:34:51Z</time>
      </trkpt>
      <trkpt lat="25.397286638617516" lon="110.48936164006591">
        <ele>372.30000000000001</ele>
        <time>2013-11-17T05:34:57Z</time>
      </trkpt>
      <trkpt lat="25.397271635010839" lon="110.48940002918243">
        <ele>372.39999999999998</ele>
        <time>2013-11-17T05:35:03Z</time>
      </trkpt>
      <trkpt lat="25.397243304178119" lon="110.48947337083519">
        <ele>372.69999999999999</ele>
        <time>2013-11-17T05:35:09Z</time>
      </trkpt>
      <trkpt lat="25.397204998880625" lon="110.48954830504954">
        <ele>372.19999999999999</ele>
        <time>2013-11-17T05:35:15Z</time>
      </trkpt>
      <trkpt lat="25.397163340821862" lon="110.48960999585688">
        <ele>372.10000000000002</ele>
        <time>2013-11-17T05:35:21Z</time>
      </trkpt>
      <trkpt lat="25.397144984453917" lon="110.48966498114169">
        <ele>368.39999999999998</ele>
        <time>2013-11-17T05:35:27Z</time>
      </trkpt>
      <trkpt lat="25.397150013595819" lon="110.48970337025821">
        <ele>361.39999999999998</ele>
        <time>2013-11-17T05:35:33Z</time>
      </trkpt>
      <trkpt lat="25.397151689976454" lon="110.48971502110362">
        <ele>355.39999999999998</ele>
        <time>2013-11-17T05:35:39Z</time>
      </trkpt>
      <trkpt lat="25.397144984453917" lon="110.48974997363985">
        <ele>355.60000000000002</ele>
        <time>2013-11-17T05:35:45Z</time>
      </trkpt>
      <trkpt lat="25.397114977240562" lon="110.48977335914969">
        <ele>357.30000000000001</ele>
        <time>2013-11-17T05:35:51Z</time>
      </trkpt>
      <trkpt lat="25.397095028311014" lon="110.4897799808532">
        <ele>359.60000000000002</ele>
        <time>2013-11-17T05:35:57Z</time>
      </trkpt>
      <trkpt lat="25.397063344717026" lon="110.48975835554302">
        <ele>364</ele>
        <time>2013-11-17T05:36:03Z</time>
      </trkpt>
      <trkpt lat="25.397039959207177" lon="110.48973999917507">
        <ele>367.10000000000002</ele>
        <time>2013-11-17T05:36:09Z</time>
      </trkpt>
      <trkpt lat="25.397006683051586" lon="110.4897300247103">
        <ele>370.19999999999999</ele>
        <time>2013-11-17T05:36:15Z</time>
      </trkpt>
      <trkpt lat="25.396931665018201" lon="110.48973329365253">
        <ele>368.80000000000001</ele>
        <time>2013-11-17T05:36:21Z</time>
      </trkpt>
      <trkpt lat="25.396854970604181" lon="110.48974335193634">
        <ele>368.30000000000001</ele>
        <time>2013-11-17T05:36:27Z</time>
      </trkpt>
      <trkpt lat="25.396788334473968" lon="110.48974167555571">
        <ele>367.69999999999999</ele>
        <time>2013-11-17T05:36:33Z</time>
      </trkpt>
      <trkpt lat="25.396718345582485" lon="110.48974167555571">
        <ele>368.80000000000001</ele>
        <time>2013-11-17T05:36:39Z</time>
      </trkpt>
      <trkpt lat="25.396654978394508" lon="110.48973329365253">
        <ele>370.19999999999999</ele>
        <time>2013-11-17T05:36:45Z</time>
      </trkpt>
      <trkpt lat="25.39660669863224" lon="110.48971166834235">
        <ele>370.60000000000002</ele>
        <time>2013-11-17T05:36:51Z</time>
      </trkpt>
      <trkpt lat="25.396553305909038" lon="110.48969163559377">
        <ele>369.60000000000002</ele>
        <time>2013-11-17T05:36:57Z</time>
      </trkpt>
      <trkpt lat="25.396499997004867" lon="110.48967830836773">
        <ele>369.80000000000001</ele>
        <time>2013-11-17T05:37:03Z</time>
      </trkpt>
      <trkpt lat="25.39643662981689" lon="110.48966833390296">
        <ele>370.39999999999998</ele>
        <time>2013-11-17T05:37:09Z</time>
      </trkpt>
      <trkpt lat="25.396366640925407" lon="110.48966833390296">
        <ele>371.60000000000002</ele>
        <time>2013-11-17T05:37:15Z</time>
      </trkpt>
      <trkpt lat="25.396313332021236" lon="110.48969498835504">
        <ele>374.10000000000002</ele>
        <time>2013-11-17T05:37:21Z</time>
      </trkpt>
      <trkpt lat="25.396253317594528" lon="110.4897366464138">
        <ele>376.60000000000002</ele>
        <time>2013-11-17T05:37:27Z</time>
      </trkpt>
      <trkpt lat="25.396208306774497" lon="110.48977830447257">
        <ele>377.19999999999999</ele>
        <time>2013-11-17T05:37:33Z</time>
      </trkpt>
      <trkpt lat="25.396161703392863" lon="110.48982499167323">
        <ele>377.60000000000002</ele>
        <time>2013-11-17T05:37:39Z</time>
      </trkpt>
      <trkpt lat="25.396133372560143" lon="110.48985835164785">
        <ele>377.30000000000001</ele>
        <time>2013-11-17T05:37:45Z</time>
      </trkpt>
      <trkpt lat="25.396085008978844" lon="110.48990168608725">
        <ele>376.30000000000001</ele>
        <time>2013-11-17T05:37:51Z</time>
      </trkpt>
      <trkpt lat="25.396036645397544" lon="110.48993999138474">
        <ele>376.30000000000001</ele>
        <time>2013-11-17T05:37:57Z</time>
      </trkpt>
      <trkpt lat="25.395975038409233" lon="110.48997502774">
        <ele>377.30000000000001</ele>
        <time>2013-11-17T05:38:03Z</time>
      </trkpt>
      <trkpt lat="25.395908318459988" lon="110.49002833664417">
        <ele>378</ele>
        <time>2013-11-17T05:38:09Z</time>
      </trkpt>
      <trkpt lat="25.395876634865999" lon="110.49005834385753">
        <ele>377</ele>
        <time>2013-11-17T05:38:15Z</time>
      </trkpt>
      <trkpt lat="25.395846627652645" lon="110.49007996916771">
        <ele>377.5</ele>
        <time>2013-11-17T05:38:21Z</time>
      </trkpt>
      <trkpt lat="25.395781667903066" lon="110.49013168551028">
        <ele>376.60000000000002</ele>
        <time>2013-11-17T05:38:27Z</time>
      </trkpt>
      <trkpt lat="25.395725006237626" lon="110.49016496166587">
        <ele>375.39999999999998</ele>
        <time>2013-11-17T05:38:33Z</time>
      </trkpt>
      <trkpt lat="25.395666668191552" lon="110.49019002355635">
        <ele>375.10000000000002</ele>
        <time>2013-11-17T05:38:39Z</time>
      </trkpt>
      <trkpt lat="25.395601708441973" lon="110.49023000523448">
        <ele>375.89999999999998</ele>
        <time>2013-11-17T05:38:45Z</time>
      </trkpt>
      <trkpt lat="25.395551668480039" lon="110.49028666689992">
        <ele>375.80000000000001</ele>
        <time>2013-11-17T05:38:51Z</time>
      </trkpt>
      <trkpt lat="25.39551168680191" lon="110.49035330303013">
        <ele>375.60000000000002</ele>
        <time>2013-11-17T05:38:57Z</time>
      </trkpt>
      <trkpt lat="25.395474974066019" lon="110.49042002297938">
        <ele>375.5</ele>
        <time>2013-11-17T05:39:03Z</time>
      </trkpt>
      <trkpt lat="25.395438345149159" lon="110.49048833549023">
        <ele>375.39999999999998</ele>
        <time>2013-11-17T05:39:09Z</time>
      </trkpt>
      <trkpt lat="25.395401632413268" lon="110.49056167714298">
        <ele>374.30000000000001</ele>
        <time>2013-11-17T05:39:15Z</time>
      </trkpt>
      <trkpt lat="25.395349999889731" lon="110.49062998965383">
        <ele>372.60000000000002</ele>
        <time>2013-11-17T05:39:21Z</time>
      </trkpt>
      <trkpt lat="25.395295014604926" lon="110.49068665131927">
        <ele>371.80000000000001</ele>
        <time>2013-11-17T05:39:27Z</time>
      </trkpt>
      <trkpt lat="25.395225025713444" lon="110.49072830937803">
        <ele>369.30000000000001</ele>
        <time>2013-11-17T05:39:33Z</time>
      </trkpt>
      <trkpt lat="25.395181691274047" lon="110.49077834933996">
        <ele>368.39999999999998</ele>
        <time>2013-11-17T05:39:39Z</time>
      </trkpt>
      <trkpt lat="25.395180014893413" lon="110.49079000018537">
        <ele>369.69999999999999</ele>
        <time>2013-11-17T05:39:45Z</time>
      </trkpt>
      <trkpt lat="25.39514665491879" lon="110.49083668738604">
        <ele>370.19999999999999</ele>
        <time>2013-11-17T05:39:51Z</time>
      </trkpt>
      <trkpt lat="25.395131651312113" lon="110.49085336737335">
        <ele>369.80000000000001</ele>
        <time>2013-11-17T05:39:57Z</time>
      </trkpt>
      <trkpt lat="25.39511832408607" lon="110.49085831269622">
        <ele>368.60000000000002</ele>
        <time>2013-11-17T05:40:03Z</time>
      </trkpt>
      <trkpt lat="25.395108349621296" lon="110.49085831269622">
        <ele>368.39999999999998</ele>
        <time>2013-11-17T05:40:09Z</time>
      </trkpt>
      <trkpt lat="25.395106673240662" lon="110.49086669459939">
        <ele>367.5</ele>
        <time>2013-11-17T05:40:15Z</time>
      </trkpt>
      <trkpt lat="25.395103320479393" lon="110.49091832712293">
        <ele>369.30000000000001</ele>
        <time>2013-11-17T05:40:21Z</time>
      </trkpt>
      <trkpt lat="25.395126705989242" lon="110.49099166877568">
        <ele>368.69999999999999</ele>
        <time>2013-11-17T05:40:27Z</time>
      </trkpt>
      <trkpt lat="25.395158305764198" lon="110.4910683631897">
        <ele>369.39999999999998</ele>
        <time>2013-11-17T05:40:33Z</time>
      </trkpt>
      <trkpt lat="25.395181691274047" lon="110.49113667570055">
        <ele>371.5</ele>
        <time>2013-11-17T05:40:39Z</time>
      </trkpt>
      <trkpt lat="25.395191665738821" lon="110.49119836650789">
        <ele>375.60000000000002</ele>
        <time>2013-11-17T05:40:45Z</time>
      </trkpt>
      <trkpt lat="25.395206669345498" lon="110.49125670455396">
        <ele>378</ele>
        <time>2013-11-17T05:40:51Z</time>
      </trkpt>
      <trkpt lat="25.395226702094078" lon="110.49132166430354">
        <ele>377.89999999999998</ele>
        <time>2013-11-17T05:40:57Z</time>
      </trkpt>
      <trkpt lat="25.395261654630303" lon="110.49137329682708">
        <ele>376.5</ele>
        <time>2013-11-17T05:41:03Z</time>
      </trkpt>
      <trkpt lat="25.395289985463023" lon="110.49144336953759">
        <ele>376.60000000000002</ele>
        <time>2013-11-17T05:41:09Z</time>
      </trkpt>
      <trkpt lat="25.395283363759518" lon="110.49146834760904">
        <ele>377.60000000000002</ele>
        <time>2013-11-17T05:41:15Z</time>
      </trkpt>
      <trkpt lat="25.395280010998249" lon="110.49148167483509">
        <ele>378.80000000000001</ele>
        <time>2013-11-17T05:41:21Z</time>
      </trkpt>
      <trkpt lat="25.395274981856346" lon="110.49150170758367">
        <ele>378.39999999999998</ele>
        <time>2013-11-17T05:41:27Z</time>
      </trkpt>
      <trkpt lat="25.395271629095078" lon="110.49151503480971">
        <ele>378.80000000000001</ele>
        <time>2013-11-17T05:41:33Z</time>
      </trkpt>
      <trkpt lat="25.395261654630303" lon="110.49151830375195">
        <ele>381.69999999999999</ele>
        <time>2013-11-17T05:41:39Z</time>
      </trkpt>
      <trkpt lat="25.395259978249669" lon="110.49151662737131">
        <ele>383.19999999999999</ele>
        <time>2013-11-17T05:41:45Z</time>
      </trkpt>
      <trkpt lat="25.395263331010938" lon="110.49152165651321">
        <ele>382.60000000000002</ele>
        <time>2013-11-17T05:41:51Z</time>
      </trkpt>
      <trkpt lat="25.39527665823698" lon="110.49154168926179">
        <ele>381.39999999999998</ele>
        <time>2013-11-17T05:41:57Z</time>
      </trkpt>
      <trkpt lat="25.395299959927797" lon="110.49155501648784">
        <ele>379.80000000000001</ele>
        <time>2013-11-17T05:42:03Z</time>
      </trkpt>
      <trkpt lat="25.395310018211603" lon="110.49157169647515">
        <ele>381.30000000000001</ele>
        <time>2013-11-17T05:42:09Z</time>
      </trkpt>
      <trkpt lat="25.395314963534474" lon="110.49158670008183">
        <ele>383.69999999999999</ele>
        <time>2013-11-17T05:42:15Z</time>
      </trkpt>
      <trkpt lat="25.395326698198915" lon="110.49155996181071">
        <ele>377.80000000000001</ele>
        <time>2013-11-17T05:42:21Z</time>
      </trkpt>
      <trkpt lat="25.395344970747828" lon="110.49156666733325">
        <ele>376.10000000000002</ele>
        <time>2013-11-17T05:42:27Z</time>
      </trkpt>
      <trkpt lat="25.395349999889731" lon="110.49156834371388">
        <ele>373.60000000000002</ele>
        <time>2013-11-17T05:42:33Z</time>
      </trkpt>
      <trkpt lat="25.395343294367194" lon="110.49156499095261">
        <ele>373.80000000000001</ele>
        <time>2013-11-17T05:42:39Z</time>
      </trkpt>
      <trkpt lat="25.395343294367194" lon="110.49155836924911">
        <ele>373.10000000000002</ele>
        <time>2013-11-17T05:42:45Z</time>
      </trkpt>
      <trkpt lat="25.39533331990242" lon="110.49154168926179">
        <ele>373</ele>
        <time>2013-11-17T05:42:51Z</time>
      </trkpt>
      <trkpt lat="25.395334996283054" lon="110.49153666011989">
        <ele>372.80000000000001</ele>
        <time>2013-11-17T05:42:57Z</time>
      </trkpt>
      <trkpt lat="25.395326698198915" lon="110.49154663458467">
        <ele>374.10000000000002</ele>
        <time>2013-11-17T05:43:03Z</time>
      </trkpt>
      <trkpt lat="25.395323345437646" lon="110.49154001288116">
        <ele>371.69999999999999</ele>
        <time>2013-11-17T05:43:09Z</time>
      </trkpt>
      <trkpt lat="25.395313370972872" lon="110.49154168926179">
        <ele>371.80000000000001</ele>
        <time>2013-11-17T05:43:15Z</time>
      </trkpt>
      <trkpt lat="25.395319992676377" lon="110.49154168926179">
        <ele>371.69999999999999</ele>
        <time>2013-11-17T05:43:21Z</time>
      </trkpt>
      <trkpt lat="25.395321669057012" lon="110.4915483109653">
        <ele>372.30000000000001</ele>
        <time>2013-11-17T05:43:27Z</time>
      </trkpt>
      <trkpt lat="25.395314963534474" lon="110.49155166372657">
        <ele>373.30000000000001</ele>
        <time>2013-11-17T05:43:33Z</time>
      </trkpt>
      <trkpt lat="25.395293338224292" lon="110.49154336564243">
        <ele>376.5</ele>
        <time>2013-11-17T05:43:39Z</time>
      </trkpt>
      <trkpt lat="25.395281687378883" lon="110.49154168926179">
        <ele>377.39999999999998</ele>
        <time>2013-11-17T05:43:45Z</time>
      </trkpt>
      <trkpt lat="25.395278334617615" lon="110.49152165651321">
        <ele>378.60000000000002</ele>
        <time>2013-11-17T05:43:51Z</time>
      </trkpt>
      <trkpt lat="25.395265007391572" lon="110.49152668565512">
        <ele>381.5</ele>
        <time>2013-11-17T05:43:57Z</time>
      </trkpt>
      <trkpt lat="25.395261654630303" lon="110.49153833650053">
        <ele>381.69999999999999</ele>
        <time>2013-11-17T05:44:03Z</time>
      </trkpt>
      <trkpt lat="25.395273305475712" lon="110.49156163819134">
        <ele>381.39999999999998</ele>
        <time>2013-11-17T05:44:09Z</time>
      </trkpt>
      <trkpt lat="25.395286632701755" lon="110.4915916454047">
        <ele>380.30000000000001</ele>
        <time>2013-11-17T05:44:15Z</time>
      </trkpt>
      <trkpt lat="25.39529669098556" lon="110.49162835814059">
        <ele>378.80000000000001</ele>
        <time>2013-11-17T05:44:21Z</time>
      </trkpt>
      <trkpt lat="25.39529669098556" lon="110.49165836535394">
        <ele>376.89999999999998</ele>
        <time>2013-11-17T05:44:27Z</time>
      </trkpt>
      <trkpt lat="25.395270036533475" lon="110.49168166704476">
        <ele>375</ele>
        <time>2013-11-17T05:44:33Z</time>
      </trkpt>
      <trkpt lat="25.395221672952175" lon="110.4917000234127">
        <ele>374</ele>
        <time>2013-11-17T05:44:39Z</time>
      </trkpt>
      <trkpt lat="25.395183367654681" lon="110.49170496873558">
        <ele>373.19999999999999</ele>
        <time>2013-11-17T05:44:45Z</time>
      </trkpt>
      <trkpt lat="25.395148331299424" lon="110.4917000234127">
        <ele>373</ele>
        <time>2013-11-17T05:44:51Z</time>
      </trkpt>
      <trkpt lat="25.395113294944167" lon="110.49169164150953">
        <ele>371.89999999999998</ele>
        <time>2013-11-17T05:44:57Z</time>
      </trkpt>
      <trkpt lat="25.395074989646673" lon="110.4916899651289">
        <ele>371.80000000000001</ele>
        <time>2013-11-17T05:45:03Z</time>
      </trkpt>
      <trkpt lat="25.395046658813953" lon="110.49168334342539">
        <ele>371.19999999999999</ele>
        <time>2013-11-17T05:45:09Z</time>
      </trkpt>
      <trkpt lat="25.395003324374557" lon="110.49168501980603">
        <ele>369.80000000000001</ele>
        <time>2013-11-17T05:45:15Z</time>
      </trkpt>
      <trkpt lat="25.394954960793257" lon="110.49167169257998">
        <ele>369.39999999999998</ele>
        <time>2013-11-17T05:45:21Z</time>
      </trkpt>
      <trkpt lat="25.394896706566215" lon="110.4916516598314">
        <ele>369.10000000000002</ele>
        <time>2013-11-17T05:45:27Z</time>
      </trkpt>
      <trkpt lat="25.39484666660428" lon="110.49163003452122">
        <ele>369.80000000000001</ele>
        <time>2013-11-17T05:45:33Z</time>
      </trkpt>
      <trkpt lat="25.394820012152195" lon="110.49161829985678">
        <ele>370</ele>
        <time>2013-11-17T05:45:39Z</time>
      </trkpt>
      <trkpt lat="25.394799979403615" lon="110.49161335453391">
        <ele>368.30000000000001</ele>
        <time>2013-11-17T05:45:45Z</time>
      </trkpt>
      <trkpt lat="25.394784975796938" lon="110.49160497263074">
        <ele>367.30000000000001</ele>
        <time>2013-11-17T05:45:51Z</time>
      </trkpt>
      <trkpt lat="25.39477332495153" lon="110.49159499816597">
        <ele>367.69999999999999</ele>
        <time>2013-11-17T05:45:57Z</time>
      </trkpt>
      <trkpt lat="25.394761674106121" lon="110.49159332178533">
        <ele>368</ele>
        <time>2013-11-17T05:46:03Z</time>
      </trkpt>
      <trkpt lat="25.394743317738175" lon="110.49158334732056">
        <ele>369.19999999999999</ele>
        <time>2013-11-17T05:46:09Z</time>
      </trkpt>
      <trkpt lat="25.394729990512133" lon="110.49157664179802">
        <ele>371.30000000000001</ele>
        <time>2013-11-17T05:46:15Z</time>
      </trkpt>
      <trkpt lat="25.394741641357541" lon="110.49157831817865">
        <ele>372.89999999999998</ele>
        <time>2013-11-17T05:46:21Z</time>
      </trkpt>
      <trkpt lat="25.394761674106121" lon="110.49162500537932">
        <ele>373.5</ele>
        <time>2013-11-17T05:46:27Z</time>
      </trkpt>
      <trkpt lat="25.39477332495153" lon="110.49166666343808">
        <ele>370.39999999999998</ele>
        <time>2013-11-17T05:46:33Z</time>
      </trkpt>
      <trkpt lat="25.394781706854701" lon="110.49169331789017">
        <ele>368</ele>
        <time>2013-11-17T05:46:39Z</time>
      </trkpt>
      <trkpt lat="25.394791681319475" lon="110.49170832149684">
        <ele>366</ele>
        <time>2013-11-17T05:46:45Z</time>
      </trkpt>
      <trkpt lat="25.394811630249023" lon="110.49171997234225">
        <ele>365.30000000000001</ele>
        <time>2013-11-17T05:46:51Z</time>
      </trkpt>
      <trkpt lat="25.3948266338557" lon="110.49172667786479">
        <ele>365.30000000000001</ele>
        <time>2013-11-17T05:46:57Z</time>
      </trkpt>
      <trkpt lat="25.394839961081743" lon="110.49171502701938">
        <ele>366.69999999999999</ele>
        <time>2013-11-17T05:47:03Z</time>
      </trkpt>
      <trkpt lat="25.394831662997603" lon="110.4916899651289">
        <ele>367.80000000000001</ele>
        <time>2013-11-17T05:47:09Z</time>
      </trkpt>
      <trkpt lat="25.394821688532829" lon="110.49169164150953">
        <ele>368.19999999999999</ele>
        <time>2013-11-17T05:47:15Z</time>
      </trkpt>
      <trkpt lat="25.394803332164884" lon="110.49167001619935">
        <ele>368</ele>
        <time>2013-11-17T05:47:21Z</time>
      </trkpt>
      <trkpt lat="25.394783299416304" lon="110.49165501259267">
        <ele>368.39999999999998</ele>
        <time>2013-11-17T05:47:27Z</time>
      </trkpt>
      <trkpt lat="25.394761674106121" lon="110.49163665622473">
        <ele>369.10000000000002</ele>
        <time>2013-11-17T05:47:33Z</time>
      </trkpt>
      <trkpt lat="25.394751699641347" lon="110.49162165261805">
        <ele>368.39999999999998</ele>
        <time>2013-11-17T05:47:39Z</time>
      </trkpt>
      <trkpt lat="25.394738372415304" lon="110.49158829264343">
        <ele>368.5</ele>
        <time>2013-11-17T05:47:45Z</time>
      </trkpt>
      <trkpt lat="25.394706688821316" lon="110.49155836924911">
        <ele>368.89999999999998</ele>
        <time>2013-11-17T05:47:51Z</time>
      </trkpt>
      <trkpt lat="25.39465170353651" lon="110.49154001288116">
        <ele>371.60000000000002</ele>
        <time>2013-11-17T05:47:57Z</time>
      </trkpt>
      <trkpt lat="25.394601663574576" lon="110.49153003841639">
        <ele>374</ele>
        <time>2013-11-17T05:48:03Z</time>
      </trkpt>
      <trkpt lat="25.394563358277082" lon="110.49150832928717">
        <ele>375.69999999999999</ele>
        <time>2013-11-17T05:48:09Z</time>
      </trkpt>
      <trkpt lat="25.394518347457051" lon="110.49148335121572">
        <ele>373</ele>
        <time>2013-11-17T05:48:15Z</time>
      </trkpt>
      <trkpt lat="25.394503343850374" lon="110.49147002398968">
        <ele>372.30000000000001</ele>
        <time>2013-11-17T05:48:21Z</time>
      </trkpt>
      <trkpt lat="25.394451627507806" lon="110.49145166762173">
        <ele>372.89999999999998</ele>
        <time>2013-11-17T05:48:27Z</time>
      </trkpt>
      <trkpt lat="25.394381638616323" lon="110.49143834039569">
        <ele>372.89999999999998</ele>
        <time>2013-11-17T05:48:33Z</time>
      </trkpt>
      <trkpt lat="25.394324976950884" lon="110.49141830764711">
        <ele>375.10000000000002</ele>
        <time>2013-11-17T05:48:39Z</time>
      </trkpt>
      <trkpt lat="25.39427837356925" lon="110.49142668955028">
        <ele>374.19999999999999</ele>
        <time>2013-11-17T05:48:45Z</time>
      </trkpt>
      <trkpt lat="25.394226657226682" lon="110.49142501316965">
        <ele>373</ele>
        <time>2013-11-17T05:48:51Z</time>
      </trkpt>
      <trkpt lat="25.394164966419339" lon="110.49142501316965">
        <ele>370</ele>
        <time>2013-11-17T05:48:57Z</time>
      </trkpt>
      <trkpt lat="25.394141664728522" lon="110.4914116859436">
        <ele>370.5</ele>
        <time>2013-11-17T05:49:03Z</time>
      </trkpt>
      <trkpt lat="25.394116686657071" lon="110.4914016276598">
        <ele>370.69999999999999</ele>
        <time>2013-11-17T05:49:09Z</time>
      </trkpt>
      <trkpt lat="25.394111657515168" lon="110.49138997681439">
        <ele>371</ele>
        <time>2013-11-17T05:49:15Z</time>
      </trkpt>
      <trkpt lat="25.394106628373265" lon="110.49138000234962">
        <ele>370.80000000000001</ele>
        <time>2013-11-17T05:49:21Z</time>
      </trkpt>
      <trkpt lat="25.394096653908491" lon="110.49137170426548">
        <ele>370.69999999999999</ele>
        <time>2013-11-17T05:49:27Z</time>
      </trkpt>
      <trkpt lat="25.394060024991632" lon="110.49136499874294">
        <ele>369.19999999999999</ele>
        <time>2013-11-17T05:49:33Z</time>
      </trkpt>
      <trkpt lat="25.394013337790966" lon="110.49132334068418">
        <ele>370</ele>
        <time>2013-11-17T05:49:39Z</time>
      </trkpt>
      <trkpt lat="25.393945025280118" lon="110.49129500985146">
        <ele>368.19999999999999</ele>
        <time>2013-11-17T05:49:45Z</time>
      </trkpt>
      <trkpt lat="25.393904959782958" lon="110.49128000624478">
        <ele>366.60000000000002</ele>
        <time>2013-11-17T05:49:51Z</time>
      </trkpt>
      <trkpt lat="25.393886687234044" lon="110.49128168262541">
        <ele>366.19999999999999</ele>
        <time>2013-11-17T05:49:57Z</time>
      </trkpt>
      <trkpt lat="25.393876628950238" lon="110.49127832986414">
        <ele>366</ele>
        <time>2013-11-17T05:50:03Z</time>
      </trkpt>
      <trkpt lat="25.393868330866098" lon="110.49127330072224">
        <ele>366</ele>
        <time>2013-11-17T05:50:09Z</time>
      </trkpt>
      <trkpt lat="25.393848298117518" lon="110.49126332625747">
        <ele>365.30000000000001</ele>
        <time>2013-11-17T05:50:15Z</time>
      </trkpt>
      <trkpt lat="25.393824996426702" lon="110.49124664627016">
        <ele>366.19999999999999</ele>
        <time>2013-11-17T05:50:21Z</time>
      </trkpt>
      <trkpt lat="25.393831701949239" lon="110.49124329350889">
        <ele>368.30000000000001</ele>
        <time>2013-11-17T05:50:27Z</time>
      </trkpt>
      <trkpt lat="25.393819967284799" lon="110.49124170094728">
        <ele>368.69999999999999</ele>
        <time>2013-11-17T05:50:33Z</time>
      </trkpt>
      <trkpt lat="25.393806640058756" lon="110.49124832265079">
        <ele>369.39999999999998</ele>
        <time>2013-11-17T05:50:39Z</time>
      </trkpt>
      <trkpt lat="25.393806640058756" lon="110.49125829711556">
        <ele>368.10000000000002</ele>
        <time>2013-11-17T05:50:45Z</time>
      </trkpt>
      <trkpt lat="25.39380831643939" lon="110.49125829711556">
        <ele>368.19999999999999</ele>
        <time>2013-11-17T05:50:51Z</time>
      </trkpt>
      <trkpt lat="25.39380001835525" lon="110.49126667901874">
        <ele>367.10000000000002</ele>
        <time>2013-11-17T05:50:57Z</time>
      </trkpt>
      <trkpt lat="25.393781661987305" lon="110.49124832265079">
        <ele>367.80000000000001</ele>
        <time>2013-11-17T05:51:03Z</time>
      </trkpt>
      <trkpt lat="25.393764981999993" lon="110.49123834818602">
        <ele>371.69999999999999</ele>
        <time>2013-11-17T05:51:09Z</time>
      </trkpt>
      <trkpt lat="25.393741680309176" lon="110.49121999181807">
        <ele>372.10000000000002</ele>
        <time>2013-11-17T05:51:15Z</time>
      </trkpt>
      <trkpt lat="25.393700022250414" lon="110.49120163545012">
        <ele>370.19999999999999</ele>
        <time>2013-11-17T05:51:21Z</time>
      </trkpt>
      <trkpt lat="25.39364998228848" lon="110.49117003567517">
        <ele>367.69999999999999</ele>
        <time>2013-11-17T05:51:27Z</time>
      </trkpt>
      <trkpt lat="25.393601702526212" lon="110.49113499931991">
        <ele>365</ele>
        <time>2013-11-17T05:51:33Z</time>
      </trkpt>
      <trkpt lat="25.393548309803009" lon="110.49108998849988">
        <ele>364.10000000000002</ele>
        <time>2013-11-17T05:51:39Z</time>
      </trkpt>
      <trkpt lat="25.393478320911527" lon="110.49105168320239">
        <ele>363.19999999999999</ele>
        <time>2013-11-17T05:51:45Z</time>
      </trkpt>
      <trkpt lat="25.393415037542582" lon="110.49105335958302">
        <ele>363.80000000000001</ele>
        <time>2013-11-17T05:51:51Z</time>
      </trkpt>
      <trkpt lat="25.39335829205811" lon="110.4910749848932">
        <ele>364.5</ele>
        <time>2013-11-17T05:51:57Z</time>
      </trkpt>
      <trkpt lat="25.393311688676476" lon="110.49107833765447">
        <ele>363.89999999999998</ele>
        <time>2013-11-17T05:52:03Z</time>
      </trkpt>
      <trkpt lat="25.393246645107865" lon="110.4910683631897">
        <ele>362.60000000000002</ele>
        <time>2013-11-17T05:52:09Z</time>
      </trkpt>
      <trkpt lat="25.393174979835749" lon="110.49108831211925">
        <ele>362.19999999999999</ele>
        <time>2013-11-17T05:52:15Z</time>
      </trkpt>
      <trkpt lat="25.393153354525566" lon="110.49110331572592">
        <ele>362.19999999999999</ele>
        <time>2013-11-17T05:52:21Z</time>
      </trkpt>
      <trkpt lat="25.393126700073481" lon="110.49110834486783">
        <ele>362</ele>
        <time>2013-11-17T05:52:27Z</time>
      </trkpt>
      <trkpt lat="25.393070038408041" lon="110.49114832654595">
        <ele>361.5</ele>
        <time>2013-11-17T05:52:33Z</time>
      </trkpt>
      <trkpt lat="25.393026703968644" lon="110.49118830822408">
        <ele>361.19999999999999</ele>
        <time>2013-11-17T05:52:39Z</time>
      </trkpt>
      <trkpt lat="25.392983369529247" lon="110.49124170094728">
        <ele>360.89999999999998</ele>
        <time>2013-11-17T05:52:45Z</time>
      </trkpt>
      <trkpt lat="25.392935005947948" lon="110.49130163155496">
        <ele>360.69999999999999</ele>
        <time>2013-11-17T05:52:51Z</time>
      </trkpt>
      <trkpt lat="25.392873315140605" lon="110.49134169705212">
        <ele>360.10000000000002</ele>
        <time>2013-11-17T05:52:57Z</time>
      </trkpt>
      <trkpt lat="25.392811708152294" lon="110.49137329682708">
        <ele>360.10000000000002</ele>
        <time>2013-11-17T05:53:03Z</time>
      </trkpt>
      <trkpt lat="25.392744988203049" lon="110.4914016276598">
        <ele>359.69999999999999</ele>
        <time>2013-11-17T05:53:09Z</time>
      </trkpt>
      <trkpt lat="25.392683297395706" lon="110.49142166040838">
        <ele>359.69999999999999</ele>
        <time>2013-11-17T05:53:15Z</time>
      </trkpt>
      <trkpt lat="25.392613308504224" lon="110.49144336953759">
        <ele>358.60000000000002</ele>
        <time>2013-11-17T05:53:21Z</time>
      </trkpt>
      <trkpt lat="25.392550025135279" lon="110.491455020383">
        <ele>358.5</ele>
        <time>2013-11-17T05:53:27Z</time>
      </trkpt>
      <trkpt lat="25.392509959638119" lon="110.49146499484777">
        <ele>357.5</ele>
        <time>2013-11-17T05:53:33Z</time>
      </trkpt>
      <trkpt lat="25.392499985173345" lon="110.49146667122841">
        <ele>357.19999999999999</ele>
        <time>2013-11-17T05:53:39Z</time>
      </trkpt>
      <trkpt lat="25.392501661553979" lon="110.49147170037031">
        <ele>356.69999999999999</ele>
        <time>2013-11-17T05:53:45Z</time>
      </trkpt>
      <trkpt lat="25.392496632412076" lon="110.49148335121572">
        <ele>356.39999999999998</ele>
        <time>2013-11-17T05:53:51Z</time>
      </trkpt>
      <trkpt lat="25.392481628805399" lon="110.49151168204844">
        <ele>354.80000000000001</ele>
        <time>2013-11-17T05:53:57Z</time>
      </trkpt>
      <trkpt lat="25.392486657947302" lon="110.49151662737131">
        <ele>355.30000000000001</ele>
        <time>2013-11-17T05:54:03Z</time>
      </trkpt>
      <trkpt lat="25.392488334327936" lon="110.49152333289385">
        <ele>355.60000000000002</ele>
        <time>2013-11-17T05:54:09Z</time>
      </trkpt>
      <trkpt lat="25.392496632412076" lon="110.49153666011989">
        <ele>351.5</ele>
        <time>2013-11-17T05:54:15Z</time>
      </trkpt>
      <trkpt lat="25.39249001070857" lon="110.49154001288116">
        <ele>353.39999999999998</ele>
        <time>2013-11-17T05:54:21Z</time>
      </trkpt>
      <trkpt lat="25.392483305186033" lon="110.49154495820403">
        <ele>351.89999999999998</ele>
        <time>2013-11-17T05:54:27Z</time>
      </trkpt>
      <trkpt lat="25.392450029030442" lon="110.49156331457198">
        <ele>352.19999999999999</ele>
        <time>2013-11-17T05:54:33Z</time>
      </trkpt>
      <trkpt lat="25.392401665449142" lon="110.4915916454047">
        <ele>353.10000000000002</ele>
        <time>2013-11-17T05:54:39Z</time>
      </trkpt>
      <trkpt lat="25.392363360151649" lon="110.49158502370119">
        <ele>353.19999999999999</ele>
        <time>2013-11-17T05:54:45Z</time>
      </trkpt>
      <trkpt lat="25.392361683771014" lon="110.49157831817865">
        <ele>353.89999999999998</ele>
        <time>2013-11-17T05:54:51Z</time>
      </trkpt>
      <trkpt lat="25.392351625487208" lon="110.49162165261805">
        <ele>355.10000000000002</ele>
        <time>2013-11-17T05:54:57Z</time>
      </trkpt>
      <trkpt lat="25.392290018498898" lon="110.49165501259267">
        <ele>354.80000000000001</ele>
        <time>2013-11-17T05:55:03Z</time>
      </trkpt>
      <trkpt lat="25.392233356833458" lon="110.49169667065144">
        <ele>355</ele>
        <time>2013-11-17T05:55:09Z</time>
      </trkpt>
      <trkpt lat="25.392186669632792" lon="110.49174997955561">
        <ele>355.69999999999999</ele>
        <time>2013-11-17T05:55:15Z</time>
      </trkpt>
      <trkpt lat="25.392143335193396" lon="110.49180664122105">
        <ele>356.5</ele>
        <time>2013-11-17T05:55:21Z</time>
      </trkpt>
      <trkpt lat="25.392105029895902" lon="110.49187503755093">
        <ele>356.39999999999998</ele>
        <time>2013-11-17T05:55:27Z</time>
      </trkpt>
      <trkpt lat="25.392060019075871" lon="110.49192331731319">
        <ele>355.69999999999999</ele>
        <time>2013-11-17T05:55:33Z</time>
      </trkpt>
      <trkpt lat="25.392005033791065" lon="110.49196665175259">
        <ele>354.69999999999999</ele>
        <time>2013-11-17T05:55:39Z</time>
      </trkpt>
      <trkpt lat="25.3919583465904" lon="110.49202331341803">
        <ele>354.69999999999999</ele>
        <time>2013-11-17T05:55:45Z</time>
      </trkpt>
      <trkpt lat="25.391920041292906" lon="110.4920816514641">
        <ele>355.30000000000001</ele>
        <time>2013-11-17T05:55:51Z</time>
      </trkpt>
      <trkpt lat="25.391876706853509" lon="110.49213336780667">
        <ele>355.39999999999998</ele>
        <time>2013-11-17T05:55:57Z</time>
      </trkpt>
      <trkpt lat="25.391836641356349" lon="110.49218667671084">
        <ele>356.19999999999999</ele>
        <time>2013-11-17T05:56:03Z</time>
      </trkpt>
      <trkpt lat="25.391786685213447" lon="110.4922233056277">
        <ele>357.5</ele>
        <time>2013-11-17T05:56:09Z</time>
      </trkpt>
      <trkpt lat="25.391745027154684" lon="110.49224333837628">
        <ele>356.89999999999998</ele>
        <time>2013-11-17T05:56:15Z</time>
      </trkpt>
      <trkpt lat="25.391679983586073" lon="110.49224669113755">
        <ele>356.39999999999998</ele>
        <time>2013-11-17T05:56:21Z</time>
      </trkpt>
      <trkpt lat="25.39161829277873" lon="110.4922666400671">
        <ele>356.30000000000001</ele>
        <time>2013-11-17T05:56:27Z</time>
      </trkpt>
      <trkpt lat="25.391553333029151" lon="110.49228834919631">
        <ele>355.69999999999999</ele>
        <time>2013-11-17T05:56:33Z</time>
      </trkpt>
      <trkpt lat="25.391486696898937" lon="110.49230829812586">
        <ele>356.19999999999999</ele>
        <time>2013-11-17T05:56:39Z</time>
      </trkpt>
      <trkpt lat="25.391418300569057" lon="110.49233168363571">
        <ele>356.5</ele>
        <time>2013-11-17T05:56:45Z</time>
      </trkpt>
      <trkpt lat="25.391351664438844" lon="110.4923583380878">
        <ele>356.5</ele>
        <time>2013-11-17T05:56:51Z</time>
      </trkpt>
      <trkpt lat="25.39129332639277" lon="110.49239337444305">
        <ele>356.19999999999999</ele>
        <time>2013-11-17T05:56:57Z</time>
      </trkpt>
      <trkpt lat="25.39127329364419" lon="110.49242665059865">
        <ele>354.69999999999999</ele>
        <time>2013-11-17T05:57:03Z</time>
      </trkpt>
      <trkpt lat="25.391248315572739" lon="110.49242832697928">
        <ele>354.5</ele>
        <time>2013-11-17T05:57:09Z</time>
      </trkpt>
      <trkpt lat="25.391229959204793" lon="110.49243335612118">
        <ele>355</ele>
        <time>2013-11-17T05:57:15Z</time>
      </trkpt>
      <trkpt lat="25.391218308359385" lon="110.49243670888245">
        <ele>354.89999999999998</ele>
        <time>2013-11-17T05:57:21Z</time>
      </trkpt>
      <trkpt lat="25.391186708584428" lon="110.49244835972786">
        <ele>356</ele>
        <time>2013-11-17T05:57:27Z</time>
      </trkpt>
      <trkpt lat="25.391158293932676" lon="110.49246336333454">
        <ele>356.5</ele>
        <time>2013-11-17T05:57:33Z</time>
      </trkpt>
      <trkpt lat="25.391156701371074" lon="110.49249169416726">
        <ele>356.5</ele>
        <time>2013-11-17T05:57:39Z</time>
      </trkpt>
      <trkpt lat="25.391149995848536" lon="110.49251667223871">
        <ele>357.19999999999999</ele>
        <time>2013-11-17T05:57:45Z</time>
      </trkpt>
      <trkpt lat="25.391098363325" lon="110.49253997392952">
        <ele>357</ele>
        <time>2013-11-17T05:57:51Z</time>
      </trkpt>
      <trkpt lat="25.391038348898292" lon="110.4925483558327">
        <ele>357.69999999999999</ele>
        <time>2013-11-17T05:57:57Z</time>
      </trkpt>
      <trkpt lat="25.390976658090949" lon="110.49257668666542">
        <ele>359.30000000000001</ele>
        <time>2013-11-17T05:58:03Z</time>
      </trkpt>
      <trkpt lat="25.390918320044875" lon="110.4926083702594">
        <ele>360.69999999999999</ele>
        <time>2013-11-17T05:58:09Z</time>
      </trkpt>
      <trkpt lat="25.390856629237533" lon="110.49263829365373">
        <ele>361</ele>
        <time>2013-11-17T05:58:15Z</time>
      </trkpt>
      <trkpt lat="25.390798291191459" lon="110.49267165362835">
        <ele>361.19999999999999</ele>
        <time>2013-11-17T05:58:21Z</time>
      </trkpt>
      <trkpt lat="25.390740036964417" lon="110.49270995892584">
        <ele>361</ele>
        <time>2013-11-17T05:58:27Z</time>
      </trkpt>
      <trkpt lat="25.390693349763751" lon="110.49275329336524">
        <ele>361.5</ele>
        <time>2013-11-17T05:58:33Z</time>
      </trkpt>
      <trkpt lat="25.390651691704988" lon="110.49280836246908">
        <ele>361</ele>
        <time>2013-11-17T05:58:39Z</time>
      </trkpt>
      <trkpt lat="25.390631658956409" lon="110.49282495863736">
        <ele>360.39999999999998</ele>
        <time>2013-11-17T05:58:45Z</time>
      </trkpt>
      <trkpt lat="25.390638364478946" lon="110.49281666055322">
        <ele>360.19999999999999</ele>
        <time>2013-11-17T05:58:51Z</time>
      </trkpt>
      <trkpt lat="25.390635011717677" lon="110.49282001331449">
        <ele>359.80000000000001</ele>
        <time>2013-11-17T05:58:57Z</time>
      </trkpt>
      <trkpt lat="25.390638364478946" lon="110.49283334054053">
        <ele>360.19999999999999</ele>
        <time>2013-11-17T05:59:03Z</time>
      </trkpt>
      <trkpt lat="25.390614978969097" lon="110.49289000220597">
        <ele>360.30000000000001</ele>
        <time>2013-11-17T05:59:09Z</time>
      </trkpt>
      <trkpt lat="25.390593353658915" lon="110.49293836578727">
        <ele>360.89999999999998</ele>
        <time>2013-11-17T05:59:15Z</time>
      </trkpt>
      <trkpt lat="25.390593353658915" lon="110.49297331832349">
        <ele>359.39999999999998</ele>
        <time>2013-11-17T05:59:21Z</time>
      </trkpt>
      <trkpt lat="25.390593353658915" lon="110.49299167469144">
        <ele>358.80000000000001</ele>
        <time>2013-11-17T05:59:27Z</time>
      </trkpt>
      <trkpt lat="25.39059167727828" lon="110.49300164915621">
        <ele>358.80000000000001</ele>
        <time>2013-11-17T05:59:33Z</time>
      </trkpt>
      <trkpt lat="25.390583295375109" lon="110.49301170744002">
        <ele>360.10000000000002</ele>
        <time>2013-11-17T05:59:39Z</time>
      </trkpt>
      <trkpt lat="25.390574997290969" lon="110.49301497638226">
        <ele>361.39999999999998</ele>
        <time>2013-11-17T05:59:45Z</time>
      </trkpt>
      <trkpt lat="25.390568291768432" lon="110.49301665276289">
        <ele>362.19999999999999</ele>
        <time>2013-11-17T05:59:51Z</time>
      </trkpt>
      <trkpt lat="25.390561670064926" lon="110.49300835467875">
        <ele>362.30000000000001</ele>
        <time>2013-11-17T05:59:57Z</time>
      </trkpt>
      <trkpt lat="25.390554964542389" lon="110.49300835467875">
        <ele>362.80000000000001</ele>
        <time>2013-11-17T06:00:03Z</time>
      </trkpt>
      <trkpt lat="25.390553371980786" lon="110.49300835467875">
        <ele>362.80000000000001</ele>
        <time>2013-11-17T06:00:09Z</time>
      </trkpt>
      <trkpt lat="25.390551695600152" lon="110.49300667829812">
        <time>2013-11-17T06:00:14Z</time>
      </trkpt>
      <trkpt lat="25.390553371980786" lon="110.49300667829812">
        <ele>362.30000000000001</ele>
        <time>2013-11-17T06:00:15Z</time>
      </trkpt>
      <trkpt lat="25.390548342838883" lon="110.49300164915621">
        <ele>361.5</ele>
        <time>2013-11-17T06:00:27Z</time>
      </trkpt>
      <trkpt lat="25.390546666458249" lon="110.49299829639494">
        <ele>361.10000000000002</ele>
        <time>2013-11-17T06:00:32Z</time>
      </trkpt>
      <trkpt lat="25.390548342838883" lon="110.49299997277558">
        <ele>360.5</ele>
        <time>2013-11-17T06:00:39Z</time>
      </trkpt>
      <trkpt lat="25.390548342838883" lon="110.49299997277558">
        <ele>360.10000000000002</ele>
        <time>2013-11-17T06:00:44Z</time>
      </trkpt>
      <trkpt lat="25.390544990077615" lon="110.49299670383334">
        <ele>359.89999999999998</ele>
        <time>2013-11-17T06:00:50Z</time>
      </trkpt>
      <trkpt lat="25.39054331369698" lon="110.49299670383334">
        <ele>360</ele>
        <time>2013-11-17T06:01:08Z</time>
      </trkpt>
      <trkpt lat="25.39054331369698" lon="110.49299829639494">
        <ele>361.80000000000001</ele>
        <time>2013-11-17T06:01:26Z</time>
      </trkpt>
      <trkpt lat="25.390546666458249" lon="110.49300500191748">
        <time>2013-11-17T06:01:32Z</time>
      </trkpt>
      <trkpt lat="25.390546666458249" lon="110.49300500191748">
        <ele>362.39999999999998</ele>
        <time>2013-11-17T06:01:33Z</time>
      </trkpt>
      <trkpt lat="25.390551695600152" lon="110.49301330000162">
        <ele>362.19999999999999</ele>
        <time>2013-11-17T06:01:38Z</time>
      </trkpt>
      <trkpt lat="25.390551695600152" lon="110.49301170744002">
        <ele>362.30000000000001</ele>
        <time>2013-11-17T06:01:44Z</time>
      </trkpt>
      <trkpt lat="25.390546666458249" lon="110.49302000552416">
        <time>2013-11-17T06:01:50Z</time>
      </trkpt>
      <trkpt lat="25.390546666458249" lon="110.49302168190479">
        <ele>363.89999999999998</ele>
        <time>2013-11-17T06:01:51Z</time>
      </trkpt>
      <trkpt lat="25.39054331369698" lon="110.49302000552416">
        <ele>364.69999999999999</ele>
        <time>2013-11-17T06:01:56Z</time>
      </trkpt>
      <trkpt lat="25.390538368374109" lon="110.49302503466606">
        <time>2013-11-17T06:02:02Z</time>
      </trkpt>
      <trkpt lat="25.390538368374109" lon="110.49302503466606">
        <ele>366.60000000000002</ele>
        <time>2013-11-17T06:02:03Z</time>
      </trkpt>
      <trkpt lat="25.390529986470938" lon="110.49301832914352">
        <time>2013-11-17T06:02:08Z</time>
      </trkpt>
      <trkpt lat="25.390531662851572" lon="110.49302000552416">
        <ele>368</ele>
        <time>2013-11-17T06:02:09Z</time>
      </trkpt>
      <trkpt lat="25.390533339232206" lon="110.49302168190479">
        <ele>368</ele>
        <time>2013-11-17T06:02:14Z</time>
      </trkpt>
      <trkpt lat="25.390526633709669" lon="110.49302335828543">
        <time>2013-11-17T06:02:20Z</time>
      </trkpt>
      <trkpt lat="25.390525041148067" lon="110.49302335828543">
        <ele>369.89999999999998</ele>
        <time>2013-11-17T06:02:21Z</time>
      </trkpt>
      <trkpt lat="25.390523364767432" lon="110.49302335828543">
        <time>2013-11-17T06:02:26Z</time>
      </trkpt>
      <trkpt lat="25.390523364767432" lon="110.49302168190479">
        <ele>370.80000000000001</ele>
        <time>2013-11-17T06:02:27Z</time>
      </trkpt>
      <trkpt lat="25.390521688386798" lon="110.49301832914352">
        <time>2013-11-17T06:02:32Z</time>
      </trkpt>
      <trkpt lat="25.390521688386798" lon="110.49301665276289">
        <ele>370.89999999999998</ele>
        <time>2013-11-17T06:02:33Z</time>
      </trkpt>
      <trkpt lat="25.390521688386798" lon="110.49301330000162">
        <time>2013-11-17T06:02:44Z</time>
      </trkpt>
      <trkpt lat="25.390520012006164" lon="110.49301170744002">
        <ele>370.89999999999998</ele>
        <time>2013-11-17T06:02:45Z</time>
      </trkpt>
      <trkpt lat="25.390525041148067" lon="110.49301330000162">
        <ele>370.19999999999999</ele>
        <time>2013-11-17T06:02:51Z</time>
      </trkpt>
      <trkpt lat="25.390526633709669" lon="110.49301003105938">
        <ele>370.39999999999998</ele>
        <time>2013-11-17T06:02:57Z</time>
      </trkpt>
      <trkpt lat="25.390523364767432" lon="110.49300164915621">
        <ele>370.80000000000001</ele>
        <time>2013-11-17T06:03:03Z</time>
      </trkpt>
      <trkpt lat="25.390523364767432" lon="110.49299502745271">
        <time>2013-11-17T06:03:08Z</time>
      </trkpt>
      <trkpt lat="25.390523364767432" lon="110.49299335107207">
        <ele>371.10000000000002</ele>
        <time>2013-11-17T06:03:09Z</time>
      </trkpt>
      <trkpt lat="25.390525041148067" lon="110.49299829639494">
        <time>2013-11-17T06:03:14Z</time>
      </trkpt>
      <trkpt lat="25.390525041148067" lon="110.49299829639494">
        <ele>371.19999999999999</ele>
        <time>2013-11-17T06:03:15Z</time>
      </trkpt>
      <trkpt lat="25.390525041148067" lon="110.49299670383334">
        <time>2013-11-17T06:03:20Z</time>
      </trkpt>
      <trkpt lat="25.390525041148067" lon="110.49299829639494">
        <ele>371.30000000000001</ele>
        <time>2013-11-17T06:03:21Z</time>
      </trkpt>
      <trkpt lat="25.390528310090303" lon="110.49298664554954">
        <time>2013-11-17T06:03:32Z</time>
      </trkpt>
      <trkpt lat="25.390528310090303" lon="110.49298664554954">
        <ele>369.89999999999998</ele>
        <time>2013-11-17T06:03:33Z</time>
      </trkpt>
      <trkpt lat="25.390526633709669" lon="110.4929783474654">
        <time>2013-11-17T06:03:38Z</time>
      </trkpt>
      <trkpt lat="25.390528310090303" lon="110.4929783474654">
        <ele>369.39999999999998</ele>
        <time>2013-11-17T06:03:39Z</time>
      </trkpt>
      <trkpt lat="25.390529986470938" lon="110.49296502023935">
        <time>2013-11-17T06:03:44Z</time>
      </trkpt>
      <trkpt lat="25.390529986470938" lon="110.49296502023935">
        <ele>368.10000000000002</ele>
        <time>2013-11-17T06:03:45Z</time>
      </trkpt>
      <trkpt lat="25.390531662851572" lon="110.49295001663268">
        <time>2013-11-17T06:03:56Z</time>
      </trkpt>
      <trkpt lat="25.390531662851572" lon="110.49295336939394">
        <ele>367.5</ele>
        <time>2013-11-17T06:03:57Z</time>
      </trkpt>
      <trkpt lat="25.390531662851572" lon="110.49295663833618">
        <time>2013-11-17T06:04:02Z</time>
      </trkpt>
      <trkpt lat="25.390529986470938" lon="110.49295831471682">
        <ele>367.89999999999998</ele>
        <time>2013-11-17T06:04:03Z</time>
      </trkpt>
      <trkpt lat="25.390529986470938" lon="110.49296996556222">
        <time>2013-11-17T06:04:08Z</time>
      </trkpt>
      <trkpt lat="25.390529986470938" lon="110.49297164194286">
        <ele>368.80000000000001</ele>
        <time>2013-11-17T06:04:09Z</time>
      </trkpt>
      <trkpt lat="25.390529986470938" lon="110.4929849691689">
        <time>2013-11-17T06:04:14Z</time>
      </trkpt>
      <trkpt lat="25.390529986470938" lon="110.49298832193017">
        <ele>369.60000000000002</ele>
        <time>2013-11-17T06:04:15Z</time>
      </trkpt>
      <trkpt lat="25.390533339232206" lon="110.49300164915621">
        <ele>369.5</ele>
        <time>2013-11-17T06:04:20Z</time>
      </trkpt>
      <trkpt lat="25.390535015612841" lon="110.49301497638226">
        <ele>369.60000000000002</ele>
        <time>2013-11-17T06:04:26Z</time>
      </trkpt>
      <trkpt lat="25.390536691993475" lon="110.49302335828543">
        <time>2013-11-17T06:04:32Z</time>
      </trkpt>
      <trkpt lat="25.390538368374109" lon="110.49302503466606">
        <ele>369.39999999999998</ele>
        <time>2013-11-17T06:04:33Z</time>
      </trkpt>
      <trkpt lat="25.390539960935712" lon="110.49302997998893">
        <ele>369.60000000000002</ele>
        <time>2013-11-17T06:04:38Z</time>
      </trkpt>
      <trkpt lat="25.390541637316346" lon="110.49302997998893">
        <time>2013-11-17T06:04:44Z</time>
      </trkpt>
      <trkpt lat="25.390541637316346" lon="110.49302997998893">
        <ele>369.89999999999998</ele>
        <time>2013-11-17T06:04:45Z</time>
      </trkpt>
      <trkpt lat="25.390541637316346" lon="110.49303165636957">
        <ele>370.39999999999998</ele>
        <time>2013-11-17T06:04:56Z</time>
      </trkpt>
      <trkpt lat="25.390546666458249" lon="110.49303668551147">
        <time>2013-11-17T06:05:02Z</time>
      </trkpt>
      <trkpt lat="25.390546666458249" lon="110.49303668551147">
        <ele>369.30000000000001</ele>
        <time>2013-11-17T06:05:03Z</time>
      </trkpt>
      <trkpt lat="25.390546666458249" lon="110.49304003827274">
        <time>2013-11-17T06:05:08Z</time>
      </trkpt>
      <trkpt lat="25.390546666458249" lon="110.49304163083434">
        <ele>369.69999999999999</ele>
        <time>2013-11-17T06:05:09Z</time>
      </trkpt>
      <trkpt lat="25.390546666458249" lon="110.49304163083434">
        <ele>369.60000000000002</ele>
        <time>2013-11-17T06:05:14Z</time>
      </trkpt>
      <trkpt lat="25.390546666458249" lon="110.49304003827274">
        <ele>369.19999999999999</ele>
        <time>2013-11-17T06:05:20Z</time>
      </trkpt>
      <trkpt lat="25.390546666458249" lon="110.49304498359561">
        <time>2013-11-17T06:05:26Z</time>
      </trkpt>
      <trkpt lat="25.390548342838883" lon="110.49304330721498">
        <ele>368.89999999999998</ele>
        <time>2013-11-17T06:05:27Z</time>
      </trkpt>
      <trkpt lat="25.390551695600152" lon="110.49305001273751">
        <ele>368.39999999999998</ele>
        <time>2013-11-17T06:05:33Z</time>
      </trkpt>
      <trkpt lat="25.390554964542389" lon="110.49304665997624">
        <ele>367.89999999999998</ele>
        <time>2013-11-17T06:05:38Z</time>
      </trkpt>
      <trkpt lat="25.390561670064926" lon="110.49305168911815">
        <ele>366.89999999999998</ele>
        <time>2013-11-17T06:05:45Z</time>
      </trkpt>
      <trkpt lat="25.390568291768432" lon="110.49305336549878">
        <ele>365.60000000000002</ele>
        <time>2013-11-17T06:05:51Z</time>
      </trkpt>
      <trkpt lat="25.3905716445297" lon="110.49305336549878">
        <ele>364.89999999999998</ele>
        <time>2013-11-17T06:05:57Z</time>
      </trkpt>
      <trkpt lat="25.390573320910335" lon="110.49304833635688">
        <ele>364.60000000000002</ele>
        <time>2013-11-17T06:06:03Z</time>
      </trkpt>
      <trkpt lat="25.390576673671603" lon="110.49304665997624">
        <ele>363.80000000000001</ele>
        <time>2013-11-17T06:06:09Z</time>
      </trkpt>
      <trkpt lat="25.390576673671603" lon="110.49304330721498">
        <ele>363.60000000000002</ele>
        <time>2013-11-17T06:06:15Z</time>
      </trkpt>
      <trkpt lat="25.390580026432872" lon="110.49304330721498">
        <ele>362.69999999999999</ele>
        <time>2013-11-17T06:06:21Z</time>
      </trkpt>
      <trkpt lat="25.390580026432872" lon="110.49304665997624">
        <ele>363.30000000000001</ele>
        <time>2013-11-17T06:06:27Z</time>
      </trkpt>
      <trkpt lat="25.390569968149066" lon="110.4930333327502">
        <ele>364.60000000000002</ele>
        <time>2013-11-17T06:06:33Z</time>
      </trkpt>
      <trkpt lat="25.390574997290969" lon="110.49304833635688">
        <ele>362.5</ele>
        <time>2013-11-17T06:06:39Z</time>
      </trkpt>
      <trkpt lat="25.390578350052238" lon="110.49305998720229">
        <ele>361.89999999999998</ele>
        <time>2013-11-17T06:06:45Z</time>
      </trkpt>
      <trkpt lat="25.390580026432872" lon="110.49306166358292">
        <ele>360.30000000000001</ele>
        <time>2013-11-17T06:06:51Z</time>
      </trkpt>
      <trkpt lat="25.390578350052238" lon="110.49304330721498">
        <ele>360</ele>
        <time>2013-11-17T06:06:57Z</time>
      </trkpt>
      <trkpt lat="25.390578350052238" lon="110.49303500913084">
        <ele>359.19999999999999</ele>
        <time>2013-11-17T06:07:03Z</time>
      </trkpt>
      <trkpt lat="25.390576673671603" lon="110.49302997998893">
        <ele>359.5</ele>
        <time>2013-11-17T06:07:08Z</time>
      </trkpt>
      <trkpt lat="25.39056334644556" lon="110.49299829639494">
        <ele>362.30000000000001</ele>
        <time>2013-11-17T06:07:21Z</time>
      </trkpt>
      <trkpt lat="25.390559993684292" lon="110.49299502745271">
        <time>2013-11-17T06:07:26Z</time>
      </trkpt>
      <trkpt lat="25.390559993684292" lon="110.49299502745271">
        <ele>362.30000000000001</ele>
        <time>2013-11-17T06:07:27Z</time>
      </trkpt>
      <trkpt lat="25.390561670064926" lon="110.49298170022666">
        <ele>362.80000000000001</ele>
        <time>2013-11-17T06:07:39Z</time>
      </trkpt>
      <trkpt lat="25.390569968149066" lon="110.49297667108476">
        <ele>362.5</ele>
        <time>2013-11-17T06:07:45Z</time>
      </trkpt>
      <trkpt lat="25.3905716445297" lon="110.4929783474654">
        <ele>361.5</ele>
        <time>2013-11-17T06:08:03Z</time>
      </trkpt>
      <trkpt lat="25.390568291768432" lon="110.49296837300062">
        <time>2013-11-17T06:08:08Z</time>
      </trkpt>
      <trkpt lat="25.390569968149066" lon="110.49296502023935">
        <ele>362.39999999999998</ele>
        <time>2013-11-17T06:08:09Z</time>
      </trkpt>
      <trkpt lat="25.390578350052238" lon="110.49295831471682">
        <time>2013-11-17T06:08:26Z</time>
      </trkpt>
      <trkpt lat="25.390578350052238" lon="110.49295831471682">
        <ele>361.10000000000002</ele>
        <time>2013-11-17T06:08:27Z</time>
      </trkpt>
      <trkpt lat="25.390565022826195" lon="110.49296334385872">
        <ele>361.39999999999998</ele>
        <time>2013-11-17T06:08:38Z</time>
      </trkpt>
      <trkpt lat="25.39056334644556" lon="110.49296334385872">
        <ele>361.5</ele>
        <time>2013-11-17T06:08:44Z</time>
      </trkpt>
      <trkpt lat="25.39056334644556" lon="110.49295999109745">
        <ele>361.5</ele>
        <time>2013-11-17T06:08:56Z</time>
      </trkpt>
      <trkpt lat="25.390568291768432" lon="110.49295831471682">
        <ele>361.30000000000001</ele>
        <time>2013-11-17T06:09:02Z</time>
      </trkpt>
      <trkpt lat="25.390565022826195" lon="110.49295999109745">
        <time>2013-11-17T06:09:08Z</time>
      </trkpt>
      <trkpt lat="25.390566699206829" lon="110.49295999109745">
        <ele>360.80000000000001</ele>
        <time>2013-11-17T06:09:09Z</time>
      </trkpt>
      <trkpt lat="25.390574997290969" lon="110.49295169301331">
        <time>2013-11-17T06:09:14Z</time>
      </trkpt>
      <trkpt lat="25.390576673671603" lon="110.49295169301331">
        <ele>361.5</ele>
        <time>2013-11-17T06:09:15Z</time>
      </trkpt>
      <trkpt lat="25.390583295375109" lon="110.49294666387141">
        <time>2013-11-17T06:09:20Z</time>
      </trkpt>
      <trkpt lat="25.390583295375109" lon="110.49294666387141">
        <ele>361.39999999999998</ele>
        <time>2013-11-17T06:09:21Z</time>
      </trkpt>
      <trkpt lat="25.390588324517012" lon="110.49294498749077">
        <time>2013-11-17T06:09:26Z</time>
      </trkpt>
      <trkpt lat="25.390590000897646" lon="110.49294498749077">
        <ele>361.19999999999999</ele>
        <time>2013-11-17T06:09:27Z</time>
      </trkpt>
      <trkpt lat="25.390593353658915" lon="110.4929416347295">
        <time>2013-11-17T06:09:32Z</time>
      </trkpt>
      <trkpt lat="25.390593353658915" lon="110.4929416347295">
        <ele>361.19999999999999</ele>
        <time>2013-11-17T06:09:33Z</time>
      </trkpt>
      <trkpt lat="25.39059167727828" lon="110.49294498749077">
        <ele>360.80000000000001</ele>
        <time>2013-11-17T06:09:38Z</time>
      </trkpt>
      <trkpt lat="25.390590000897646" lon="110.49294331111014">
        <time>2013-11-17T06:09:44Z</time>
      </trkpt>
      <trkpt lat="25.390590000897646" lon="110.49294331111014">
        <ele>360.80000000000001</ele>
        <time>2013-11-17T06:09:45Z</time>
      </trkpt>
      <trkpt lat="25.390586648136377" lon="110.49294666387141">
        <time>2013-11-17T06:09:50Z</time>
      </trkpt>
      <trkpt lat="25.390584971755743" lon="110.49294834025204">
        <ele>359.5</ele>
        <time>2013-11-17T06:09:51Z</time>
      </trkpt>
      <trkpt lat="25.390584971755743" lon="110.49294498749077">
        <time>2013-11-17T06:09:56Z</time>
      </trkpt>
      <trkpt lat="25.390584971755743" lon="110.49294498749077">
        <ele>359</ele>
        <time>2013-11-17T06:09:57Z</time>
      </trkpt>
      <trkpt lat="25.390581702813506" lon="110.49294331111014">
        <time>2013-11-17T06:10:02Z</time>
      </trkpt>
      <trkpt lat="25.390581702813506" lon="110.49294331111014">
        <ele>359</ele>
        <time>2013-11-17T06:10:03Z</time>
      </trkpt>
      <trkpt lat="25.390588324517012" lon="110.49294331111014">
        <time>2013-11-17T06:10:08Z</time>
      </trkpt>
      <trkpt lat="25.390590000897646" lon="110.49295001663268">
        <ele>359.19999999999999</ele>
        <time>2013-11-17T06:10:09Z</time>
      </trkpt>
      <trkpt lat="25.390581702813506" lon="110.49295663833618">
        <time>2013-11-17T06:10:14Z</time>
      </trkpt>
      <trkpt lat="25.390580026432872" lon="110.49295663833618">
        <ele>358.60000000000002</ele>
        <time>2013-11-17T06:10:15Z</time>
      </trkpt>
      <trkpt lat="25.390580026432872" lon="110.49296166747808">
        <time>2013-11-17T06:10:20Z</time>
      </trkpt>
      <trkpt lat="25.390580026432872" lon="110.49296334385872">
        <ele>358.19999999999999</ele>
        <time>2013-11-17T06:10:21Z</time>
      </trkpt>
      <trkpt lat="25.390574997290969" lon="110.49297331832349">
        <time>2013-11-17T06:10:26Z</time>
      </trkpt>
      <trkpt lat="25.3905716445297" lon="110.49297331832349">
        <ele>358.39999999999998</ele>
        <time>2013-11-17T06:10:27Z</time>
      </trkpt>
      <trkpt lat="25.3905716445297" lon="110.49298170022666">
        <ele>357.89999999999998</ele>
        <time>2013-11-17T06:10:32Z</time>
      </trkpt>
      <trkpt lat="25.390573320910335" lon="110.49298170022666">
        <time>2013-11-17T06:10:38Z</time>
      </trkpt>
      <trkpt lat="25.390573320910335" lon="110.49298170022666">
        <ele>358.10000000000002</ele>
        <time>2013-11-17T06:10:39Z</time>
      </trkpt>
      <trkpt lat="25.390568291768432" lon="110.49298329278827">
        <time>2013-11-17T06:10:44Z</time>
      </trkpt>
      <trkpt lat="25.390568291768432" lon="110.4929849691689">
        <ele>357.60000000000002</ele>
        <time>2013-11-17T06:10:45Z</time>
      </trkpt>
      <trkpt lat="25.390558317303658" lon="110.4929849691689">
        <time>2013-11-17T06:10:50Z</time>
      </trkpt>
      <trkpt lat="25.390556640923023" lon="110.4929849691689">
        <ele>357.19999999999999</ele>
        <time>2013-11-17T06:10:51Z</time>
      </trkpt>
      <trkpt lat="25.390554964542389" lon="110.49299670383334">
        <time>2013-11-17T06:10:56Z</time>
      </trkpt>
      <trkpt lat="25.390553371980786" lon="110.49299829639494">
        <ele>356.89999999999998</ele>
        <time>2013-11-17T06:10:57Z</time>
      </trkpt>
      <trkpt lat="25.390551695600152" lon="110.49300500191748">
        <time>2013-11-17T06:11:02Z</time>
      </trkpt>
      <trkpt lat="25.390550019219518" lon="110.49300500191748">
        <ele>355.30000000000001</ele>
        <time>2013-11-17T06:11:03Z</time>
      </trkpt>
      <trkpt lat="25.390550019219518" lon="110.49300835467875">
        <time>2013-11-17T06:11:08Z</time>
      </trkpt>
      <trkpt lat="25.390550019219518" lon="110.49300835467875">
        <ele>355.19999999999999</ele>
        <time>2013-11-17T06:11:09Z</time>
      </trkpt>
      <trkpt lat="25.390550019219518" lon="110.49300667829812">
        <time>2013-11-17T06:11:14Z</time>
      </trkpt>
      <trkpt lat="25.390550019219518" lon="110.49300667829812">
        <ele>355.10000000000002</ele>
        <time>2013-11-17T06:11:15Z</time>
      </trkpt>
      <trkpt lat="25.390548342838883" lon="110.49300835467875">
        <time>2013-11-17T06:11:20Z</time>
      </trkpt>
      <trkpt lat="25.390548342838883" lon="110.49300835467875">
        <ele>355.39999999999998</ele>
        <time>2013-11-17T06:11:21Z</time>
      </trkpt>
      <trkpt lat="25.390550019219518" lon="110.49301003105938">
        <ele>355.30000000000001</ele>
        <time>2013-11-17T06:11:26Z</time>
      </trkpt>
      <trkpt lat="25.390550019219518" lon="110.49300835467875">
        <time>2013-11-17T06:11:32Z</time>
      </trkpt>
      <trkpt lat="25.390550019219518" lon="110.49300835467875">
        <ele>355.30000000000001</ele>
        <time>2013-11-17T06:11:33Z</time>
      </trkpt>
      <trkpt lat="25.390548342838883" lon="110.49300667829812">
        <time>2013-11-17T06:11:38Z</time>
      </trkpt>
      <trkpt lat="25.390548342838883" lon="110.49300500191748">
        <ele>355.80000000000001</ele>
        <time>2013-11-17T06:11:39Z</time>
      </trkpt>
      <trkpt lat="25.390550019219518" lon="110.49300500191748">
        <ele>355.60000000000002</ele>
        <time>2013-11-17T06:11:44Z</time>
      </trkpt>
      <trkpt lat="25.390550019219518" lon="110.49299997277558">
        <ele>355.30000000000001</ele>
        <time>2013-11-17T06:11:50Z</time>
      </trkpt>
      <trkpt lat="25.390546666458249" lon="110.49299335107207">
        <time>2013-11-17T06:11:56Z</time>
      </trkpt>
      <trkpt lat="25.390546666458249" lon="110.49299167469144">
        <ele>356.30000000000001</ele>
        <time>2013-11-17T06:11:57Z</time>
      </trkpt>
      <trkpt lat="25.39054331369698" lon="110.49298664554954">
        <ele>357</ele>
        <time>2013-11-17T06:12:02Z</time>
      </trkpt>
      <trkpt lat="25.39054331369698" lon="110.49298664554954">
        <time>2013-11-17T06:12:08Z</time>
      </trkpt>
      <trkpt lat="25.39054331369698" lon="110.49298664554954">
        <ele>356.89999999999998</ele>
        <time>2013-11-17T06:12:09Z</time>
      </trkpt>
      <trkpt lat="25.39054331369698" lon="110.4929849691689">
        <ele>356.5</ele>
        <time>2013-11-17T06:12:14Z</time>
      </trkpt>
      <trkpt lat="25.390539960935712" lon="110.4929783474654">
        <ele>356.80000000000001</ele>
        <time>2013-11-17T06:12:20Z</time>
      </trkpt>
      <trkpt lat="25.390546666458249" lon="110.49298329278827">
        <ele>352.30000000000001</ele>
        <time>2013-11-17T06:12:26Z</time>
      </trkpt>
      <trkpt lat="25.390584971755743" lon="110.4929849691689">
        <ele>348.69999999999999</ele>
        <time>2013-11-17T06:12:32Z</time>
      </trkpt>
      <trkpt lat="25.390573320910335" lon="110.49298002384603">
        <ele>349.10000000000002</ele>
        <time>2013-11-17T06:12:38Z</time>
      </trkpt>
      <trkpt lat="25.390574997290969" lon="110.49297331832349">
        <ele>348.80000000000001</ele>
        <time>2013-11-17T06:12:44Z</time>
      </trkpt>
      <trkpt lat="25.390573320910335" lon="110.49297164194286">
        <ele>349.19999999999999</ele>
        <time>2013-11-17T06:12:50Z</time>
      </trkpt>
      <trkpt lat="25.390565022826195" lon="110.49297164194286">
        <ele>350.5</ele>
        <time>2013-11-17T06:12:56Z</time>
      </trkpt>
      <trkpt lat="25.39056334644556" lon="110.49297499470413">
        <ele>352.19999999999999</ele>
        <time>2013-11-17T06:13:02Z</time>
      </trkpt>
      <trkpt lat="25.3905716445297" lon="110.49297331832349">
        <ele>351.5</ele>
        <time>2013-11-17T06:13:08Z</time>
      </trkpt>
      <trkpt lat="25.390573320910335" lon="110.49296996556222">
        <ele>351.89999999999998</ele>
        <time>2013-11-17T06:13:14Z</time>
      </trkpt>
      <trkpt lat="25.390573320910335" lon="110.49296669661999">
        <ele>353.69999999999999</ele>
        <time>2013-11-17T06:13:20Z</time>
      </trkpt>
      <trkpt lat="25.390548342838883" lon="110.4929849691689">
        <ele>355.19999999999999</ele>
        <time>2013-11-17T06:13:26Z</time>
      </trkpt>
      <trkpt lat="25.390503332018852" lon="110.49301497638226">
        <ele>355.39999999999998</ele>
        <time>2013-11-17T06:13:32Z</time>
      </trkpt>
      <trkpt lat="25.390456644818187" lon="110.49306166358292">
        <ele>354.39999999999998</ele>
        <time>2013-11-17T06:13:38Z</time>
      </trkpt>
      <trkpt lat="25.390411633998156" lon="110.49310667440295">
        <ele>354.5</ele>
        <time>2013-11-17T06:13:44Z</time>
      </trkpt>
      <trkpt lat="25.390368299558759" lon="110.49315503798425">
        <ele>354.19999999999999</ele>
        <time>2013-11-17T06:13:50Z</time>
      </trkpt>
      <trkpt lat="25.390326641499996" lon="110.49320499412715">
        <ele>353.80000000000001</ele>
        <time>2013-11-17T06:13:56Z</time>
      </trkpt>
      <trkpt lat="25.390298310667276" lon="110.49326500855386">
        <ele>353</ele>
        <time>2013-11-17T06:14:02Z</time>
      </trkpt>
      <trkpt lat="25.390296634286642" lon="110.49331831745803">
        <ele>352.39999999999998</ele>
        <time>2013-11-17T06:14:08Z</time>
      </trkpt>
      <trkpt lat="25.390280038118362" lon="110.49335167743266">
        <ele>353.39999999999998</ele>
        <time>2013-11-17T06:14:14Z</time>
      </trkpt>
      <trkpt lat="25.390260005369782" lon="110.4934149608016">
        <ele>353.5</ele>
        <time>2013-11-17T06:14:20Z</time>
      </trkpt>
      <trkpt lat="25.390231674537063" lon="110.49347170628607">
        <ele>353.5</ele>
        <time>2013-11-17T06:14:26Z</time>
      </trkpt>
      <trkpt lat="25.390205020084977" lon="110.49353834241629">
        <ele>353</ele>
        <time>2013-11-17T06:14:32Z</time>
      </trkpt>
      <trkpt lat="25.390183310955763" lon="110.49360162578523">
        <ele>353</ele>
        <time>2013-11-17T06:14:38Z</time>
      </trkpt>
      <trkpt lat="25.390175012871623" lon="110.49366834573448">
        <ele>352.80000000000001</ele>
        <time>2013-11-17T06:14:44Z</time>
      </trkpt>
      <trkpt lat="25.39016998372972" lon="110.49372333101928">
        <ele>353.69999999999999</ele>
        <time>2013-11-17T06:14:50Z</time>
      </trkpt>
      <trkpt lat="25.390171660110354" lon="110.49374830909073">
        <ele>353.80000000000001</ele>
        <time>2013-11-17T06:14:56Z</time>
      </trkpt>
      <trkpt lat="25.390191692858934" lon="110.49379331991076">
        <ele>354.30000000000001</ele>
        <time>2013-11-17T06:15:02Z</time>
      </trkpt>
      <trkpt lat="25.390229998156428" lon="110.4937899671495">
        <ele>354.69999999999999</ele>
        <time>2013-11-17T06:15:08Z</time>
      </trkpt>
      <trkpt lat="25.390235027298331" lon="110.4937949962914">
        <ele>353.69999999999999</ele>
        <time>2013-11-17T06:15:14Z</time>
      </trkpt>
      <trkpt lat="25.390231674537063" lon="110.4938000254333">
        <ele>354.10000000000002</ele>
        <time>2013-11-17T06:15:20Z</time>
      </trkpt>
      <trkpt lat="25.390229998156428" lon="110.49379834905267">
        <ele>353.80000000000001</ele>
        <time>2013-11-17T06:15:26Z</time>
      </trkpt>
      <trkpt lat="25.390224969014525" lon="110.49380329437554">
        <ele>353.30000000000001</ele>
        <time>2013-11-17T06:15:32Z</time>
      </trkpt>
      <trkpt lat="25.390216670930386" lon="110.49381335265934">
        <ele>354.80000000000001</ele>
        <time>2013-11-17T06:15:38Z</time>
      </trkpt>
      <trkpt lat="25.390211641788483" lon="110.49382500350475">
        <ele>355.19999999999999</ele>
        <time>2013-11-17T06:15:44Z</time>
      </trkpt>
      <trkpt lat="25.390216670930386" lon="110.49383497796953">
        <ele>354.30000000000001</ele>
        <time>2013-11-17T06:15:50Z</time>
      </trkpt>
      <trkpt lat="25.390196638181806" lon="110.49390999600291">
        <ele>354.10000000000002</ele>
        <time>2013-11-17T06:15:56Z</time>
      </trkpt>
      <trkpt lat="25.390179958194494" lon="110.49399666488171">
        <ele>353.60000000000002</ele>
        <time>2013-11-17T06:16:02Z</time>
      </trkpt>
      <trkpt lat="25.390154980123043" lon="110.49405667930841">
        <ele>354.19999999999999</ele>
        <time>2013-11-17T06:16:08Z</time>
      </trkpt>
      <trkpt lat="25.39013335481286" lon="110.49412163905799">
        <ele>356.19999999999999</ele>
        <time>2013-11-17T06:16:14Z</time>
      </trkpt>
      <trkpt lat="25.390111645683646" lon="110.49418668262661">
        <ele>357</ele>
        <time>2013-11-17T06:16:20Z</time>
      </trkpt>
      <trkpt lat="25.390111645683646" lon="110.49425834789872">
        <ele>356.60000000000002</ele>
        <time>2013-11-17T06:16:26Z</time>
      </trkpt>
      <trkpt lat="25.390116674825549" lon="110.49433495849371">
        <ele>356.69999999999999</ele>
        <time>2013-11-17T06:16:32Z</time>
      </trkpt>
      <trkpt lat="25.390116674825549" lon="110.49440167844296">
        <ele>357.30000000000001</ele>
        <time>2013-11-17T06:16:38Z</time>
      </trkpt>
      <trkpt lat="25.390103347599506" lon="110.49446831457317">
        <ele>357</ele>
        <time>2013-11-17T06:16:44Z</time>
      </trkpt>
      <trkpt lat="25.390084991231561" lon="110.49452832899988">
        <ele>357</ele>
        <time>2013-11-17T06:16:50Z</time>
      </trkpt>
      <trkpt lat="25.390064958482981" lon="110.49458666704595">
        <ele>357.5</ele>
        <time>2013-11-17T06:16:56Z</time>
      </trkpt>
      <trkpt lat="25.390053307637572" lon="110.49464835785329">
        <ele>357.69999999999999</ele>
        <time>2013-11-17T06:17:02Z</time>
      </trkpt>
      <trkpt lat="25.390046685934067" lon="110.49471499398351">
        <ele>357</ele>
        <time>2013-11-17T06:17:08Z</time>
      </trkpt>
      <trkpt lat="25.390051631256938" lon="110.49477836117148">
        <ele>357.69999999999999</ele>
        <time>2013-11-17T06:17:14Z</time>
      </trkpt>
      <trkpt lat="25.390075016766787" lon="110.49483996815979">
        <ele>357.39999999999998</ele>
        <time>2013-11-17T06:17:20Z</time>
      </trkpt>
      <trkpt lat="25.390103347599506" lon="110.49490165896714">
        <ele>357.80000000000001</ele>
        <time>2013-11-17T06:17:26Z</time>
      </trkpt>
      <trkpt lat="25.390138300135732" lon="110.49495999701321">
        <ele>358.19999999999999</ele>
        <time>2013-11-17T06:17:32Z</time>
      </trkpt>
      <trkpt lat="25.390173336490989" lon="110.49500836059451">
        <ele>358.19999999999999</ele>
        <time>2013-11-17T06:17:38Z</time>
      </trkpt>
      <trkpt lat="25.390193369239569" lon="110.49505831673741">
        <ele>357.10000000000002</ele>
        <time>2013-11-17T06:17:44Z</time>
      </trkpt>
      <trkpt lat="25.390213318169117" lon="110.49512336030602">
        <ele>356.69999999999999</ele>
        <time>2013-11-17T06:17:50Z</time>
      </trkpt>
      <trkpt lat="25.390220023691654" lon="110.49520164728165">
        <ele>356</ele>
        <time>2013-11-17T06:17:56Z</time>
      </trkpt>
      <trkpt lat="25.390224969014525" lon="110.49524330534041">
        <ele>355.30000000000001</ele>
        <time>2013-11-17T06:18:02Z</time>
      </trkpt>
      <trkpt lat="25.390228321775794" lon="110.49530331976712">
        <ele>355.5</ele>
        <time>2013-11-17T06:18:08Z</time>
      </trkpt>
      <trkpt lat="25.390235027298331" lon="110.49532829783857">
        <ele>354.39999999999998</ele>
        <time>2013-11-17T06:18:14Z</time>
      </trkpt>
      <trkpt lat="25.390238296240568" lon="110.49537003971636">
        <ele>353.69999999999999</ele>
        <time>2013-11-17T06:18:20Z</time>
      </trkpt>
      <trkpt lat="25.390236703678966" lon="110.49544665031135">
        <ele>354.60000000000002</ele>
        <time>2013-11-17T06:18:26Z</time>
      </trkpt>
      <trkpt lat="25.390248354524374" lon="110.4955199919641">
        <ele>356.60000000000002</ele>
        <time>2013-11-17T06:18:32Z</time>
      </trkpt>
      <trkpt lat="25.390271656215191" lon="110.49558335915208">
        <ele>357.69999999999999</ele>
        <time>2013-11-17T06:18:38Z</time>
      </trkpt>
      <trkpt lat="25.390305016189814" lon="110.49564337357879">
        <ele>358.10000000000002</ele>
        <time>2013-11-17T06:18:44Z</time>
      </trkpt>
      <trkpt lat="25.390326641499996" lon="110.4957049805671">
        <ele>358.5</ele>
        <time>2013-11-17T06:18:50Z</time>
      </trkpt>
      <trkpt lat="25.390335023403168" lon="110.49572836607695">
        <ele>359</ele>
        <time>2013-11-17T06:18:56Z</time>
      </trkpt>
      <trkpt lat="25.390351703390479" lon="110.49572995863855">
        <ele>358.19999999999999</ele>
        <time>2013-11-17T06:19:02Z</time>
      </trkpt>
      <trkpt lat="25.390383303165436" lon="110.49574999138713">
        <ele>359.80000000000001</ele>
        <time>2013-11-17T06:19:08Z</time>
      </trkpt>
      <trkpt lat="25.390431666746736" lon="110.49580003134906">
        <ele>362.80000000000001</ele>
        <time>2013-11-17T06:19:14Z</time>
      </trkpt>
      <trkpt lat="25.390480030328035" lon="110.49584336578846">
        <ele>365.19999999999999</ele>
        <time>2013-11-17T06:19:20Z</time>
      </trkpt>
      <trkpt lat="25.390520012006164" lon="110.495894998312">
        <ele>367.19999999999999</ele>
        <time>2013-11-17T06:19:26Z</time>
      </trkpt>
      <trkpt lat="25.390566699206829" lon="110.4959499835968">
        <ele>368.69999999999999</ele>
        <time>2013-11-17T06:19:32Z</time>
      </trkpt>
      <trkpt lat="25.390613302588463" lon="110.49600496888161">
        <ele>369.39999999999998</ele>
        <time>2013-11-17T06:19:38Z</time>
      </trkpt>
      <trkpt lat="25.39065663702786" lon="110.49606003798544">
        <ele>369.89999999999998</ele>
        <time>2013-11-17T06:19:44Z</time>
      </trkpt>
      <trkpt lat="25.390698295086622" lon="110.49611829221249">
        <ele>370.30000000000001</ele>
        <time>2013-11-17T06:19:50Z</time>
      </trkpt>
      <trkpt lat="25.390726625919342" lon="110.49617663025856">
        <ele>370.89999999999998</ele>
        <time>2013-11-17T06:19:56Z</time>
      </trkpt>
      <trkpt lat="25.390746658667922" lon="110.49624167382717">
        <ele>371.19999999999999</ele>
        <time>2013-11-17T06:20:02Z</time>
      </trkpt>
      <trkpt lat="25.390784963965416" lon="110.49630504101515">
        <ele>371.39999999999998</ele>
        <time>2013-11-17T06:20:08Z</time>
      </trkpt>
      <trkpt lat="25.390829974785447" lon="110.49636329524219">
        <ele>370</ele>
        <time>2013-11-17T06:20:14Z</time>
      </trkpt>
      <trkpt lat="25.390851683914661" lon="110.49642666243017">
        <ele>368.39999999999998</ele>
        <time>2013-11-17T06:20:20Z</time>
      </trkpt>
      <trkpt lat="25.390896694734693" lon="110.49648500047624">
        <ele>367.5</ele>
        <time>2013-11-17T06:20:26Z</time>
      </trkpt>
      <trkpt lat="25.390938352793455" lon="110.49653830938041">
        <ele>368</ele>
        <time>2013-11-17T06:20:32Z</time>
      </trkpt>
      <trkpt lat="25.390974981710315" lon="110.49660000018775">
        <ele>367.30000000000001</ele>
        <time>2013-11-17T06:20:38Z</time>
      </trkpt>
      <trkpt lat="25.391008341684937" lon="110.49666495993733">
        <ele>366.39999999999998</ele>
        <time>2013-11-17T06:20:44Z</time>
      </trkpt>
      <trkpt lat="25.391048323363066" lon="110.49670829437673">
        <ele>367.19999999999999</ele>
        <time>2013-11-17T06:20:50Z</time>
      </trkpt>
      <trkpt lat="25.391098363325" lon="110.49672170542181">
        <ele>367.39999999999998</ele>
        <time>2013-11-17T06:20:56Z</time>
      </trkpt>
      <trkpt lat="25.391159970313311" lon="110.49673167988658">
        <ele>366</ele>
        <time>2013-11-17T06:21:02Z</time>
      </trkpt>
      <trkpt lat="25.391176650300622" lon="110.49673662520945">
        <ele>365.30000000000001</ele>
        <time>2013-11-17T06:21:08Z</time>
      </trkpt>
      <trkpt lat="25.39123666472733" lon="110.49674165435135">
        <ele>366</ele>
        <time>2013-11-17T06:21:14Z</time>
      </trkpt>
      <trkpt lat="25.391270024701953" lon="110.49675003625453">
        <ele>366.60000000000002</ele>
        <time>2013-11-17T06:21:20Z</time>
      </trkpt>
      <trkpt lat="25.391328362748027" lon="110.4967650398612">
        <ele>368.80000000000001</ele>
        <time>2013-11-17T06:21:26Z</time>
      </trkpt>
      <trkpt lat="25.391381671652198" lon="110.49679663963616">
        <ele>371</ele>
        <time>2013-11-17T06:21:32Z</time>
      </trkpt>
      <trkpt lat="25.391425006091595" lon="110.49683502875268">
        <ele>371.10000000000002</ele>
        <time>2013-11-17T06:21:38Z</time>
      </trkpt>
      <trkpt lat="25.391449984163046" lon="110.49687668681145">
        <ele>370.19999999999999</ele>
        <time>2013-11-17T06:21:44Z</time>
      </trkpt>
      <trkpt lat="25.391458366066217" lon="110.49688163213432">
        <ele>370.89999999999998</ele>
        <time>2013-11-17T06:21:50Z</time>
      </trkpt>
      <trkpt lat="25.391481667757034" lon="110.49691834487021">
        <ele>371.30000000000001</ele>
        <time>2013-11-17T06:21:56Z</time>
      </trkpt>
      <trkpt lat="25.391523325815797" lon="110.49696503207088">
        <ele>371.30000000000001</ele>
        <time>2013-11-17T06:22:02Z</time>
      </trkpt>
      <trkpt lat="25.391561631113291" lon="110.49700836651027">
        <ele>371.80000000000001</ele>
        <time>2013-11-17T06:22:08Z</time>
      </trkpt>
      <trkpt lat="25.391598343849182" lon="110.49705664627254">
        <ele>371.39999999999998</ele>
        <time>2013-11-17T06:22:14Z</time>
      </trkpt>
      <trkpt lat="25.391631703823805" lon="110.49710668623447">
        <ele>372.69999999999999</ele>
        <time>2013-11-17T06:22:20Z</time>
      </trkpt>
      <trkpt lat="25.391676630824804" lon="110.49714834429324">
        <ele>374.30000000000001</ele>
        <time>2013-11-17T06:22:26Z</time>
      </trkpt>
      <trkpt lat="25.391706638038158" lon="110.49720500595868">
        <ele>375.19999999999999</ele>
        <time>2013-11-17T06:22:32Z</time>
      </trkpt>
      <trkpt lat="25.391749972477555" lon="110.49726996570826">
        <ele>375.10000000000002</ele>
        <time>2013-11-17T06:22:38Z</time>
      </trkpt>
      <trkpt lat="25.391786685213447" lon="110.49733836203814">
        <ele>375.5</ele>
        <time>2013-11-17T06:22:44Z</time>
      </trkpt>
      <trkpt lat="25.391828343272209" lon="110.49740164540708">
        <ele>374.69999999999999</ele>
        <time>2013-11-17T06:22:50Z</time>
      </trkpt>
      <trkpt lat="25.391861703246832" lon="110.49746165983379">
        <ele>376.19999999999999</ele>
        <time>2013-11-17T06:22:56Z</time>
      </trkpt>
      <trkpt lat="25.391891626641154" lon="110.49750834703445">
        <ele>379.69999999999999</ele>
        <time>2013-11-17T06:23:02Z</time>
      </trkpt>
      <trkpt lat="25.391934961080551" lon="110.49754329957068">
        <ele>380.80000000000001</ele>
        <time>2013-11-17T06:23:08Z</time>
      </trkpt>
      <trkpt lat="25.39196664467454" lon="110.49758168868721">
        <ele>382.30000000000001</ele>
        <time>2013-11-17T06:23:14Z</time>
      </trkpt>
      <trkpt lat="25.392000004649162" lon="110.49762167036533">
        <ele>385</ele>
        <time>2013-11-17T06:23:20Z</time>
      </trkpt>
      <trkpt lat="25.392036633566022" lon="110.49765829928219">
        <ele>386.89999999999998</ele>
        <time>2013-11-17T06:23:26Z</time>
      </trkpt>
      <trkpt lat="25.39206831716001" lon="110.49769836477935">
        <ele>385.5</ele>
        <time>2013-11-17T06:23:32Z</time>
      </trkpt>
      <trkpt lat="25.392111651599407" lon="110.49774496816099">
        <ele>387.10000000000002</ele>
        <time>2013-11-17T06:23:38Z</time>
      </trkpt>
      <trkpt lat="25.392158338800073" lon="110.49778662621975">
        <ele>388.80000000000001</ele>
        <time>2013-11-17T06:23:44Z</time>
      </trkpt>
      <trkpt lat="25.39220167323947" lon="110.49782501533628">
        <ele>390.5</ele>
        <time>2013-11-17T06:23:50Z</time>
      </trkpt>
      <trkpt lat="25.392254982143641" lon="110.49787832424045">
        <ele>389.80000000000001</ele>
        <time>2013-11-17T06:23:56Z</time>
      </trkpt>
      <trkpt lat="25.392296640202403" lon="110.49792836420238">
        <ele>389.10000000000002</ele>
        <time>2013-11-17T06:24:02Z</time>
      </trkpt>
      <trkpt lat="25.392346680164337" lon="110.49798502586782">
        <ele>386.89999999999998</ele>
        <time>2013-11-17T06:24:08Z</time>
      </trkpt>
      <trkpt lat="25.392394959926605" lon="110.49804168753326">
        <ele>383</ele>
        <time>2013-11-17T06:24:14Z</time>
      </trkpt>
      <trkpt lat="25.392429996281862" lon="110.4980983491987">
        <ele>379</ele>
        <time>2013-11-17T06:24:20Z</time>
      </trkpt>
      <trkpt lat="25.392454974353313" lon="110.49812332727015">
        <ele>377.60000000000002</ele>
        <time>2013-11-17T06:24:26Z</time>
      </trkpt>
      <trkpt lat="25.392476683482528" lon="110.49815165810287">
        <ele>376.89999999999998</ele>
        <time>2013-11-17T06:24:32Z</time>
      </trkpt>
      <trkpt lat="25.392493363469839" lon="110.49816330894828">
        <ele>374.89999999999998</ele>
        <time>2013-11-17T06:24:38Z</time>
      </trkpt>
      <trkpt lat="25.392501661553979" lon="110.49817169085145">
        <ele>372.69999999999999</ele>
        <time>2013-11-17T06:24:44Z</time>
      </trkpt>
      <trkpt lat="25.392516665160656" lon="110.49818334169686">
        <ele>370.19999999999999</ele>
        <time>2013-11-17T06:24:50Z</time>
      </trkpt>
      <trkpt lat="25.392521694302559" lon="110.49818166531622">
        <ele>369.5</ele>
        <time>2013-11-17T06:24:56Z</time>
      </trkpt>
      <trkpt lat="25.392524963244796" lon="110.49820002168417">
        <ele>370.69999999999999</ele>
        <time>2013-11-17T06:25:02Z</time>
      </trkpt>
      <trkpt lat="25.392533345147967" lon="110.49821670167148">
        <ele>370</ele>
        <time>2013-11-17T06:25:08Z</time>
      </trkpt>
      <trkpt lat="25.392539966851473" lon="110.49822667613626">
        <ele>369.89999999999998</ele>
        <time>2013-11-17T06:25:14Z</time>
      </trkpt>
      <trkpt lat="25.392539966851473" lon="110.49823329783976">
        <ele>369.80000000000001</ele>
        <time>2013-11-17T06:25:20Z</time>
      </trkpt>
      <trkpt lat="25.39254667237401" lon="110.49825333058834">
        <ele>370.89999999999998</ele>
        <time>2013-11-17T06:25:26Z</time>
      </trkpt>
      <trkpt lat="25.392548348754644" lon="110.49826833419502">
        <ele>370.89999999999998</ele>
        <time>2013-11-17T06:25:32Z</time>
      </trkpt>
      <trkpt lat="25.392558323219419" lon="110.49827663227916">
        <ele>371.80000000000001</ele>
        <time>2013-11-17T06:25:38Z</time>
      </trkpt>
      <trkpt lat="25.392578355967999" lon="110.49829163588583">
        <ele>373.80000000000001</ele>
        <time>2013-11-17T06:25:44Z</time>
      </trkpt>
      <trkpt lat="25.392610039561987" lon="110.49831334501505">
        <ele>375.60000000000002</ele>
        <time>2013-11-17T06:25:50Z</time>
      </trkpt>
      <trkpt lat="25.392644992098212" lon="110.49832331947982">
        <ele>376.10000000000002</ele>
        <time>2013-11-17T06:25:56Z</time>
      </trkpt>
      <trkpt lat="25.392683297395706" lon="110.49834829755127">
        <ele>377.69999999999999</ele>
        <time>2013-11-17T06:26:02Z</time>
      </trkpt>
      <trkpt lat="25.392720010131598" lon="110.49837168306112">
        <ele>378.89999999999998</ele>
        <time>2013-11-17T06:26:08Z</time>
      </trkpt>
      <trkpt lat="25.392758315429091" lon="110.49838836304843">
        <ele>380.39999999999998</ele>
        <time>2013-11-17T06:26:14Z</time>
      </trkpt>
      <trkpt lat="25.392774995416403" lon="110.49839498475194">
        <ele>380.30000000000001</ele>
        <time>2013-11-17T06:26:20Z</time>
      </trkpt>
      <trkpt lat="25.392796704545617" lon="110.49840001389384">
        <ele>378.60000000000002</ele>
        <time>2013-11-17T06:26:26Z</time>
      </trkpt>
      <trkpt lat="25.392836686223745" lon="110.49841334111989">
        <ele>377.89999999999998</ele>
        <time>2013-11-17T06:26:32Z</time>
      </trkpt>
      <trkpt lat="25.392856635153294" lon="110.49845499917865">
        <ele>377.39999999999998</ele>
        <time>2013-11-17T06:26:38Z</time>
      </trkpt>
      <trkpt lat="25.392874991521239" lon="110.49849833361804">
        <ele>377.80000000000001</ele>
        <time>2013-11-17T06:26:44Z</time>
      </trkpt>
      <trkpt lat="25.39289996959269" lon="110.49854502081871">
        <ele>378.89999999999998</ele>
        <time>2013-11-17T06:26:50Z</time>
      </trkpt>
      <trkpt lat="25.392914973199368" lon="110.4985767044127">
        <ele>381.39999999999998</ele>
        <time>2013-11-17T06:26:56Z</time>
      </trkpt>
      <trkpt lat="25.392936682328582" lon="110.49861836247146">
        <ele>382.10000000000002</ele>
        <time>2013-11-17T06:27:02Z</time>
      </trkpt>
      <trkpt lat="25.392958307638764" lon="110.49864166416228">
        <ele>380.80000000000001</ele>
        <time>2013-11-17T06:27:08Z</time>
      </trkpt>
      <trkpt lat="25.392953362315893" lon="110.49866169691086">
        <ele>379.39999999999998</ele>
        <time>2013-11-17T06:27:14Z</time>
      </trkpt>
      <trkpt lat="25.392944980412722" lon="110.49867334775627">
        <ele>379.19999999999999</ele>
        <time>2013-11-17T06:27:20Z</time>
      </trkpt>
      <trkpt lat="25.39294833317399" lon="110.49868499860168">
        <ele>377.39999999999998</ele>
        <time>2013-11-17T06:27:26Z</time>
      </trkpt>
      <trkpt lat="25.392950009554625" lon="110.49870167858899">
        <ele>375.80000000000001</ele>
        <time>2013-11-17T06:27:32Z</time>
      </trkpt>
      <trkpt lat="25.392959984019399" lon="110.49871332943439">
        <ele>376.89999999999998</ele>
        <time>2013-11-17T06:27:38Z</time>
      </trkpt>
      <trkpt lat="25.392965013161302" lon="110.49869497306645">
        <ele>378</ele>
        <time>2013-11-17T06:27:44Z</time>
      </trkpt>
      <trkpt lat="25.39296836592257" lon="110.49869002774358">
        <ele>377.5</ele>
        <time>2013-11-17T06:27:50Z</time>
      </trkpt>
      <trkpt lat="25.39296836592257" lon="110.49867167137563">
        <ele>377.60000000000002</ele>
        <time>2013-11-17T06:27:56Z</time>
      </trkpt>
      <trkpt lat="25.392966689541936" lon="110.49864836968482">
        <ele>378.80000000000001</ele>
        <time>2013-11-17T06:28:02Z</time>
      </trkpt>
      <trkpt lat="25.392965013161302" lon="110.49862833693624">
        <ele>380.80000000000001</ele>
        <time>2013-11-17T06:28:08Z</time>
      </trkpt>
      <trkpt lat="25.392966689541936" lon="110.49861333332956">
        <ele>381.89999999999998</ele>
        <time>2013-11-17T06:28:14Z</time>
      </trkpt>
      <trkpt lat="25.392965013161302" lon="110.49857997335494">
        <ele>382.69999999999999</ele>
        <time>2013-11-17T06:28:20Z</time>
      </trkpt>
      <trkpt lat="25.392959984019399" lon="110.49855667166412">
        <ele>382.89999999999998</ele>
        <time>2013-11-17T06:28:26Z</time>
      </trkpt>
      <trkpt lat="25.392938358709216" lon="110.49854502081871">
        <ele>381.80000000000001</ele>
        <time>2013-11-17T06:28:32Z</time>
      </trkpt>
      <trkpt lat="25.392908351495862" lon="110.49854166805744">
        <ele>381.30000000000001</ele>
        <time>2013-11-17T06:28:38Z</time>
      </trkpt>
      <trkpt lat="25.392869962379336" lon="110.49851166084409">
        <ele>380.80000000000001</ele>
        <time>2013-11-17T06:28:44Z</time>
      </trkpt>
      <trkpt lat="25.392836686223745" lon="110.4984799772501">
        <ele>380.89999999999998</ele>
        <time>2013-11-17T06:28:50Z</time>
      </trkpt>
      <trkpt lat="25.392808355391026" lon="110.49844670109451">
        <ele>381.39999999999998</ele>
        <time>2013-11-17T06:28:56Z</time>
      </trkpt>
      <trkpt lat="25.392803326249123" lon="110.49843496643007">
        <ele>380.19999999999999</ele>
        <time>2013-11-17T06:29:02Z</time>
      </trkpt>
      <trkpt lat="25.392799973487854" lon="110.49842834472656">
        <ele>379.69999999999999</ele>
        <time>2013-11-17T06:29:08Z</time>
      </trkpt>
      <trkpt lat="25.39278999902308" lon="110.49841837026179">
        <ele>378.69999999999999</ele>
        <time>2013-11-17T06:29:14Z</time>
      </trkpt>
      <trkpt lat="25.392783293500543" lon="110.49840998835862">
        <ele>377.69999999999999</ele>
        <time>2013-11-17T06:29:20Z</time>
      </trkpt>
      <trkpt lat="25.39276166819036" lon="110.49840169027448">
        <ele>378.69999999999999</ele>
        <time>2013-11-17T06:29:26Z</time>
      </trkpt>
      <trkpt lat="25.392738366499543" lon="110.49839330837131">
        <ele>379.69999999999999</ele>
        <time>2013-11-17T06:29:32Z</time>
      </trkpt>
      <trkpt lat="25.39271330460906" lon="110.49839666113257">
        <ele>380.30000000000001</ele>
        <time>2013-11-17T06:29:38Z</time>
      </trkpt>
      <trkpt lat="25.392674999311566" lon="110.49840663559735">
        <ele>381.30000000000001</ele>
        <time>2013-11-17T06:29:44Z</time>
      </trkpt>
      <trkpt lat="25.392650021240115" lon="110.49841334111989">
        <ele>381.80000000000001</ele>
        <time>2013-11-17T06:29:50Z</time>
      </trkpt>
      <trkpt lat="25.392651697620749" lon="110.49840831197798">
        <ele>380.5</ele>
        <time>2013-11-17T06:29:56Z</time>
      </trkpt>
      <trkpt lat="25.392643315717578" lon="110.49839666113257">
        <ele>381</ele>
        <time>2013-11-17T06:30:02Z</time>
      </trkpt>
      <trkpt lat="25.392633341252804" lon="110.49837335944176">
        <ele>381.5</ele>
        <time>2013-11-17T06:30:08Z</time>
      </trkpt>
      <trkpt lat="25.392596628516912" lon="110.49835332669318">
        <ele>381.39999999999998</ele>
        <time>2013-11-17T06:30:14Z</time>
      </trkpt>
      <trkpt lat="25.39258330129087" lon="110.49832834862173">
        <ele>379.10000000000002</ele>
        <time>2013-11-17T06:30:20Z</time>
      </trkpt>
      <trkpt lat="25.39257500320673" lon="110.49831996671855">
        <ele>374.89999999999998</ele>
        <time>2013-11-17T06:30:26Z</time>
      </trkpt>
      <trkpt lat="25.392568297684193" lon="110.49829666502774">
        <ele>373.5</ele>
        <time>2013-11-17T06:30:32Z</time>
      </trkpt>
      <trkpt lat="25.39257500320673" lon="110.49827168695629">
        <ele>372.19999999999999</ele>
        <time>2013-11-17T06:30:38Z</time>
      </trkpt>
      <trkpt lat="25.39258330129087" lon="110.49826162867248">
        <ele>371.80000000000001</ele>
        <time>2013-11-17T06:30:44Z</time>
      </trkpt>
      <trkpt lat="25.39258330129087" lon="110.49828166142106">
        <ele>378.5</ele>
        <time>2013-11-17T06:30:50Z</time>
      </trkpt>
      <trkpt lat="25.392606686800718" lon="110.49829666502774">
        <ele>382.69999999999999</ele>
        <time>2013-11-17T06:30:56Z</time>
      </trkpt>
      <trkpt lat="25.392633341252804" lon="110.49831334501505">
        <ele>381.60000000000002</ele>
        <time>2013-11-17T06:31:02Z</time>
      </trkpt>
      <trkpt lat="25.392665024846792" lon="110.49833497032523">
        <ele>380.89999999999998</ele>
        <time>2013-11-17T06:31:08Z</time>
      </trkpt>
      <trkpt lat="25.392626635730267" lon="110.49832834862173">
        <ele>379.5</ele>
        <time>2013-11-17T06:31:14Z</time>
      </trkpt>
      <trkpt lat="25.39260333403945" lon="110.49831166863441">
        <ele>380.30000000000001</ele>
        <time>2013-11-17T06:31:20Z</time>
      </trkpt>
      <trkpt lat="25.392573326826096" lon="110.49827001057565">
        <ele>378</ele>
        <time>2013-11-17T06:31:26Z</time>
      </trkpt>
      <trkpt lat="25.392556646838784" lon="110.49823665060103">
        <ele>377.30000000000001</ele>
        <time>2013-11-17T06:31:32Z</time>
      </trkpt>
      <trkpt lat="25.392556646838784" lon="110.4982349742204">
        <ele>378.19999999999999</ele>
        <time>2013-11-17T06:31:38Z</time>
      </trkpt>
      <trkpt lat="25.392573326826096" lon="110.49823832698166">
        <ele>379.80000000000001</ele>
        <time>2013-11-17T06:31:44Z</time>
      </trkpt>
      <trkpt lat="25.392598304897547" lon="110.49823665060103">
        <ele>383.5</ele>
        <time>2013-11-17T06:31:50Z</time>
      </trkpt>
      <trkpt lat="25.392614984884858" lon="110.49821670167148">
        <ele>385</ele>
        <time>2013-11-17T06:31:56Z</time>
      </trkpt>
      <trkpt lat="25.392636694014072" lon="110.49822164699435">
        <ele>386.10000000000002</ele>
        <time>2013-11-17T06:32:02Z</time>
      </trkpt>
      <trkpt lat="25.392654966562986" lon="110.49821502529085">
        <ele>383.5</ele>
        <time>2013-11-17T06:32:08Z</time>
      </trkpt>
      <trkpt lat="25.39268497377634" lon="110.49820002168417">
        <ele>383</ele>
        <time>2013-11-17T06:32:14Z</time>
      </trkpt>
      <trkpt lat="25.392714980989695" lon="110.49819499254227">
        <ele>382.80000000000001</ele>
        <time>2013-11-17T06:32:20Z</time>
      </trkpt>
      <trkpt lat="25.392735013738275" lon="110.4982016980648">
        <ele>380.5</ele>
        <time>2013-11-17T06:32:26Z</time>
      </trkpt>
      <trkpt lat="25.392754962667823" lon="110.49820664338768">
        <ele>380.69999999999999</ele>
        <time>2013-11-17T06:32:32Z</time>
      </trkpt>
      <trkpt lat="25.392778348177671" lon="110.49823170527816">
        <ele>380.5</ele>
        <time>2013-11-17T06:32:38Z</time>
      </trkpt>
      <trkpt lat="25.392808355391026" lon="110.49826498143375">
        <ele>379.69999999999999</ele>
        <time>2013-11-17T06:32:44Z</time>
      </trkpt>
      <trkpt lat="25.392829980701208" lon="110.49827998504043">
        <ele>382.30000000000001</ele>
        <time>2013-11-17T06:32:50Z</time>
      </trkpt>
      <trkpt lat="25.392844984307885" lon="110.4982949886471">
        <ele>381.60000000000002</ele>
        <time>2013-11-17T06:32:56Z</time>
      </trkpt>
      <trkpt lat="25.392876667901874" lon="110.49831996671855">
        <ele>381.19999999999999</ele>
        <time>2013-11-17T06:33:02Z</time>
      </trkpt>
      <trkpt lat="25.392901645973325" lon="110.4983383230865">
        <ele>380</ele>
        <time>2013-11-17T06:33:08Z</time>
      </trkpt>
      <trkpt lat="25.392925031483173" lon="110.49833664670587">
        <ele>380.80000000000001</ele>
        <time>2013-11-17T06:33:14Z</time>
      </trkpt>
      <trkpt lat="25.39295663125813" lon="110.49832834862173">
        <ele>379.80000000000001</ele>
        <time>2013-11-17T06:33:20Z</time>
      </trkpt>
      <trkpt lat="25.392989991232753" lon="110.4983383230865">
        <ele>377.80000000000001</ele>
        <time>2013-11-17T06:33:26Z</time>
      </trkpt>
      <trkpt lat="25.393028296530247" lon="110.49833999946713">
        <ele>378.69999999999999</ele>
        <time>2013-11-17T06:33:32Z</time>
      </trkpt>
      <trkpt lat="25.393073307350278" lon="110.49834670498967">
        <ele>379.30000000000001</ele>
        <time>2013-11-17T06:33:38Z</time>
      </trkpt>
      <trkpt lat="25.39311496540904" lon="110.4983332939446">
        <ele>379.60000000000002</ele>
        <time>2013-11-17T06:33:44Z</time>
      </trkpt>
      <trkpt lat="25.393165005370975" lon="110.49831996671855">
        <ele>379.5</ele>
        <time>2013-11-17T06:33:50Z</time>
      </trkpt>
      <trkpt lat="25.393198365345597" lon="110.49830999225378">
        <ele>377.80000000000001</ele>
        <time>2013-11-17T06:33:56Z</time>
      </trkpt>
      <trkpt lat="25.393214961513877" lon="110.49831502139568">
        <ele>381.19999999999999</ele>
        <time>2013-11-17T06:34:02Z</time>
      </trkpt>
      <trkpt lat="25.393226696178317" lon="110.49832164309919">
        <ele>385.19999999999999</ele>
        <time>2013-11-17T06:34:08Z</time>
      </trkpt>
      <trkpt lat="25.393246645107865" lon="110.49835500307381">
        <ele>387.60000000000002</ele>
        <time>2013-11-17T06:34:14Z</time>
      </trkpt>
      <trkpt lat="25.393261648714542" lon="110.49838501028717">
        <ele>388.89999999999998</ele>
        <time>2013-11-17T06:34:20Z</time>
      </trkpt>
      <trkpt lat="25.393270030617714" lon="110.49842499196529">
        <ele>388.39999999999998</ele>
        <time>2013-11-17T06:34:26Z</time>
      </trkpt>
      <trkpt lat="25.393286626785994" lon="110.49847503192723">
        <ele>385.19999999999999</ele>
        <time>2013-11-17T06:34:32Z</time>
      </trkpt>
      <trkpt lat="25.393308335915208" lon="110.49850830808282">
        <ele>385.89999999999998</ele>
        <time>2013-11-17T06:34:38Z</time>
      </trkpt>
      <trkpt lat="25.39332996122539" lon="110.49855499528348">
        <ele>386</ele>
        <time>2013-11-17T06:34:44Z</time>
      </trkpt>
      <trkpt lat="25.393361644819379" lon="110.49858164973557">
        <ele>386</ele>
        <time>2013-11-17T06:34:50Z</time>
      </trkpt>
      <trkpt lat="25.393393328413367" lon="110.49859497696161">
        <ele>385.30000000000001</ele>
        <time>2013-11-17T06:34:56Z</time>
      </trkpt>
      <trkpt lat="25.393404979258776" lon="110.49859665334225">
        <ele>387.30000000000001</ele>
        <time>2013-11-17T06:35:02Z</time>
      </trkpt>
      <trkpt lat="25.39342668838799" lon="110.49859665334225">
        <ele>388.10000000000002</ele>
        <time>2013-11-17T06:35:08Z</time>
      </trkpt>
      <trkpt lat="25.393451666459441" lon="110.49859665334225">
        <ele>385.39999999999998</ele>
        <time>2013-11-17T06:35:14Z</time>
      </trkpt>
      <trkpt lat="25.393458371981978" lon="110.49860000610352">
        <ele>383.5</ele>
        <time>2013-11-17T06:35:20Z</time>
      </trkpt>
      <trkpt lat="25.393453342840075" lon="110.49861668609083">
        <ele>381.89999999999998</ele>
        <time>2013-11-17T06:35:26Z</time>
      </trkpt>
      <trkpt lat="25.393441691994667" lon="110.49864334054291">
        <ele>382.60000000000002</ele>
        <time>2013-11-17T06:35:32Z</time>
      </trkpt>
      <trkpt lat="25.393444960936904" lon="110.49865163862705">
        <ele>381.30000000000001</ele>
        <time>2013-11-17T06:35:38Z</time>
      </trkpt>
      <trkpt lat="25.393471699208021" lon="110.49863336607814">
        <ele>378.69999999999999</ele>
        <time>2013-11-17T06:35:44Z</time>
      </trkpt>
      <trkpt lat="25.393486702814698" lon="110.49861668609083">
        <ele>377.19999999999999</ele>
        <time>2013-11-17T06:35:50Z</time>
      </trkpt>
      <trkpt lat="25.393501706421375" lon="110.49860503524542">
        <ele>379.19999999999999</ele>
        <time>2013-11-17T06:35:56Z</time>
      </trkpt>
      <trkpt lat="25.393503298982978" lon="110.49859330058098">
        <ele>381.30000000000001</ele>
        <time>2013-11-17T06:36:02Z</time>
      </trkpt>
      <trkpt lat="25.393498353660107" lon="110.49858164973557">
        <ele>381.19999999999999</ele>
        <time>2013-11-17T06:36:08Z</time>
      </trkpt>
      <trkpt lat="25.393511680886149" lon="110.49859497696161">
        <ele>378.80000000000001</ele>
        <time>2013-11-17T06:36:14Z</time>
      </trkpt>
      <trkpt lat="25.393501706421375" lon="110.49859832972288">
        <ele>380.5</ele>
        <time>2013-11-17T06:36:20Z</time>
      </trkpt>
      <trkpt lat="25.393486702814698" lon="110.49859330058098">
        <ele>387.10000000000002</ele>
        <time>2013-11-17T06:36:26Z</time>
      </trkpt>
      <trkpt lat="25.393461640924215" lon="110.49860998056829">
        <ele>391.80000000000001</ele>
        <time>2013-11-17T06:36:32Z</time>
      </trkpt>
      <trkpt lat="25.393464993685484" lon="110.49860168248415">
        <ele>392</ele>
        <time>2013-11-17T06:36:38Z</time>
      </trkpt>
      <trkpt lat="25.393481673672795" lon="110.49859330058098">
        <ele>391.30000000000001</ele>
        <time>2013-11-17T06:36:44Z</time>
      </trkpt>
      <trkpt lat="25.393504975363612" lon="110.49859497696161">
        <ele>391.60000000000002</ele>
        <time>2013-11-17T06:36:50Z</time>
      </trkpt>
      <trkpt lat="25.393530037254095" lon="110.49858500249684">
        <ele>393.19999999999999</ele>
        <time>2013-11-17T06:36:56Z</time>
      </trkpt>
      <trkpt lat="25.393549986183643" lon="110.49858667887747">
        <ele>392.69999999999999</ele>
        <time>2013-11-17T06:37:02Z</time>
      </trkpt>
      <trkpt lat="25.393568342551589" lon="110.49857335165143">
        <ele>391.69999999999999</ele>
        <time>2013-11-17T06:37:08Z</time>
      </trkpt>
      <trkpt lat="25.393583346158266" lon="110.49856496974826">
        <ele>394.80000000000001</ele>
        <time>2013-11-17T06:37:14Z</time>
      </trkpt>
      <trkpt lat="25.39361335337162" lon="110.49856329336762">
        <ele>396.60000000000002</ele>
        <time>2013-11-17T06:37:20Z</time>
      </trkpt>
      <trkpt lat="25.393631625920534" lon="110.49855834804475">
        <ele>397.30000000000001</ele>
        <time>2013-11-17T06:37:26Z</time>
      </trkpt>
      <trkpt lat="25.393638331443071" lon="110.49857502803206">
        <ele>398.60000000000002</ele>
        <time>2013-11-17T06:37:32Z</time>
      </trkpt>
      <trkpt lat="25.393666662275791" lon="110.49855667166412">
        <ele>401.10000000000002</ele>
        <time>2013-11-17T06:37:38Z</time>
      </trkpt>
      <trkpt lat="25.393696669489145" lon="110.4985349625349">
        <ele>399.19999999999999</ele>
        <time>2013-11-17T06:37:44Z</time>
      </trkpt>
      <trkpt lat="25.393721647560596" lon="110.49853169359267">
        <ele>395</ele>
        <time>2013-11-17T06:37:50Z</time>
      </trkpt>
      <trkpt lat="25.393758360296488" lon="110.49851668998599">
        <ele>391.80000000000001</ele>
        <time>2013-11-17T06:37:56Z</time>
      </trkpt>
      <trkpt lat="25.393770011141896" lon="110.49852163530886">
        <ele>391.19999999999999</ele>
        <time>2013-11-17T06:38:02Z</time>
      </trkpt>
      <trkpt lat="25.393786691129208" lon="110.49850000999868">
        <ele>391.19999999999999</ele>
        <time>2013-11-17T06:38:08Z</time>
      </trkpt>
      <trkpt lat="25.393803371116519" lon="110.49847830086946">
        <ele>391.39999999999998</ele>
        <time>2013-11-17T06:38:14Z</time>
      </trkpt>
      <trkpt lat="25.393809992820024" lon="110.4984799772501">
        <ele>390</ele>
        <time>2013-11-17T06:38:20Z</time>
      </trkpt>
      <trkpt lat="25.39380831643939" lon="110.49848165363073">
        <ele>388.19999999999999</ele>
        <time>2013-11-17T06:38:26Z</time>
      </trkpt>
      <trkpt lat="25.393813345581293" lon="110.49848165363073">
        <ele>390.10000000000002</ele>
        <time>2013-11-17T06:38:32Z</time>
      </trkpt>
      <trkpt lat="25.393818374723196" lon="110.49847830086946">
        <ele>392.69999999999999</ele>
        <time>2013-11-17T06:38:38Z</time>
      </trkpt>
      <trkpt lat="25.393813345581293" lon="110.49848333001137">
        <ele>390.69999999999999</ele>
        <time>2013-11-17T06:38:44Z</time>
      </trkpt>
      <trkpt lat="25.393815021961927" lon="110.4984799772501">
        <ele>388.39999999999998</ele>
        <time>2013-11-17T06:38:50Z</time>
      </trkpt>
      <trkpt lat="25.393816698342562" lon="110.49847830086946">
        <ele>388.89999999999998</ele>
        <time>2013-11-17T06:38:56Z</time>
      </trkpt>
      <trkpt lat="25.393819967284799" lon="110.49847503192723">
        <ele>389.89999999999998</ele>
        <time>2013-11-17T06:39:02Z</time>
      </trkpt>
      <trkpt lat="25.393845029175282" lon="110.49845667555928">
        <ele>386.69999999999999</ele>
        <time>2013-11-17T06:39:08Z</time>
      </trkpt>
      <trkpt lat="25.393853327259421" lon="110.49846002832055">
        <ele>384.10000000000002</ele>
        <time>2013-11-17T06:39:14Z</time>
      </trkpt>
      <trkpt lat="25.393855003640056" lon="110.49847335554659">
        <ele>385.60000000000002</ele>
        <time>2013-11-17T06:39:20Z</time>
      </trkpt>
      <trkpt lat="25.393851650878787" lon="110.49846832640469">
        <ele>386.60000000000002</ele>
        <time>2013-11-17T06:39:26Z</time>
      </trkpt>
      <trkpt lat="25.393838323652744" lon="110.49846002832055">
        <ele>389.80000000000001</ele>
        <time>2013-11-17T06:39:32Z</time>
      </trkpt>
      <trkpt lat="25.393818374723196" lon="110.49846002832055">
        <ele>390.39999999999998</ele>
        <time>2013-11-17T06:39:38Z</time>
      </trkpt>
      <trkpt lat="25.393818374723196" lon="110.49847000278533">
        <ele>392.39999999999998</ele>
        <time>2013-11-17T06:39:44Z</time>
      </trkpt>
      <trkpt lat="25.393821643665433" lon="110.49847503192723">
        <ele>391.10000000000002</ele>
        <time>2013-11-17T06:39:50Z</time>
      </trkpt>
      <trkpt lat="25.393840000033379" lon="110.49846002832055">
        <ele>391.19999999999999</ele>
        <time>2013-11-17T06:39:56Z</time>
      </trkpt>
      <trkpt lat="25.393860032781959" lon="110.49847335554659">
        <ele>391.19999999999999</ele>
        <time>2013-11-17T06:40:02Z</time>
      </trkpt>
      <trkpt lat="25.393875036388636" lon="110.49846665002406">
        <ele>394.19999999999999</ele>
        <time>2013-11-17T06:40:08Z</time>
      </trkpt>
      <trkpt lat="25.393903367221355" lon="110.49845835193992">
        <ele>397.69999999999999</ele>
        <time>2013-11-17T06:40:14Z</time>
      </trkpt>
      <trkpt lat="25.393921639770269" lon="110.4984799772501">
        <ele>398.80000000000001</ele>
        <time>2013-11-17T06:40:20Z</time>
      </trkpt>
      <trkpt lat="25.393941672518849" lon="110.49850503914058">
        <ele>399.5</ele>
        <time>2013-11-17T06:40:26Z</time>
      </trkpt>
      <trkpt lat="25.393958352506161" lon="110.49854166805744">
        <ele>397.89999999999998</ele>
        <time>2013-11-17T06:40:32Z</time>
      </trkpt>
      <trkpt lat="25.393993305042386" lon="110.49856664612889">
        <ele>394.69999999999999</ele>
        <time>2013-11-17T06:40:38Z</time>
      </trkpt>
      <trkpt lat="25.394011661410332" lon="110.49857997335494">
        <ele>391.5</ele>
        <time>2013-11-17T06:40:44Z</time>
      </trkpt>
      <trkpt lat="25.394030017778277" lon="110.49860000610352">
        <ele>390.80000000000001</ele>
        <time>2013-11-17T06:40:50Z</time>
      </trkpt>
      <trkpt lat="25.394034963101149" lon="110.49861500971019">
        <ele>394.39999999999998</ele>
        <time>2013-11-17T06:40:56Z</time>
      </trkpt>
      <trkpt lat="25.394039992243052" lon="110.49861836247146">
        <ele>399.89999999999998</ele>
        <time>2013-11-17T06:41:02Z</time>
      </trkpt>
      <trkpt lat="25.394061701372266" lon="110.49861165694892">
        <ele>404.89999999999998</ele>
        <time>2013-11-17T06:41:08Z</time>
      </trkpt>
      <trkpt lat="25.394069999456406" lon="110.49860662780702">
        <ele>411.39999999999998</ele>
        <time>2013-11-17T06:41:14Z</time>
      </trkpt>
      <trkpt lat="25.39407167583704" lon="110.4986266605556">
        <ele>414.39999999999998</ele>
        <time>2013-11-17T06:41:20Z</time>
      </trkpt>
      <trkpt lat="25.394066646695137" lon="110.49864669330418">
        <ele>417.5</ele>
        <time>2013-11-17T06:41:26Z</time>
      </trkpt>
      <trkpt lat="25.394068323075771" lon="110.49867670051754">
        <ele>421.39999999999998</ele>
        <time>2013-11-17T06:41:32Z</time>
      </trkpt>
      <trkpt lat="25.394075028598309" lon="110.49871500581503">
        <ele>420.39999999999998</ele>
        <time>2013-11-17T06:41:38Z</time>
      </trkpt>
      <trkpt lat="25.39409170858562" lon="110.49875498749316">
        <ele>415.69999999999999</ele>
        <time>2013-11-17T06:41:44Z</time>
      </trkpt>
      <trkpt lat="25.394096653908491" lon="110.49878834746778">
        <ele>412.80000000000001</ele>
        <time>2013-11-17T06:41:50Z</time>
      </trkpt>
      <trkpt lat="25.394111657515168" lon="110.49883000552654">
        <ele>406.30000000000001</ele>
        <time>2013-11-17T06:41:56Z</time>
      </trkpt>
      <trkpt lat="25.39412003941834" lon="110.49887333996594">
        <ele>401.39999999999998</ele>
        <time>2013-11-17T06:42:02Z</time>
      </trkpt>
      <trkpt lat="25.394113333895802" lon="110.49892329610884">
        <ele>396.30000000000001</ele>
        <time>2013-11-17T06:42:08Z</time>
      </trkpt>
      <trkpt lat="25.394109981134534" lon="110.49894668161869">
        <ele>393.30000000000001</ele>
        <time>2013-11-17T06:42:14Z</time>
      </trkpt>
      <trkpt lat="25.3941083047539" lon="110.49896168522537">
        <ele>392</ele>
        <time>2013-11-17T06:42:20Z</time>
      </trkpt>
      <trkpt lat="25.394113333895802" lon="110.49893167801201">
        <ele>394.5</ele>
        <time>2013-11-17T06:42:26Z</time>
      </trkpt>
      <trkpt lat="25.3941083047539" lon="110.49890502355993">
        <ele>398.69999999999999</ele>
        <time>2013-11-17T06:42:32Z</time>
      </trkpt>
      <trkpt lat="25.3941083047539" lon="110.49888163805008">
        <ele>401.5</ele>
        <time>2013-11-17T06:42:38Z</time>
      </trkpt>
      <trkpt lat="25.3941083047539" lon="110.49889999441803">
        <ele>400.80000000000001</ele>
        <time>2013-11-17T06:42:44Z</time>
      </trkpt>
      <trkpt lat="25.3941083047539" lon="110.49889999441803">
        <ele>402.30000000000001</ele>
        <time>2013-11-17T06:42:50Z</time>
      </trkpt>
      <trkpt lat="25.394106628373265" lon="110.49887669272721">
        <ele>410.10000000000002</ele>
        <time>2013-11-17T06:42:56Z</time>
      </trkpt>
      <trkpt lat="25.394116686657071" lon="110.49890829250216">
        <ele>403.19999999999999</ele>
        <time>2013-11-17T06:43:02Z</time>
      </trkpt>
      <trkpt lat="25.394109981134534" lon="110.49891164526343">
        <ele>403.60000000000002</ele>
        <time>2013-11-17T06:43:08Z</time>
      </trkpt>
      <trkpt lat="25.394109981134534" lon="110.49890669994056">
        <ele>406.60000000000002</ele>
        <time>2013-11-17T06:43:14Z</time>
      </trkpt>
      <trkpt lat="25.39412003941834" lon="110.49887836910784">
        <ele>412.10000000000002</ele>
        <time>2013-11-17T06:43:20Z</time>
      </trkpt>
      <trkpt lat="25.394124984741211" lon="110.49886168912053">
        <ele>418.10000000000002</ele>
        <time>2013-11-17T06:43:26Z</time>
      </trkpt>
      <trkpt lat="25.394145017489791" lon="110.49887166358531">
        <ele>418</ele>
        <time>2013-11-17T06:43:32Z</time>
      </trkpt>
      <trkpt lat="25.394158344715834" lon="110.49887166358531">
        <ele>419.80000000000001</ele>
        <time>2013-11-17T06:43:38Z</time>
      </trkpt>
      <trkpt lat="25.394181646406651" lon="110.49886831082404">
        <ele>420.10000000000002</ele>
        <time>2013-11-17T06:43:44Z</time>
      </trkpt>
      <trkpt lat="25.394208300858736" lon="110.49887669272721">
        <ele>417.60000000000002</ele>
        <time>2013-11-17T06:43:50Z</time>
      </trkpt>
      <trkpt lat="25.394251635298133" lon="110.49890334717929">
        <ele>416.80000000000001</ele>
        <time>2013-11-17T06:43:56Z</time>
      </trkpt>
      <trkpt lat="25.394308296963573" lon="110.49890502355993">
        <ele>416.89999999999998</ele>
        <time>2013-11-17T06:44:02Z</time>
      </trkpt>
      <trkpt lat="25.394333358854055" lon="110.49892664887011">
        <ele>412.19999999999999</ele>
        <time>2013-11-17T06:44:08Z</time>
      </trkpt>
      <trkpt lat="25.394369987770915" lon="110.49895665608346">
        <ele>405.30000000000001</ele>
        <time>2013-11-17T06:44:14Z</time>
      </trkpt>
      <trkpt lat="25.394390020519495" lon="110.49896168522537">
        <ele>400.19999999999999</ele>
        <time>2013-11-17T06:44:20Z</time>
      </trkpt>
      <trkpt lat="25.394401671364903" lon="110.49894668161869">
        <ele>399.30000000000001</ele>
        <time>2013-11-17T06:44:26Z</time>
      </trkpt>
      <trkpt lat="25.394409969449043" lon="110.49896000884473">
        <ele>398.39999999999998</ele>
        <time>2013-11-17T06:44:32Z</time>
      </trkpt>
      <trkpt lat="25.394435031339526" lon="110.49895162694156">
        <ele>399.5</ele>
        <time>2013-11-17T06:44:38Z</time>
      </trkpt>
      <trkpt lat="25.394461685791612" lon="110.4989533033222">
        <ele>398</ele>
        <time>2013-11-17T06:44:44Z</time>
      </trkpt>
      <trkpt lat="25.39448163472116" lon="110.4989533033222">
        <ele>396.39999999999998</ele>
        <time>2013-11-17T06:44:50Z</time>
      </trkpt>
      <trkpt lat="25.394499991089106" lon="110.49895665608346">
        <ele>394.89999999999998</ele>
        <time>2013-11-17T06:44:56Z</time>
      </trkpt>
      <trkpt lat="25.394498314708471" lon="110.49893997609615">
        <ele>398.10000000000002</ele>
        <time>2013-11-17T06:45:02Z</time>
      </trkpt>
      <trkpt lat="25.394503343850374" lon="110.49893670715392">
        <ele>396.80000000000001</ele>
        <time>2013-11-17T06:45:08Z</time>
      </trkpt>
      <trkpt lat="25.394506696611643" lon="110.49893670715392">
        <ele>396.60000000000002</ele>
        <time>2013-11-17T06:45:14Z</time>
      </trkpt>
      <trkpt lat="25.394496638327837" lon="110.49893167801201">
        <ele>400.60000000000002</ele>
        <time>2013-11-17T06:45:20Z</time>
      </trkpt>
      <trkpt lat="25.394499991089106" lon="110.49893670715392">
        <ele>400.60000000000002</ele>
        <time>2013-11-17T06:45:26Z</time>
      </trkpt>
      <trkpt lat="25.394503343850374" lon="110.49893000163138">
        <ele>400.80000000000001</ele>
        <time>2013-11-17T06:45:32Z</time>
      </trkpt>
      <trkpt lat="25.394499991089106" lon="110.49889999441803">
        <ele>404.30000000000001</ele>
        <time>2013-11-17T06:45:38Z</time>
      </trkpt>
      <trkpt lat="25.394505020231009" lon="110.49889496527612">
        <ele>406.10000000000002</ele>
        <time>2013-11-17T06:45:44Z</time>
      </trkpt>
      <trkpt lat="25.394514994695783" lon="110.4989149980247">
        <ele>403.19999999999999</ele>
        <time>2013-11-17T06:45:50Z</time>
      </trkpt>
      <trkpt lat="25.394526645541191" lon="110.49893997609615">
        <ele>400.30000000000001</ele>
        <time>2013-11-17T06:45:56Z</time>
      </trkpt>
      <trkpt lat="25.394524969160557" lon="110.49893167801201">
        <ele>405.69999999999999</ele>
        <time>2013-11-17T06:46:02Z</time>
      </trkpt>
      <trkpt lat="25.39452170021832" lon="110.49893670715392">
        <ele>408.10000000000002</ele>
        <time>2013-11-17T06:46:08Z</time>
      </trkpt>
      <trkpt lat="25.39452170021832" lon="110.49893997609615">
        <ele>410.19999999999999</ele>
        <time>2013-11-17T06:46:14Z</time>
      </trkpt>
      <trkpt lat="25.394541649147868" lon="110.49897165969014">
        <ele>408.80000000000001</ele>
        <time>2013-11-17T06:46:20Z</time>
      </trkpt>
      <trkpt lat="25.394569979980588" lon="110.4990133177489">
        <ele>404.5</ele>
        <time>2013-11-17T06:46:26Z</time>
      </trkpt>
      <trkpt lat="25.394593365490437" lon="110.49905329942703">
        <ele>399.10000000000002</ele>
        <time>2013-11-17T06:46:32Z</time>
      </trkpt>
      <trkpt lat="25.394614990800619" lon="110.49908003769815">
        <ele>395</ele>
        <time>2013-11-17T06:46:38Z</time>
      </trkpt>
      <trkpt lat="25.394633347168565" lon="110.49909504130483">
        <ele>394.69999999999999</ele>
        <time>2013-11-17T06:46:44Z</time>
      </trkpt>
      <trkpt lat="25.394643321633339" lon="110.49909168854356">
        <ele>397.60000000000002</ele>
        <time>2013-11-17T06:46:50Z</time>
      </trkpt>
      <trkpt lat="25.394653296098113" lon="110.49909168854356">
        <ele>397.19999999999999</ele>
        <time>2013-11-17T06:46:56Z</time>
      </trkpt>
      <trkpt lat="25.39466000162065" lon="110.49909001216292">
        <ele>395.89999999999998</ele>
        <time>2013-11-17T06:47:02Z</time>
      </trkpt>
      <trkpt lat="25.394665030762553" lon="110.49908498302102">
        <ele>398.5</ele>
        <time>2013-11-17T06:47:08Z</time>
      </trkpt>
      <trkpt lat="25.394676681607962" lon="110.49908003769815">
        <ele>398.89999999999998</ele>
        <time>2013-11-17T06:47:14Z</time>
      </trkpt>
      <trkpt lat="25.394681626930833" lon="110.49908163025975">
        <ele>395.10000000000002</ele>
        <time>2013-11-17T06:47:20Z</time>
      </trkpt>
      <trkpt lat="25.394681626930833" lon="110.49907165579498">
        <ele>393.19999999999999</ele>
        <time>2013-11-17T06:47:26Z</time>
      </trkpt>
      <trkpt lat="25.394675005227327" lon="110.49905497580767">
        <ele>399.10000000000002</ele>
        <time>2013-11-17T06:47:32Z</time>
      </trkpt>
      <trkpt lat="25.394666707143188" lon="110.49906335771084">
        <ele>402.30000000000001</ele>
        <time>2013-11-17T06:47:38Z</time>
      </trkpt>
      <trkpt lat="25.394658325240016" lon="110.49906830303371">
        <ele>405.5</ele>
        <time>2013-11-17T06:47:44Z</time>
      </trkpt>
      <trkpt lat="25.394666707143188" lon="110.49909831024706">
        <ele>401.39999999999998</ele>
        <time>2013-11-17T06:47:50Z</time>
      </trkpt>
      <trkpt lat="25.394676681607962" lon="110.49910996109247">
        <ele>401.5</ele>
        <time>2013-11-17T06:47:56Z</time>
      </trkpt>
      <trkpt lat="25.394684979692101" lon="110.49912999384105">
        <ele>397.89999999999998</ele>
        <time>2013-11-17T06:48:02Z</time>
      </trkpt>
      <trkpt lat="25.394691685214639" lon="110.49912831746042">
        <ele>399.10000000000002</ele>
        <time>2013-11-17T06:48:08Z</time>
      </trkpt>
      <trkpt lat="25.39469663053751" lon="110.49913669936359">
        <ele>398.89999999999998</ele>
        <time>2013-11-17T06:48:14Z</time>
      </trkpt>
      <trkpt lat="25.394693361595273" lon="110.49915329553187">
        <ele>399.10000000000002</ele>
        <time>2013-11-17T06:48:20Z</time>
      </trkpt>
      <trkpt lat="25.394703336060047" lon="110.49913334660232">
        <ele>404.19999999999999</ele>
        <time>2013-11-17T06:48:26Z</time>
      </trkpt>
      <trkpt lat="25.394726637750864" lon="110.49913334660232">
        <ele>408.39999999999998</ele>
        <time>2013-11-17T06:48:32Z</time>
      </trkpt>
      <trkpt lat="25.394733343273401" lon="110.49913167022169">
        <ele>411.39999999999998</ele>
        <time>2013-11-17T06:48:38Z</time>
      </trkpt>
      <trkpt lat="25.394746670499444" lon="110.49912831746042">
        <ele>411.39999999999998</ele>
        <time>2013-11-17T06:48:44Z</time>
      </trkpt>
      <trkpt lat="25.394759997725487" lon="110.49914332106709">
        <ele>410.19999999999999</ele>
        <time>2013-11-17T06:48:50Z</time>
      </trkpt>
      <trkpt lat="25.394771648570895" lon="110.49915170297027">
        <ele>410.80000000000001</ele>
        <time>2013-11-17T06:48:56Z</time>
      </trkpt>
      <trkpt lat="25.394795034080744" lon="110.49916997551918">
        <ele>410.30000000000001</ele>
        <time>2013-11-17T06:49:02Z</time>
      </trkpt>
      <trkpt lat="25.394805008545518" lon="110.49917668104172">
        <ele>412.30000000000001</ele>
        <time>2013-11-17T06:49:08Z</time>
      </trkpt>
      <trkpt lat="25.394814983010292" lon="110.49918497912586">
        <ele>411.19999999999999</ele>
        <time>2013-11-17T06:49:14Z</time>
      </trkpt>
      <trkpt lat="25.394818335771561" lon="110.49917668104172">
        <ele>412.30000000000001</ele>
        <time>2013-11-17T06:49:20Z</time>
      </trkpt>
      <trkpt lat="25.394831662997603" lon="110.49919662997127">
        <ele>409.89999999999998</ele>
        <time>2013-11-17T06:49:26Z</time>
      </trkpt>
      <trkpt lat="25.394841637462378" lon="110.49921163357794">
        <ele>406.80000000000001</ele>
        <time>2013-11-17T06:49:32Z</time>
      </trkpt>
      <trkpt lat="25.394861670210958" lon="110.49922001548111">
        <ele>401.60000000000002</ele>
        <time>2013-11-17T06:49:38Z</time>
      </trkpt>
      <trkpt lat="25.394873321056366" lon="110.49922831356525">
        <ele>398.19999999999999</ele>
        <time>2013-11-17T06:49:44Z</time>
      </trkpt>
      <trkpt lat="25.394881702959538" lon="110.49923669546843">
        <ele>395.80000000000001</ele>
        <time>2013-11-17T06:49:50Z</time>
      </trkpt>
      <trkpt lat="25.394890001043677" lon="110.49924499355257">
        <ele>393.60000000000002</ele>
        <time>2013-11-17T06:49:56Z</time>
      </trkpt>
      <trkpt lat="25.39489503018558" lon="110.49925329163671">
        <ele>392.30000000000001</ele>
        <time>2013-11-17T06:50:02Z</time>
      </trkpt>
      <trkpt lat="25.394906681030989" lon="110.49925832077861">
        <ele>389.5</ele>
        <time>2013-11-17T06:50:08Z</time>
      </trkpt>
      <trkpt lat="25.394910033792257" lon="110.49926502630115">
        <ele>388.19999999999999</ele>
        <time>2013-11-17T06:50:14Z</time>
      </trkpt>
      <trkpt lat="25.39490332826972" lon="110.49926502630115">
        <ele>389.39999999999998</ele>
        <time>2013-11-17T06:50:20Z</time>
      </trkpt>
      <trkpt lat="25.39489503018558" lon="110.49925999715924">
        <ele>392.10000000000002</ele>
        <time>2013-11-17T06:50:26Z</time>
      </trkpt>
      <trkpt lat="25.394890001043677" lon="110.49925496801734">
        <ele>394.30000000000001</ele>
        <time>2013-11-17T06:50:32Z</time>
      </trkpt>
      <trkpt lat="25.394884971901774" lon="110.49925496801734">
        <ele>396.60000000000002</ele>
        <time>2013-11-17T06:50:38Z</time>
      </trkpt>
      <trkpt lat="25.39488329552114" lon="110.49925496801734">
        <ele>398.30000000000001</ele>
        <time>2013-11-17T06:50:44Z</time>
      </trkpt>
      <trkpt lat="25.39488329552114" lon="110.49925496801734">
        <ele>399.60000000000002</ele>
        <time>2013-11-17T06:50:50Z</time>
      </trkpt>
      <trkpt lat="25.394884971901774" lon="110.49925002269447">
        <ele>399.89999999999998</ele>
        <time>2013-11-17T06:50:56Z</time>
      </trkpt>
      <trkpt lat="25.394884971901774" lon="110.49924499355257">
        <ele>400.89999999999998</ele>
        <time>2013-11-17T06:51:02Z</time>
      </trkpt>
      <trkpt lat="25.39488329552114" lon="110.49923837184906">
        <ele>401.89999999999998</ele>
        <time>2013-11-17T06:51:08Z</time>
      </trkpt>
      <trkpt lat="25.394876673817635" lon="110.49921498633921">
        <ele>405.30000000000001</ele>
        <time>2013-11-17T06:51:14Z</time>
      </trkpt>
      <trkpt lat="25.394878350198269" lon="110.49921498633921">
        <ele>403.80000000000001</ele>
        <time>2013-11-17T06:51:20Z</time>
      </trkpt>
      <trkpt lat="25.394869968295097" lon="110.49917835742235">
        <ele>407</ele>
        <time>2013-11-17T06:51:26Z</time>
      </trkpt>
      <trkpt lat="25.394868291914463" lon="110.49916829913855">
        <ele>409.19999999999999</ele>
        <time>2013-11-17T06:51:32Z</time>
      </trkpt>
      <trkpt lat="25.394861670210958" lon="110.49915170297027">
        <ele>413</ele>
        <time>2013-11-17T06:51:38Z</time>
      </trkpt>
      <trkpt lat="25.394858317449689" lon="110.49914667382836">
        <ele>416.89999999999998</ele>
        <time>2013-11-17T06:51:44Z</time>
      </trkpt>
      <trkpt lat="25.394851695746183" lon="110.49916167743504">
        <ele>415.19999999999999</ele>
        <time>2013-11-17T06:51:50Z</time>
      </trkpt>
      <trkpt lat="25.394861670210958" lon="110.49918162636459">
        <ele>414.80000000000001</ele>
        <time>2013-11-17T06:51:56Z</time>
      </trkpt>
      <trkpt lat="25.394871644675732" lon="110.49917835742235">
        <ele>419.30000000000001</ele>
        <time>2013-11-17T06:52:02Z</time>
      </trkpt>
      <trkpt lat="25.394878350198269" lon="110.49918330274522">
        <ele>419.80000000000001</ele>
        <time>2013-11-17T06:52:08Z</time>
      </trkpt>
      <trkpt lat="25.394893353804946" lon="110.49919662997127">
        <ele>420.10000000000002</ele>
        <time>2013-11-17T06:52:14Z</time>
      </trkpt>
      <trkpt lat="25.39491162635386" lon="110.49921004101634">
        <ele>420.10000000000002</ele>
        <time>2013-11-17T06:52:20Z</time>
      </trkpt>
      <trkpt lat="25.394938364624977" lon="110.49922336824238">
        <ele>416</ele>
        <time>2013-11-17T06:52:26Z</time>
      </trkpt>
      <trkpt lat="25.394956637173891" lon="110.49924331717193">
        <ele>413.69999999999999</ele>
        <time>2013-11-17T06:52:32Z</time>
      </trkpt>
      <trkpt lat="25.394953368231654" lon="110.49927667714655">
        <ele>409.39999999999998</ele>
        <time>2013-11-17T06:52:38Z</time>
      </trkpt>
      <trkpt lat="25.394965019077063" lon="110.49929335713387">
        <ele>405.30000000000001</ele>
        <time>2013-11-17T06:52:44Z</time>
      </trkpt>
      <trkpt lat="25.394963342696428" lon="110.49927500076592">
        <ele>410</ele>
        <time>2013-11-17T06:52:50Z</time>
      </trkpt>
      <trkpt lat="25.39498002268374" lon="110.49929997883737">
        <ele>408.89999999999998</ele>
        <time>2013-11-17T06:52:56Z</time>
      </trkpt>
      <trkpt lat="25.394988320767879" lon="110.49932168796659">
        <ele>406.80000000000001</ele>
        <time>2013-11-17T06:53:02Z</time>
      </trkpt>
      <trkpt lat="25.395001647993922" lon="110.49933333881199">
        <ele>407.30000000000001</ele>
        <time>2013-11-17T06:53:08Z</time>
      </trkpt>
      <trkpt lat="25.395026626065373" lon="110.4993399605155">
        <ele>407.89999999999998</ele>
        <time>2013-11-17T06:53:14Z</time>
      </trkpt>
      <trkpt lat="25.395035007968545" lon="110.4993449896574">
        <ele>411.69999999999999</ele>
        <time>2013-11-17T06:53:20Z</time>
      </trkpt>
      <trkpt lat="25.395038360729814" lon="110.49936996772885">
        <ele>411.5</ele>
        <time>2013-11-17T06:53:26Z</time>
      </trkpt>
      <trkpt lat="25.395043306052685" lon="110.49936502240598">
        <ele>417.19999999999999</ele>
        <time>2013-11-17T06:53:32Z</time>
      </trkpt>
      <trkpt lat="25.395050011575222" lon="110.49938170239329">
        <ele>416.10000000000002</ele>
        <time>2013-11-17T06:53:38Z</time>
      </trkpt>
      <trkpt lat="25.395056633278728" lon="110.49942503683269">
        <ele>411.30000000000001</ele>
        <time>2013-11-17T06:53:44Z</time>
      </trkpt>
      <trkpt lat="25.395066691562533" lon="110.4994366876781">
        <ele>409.39999999999998</ele>
        <time>2013-11-17T06:53:50Z</time>
      </trkpt>
      <trkpt lat="25.395071636885405" lon="110.49946669489145">
        <ele>410</ele>
        <time>2013-11-17T06:53:56Z</time>
      </trkpt>
      <trkpt lat="25.395080018788576" lon="110.49946501851082">
        <ele>415.69999999999999</ele>
        <time>2013-11-17T06:54:02Z</time>
      </trkpt>
      <trkpt lat="25.395080018788576" lon="110.49948496744037">
        <ele>414.69999999999999</ele>
        <time>2013-11-17T06:54:08Z</time>
      </trkpt>
      <trkpt lat="25.395084964111447" lon="110.49950500018895">
        <ele>415.39999999999998</ele>
        <time>2013-11-17T06:54:14Z</time>
      </trkpt>
      <trkpt lat="25.39509829133749" lon="110.49948169849813">
        <ele>419.5</ele>
        <time>2013-11-17T06:54:20Z</time>
      </trkpt>
      <trkpt lat="25.395111702382565" lon="110.49947834573686">
        <ele>422.19999999999999</ele>
        <time>2013-11-17T06:54:26Z</time>
      </trkpt>
      <trkpt lat="25.395123353227973" lon="110.4994800221175">
        <ele>423.80000000000001</ele>
        <time>2013-11-17T06:54:32Z</time>
      </trkpt>
      <trkpt lat="25.395144978538156" lon="110.49948999658227">
        <ele>421.5</ele>
        <time>2013-11-17T06:54:38Z</time>
      </trkpt>
      <trkpt lat="25.395150007680058" lon="110.49951497465372">
        <ele>418.69999999999999</ele>
        <time>2013-11-17T06:54:44Z</time>
      </trkpt>
      <trkpt lat="25.395153360441327" lon="110.49953165464103">
        <ele>421.19999999999999</ele>
        <time>2013-11-17T06:54:50Z</time>
      </trkpt>
      <trkpt lat="25.395156629383564" lon="110.49951170571148">
        <ele>426.89999999999998</ele>
        <time>2013-11-17T06:54:56Z</time>
      </trkpt>
      <trkpt lat="25.395168364048004" lon="110.49955001100898">
        <ele>422.39999999999998</ele>
        <time>2013-11-17T06:55:02Z</time>
      </trkpt>
      <trkpt lat="25.395181691274047" lon="110.49955998547375">
        <ele>419.60000000000002</ele>
        <time>2013-11-17T06:55:08Z</time>
      </trkpt>
      <trkpt lat="25.395198371261358" lon="110.49957498908043">
        <ele>416.19999999999999</ele>
        <time>2013-11-17T06:55:14Z</time>
      </trkpt>
      <trkpt lat="25.395204992964864" lon="110.49957666546106">
        <ele>418.19999999999999</ele>
        <time>2013-11-17T06:55:20Z</time>
      </trkpt>
      <trkpt lat="25.395206669345498" lon="110.4995849635452">
        <ele>418.60000000000002</ele>
        <time>2013-11-17T06:55:26Z</time>
      </trkpt>
      <trkpt lat="25.395189989358187" lon="110.49959502182901">
        <ele>421.60000000000002</ele>
        <time>2013-11-17T06:55:32Z</time>
      </trkpt>
      <trkpt lat="25.395206669345498" lon="110.49959996715188">
        <ele>419.30000000000001</ele>
        <time>2013-11-17T06:55:38Z</time>
      </trkpt>
      <trkpt lat="25.395225025713444" lon="110.49956669099629">
        <ele>425.19999999999999</ele>
        <time>2013-11-17T06:55:44Z</time>
      </trkpt>
      <trkpt lat="25.395240029320121" lon="110.49954162910581">
        <ele>432.89999999999998</ele>
        <time>2013-11-17T06:55:50Z</time>
      </trkpt>
      <trkpt lat="25.395250003784895" lon="110.4995400365442">
        <ele>432.69999999999999</ele>
        <time>2013-11-17T06:55:56Z</time>
      </trkpt>
      <trkpt lat="25.395258301869035" lon="110.49955998547375">
        <ele>431.89999999999998</ele>
        <time>2013-11-17T06:56:02Z</time>
      </trkpt>
      <trkpt lat="25.395258301869035" lon="110.49956501461565">
        <ele>433.80000000000001</ele>
        <time>2013-11-17T06:56:08Z</time>
      </trkpt>
      <trkpt lat="25.395268360152841" lon="110.49957666546106">
        <ele>432.80000000000001</ele>
        <time>2013-11-17T06:56:14Z</time>
      </trkpt>
      <trkpt lat="25.395286632701755" lon="110.49961002543569">
        <ele>431</ele>
        <time>2013-11-17T06:56:20Z</time>
      </trkpt>
      <trkpt lat="25.395319992676377" lon="110.49962997436523">
        <ele>430.5</ele>
        <time>2013-11-17T06:56:26Z</time>
      </trkpt>
      <trkpt lat="25.395340025424957" lon="110.49966836348176">
        <ele>430.60000000000002</ele>
        <time>2013-11-17T06:56:32Z</time>
      </trkpt>
      <trkpt lat="25.395363327115774" lon="110.49967833794653">
        <ele>429.39999999999998</ele>
        <time>2013-11-17T06:56:38Z</time>
      </trkpt>
      <trkpt lat="25.395359974354506" lon="110.49971831962466">
        <ele>429.69999999999999</ele>
        <time>2013-11-17T06:56:44Z</time>
      </trkpt>
      <trkpt lat="25.395391657948494" lon="110.49973835237324">
        <ele>427.80000000000001</ele>
        <time>2013-11-17T06:56:50Z</time>
      </trkpt>
      <trkpt lat="25.395416636019945" lon="110.49975335597992">
        <ele>428.80000000000001</ele>
        <time>2013-11-17T06:56:56Z</time>
      </trkpt>
      <trkpt lat="25.395449995994568" lon="110.49976668320596">
        <ele>428.60000000000002</ele>
        <time>2013-11-17T06:57:02Z</time>
      </trkpt>
      <trkpt lat="25.395459970459342" lon="110.4997683595866">
        <ele>433.19999999999999</ele>
        <time>2013-11-17T06:57:08Z</time>
      </trkpt>
      <trkpt lat="25.395480003207922" lon="110.49975167959929">
        <ele>435</ele>
        <time>2013-11-17T06:57:14Z</time>
      </trkpt>
      <trkpt lat="25.395508334040642" lon="110.49975997768342">
        <ele>438.19999999999999</ele>
        <time>2013-11-17T06:57:20Z</time>
      </trkpt>
      <trkpt lat="25.395521661266685" lon="110.49978503957391">
        <ele>439</ele>
        <time>2013-11-17T06:57:26Z</time>
      </trkpt>
      <trkpt lat="25.395538341253996" lon="110.49983834847808">
        <ele>432.10000000000002</ele>
        <time>2013-11-17T06:57:32Z</time>
      </trkpt>
      <trkpt lat="25.395553344860673" lon="110.49983834847808">
        <ele>433.19999999999999</ele>
        <time>2013-11-17T06:57:38Z</time>
      </trkpt>
      <trkpt lat="25.395571701228619" lon="110.49981496296823">
        <ele>436.80000000000001</ele>
        <time>2013-11-17T06:57:44Z</time>
      </trkpt>
      <trkpt lat="25.395608330145478" lon="110.49978336319327">
        <ele>442.19999999999999</ele>
        <time>2013-11-17T06:57:50Z</time>
      </trkpt>
      <trkpt lat="25.39562501013279" lon="110.49977665767074">
        <ele>442.30000000000001</ele>
        <time>2013-11-17T06:57:56Z</time>
      </trkpt>
      <trkpt lat="25.395640013739467" lon="110.499780010432">
        <ele>439.30000000000001</ele>
        <time>2013-11-17T06:58:02Z</time>
      </trkpt>
      <trkpt lat="25.395655017346144" lon="110.49980666488409">
        <ele>433</ele>
        <time>2013-11-17T06:58:08Z</time>
      </trkpt>
      <trkpt lat="25.395673373714089" lon="110.49984497018158">
        <ele>429.19999999999999</ele>
        <time>2013-11-17T06:58:14Z</time>
      </trkpt>
      <trkpt lat="25.395689969882369" lon="110.49989668652415">
        <ele>425.30000000000001</ele>
        <time>2013-11-17T06:58:20Z</time>
      </trkpt>
      <trkpt lat="25.395701704546809" lon="110.49993834458292">
        <ele>418.5</ele>
        <time>2013-11-17T06:58:26Z</time>
      </trkpt>
      <trkpt lat="25.395698351785541" lon="110.49992501735687">
        <ele>425.69999999999999</ele>
        <time>2013-11-17T06:58:32Z</time>
      </trkpt>
      <trkpt lat="25.395691646263003" lon="110.49991998821497">
        <ele>430.60000000000002</ele>
        <time>2013-11-17T06:58:38Z</time>
      </trkpt>
      <trkpt lat="25.395688293501735" lon="110.49990330822766">
        <ele>437.10000000000002</ele>
        <time>2013-11-17T06:58:44Z</time>
      </trkpt>
      <trkpt lat="25.395689969882369" lon="110.49990330822766">
        <ele>440.89999999999998</ele>
        <time>2013-11-17T06:58:50Z</time>
      </trkpt>
      <trkpt lat="25.395704973489046" lon="110.49996835179627">
        <ele>434.69999999999999</ele>
        <time>2013-11-17T06:58:56Z</time>
      </trkpt>
      <trkpt lat="25.395703297108412" lon="110.49998000264168">
        <ele>435</ele>
        <time>2013-11-17T06:59:02Z</time>
      </trkpt>
      <trkpt lat="25.395693322643638" lon="110.499964999035">
        <ele>439.5</ele>
        <time>2013-11-17T06:59:08Z</time>
      </trkpt>
      <trkpt lat="25.395703297108412" lon="110.49997832626104">
        <ele>436</ele>
        <time>2013-11-17T06:59:14Z</time>
      </trkpt>
      <trkpt lat="25.395715031772852" lon="110.49999668262899">
        <ele>431.19999999999999</ele>
        <time>2013-11-17T06:59:20Z</time>
      </trkpt>
      <trkpt lat="25.395711679011583" lon="110.49999835900962">
        <ele>431.60000000000002</ele>
        <time>2013-11-17T06:59:26Z</time>
      </trkpt>
      <trkpt lat="25.395710002630949" lon="110.50000162795186">
        <ele>430.80000000000001</ele>
        <time>2013-11-17T06:59:32Z</time>
      </trkpt>
      <trkpt lat="25.395708326250315" lon="110.50000162795186">
        <ele>431.80000000000001</ele>
        <time>2013-11-17T06:59:38Z</time>
      </trkpt>
      <trkpt lat="25.395704973489046" lon="110.49998997710645">
        <ele>434</ele>
        <time>2013-11-17T06:59:44Z</time>
      </trkpt>
      <trkpt lat="25.395700028166175" lon="110.49997832626104">
        <ele>437.19999999999999</ele>
        <time>2013-11-17T06:59:50Z</time>
      </trkpt>
      <trkpt lat="25.395696675404906" lon="110.4999599698931">
        <ele>440.89999999999998</ele>
        <time>2013-11-17T06:59:56Z</time>
      </trkpt>
      <trkpt lat="25.395686700940132" lon="110.4999216645956">
        <ele>447.10000000000002</ele>
        <time>2013-11-17T07:00:02Z</time>
      </trkpt>
      <trkpt lat="25.395679995417595" lon="110.49989333376288">
        <ele>450.80000000000001</ele>
        <time>2013-11-17T07:00:08Z</time>
      </trkpt>
      <trkpt lat="25.395676642656326" lon="110.49987665377557">
        <ele>453.5</ele>
        <time>2013-11-17T07:00:14Z</time>
      </trkpt>
      <trkpt lat="25.395681671798229" lon="110.49990163184702">
        <ele>450.10000000000002</ele>
        <time>2013-11-17T07:00:20Z</time>
      </trkpt>
      <trkpt lat="25.395688293501735" lon="110.49993163906038">
        <ele>445.80000000000001</ele>
        <time>2013-11-17T07:00:26Z</time>
      </trkpt>
      <trkpt lat="25.395691646263003" lon="110.49995829351246">
        <ele>442.80000000000001</ele>
        <time>2013-11-17T07:00:32Z</time>
      </trkpt>
      <trkpt lat="25.395693322643638" lon="110.49997832626104">
        <ele>439.39999999999998</ele>
        <time>2013-11-17T07:00:38Z</time>
      </trkpt>
      <trkpt lat="25.395689969882369" lon="110.499964999035">
        <ele>441.30000000000001</ele>
        <time>2013-11-17T07:00:44Z</time>
      </trkpt>
      <trkpt lat="25.395686700940132" lon="110.49995334818959">
        <ele>443.19999999999999</ele>
        <time>2013-11-17T07:00:50Z</time>
      </trkpt>
      <trkpt lat="25.395683348178864" lon="110.49995502457023">
        <ele>443.30000000000001</ele>
        <time>2013-11-17T07:00:56Z</time>
      </trkpt>
      <trkpt lat="25.395683348178864" lon="110.49997170455754">
        <ele>441.10000000000002</ele>
        <time>2013-11-17T07:01:02Z</time>
      </trkpt>
      <trkpt lat="25.395696675404906" lon="110.50001168623567">
        <ele>433.39999999999998</ele>
        <time>2013-11-17T07:01:08Z</time>
      </trkpt>
      <trkpt lat="25.39570664986968" lon="110.50003163516521">
        <ele>430.19999999999999</ele>
        <time>2013-11-17T07:01:14Z</time>
      </trkpt>
      <trkpt lat="25.395708326250315" lon="110.50003834068775">
        <ele>430.5</ele>
        <time>2013-11-17T07:01:20Z</time>
      </trkpt>
      <trkpt lat="25.395716708153486" lon="110.50007496960461">
        <ele>426.10000000000002</ele>
        <time>2013-11-17T07:01:26Z</time>
      </trkpt>
      <trkpt lat="25.395715031772852" lon="110.50005996599793">
        <ele>428.89999999999998</ele>
        <time>2013-11-17T07:01:32Z</time>
      </trkpt>
      <trkpt lat="25.395710002630949" lon="110.50002501346171">
        <ele>432.5</ele>
        <time>2013-11-17T07:01:38Z</time>
      </trkpt>
      <trkpt lat="25.395710002630949" lon="110.49999332986772">
        <ele>441</ele>
        <time>2013-11-17T07:01:44Z</time>
      </trkpt>
      <trkpt lat="25.395725006237626" lon="110.50001663155854">
        <ele>437.10000000000002</ele>
        <time>2013-11-17T07:01:50Z</time>
      </trkpt>
      <trkpt lat="25.395748307928443" lon="110.50004496239126">
        <ele>431.60000000000002</ele>
        <time>2013-11-17T07:01:56Z</time>
      </trkpt>
      <trkpt lat="25.395768340677023" lon="110.50006667152047">
        <ele>427.60000000000002</ele>
        <time>2013-11-17T07:02:02Z</time>
      </trkpt>
      <trkpt lat="25.395781667903066" lon="110.50007832236588">
        <ele>425.89999999999998</ele>
        <time>2013-11-17T07:02:08Z</time>
      </trkpt>
      <trkpt lat="25.39579164236784" lon="110.50008502788842">
        <ele>425.69999999999999</ele>
        <time>2013-11-17T07:02:14Z</time>
      </trkpt>
      <trkpt lat="25.395796671509743" lon="110.50009164959192">
        <ele>427</ele>
        <time>2013-11-17T07:02:20Z</time>
      </trkpt>
      <trkpt lat="25.3957833442837" lon="110.50010497681797">
        <ele>427.10000000000002</ele>
        <time>2013-11-17T07:02:26Z</time>
      </trkpt>
      <trkpt lat="25.395774962380528" lon="110.50011662766337">
        <ele>429.30000000000001</ele>
        <time>2013-11-17T07:02:32Z</time>
      </trkpt>
      <trkpt lat="25.395785020664334" lon="110.50013163127005">
        <ele>434.39999999999998</ele>
        <time>2013-11-17T07:02:38Z</time>
      </trkpt>
      <trkpt lat="25.395804969593883" lon="110.5001550167799">
        <ele>430.10000000000002</ele>
        <time>2013-11-17T07:02:44Z</time>
      </trkpt>
      <trkpt lat="25.395788373425603" lon="110.50011503510177">
        <ele>435.89999999999998</ele>
        <time>2013-11-17T07:02:50Z</time>
      </trkpt>
      <trkpt lat="25.395759958773851" lon="110.50007664598525">
        <ele>442.39999999999998</ele>
        <time>2013-11-17T07:02:56Z</time>
      </trkpt>
      <trkpt lat="25.395740009844303" lon="110.50007170066237">
        <ele>443.60000000000002</ele>
        <time>2013-11-17T07:03:02Z</time>
      </trkpt>
      <trkpt lat="25.395725006237626" lon="110.50008829683065">
        <ele>443.30000000000001</ele>
        <time>2013-11-17T07:03:08Z</time>
      </trkpt>
      <trkpt lat="25.395698351785541" lon="110.50004336982965">
        <ele>452</ele>
        <time>2013-11-17T07:03:14Z</time>
      </trkpt>
      <trkpt lat="25.395703297108412" lon="110.50004496239126">
        <ele>456.30000000000001</ele>
        <time>2013-11-17T07:03:20Z</time>
      </trkpt>
      <trkpt lat="25.395698351785541" lon="110.50005334429443">
        <ele>463.60000000000002</ele>
        <time>2013-11-17T07:03:26Z</time>
      </trkpt>
      <trkpt lat="25.395725006237626" lon="110.50007496960461">
        <ele>464.80000000000001</ele>
        <time>2013-11-17T07:03:32Z</time>
      </trkpt>
      <trkpt lat="25.395721653476357" lon="110.50010170787573">
        <ele>465.30000000000001</ele>
        <time>2013-11-17T07:03:38Z</time>
      </trkpt>
      <trkpt lat="25.395668344572186" lon="110.50009500235319">
        <ele>468.80000000000001</ele>
        <time>2013-11-17T07:03:44Z</time>
      </trkpt>
      <trkpt lat="25.395636660978198" lon="110.50008997321129">
        <ele>468.39999999999998</ele>
        <time>2013-11-17T07:03:50Z</time>
      </trkpt>
      <trkpt lat="25.395610006526113" lon="110.50008670426905">
        <ele>469.89999999999998</ele>
        <time>2013-11-17T07:03:56Z</time>
      </trkpt>
      <trkpt lat="25.395600032061338" lon="110.50009164959192">
        <ele>467.80000000000001</ele>
        <time>2013-11-17T07:04:02Z</time>
      </trkpt>
      <trkpt lat="25.395588297396898" lon="110.50008829683065">
        <ele>465.69999999999999</ele>
        <time>2013-11-17T07:04:08Z</time>
      </trkpt>
      <trkpt lat="25.395579999312758" lon="110.50010497681797">
        <ele>460.89999999999998</ele>
        <time>2013-11-17T07:04:14Z</time>
      </trkpt>
      <trkpt lat="25.39557664655149" lon="110.50014831125736">
        <ele>450.69999999999999</ele>
        <time>2013-11-17T07:04:20Z</time>
      </trkpt>
      <trkpt lat="25.395556697621942" lon="110.50015334039927">
        <ele>448.69999999999999</ele>
        <time>2013-11-17T07:04:26Z</time>
      </trkpt>
      <trkpt lat="25.395541694015265" lon="110.50015334039927">
        <ele>447.19999999999999</ele>
        <time>2013-11-17T07:04:32Z</time>
      </trkpt>
      <trkpt lat="25.395536664873362" lon="110.50014663487673">
        <ele>449</ele>
        <time>2013-11-17T07:04:38Z</time>
      </trkpt>
      <trkpt lat="25.395544962957501" lon="110.50018334761262">
        <ele>445.89999999999998</ele>
        <time>2013-11-17T07:04:44Z</time>
      </trkpt>
      <trkpt lat="25.395541694015265" lon="110.50016499124467">
        <ele>449.10000000000002</ele>
        <time>2013-11-17T07:04:50Z</time>
      </trkpt>
      <trkpt lat="25.39554831571877" lon="110.50018996931612">
        <ele>441.89999999999998</ele>
        <time>2013-11-17T07:04:56Z</time>
      </trkpt>
      <trkpt lat="25.395541694015265" lon="110.50020170398057">
        <ele>441.60000000000002</ele>
        <time>2013-11-17T07:05:02Z</time>
      </trkpt>
      <trkpt lat="25.395525014027953" lon="110.50016834400594">
        <ele>448.30000000000001</ele>
        <time>2013-11-17T07:05:08Z</time>
      </trkpt>
      <trkpt lat="25.395504981279373" lon="110.50013666041195">
        <ele>454.89999999999998</ele>
        <time>2013-11-17T07:05:14Z</time>
      </trkpt>
      <trkpt lat="25.395480003207922" lon="110.50008502788842">
        <ele>464.5</ele>
        <time>2013-11-17T07:05:20Z</time>
      </trkpt>
      <trkpt lat="25.395480003207922" lon="110.50009667873383">
        <ele>463.10000000000002</ele>
        <time>2013-11-17T07:05:26Z</time>
      </trkpt>
      <trkpt lat="25.395471705123782" lon="110.50009667873383">
        <ele>463.19999999999999</ele>
        <time>2013-11-17T07:05:32Z</time>
      </trkpt>
      <trkpt lat="25.395464999601245" lon="110.50009500235319">
        <ele>463.39999999999998</ele>
        <time>2013-11-17T07:05:38Z</time>
      </trkpt>
      <trkpt lat="25.395464999601245" lon="110.50010330043733">
        <ele>464.10000000000002</ele>
        <time>2013-11-17T07:05:44Z</time>
      </trkpt>
      <trkpt lat="25.395481679588556" lon="110.50015166401863">
        <ele>457.19999999999999</ele>
        <time>2013-11-17T07:05:50Z</time>
      </trkpt>
      <trkpt lat="25.395493330433965" lon="110.50018829293549">
        <ele>452.30000000000001</ele>
        <time>2013-11-17T07:05:56Z</time>
      </trkpt>
      <trkpt lat="25.395501628518105" lon="110.50020664930344">
        <ele>449.39999999999998</ele>
        <time>2013-11-17T07:06:02Z</time>
      </trkpt>
      <trkpt lat="25.395473297685385" lon="110.50017337314785">
        <ele>462.69999999999999</ele>
        <time>2013-11-17T07:06:08Z</time>
      </trkpt>
      <trkpt lat="25.395478326827288" lon="110.5002049729228">
        <ele>455.89999999999998</ele>
        <time>2013-11-17T07:06:14Z</time>
      </trkpt>
      <trkpt lat="25.395473297685385" lon="110.50017169676721">
        <ele>454.89999999999998</ele>
        <time>2013-11-17T07:06:20Z</time>
      </trkpt>
      <trkpt lat="25.395468352362514" lon="110.50014168955386">
        <ele>456.89999999999998</ele>
        <time>2013-11-17T07:06:26Z</time>
      </trkpt>
      <trkpt lat="25.395458294078708" lon="110.50010497681797">
        <ele>461.80000000000001</ele>
        <time>2013-11-17T07:06:32Z</time>
      </trkpt>
      <trkpt lat="25.395431639626622" lon="110.50001998431981">
        <ele>476.30000000000001</ele>
        <time>2013-11-17T07:06:38Z</time>
      </trkpt>
      <trkpt lat="25.395436668768525" lon="110.50006499513984">
        <ele>471.80000000000001</ele>
        <time>2013-11-17T07:06:44Z</time>
      </trkpt>
      <trkpt lat="25.395438345149159" lon="110.50009835511446">
        <ele>468.30000000000001</ele>
        <time>2013-11-17T07:06:50Z</time>
      </trkpt>
      <trkpt lat="25.395446643233299" lon="110.50015836954117">
        <ele>459.80000000000001</ele>
        <time>2013-11-17T07:06:56Z</time>
      </trkpt>
      <trkpt lat="25.395426694303751" lon="110.50010832957923">
        <ele>468.10000000000002</ele>
        <time>2013-11-17T07:07:02Z</time>
      </trkpt>
      <trkpt lat="25.395404985174537" lon="110.50003834068775">
        <ele>480.60000000000002</ele>
        <time>2013-11-17T07:07:08Z</time>
      </trkpt>
      <trkpt lat="25.39538168348372" lon="110.49995167180896">
        <ele>495.69999999999999</ele>
        <time>2013-11-17T07:07:14Z</time>
      </trkpt>
      <trkpt lat="25.39538168348372" lon="110.49996667541564">
        <ele>494</ele>
        <time>2013-11-17T07:07:20Z</time>
      </trkpt>
      <trkpt lat="25.395395010709763" lon="110.5000083334744">
        <ele>488</ele>
        <time>2013-11-17T07:07:26Z</time>
      </trkpt>
      <trkpt lat="25.395404985174537" lon="110.50003666430712">
        <ele>482.5</ele>
        <time>2013-11-17T07:07:32Z</time>
      </trkpt>
      <trkpt lat="25.395416636019945" lon="110.5000566970557">
        <ele>477.5</ele>
        <time>2013-11-17T07:07:38Z</time>
      </trkpt>
      <trkpt lat="25.395423341542482" lon="110.50004999153316">
        <ele>477.69999999999999</ele>
        <time>2013-11-17T07:07:44Z</time>
      </trkpt>
      <trkpt lat="25.395418312400579" lon="110.5000083334744">
        <ele>483.39999999999998</ele>
        <time>2013-11-17T07:07:50Z</time>
      </trkpt>
      <trkpt lat="25.395433316007257" lon="110.50007496960461">
        <ele>472.89999999999998</ele>
        <time>2013-11-17T07:07:56Z</time>
      </trkpt>
      <trkpt lat="25.395434992387891" lon="110.50010832957923">
        <ele>469.19999999999999</ele>
        <time>2013-11-17T07:08:02Z</time>
      </trkpt>
      <trkpt lat="25.395441697910428" lon="110.50015166401863">
        <ele>464.10000000000002</ele>
        <time>2013-11-17T07:08:08Z</time>
      </trkpt>
      <trkpt lat="25.395444966852665" lon="110.50016666762531">
        <ele>462.10000000000002</ele>
        <time>2013-11-17T07:08:14Z</time>
      </trkpt>
      <trkpt lat="25.395444966852665" lon="110.50016331486404">
        <ele>462.80000000000001</ele>
        <time>2013-11-17T07:08:20Z</time>
      </trkpt>
      <trkpt lat="25.395449995994568" lon="110.50017999485135">
        <ele>459.89999999999998</ele>
        <time>2013-11-17T07:08:26Z</time>
      </trkpt>
      <trkpt lat="25.395458294078708" lon="110.50021670758724">
        <ele>453.5</ele>
        <time>2013-11-17T07:08:32Z</time>
      </trkpt>
      <trkpt lat="25.395456701517105" lon="110.50019667483866">
        <ele>455.69999999999999</ele>
        <time>2013-11-17T07:08:38Z</time>
      </trkpt>
      <trkpt lat="25.395448319613934" lon="110.50014168955386">
        <ele>464.39999999999998</ele>
        <time>2013-11-17T07:08:44Z</time>
      </trkpt>
      <trkpt lat="25.395461646839976" lon="110.50015166401863">
        <ele>466.60000000000002</ele>
        <time>2013-11-17T07:08:50Z</time>
      </trkpt>
      <trkpt lat="25.395478326827288" lon="110.50018334761262">
        <ele>462.80000000000001</ele>
        <time>2013-11-17T07:08:56Z</time>
      </trkpt>
      <trkpt lat="25.395493330433965" lon="110.50021167844534">
        <ele>454.89999999999998</ele>
        <time>2013-11-17T07:09:02Z</time>
      </trkpt>
      <trkpt lat="25.395486708730459" lon="110.5001983512193">
        <ele>457.39999999999998</ele>
        <time>2013-11-17T07:09:08Z</time>
      </trkpt>
      <trkpt lat="25.395496683195233" lon="110.50023833289742">
        <ele>452.69999999999999</ele>
        <time>2013-11-17T07:09:14Z</time>
      </trkpt>
      <trkpt lat="25.395468352362514" lon="110.500149987638">
        <ele>468</ele>
        <time>2013-11-17T07:09:20Z</time>
      </trkpt>
      <trkpt lat="25.395468352362514" lon="110.50013498403132">
        <ele>471.60000000000002</ele>
        <time>2013-11-17T07:09:26Z</time>
      </trkpt>
      <trkpt lat="25.39549165405333" lon="110.50019667483866">
        <ele>461.60000000000002</ele>
        <time>2013-11-17T07:09:32Z</time>
      </trkpt>
      <trkpt lat="25.395498359575868" lon="110.50021830014884">
        <ele>457.89999999999998</ele>
        <time>2013-11-17T07:09:38Z</time>
      </trkpt>
      <trkpt lat="25.395485032349825" lon="110.50019332207739">
        <ele>461.5</ele>
        <time>2013-11-17T07:09:44Z</time>
      </trkpt>
      <trkpt lat="25.395476650446653" lon="110.50017831847072">
        <ele>465.10000000000002</ele>
        <time>2013-11-17T07:09:50Z</time>
      </trkpt>
      <trkpt lat="25.395471705123782" lon="110.50016666762531">
        <ele>467.80000000000001</ele>
        <time>2013-11-17T07:09:56Z</time>
      </trkpt>
      <trkpt lat="25.395470028743148" lon="110.50017496570945">
        <ele>466.39999999999998</ele>
        <time>2013-11-17T07:10:02Z</time>
      </trkpt>
      <trkpt lat="25.395485032349825" lon="110.50022835843265">
        <ele>457.69999999999999</ele>
        <time>2013-11-17T07:10:08Z</time>
      </trkpt>
      <trkpt lat="25.395508334040642" lon="110.50026163458824">
        <ele>448.80000000000001</ele>
        <time>2013-11-17T07:10:14Z</time>
      </trkpt>
      <trkpt lat="25.395544962957501" lon="110.5003017000854">
        <ele>436.39999999999998</ele>
        <time>2013-11-17T07:10:20Z</time>
      </trkpt>
      <trkpt lat="25.395571701228619" lon="110.50033003091812">
        <ele>430</ele>
        <time>2013-11-17T07:10:26Z</time>
      </trkpt>
      <trkpt lat="25.395556697621942" lon="110.50033329986036">
        <ele>433.5</ele>
        <time>2013-11-17T07:10:32Z</time>
      </trkpt>
      <trkpt lat="25.395536664873362" lon="110.50031335093081">
        <ele>437.80000000000001</ele>
        <time>2013-11-17T07:10:38Z</time>
      </trkpt>
      <trkpt lat="25.395526690408587" lon="110.50032667815685">
        <ele>437.89999999999998</ele>
        <time>2013-11-17T07:10:44Z</time>
      </trkpt>
      <trkpt lat="25.395534988492727" lon="110.50036003813148">
        <ele>434.89999999999998</ele>
        <time>2013-11-17T07:10:50Z</time>
      </trkpt>
      <trkpt lat="25.395536664873362" lon="110.50037001259625">
        <ele>432.39999999999998</ele>
        <time>2013-11-17T07:10:56Z</time>
      </trkpt>
      <trkpt lat="25.395529959350824" lon="110.50035333260894">
        <ele>436.69999999999999</ele>
        <time>2013-11-17T07:11:02Z</time>
      </trkpt>
      <trkpt lat="25.395533312112093" lon="110.50037663429976">
        <ele>436.10000000000002</ele>
        <time>2013-11-17T07:11:08Z</time>
      </trkpt>
      <trkpt lat="25.395515039563179" lon="110.50038333982229">
        <ele>439.5</ele>
        <time>2013-11-17T07:11:14Z</time>
      </trkpt>
      <trkpt lat="25.395496683195233" lon="110.50038501620293">
        <ele>443.10000000000002</ele>
        <time>2013-11-17T07:11:20Z</time>
      </trkpt>
      <trkpt lat="25.395478326827288" lon="110.50038669258356">
        <ele>446.60000000000002</ele>
        <time>2013-11-17T07:11:26Z</time>
      </trkpt>
      <trkpt lat="25.395466675981879" lon="110.50039163790643">
        <ele>448.5</ele>
        <time>2013-11-17T07:11:32Z</time>
      </trkpt>
      <trkpt lat="25.395464999601245" lon="110.50040169619024">
        <ele>448.60000000000002</ele>
        <time>2013-11-17T07:11:38Z</time>
      </trkpt>
      <trkpt lat="25.395459970459342" lon="110.50040169619024">
        <ele>449.69999999999999</ele>
        <time>2013-11-17T07:11:44Z</time>
      </trkpt>
      <trkpt lat="25.395453348755836" lon="110.50041334703565">
        <ele>448.10000000000002</ele>
        <time>2013-11-17T07:11:50Z</time>
      </trkpt>
      <trkpt lat="25.395428370684385" lon="110.50041996873915">
        <ele>447.60000000000002</ele>
        <time>2013-11-17T07:11:56Z</time>
      </trkpt>
      <trkpt lat="25.395386628806591" lon="110.50042499788105">
        <ele>445.10000000000002</ele>
        <time>2013-11-17T07:12:02Z</time>
      </trkpt>
      <trkpt lat="25.395334996283054" lon="110.50040999427438">
        <ele>446.60000000000002</ele>
        <time>2013-11-17T07:12:08Z</time>
      </trkpt>
      <trkpt lat="25.395380007103086" lon="110.50042164511979">
        <ele>447.89999999999998</ele>
        <time>2013-11-17T07:12:14Z</time>
      </trkpt>
      <trkpt lat="25.395425017923117" lon="110.50041167065501">
        <ele>451.5</ele>
        <time>2013-11-17T07:12:20Z</time>
      </trkpt>
      <trkpt lat="25.395448319613934" lon="110.50041167065501">
        <ele>451.39999999999998</ele>
        <time>2013-11-17T07:12:26Z</time>
      </trkpt>
      <trkpt lat="25.395461646839976" lon="110.50040496513247">
        <ele>452.19999999999999</ele>
        <time>2013-11-17T07:12:32Z</time>
      </trkpt>
      <trkpt lat="25.395480003207922" lon="110.5003899615258">
        <ele>453.5</ele>
        <time>2013-11-17T07:12:38Z</time>
      </trkpt>
      <trkpt lat="25.395483355969191" lon="110.50037998706102">
        <ele>454.39999999999998</ele>
        <time>2013-11-17T07:12:44Z</time>
      </trkpt>
      <trkpt lat="25.395478326827288" lon="110.50035836175084">
        <ele>457.60000000000002</ele>
        <time>2013-11-17T07:12:50Z</time>
      </trkpt>
      <trkpt lat="25.395506657660007" lon="110.5003466270864">
        <ele>460.60000000000002</ele>
        <time>2013-11-17T07:12:56Z</time>
      </trkpt>
      <trkpt lat="25.395549992099404" lon="110.50036163069308">
        <ele>458.5</ele>
        <time>2013-11-17T07:13:02Z</time>
      </trkpt>
      <trkpt lat="25.395598355680704" lon="110.50037336535752">
        <ele>457.69999999999999</ele>
        <time>2013-11-17T07:13:08Z</time>
      </trkpt>
      <trkpt lat="25.395658370107412" lon="110.50038333982229">
        <ele>457.10000000000002</ele>
        <time>2013-11-17T07:13:14Z</time>
      </trkpt>
      <trkpt lat="25.395691646263003" lon="110.50038669258356">
        <ele>457.60000000000002</ele>
        <time>2013-11-17T07:13:20Z</time>
      </trkpt>
      <trkpt lat="25.395710002630949" lon="110.50038501620293">
        <ele>458.69999999999999</ele>
        <time>2013-11-17T07:13:26Z</time>
      </trkpt>
      <trkpt lat="25.395725006237626" lon="110.50037998706102">
        <ele>461.10000000000002</ele>
        <time>2013-11-17T07:13:32Z</time>
      </trkpt>
      <trkpt lat="25.395764987915754" lon="110.50037504173815">
        <ele>462.60000000000002</ele>
        <time>2013-11-17T07:13:38Z</time>
      </trkpt>
      <trkpt lat="25.395816704258323" lon="110.50036665983498">
        <ele>462.80000000000001</ele>
        <time>2013-11-17T07:13:44Z</time>
      </trkpt>
      <trkpt lat="25.395863307639956" lon="110.50036003813148">
        <ele>464.39999999999998</ele>
        <time>2013-11-17T07:13:50Z</time>
      </trkpt>
      <trkpt lat="25.395903373137116" lon="110.50033003091812">
        <ele>468.39999999999998</ele>
        <time>2013-11-17T07:13:56Z</time>
      </trkpt>
      <trkpt lat="25.395955005660653" lon="110.50032164901495">
        <ele>469.39999999999998</ele>
        <time>2013-11-17T07:14:02Z</time>
      </trkpt>
      <trkpt lat="25.395994987338781" lon="110.50032164901495">
        <ele>469</ele>
        <time>2013-11-17T07:14:08Z</time>
      </trkpt>
      <trkpt lat="25.396045027300715" lon="110.50031997263432">
        <ele>468.60000000000002</ele>
        <time>2013-11-17T07:14:14Z</time>
      </trkpt>
      <trkpt lat="25.396091630682349" lon="110.50032164901495">
        <ele>469.19999999999999</ele>
        <time>2013-11-17T07:14:20Z</time>
      </trkpt>
      <trkpt lat="25.396134965121746" lon="110.50032500177622">
        <ele>467.60000000000002</ele>
        <time>2013-11-17T07:14:26Z</time>
      </trkpt>
      <trkpt lat="25.396158350631595" lon="110.50033329986036">
        <ele>465.19999999999999</ele>
        <time>2013-11-17T07:14:32Z</time>
      </trkpt>
      <trkpt lat="25.396181652322412" lon="110.50031997263432">
        <ele>464.19999999999999</ele>
        <time>2013-11-17T07:14:38Z</time>
      </trkpt>
      <trkpt lat="25.396203361451626" lon="110.50027169287205">
        <ele>463.19999999999999</ele>
        <time>2013-11-17T07:14:44Z</time>
      </trkpt>
      <trkpt lat="25.396206630393863" lon="110.50023003481328">
        <ele>459.30000000000001</ele>
        <time>2013-11-17T07:14:50Z</time>
      </trkpt>
      <trkpt lat="25.396186681464314" lon="110.50019499845803">
        <ele>455.39999999999998</ele>
        <time>2013-11-17T07:14:56Z</time>
      </trkpt>
      <trkpt lat="25.39619330316782" lon="110.50012668594718">
        <ele>456.89999999999998</ele>
        <time>2013-11-17T07:15:02Z</time>
      </trkpt>
      <trkpt lat="25.396209983155131" lon="110.50004831515253">
        <ele>459.19999999999999</ele>
        <time>2013-11-17T07:15:08Z</time>
      </trkpt>
      <trkpt lat="25.396211659535766" lon="110.49996332265437">
        <ele>462.39999999999998</ele>
        <time>2013-11-17T07:15:14Z</time>
      </trkpt>
      <trkpt lat="25.396220041438937" lon="110.49990666098893">
        <ele>462</ele>
        <time>2013-11-17T07:15:20Z</time>
      </trkpt>
      <trkpt lat="25.396238313987851" lon="110.4998717084527">
        <ele>465.80000000000001</ele>
        <time>2013-11-17T07:15:26Z</time>
      </trkpt>
      <trkpt lat="25.396243343129754" lon="110.49983499571681">
        <ele>471.39999999999998</ele>
        <time>2013-11-17T07:15:32Z</time>
      </trkpt>
      <trkpt lat="25.396231692284346" lon="110.49981337040663">
        <ele>476.69999999999999</ele>
        <time>2013-11-17T07:15:38Z</time>
      </trkpt>
      <trkpt lat="25.396230015903711" lon="110.49978663213551">
        <ele>481.30000000000001</ele>
        <time>2013-11-17T07:15:44Z</time>
      </trkpt>
      <trkpt lat="25.396226663142443" lon="110.49974329769611">
        <ele>484.19999999999999</ele>
        <time>2013-11-17T07:15:50Z</time>
      </trkpt>
      <trkpt lat="25.396220041438937" lon="110.49970163963735">
        <ele>483.19999999999999</ele>
        <time>2013-11-17T07:15:56Z</time>
      </trkpt>
      <trkpt lat="25.396211659535766" lon="110.499671632424">
        <ele>476.80000000000001</ele>
        <time>2013-11-17T07:16:02Z</time>
      </trkpt>
      <trkpt lat="25.396218365058303" lon="110.49964833073318">
        <ele>475.39999999999998</ele>
        <time>2013-11-17T07:16:08Z</time>
      </trkpt>
      <trkpt lat="25.396224986761808" lon="110.49961832351983">
        <ele>471.5</ele>
        <time>2013-11-17T07:16:14Z</time>
      </trkpt>
      <trkpt lat="25.396236637607217" lon="110.49955001100898">
        <ele>469.69999999999999</ele>
        <time>2013-11-17T07:16:20Z</time>
      </trkpt>
      <trkpt lat="25.396254993975163" lon="110.4994916729629">
        <ele>468.5</ele>
        <time>2013-11-17T07:16:26Z</time>
      </trkpt>
      <trkpt lat="25.396291706711054" lon="110.49944833852351">
        <ele>468.19999999999999</ele>
        <time>2013-11-17T07:16:32Z</time>
      </trkpt>
      <trkpt lat="25.396298328414559" lon="110.49944498576224">
        <ele>466.69999999999999</ele>
        <time>2013-11-17T07:16:38Z</time>
      </trkpt>
      <trkpt lat="25.396296652033925" lon="110.4994316585362">
        <ele>465.10000000000002</ele>
        <time>2013-11-17T07:16:44Z</time>
      </trkpt>
      <trkpt lat="25.396311655640602" lon="110.49942662939429">
        <ele>463.80000000000001</ele>
        <time>2013-11-17T07:16:50Z</time>
      </trkpt>
      <trkpt lat="25.396318361163139" lon="110.49942503683269">
        <ele>462.69999999999999</ele>
        <time>2013-11-17T07:16:56Z</time>
      </trkpt>
      <trkpt lat="25.396328335627913" lon="110.49942000769079">
        <ele>462.30000000000001</ele>
        <time>2013-11-17T07:17:02Z</time>
      </trkpt>
      <trkpt lat="25.396343339234591" lon="110.49941003322601">
        <ele>461.80000000000001</ele>
        <time>2013-11-17T07:17:08Z</time>
      </trkpt>
      <trkpt lat="25.396349960938096" lon="110.49940165132284">
        <ele>462.5</ele>
        <time>2013-11-17T07:17:14Z</time>
      </trkpt>
      <trkpt lat="25.396381644532084" lon="110.49938002601266">
        <ele>463.80000000000001</ele>
        <time>2013-11-17T07:17:20Z</time>
      </trkpt>
      <trkpt lat="25.396433360874653" lon="110.4993500187993">
        <ele>466.69999999999999</ele>
        <time>2013-11-17T07:17:26Z</time>
      </trkpt>
      <trkpt lat="25.396479964256287" lon="110.49932336434722">
        <ele>470.5</ele>
        <time>2013-11-17T07:17:32Z</time>
      </trkpt>
      <trkpt lat="25.396533356979489" lon="110.49932663328946">
        <ele>471.10000000000002</ele>
        <time>2013-11-17T07:17:38Z</time>
      </trkpt>
      <trkpt lat="25.39657836779952" lon="110.49932663328946">
        <ele>474</ele>
        <time>2013-11-17T07:17:44Z</time>
      </trkpt>
      <trkpt lat="25.396605022251606" lon="110.4993500187993">
        <ele>476</ele>
        <time>2013-11-17T07:17:50Z</time>
      </trkpt>
      <trkpt lat="25.396620025858283" lon="110.49936502240598">
        <ele>477</ele>
        <time>2013-11-17T07:17:56Z</time>
      </trkpt>
      <trkpt lat="25.396648356691003" lon="110.49940332770348">
        <ele>476.5</ele>
        <time>2013-11-17T07:18:02Z</time>
      </trkpt>
      <trkpt lat="25.396666629239917" lon="110.49946501851082">
        <ele>473.69999999999999</ele>
        <time>2013-11-17T07:18:08Z</time>
      </trkpt>
      <trkpt lat="25.396683309227228" lon="110.49951832741499">
        <ele>472.30000000000001</ele>
        <time>2013-11-17T07:18:14Z</time>
      </trkpt>
      <trkpt lat="25.396705018356442" lon="110.49957163631916">
        <ele>469.19999999999999</ele>
        <time>2013-11-17T07:18:20Z</time>
      </trkpt>
      <trkpt lat="25.396721698343754" lon="110.49963165074587">
        <ele>466.10000000000002</ele>
        <time>2013-11-17T07:18:26Z</time>
      </trkpt>
      <trkpt lat="25.396735025569797" lon="110.49968998879194">
        <ele>465.30000000000001</ele>
        <time>2013-11-17T07:18:32Z</time>
      </trkpt>
      <trkpt lat="25.396746676415205" lon="110.4997199960053">
        <ele>465</ele>
        <time>2013-11-17T07:18:38Z</time>
      </trkpt>
      <trkpt lat="25.396750029176474" lon="110.49973164685071">
        <ele>465.89999999999998</ele>
        <time>2013-11-17T07:18:44Z</time>
      </trkpt>
      <trkpt lat="25.396750029176474" lon="110.49974832683802">
        <ele>468.60000000000002</ele>
        <time>2013-11-17T07:18:50Z</time>
      </trkpt>
      <trkpt lat="25.396765032783151" lon="110.49979166127741">
        <ele>471.10000000000002</ele>
        <time>2013-11-17T07:18:56Z</time>
      </trkpt>
      <trkpt lat="25.39679336361587" lon="110.49980163574219">
        <ele>477.80000000000001</ele>
        <time>2013-11-17T07:19:02Z</time>
      </trkpt>
      <trkpt lat="25.396838374435902" lon="110.4998233448714">
        <ele>480.89999999999998</ele>
        <time>2013-11-17T07:19:08Z</time>
      </trkpt>
      <trkpt lat="25.396883301436901" lon="110.49984664656222">
        <ele>483.19999999999999</ele>
        <time>2013-11-17T07:19:14Z</time>
      </trkpt>
      <trkpt lat="25.396931665018201" lon="110.49989668652415">
        <ele>483.5</ele>
        <time>2013-11-17T07:19:20Z</time>
      </trkpt>
      <trkpt lat="25.396974999457598" lon="110.49993666820228">
        <ele>484.39999999999998</ele>
        <time>2013-11-17T07:19:26Z</time>
      </trkpt>
      <trkpt lat="25.397013304755092" lon="110.49996164627373">
        <ele>485.89999999999998</ele>
        <time>2013-11-17T07:19:32Z</time>
      </trkpt>
      <trkpt lat="25.397054962813854" lon="110.50001000985503">
        <ele>485.80000000000001</ele>
        <time>2013-11-17T07:19:38Z</time>
      </trkpt>
      <trkpt lat="25.397103326395154" lon="110.50006499513984">
        <ele>485</ele>
        <time>2013-11-17T07:19:44Z</time>
      </trkpt>
      <trkpt lat="25.397151689976454" lon="110.50012165680528">
        <ele>484.60000000000002</ele>
        <time>2013-11-17T07:19:50Z</time>
      </trkpt>
      <trkpt lat="25.397191671654582" lon="110.50017002038658">
        <ele>483.60000000000002</ele>
        <time>2013-11-17T07:19:56Z</time>
      </trkpt>
      <trkpt lat="25.397226708009839" lon="110.50024336203933">
        <ele>479.89999999999998</ele>
        <time>2013-11-17T07:20:02Z</time>
      </trkpt>
      <trkpt lat="25.397271635010839" lon="110.50030832178891">
        <ele>477.19999999999999</ele>
        <time>2013-11-17T07:20:08Z</time>
      </trkpt>
      <trkpt lat="25.39731664583087" lon="110.50036163069308">
        <ele>474.39999999999998</ele>
        <time>2013-11-17T07:20:14Z</time>
      </trkpt>
      <trkpt lat="25.397361656650901" lon="110.50041996873915">
        <ele>471.69999999999999</ele>
        <time>2013-11-17T07:20:20Z</time>
      </trkpt>
      <trkpt lat="25.397406667470932" lon="110.50048501230776">
        <ele>469.89999999999998</ele>
        <time>2013-11-17T07:20:26Z</time>
      </trkpt>
      <trkpt lat="25.397444972768426" lon="110.5005416739732">
        <ele>468.10000000000002</ele>
        <time>2013-11-17T07:20:32Z</time>
      </trkpt>
      <trkpt lat="25.397483361884952" lon="110.50060998648405">
        <ele>466.10000000000002</ele>
        <time>2013-11-17T07:20:38Z</time>
      </trkpt>
      <trkpt lat="25.397525019943714" lon="110.50066329538822">
        <ele>464.89999999999998</ele>
        <time>2013-11-17T07:20:44Z</time>
      </trkpt>
      <trkpt lat="25.397563325241208" lon="110.50071165896952">
        <ele>464.30000000000001</ele>
        <time>2013-11-17T07:20:50Z</time>
      </trkpt>
      <trkpt lat="25.397603306919336" lon="110.50076496787369">
        <ele>464.19999999999999</ele>
        <time>2013-11-17T07:20:56Z</time>
      </trkpt>
      <trkpt lat="25.397640019655228" lon="110.50081668421626">
        <ele>461.89999999999998</ele>
        <time>2013-11-17T07:21:02Z</time>
      </trkpt>
      <trkpt lat="25.397676648572087" lon="110.50088332034647">
        <ele>459.89999999999998</ele>
        <time>2013-11-17T07:21:08Z</time>
      </trkpt>
      <trkpt lat="25.397688299417496" lon="110.50092003308237">
        <ele>459.89999999999998</ele>
        <time>2013-11-17T07:21:14Z</time>
      </trkpt>
      <trkpt lat="25.397711684927344" lon="110.50094836391509">
        <ele>459.60000000000002</ele>
        <time>2013-11-17T07:21:20Z</time>
      </trkpt>
      <trkpt lat="25.39774663746357" lon="110.50100670196116">
        <ele>458.80000000000001</ele>
        <time>2013-11-17T07:21:26Z</time>
      </trkpt>
      <trkpt lat="25.397770022973418" lon="110.50106504000723">
        <ele>457.69999999999999</ele>
        <time>2013-11-17T07:21:32Z</time>
      </trkpt>
      <trkpt lat="25.397789971902966" lon="110.50108163617551">
        <ele>459.89999999999998</ele>
        <time>2013-11-17T07:21:38Z</time>
      </trkpt>
      <trkpt lat="25.397803299129009" lon="110.50109663978219">
        <ele>461.80000000000001</ele>
        <time>2013-11-17T07:21:44Z</time>
      </trkpt>
      <trkpt lat="25.397816626355052" lon="110.50111164338887">
        <ele>463.30000000000001</ele>
        <time>2013-11-17T07:21:50Z</time>
      </trkpt>
      <trkpt lat="25.397823331877589" lon="110.50112664699554">
        <ele>463.19999999999999</ele>
        <time>2013-11-17T07:21:56Z</time>
      </trkpt>
      <trkpt lat="25.397828361019492" lon="110.50113829784095">
        <ele>463</ele>
        <time>2013-11-17T07:22:02Z</time>
      </trkpt>
      <trkpt lat="25.397836659103632" lon="110.5011566542089">
        <ele>463.10000000000002</ele>
        <time>2013-11-17T07:22:08Z</time>
      </trkpt>
      <trkpt lat="25.397841688245535" lon="110.50116335973144">
        <ele>463.69999999999999</ele>
        <time>2013-11-17T07:22:14Z</time>
      </trkpt>
      <trkpt lat="25.397841688245535" lon="110.50116830505431">
        <ele>464.89999999999998</ele>
        <time>2013-11-17T07:22:20Z</time>
      </trkpt>
      <trkpt lat="25.397843364626169" lon="110.50117165781558">
        <ele>465.19999999999999</ele>
        <time>2013-11-17T07:22:26Z</time>
      </trkpt>
      <trkpt lat="25.397843364626169" lon="110.50117165781558">
        <ele>464.19999999999999</ele>
        <time>2013-11-17T07:22:32Z</time>
      </trkpt>
      <trkpt lat="25.397843364626169" lon="110.50117165781558">
        <ele>464.19999999999999</ele>
        <time>2013-11-17T07:22:38Z</time>
      </trkpt>
      <trkpt lat="25.397845041006804" lon="110.50117668695748">
        <ele>462.19999999999999</ele>
        <time>2013-11-17T07:22:44Z</time>
      </trkpt>
      <trkpt lat="25.397845041006804" lon="110.50117836333811">
        <ele>461.60000000000002</ele>
        <time>2013-11-17T07:22:50Z</time>
      </trkpt>
      <trkpt lat="25.397843364626169" lon="110.50117501057684">
        <ele>463.30000000000001</ele>
        <time>2013-11-17T07:22:56Z</time>
      </trkpt>
      <trkpt lat="25.397843364626169" lon="110.50117501057684">
        <ele>462.89999999999998</ele>
        <time>2013-11-17T07:23:02Z</time>
      </trkpt>
      <trkpt lat="25.397841688245535" lon="110.50117836333811">
        <ele>461.39999999999998</ele>
        <time>2013-11-17T07:23:08Z</time>
      </trkpt>
      <trkpt lat="25.397841688245535" lon="110.50118003971875">
        <ele>462.10000000000002</ele>
        <time>2013-11-17T07:23:14Z</time>
      </trkpt>
      <trkpt lat="25.397840011864901" lon="110.50118003971875">
        <ele>464.39999999999998</ele>
        <time>2013-11-17T07:23:20Z</time>
      </trkpt>
      <trkpt lat="25.397836659103632" lon="110.50118003971875">
        <ele>465.69999999999999</ele>
        <time>2013-11-17T07:23:26Z</time>
      </trkpt>
      <trkpt lat="25.397833306342363" lon="110.50117836333811">
        <ele>466</ele>
        <time>2013-11-17T07:23:32Z</time>
      </trkpt>
      <trkpt lat="25.397833306342363" lon="110.50118163228035">
        <ele>465.60000000000002</ele>
        <time>2013-11-17T07:23:38Z</time>
      </trkpt>
      <trkpt lat="25.397831629961729" lon="110.50118330866098">
        <ele>465.19999999999999</ele>
        <time>2013-11-17T07:23:44Z</time>
      </trkpt>
      <trkpt lat="25.397833306342363" lon="110.50118330866098">
        <ele>465.30000000000001</ele>
        <time>2013-11-17T07:23:50Z</time>
      </trkpt>
      <trkpt lat="25.397834982722998" lon="110.50119001418352">
        <ele>464.10000000000002</ele>
        <time>2013-11-17T07:23:56Z</time>
      </trkpt>
      <trkpt lat="25.397833306342363" lon="110.50118666142225">
        <ele>463.39999999999998</ele>
        <time>2013-11-17T07:24:02Z</time>
      </trkpt>
      <trkpt lat="25.397831629961729" lon="110.50118666142225">
        <ele>461.89999999999998</ele>
        <time>2013-11-17T07:24:08Z</time>
      </trkpt>
      <trkpt lat="25.397831629961729" lon="110.50118666142225">
        <ele>461</ele>
        <time>2013-11-17T07:24:14Z</time>
      </trkpt>
      <trkpt lat="25.397830037400126" lon="110.50118498504162">
        <ele>460.60000000000002</ele>
        <time>2013-11-17T07:24:20Z</time>
      </trkpt>
      <trkpt lat="25.397830037400126" lon="110.50118498504162">
        <ele>460.10000000000002</ele>
        <time>2013-11-17T07:24:26Z</time>
      </trkpt>
      <trkpt lat="25.397831629961729" lon="110.50118498504162">
        <ele>459.69999999999999</ele>
        <time>2013-11-17T07:24:32Z</time>
      </trkpt>
      <trkpt lat="25.397834982722998" lon="110.50118498504162">
        <ele>463</ele>
        <time>2013-11-17T07:24:38Z</time>
      </trkpt>
      <trkpt lat="25.397836659103632" lon="110.50118330866098">
        <ele>465</ele>
        <time>2013-11-17T07:24:44Z</time>
      </trkpt>
      <trkpt lat="25.397834982722998" lon="110.50118003971875">
        <ele>466.19999999999999</ele>
        <time>2013-11-17T07:24:50Z</time>
      </trkpt>
      <trkpt lat="25.397836659103632" lon="110.50118163228035">
        <ele>465.89999999999998</ele>
        <time>2013-11-17T07:24:56Z</time>
      </trkpt>
      <trkpt lat="25.397833306342363" lon="110.50118163228035">
        <ele>466.80000000000001</ele>
        <time>2013-11-17T07:25:02Z</time>
      </trkpt>
      <trkpt lat="25.397836659103632" lon="110.50118330866098">
        <ele>467.69999999999999</ele>
        <time>2013-11-17T07:25:08Z</time>
      </trkpt>
      <trkpt lat="25.397834982722998" lon="110.50118330866098">
        <ele>467.5</ele>
        <time>2013-11-17T07:25:14Z</time>
      </trkpt>
      <trkpt lat="25.397836659103632" lon="110.50118498504162">
        <ele>466.80000000000001</ele>
        <time>2013-11-17T07:25:20Z</time>
      </trkpt>
      <trkpt lat="25.397834982722998" lon="110.50118163228035">
        <ele>468.19999999999999</ele>
        <time>2013-11-17T07:25:26Z</time>
      </trkpt>
      <trkpt lat="25.397834982722998" lon="110.50118163228035">
        <ele>468.10000000000002</ele>
        <time>2013-11-17T07:25:32Z</time>
      </trkpt>
      <trkpt lat="25.397833306342363" lon="110.50117836333811">
        <ele>468.10000000000002</ele>
        <time>2013-11-17T07:25:38Z</time>
      </trkpt>
      <trkpt lat="25.397834982722998" lon="110.50118003971875">
        <ele>468.30000000000001</ele>
        <time>2013-11-17T07:25:44Z</time>
      </trkpt>
      <trkpt lat="25.397834982722998" lon="110.50118003971875">
        <ele>468.5</ele>
        <time>2013-11-17T07:25:50Z</time>
      </trkpt>
      <trkpt lat="25.397834982722998" lon="110.50117836333811">
        <ele>468.30000000000001</ele>
        <time>2013-11-17T07:25:56Z</time>
      </trkpt>
      <trkpt lat="25.397834982722998" lon="110.50118003971875">
        <ele>467.5</ele>
        <time>2013-11-17T07:26:02Z</time>
      </trkpt>
      <trkpt lat="25.397838335484266" lon="110.50118003971875">
        <ele>468.69999999999999</ele>
        <time>2013-11-17T07:26:08Z</time>
      </trkpt>
      <trkpt lat="25.397838335484266" lon="110.50118163228035">
        <ele>467</ele>
        <time>2013-11-17T07:26:14Z</time>
      </trkpt>
      <trkpt lat="25.397834982722998" lon="110.50118163228035">
        <ele>466.19999999999999</ele>
        <time>2013-11-17T07:26:20Z</time>
      </trkpt>
      <trkpt lat="25.397834982722998" lon="110.50118163228035">
        <ele>466.30000000000001</ele>
        <time>2013-11-17T07:26:26Z</time>
      </trkpt>
      <trkpt lat="25.397838335484266" lon="110.50118330866098">
        <ele>466.80000000000001</ele>
        <time>2013-11-17T07:26:32Z</time>
      </trkpt>
      <trkpt lat="25.397836659103632" lon="110.50118163228035">
        <ele>466.10000000000002</ele>
        <time>2013-11-17T07:26:38Z</time>
      </trkpt>
      <trkpt lat="25.397833306342363" lon="110.50118163228035">
        <ele>465.19999999999999</ele>
        <time>2013-11-17T07:26:44Z</time>
      </trkpt>
      <trkpt lat="25.397831629961729" lon="110.50118498504162">
        <ele>462.19999999999999</ele>
        <time>2013-11-17T07:26:50Z</time>
      </trkpt>
      <trkpt lat="25.397828361019492" lon="110.50119169056416">
        <ele>461.80000000000001</ele>
        <time>2013-11-17T07:26:56Z</time>
      </trkpt>
      <trkpt lat="25.397831629961729" lon="110.50118666142225">
        <ele>461.60000000000002</ele>
        <time>2013-11-17T07:27:02Z</time>
      </trkpt>
      <trkpt lat="25.397859960794449" lon="110.50118833780289">
        <ele>463</ele>
        <time>2013-11-17T07:27:08Z</time>
      </trkpt>
      <trkpt lat="25.397878317162395" lon="110.50119663588703">
        <ele>464.5</ele>
        <time>2013-11-17T07:27:14Z</time>
      </trkpt>
      <trkpt lat="25.397915029898286" lon="110.50121331587434">
        <ele>469.80000000000001</ele>
        <time>2013-11-17T07:27:20Z</time>
      </trkpt>
      <trkpt lat="25.397951658815145" lon="110.50124499946833">
        <ele>474.60000000000002</ele>
        <time>2013-11-17T07:27:26Z</time>
      </trkpt>
      <trkpt lat="25.397988371551037" lon="110.50127165392041">
        <ele>480.89999999999998</ele>
        <time>2013-11-17T07:27:32Z</time>
      </trkpt>
      <trkpt lat="25.398025000467896" lon="110.50129663199186">
        <ele>490.80000000000001</ele>
        <time>2013-11-17T07:27:38Z</time>
      </trkpt>
      <trkpt lat="25.398066658526659" lon="110.50132001750171">
        <ele>499.89999999999998</ele>
        <time>2013-11-17T07:27:44Z</time>
      </trkpt>
      <trkpt lat="25.39811996743083" lon="110.5013532936573">
        <ele>505.69999999999999</ele>
        <time>2013-11-17T07:27:50Z</time>
      </trkpt>
      <trkpt lat="25.398179981857538" lon="110.50138665363193">
        <ele>509.69999999999999</ele>
        <time>2013-11-17T07:27:56Z</time>
      </trkpt>
      <trkpt lat="25.398234967142344" lon="110.5014399625361">
        <ele>508.30000000000001</ele>
        <time>2013-11-17T07:28:02Z</time>
      </trkpt>
      <trkpt lat="25.398236643522978" lon="110.50148002803326">
        <ele>503.10000000000002</ele>
        <time>2013-11-17T07:28:08Z</time>
      </trkpt>
      <trkpt lat="25.398238319903612" lon="110.50152503885329">
        <ele>497.80000000000001</ele>
        <time>2013-11-17T07:28:14Z</time>
      </trkpt>
      <trkpt lat="25.398218370974064" lon="110.50154498778284">
        <ele>492.60000000000002</ele>
        <time>2013-11-17T07:28:20Z</time>
      </trkpt>
      <trkpt lat="25.398213341832161" lon="110.50158002413809">
        <ele>489.10000000000002</ele>
        <time>2013-11-17T07:28:26Z</time>
      </trkpt>
      <trkpt lat="25.398221639916301" lon="110.50161003135145">
        <ele>487.10000000000002</ele>
        <time>2013-11-17T07:28:32Z</time>
      </trkpt>
      <trkpt lat="25.398283330723643" lon="110.50162830390036">
        <ele>489</ele>
        <time>2013-11-17T07:28:38Z</time>
      </trkpt>
      <trkpt lat="25.398343345150352" lon="110.5016350094229">
        <ele>492</ele>
        <time>2013-11-17T07:28:44Z</time>
      </trkpt>
      <trkpt lat="25.398401683196425" lon="110.50164833664894">
        <ele>492.69999999999999</ele>
        <time>2013-11-17T07:28:50Z</time>
      </trkpt>
      <trkpt lat="25.398463374003768" lon="110.50166501663625">
        <ele>492.30000000000001</ele>
        <time>2013-11-17T07:28:56Z</time>
      </trkpt>
      <trkpt lat="25.398518359288573" lon="110.50171329639852">
        <ele>491.10000000000002</ele>
        <time>2013-11-17T07:29:02Z</time>
      </trkpt>
      <trkpt lat="25.398553311824799" lon="110.50177004188299">
        <ele>490.10000000000002</ele>
        <time>2013-11-17T07:29:08Z</time>
      </trkpt>
      <trkpt lat="25.398576697334647" lon="110.50184832885861">
        <ele>486.80000000000001</ele>
        <time>2013-11-17T07:29:14Z</time>
      </trkpt>
      <trkpt lat="25.398576697334647" lon="110.50193164497614">
        <ele>484.30000000000001</ele>
        <time>2013-11-17T07:29:20Z</time>
      </trkpt>
      <trkpt lat="25.398564962670207" lon="110.50200163386762">
        <ele>482.89999999999998</ele>
        <time>2013-11-17T07:29:26Z</time>
      </trkpt>
      <trkpt lat="25.398545013740659" lon="110.50206835381687">
        <ele>480.30000000000001</ele>
        <time>2013-11-17T07:29:32Z</time>
      </trkpt>
      <trkpt lat="25.39854166097939" lon="110.50211663357913">
        <ele>477.80000000000001</ele>
        <time>2013-11-17T07:29:38Z</time>
      </trkpt>
      <trkpt lat="25.398528333753347" lon="110.50218335352838">
        <ele>475</ele>
        <time>2013-11-17T07:29:44Z</time>
      </trkpt>
      <trkpt lat="25.398515006527305" lon="110.50225669518113">
        <ele>473.60000000000002</ele>
        <time>2013-11-17T07:29:50Z</time>
      </trkpt>
      <trkpt lat="25.398503355681896" lon="110.50232333131135">
        <ele>472.19999999999999</ele>
        <time>2013-11-17T07:29:56Z</time>
      </trkpt>
      <trkpt lat="25.398490028455853" lon="110.50239499658346">
        <ele>470</ele>
        <time>2013-11-17T07:30:02Z</time>
      </trkpt>
      <trkpt lat="25.398464966565371" lon="110.5024566873908">
        <ele>467.30000000000001</ele>
        <time>2013-11-17T07:30:08Z</time>
      </trkpt>
      <trkpt lat="25.398439988493919" lon="110.50251167267561">
        <ele>465.89999999999998</ele>
        <time>2013-11-17T07:30:14Z</time>
      </trkpt>
      <trkpt lat="25.398409981280565" lon="110.50255835987628">
        <ele>465.39999999999998</ele>
        <time>2013-11-17T07:30:20Z</time>
      </trkpt>
      <trkpt lat="25.398366646841168" lon="110.50260001793504">
        <ele>465.80000000000001</ele>
        <time>2013-11-17T07:30:26Z</time>
      </trkpt>
      <trkpt lat="25.398321636021137" lon="110.5026366468519">
        <ele>464.80000000000001</ele>
        <time>2013-11-17T07:30:32Z</time>
      </trkpt>
      <trkpt lat="25.398276625201106" lon="110.50268668681383">
        <ele>464.80000000000001</ele>
        <time>2013-11-17T07:30:38Z</time>
      </trkpt>
      <trkpt lat="25.398233374580741" lon="110.5027333740145">
        <ele>464.19999999999999</ele>
        <time>2013-11-17T07:30:44Z</time>
      </trkpt>
      <trkpt lat="25.398215018212795" lon="110.50275499932468">
        <ele>463.89999999999998</ele>
        <time>2013-11-17T07:30:50Z</time>
      </trkpt>
      <trkpt lat="25.398198338225484" lon="110.50275332294405">
        <ele>461.80000000000001</ele>
        <time>2013-11-17T07:30:56Z</time>
      </trkpt>
      <trkpt lat="25.398171683773398" lon="110.50280001014471">
        <ele>459.39999999999998</ele>
        <time>2013-11-17T07:31:02Z</time>
      </trkpt>
      <trkpt lat="25.398149974644184" lon="110.50286496989429">
        <ele>457.19999999999999</ele>
        <time>2013-11-17T07:31:08Z</time>
      </trkpt>
      <trkpt lat="25.398116698488593" lon="110.5029300134629">
        <ele>456.19999999999999</ele>
        <time>2013-11-17T07:31:14Z</time>
      </trkpt>
      <trkpt lat="25.398108316585422" lon="110.50301165319979">
        <ele>456.69999999999999</ele>
        <time>2013-11-17T07:31:20Z</time>
      </trkpt>
      <trkpt lat="25.39809163659811" lon="110.50307502038777">
        <ele>456.60000000000002</ele>
        <time>2013-11-17T07:31:26Z</time>
      </trkpt>
      <trkpt lat="25.398056684061885" lon="110.50311332568526">
        <ele>457.19999999999999</ele>
        <time>2013-11-17T07:31:32Z</time>
      </trkpt>
      <trkpt lat="25.398041680455208" lon="110.50314500927925">
        <ele>458.89999999999998</ele>
        <time>2013-11-17T07:31:38Z</time>
      </trkpt>
      <trkpt lat="25.3979816660285" lon="110.50319169647992">
        <ele>457.89999999999998</ele>
        <time>2013-11-17T07:31:44Z</time>
      </trkpt>
      <trkpt lat="25.3979333024472" lon="110.50324165262282">
        <ele>458.80000000000001</ele>
        <time>2013-11-17T07:31:50Z</time>
      </trkpt>
      <trkpt lat="25.397881669923663" lon="110.50328331068158">
        <ele>457.10000000000002</ele>
        <time>2013-11-17T07:31:56Z</time>
      </trkpt>
      <trkpt lat="25.397831629961729" lon="110.50331834703684">
        <ele>455.30000000000001</ele>
        <time>2013-11-17T07:32:02Z</time>
      </trkpt>
      <trkpt lat="25.397785026580095" lon="110.5033650342375">
        <ele>456.89999999999998</ele>
        <time>2013-11-17T07:32:08Z</time>
      </trkpt>
      <trkpt lat="25.397721659392118" lon="110.50339504145086">
        <ele>457.10000000000002</ele>
        <time>2013-11-17T07:32:14Z</time>
      </trkpt>
      <trkpt lat="25.397658292204142" lon="110.50341163761914">
        <ele>457</ele>
        <time>2013-11-17T07:32:20Z</time>
      </trkpt>
      <trkpt lat="25.397595008835196" lon="110.50341834314167">
        <ele>458.10000000000002</ele>
        <time>2013-11-17T07:32:26Z</time>
      </trkpt>
      <trkpt lat="25.397528372704983" lon="110.5034099612385">
        <ele>458</ele>
        <time>2013-11-17T07:32:32Z</time>
      </trkpt>
      <trkpt lat="25.397468358278275" lon="110.50340166315436">
        <ele>457.5</ele>
        <time>2013-11-17T07:32:38Z</time>
      </trkpt>
      <trkpt lat="25.397410020232201" lon="110.50339336507022">
        <ele>457.10000000000002</ele>
        <time>2013-11-17T07:32:44Z</time>
      </trkpt>
      <trkpt lat="25.397341707721353" lon="110.50338498316705">
        <ele>457.10000000000002</ele>
        <time>2013-11-17T07:32:50Z</time>
      </trkpt>
      <trkpt lat="25.397273311391473" lon="110.50337500870228">
        <ele>457.69999999999999</ele>
        <time>2013-11-17T07:32:56Z</time>
      </trkpt>
      <trkpt lat="25.397206675261259" lon="110.5033650342375">
        <ele>457.5</ele>
        <time>2013-11-17T07:33:02Z</time>
      </trkpt>
      <trkpt lat="25.397141631692648" lon="110.50335665233433">
        <ele>457.5</ele>
        <time>2013-11-17T07:33:08Z</time>
      </trkpt>
      <trkpt lat="25.397081701084971" lon="110.50334835425019">
        <ele>458.19999999999999</ele>
        <time>2013-11-17T07:33:14Z</time>
      </trkpt>
      <trkpt lat="25.397018333896995" lon="110.50333997234702">
        <ele>458.19999999999999</ele>
        <time>2013-11-17T07:33:20Z</time>
      </trkpt>
      <trkpt lat="25.396954966709018" lon="110.50333829596639">
        <ele>459.5</ele>
        <time>2013-11-17T07:33:26Z</time>
      </trkpt>
      <trkpt lat="25.396890006959438" lon="110.50333829596639">
        <ele>459.19999999999999</ele>
        <time>2013-11-17T07:33:32Z</time>
      </trkpt>
      <trkpt lat="25.396848348900676" lon="110.50336335785687">
        <ele>459.89999999999998</ele>
        <time>2013-11-17T07:33:38Z</time>
      </trkpt>
      <trkpt lat="25.396798308938742" lon="110.50339168868959">
        <ele>457.60000000000002</ele>
        <time>2013-11-17T07:33:44Z</time>
      </trkpt>
      <trkpt lat="25.396729996427894" lon="110.50342169590294">
        <ele>455.60000000000002</ele>
        <time>2013-11-17T07:33:50Z</time>
      </trkpt>
      <trkpt lat="25.396669982001185" lon="110.5034583248198">
        <ele>452.5</ele>
        <time>2013-11-17T07:33:56Z</time>
      </trkpt>
      <trkpt lat="25.396626647561789" lon="110.5035066884011">
        <ele>450.69999999999999</ele>
        <time>2013-11-17T07:34:02Z</time>
      </trkpt>
      <trkpt lat="25.39657836779952" lon="110.50355664454401">
        <ele>451.10000000000002</ele>
        <time>2013-11-17T07:34:08Z</time>
      </trkpt>
      <trkpt lat="25.396524975076318" lon="110.50361003726721">
        <ele>449.89999999999998</ele>
        <time>2013-11-17T07:34:14Z</time>
      </trkpt>
      <trkpt lat="25.396481640636921" lon="110.50365999341011">
        <ele>448.10000000000002</ele>
        <time>2013-11-17T07:34:20Z</time>
      </trkpt>
      <trkpt lat="25.396446688100696" lon="110.50372503697872">
        <ele>447.89999999999998</ele>
        <time>2013-11-17T07:34:26Z</time>
      </trkpt>
      <trkpt lat="25.396423302590847" lon="110.50378832034767">
        <ele>446.69999999999999</ele>
        <time>2013-11-17T07:34:32Z</time>
      </trkpt>
      <trkpt lat="25.39640829898417" lon="110.50385336391628">
        <ele>449.30000000000001</ele>
        <time>2013-11-17T07:34:38Z</time>
      </trkpt>
      <trkpt lat="25.39640829898417" lon="110.50392000004649">
        <ele>454.89999999999998</ele>
        <time>2013-11-17T07:34:44Z</time>
      </trkpt>
      <trkpt lat="25.396426655352116" lon="110.50399166531861">
        <ele>462.39999999999998</ele>
        <time>2013-11-17T07:34:50Z</time>
      </trkpt>
      <trkpt lat="25.396451633423567" lon="110.50404832698405">
        <ele>464.5</ele>
        <time>2013-11-17T07:34:56Z</time>
      </trkpt>
      <trkpt lat="25.39645666256547" lon="110.50407498143613">
        <ele>464.30000000000001</ele>
        <time>2013-11-17T07:35:02Z</time>
      </trkpt>
      <trkpt lat="25.396475018933415" lon="110.50411169417202">
        <ele>467.89999999999998</ele>
        <time>2013-11-17T07:35:08Z</time>
      </trkpt>
      <trkpt lat="25.396466637030244" lon="110.50413499586284">
        <ele>469</ele>
        <time>2013-11-17T07:35:14Z</time>
      </trkpt>
      <trkpt lat="25.396469989791512" lon="110.50414999946952">
        <ele>470.80000000000001</ele>
        <time>2013-11-17T07:35:20Z</time>
      </trkpt>
      <trkpt lat="25.396520029753447" lon="110.50418335944414">
        <ele>475.69999999999999</ele>
        <time>2013-11-17T07:35:26Z</time>
      </trkpt>
      <trkpt lat="25.396573338657618" lon="110.50420163199306">
        <ele>480.30000000000001</ele>
        <time>2013-11-17T07:35:32Z</time>
      </trkpt>
      <trkpt lat="25.396603345870972" lon="110.50421001389623">
        <ele>479.10000000000002</ele>
        <time>2013-11-17T07:35:38Z</time>
      </trkpt>
      <trkpt lat="25.39665162563324" lon="110.50423499196768">
        <ele>479.69999999999999</ele>
        <time>2013-11-17T07:35:44Z</time>
      </trkpt>
      <trkpt lat="25.39669998921454" lon="110.50427329726517">
        <ele>478.60000000000002</ele>
        <time>2013-11-17T07:35:50Z</time>
      </trkpt>
      <trkpt lat="25.396750029176474" lon="110.5043183080852">
        <ele>480.39999999999998</ele>
        <time>2013-11-17T07:35:56Z</time>
      </trkpt>
      <trkpt lat="25.396799985319376" lon="110.50436499528587">
        <ele>482.39999999999998</ele>
        <time>2013-11-17T07:36:02Z</time>
      </trkpt>
      <trkpt lat="25.396851701661944" lon="110.50441662780941">
        <ele>482.30000000000001</ele>
        <time>2013-11-17T07:36:08Z</time>
      </trkpt>
      <trkpt lat="25.39690668694675" lon="110.50446666777134">
        <ele>485.80000000000001</ele>
        <time>2013-11-17T07:36:14Z</time>
      </trkpt>
      <trkpt lat="25.396953374147415" lon="110.5045017041266">
        <ele>487.19999999999999</ele>
        <time>2013-11-17T07:36:20Z</time>
      </trkpt>
      <trkpt lat="25.397003330290318" lon="110.50454830750823">
        <ele>486.69999999999999</ele>
        <time>2013-11-17T07:36:26Z</time>
      </trkpt>
      <trkpt lat="25.397053370252252" lon="110.50459331832826">
        <ele>490.39999999999998</ele>
        <time>2013-11-17T07:36:32Z</time>
      </trkpt>
      <trkpt lat="25.397103326395154" lon="110.50461997278035">
        <ele>492.10000000000002</ele>
        <time>2013-11-17T07:36:38Z</time>
      </trkpt>
      <trkpt lat="25.397153366357088" lon="110.5046550091356">
        <ele>491.69999999999999</ele>
        <time>2013-11-17T07:36:44Z</time>
      </trkpt>
      <trkpt lat="25.397206675261259" lon="110.504698343575">
        <ele>492.80000000000001</ele>
        <time>2013-11-17T07:36:50Z</time>
      </trkpt>
      <trkpt lat="25.397263336926699" lon="110.5047467071563">
        <ele>493.60000000000002</ele>
        <time>2013-11-17T07:36:56Z</time>
      </trkpt>
      <trkpt lat="25.397319998592138" lon="110.50477830693126">
        <ele>494.69999999999999</ele>
        <time>2013-11-17T07:37:02Z</time>
      </trkpt>
      <trkpt lat="25.397370038554072" lon="110.50480001606047">
        <ele>496.10000000000002</ele>
        <time>2013-11-17T07:37:08Z</time>
      </trkpt>
      <trkpt lat="25.397444972768426" lon="110.50481166690588">
        <ele>498</ele>
        <time>2013-11-17T07:37:14Z</time>
      </trkpt>
      <trkpt lat="25.397514961659908" lon="110.50482834689319">
        <ele>499.10000000000002</ele>
        <time>2013-11-17T07:37:20Z</time>
      </trkpt>
      <trkpt lat="25.397580005228519" lon="110.50486003048718">
        <ele>498.89999999999998</ele>
        <time>2013-11-17T07:37:26Z</time>
      </trkpt>
      <trkpt lat="25.397631637752056" lon="110.50492163747549">
        <ele>495.30000000000001</ele>
        <time>2013-11-17T07:37:32Z</time>
      </trkpt>
      <trkpt lat="25.397678324952722" lon="110.50499497912824">
        <ele>491.30000000000001</ele>
        <time>2013-11-17T07:37:38Z</time>
      </trkpt>
      <trkpt lat="25.397721659392118" lon="110.50506999716163">
        <ele>489.39999999999998</ele>
        <time>2013-11-17T07:37:44Z</time>
      </trkpt>
      <trkpt lat="25.397755019366741" lon="110.50513998605311">
        <ele>488.30000000000001</ele>
        <time>2013-11-17T07:37:50Z</time>
      </trkpt>
      <trkpt lat="25.397803299129009" lon="110.50520502962172">
        <ele>487.19999999999999</ele>
        <time>2013-11-17T07:37:56Z</time>
      </trkpt>
      <trkpt lat="25.397840011864901" lon="110.50525163300335">
        <ele>487.80000000000001</ele>
        <time>2013-11-17T07:38:02Z</time>
      </trkpt>
      <trkpt lat="25.39787664078176" lon="110.50530502572656">
        <ele>487.5</ele>
        <time>2013-11-17T07:38:08Z</time>
      </trkpt>
      <trkpt lat="25.397913353517652" lon="110.50536336377263">
        <ele>490.60000000000002</ele>
        <time>2013-11-17T07:38:14Z</time>
      </trkpt>
      <trkpt lat="25.397943360731006" lon="110.50542002543807">
        <ele>490.69999999999999</ele>
        <time>2013-11-17T07:38:20Z</time>
      </trkpt>
      <trkpt lat="25.397976636886597" lon="110.50547668710351">
        <ele>491.89999999999998</ele>
        <time>2013-11-17T07:38:26Z</time>
      </trkpt>
      <trkpt lat="25.398013349622488" lon="110.50554164685309">
        <ele>488</ele>
        <time>2013-11-17T07:38:32Z</time>
      </trkpt>
      <trkpt lat="25.398043356835842" lon="110.50562496297061">
        <ele>483.19999999999999</ele>
        <time>2013-11-17T07:38:38Z</time>
      </trkpt>
      <trkpt lat="25.398075040429831" lon="110.50571498461068">
        <ele>475.60000000000002</ele>
        <time>2013-11-17T07:38:44Z</time>
      </trkpt>
      <trkpt lat="25.398098342120647" lon="110.50579997710884">
        <ele>469.19999999999999</ele>
        <time>2013-11-17T07:38:50Z</time>
      </trkpt>
      <trkpt lat="25.398116698488593" lon="110.50588170066476">
        <ele>464.80000000000001</ele>
        <time>2013-11-17T07:38:56Z</time>
      </trkpt>
      <trkpt lat="25.398134971037507" lon="110.50595998764038">
        <ele>462.60000000000002</ele>
        <time>2013-11-17T07:39:02Z</time>
      </trkpt>
      <trkpt lat="25.39814829826355" lon="110.50603500567377">
        <ele>459.60000000000002</ele>
        <time>2013-11-17T07:39:08Z</time>
      </trkpt>
      <trkpt lat="25.398164978250861" lon="110.50611170008779">
        <ele>456.30000000000001</ele>
        <time>2013-11-17T07:39:14Z</time>
      </trkpt>
      <trkpt lat="25.398164978250861" lon="110.50616836175323">
        <ele>455.19999999999999</ele>
        <time>2013-11-17T07:39:20Z</time>
      </trkpt>
      <trkpt lat="25.398149974644184" lon="110.50617498345673">
        <ele>454.39999999999998</ele>
        <time>2013-11-17T07:39:26Z</time>
      </trkpt>
      <trkpt lat="25.398134971037507" lon="110.50618663430214">
        <ele>453.30000000000001</ele>
        <time>2013-11-17T07:39:32Z</time>
      </trkpt>
      <trkpt lat="25.398141676560044" lon="110.50622996874154">
        <ele>453.60000000000002</ele>
        <time>2013-11-17T07:39:38Z</time>
      </trkpt>
      <trkpt lat="25.398161625489593" lon="110.50629668869078">
        <ele>451.80000000000001</ele>
        <time>2013-11-17T07:39:44Z</time>
      </trkpt>
      <trkpt lat="25.398173360154033" lon="110.50635670311749">
        <ele>449.30000000000001</ele>
        <time>2013-11-17T07:39:50Z</time>
      </trkpt>
      <trkpt lat="25.398194985464215" lon="110.50642836838961">
        <ele>448.39999999999998</ele>
        <time>2013-11-17T07:39:56Z</time>
      </trkpt>
      <trkpt lat="25.398221639916301" lon="110.50650003366172">
        <ele>450.10000000000002</ele>
        <time>2013-11-17T07:40:02Z</time>
      </trkpt>
      <trkpt lat="25.398239996284246" lon="110.5065583717078">
        <ele>453.60000000000002</ele>
        <time>2013-11-17T07:40:08Z</time>
      </trkpt>
      <trkpt lat="25.398243349045515" lon="110.50660665147007">
        <ele>458.10000000000002</ele>
        <time>2013-11-17T07:40:14Z</time>
      </trkpt>
      <trkpt lat="25.398241672664881" lon="110.50664663314819">
        <ele>462.30000000000001</ele>
        <time>2013-11-17T07:40:20Z</time>
      </trkpt>
      <trkpt lat="25.398238319903612" lon="110.50666498951614">
        <ele>462.5</ele>
        <time>2013-11-17T07:40:26Z</time>
      </trkpt>
      <trkpt lat="25.398230021819472" lon="110.50668996758759">
        <ele>462</ele>
        <time>2013-11-17T07:40:32Z</time>
      </trkpt>
      <trkpt lat="25.398228345438838" lon="110.50673833116889">
        <ele>461.5</ele>
        <time>2013-11-17T07:40:38Z</time>
      </trkpt>
      <trkpt lat="25.398231698200107" lon="110.5067983455956">
        <ele>464</ele>
        <time>2013-11-17T07:40:44Z</time>
      </trkpt>
      <trkpt lat="25.398234967142344" lon="110.50684662535787">
        <ele>465.10000000000002</ele>
        <time>2013-11-17T07:40:50Z</time>
      </trkpt>
      <trkpt lat="25.398246701806784" lon="110.50690496340394">
        <ele>468.69999999999999</ele>
        <time>2013-11-17T07:40:56Z</time>
      </trkpt>
      <trkpt lat="25.398266650736332" lon="110.50697168335319">
        <ele>469.19999999999999</ele>
        <time>2013-11-17T07:41:02Z</time>
      </trkpt>
      <trkpt lat="25.39827830158174" lon="110.50703337416053">
        <ele>467.60000000000002</ele>
        <time>2013-11-17T07:41:08Z</time>
      </trkpt>
      <trkpt lat="25.398286683484912" lon="110.50710503943264">
        <ele>466.80000000000001</ele>
        <time>2013-11-17T07:41:14Z</time>
      </trkpt>
      <trkpt lat="25.398303363472223" lon="110.50718332640827">
        <ele>468.60000000000002</ele>
        <time>2013-11-17T07:41:20Z</time>
      </trkpt>
      <trkpt lat="25.398311661556363" lon="110.50732003524899">
        <ele>469</ele>
        <time>2013-11-17T07:41:32Z</time>
      </trkpt>
      <trkpt lat="25.398324988782406" lon="110.50738834775984">
        <ele>468</ele>
        <time>2013-11-17T07:41:38Z</time>
      </trkpt>
      <trkpt lat="25.39830663241446" lon="110.50753997638822">
        <ele>464.69999999999999</ele>
        <time>2013-11-17T07:41:50Z</time>
      </trkpt>
      <trkpt lat="25.398309985175729" lon="110.50760669633746">
        <ele>464.80000000000001</ele>
        <time>2013-11-17T07:41:56Z</time>
      </trkpt>
      <trkpt lat="25.398336639627814" lon="110.50775002688169">
        <ele>469.5</ele>
        <time>2013-11-17T07:42:08Z</time>
      </trkpt>
      <trkpt lat="25.398351643234491" lon="110.50781666301191">
        <ele>469.10000000000002</ele>
        <time>2013-11-17T07:42:14Z</time>
      </trkpt>
      <trkpt lat="25.398390032351017" lon="110.50803333520889">
        <ele>471.10000000000002</ele>
        <time>2013-11-17T07:42:31Z</time>
      </trkpt>
      <trkpt lat="25.398398330435157" lon="110.50810835324228">
        <time>2013-11-17T07:42:37Z</time>
      </trkpt>
      <trkpt lat="25.398400006815791" lon="110.50812000408769">
        <ele>472.89999999999998</ele>
        <time>2013-11-17T07:42:38Z</time>
      </trkpt>
      <trkpt lat="25.398415010422468" lon="110.50817163661122">
        <ele>471.89999999999998</ele>
        <time>2013-11-17T07:42:43Z</time>
      </trkpt>
      <trkpt lat="25.398398330435157" lon="110.50828001461923">
        <time>2013-11-17T07:42:55Z</time>
      </trkpt>
      <trkpt lat="25.398398330435157" lon="110.50828998908401">
        <ele>471.30000000000001</ele>
        <time>2013-11-17T07:42:56Z</time>
      </trkpt>
      <trkpt lat="25.398393301293254" lon="110.50847833044827">
        <ele>466.69999999999999</ele>
        <time>2013-11-17T07:43:13Z</time>
      </trkpt>
      <trkpt lat="25.398406628519297" lon="110.50860330462456">
        <ele>467.60000000000002</ele>
        <time>2013-11-17T07:43:25Z</time>
      </trkpt>
      <trkpt lat="25.39840335957706" lon="110.50867832265794">
        <ele>467.60000000000002</ele>
        <time>2013-11-17T07:43:31Z</time>
      </trkpt>
      <trkpt lat="25.398396654054523" lon="110.50875996239483">
        <time>2013-11-17T07:43:37Z</time>
      </trkpt>
      <trkpt lat="25.398396654054523" lon="110.50877337343991">
        <ele>463.5</ele>
        <time>2013-11-17T07:43:38Z</time>
      </trkpt>
      <trkpt lat="25.398381650447845" lon="110.50883833318949">
        <ele>461.80000000000001</ele>
        <time>2013-11-17T07:43:43Z</time>
      </trkpt>
      <trkpt lat="25.3983632940799" lon="110.50887831486762">
        <ele>459.39999999999998</ele>
        <time>2013-11-17T07:43:49Z</time>
      </trkpt>
      <trkpt lat="25.398336639627814" lon="110.50894335843623">
        <time>2013-11-17T07:43:55Z</time>
      </trkpt>
      <trkpt lat="25.398328341543674" lon="110.50895500928164">
        <ele>457.89999999999998</ele>
        <time>2013-11-17T07:43:56Z</time>
      </trkpt>
      <trkpt lat="25.398245025426149" lon="110.50905668176711">
        <ele>461.10000000000002</ele>
        <time>2013-11-17T07:44:07Z</time>
      </trkpt>
      <trkpt lat="25.398209989070892" lon="110.50910831429064">
        <time>2013-11-17T07:44:13Z</time>
      </trkpt>
      <trkpt lat="25.398201690986753" lon="110.50911669619381">
        <ele>462.30000000000001</ele>
        <time>2013-11-17T07:44:14Z</time>
      </trkpt>
      <trkpt lat="25.398104963824153" lon="110.50921501591802">
        <time>2013-11-17T07:44:25Z</time>
      </trkpt>
      <trkpt lat="25.398094989359379" lon="110.50922331400216">
        <ele>465.30000000000001</ele>
        <time>2013-11-17T07:44:26Z</time>
      </trkpt>
      <trkpt lat="25.398056684061885" lon="110.50926664844155">
        <time>2013-11-17T07:44:31Z</time>
      </trkpt>
      <trkpt lat="25.398051654919982" lon="110.50927335396409">
        <ele>464.60000000000002</ele>
        <time>2013-11-17T07:44:32Z</time>
      </trkpt>
      <trkpt lat="25.398034974932671" lon="110.50931836478412">
        <time>2013-11-17T07:44:37Z</time>
      </trkpt>
      <trkpt lat="25.398033298552036" lon="110.50933001562953">
        <ele>463.30000000000001</ele>
        <time>2013-11-17T07:44:38Z</time>
      </trkpt>
      <trkpt lat="25.398031705990434" lon="110.5093782953918">
        <time>2013-11-17T07:44:43Z</time>
      </trkpt>
      <trkpt lat="25.398028353229165" lon="110.50939170643687">
        <ele>460.30000000000001</ele>
        <time>2013-11-17T07:44:44Z</time>
      </trkpt>
      <trkpt lat="25.398025000467896" lon="110.50945666618645">
        <time>2013-11-17T07:44:49Z</time>
      </trkpt>
      <trkpt lat="25.398026676848531" lon="110.50946831703186">
        <ele>462.30000000000001</ele>
        <time>2013-11-17T07:44:50Z</time>
      </trkpt>
      <trkpt lat="25.398030029609799" lon="110.50952162593603">
        <time>2013-11-17T07:44:55Z</time>
      </trkpt>
      <trkpt lat="25.398031705990434" lon="110.50953336060047">
        <ele>463.5</ele>
        <time>2013-11-17T07:44:56Z</time>
      </trkpt>
      <trkpt lat="25.398031705990434" lon="110.50958499312401">
        <time>2013-11-17T07:45:01Z</time>
      </trkpt>
      <trkpt lat="25.398033298552036" lon="110.50959832035005">
        <ele>461.80000000000001</ele>
        <time>2013-11-17T07:45:02Z</time>
      </trkpt>
      <trkpt lat="25.398031705990434" lon="110.50965498201549">
        <time>2013-11-17T07:45:07Z</time>
      </trkpt>
      <trkpt lat="25.398030029609799" lon="110.5096650402993">
        <ele>461.39999999999998</ele>
        <time>2013-11-17T07:45:08Z</time>
      </trkpt>
      <trkpt lat="25.398023324087262" lon="110.5097149964422">
        <time>2013-11-17T07:45:13Z</time>
      </trkpt>
      <trkpt lat="25.398021647706628" lon="110.50972832366824">
        <ele>461.39999999999998</ele>
        <time>2013-11-17T07:45:14Z</time>
      </trkpt>
      <trkpt lat="25.39800169877708" lon="110.50978498533368">
        <time>2013-11-17T07:45:19Z</time>
      </trkpt>
      <trkpt lat="25.397998346015811" lon="110.50979336723685">
        <ele>461.60000000000002</ele>
        <time>2013-11-17T07:45:20Z</time>
      </trkpt>
      <trkpt lat="25.397976636886597" lon="110.50984835252166">
        <time>2013-11-17T07:45:25Z</time>
      </trkpt>
      <trkpt lat="25.397970015183091" lon="110.50986000336707">
        <ele>461.10000000000002</ele>
        <time>2013-11-17T07:45:26Z</time>
      </trkpt>
      <trkpt lat="25.39795333519578" lon="110.50991834141314">
        <time>2013-11-17T07:45:31Z</time>
      </trkpt>
      <trkpt lat="25.397948306053877" lon="110.50992999225855">
        <ele>462.69999999999999</ele>
        <time>2013-11-17T07:45:32Z</time>
      </trkpt>
      <trkpt lat="25.397919975221157" lon="110.50999000668526">
        <time>2013-11-17T07:45:37Z</time>
      </trkpt>
      <trkpt lat="25.397915029898286" lon="110.51000165753067">
        <ele>466.60000000000002</ele>
        <time>2013-11-17T07:45:38Z</time>
      </trkpt>
      <trkpt lat="25.397885022684932" lon="110.51005831919611">
        <time>2013-11-17T07:45:43Z</time>
      </trkpt>
      <trkpt lat="25.39787664078176" lon="110.51006997004151">
        <ele>468.69999999999999</ele>
        <time>2013-11-17T07:45:44Z</time>
      </trkpt>
      <trkpt lat="25.397833306342363" lon="110.51012168638408">
        <time>2013-11-17T07:45:49Z</time>
      </trkpt>
      <trkpt lat="25.397825008258224" lon="110.51013166084886">
        <ele>469.19999999999999</ele>
        <time>2013-11-17T07:45:50Z</time>
      </trkpt>
      <trkpt lat="25.397781673818827" lon="110.51018170081079">
        <time>2013-11-17T07:45:55Z</time>
      </trkpt>
      <trkpt lat="25.397773291915655" lon="110.5101883225143">
        <ele>470.19999999999999</ele>
        <time>2013-11-17T07:45:56Z</time>
      </trkpt>
      <trkpt lat="25.39774663746357" lon="110.51021832972765">
        <time>2013-11-17T07:46:01Z</time>
      </trkpt>
      <trkpt lat="25.397736662998796" lon="110.51022830419242">
        <ele>470.69999999999999</ele>
        <time>2013-11-17T07:46:02Z</time>
      </trkpt>
      <trkpt lat="25.397695004940033" lon="110.51027499139309">
        <time>2013-11-17T07:46:07Z</time>
      </trkpt>
      <trkpt lat="25.397686706855893" lon="110.51028496585786">
        <ele>470.60000000000002</ele>
        <time>2013-11-17T07:46:08Z</time>
      </trkpt>
      <trkpt lat="25.397649994120002" lon="110.51033668220043">
        <time>2013-11-17T07:46:13Z</time>
      </trkpt>
      <trkpt lat="25.397644964978099" lon="110.51034498028457">
        <ele>469</ele>
        <time>2013-11-17T07:46:14Z</time>
      </trkpt>
      <trkpt lat="25.397621663287282" lon="110.51039334386587">
        <time>2013-11-17T07:46:19Z</time>
      </trkpt>
      <trkpt lat="25.397616634145379" lon="110.51040164195001">
        <ele>464.69999999999999</ele>
        <time>2013-11-17T07:46:20Z</time>
      </trkpt>
      <trkpt lat="25.397598361596465" lon="110.51045335829258">
        <time>2013-11-17T07:46:25Z</time>
      </trkpt>
      <trkpt lat="25.397596685215831" lon="110.51046333275735">
        <ele>459.80000000000001</ele>
        <time>2013-11-17T07:46:26Z</time>
      </trkpt>
      <trkpt lat="25.397586626932025" lon="110.51051001995802">
        <ele>455.19999999999999</ele>
        <time>2013-11-17T07:46:31Z</time>
      </trkpt>
      <trkpt lat="25.397580005228519" lon="110.51058336161077">
        <time>2013-11-17T07:46:37Z</time>
      </trkpt>
      <trkpt lat="25.397580005228519" lon="110.51059668883681">
        <ele>452.80000000000001</ele>
        <time>2013-11-17T07:46:38Z</time>
      </trkpt>
      <trkpt lat="25.397578328847885" lon="110.51066164858639">
        <ele>452.5</ele>
        <time>2013-11-17T07:46:43Z</time>
      </trkpt>
      <trkpt lat="25.397578328847885" lon="110.51073331385851">
        <time>2013-11-17T07:46:49Z</time>
      </trkpt>
      <trkpt lat="25.397580005228519" lon="110.51074664108455">
        <ele>449.80000000000001</ele>
        <time>2013-11-17T07:46:50Z</time>
      </trkpt>
      <trkpt lat="25.397585034370422" lon="110.51081168465316">
        <time>2013-11-17T07:46:55Z</time>
      </trkpt>
      <trkpt lat="25.397585034370422" lon="110.51082501187921">
        <ele>448.5</ele>
        <time>2013-11-17T07:46:56Z</time>
      </trkpt>
      <trkpt lat="25.397588303312659" lon="110.51086666993797">
        <ele>448.89999999999998</ele>
        <time>2013-11-17T07:47:01Z</time>
      </trkpt>
      <trkpt lat="25.397588303312659" lon="110.51088167354465">
        <ele>448.89999999999998</ele>
        <time>2013-11-17T07:47:07Z</time>
      </trkpt>
      <trkpt lat="25.397591656073928" lon="110.51094504073262">
        <time>2013-11-17T07:47:13Z</time>
      </trkpt>
      <trkpt lat="25.397595008835196" lon="110.51095669157803">
        <ele>451.39999999999998</ele>
        <time>2013-11-17T07:47:14Z</time>
      </trkpt>
      <trkpt lat="25.397606659680605" lon="110.51101670600474">
        <ele>451.19999999999999</ele>
        <time>2013-11-17T07:47:19Z</time>
      </trkpt>
      <trkpt lat="25.397616634145379" lon="110.51108501851559">
        <ele>450.5</ele>
        <time>2013-11-17T07:47:25Z</time>
      </trkpt>
      <trkpt lat="25.397623339667916" lon="110.51116498187184">
        <time>2013-11-17T07:47:31Z</time>
      </trkpt>
      <trkpt lat="25.397626692429185" lon="110.51117830909789">
        <ele>450.19999999999999</ele>
        <time>2013-11-17T07:47:32Z</time>
      </trkpt>
      <trkpt lat="25.397634990513325" lon="110.51123002544045">
        <ele>451</ele>
        <time>2013-11-17T07:47:37Z</time>
      </trkpt>
      <trkpt lat="25.397631637752056" lon="110.5112433526665">
        <ele>453.80000000000001</ele>
        <time>2013-11-17T07:47:43Z</time>
      </trkpt>
      <trkpt lat="25.397629961371422" lon="110.51125165075064">
        <ele>454.80000000000001</ele>
        <time>2013-11-17T07:47:49Z</time>
      </trkpt>
      <trkpt lat="25.397644964978099" lon="110.51130495965481">
        <ele>454.19999999999999</ele>
        <time>2013-11-17T07:47:55Z</time>
      </trkpt>
      <trkpt lat="25.397658292204142" lon="110.51137000322342">
        <ele>458.80000000000001</ele>
        <time>2013-11-17T07:48:01Z</time>
      </trkpt>
      <trkpt lat="25.397678324952722" lon="110.5114333704114">
        <ele>464.89999999999998</ele>
        <time>2013-11-17T07:48:07Z</time>
      </trkpt>
      <trkpt lat="25.39768997579813" lon="110.51149003207684">
        <ele>470.19999999999999</ele>
        <time>2013-11-17T07:48:13Z</time>
      </trkpt>
      <trkpt lat="25.397708332166076" lon="110.51155331544578">
        <ele>482.10000000000002</ele>
        <time>2013-11-17T07:48:19Z</time>
      </trkpt>
      <trkpt lat="25.397721659392118" lon="110.5116300098598">
        <ele>490.69999999999999</ele>
        <time>2013-11-17T07:48:25Z</time>
      </trkpt>
      <trkpt lat="25.397736662998796" lon="110.51170670427382">
        <ele>496.69999999999999</ele>
        <time>2013-11-17T07:48:31Z</time>
      </trkpt>
      <trkpt lat="25.397734986618161" lon="110.51178163848817">
        <ele>496.69999999999999</ele>
        <time>2013-11-17T07:48:37Z</time>
      </trkpt>
      <trkpt lat="25.397719983011484" lon="110.51186000928283">
        <ele>492.19999999999999</ele>
        <time>2013-11-17T07:48:43Z</time>
      </trkpt>
      <trkpt lat="25.397716630250216" lon="110.51192832179368">
        <ele>483</ele>
        <time>2013-11-17T07:48:49Z</time>
      </trkpt>
      <trkpt lat="25.39768167771399" lon="110.51199336536229">
        <ele>476.5</ele>
        <time>2013-11-17T07:48:55Z</time>
      </trkpt>
      <trkpt lat="25.397641696035862" lon="110.51204667426646">
        <ele>472.30000000000001</ele>
        <time>2013-11-17T07:49:01Z</time>
      </trkpt>
      <trkpt lat="25.397596685215831" lon="110.5121083650738">
        <ele>469.60000000000002</ele>
        <time>2013-11-17T07:49:07Z</time>
      </trkpt>
      <trkpt lat="25.3975516743958" lon="110.51217500120401">
        <ele>473.30000000000001</ele>
        <time>2013-11-17T07:49:13Z</time>
      </trkpt>
      <trkpt lat="25.39749501273036" lon="110.51224331371486">
        <ele>475.10000000000002</ele>
        <time>2013-11-17T07:49:19Z</time>
      </trkpt>
      <trkpt lat="25.397436674684286" lon="110.51231003366411">
        <ele>473.89999999999998</ele>
        <time>2013-11-17T07:49:25Z</time>
      </trkpt>
      <trkpt lat="25.397376660257578" lon="110.51236669532955">
        <ele>473.19999999999999</ele>
        <time>2013-11-17T07:49:31Z</time>
      </trkpt>
      <trkpt lat="25.397306671366096" lon="110.51241497509181">
        <ele>473.60000000000002</ele>
        <time>2013-11-17T07:49:37Z</time>
      </trkpt>
      <trkpt lat="25.39723165333271" lon="110.51245663315058">
        <ele>473.60000000000002</ele>
        <time>2013-11-17T07:49:43Z</time>
      </trkpt>
      <trkpt lat="25.397166693583131" lon="110.51249669864774">
        <ele>476.19999999999999</ele>
        <time>2013-11-17T07:49:49Z</time>
      </trkpt>
      <trkpt lat="25.397096704691648" lon="110.51252335309982">
        <ele>479</ele>
        <time>2013-11-17T07:49:55Z</time>
      </trkpt>
      <trkpt lat="25.397026631981134" lon="110.51254330202937">
        <ele>481</ele>
        <time>2013-11-17T07:50:01Z</time>
      </trkpt>
      <trkpt lat="25.396971646696329" lon="110.51256668753922">
        <ele>483</ele>
        <time>2013-11-17T07:50:07Z</time>
      </trkpt>
      <trkpt lat="25.396913308650255" lon="110.51257666200399">
        <ele>482.60000000000002</ele>
        <time>2013-11-17T07:50:13Z</time>
      </trkpt>
      <trkpt lat="25.396851701661944" lon="110.51259837113321">
        <ele>483.69999999999999</ele>
        <time>2013-11-17T07:50:19Z</time>
      </trkpt>
      <trkpt lat="25.396795039996505" lon="110.51260331645608">
        <ele>482.5</ele>
        <time>2013-11-17T07:50:25Z</time>
      </trkpt>
      <trkpt lat="25.396784981712699" lon="110.51259501837194">
        <ele>482.10000000000002</ele>
        <time>2013-11-17T07:50:31Z</time>
      </trkpt>
      <trkpt lat="25.396766625344753" lon="110.51259166561067">
        <ele>481.30000000000001</ele>
        <time>2013-11-17T07:50:37Z</time>
      </trkpt>
      <trkpt lat="25.396688338369131" lon="110.51259501837194">
        <ele>479.5</ele>
        <time>2013-11-17T07:50:43Z</time>
      </trkpt>
      <trkpt lat="25.396616673097014" lon="110.51257163286209">
        <ele>477.80000000000001</ele>
        <time>2013-11-17T07:50:49Z</time>
      </trkpt>
      <trkpt lat="25.39657836779952" lon="110.51257498562336">
        <ele>477.19999999999999</ele>
        <time>2013-11-17T07:50:55Z</time>
      </trkpt>
      <trkpt lat="25.396496644243598" lon="110.51258663646877">
        <ele>478</ele>
        <time>2013-11-17T07:51:01Z</time>
      </trkpt>
      <trkpt lat="25.39642003364861" lon="110.51260499283671">
        <ele>478.89999999999998</ele>
        <time>2013-11-17T07:51:07Z</time>
      </trkpt>
      <trkpt lat="25.396363371983171" lon="110.5126316472888">
        <ele>478.39999999999998</ele>
        <time>2013-11-17T07:51:13Z</time>
      </trkpt>
      <trkpt lat="25.396336633712053" lon="110.51265662536025">
        <ele>479</ele>
        <time>2013-11-17T07:51:19Z</time>
      </trkpt>
      <trkpt lat="25.396308302879333" lon="110.51266668364406">
        <ele>478.80000000000001</ele>
        <time>2013-11-17T07:51:25Z</time>
      </trkpt>
      <trkpt lat="25.396258346736431" lon="110.51266500726342">
        <ele>479.19999999999999</ele>
        <time>2013-11-17T07:51:31Z</time>
      </trkpt>
      <trkpt lat="25.39619330316782" lon="110.51267330534756">
        <ele>480.10000000000002</ele>
        <time>2013-11-17T07:51:37Z</time>
      </trkpt>
      <trkpt lat="25.396134965121746" lon="110.51269333809614">
        <ele>480.19999999999999</ele>
        <time>2013-11-17T07:51:43Z</time>
      </trkpt>
      <trkpt lat="25.396068328991532" lon="110.51274170167744">
        <ele>481.30000000000001</ele>
        <time>2013-11-17T07:51:49Z</time>
      </trkpt>
      <trkpt lat="25.396023318171501" lon="110.51279165782034">
        <ele>482.69999999999999</ele>
        <time>2013-11-17T07:51:55Z</time>
      </trkpt>
      <trkpt lat="25.395979983732104" lon="110.51285167224705">
        <ele>482.60000000000002</ele>
        <time>2013-11-17T07:52:01Z</time>
      </trkpt>
      <trkpt lat="25.395964980125427" lon="110.51290498115122">
        <ele>491.30000000000001</ele>
        <time>2013-11-17T07:52:07Z</time>
      </trkpt>
      <trkpt lat="25.395960034802556" lon="110.51293666474521">
        <ele>498.60000000000002</ele>
        <time>2013-11-17T07:52:13Z</time>
      </trkpt>
      <trkpt lat="25.395936649292707" lon="110.51297329366207">
        <ele>505.30000000000001</ele>
        <time>2013-11-17T07:52:19Z</time>
      </trkpt>
      <trkpt lat="25.39592164568603" lon="110.51303833723068">
        <ele>500.60000000000002</ele>
        <time>2013-11-17T07:52:25Z</time>
      </trkpt>
      <trkpt lat="25.395919969305396" lon="110.51311335526407">
        <ele>499.30000000000001</ele>
        <time>2013-11-17T07:52:31Z</time>
      </trkpt>
      <trkpt lat="25.395931703969836" lon="110.51317169331014">
        <ele>500.30000000000001</ele>
        <time>2013-11-17T07:52:37Z</time>
      </trkpt>
      <trkpt lat="25.395938325673342" lon="110.51323330029845">
        <ele>501.30000000000001</ele>
        <time>2013-11-17T07:52:43Z</time>
      </trkpt>
      <trkpt lat="25.395933296531439" lon="110.51328166387975">
        <ele>500.19999999999999</ele>
        <time>2013-11-17T07:52:49Z</time>
      </trkpt>
      <trkpt lat="25.395933296531439" lon="110.51332835108042">
        <ele>499</ele>
        <time>2013-11-17T07:52:55Z</time>
      </trkpt>
      <trkpt lat="25.395924998447299" lon="110.5133983399719">
        <ele>495</ele>
        <time>2013-11-17T07:53:01Z</time>
      </trkpt>
      <trkpt lat="25.395928351208568" lon="110.51347168162465">
        <ele>499.69999999999999</ele>
        <time>2013-11-17T07:53:07Z</time>
      </trkpt>
      <trkpt lat="25.395916700363159" lon="110.51355164498091">
        <ele>505.10000000000002</ele>
        <time>2013-11-17T07:53:13Z</time>
      </trkpt>
      <trkpt lat="25.395893314853311" lon="110.51361501216888">
        <ele>499.30000000000001</ele>
        <time>2013-11-17T07:53:19Z</time>
      </trkpt>
      <trkpt lat="25.39586003869772" lon="110.51368835382164">
        <ele>493.89999999999998</ele>
        <time>2013-11-17T07:53:25Z</time>
      </trkpt>
      <trkpt lat="25.395830031484365" lon="110.51374996080995">
        <ele>498.19999999999999</ele>
        <time>2013-11-17T07:53:31Z</time>
      </trkpt>
      <trkpt lat="25.395809998735785" lon="110.51377669908106">
        <ele>499.80000000000001</ele>
        <time>2013-11-17T07:53:37Z</time>
      </trkpt>
      <trkpt lat="25.395788373425603" lon="110.51380670629442">
        <ele>494.69999999999999</ele>
        <time>2013-11-17T07:53:43Z</time>
      </trkpt>
      <trkpt lat="25.395770017057657" lon="110.513871666044">
        <ele>489.10000000000002</ele>
        <time>2013-11-17T07:53:49Z</time>
      </trkpt>
      <trkpt lat="25.395743362605572" lon="110.51394165493548">
        <ele>485.39999999999998</ele>
        <time>2013-11-17T07:53:55Z</time>
      </trkpt>
      <trkpt lat="25.395728358998895" lon="110.5139699857682">
        <ele>481.30000000000001</ele>
        <time>2013-11-17T07:54:01Z</time>
      </trkpt>
      <trkpt lat="25.395718300715089" lon="110.51396336406469">
        <ele>474.80000000000001</ele>
        <time>2013-11-17T07:54:07Z</time>
      </trkpt>
      <trkpt lat="25.395700028166175" lon="110.51399664022028">
        <ele>475.10000000000002</ele>
        <time>2013-11-17T07:54:13Z</time>
      </trkpt>
      <trkpt lat="25.395636660978198" lon="110.51401667296886">
        <ele>476.89999999999998</ele>
        <time>2013-11-17T07:54:19Z</time>
      </trkpt>
      <trkpt lat="25.395579999312758" lon="110.51406662911177">
        <ele>481.80000000000001</ele>
        <time>2013-11-17T07:54:25Z</time>
      </trkpt>
      <trkpt lat="25.395523337647319" lon="110.51409831270576">
        <ele>488.5</ele>
        <time>2013-11-17T07:54:31Z</time>
      </trkpt>
      <trkpt lat="25.395444966852665" lon="110.51411499269307">
        <ele>488.80000000000001</ele>
        <time>2013-11-17T07:54:37Z</time>
      </trkpt>
      <trkpt lat="25.395380007103086" lon="110.51412496715784">
        <ele>486.5</ele>
        <time>2013-11-17T07:54:43Z</time>
      </trkpt>
      <trkpt lat="25.395314963534474" lon="110.51414667628706">
        <ele>484.39999999999998</ele>
        <time>2013-11-17T07:54:49Z</time>
      </trkpt>
      <trkpt lat="25.3952566254884" lon="110.51414499990642">
        <ele>482.89999999999998</ele>
        <time>2013-11-17T07:54:55Z</time>
      </trkpt>
      <trkpt lat="25.395203316584229" lon="110.51415832713246">
        <ele>485.30000000000001</ele>
        <time>2013-11-17T07:55:01Z</time>
      </trkpt>
      <trkpt lat="25.395136680454016" lon="110.514165032655">
        <ele>484.39999999999998</ele>
        <time>2013-11-17T07:55:07Z</time>
      </trkpt>
      <trkpt lat="25.395074989646673" lon="110.51417165435851">
        <ele>483.10000000000002</ele>
        <time>2013-11-17T07:55:13Z</time>
      </trkpt>
      <trkpt lat="25.395016651600599" lon="110.51419001072645">
        <ele>483.10000000000002</ele>
        <time>2013-11-17T07:55:19Z</time>
      </trkpt>
      <trkpt lat="25.39495169185102" lon="110.514209959656">
        <ele>484.19999999999999</ele>
        <time>2013-11-17T07:55:25Z</time>
      </trkpt>
      <trkpt lat="25.394896706566215" lon="110.51422831602395">
        <ele>485.39999999999998</ele>
        <time>2013-11-17T07:55:31Z</time>
      </trkpt>
      <trkpt lat="25.394836692139506" lon="110.51425497047603">
        <ele>485.30000000000001</ele>
        <time>2013-11-17T07:55:37Z</time>
      </trkpt>
      <trkpt lat="25.394771648570895" lon="110.51427667960525">
        <ele>485.60000000000002</ele>
        <time>2013-11-17T07:55:43Z</time>
      </trkpt>
      <trkpt lat="25.39470836520195" lon="110.51430333405733">
        <ele>485.19999999999999</ele>
        <time>2013-11-17T07:55:49Z</time>
      </trkpt>
      <trkpt lat="25.394653296098113" lon="110.51432336680591">
        <ele>485.60000000000002</ele>
        <time>2013-11-17T07:55:55Z</time>
      </trkpt>
      <trkpt lat="25.394638292491436" lon="110.51432663574815">
        <ele>482.89999999999998</ele>
        <time>2013-11-17T07:56:01Z</time>
      </trkpt>
      <trkpt lat="25.394601663574576" lon="110.51433669403195">
        <ele>483.69999999999999</ele>
        <time>2013-11-17T07:56:07Z</time>
      </trkpt>
      <trkpt lat="25.394548354670405" lon="110.51434666849673">
        <ele>483.19999999999999</ele>
        <time>2013-11-17T07:56:13Z</time>
      </trkpt>
      <trkpt lat="25.394524969160557" lon="110.51434834487736">
        <ele>481.10000000000002</ele>
        <time>2013-11-17T07:56:19Z</time>
      </trkpt>
      <trkpt lat="25.394491693004966" lon="110.514350021258">
        <ele>479.39999999999998</ele>
        <time>2013-11-17T07:56:25Z</time>
      </trkpt>
      <trkpt lat="25.394476689398289" lon="110.51436502486467">
        <ele>480.19999999999999</ele>
        <time>2013-11-17T07:56:31Z</time>
      </trkpt>
      <trkpt lat="25.3944450058043" lon="110.51437164656818">
        <ele>478</ele>
        <time>2013-11-17T07:56:37Z</time>
      </trkpt>
      <trkpt lat="25.394416674971581" lon="110.51438002847135">
        <ele>476.69999999999999</ele>
        <time>2013-11-17T07:56:43Z</time>
      </trkpt>
      <trkpt lat="25.394383314996958" lon="110.51440668292344">
        <ele>479.10000000000002</ele>
        <time>2013-11-17T07:56:49Z</time>
      </trkpt>
      <trkpt lat="25.394360013306141" lon="110.51443333737552">
        <ele>485.60000000000002</ele>
        <time>2013-11-17T07:56:55Z</time>
      </trkpt>
      <trkpt lat="25.394345009699464" lon="110.51444498822093">
        <ele>486.80000000000001</ele>
        <time>2013-11-17T07:57:01Z</time>
      </trkpt>
      <trkpt lat="25.394316678866744" lon="110.51448170095682">
        <ele>485.19999999999999</ele>
        <time>2013-11-17T07:57:07Z</time>
      </trkpt>
      <trkpt lat="25.39429496973753" lon="110.51448664627969">
        <ele>482.60000000000002</ele>
        <time>2013-11-17T07:57:13Z</time>
      </trkpt>
      <trkpt lat="25.394279966130853" lon="110.51448832266033">
        <ele>479.30000000000001</ele>
        <time>2013-11-17T07:57:19Z</time>
      </trkpt>
      <trkpt lat="25.394264962524176" lon="110.51449335180223">
        <ele>477</ele>
        <time>2013-11-17T07:57:25Z</time>
      </trkpt>
      <trkpt lat="25.394256664440036" lon="110.51449335180223">
        <ele>475.60000000000002</ele>
        <time>2013-11-17T07:57:31Z</time>
      </trkpt>
      <trkpt lat="25.394248366355896" lon="110.51449335180223">
        <ele>474.60000000000002</ele>
        <time>2013-11-17T07:57:37Z</time>
      </trkpt>
      <trkpt lat="25.394241660833359" lon="110.51449335180223">
        <ele>473.60000000000002</ele>
        <time>2013-11-17T07:57:43Z</time>
      </trkpt>
      <trkpt lat="25.394235039129853" lon="110.51449335180223">
        <ele>472.5</ele>
        <time>2013-11-17T07:57:49Z</time>
      </trkpt>
      <trkpt lat="25.394233362749219" lon="110.51449502818286">
        <ele>471.69999999999999</ele>
        <time>2013-11-17T07:57:55Z</time>
      </trkpt>
      <trkpt lat="25.394231686368585" lon="110.5144982971251">
        <ele>471.69999999999999</ele>
        <time>2013-11-17T07:58:01Z</time>
      </trkpt>
      <trkpt lat="25.394228333607316" lon="110.51450500264764">
        <ele>471.39999999999998</ele>
        <time>2013-11-17T07:58:07Z</time>
      </trkpt>
      <trkpt lat="25.394224980846047" lon="110.51451003178954">
        <ele>470.80000000000001</ele>
        <time>2013-11-17T07:58:13Z</time>
      </trkpt>
      <trkpt lat="25.394224980846047" lon="110.51451170817018">
        <ele>470.10000000000002</ele>
        <time>2013-11-17T07:58:19Z</time>
      </trkpt>
      <trkpt lat="25.394224980846047" lon="110.51451330073178">
        <ele>469.30000000000001</ele>
        <time>2013-11-17T07:58:25Z</time>
      </trkpt>
      <trkpt lat="25.394226657226682" lon="110.51451003178954">
        <ele>469</ele>
        <time>2013-11-17T07:58:31Z</time>
      </trkpt>
      <trkpt lat="25.394221628084779" lon="110.51451497711241">
        <ele>467.30000000000001</ele>
        <time>2013-11-17T07:58:37Z</time>
      </trkpt>
      <trkpt lat="25.394218359142542" lon="110.51451832987368">
        <ele>465.89999999999998</ele>
        <time>2013-11-17T07:58:43Z</time>
      </trkpt>
      <trkpt lat="25.394218359142542" lon="110.51451832987368">
        <ele>464.5</ele>
        <time>2013-11-17T07:58:49Z</time>
      </trkpt>
      <trkpt lat="25.394220035523176" lon="110.51451665349305">
        <ele>464.80000000000001</ele>
        <time>2013-11-17T07:58:55Z</time>
      </trkpt>
      <trkpt lat="25.394220035523176" lon="110.51451665349305">
        <ele>464.80000000000001</ele>
        <time>2013-11-17T07:59:01Z</time>
      </trkpt>
      <trkpt lat="25.394220035523176" lon="110.51451665349305">
        <ele>465.30000000000001</ele>
        <time>2013-11-17T07:59:07Z</time>
      </trkpt>
      <trkpt lat="25.394220035523176" lon="110.51452000625432">
        <ele>465.19999999999999</ele>
        <time>2013-11-17T07:59:13Z</time>
      </trkpt>
      <trkpt lat="25.394220035523176" lon="110.51452168263495">
        <ele>465.60000000000002</ele>
        <time>2013-11-17T07:59:19Z</time>
      </trkpt>
      <trkpt lat="25.394221628084779" lon="110.51452000625432">
        <ele>463.80000000000001</ele>
        <time>2013-11-17T07:59:25Z</time>
      </trkpt>
      <trkpt lat="25.394215006381273" lon="110.51453668624163">
        <ele>462.89999999999998</ele>
        <time>2013-11-17T07:59:31Z</time>
      </trkpt>
      <trkpt lat="25.394205031916499" lon="110.51455663517118">
        <ele>462.5</ele>
        <time>2013-11-17T07:59:37Z</time>
      </trkpt>
      <trkpt lat="25.394206708297133" lon="110.51455495879054">
        <ele>461.80000000000001</ele>
        <time>2013-11-17T07:59:43Z</time>
      </trkpt>
      <trkpt lat="25.394208300858736" lon="110.51456166431308">
        <ele>461.30000000000001</ele>
        <time>2013-11-17T07:59:49Z</time>
      </trkpt>
      <trkpt lat="25.394215006381273" lon="110.51457331515849">
        <ele>463.10000000000002</ele>
        <time>2013-11-17T07:59:55Z</time>
      </trkpt>
      <trkpt lat="25.394213330000639" lon="110.51458169706166">
        <ele>463.10000000000002</ele>
        <time>2013-11-17T08:00:01Z</time>
      </trkpt>
      <trkpt lat="25.394211653620005" lon="110.51456501707435">
        <ele>463.60000000000002</ele>
        <time>2013-11-17T08:00:07Z</time>
      </trkpt>
      <trkpt lat="25.394208300858736" lon="110.51456501707435">
        <ele>464.19999999999999</ele>
        <time>2013-11-17T08:00:13Z</time>
      </trkpt>
      <trkpt lat="25.394226657226682" lon="110.51453836262226">
        <ele>464</ele>
        <time>2013-11-17T08:00:19Z</time>
      </trkpt>
      <trkpt lat="25.394253311678767" lon="110.51448832266033">
        <ele>461.19999999999999</ele>
        <time>2013-11-17T08:00:25Z</time>
      </trkpt>
      <trkpt lat="25.39426663890481" lon="110.51447331905365">
        <ele>461.39999999999998</ele>
        <time>2013-11-17T08:00:31Z</time>
      </trkpt>
      <trkpt lat="25.39429496973753" lon="110.51447667181492">
        <ele>462.80000000000001</ele>
        <time>2013-11-17T08:00:37Z</time>
      </trkpt>
      <trkpt lat="25.39431500248611" lon="110.51452830433846">
        <ele>462.89999999999998</ele>
        <time>2013-11-17T08:00:43Z</time>
      </trkpt>
      <trkpt lat="25.394326653331518" lon="110.51452998071909">
        <ele>464.10000000000002</ele>
        <time>2013-11-17T08:00:49Z</time>
      </trkpt>
      <trkpt lat="25.394330006092787" lon="110.51453165709972">
        <ele>465.39999999999998</ele>
        <time>2013-11-17T08:00:55Z</time>
      </trkpt>
      <trkpt lat="25.394341656938195" lon="110.51451170817018">
        <ele>468.5</ele>
        <time>2013-11-17T08:01:01Z</time>
      </trkpt>
      <trkpt lat="25.394324976950884" lon="110.51451003178954">
        <ele>471.69999999999999</ele>
        <time>2013-11-17T08:01:07Z</time>
      </trkpt>
      <trkpt lat="25.394296646118164" lon="110.51451665349305">
        <ele>472.69999999999999</ele>
        <time>2013-11-17T08:01:13Z</time>
      </trkpt>
      <trkpt lat="25.394284995272756" lon="110.514503326267">
        <ele>469.19999999999999</ele>
        <time>2013-11-17T08:01:19Z</time>
      </trkpt>
      <trkpt lat="25.394269991666079" lon="110.51449502818286">
        <ele>466.39999999999998</ele>
        <time>2013-11-17T08:01:25Z</time>
      </trkpt>
      <trkpt lat="25.394249958917499" lon="110.51450667902827">
        <ele>465.60000000000002</ele>
        <time>2013-11-17T08:01:31Z</time>
      </trkpt>
      <trkpt lat="25.394246689975262" lon="110.51450164988637">
        <ele>465</ele>
        <time>2013-11-17T08:01:37Z</time>
      </trkpt>
      <trkpt lat="25.394245013594627" lon="110.51451003178954">
        <ele>465.60000000000002</ele>
        <time>2013-11-17T08:01:43Z</time>
      </trkpt>
      <trkpt lat="25.394235039129853" lon="110.51452335901558">
        <ele>466.89999999999998</ele>
        <time>2013-11-17T08:01:49Z</time>
      </trkpt>
      <trkpt lat="25.394208300858736" lon="110.51455998793244">
        <ele>469.5</ele>
        <time>2013-11-17T08:01:55Z</time>
      </trkpt>
      <trkpt lat="25.394194973632693" lon="110.51458496600389">
        <ele>470</ele>
        <time>2013-11-17T08:02:01Z</time>
      </trkpt>
      <trkpt lat="25.394193297252059" lon="110.51459334790707">
        <ele>469.10000000000002</ele>
        <time>2013-11-17T08:02:07Z</time>
      </trkpt>
      <trkpt lat="25.394208300858736" lon="110.5145950242877">
        <ele>469.80000000000001</ele>
        <time>2013-11-17T08:02:13Z</time>
      </trkpt>
      <trkpt lat="25.394215006381273" lon="110.51456501707435">
        <ele>467.30000000000001</ele>
        <time>2013-11-17T08:02:19Z</time>
      </trkpt>
      <trkpt lat="25.394183322787285" lon="110.51456166431308">
        <ele>463.5</ele>
        <time>2013-11-17T08:02:25Z</time>
      </trkpt>
      <trkpt lat="25.394156668335199" lon="110.51455998793244">
        <ele>460.80000000000001</ele>
        <time>2013-11-17T08:02:31Z</time>
      </trkpt>
      <trkpt lat="25.394173348322511" lon="110.51456334069371">
        <ele>465.80000000000001</ele>
        <time>2013-11-17T08:02:37Z</time>
      </trkpt>
      <trkpt lat="25.394200002774596" lon="110.51455998793244">
        <ele>469</ele>
        <time>2013-11-17T08:02:43Z</time>
      </trkpt>
      <trkpt lat="25.39420997723937" lon="110.51452998071909">
        <ele>469.39999999999998</ele>
        <time>2013-11-17T08:02:49Z</time>
      </trkpt>
      <trkpt lat="25.394208300858736" lon="110.51451665349305">
        <ele>468.19999999999999</ele>
        <time>2013-11-17T08:02:55Z</time>
      </trkpt>
      <trkpt lat="25.394194973632693" lon="110.51451330073178">
        <ele>464.80000000000001</ele>
        <time>2013-11-17T08:03:01Z</time>
      </trkpt>
      <trkpt lat="25.394188351929188" lon="110.51452662795782">
        <ele>463.69999999999999</ele>
        <time>2013-11-17T08:03:07Z</time>
      </trkpt>
      <trkpt lat="25.394188351929188" lon="110.51453836262226">
        <ele>464.60000000000002</ele>
        <time>2013-11-17T08:03:13Z</time>
      </trkpt>
      <trkpt lat="25.394191704690456" lon="110.5145516898483">
        <ele>463.39999999999998</ele>
        <time>2013-11-17T08:03:19Z</time>
      </trkpt>
      <trkpt lat="25.394200002774596" lon="110.51456334069371">
        <ele>462.80000000000001</ele>
        <time>2013-11-17T08:03:25Z</time>
      </trkpt>
      <trkpt lat="25.394198326393962" lon="110.51458169706166">
        <ele>462.80000000000001</ele>
        <time>2013-11-17T08:03:31Z</time>
      </trkpt>
      <trkpt lat="25.394188351929188" lon="110.51460332237184">
        <ele>462.80000000000001</ele>
        <time>2013-11-17T08:03:37Z</time>
      </trkpt>
      <trkpt lat="25.394184999167919" lon="110.51461329683661">
        <ele>462.69999999999999</ele>
        <time>2013-11-17T08:03:43Z</time>
      </trkpt>
      <trkpt lat="25.394183322787285" lon="110.51459829322994">
        <ele>464.19999999999999</ele>
        <time>2013-11-17T08:03:49Z</time>
      </trkpt>
      <trkpt lat="25.394186675548553" lon="110.51459829322994">
        <ele>464.10000000000002</ele>
        <time>2013-11-17T08:03:55Z</time>
      </trkpt>
      <trkpt lat="25.394166642799973" lon="110.51462670788169">
        <ele>465.10000000000002</ele>
        <time>2013-11-17T08:04:01Z</time>
      </trkpt>
      <trkpt lat="25.394134959205985" lon="110.51466668955982">
        <ele>467.69999999999999</ele>
        <time>2013-11-17T08:04:07Z</time>
      </trkpt>
      <trkpt lat="25.394106628373265" lon="110.51470834761858">
        <ele>469.30000000000001</ele>
        <time>2013-11-17T08:04:13Z</time>
      </trkpt>
      <trkpt lat="25.39407997392118" lon="110.51475000567734">
        <ele>470.80000000000001</ele>
        <time>2013-11-17T08:04:19Z</time>
      </trkpt>
      <trkpt lat="25.394060024991632" lon="110.5147916637361">
        <ele>472.89999999999998</ele>
        <time>2013-11-17T08:04:25Z</time>
      </trkpt>
      <trkpt lat="25.394030017778277" lon="110.51483667455614">
        <ele>474.60000000000002</ele>
        <time>2013-11-17T08:04:31Z</time>
      </trkpt>
      <trkpt lat="25.393996657803655" lon="110.51488000899553">
        <ele>477.60000000000002</ele>
        <time>2013-11-17T08:04:37Z</time>
      </trkpt>
      <trkpt lat="25.393973356112838" lon="110.5149216670543">
        <ele>479.30000000000001</ele>
        <time>2013-11-17T08:04:43Z</time>
      </trkpt>
      <trkpt lat="25.393943348899484" lon="110.51496164873242">
        <ele>480.89999999999998</ele>
        <time>2013-11-17T08:04:49Z</time>
      </trkpt>
      <trkpt lat="25.39389330893755" lon="110.51500003784895">
        <ele>481.5</ele>
        <time>2013-11-17T08:04:55Z</time>
      </trkpt>
      <trkpt lat="25.393838323652744" lon="110.51503163762391">
        <ele>482.5</ele>
        <time>2013-11-17T08:05:01Z</time>
      </trkpt>
      <trkpt lat="25.393789960071445" lon="110.51505669951439">
        <ele>483.69999999999999</ele>
        <time>2013-11-17T08:05:07Z</time>
      </trkpt>
      <trkpt lat="25.393736651167274" lon="110.51507329568267">
        <ele>485.19999999999999</ele>
        <time>2013-11-17T08:05:13Z</time>
      </trkpt>
      <trkpt lat="25.393676636740565" lon="110.51508000120521">
        <ele>486.60000000000002</ele>
        <time>2013-11-17T08:05:19Z</time>
      </trkpt>
      <trkpt lat="25.393623327836394" lon="110.51508167758584">
        <ele>488.60000000000002</ele>
        <time>2013-11-17T08:05:25Z</time>
      </trkpt>
      <trkpt lat="25.393563313409686" lon="110.51508167758584">
        <ele>489.19999999999999</ele>
        <time>2013-11-17T08:05:31Z</time>
      </trkpt>
      <trkpt lat="25.393501706421375" lon="110.5150749720633">
        <ele>488.69999999999999</ele>
        <time>2013-11-17T08:05:37Z</time>
      </trkpt>
      <trkpt lat="25.39343498647213" lon="110.5150683503598">
        <ele>487.19999999999999</ele>
        <time>2013-11-17T08:05:43Z</time>
      </trkpt>
      <trkpt lat="25.393363321200013" lon="110.5150683503598">
        <ele>485.89999999999998</ele>
        <time>2013-11-17T08:05:49Z</time>
      </trkpt>
      <trkpt lat="25.393298361450434" lon="110.51508167758584">
        <ele>485</ele>
        <time>2013-11-17T08:05:55Z</time>
      </trkpt>
      <trkpt lat="25.393238347023726" lon="110.51510497927666">
        <ele>484.69999999999999</ele>
        <time>2013-11-17T08:06:01Z</time>
      </trkpt>
      <trkpt lat="25.393173303455114" lon="110.51514001563191">
        <ele>484.89999999999998</ele>
        <time>2013-11-17T08:06:07Z</time>
      </trkpt>
      <trkpt lat="25.393121670931578" lon="110.51517832092941">
        <ele>485.10000000000002</ele>
        <time>2013-11-17T08:06:13Z</time>
      </trkpt>
      <trkpt lat="25.393070038408041" lon="110.51521997898817">
        <ele>485.10000000000002</ele>
        <time>2013-11-17T08:06:19Z</time>
      </trkpt>
      <trkpt lat="25.393016645684838" lon="110.5152599606663">
        <ele>485.39999999999998</ele>
        <time>2013-11-17T08:06:25Z</time>
      </trkpt>
      <trkpt lat="25.392966689541936" lon="110.51530002616346">
        <ele>486</ele>
        <time>2013-11-17T08:06:31Z</time>
      </trkpt>
      <trkpt lat="25.392913296818733" lon="110.51533833146095">
        <ele>486.19999999999999</ele>
        <time>2013-11-17T08:06:37Z</time>
      </trkpt>
      <trkpt lat="25.392854958772659" lon="110.51537663675845">
        <ele>486</ele>
        <time>2013-11-17T08:06:43Z</time>
      </trkpt>
      <trkpt lat="25.392803326249123" lon="110.51542164757848">
        <ele>486.10000000000002</ele>
        <time>2013-11-17T08:06:49Z</time>
      </trkpt>
      <trkpt lat="25.392750017344952" lon="110.51547001115978">
        <ele>486.19999999999999</ele>
        <time>2013-11-17T08:06:55Z</time>
      </trkpt>
      <trkpt lat="25.392701653763652" lon="110.51552332006395">
        <ele>486.5</ele>
        <time>2013-11-17T08:07:01Z</time>
      </trkpt>
      <trkpt lat="25.392663348466158" lon="110.51558333449066">
        <ele>486.69999999999999</ele>
        <time>2013-11-17T08:07:07Z</time>
      </trkpt>
      <trkpt lat="25.392638370394707" lon="110.515645025298">
        <ele>486.39999999999998</ele>
        <time>2013-11-17T08:07:13Z</time>
      </trkpt>
      <trkpt lat="25.392618337646127" lon="110.51571669057012">
        <ele>486.60000000000002</ele>
        <time>2013-11-17T08:07:19Z</time>
      </trkpt>
      <trkpt lat="25.392584977671504" lon="110.5157866794616">
        <ele>486.10000000000002</ele>
        <time>2013-11-17T08:07:25Z</time>
      </trkpt>
      <trkpt lat="25.392556646838784" lon="110.51585499197245">
        <ele>485.10000000000002</ele>
        <time>2013-11-17T08:07:31Z</time>
      </trkpt>
      <trkpt lat="25.392536697909236" lon="110.51592003554106">
        <ele>484.69999999999999</ele>
        <time>2013-11-17T08:07:37Z</time>
      </trkpt>
      <trkpt lat="25.392521694302559" lon="110.51599002443254">
        <ele>483</ele>
        <time>2013-11-17T08:07:43Z</time>
      </trkpt>
      <trkpt lat="25.392536697909236" lon="110.51605498418212">
        <ele>482.5</ele>
        <time>2013-11-17T08:07:49Z</time>
      </trkpt>
      <trkpt lat="25.392558323219419" lon="110.51609831862152">
        <ele>484</ele>
        <time>2013-11-17T08:07:55Z</time>
      </trkpt>
      <trkpt lat="25.392573326826096" lon="110.51610670052469">
        <ele>487.10000000000002</ele>
        <time>2013-11-17T08:08:01Z</time>
      </trkpt>
      <trkpt lat="25.392618337646127" lon="110.5161249730736">
        <ele>490.60000000000002</ele>
        <time>2013-11-17T08:08:07Z</time>
      </trkpt>
      <trkpt lat="25.392650021240115" lon="110.51615833304822">
        <ele>491.60000000000002</ele>
        <time>2013-11-17T08:08:13Z</time>
      </trkpt>
      <trkpt lat="25.392669970169663" lon="110.51619001664221">
        <ele>492.5</ele>
        <time>2013-11-17T08:08:19Z</time>
      </trkpt>
      <trkpt lat="25.392659995704889" lon="110.51620334386826">
        <ele>490.69999999999999</ele>
        <time>2013-11-17T08:08:25Z</time>
      </trkpt>
      <trkpt lat="25.392661672085524" lon="110.51620166748762">
        <ele>493</ele>
        <time>2013-11-17T08:08:31Z</time>
      </trkpt>
      <trkpt lat="25.392668293789029" lon="110.5162116419524">
        <ele>494.60000000000002</ele>
        <time>2013-11-17T08:08:37Z</time>
      </trkpt>
      <trkpt lat="25.392668293789029" lon="110.51622496917844">
        <ele>495.19999999999999</ele>
        <time>2013-11-17T08:08:43Z</time>
      </trkpt>
      <trkpt lat="25.392666701227427" lon="110.51623167470098">
        <ele>495.60000000000002</ele>
        <time>2013-11-17T08:08:49Z</time>
      </trkpt>
      <trkpt lat="25.392666701227427" lon="110.51623502746224">
        <ele>496.60000000000002</ele>
        <time>2013-11-17T08:08:55Z</time>
      </trkpt>
      <trkpt lat="25.392688326537609" lon="110.51622832193971">
        <ele>499.10000000000002</ele>
        <time>2013-11-17T08:09:01Z</time>
      </trkpt>
      <trkpt lat="25.392691679298878" lon="110.51623670384288">
        <ele>498.19999999999999</ele>
        <time>2013-11-17T08:09:07Z</time>
      </trkpt>
      <trkpt lat="25.39273333735764" lon="110.5162166710943">
        <ele>502.19999999999999</ele>
        <time>2013-11-17T08:09:13Z</time>
      </trkpt>
      <trkpt lat="25.39275337010622" lon="110.51627333275974">
        <ele>500.80000000000001</ele>
        <time>2013-11-17T08:09:19Z</time>
      </trkpt>
      <trkpt lat="25.392783293500543" lon="110.51632169634104">
        <ele>499.10000000000002</ele>
        <time>2013-11-17T08:09:25Z</time>
      </trkpt>
      <trkpt lat="25.392778348177671" lon="110.51635002717376">
        <ele>498.10000000000002</ele>
        <time>2013-11-17T08:09:31Z</time>
      </trkpt>
      <trkpt lat="25.392821682617068" lon="110.51637500524521">
        <ele>500.60000000000002</ele>
        <time>2013-11-17T08:09:37Z</time>
      </trkpt>
      <trkpt lat="25.392844984307885" lon="110.51639000885189">
        <ele>501.89999999999998</ele>
        <time>2013-11-17T08:09:43Z</time>
      </trkpt>
      <trkpt lat="25.392853366211057" lon="110.51640165969729">
        <ele>500.10000000000002</ele>
        <time>2013-11-17T08:09:49Z</time>
      </trkpt>
      <trkpt lat="25.392863340675831" lon="110.51640836521983">
        <ele>500</ele>
        <time>2013-11-17T08:09:55Z</time>
      </trkpt>
      <trkpt lat="25.392859987914562" lon="110.51641833968461">
        <ele>499.5</ele>
        <time>2013-11-17T08:10:01Z</time>
      </trkpt>
      <trkpt lat="25.392873315140605" lon="110.51641498692334">
        <ele>500.10000000000002</ele>
        <time>2013-11-17T08:10:07Z</time>
      </trkpt>
      <trkpt lat="25.392883373424411" lon="110.5164066888392">
        <ele>501.19999999999999</ele>
        <time>2013-11-17T08:10:13Z</time>
      </trkpt>
      <trkpt lat="25.392896700650454" lon="110.51639503799379">
        <ele>504.10000000000002</ele>
        <time>2013-11-17T08:10:19Z</time>
      </trkpt>
      <trkpt lat="25.392914973199368" lon="110.51639663055539">
        <ele>505.80000000000001</ele>
        <time>2013-11-17T08:10:25Z</time>
      </trkpt>
      <trkpt lat="25.392946656793356" lon="110.51639168523252">
        <ele>508.19999999999999</ele>
        <time>2013-11-17T08:10:31Z</time>
      </trkpt>
      <trkpt lat="25.393003318458796" lon="110.51634667441249">
        <ele>515.70000000000005</ele>
        <time>2013-11-17T08:10:37Z</time>
      </trkpt>
      <trkpt lat="25.393065009266138" lon="110.51630333997309">
        <ele>523.29999999999995</ele>
        <time>2013-11-17T08:10:43Z</time>
      </trkpt>
      <trkpt lat="25.393006671220064" lon="110.51637165248394">
        <ele>511.89999999999998</ele>
        <time>2013-11-17T08:10:49Z</time>
      </trkpt>
      <trkpt lat="25.39297666400671" lon="110.51642336882651">
        <ele>503.5</ele>
        <time>2013-11-17T08:10:55Z</time>
      </trkpt>
      <trkpt lat="25.392966689541936" lon="110.51647500135005">
        <ele>499.19999999999999</ele>
        <time>2013-11-17T08:11:01Z</time>
      </trkpt>
      <trkpt lat="25.392938358709216" lon="110.51649662666023">
        <ele>495.39999999999998</ele>
        <time>2013-11-17T08:11:07Z</time>
      </trkpt>
      <trkpt lat="25.392918325960636" lon="110.51651665940881">
        <ele>492.89999999999998</ele>
        <time>2013-11-17T08:11:13Z</time>
      </trkpt>
      <trkpt lat="25.392935005947948" lon="110.51655001938343">
        <ele>491.19999999999999</ele>
        <time>2013-11-17T08:11:19Z</time>
      </trkpt>
      <trkpt lat="25.392925031483173" lon="110.51656669937074">
        <ele>490.80000000000001</ele>
        <time>2013-11-17T08:11:25Z</time>
      </trkpt>
      <trkpt lat="25.392910027876496" lon="110.51660165190697">
        <ele>491.5</ele>
        <time>2013-11-17T08:11:31Z</time>
      </trkpt>
      <trkpt lat="25.392903322353959" lon="110.51662662997842">
        <ele>491</ele>
        <time>2013-11-17T08:11:37Z</time>
      </trkpt>
      <trkpt lat="25.392896700650454" lon="110.51664498634636">
        <ele>490.39999999999998</ele>
        <time>2013-11-17T08:11:43Z</time>
      </trkpt>
      <trkpt lat="25.392888318747282" lon="110.51665663719177">
        <ele>490.19999999999999</ele>
        <time>2013-11-17T08:11:49Z</time>
      </trkpt>
      <trkpt lat="25.392888318747282" lon="110.51666669547558">
        <ele>487.89999999999998</ele>
        <time>2013-11-17T08:11:55Z</time>
      </trkpt>
      <trkpt lat="25.392898293212056" lon="110.51667499355972">
        <ele>487.30000000000001</ele>
        <time>2013-11-17T08:12:01Z</time>
      </trkpt>
      <trkpt lat="25.392914973199368" lon="110.51666669547558">
        <ele>487.89999999999998</ele>
        <time>2013-11-17T08:12:07Z</time>
      </trkpt>
      <trkpt lat="25.392974987626076" lon="110.51667834632099">
        <ele>492.39999999999998</ele>
        <time>2013-11-17T08:12:13Z</time>
      </trkpt>
      <trkpt lat="25.393028296530247" lon="110.51670835353434">
        <ele>495.60000000000002</ele>
        <time>2013-11-17T08:12:19Z</time>
      </trkpt>
      <trkpt lat="25.393096692860126" lon="110.51675168797374">
        <ele>499.39999999999998</ele>
        <time>2013-11-17T08:12:25Z</time>
      </trkpt>
      <trkpt lat="25.393151678144932" lon="110.51681170240045">
        <ele>502</ele>
        <time>2013-11-17T08:12:31Z</time>
      </trkpt>
      <trkpt lat="25.393181685358286" lon="110.51687833853066">
        <ele>504.10000000000002</ele>
        <time>2013-11-17T08:12:37Z</time>
      </trkpt>
      <trkpt lat="25.393188307061791" lon="110.51695997826755">
        <ele>505</ele>
        <time>2013-11-17T08:12:43Z</time>
      </trkpt>
      <trkpt lat="25.393186630681157" lon="110.51703499630094">
        <ele>507</ele>
        <time>2013-11-17T08:12:49Z</time>
      </trkpt>
      <trkpt lat="25.393166681751609" lon="110.51710833795369">
        <ele>508.80000000000001</ele>
        <time>2013-11-17T08:12:55Z</time>
      </trkpt>
      <trkpt lat="25.39314329624176" lon="110.51718503236771">
        <ele>508.80000000000001</ele>
        <time>2013-11-17T08:13:01Z</time>
      </trkpt>
      <trkpt lat="25.393103314563632" lon="110.51726499572396">
        <ele>508.5</ele>
        <time>2013-11-17T08:13:07Z</time>
      </trkpt>
      <trkpt lat="25.393065009266138" lon="110.51734663546085">
        <ele>508.39999999999998</ele>
        <time>2013-11-17T08:13:13Z</time>
      </trkpt>
      <trkpt lat="25.393014969304204" lon="110.51741503179073">
        <ele>508.10000000000002</ele>
        <time>2013-11-17T08:13:19Z</time>
      </trkpt>
      <trkpt lat="25.392959984019399" lon="110.51748837344348">
        <ele>506.80000000000001</ele>
        <time>2013-11-17T08:13:25Z</time>
      </trkpt>
      <trkpt lat="25.392913296818733" lon="110.51754335872829">
        <ele>506.39999999999998</ele>
        <time>2013-11-17T08:13:31Z</time>
      </trkpt>
      <trkpt lat="25.392851689830422" lon="110.51758996210992">
        <ele>503.60000000000002</ele>
        <time>2013-11-17T08:13:37Z</time>
      </trkpt>
      <trkpt lat="25.392803326249123" lon="110.51761670038104">
        <ele>499.30000000000001</ele>
        <time>2013-11-17T08:13:43Z</time>
      </trkpt>
      <trkpt lat="25.392743311822414" lon="110.51765165291727">
        <ele>497.60000000000002</ele>
        <time>2013-11-17T08:13:49Z</time>
      </trkpt>
      <trkpt lat="25.39270500652492" lon="110.51769331097603">
        <ele>498.5</ele>
        <time>2013-11-17T08:13:55Z</time>
      </trkpt>
      <trkpt lat="25.392658319324255" lon="110.51773170009255">
        <ele>496.89999999999998</ele>
        <time>2013-11-17T08:14:01Z</time>
      </trkpt>
      <trkpt lat="25.392614984884858" lon="110.51778668537736">
        <ele>496.30000000000001</ele>
        <time>2013-11-17T08:14:07Z</time>
      </trkpt>
      <trkpt lat="25.392580032348633" lon="110.51782666705549">
        <ele>497.10000000000002</ele>
        <time>2013-11-17T08:14:13Z</time>
      </trkpt>
      <trkpt lat="25.392544995993376" lon="110.51788165234029">
        <ele>496.80000000000001</ele>
        <time>2013-11-17T08:14:19Z</time>
      </trkpt>
      <trkpt lat="25.392536697909236" lon="110.51795331761241">
        <ele>496.10000000000002</ele>
        <time>2013-11-17T08:14:25Z</time>
      </trkpt>
      <trkpt lat="25.392539966851473" lon="110.51802163012326">
        <ele>497.39999999999998</ele>
        <time>2013-11-17T08:14:31Z</time>
      </trkpt>
      <trkpt lat="25.39253837428987" lon="110.51809497177601">
        <ele>497.10000000000002</ele>
        <time>2013-11-17T08:14:37Z</time>
      </trkpt>
      <trkpt lat="25.392535021528602" lon="110.51815833896399">
        <ele>498.30000000000001</ele>
        <time>2013-11-17T08:14:43Z</time>
      </trkpt>
      <trkpt lat="25.39251834154129" lon="110.51820670254529">
        <ele>496.5</ele>
        <time>2013-11-17T08:14:49Z</time>
      </trkpt>
      <trkpt lat="25.392523370683193" lon="110.51825498230755">
        <ele>496.19999999999999</ele>
        <time>2013-11-17T08:14:55Z</time>
      </trkpt>
      <trkpt lat="25.392529992386699" lon="110.51832497119904">
        <ele>497.60000000000002</ele>
        <time>2013-11-17T08:15:01Z</time>
      </trkpt>
      <trkpt lat="25.392529992386699" lon="110.51840501837432">
        <ele>498</ele>
        <time>2013-11-17T08:15:07Z</time>
      </trkpt>
      <trkpt lat="25.39253837428987" lon="110.51847333088517">
        <ele>499.80000000000001</ele>
        <time>2013-11-17T08:15:13Z</time>
      </trkpt>
      <trkpt lat="25.392516665160656" lon="110.51854499615729">
        <ele>500.30000000000001</ele>
        <time>2013-11-17T08:15:19Z</time>
      </trkpt>
      <trkpt lat="25.392486657947302" lon="110.51861498504877">
        <ele>501</ele>
        <time>2013-11-17T08:15:25Z</time>
      </trkpt>
      <trkpt lat="25.392443323507905" lon="110.51868832670152">
        <ele>501.39999999999998</ele>
        <time>2013-11-17T08:15:31Z</time>
      </trkpt>
      <trkpt lat="25.39240837097168" lon="110.51874834112823">
        <ele>502</ele>
        <time>2013-11-17T08:15:37Z</time>
      </trkpt>
      <trkpt lat="25.392363360151649" lon="110.51880500279367">
        <ele>501.60000000000002</ele>
        <time>2013-11-17T08:15:43Z</time>
      </trkpt>
      <trkpt lat="25.392316672950983" lon="110.51886334083974">
        <ele>501.89999999999998</ele>
        <time>2013-11-17T08:15:49Z</time>
      </trkpt>
      <trkpt lat="25.392278367653489" lon="110.51892503164709">
        <ele>502.80000000000001</ele>
        <time>2013-11-17T08:15:55Z</time>
      </trkpt>
      <trkpt lat="25.392238302156329" lon="110.51898496225476">
        <ele>503.80000000000001</ele>
        <time>2013-11-17T08:16:01Z</time>
      </trkpt>
      <trkpt lat="25.39220167323947" lon="110.51904170773923">
        <ele>504.60000000000002</ele>
        <time>2013-11-17T08:16:07Z</time>
      </trkpt>
      <trkpt lat="25.392156662419438" lon="110.5190950166434">
        <ele>505.30000000000001</ele>
        <time>2013-11-17T08:16:13Z</time>
      </trkpt>
      <trkpt lat="25.392106706276536" lon="110.51914497278631">
        <ele>505.39999999999998</ele>
        <time>2013-11-17T08:16:19Z</time>
      </trkpt>
      <trkpt lat="25.392061695456505" lon="110.51917497999966">
        <ele>504.5</ele>
        <time>2013-11-17T08:16:25Z</time>
      </trkpt>
      <trkpt lat="25.392039986327291" lon="110.51918503828347">
        <ele>502.5</ele>
        <time>2013-11-17T08:16:31Z</time>
      </trkpt>
      <trkpt lat="25.392026659101248" lon="110.51919668912888">
        <ele>501.80000000000001</ele>
        <time>2013-11-17T08:16:37Z</time>
      </trkpt>
      <trkpt lat="25.392018361017108" lon="110.51921169273555">
        <ele>500.69999999999999</ele>
        <time>2013-11-17T08:16:43Z</time>
      </trkpt>
      <trkpt lat="25.391991706565022" lon="110.51922166720033">
        <ele>500.10000000000002</ele>
        <time>2013-11-17T08:16:49Z</time>
      </trkpt>
      <trkpt lat="25.391933368518949" lon="110.519236670807">
        <ele>499.39999999999998</ele>
        <time>2013-11-17T08:16:55Z</time>
      </trkpt>
      <trkpt lat="25.391883328557014" lon="110.51924329251051">
        <ele>498.39999999999998</ele>
        <time>2013-11-17T08:17:01Z</time>
      </trkpt>
      <trkpt lat="25.391826666891575" lon="110.51925335079432">
        <ele>498.19999999999999</ele>
        <time>2013-11-17T08:17:07Z</time>
      </trkpt>
      <trkpt lat="25.391766652464867" lon="110.51925670355558">
        <ele>497.60000000000002</ele>
        <time>2013-11-17T08:17:13Z</time>
      </trkpt>
      <trkpt lat="25.391709990799427" lon="110.51925670355558">
        <ele>496.69999999999999</ele>
        <time>2013-11-17T08:17:19Z</time>
      </trkpt>
      <trkpt lat="25.391653329133987" lon="110.51926164887846">
        <ele>495.5</ele>
        <time>2013-11-17T08:17:25Z</time>
      </trkpt>
      <trkpt lat="25.391589961946011" lon="110.51926332525909">
        <ele>494.30000000000001</ele>
        <time>2013-11-17T08:17:31Z</time>
      </trkpt>
      <trkpt lat="25.391526678577065" lon="110.51926835440099">
        <ele>493.30000000000001</ele>
        <time>2013-11-17T08:17:37Z</time>
      </trkpt>
      <trkpt lat="25.391468340530992" lon="110.51927170716226">
        <ele>492.5</ele>
        <time>2013-11-17T08:17:43Z</time>
      </trkpt>
      <trkpt lat="25.391400028020144" lon="110.51927665248513">
        <ele>492</ele>
        <time>2013-11-17T08:17:49Z</time>
      </trkpt>
      <trkpt lat="25.391340013593435" lon="110.51927832886577">
        <ele>491.89999999999998</ele>
        <time>2013-11-17T08:17:55Z</time>
      </trkpt>
      <trkpt lat="25.391298355534673" lon="110.51927832886577">
        <ele>491.30000000000001</ele>
        <time>2013-11-17T08:18:01Z</time>
      </trkpt>
      <trkpt lat="25.391298355534673" lon="110.5192749761045">
        <ele>491</ele>
        <time>2013-11-17T08:18:07Z</time>
      </trkpt>
      <trkpt lat="25.391296679154038" lon="110.5192800052464">
        <ele>490.80000000000001</ele>
        <time>2013-11-17T08:18:13Z</time>
      </trkpt>
      <trkpt lat="25.39125669747591" lon="110.5192749761045">
        <ele>491</ele>
        <time>2013-11-17T08:18:19Z</time>
      </trkpt>
      <trkpt lat="25.391196683049202" lon="110.5192800052464">
        <ele>491.30000000000001</ele>
        <time>2013-11-17T08:18:25Z</time>
      </trkpt>
      <trkpt lat="25.391128370538354" lon="110.51928662694991">
        <ele>490.89999999999998</ele>
        <time>2013-11-17T08:18:31Z</time>
      </trkpt>
      <trkpt lat="25.391065003350377" lon="110.51929333247244">
        <ele>491.5</ele>
        <time>2013-11-17T08:18:37Z</time>
      </trkpt>
      <trkpt lat="25.390995014458895" lon="110.51928830333054">
        <ele>491</ele>
        <time>2013-11-17T08:18:43Z</time>
      </trkpt>
      <trkpt lat="25.390928294509649" lon="110.51927832886577">
        <ele>490.80000000000001</ele>
        <time>2013-11-17T08:18:49Z</time>
      </trkpt>
      <trkpt lat="25.390861658379436" lon="110.51926667802036">
        <ele>491.60000000000002</ele>
        <time>2013-11-17T08:18:55Z</time>
      </trkpt>
      <trkpt lat="25.39080667309463" lon="110.51925167441368">
        <ele>491.39999999999998</ele>
        <time>2013-11-17T08:19:01Z</time>
      </trkpt>
      <trkpt lat="25.390750011429191" lon="110.51924329251051">
        <ele>491.69999999999999</ele>
        <time>2013-11-17T08:19:07Z</time>
      </trkpt>
      <trkpt lat="25.390698295086622" lon="110.519236670807">
        <ele>492.39999999999998</ele>
        <time>2013-11-17T08:19:13Z</time>
      </trkpt>
      <trkpt lat="25.390698295086622" lon="110.51923331804574">
        <ele>492.10000000000002</ele>
        <time>2013-11-17T08:19:19Z</time>
      </trkpt>
      <trkpt lat="25.390701647847891" lon="110.51923331804574">
        <ele>491.39999999999998</ele>
        <time>2013-11-17T08:19:25Z</time>
      </trkpt>
      <trkpt lat="25.390699971467257" lon="110.5192316416651">
        <ele>491.5</ele>
        <time>2013-11-17T08:19:31Z</time>
      </trkpt>
      <trkpt lat="25.390646662563086" lon="110.51922669634223">
        <ele>492.10000000000002</ele>
        <time>2013-11-17T08:19:37Z</time>
      </trkpt>
      <trkpt lat="25.390593353658915" lon="110.51922334358096">
        <ele>492.60000000000002</ele>
        <time>2013-11-17T08:19:43Z</time>
      </trkpt>
      <trkpt lat="25.390544990077615" lon="110.51921999081969">
        <ele>493.10000000000002</ele>
        <time>2013-11-17T08:19:49Z</time>
      </trkpt>
      <trkpt lat="25.390495033934712" lon="110.5192250199616">
        <ele>493.80000000000001</ele>
        <time>2013-11-17T08:19:55Z</time>
      </trkpt>
      <trkpt lat="25.390448346734047" lon="110.5192250199616">
        <ele>494</ele>
        <time>2013-11-17T08:20:01Z</time>
      </trkpt>
      <trkpt lat="25.390401659533381" lon="110.51922837272286">
        <ele>494.39999999999998</ele>
        <time>2013-11-17T08:20:07Z</time>
      </trkpt>
      <trkpt lat="25.390365030616522" lon="110.51922669634223">
        <ele>494.89999999999998</ele>
        <time>2013-11-17T08:20:13Z</time>
      </trkpt>
      <trkpt lat="25.390339968726039" lon="110.51921336911619">
        <ele>495.19999999999999</ele>
        <time>2013-11-17T08:20:19Z</time>
      </trkpt>
      <trkpt lat="25.390329994261265" lon="110.51920666359365">
        <ele>494.19999999999999</ele>
        <time>2013-11-17T08:20:25Z</time>
      </trkpt>
      <trkpt lat="25.390324965119362" lon="110.51920331083238">
        <ele>493.89999999999998</ele>
        <time>2013-11-17T08:20:31Z</time>
      </trkpt>
      <trkpt lat="25.390316667035222" lon="110.51919668912888">
        <ele>493.80000000000001</ele>
        <time>2013-11-17T08:20:37Z</time>
      </trkpt>
      <trkpt lat="25.390309961512685" lon="110.51919668912888">
        <ele>494.89999999999998</ele>
        <time>2013-11-17T08:20:43Z</time>
      </trkpt>
      <trkpt lat="25.390306692570448" lon="110.51918998360634">
        <ele>495.5</ele>
        <time>2013-11-17T08:20:49Z</time>
      </trkpt>
      <trkpt lat="25.390309961512685" lon="110.51918503828347">
        <ele>496.30000000000001</ele>
        <time>2013-11-17T08:20:55Z</time>
      </trkpt>
      <trkpt lat="25.390316667035222" lon="110.51918663084507">
        <ele>497.69999999999999</ele>
        <time>2013-11-17T08:21:01Z</time>
      </trkpt>
      <trkpt lat="25.390324965119362" lon="110.51918503828347">
        <ele>498.60000000000002</ele>
        <time>2013-11-17T08:21:07Z</time>
      </trkpt>
      <trkpt lat="25.390331670641899" lon="110.51918000914156">
        <ele>500</ele>
        <time>2013-11-17T08:21:13Z</time>
      </trkpt>
      <trkpt lat="25.390338292345405" lon="110.51917330361903">
        <ele>501.39999999999998</ele>
        <time>2013-11-17T08:21:19Z</time>
      </trkpt>
      <trkpt lat="25.390335023403168" lon="110.51917330361903">
        <ele>502.89999999999998</ele>
        <time>2013-11-17T08:21:25Z</time>
      </trkpt>
      <trkpt lat="25.390321696177125" lon="110.5191766563803">
        <ele>503.69999999999999</ele>
        <time>2013-11-17T08:21:31Z</time>
      </trkpt>
      <trkpt lat="25.390284983441234" lon="110.5191816855222">
        <ele>504.39999999999998</ele>
        <time>2013-11-17T08:21:37Z</time>
      </trkpt>
      <trkpt lat="25.390243325382471" lon="110.51917833276093">
        <ele>503.19999999999999</ele>
        <time>2013-11-17T08:21:43Z</time>
      </trkpt>
      <trkpt lat="25.390203343704343" lon="110.51918663084507">
        <ele>502.39999999999998</ele>
        <time>2013-11-17T08:21:49Z</time>
      </trkpt>
      <trkpt lat="25.390156656503677" lon="110.51919668912888">
        <ele>502.5</ele>
        <time>2013-11-17T08:21:55Z</time>
      </trkpt>
      <trkpt lat="25.390131678432226" lon="110.51920666359365">
        <ele>502.10000000000002</ele>
        <time>2013-11-17T08:22:01Z</time>
      </trkpt>
      <trkpt lat="25.390130002051592" lon="110.51921663805842">
        <ele>501.30000000000001</ele>
        <time>2013-11-17T08:22:07Z</time>
      </trkpt>
      <trkpt lat="25.390130002051592" lon="110.51922166720033">
        <ele>501.30000000000001</ele>
        <time>2013-11-17T08:22:13Z</time>
      </trkpt>
      <trkpt lat="25.390130002051592" lon="110.5192250199616">
        <ele>501.69999999999999</ele>
        <time>2013-11-17T08:22:19Z</time>
      </trkpt>
      <trkpt lat="25.390131678432226" lon="110.5192316416651">
        <ele>501.60000000000002</ele>
        <time>2013-11-17T08:22:25Z</time>
      </trkpt>
      <trkpt lat="25.390130002051592" lon="110.51922669634223">
        <ele>502.39999999999998</ele>
        <time>2013-11-17T08:22:31Z</time>
      </trkpt>
      <trkpt lat="25.390128325670958" lon="110.51922334358096">
        <ele>503</ele>
        <time>2013-11-17T08:22:37Z</time>
      </trkpt>
      <trkpt lat="25.390130002051592" lon="110.51922334358096">
        <ele>503.69999999999999</ele>
        <time>2013-11-17T08:22:43Z</time>
      </trkpt>
      <trkpt lat="25.390126649290323" lon="110.51921001635492">
        <ele>505.10000000000002</ele>
        <time>2013-11-17T08:22:49Z</time>
      </trkpt>
      <trkpt lat="25.390128325670958" lon="110.51921001635492">
        <ele>505.19999999999999</ele>
        <time>2013-11-17T08:22:55Z</time>
      </trkpt>
      <trkpt lat="25.390081638470292" lon="110.51921999081969">
        <ele>505.80000000000001</ele>
        <time>2013-11-17T08:23:01Z</time>
      </trkpt>
      <trkpt lat="25.390023300424218" lon="110.5192250199616">
        <ele>506.19999999999999</ele>
        <time>2013-11-17T08:23:07Z</time>
      </trkpt>
      <trkpt lat="25.389964962378144" lon="110.51922669634223">
        <ele>506.60000000000002</ele>
        <time>2013-11-17T08:23:13Z</time>
      </trkpt>
      <trkpt lat="25.389898326247931" lon="110.51922996528447">
        <ele>506.30000000000001</ele>
        <time>2013-11-17T08:23:19Z</time>
      </trkpt>
      <trkpt lat="25.389826660975814" lon="110.51922996528447">
        <ele>505.89999999999998</ele>
        <time>2013-11-17T08:23:25Z</time>
      </trkpt>
      <trkpt lat="25.389753319323063" lon="110.5192316416651">
        <ele>506.10000000000002</ele>
        <time>2013-11-17T08:23:31Z</time>
      </trkpt>
      <trkpt lat="25.389685006812215" lon="110.51923499442637">
        <ele>507.10000000000002</ele>
        <time>2013-11-17T08:23:37Z</time>
      </trkpt>
      <trkpt lat="25.389616694301367" lon="110.51924002356827">
        <ele>507.80000000000001</ele>
        <time>2013-11-17T08:23:43Z</time>
      </trkpt>
      <trkpt lat="25.389594985172153" lon="110.519236670807">
        <ele>508.60000000000002</ele>
        <time>2013-11-17T08:23:49Z</time>
      </trkpt>
      <trkpt lat="25.389585010707378" lon="110.51923331804574">
        <ele>508.60000000000002</ele>
        <time>2013-11-17T08:23:55Z</time>
      </trkpt>
      <trkpt lat="25.38956162519753" lon="110.5192316416651">
        <ele>508</ele>
        <time>2013-11-17T08:24:01Z</time>
      </trkpt>
      <trkpt lat="25.389528349041939" lon="110.51922837272286">
        <ele>507.10000000000002</ele>
        <time>2013-11-17T08:24:07Z</time>
      </trkpt>
      <trkpt lat="25.389470010995865" lon="110.5192250199616">
        <ele>505.80000000000001</ele>
        <time>2013-11-17T08:24:13Z</time>
      </trkpt>
      <trkpt lat="25.389419971033931" lon="110.51921831443906">
        <ele>505</ele>
        <time>2013-11-17T08:24:19Z</time>
      </trkpt>
      <trkpt lat="25.389361632987857" lon="110.51920498721302">
        <ele>504.60000000000002</ele>
        <time>2013-11-17T08:24:25Z</time>
      </trkpt>
      <trkpt lat="25.38930170238018" lon="110.5191883072257">
        <ele>504.5</ele>
        <time>2013-11-17T08:24:31Z</time>
      </trkpt>
      <trkpt lat="25.389245040714741" lon="110.51917330361903">
        <ele>503.30000000000001</ele>
        <time>2013-11-17T08:24:37Z</time>
      </trkpt>
      <trkpt lat="25.389206651598215" lon="110.51916332915425">
        <ele>503.39999999999998</ele>
        <time>2013-11-17T08:24:43Z</time>
      </trkpt>
      <trkpt lat="25.389136662706733" lon="110.51915503107011">
        <ele>502.60000000000002</ele>
        <time>2013-11-17T08:24:49Z</time>
      </trkpt>
      <trkpt lat="25.389064997434616" lon="110.51914664916694">
        <ele>502.39999999999998</ele>
        <time>2013-11-17T08:24:55Z</time>
      </trkpt>
      <trkpt lat="25.388996684923768" lon="110.51914497278631">
        <ele>502.5</ele>
        <time>2013-11-17T08:25:01Z</time>
      </trkpt>
      <trkpt lat="25.388926696032286" lon="110.51914832554758">
        <ele>502.60000000000002</ele>
        <time>2013-11-17T08:25:07Z</time>
      </trkpt>
      <trkpt lat="25.388855030760169" lon="110.51915503107011">
        <ele>502.89999999999998</ele>
        <time>2013-11-17T08:25:13Z</time>
      </trkpt>
      <trkpt lat="25.388793339952826" lon="110.51916500553489">
        <ele>503.89999999999998</ele>
        <time>2013-11-17T08:25:19Z</time>
      </trkpt>
      <trkpt lat="25.388726703822613" lon="110.51917162723839">
        <ele>504.69999999999999</ele>
        <time>2013-11-17T08:25:25Z</time>
      </trkpt>
      <trkpt lat="25.388661660254002" lon="110.51916332915425">
        <ele>505.10000000000002</ele>
        <time>2013-11-17T08:25:31Z</time>
      </trkpt>
      <trkpt lat="25.388603322207928" lon="110.51914832554758">
        <ele>506.39999999999998</ele>
        <time>2013-11-17T08:25:37Z</time>
      </trkpt>
      <trkpt lat="25.388548336923122" lon="110.5191333219409">
        <ele>507.89999999999998</ele>
        <time>2013-11-17T08:25:43Z</time>
      </trkpt>
      <trkpt lat="25.388503326103091" lon="110.51911169663072">
        <ele>509.60000000000002</ele>
        <time>2013-11-17T08:25:49Z</time>
      </trkpt>
      <trkpt lat="25.388446664437652" lon="110.51906668581069">
        <ele>509.39999999999998</ele>
        <time>2013-11-17T08:25:55Z</time>
      </trkpt>
      <trkpt lat="25.388390002772212" lon="110.51902167499065">
        <ele>509.69999999999999</ele>
        <time>2013-11-17T08:26:01Z</time>
      </trkpt>
      <trkpt lat="25.388336693868041" lon="110.51898336969316">
        <ele>509.69999999999999</ele>
        <time>2013-11-17T08:26:07Z</time>
      </trkpt>
      <trkpt lat="25.388286653906107" lon="110.51894665695727">
        <ele>509.80000000000001</ele>
        <time>2013-11-17T08:26:13Z</time>
      </trkpt>
      <trkpt lat="25.38824331946671" lon="110.51891832612455">
        <ele>510.30000000000001</ele>
        <time>2013-11-17T08:26:19Z</time>
      </trkpt>
      <trkpt lat="25.388188334181905" lon="110.51889502443373">
        <ele>510</ele>
        <time>2013-11-17T08:26:25Z</time>
      </trkpt>
      <trkpt lat="25.388124966993928" lon="110.51886166445911">
        <ele>509.89999999999998</ele>
        <time>2013-11-17T08:26:31Z</time>
      </trkpt>
      <trkpt lat="25.388065036386251" lon="110.51882830448449">
        <ele>510.39999999999998</ele>
        <time>2013-11-17T08:26:37Z</time>
      </trkpt>
      <trkpt lat="25.388006698340178" lon="110.51879335194826">
        <ele>511.19999999999999</ele>
        <time>2013-11-17T08:26:43Z</time>
      </trkpt>
      <trkpt lat="25.387954981997609" lon="110.51876334473491">
        <ele>512.10000000000002</ele>
        <time>2013-11-17T08:26:49Z</time>
      </trkpt>
      <trkpt lat="25.387906702235341" lon="110.51873501390219">
        <ele>511.69999999999999</ele>
        <time>2013-11-17T08:26:55Z</time>
      </trkpt>
      <trkpt lat="25.38786169141531" lon="110.5187083594501">
        <ele>512.5</ele>
        <time>2013-11-17T08:27:01Z</time>
      </trkpt>
      <trkpt lat="25.387806706130505" lon="110.51868329755962">
        <ele>513.79999999999995</ele>
        <time>2013-11-17T08:27:07Z</time>
      </trkpt>
      <trkpt lat="25.387743338942528" lon="110.51864499226213">
        <ele>514</ele>
        <time>2013-11-17T08:27:13Z</time>
      </trkpt>
      <trkpt lat="25.387673350051045" lon="110.518605010584">
        <ele>514.29999999999995</ele>
        <time>2013-11-17T08:27:19Z</time>
      </trkpt>
      <trkpt lat="25.387608306482434" lon="110.51856829784811">
        <ele>514.89999999999998</ele>
        <time>2013-11-17T08:27:25Z</time>
      </trkpt>
      <trkpt lat="25.387545023113489" lon="110.51853669807315">
        <ele>515.5</ele>
        <time>2013-11-17T08:27:31Z</time>
      </trkpt>
      <trkpt lat="25.387486685067415" lon="110.51850166171789">
        <ele>517.10000000000002</ele>
        <time>2013-11-17T08:27:37Z</time>
      </trkpt>
      <trkpt lat="25.38743169978261" lon="110.51846830174327">
        <ele>518.70000000000005</ele>
        <time>2013-11-17T08:27:43Z</time>
      </trkpt>
      <trkpt lat="25.387386688962579" lon="110.51842664368451">
        <ele>520.89999999999998</ele>
        <time>2013-11-17T08:27:49Z</time>
      </trkpt>
      <trkpt lat="25.387341678142548" lon="110.51838004030287">
        <ele>522.89999999999998</ele>
        <time>2013-11-17T08:27:55Z</time>
      </trkpt>
      <trkpt lat="25.387294990941882" lon="110.5183283239603">
        <ele>524.20000000000005</ele>
        <time>2013-11-17T08:28:01Z</time>
      </trkpt>
      <trkpt lat="25.387236652895808" lon="110.51828498952091">
        <ele>524.39999999999998</ele>
        <time>2013-11-17T08:28:07Z</time>
      </trkpt>
      <trkpt lat="25.387179991230369" lon="110.51823997870088">
        <ele>524.29999999999995</ele>
        <time>2013-11-17T08:28:13Z</time>
      </trkpt>
      <trkpt lat="25.387123329564929" lon="110.51819832064211">
        <ele>524.29999999999995</ele>
        <time>2013-11-17T08:28:19Z</time>
      </trkpt>
      <trkpt lat="25.387070020660758" lon="110.51816169172525">
        <ele>524.10000000000002</ele>
        <time>2013-11-17T08:28:25Z</time>
      </trkpt>
      <trkpt lat="25.387016627937555" lon="110.51812497898936">
        <ele>524.70000000000005</ele>
        <time>2013-11-17T08:28:31Z</time>
      </trkpt>
      <trkpt lat="25.386964995414019" lon="110.51809329539537">
        <ele>525.5</ele>
        <time>2013-11-17T08:28:37Z</time>
      </trkpt>
      <trkpt lat="25.386915039271116" lon="110.51805331371725">
        <ele>525.60000000000002</ele>
        <time>2013-11-17T08:28:43Z</time>
      </trkpt>
      <trkpt lat="25.386858293786645" lon="110.51801836118102">
        <ele>525.89999999999998</ele>
        <time>2013-11-17T08:28:49Z</time>
      </trkpt>
      <trkpt lat="25.386791657656431" lon="110.51799497567117">
        <ele>526.20000000000005</ele>
        <time>2013-11-17T08:28:55Z</time>
      </trkpt>
      <trkpt lat="25.386721668764949" lon="110.51797502674162">
        <ele>525.89999999999998</ele>
        <time>2013-11-17T08:29:01Z</time>
      </trkpt>
      <trkpt lat="25.386650003492832" lon="110.51796664483845">
        <ele>526.39999999999998</ele>
        <time>2013-11-17T08:29:07Z</time>
      </trkpt>
      <trkpt lat="25.38658001460135" lon="110.51796329207718">
        <ele>527.39999999999998</ele>
        <time>2013-11-17T08:29:13Z</time>
      </trkpt>
      <trkpt lat="25.386508349329233" lon="110.51796169951558">
        <ele>528.60000000000002</ele>
        <time>2013-11-17T08:29:19Z</time>
      </trkpt>
      <trkpt lat="25.386440036818385" lon="110.51796664483845">
        <ele>529.89999999999998</ele>
        <time>2013-11-17T08:29:25Z</time>
      </trkpt>
      <trkpt lat="25.38637331686914" lon="110.51796832121909">
        <ele>530.29999999999995</ele>
        <time>2013-11-17T08:29:31Z</time>
      </trkpt>
      <trkpt lat="25.386310033500195" lon="110.51796002313495">
        <ele>531.10000000000002</ele>
        <time>2013-11-17T08:29:37Z</time>
      </trkpt>
      <trkpt lat="25.386250019073486" lon="110.517941666767">
        <ele>532.70000000000005</ele>
        <time>2013-11-17T08:29:43Z</time>
      </trkpt>
      <trkpt lat="25.386191681027412" lon="110.51793336868286">
        <ele>532.10000000000002</ele>
        <time>2013-11-17T08:29:49Z</time>
      </trkpt>
      <trkpt lat="25.38612999022007" lon="110.51790663041174">
        <ele>532.5</ele>
        <time>2013-11-17T08:29:55Z</time>
      </trkpt>
      <trkpt lat="25.386060001328588" lon="110.51788332872093">
        <ele>532.60000000000002</ele>
        <time>2013-11-17T08:30:01Z</time>
      </trkpt>
      <trkpt lat="25.385996634140611" lon="110.51787997595966">
        <ele>532.70000000000005</ele>
        <time>2013-11-17T08:30:07Z</time>
      </trkpt>
      <trkpt lat="25.385973332449794" lon="110.51789003424346">
        <ele>532.89999999999998</ele>
        <time>2013-11-17T08:30:13Z</time>
      </trkpt>
      <trkpt lat="25.385936703532934" lon="110.51792163401842">
        <ele>535.10000000000002</ele>
        <time>2013-11-17T08:30:19Z</time>
      </trkpt>
      <trkpt lat="25.385891692712903" lon="110.51795164123178">
        <ele>534.10000000000002</ele>
        <time>2013-11-17T08:30:25Z</time>
      </trkpt>
      <trkpt lat="25.385813321918249" lon="110.51795331761241">
        <ele>532.60000000000002</ele>
        <time>2013-11-17T08:30:31Z</time>
      </trkpt>
      <trkpt lat="25.385754983872175" lon="110.51792163401842">
        <ele>531.60000000000002</ele>
        <time>2013-11-17T08:30:37Z</time>
      </trkpt>
      <trkpt lat="25.38569170050323" lon="110.51789497956634">
        <ele>531.20000000000005</ele>
        <time>2013-11-17T08:30:43Z</time>
      </trkpt>
      <trkpt lat="25.385631686076522" lon="110.51785667426884">
        <ele>529.89999999999998</ele>
        <time>2013-11-17T08:30:49Z</time>
      </trkpt>
      <trkpt lat="25.385578293353319" lon="110.51782331429422">
        <ele>531.10000000000002</ele>
        <time>2013-11-17T08:30:55Z</time>
      </trkpt>
      <trkpt lat="25.385551638901234" lon="110.51780831068754">
        <ele>530.89999999999998</ele>
        <time>2013-11-17T08:31:01Z</time>
      </trkpt>
      <trkpt lat="25.385534958913922" lon="110.51780504174531">
        <ele>530.5</ele>
        <time>2013-11-17T08:31:07Z</time>
      </trkpt>
      <trkpt lat="25.385528337210417" lon="110.51780168898404">
        <ele>530.29999999999995</ele>
        <time>2013-11-17T08:31:13Z</time>
      </trkpt>
      <trkpt lat="25.385530013591051" lon="110.51779163070023">
        <ele>530.29999999999995</ele>
        <time>2013-11-17T08:31:19Z</time>
      </trkpt>
      <trkpt lat="25.385528337210417" lon="110.51778836175799">
        <ele>529.89999999999998</ele>
        <time>2013-11-17T08:31:25Z</time>
      </trkpt>
      <trkpt lat="25.385530013591051" lon="110.51778668537736">
        <ele>529.79999999999995</ele>
        <time>2013-11-17T08:31:31Z</time>
      </trkpt>
      <trkpt lat="25.385539988055825" lon="110.51778165623546">
        <ele>530.70000000000005</ele>
        <time>2013-11-17T08:31:37Z</time>
      </trkpt>
      <trkpt lat="25.385546693578362" lon="110.51777168177068">
        <ele>529.60000000000002</ele>
        <time>2013-11-17T08:31:43Z</time>
      </trkpt>
      <trkpt lat="25.385506628081203" lon="110.51775667816401">
        <ele>529.29999999999995</ele>
        <time>2013-11-17T08:31:49Z</time>
      </trkpt>
      <trkpt lat="25.385483326390386" lon="110.51774997264147">
        <ele>529.60000000000002</ele>
        <time>2013-11-17T08:31:55Z</time>
      </trkpt>
      <trkpt lat="25.385468322783709" lon="110.51773999817669">
        <ele>529.70000000000005</ele>
        <time>2013-11-17T08:32:01Z</time>
      </trkpt>
      <trkpt lat="25.385460024699569" lon="110.51773999817669">
        <ele>532.20000000000005</ele>
        <time>2013-11-17T08:32:07Z</time>
      </trkpt>
      <trkpt lat="25.385463293641806" lon="110.51774335093796">
        <ele>533.29999999999995</ele>
        <time>2013-11-17T08:32:13Z</time>
      </trkpt>
      <trkpt lat="25.385481650009751" lon="110.51774670369923">
        <ele>533.60000000000002</ele>
        <time>2013-11-17T08:32:19Z</time>
      </trkpt>
      <trkpt lat="25.385498329997063" lon="110.51774829626083">
        <ele>532.89999999999998</ele>
        <time>2013-11-17T08:32:25Z</time>
      </trkpt>
      <trkpt lat="25.385496653616428" lon="110.51775835454464">
        <ele>531.29999999999995</ele>
        <time>2013-11-17T08:32:31Z</time>
      </trkpt>
      <trkpt lat="25.385461701080203" lon="110.5177450273186">
        <ele>531</ele>
        <time>2013-11-17T08:32:37Z</time>
      </trkpt>
      <trkpt lat="25.385439991950989" lon="110.51774335093796">
        <ele>530.70000000000005</ele>
        <time>2013-11-17T08:32:43Z</time>
      </trkpt>
      <trkpt lat="25.38542834110558" lon="110.51774670369923">
        <ele>530.29999999999995</ele>
        <time>2013-11-17T08:32:49Z</time>
      </trkpt>
      <trkpt lat="25.385423311963677" lon="110.51774829626083">
        <ele>524.60000000000002</ele>
        <time>2013-11-17T08:32:55Z</time>
      </trkpt>
      <trkpt lat="25.385423311963677" lon="110.5177450273186">
        <ele>519.10000000000002</ele>
        <time>2013-11-17T08:33:01Z</time>
      </trkpt>
      <trkpt lat="25.385433370247483" lon="110.51774670369923">
        <ele>518.39999999999998</ele>
        <time>2013-11-17T08:33:07Z</time>
      </trkpt>
      <trkpt lat="25.385445021092892" lon="110.51776003092527">
        <ele>520.10000000000002</ele>
        <time>2013-11-17T08:33:13Z</time>
      </trkpt>
      <trkpt lat="25.385446697473526" lon="110.51778165623546">
        <ele>522.39999999999998</ele>
        <time>2013-11-17T08:33:19Z</time>
      </trkpt>
      <trkpt lat="25.385424988344312" lon="110.51778165623546">
        <ele>524.79999999999995</ele>
        <time>2013-11-17T08:33:25Z</time>
      </trkpt>
      <trkpt lat="25.385421635583043" lon="110.51778836175799">
        <ele>526.70000000000005</ele>
        <time>2013-11-17T08:33:31Z</time>
      </trkpt>
      <trkpt lat="25.385391628369689" lon="110.51777000539005">
        <ele>527.70000000000005</ele>
        <time>2013-11-17T08:33:37Z</time>
      </trkpt>
      <trkpt lat="25.385353323072195" lon="110.51776003092527">
        <ele>528</ele>
        <time>2013-11-17T08:33:43Z</time>
      </trkpt>
      <trkpt lat="25.38529833778739" lon="110.51775500178337">
        <ele>528</ele>
        <time>2013-11-17T08:33:49Z</time>
      </trkpt>
      <trkpt lat="25.385246705263853" lon="110.51774670369923">
        <ele>528.60000000000002</ele>
        <time>2013-11-17T08:33:55Z</time>
      </trkpt>
      <trkpt lat="25.385189959779382" lon="110.51773664541543">
        <ele>528.10000000000002</ele>
        <time>2013-11-17T08:34:01Z</time>
      </trkpt>
      <trkpt lat="25.385126676410437" lon="110.51772499457002">
        <ele>526.70000000000005</ele>
        <time>2013-11-17T08:34:07Z</time>
      </trkpt>
      <trkpt lat="25.385068338364363" lon="110.51772164180875">
        <ele>527.29999999999995</ele>
        <time>2013-11-17T08:34:13Z</time>
      </trkpt>
      <trkpt lat="25.385004971176386" lon="110.51771502010524">
        <ele>527.39999999999998</ele>
        <time>2013-11-17T08:34:19Z</time>
      </trkpt>
      <trkpt lat="25.384951662272215" lon="110.51770001649857">
        <ele>526.60000000000002</ele>
        <time>2013-11-17T08:34:25Z</time>
      </trkpt>
      <trkpt lat="25.384911680594087" lon="110.51769498735666">
        <ele>525.60000000000002</ele>
        <time>2013-11-17T08:34:31Z</time>
      </trkpt>
      <trkpt lat="25.38486834615469" lon="110.51767830736935">
        <ele>522.60000000000002</ele>
        <time>2013-11-17T08:34:37Z</time>
      </trkpt>
      <trkpt lat="25.384821658954024" lon="110.51767000928521">
        <ele>520.79999999999995</ele>
        <time>2013-11-17T08:34:43Z</time>
      </trkpt>
      <trkpt lat="25.384764997288585" lon="110.51766833290458">
        <ele>520.5</ele>
        <time>2013-11-17T08:34:49Z</time>
      </trkpt>
      <trkpt lat="25.384710012003779" lon="110.51767000928521">
        <ele>521.20000000000005</ele>
        <time>2013-11-17T08:34:55Z</time>
      </trkpt>
      <trkpt lat="25.384651673957705" lon="110.51766162738204">
        <ele>521.79999999999995</ele>
        <time>2013-11-17T08:35:01Z</time>
      </trkpt>
      <trkpt lat="25.384586630389094" lon="110.51765668205917">
        <ele>521</ele>
        <time>2013-11-17T08:35:07Z</time>
      </trkpt>
      <trkpt lat="25.384523347020149" lon="110.5176533292979">
        <ele>518.39999999999998</ele>
        <time>2013-11-17T08:35:13Z</time>
      </trkpt>
      <trkpt lat="25.384471630677581" lon="110.517648300156">
        <ele>517.79999999999995</ele>
        <time>2013-11-17T08:35:19Z</time>
      </trkpt>
      <trkpt lat="25.384413292631507" lon="110.51763497292995">
        <ele>516.29999999999995</ele>
        <time>2013-11-17T08:35:25Z</time>
      </trkpt>
      <trkpt lat="25.38435336202383" lon="110.51762499846518">
        <ele>515.29999999999995</ele>
        <time>2013-11-17T08:35:31Z</time>
      </trkpt>
      <trkpt lat="25.384288318455219" lon="110.51761829294264">
        <ele>517.89999999999998</ele>
        <time>2013-11-17T08:35:37Z</time>
      </trkpt>
      <trkpt lat="25.384228304028511" lon="110.5176099948585">
        <ele>519.20000000000005</ele>
        <time>2013-11-17T08:35:43Z</time>
      </trkpt>
      <trkpt lat="25.384171642363071" lon="110.51760169677436">
        <ele>519.79999999999995</ele>
        <time>2013-11-17T08:35:49Z</time>
      </trkpt>
      <trkpt lat="25.384110035374761" lon="110.51758669316769">
        <ele>520.29999999999995</ele>
        <time>2013-11-17T08:35:55Z</time>
      </trkpt>
      <trkpt lat="25.384054966270924" lon="110.51754662767053">
        <ele>521.20000000000005</ele>
        <time>2013-11-17T08:36:01Z</time>
      </trkpt>
      <trkpt lat="25.384005010128021" lon="110.51751502789557">
        <ele>521.5</ele>
        <time>2013-11-17T08:36:07Z</time>
      </trkpt>
      <trkpt lat="25.383956646546721" lon="110.51748166792095">
        <ele>521.79999999999995</ele>
        <time>2013-11-17T08:36:13Z</time>
      </trkpt>
      <trkpt lat="25.383908366784453" lon="110.51744168624282">
        <ele>522.70000000000005</ele>
        <time>2013-11-17T08:36:19Z</time>
      </trkpt>
      <trkpt lat="25.383871654048562" lon="110.51738829351962">
        <ele>522</ele>
        <time>2013-11-17T08:36:25Z</time>
      </trkpt>
      <trkpt lat="25.383824966847897" lon="110.51734831184149">
        <ele>522.89999999999998</ele>
        <time>2013-11-17T08:36:31Z</time>
      </trkpt>
      <trkpt lat="25.383791690692306" lon="110.51730330102146">
        <ele>521.20000000000005</ele>
        <time>2013-11-17T08:36:37Z</time>
      </trkpt>
      <trkpt lat="25.383751625195146" lon="110.51727002486587">
        <ele>517.39999999999998</ele>
        <time>2013-11-17T08:36:43Z</time>
      </trkpt>
      <trkpt lat="25.383698316290975" lon="110.51723331212997">
        <ele>514.70000000000005</ele>
        <time>2013-11-17T08:36:49Z</time>
      </trkpt>
      <trkpt lat="25.383645007386804" lon="110.51720498129725">
        <ele>512.20000000000005</ele>
        <time>2013-11-17T08:36:55Z</time>
      </trkpt>
      <trkpt lat="25.383591698482633" lon="110.51716835238039">
        <ele>509.10000000000002</ele>
        <time>2013-11-17T08:37:01Z</time>
      </trkpt>
      <trkpt lat="25.383535036817193" lon="110.51714664325118">
        <ele>507.19999999999999</ele>
        <time>2013-11-17T08:37:07Z</time>
      </trkpt>
      <trkpt lat="25.383484996855259" lon="110.5171199887991">
        <ele>505.69999999999999</ele>
        <time>2013-11-17T08:37:13Z</time>
      </trkpt>
      <trkpt lat="25.383463371545076" lon="110.51708335988224">
        <ele>501.89999999999998</ele>
        <time>2013-11-17T08:37:19Z</time>
      </trkpt>
      <trkpt lat="25.383456666022539" lon="110.51705829799175">
        <ele>498.89999999999998</ele>
        <time>2013-11-17T08:37:25Z</time>
      </trkpt>
      <trkpt lat="25.383458342403173" lon="110.5170333199203">
        <ele>496.10000000000002</ele>
        <time>2013-11-17T08:37:31Z</time>
      </trkpt>
      <trkpt lat="25.383433364331722" lon="110.51701663993299">
        <ele>495.10000000000002</ele>
        <time>2013-11-17T08:37:37Z</time>
      </trkpt>
      <trkpt lat="25.383390029892325" lon="110.51701169461012">
        <ele>495.30000000000001</ele>
        <time>2013-11-17T08:37:43Z</time>
      </trkpt>
      <trkpt lat="25.38334334269166" lon="110.51700666546822">
        <ele>495.30000000000001</ele>
        <time>2013-11-17T08:37:49Z</time>
      </trkpt>
      <trkpt lat="25.383313335478306" lon="110.51698001101613">
        <ele>493.30000000000001</ele>
        <time>2013-11-17T08:37:55Z</time>
      </trkpt>
      <trkpt lat="25.383275030180812" lon="110.51695503294468">
        <ele>491.10000000000002</ele>
        <time>2013-11-17T08:38:01Z</time>
      </trkpt>
      <trkpt lat="25.383230019360781" lon="110.51693835295737">
        <ele>491</ele>
        <time>2013-11-17T08:38:07Z</time>
      </trkpt>
      <trkpt lat="25.383196659386158" lon="110.51691337488592">
        <ele>489.69999999999999</ele>
        <time>2013-11-17T08:38:13Z</time>
      </trkpt>
      <trkpt lat="25.383138321340084" lon="110.51690331660211">
        <ele>491.69999999999999</ele>
        <time>2013-11-17T08:38:19Z</time>
      </trkpt>
      <trkpt lat="25.383091634139419" lon="110.51691496744752">
        <ele>494.60000000000002</ele>
        <time>2013-11-17T08:38:25Z</time>
      </trkpt>
      <trkpt lat="25.383034972473979" lon="110.51691496744752">
        <ele>495.10000000000002</ele>
        <time>2013-11-17T08:38:31Z</time>
      </trkpt>
      <trkpt lat="25.382994990795851" lon="110.51689501851797">
        <ele>494.10000000000002</ele>
        <time>2013-11-17T08:38:37Z</time>
      </trkpt>
      <trkpt lat="25.382963307201862" lon="110.51687330938876">
        <ele>490.89999999999998</ele>
        <time>2013-11-17T08:38:43Z</time>
      </trkpt>
      <trkpt lat="25.382919972762465" lon="110.5168433021754">
        <ele>488.69999999999999</ele>
        <time>2013-11-17T08:38:49Z</time>
      </trkpt>
      <trkpt lat="25.382873369380832" lon="110.51682502962649">
        <ele>487.30000000000001</ele>
        <time>2013-11-17T08:38:55Z</time>
      </trkpt>
      <trkpt lat="25.382828358560801" lon="110.51679669879377">
        <ele>486.5</ele>
        <time>2013-11-17T08:39:01Z</time>
      </trkpt>
      <trkpt lat="25.382781671360135" lon="110.51675830967724">
        <ele>486.80000000000001</ele>
        <time>2013-11-17T08:39:07Z</time>
      </trkpt>
      <trkpt lat="25.382740013301373" lon="110.51672662608325">
        <ele>488.30000000000001</ele>
        <time>2013-11-17T08:39:13Z</time>
      </trkpt>
      <trkpt lat="25.382708329707384" lon="110.51669997163117">
        <ele>488.39999999999998</ele>
        <time>2013-11-17T08:39:19Z</time>
      </trkpt>
      <trkpt lat="25.38267002440989" lon="110.51666996441782">
        <ele>489.69999999999999</ele>
        <time>2013-11-17T08:39:25Z</time>
      </trkpt>
      <trkpt lat="25.382628366351128" lon="110.51662503741682">
        <ele>490</ele>
        <time>2013-11-17T08:39:31Z</time>
      </trkpt>
      <trkpt lat="25.382589977234602" lon="110.51659000106156">
        <ele>490.39999999999998</ele>
        <time>2013-11-17T08:39:37Z</time>
      </trkpt>
      <trkpt lat="25.382563322782516" lon="110.51655664108694">
        <ele>489.10000000000002</ele>
        <time>2013-11-17T08:39:43Z</time>
      </trkpt>
      <trkpt lat="25.38251998834312" lon="110.51652504131198">
        <ele>485.60000000000002</ele>
        <time>2013-11-17T08:39:49Z</time>
      </trkpt>
      <trkpt lat="25.382476653903723" lon="110.51649662666023">
        <ele>482.89999999999998</ele>
        <time>2013-11-17T08:39:55Z</time>
      </trkpt>
      <trkpt lat="25.382433319464326" lon="110.51649335771799">
        <ele>481.80000000000001</ele>
        <time>2013-11-17T08:40:01Z</time>
      </trkpt>
      <trkpt lat="25.38238663226366" lon="110.51648003049195">
        <ele>481.69999999999999</ele>
        <time>2013-11-17T08:40:07Z</time>
      </trkpt>
      <trkpt lat="25.382358301430941" lon="110.5164566449821">
        <ele>482.39999999999998</ele>
        <time>2013-11-17T08:40:13Z</time>
      </trkpt>
      <trkpt lat="25.382346650585532" lon="110.51639998331666">
        <ele>481.89999999999998</ele>
        <time>2013-11-17T08:40:19Z</time>
      </trkpt>
      <trkpt lat="25.382311698049307" lon="110.5163583252579">
        <ele>484</ele>
        <time>2013-11-17T08:40:25Z</time>
      </trkpt>
      <trkpt lat="25.382274985313416" lon="110.51633502356708">
        <ele>485.10000000000002</ele>
        <time>2013-11-17T08:40:31Z</time>
      </trkpt>
      <trkpt lat="25.382233327254653" lon="110.51630333997309">
        <ele>486.30000000000001</ele>
        <time>2013-11-17T08:40:37Z</time>
      </trkpt>
      <trkpt lat="25.382183371111751" lon="110.51626997999847">
        <ele>486.30000000000001</ele>
        <time>2013-11-17T08:40:43Z</time>
      </trkpt>
      <trkpt lat="25.382140036672354" lon="110.51624332554638">
        <ele>484.30000000000001</ele>
        <time>2013-11-17T08:40:49Z</time>
      </trkpt>
      <trkpt lat="25.382086643949151" lon="110.51622002385557">
        <ele>483.39999999999998</ele>
        <time>2013-11-17T08:40:55Z</time>
      </trkpt>
      <trkpt lat="25.382036687806249" lon="110.51617668941617">
        <ele>480.80000000000001</ele>
        <time>2013-11-17T08:41:01Z</time>
      </trkpt>
      <trkpt lat="25.38197667337954" lon="110.51616000942886">
        <ele>481.19999999999999</ele>
        <time>2013-11-17T08:41:07Z</time>
      </trkpt>
      <trkpt lat="25.381926633417606" lon="110.51612664945424">
        <ele>482</ele>
        <time>2013-11-17T08:41:13Z</time>
      </trkpt>
      <trkpt lat="25.381888328120112" lon="110.51609496586025">
        <ele>478.60000000000002</ele>
        <time>2013-11-17T08:41:19Z</time>
      </trkpt>
      <trkpt lat="25.381853291764855" lon="110.51607669331133">
        <ele>475.39999999999998</ele>
        <time>2013-11-17T08:41:25Z</time>
      </trkpt>
      <trkpt lat="25.381808364763856" lon="110.5160699877888">
        <ele>474.10000000000002</ele>
        <time>2013-11-17T08:41:31Z</time>
      </trkpt>
      <trkpt lat="25.381751703098416" lon="110.51604668609798">
        <ele>473.89999999999998</ele>
        <time>2013-11-17T08:41:37Z</time>
      </trkpt>
      <trkpt lat="25.381708368659019" lon="110.51601835526526">
        <ele>474.69999999999999</ele>
        <time>2013-11-17T08:41:43Z</time>
      </trkpt>
      <trkpt lat="25.38166830316186" lon="110.51599664613605">
        <ele>474.39999999999998</ele>
        <time>2013-11-17T08:41:49Z</time>
      </trkpt>
      <trkpt lat="25.381636703386903" lon="110.51599664613605">
        <ele>477.5</ele>
        <time>2013-11-17T08:41:55Z</time>
      </trkpt>
      <trkpt lat="25.381593368947506" lon="110.51596001721919">
        <ele>479.69999999999999</ele>
        <time>2013-11-17T08:42:01Z</time>
      </trkpt>
      <trkpt lat="25.381560008972883" lon="110.51590830087662">
        <ele>480.39999999999998</ele>
        <time>2013-11-17T08:42:07Z</time>
      </trkpt>
      <trkpt lat="25.381541652604938" lon="110.5158366356045">
        <ele>479</ele>
        <time>2013-11-17T08:42:13Z</time>
      </trkpt>
      <trkpt lat="25.381520027294755" lon="110.51577167585492">
        <ele>478.10000000000002</ele>
        <time>2013-11-17T08:42:19Z</time>
      </trkpt>
      <trkpt lat="25.381513321772218" lon="110.51574166864157">
        <ele>475.10000000000002</ele>
        <time>2013-11-17T08:42:25Z</time>
      </trkpt>
      <trkpt lat="25.381501670926809" lon="110.51570998504758">
        <ele>472.80000000000001</ele>
        <time>2013-11-17T08:42:31Z</time>
      </trkpt>
      <trkpt lat="25.381496641784906" lon="110.5156883597374">
        <ele>469.80000000000001</ele>
        <time>2013-11-17T08:42:37Z</time>
      </trkpt>
      <trkpt lat="25.381494965404272" lon="110.51566832698882">
        <ele>467.89999999999998</ele>
        <time>2013-11-17T08:42:43Z</time>
      </trkpt>
      <trkpt lat="25.381505023688078" lon="110.51567000336945">
        <ele>465.19999999999999</ele>
        <time>2013-11-17T08:42:49Z</time>
      </trkpt>
      <trkpt lat="25.381508292630315" lon="110.51566497422755">
        <ele>463.60000000000002</ele>
        <time>2013-11-17T08:42:55Z</time>
      </trkpt>
      <trkpt lat="25.381511645391583" lon="110.51566329784691">
        <ele>463.89999999999998</ele>
        <time>2013-11-17T08:43:01Z</time>
      </trkpt>
      <trkpt lat="25.381501670926809" lon="110.51565499976277">
        <ele>465</ele>
        <time>2013-11-17T08:43:07Z</time>
      </trkpt>
      <trkpt lat="25.381491696462035" lon="110.515645025298">
        <ele>465.30000000000001</ele>
        <time>2013-11-17T08:43:13Z</time>
      </trkpt>
      <trkpt lat="25.381479961797595" lon="110.51563664339483">
        <ele>465.80000000000001</ele>
        <time>2013-11-17T08:43:19Z</time>
      </trkpt>
      <trkpt lat="25.381475016474724" lon="110.51562666893005">
        <ele>464.89999999999998</ele>
        <time>2013-11-17T08:43:25Z</time>
      </trkpt>
      <trkpt lat="25.38147334009409" lon="110.51561501808465">
        <ele>463.89999999999998</ele>
        <time>2013-11-17T08:43:31Z</time>
      </trkpt>
      <trkpt lat="25.381468310952187" lon="110.51560998894274">
        <ele>464.19999999999999</ele>
        <time>2013-11-17T08:43:37Z</time>
      </trkpt>
      <trkpt lat="25.381464958190918" lon="110.5156016908586">
        <ele>463.30000000000001</ele>
        <time>2013-11-17T08:43:43Z</time>
      </trkpt>
      <trkpt lat="25.381456660106778" lon="110.5156016908586">
        <ele>464.30000000000001</ele>
        <time>2013-11-17T08:43:49Z</time>
      </trkpt>
      <trkpt lat="25.381446685642004" lon="110.5155966617167">
        <ele>464</ele>
        <time>2013-11-17T08:43:55Z</time>
      </trkpt>
      <trkpt lat="25.381436627358198" lon="110.5155966617167">
        <ele>464.39999999999998</ele>
        <time>2013-11-17T08:44:01Z</time>
      </trkpt>
      <trkpt lat="25.381431682035327" lon="110.51559498533607">
        <ele>464.80000000000001</ele>
        <time>2013-11-17T08:44:07Z</time>
      </trkpt>
      <trkpt lat="25.381438303738832" lon="110.51558836363256">
        <ele>463.10000000000002</ele>
        <time>2013-11-17T08:44:13Z</time>
      </trkpt>
      <trkpt lat="25.381441656500101" lon="110.51558501087129">
        <ele>462</ele>
        <time>2013-11-17T08:44:19Z</time>
      </trkpt>
      <trkpt lat="25.381450038403273" lon="110.51557662896812">
        <ele>460.19999999999999</ele>
        <time>2013-11-17T08:44:25Z</time>
      </trkpt>
      <trkpt lat="25.381448362022638" lon="110.51558668725193">
        <ele>460.69999999999999</ele>
        <time>2013-11-17T08:44:31Z</time>
      </trkpt>
      <trkpt lat="25.381438303738832" lon="110.51558333449066">
        <ele>460.89999999999998</ele>
        <time>2013-11-17T08:44:37Z</time>
      </trkpt>
      <trkpt lat="25.38141667842865" lon="110.51558668725193">
        <ele>460.69999999999999</ele>
        <time>2013-11-17T08:44:43Z</time>
      </trkpt>
      <trkpt lat="25.381439980119467" lon="110.5155533272773">
        <ele>464.10000000000002</ele>
        <time>2013-11-17T08:44:49Z</time>
      </trkpt>
      <trkpt lat="25.381484990939498" lon="110.51551837474108">
        <ele>467.89999999999998</ele>
        <time>2013-11-17T08:44:55Z</time>
      </trkpt>
      <trkpt lat="25.381508292630315" lon="110.51549331285059">
        <ele>470.89999999999998</ele>
        <time>2013-11-17T08:45:01Z</time>
      </trkpt>
      <trkpt lat="25.381514998152852" lon="110.51550831645727">
        <ele>473.39999999999998</ele>
        <time>2013-11-17T08:45:07Z</time>
      </trkpt>
      <trkpt lat="25.381511645391583" lon="110.5155033711344">
        <ele>475.19999999999999</ele>
        <time>2013-11-17T08:45:13Z</time>
      </trkpt>
      <trkpt lat="25.381505023688078" lon="110.51551669836044">
        <ele>472.69999999999999</ele>
        <time>2013-11-17T08:45:19Z</time>
      </trkpt>
      <trkpt lat="25.381498318165541" lon="110.51553002558649">
        <ele>470.19999999999999</ele>
        <time>2013-11-17T08:45:25Z</time>
      </trkpt>
      <trkpt lat="25.381486667320132" lon="110.5155467055738">
        <ele>467.60000000000002</ele>
        <time>2013-11-17T08:45:31Z</time>
      </trkpt>
      <trkpt lat="25.381494965404272" lon="110.51557998172939">
        <ele>465.10000000000002</ele>
        <time>2013-11-17T08:45:37Z</time>
      </trkpt>
      <trkpt lat="25.381498318165541" lon="110.51559330895543">
        <ele>466</ele>
        <time>2013-11-17T08:45:43Z</time>
      </trkpt>
      <trkpt lat="25.381501670926809" lon="110.51561334170401">
        <ele>467</ele>
        <time>2013-11-17T08:45:49Z</time>
      </trkpt>
      <trkpt lat="25.381496641784906" lon="110.51561501808465">
        <ele>466.80000000000001</ele>
        <time>2013-11-17T08:45:55Z</time>
      </trkpt>
      <trkpt lat="25.381486667320132" lon="110.51561996340752">
        <ele>469</ele>
        <time>2013-11-17T08:46:01Z</time>
      </trkpt>
      <trkpt lat="25.381468310952187" lon="110.51559498533607">
        <ele>471.69999999999999</ele>
        <time>2013-11-17T08:46:07Z</time>
      </trkpt>
      <trkpt lat="25.381483314558864" lon="110.51557000726461">
        <ele>469.39999999999998</ele>
        <time>2013-11-17T08:46:13Z</time>
      </trkpt>
      <trkpt lat="25.381491696462035" lon="110.51556330174208">
        <ele>467</ele>
        <time>2013-11-17T08:46:19Z</time>
      </trkpt>
      <trkpt lat="25.381475016474724" lon="110.51556833088398">
        <ele>464.69999999999999</ele>
        <time>2013-11-17T08:46:25Z</time>
      </trkpt>
      <trkpt lat="25.381469987332821" lon="110.51556330174208">
        <ele>459.10000000000002</ele>
        <time>2013-11-17T08:46:31Z</time>
      </trkpt>
      <trkpt lat="25.381466634571552" lon="110.51556497812271">
        <ele>453.89999999999998</ele>
        <time>2013-11-17T08:46:37Z</time>
      </trkpt>
      <trkpt lat="25.381461689248681" lon="110.51556497812271">
        <ele>453.80000000000001</ele>
        <time>2013-11-17T08:46:43Z</time>
      </trkpt>
      <trkpt lat="25.381456660106778" lon="110.51557168364525">
        <ele>455.5</ele>
        <time>2013-11-17T08:46:49Z</time>
      </trkpt>
      <trkpt lat="25.381454983726144" lon="110.51558333449066">
        <ele>457.69999999999999</ele>
        <time>2013-11-17T08:46:55Z</time>
      </trkpt>
      <trkpt lat="25.381456660106778" lon="110.51560001447797">
        <ele>460.89999999999998</ele>
        <time>2013-11-17T08:47:01Z</time>
      </trkpt>
      <trkpt lat="25.381454983726144" lon="110.51559498533607">
        <ele>462.5</ele>
        <time>2013-11-17T08:47:07Z</time>
      </trkpt>
      <trkpt lat="25.381446685642004" lon="110.51558165811002">
        <ele>464.19999999999999</ele>
        <time>2013-11-17T08:47:13Z</time>
      </trkpt>
      <trkpt lat="25.381448362022638" lon="110.51557503640652">
        <ele>464.60000000000002</ele>
        <time>2013-11-17T08:47:19Z</time>
      </trkpt>
      <trkpt lat="25.381446685642004" lon="110.51557000726461">
        <ele>464.39999999999998</ele>
        <time>2013-11-17T08:47:25Z</time>
      </trkpt>
      <trkpt lat="25.381448362022638" lon="110.51557998172939">
        <ele>464.39999999999998</ele>
        <time>2013-11-17T08:47:31Z</time>
      </trkpt>
      <trkpt lat="25.381450038403273" lon="110.51558501087129">
        <ele>464.39999999999998</ele>
        <time>2013-11-17T08:47:37Z</time>
      </trkpt>
      <trkpt lat="25.381458336487412" lon="110.51556497812271">
        <ele>466.10000000000002</ele>
        <time>2013-11-17T08:47:43Z</time>
      </trkpt>
      <trkpt lat="25.381463365629315" lon="110.51553664728999">
        <ele>468.39999999999998</ele>
        <time>2013-11-17T08:47:49Z</time>
      </trkpt>
      <trkpt lat="25.381469987332821" lon="110.51551996730268">
        <ele>468.19999999999999</ele>
        <time>2013-11-17T08:47:55Z</time>
      </trkpt>
      <trkpt lat="25.381456660106778" lon="110.515504963696">
        <ele>468.80000000000001</ele>
        <time>2013-11-17T08:48:01Z</time>
      </trkpt>
      <trkpt lat="25.381451630964875" lon="110.51548166200519">
        <ele>468.60000000000002</ele>
        <time>2013-11-17T08:48:07Z</time>
      </trkpt>
      <trkpt lat="25.38144500926137" lon="110.51546498201787">
        <ele>468.10000000000002</ele>
        <time>2013-11-17T08:48:13Z</time>
      </trkpt>
      <trkpt lat="25.381439980119467" lon="110.51544000394642">
        <ele>467.5</ele>
        <time>2013-11-17T08:48:19Z</time>
      </trkpt>
      <trkpt lat="25.381441656500101" lon="110.51541334949434">
        <ele>467.80000000000001</ele>
        <time>2013-11-17T08:48:25Z</time>
      </trkpt>
      <trkpt lat="25.381435034796596" lon="110.51538837142289">
        <ele>468.19999999999999</ele>
        <time>2013-11-17T08:48:31Z</time>
      </trkpt>
      <trkpt lat="25.381415002048016" lon="110.51537336781621">
        <ele>468.10000000000002</ele>
        <time>2013-11-17T08:48:37Z</time>
      </trkpt>
      <trkpt lat="25.381405027583241" lon="110.51534000784159">
        <ele>466.80000000000001</ele>
        <time>2013-11-17T08:48:43Z</time>
      </trkpt>
      <trkpt lat="25.381393292918801" lon="110.51529834978282">
        <ele>466.10000000000002</ele>
        <time>2013-11-17T08:48:49Z</time>
      </trkpt>
      <trkpt lat="25.381373343989253" lon="110.51526331342757">
        <ele>465.80000000000001</ele>
        <time>2013-11-17T08:48:55Z</time>
      </trkpt>
      <trkpt lat="25.381364962086082" lon="110.5152166262269">
        <ele>463.60000000000002</ele>
        <time>2013-11-17T08:49:01Z</time>
      </trkpt>
      <trkpt lat="25.381351634860039" lon="110.51517002284527">
        <ele>462</ele>
        <time>2013-11-17T08:49:07Z</time>
      </trkpt>
      <trkpt lat="25.381338307633996" lon="110.51512501202524">
        <ele>461.30000000000001</ele>
        <time>2013-11-17T08:49:13Z</time>
      </trkpt>
      <trkpt lat="25.381316682323813" lon="110.51508000120521">
        <ele>462.5</ele>
        <time>2013-11-17T08:49:19Z</time>
      </trkpt>
      <trkpt lat="25.381309976801276" lon="110.51504169590771">
        <ele>463.39999999999998</ele>
        <time>2013-11-17T08:49:25Z</time>
      </trkpt>
      <trkpt lat="25.381308300420642" lon="110.51501168869436">
        <ele>463.69999999999999</ele>
        <time>2013-11-17T08:49:31Z</time>
      </trkpt>
      <trkpt lat="25.381294973194599" lon="110.51497329957783">
        <ele>464.60000000000002</ele>
        <time>2013-11-17T08:49:37Z</time>
      </trkpt>
      <trkpt lat="25.381275024265051" lon="110.51494664512575">
        <ele>468.80000000000001</ele>
        <time>2013-11-17T08:49:43Z</time>
      </trkpt>
      <trkpt lat="25.381256667897105" lon="110.51491496153176">
        <ele>472.5</ele>
        <time>2013-11-17T08:49:49Z</time>
      </trkpt>
      <trkpt lat="25.381246693432331" lon="110.51487003453076">
        <ele>472.39999999999998</ele>
        <time>2013-11-17T08:49:55Z</time>
      </trkpt>
      <trkpt lat="25.381220038980246" lon="110.5148349981755">
        <ele>473.5</ele>
        <time>2013-11-17T08:50:01Z</time>
      </trkpt>
      <trkpt lat="25.381185002624989" lon="110.51479669287801">
        <ele>474.30000000000001</ele>
        <time>2013-11-17T08:50:07Z</time>
      </trkpt>
      <trkpt lat="25.381168322637677" lon="110.51475335843861">
        <ele>473.69999999999999</ele>
        <time>2013-11-17T08:50:13Z</time>
      </trkpt>
      <trkpt lat="25.381136639043689" lon="110.51471664570272">
        <ele>473.19999999999999</ele>
        <time>2013-11-17T08:50:19Z</time>
      </trkpt>
      <trkpt lat="25.381121635437012" lon="110.51469166763127">
        <ele>474.19999999999999</ele>
        <time>2013-11-17T08:50:25Z</time>
      </trkpt>
      <trkpt lat="25.381093304604292" lon="110.51465998403728">
        <ele>473.69999999999999</ele>
        <time>2013-11-17T08:50:31Z</time>
      </trkpt>
      <trkpt lat="25.381056675687432" lon="110.51461664959788">
        <ele>471.60000000000002</ele>
        <time>2013-11-17T08:50:37Z</time>
      </trkpt>
      <trkpt lat="25.381028344854712" lon="110.51459670066833">
        <ele>470.19999999999999</ele>
        <time>2013-11-17T08:50:43Z</time>
      </trkpt>
      <trkpt lat="25.381003366783261" lon="110.51455001346767">
        <ele>467.69999999999999</ele>
        <time>2013-11-17T08:50:49Z</time>
      </trkpt>
      <trkpt lat="25.380981657654047" lon="110.5144967045635">
        <ele>466.5</ele>
        <time>2013-11-17T08:50:55Z</time>
      </trkpt>
      <trkpt lat="25.380960032343864" lon="110.51446334458888">
        <ele>467</ele>
        <time>2013-11-17T08:51:01Z</time>
      </trkpt>
      <trkpt lat="25.380939999595284" lon="110.51442001014948">
        <ele>465.10000000000002</ele>
        <time>2013-11-17T08:51:07Z</time>
      </trkpt>
      <trkpt lat="25.380908316001296" lon="110.51438002847135">
        <ele>463.69999999999999</ele>
        <time>2013-11-17T08:51:13Z</time>
      </trkpt>
      <trkpt lat="25.380870010703802" lon="110.51433837041259">
        <ele>461.5</ele>
        <time>2013-11-17T08:51:19Z</time>
      </trkpt>
      <trkpt lat="25.380815025418997" lon="110.51431498490274">
        <ele>462.80000000000001</ele>
        <time>2013-11-17T08:51:25Z</time>
      </trkpt>
      <trkpt lat="25.380764985457063" lon="110.51427667960525">
        <ele>465.30000000000001</ele>
        <time>2013-11-17T08:51:31Z</time>
      </trkpt>
      <trkpt lat="25.380726680159569" lon="110.51424499601126">
        <ele>465.30000000000001</ele>
        <time>2013-11-17T08:51:37Z</time>
      </trkpt>
      <trkpt lat="25.380683345720172" lon="110.51421163603663">
        <ele>462.30000000000001</ele>
        <time>2013-11-17T08:51:43Z</time>
      </trkpt>
      <trkpt lat="25.380659960210323" lon="110.51418003626168">
        <ele>459.5</ele>
        <time>2013-11-17T08:51:49Z</time>
      </trkpt>
      <trkpt lat="25.380649985745549" lon="110.51412496715784">
        <ele>458.69999999999999</ele>
        <time>2013-11-17T08:51:55Z</time>
      </trkpt>
      <trkpt lat="25.380636658519506" lon="110.51408498547971">
        <ele>457.5</ele>
        <time>2013-11-17T08:52:01Z</time>
      </trkpt>
      <trkpt lat="25.380628360435367" lon="110.51404500380158">
        <ele>456.89999999999998</ele>
        <time>2013-11-17T08:52:07Z</time>
      </trkpt>
      <trkpt lat="25.380638334900141" lon="110.51402329467237">
        <ele>452.5</ele>
        <time>2013-11-17T08:52:13Z</time>
      </trkpt>
      <trkpt lat="25.380638334900141" lon="110.51398498937488">
        <ele>452.89999999999998</ele>
        <time>2013-11-17T08:52:19Z</time>
      </trkpt>
      <trkpt lat="25.380625007674098" lon="110.51397166214883">
        <ele>452.30000000000001</ele>
        <time>2013-11-17T08:52:25Z</time>
      </trkpt>
      <trkpt lat="25.38058502599597" lon="110.51393830217421">
        <ele>448.30000000000001</ele>
        <time>2013-11-17T08:52:31Z</time>
      </trkpt>
      <trkpt lat="25.38052836433053" lon="110.51391332410276">
        <ele>447.30000000000001</ele>
        <time>2013-11-17T08:52:37Z</time>
      </trkpt>
      <trkpt lat="25.380476647987962" lon="110.51387334242463">
        <ele>446.30000000000001</ele>
        <time>2013-11-17T08:52:43Z</time>
      </trkpt>
      <trkpt lat="25.380446640774608" lon="110.5138333607465">
        <ele>441.30000000000001</ele>
        <time>2013-11-17T08:52:49Z</time>
      </trkpt>
      <trkpt lat="25.380388302728534" lon="110.51381500437856">
        <ele>438.89999999999998</ele>
        <time>2013-11-17T08:52:55Z</time>
      </trkpt>
      <trkpt lat="25.380344968289137" lon="110.51380997523665">
        <ele>437.69999999999999</ele>
        <time>2013-11-17T08:53:01Z</time>
      </trkpt>
      <trkpt lat="25.380311692133546" lon="110.51379664801061">
        <ele>434</ele>
        <time>2013-11-17T08:53:07Z</time>
      </trkpt>
      <trkpt lat="25.380258299410343" lon="110.51378667354584">
        <ele>435</ele>
        <time>2013-11-17T08:53:13Z</time>
      </trkpt>
      <trkpt lat="25.380214964970946" lon="110.5137849971652">
        <ele>440.89999999999998</ele>
        <time>2013-11-17T08:53:19Z</time>
      </trkpt>
      <trkpt lat="25.380191663280129" lon="110.51377669908106">
        <ele>443.39999999999998</ele>
        <time>2013-11-17T08:53:25Z</time>
      </trkpt>
      <trkpt lat="25.380186634138227" lon="110.51376169547439">
        <ele>443.19999999999999</ele>
        <time>2013-11-17T08:53:31Z</time>
      </trkpt>
      <trkpt lat="25.380193339660764" lon="110.51374333910644">
        <ele>440.39999999999998</ele>
        <time>2013-11-17T08:53:37Z</time>
      </trkpt>
      <trkpt lat="25.380191663280129" lon="110.51370662637055">
        <ele>434.89999999999998</ele>
        <time>2013-11-17T08:53:43Z</time>
      </trkpt>
      <trkpt lat="25.380176659673452" lon="110.51367829553783">
        <ele>432.80000000000001</ele>
        <time>2013-11-17T08:53:49Z</time>
      </trkpt>
      <trkpt lat="25.380176659673452" lon="110.51365834660828">
        <ele>430.30000000000001</ele>
        <time>2013-11-17T08:53:55Z</time>
      </trkpt>
      <trkpt lat="25.380158303305507" lon="110.51361501216888">
        <ele>425.5</ele>
        <time>2013-11-17T08:54:01Z</time>
      </trkpt>
      <trkpt lat="25.380140030756593" lon="110.51359330303967">
        <ele>425.19999999999999</ele>
        <time>2013-11-17T08:54:07Z</time>
      </trkpt>
      <trkpt lat="25.380128296092153" lon="110.51353664137423">
        <ele>421.69999999999999</ele>
        <time>2013-11-17T08:54:13Z</time>
      </trkpt>
      <trkpt lat="25.380113292485476" lon="110.5134966596961">
        <ele>416.89999999999998</ele>
        <time>2013-11-17T08:54:19Z</time>
      </trkpt>
      <trkpt lat="25.380095019936562" lon="110.5134416744113">
        <ele>409.89999999999998</ele>
        <time>2013-11-17T08:54:25Z</time>
      </trkpt>
      <trkpt lat="25.380048332735896" lon="110.51341501995921">
        <ele>411.5</ele>
        <time>2013-11-17T08:54:31Z</time>
      </trkpt>
      <trkpt lat="25.379995023831725" lon="110.51339163444936">
        <ele>415.19999999999999</ele>
        <time>2013-11-17T08:54:37Z</time>
      </trkpt>
      <trkpt lat="25.379954958334565" lon="110.51336003467441">
        <ele>413.69999999999999</ele>
        <time>2013-11-17T08:54:43Z</time>
      </trkpt>
      <trkpt lat="25.379923358559608" lon="110.51330496557057">
        <ele>407</ele>
        <time>2013-11-17T08:54:49Z</time>
      </trkpt>
      <trkpt lat="25.379888322204351" lon="110.51325500942767">
        <ele>403.69999999999999</ele>
        <time>2013-11-17T08:54:55Z</time>
      </trkpt>
      <trkpt lat="25.379848340526223" lon="110.5132017005235">
        <ele>402.60000000000002</ele>
        <time>2013-11-17T08:55:01Z</time>
      </trkpt>
      <trkpt lat="25.379823362454772" lon="110.5131533369422">
        <ele>399.30000000000001</ele>
        <time>2013-11-17T08:55:07Z</time>
      </trkpt>
      <trkpt lat="25.379766700789332" lon="110.51311997696757">
        <ele>399</ele>
        <time>2013-11-17T08:55:13Z</time>
      </trkpt>
      <trkpt lat="25.379724958911538" lon="110.51305669359863">
        <ele>398.10000000000002</ele>
        <time>2013-11-17T08:55:19Z</time>
      </trkpt>
      <trkpt lat="25.379673326388001" lon="110.51301335915923">
        <ele>401.89999999999998</ele>
        <time>2013-11-17T08:55:25Z</time>
      </trkpt>
      <trkpt lat="25.379616664722562" lon="110.51296667195857">
        <ele>404</ele>
        <time>2013-11-17T08:55:31Z</time>
      </trkpt>
      <trkpt lat="25.379576683044434" lon="110.51290833391249">
        <ele>405.5</ele>
        <time>2013-11-17T08:55:37Z</time>
      </trkpt>
      <trkpt lat="25.379546675831079" lon="110.51285334862769">
        <ele>408.5</ele>
        <time>2013-11-17T08:55:43Z</time>
      </trkpt>
      <trkpt lat="25.37949831224978" lon="110.51282837055624">
        <ele>411.89999999999998</ele>
        <time>2013-11-17T08:55:49Z</time>
      </trkpt>
      <trkpt lat="25.37946168333292" lon="110.51280666142702">
        <ele>411.80000000000001</ele>
        <time>2013-11-17T08:55:55Z</time>
      </trkpt>
      <trkpt lat="25.379456654191017" lon="110.51275502890348">
        <ele>407.80000000000001</ele>
        <time>2013-11-17T08:56:01Z</time>
      </trkpt>
      <trkpt lat="25.379466628655791" lon="110.51268336363137">
        <ele>399.10000000000002</ele>
        <time>2013-11-17T08:56:07Z</time>
      </trkpt>
      <trkpt lat="25.379476686939597" lon="110.51264002919197">
        <ele>391.60000000000002</ele>
        <time>2013-11-17T08:56:13Z</time>
      </trkpt>
      <trkpt lat="25.379478363320231" lon="110.51261496730149">
        <ele>384.80000000000001</ele>
        <time>2013-11-17T08:56:19Z</time>
      </trkpt>
      <trkpt lat="25.379484985023737" lon="110.51259501837194">
        <ele>378.80000000000001</ele>
        <time>2013-11-17T08:56:25Z</time>
      </trkpt>
      <trkpt lat="25.37949001416564" lon="110.51257833838463">
        <ele>373.39999999999998</ele>
        <time>2013-11-17T08:56:31Z</time>
      </trkpt>
      <trkpt lat="25.379463359713554" lon="110.51256501115859">
        <ele>375.69999999999999</ele>
        <time>2013-11-17T08:56:37Z</time>
      </trkpt>
      <trkpt lat="25.379426646977663" lon="110.51254162564874">
        <ele>377.80000000000001</ele>
        <time>2013-11-17T08:56:43Z</time>
      </trkpt>
      <trkpt lat="25.379386665299535" lon="110.51252829842269">
        <ele>379.60000000000002</ele>
        <time>2013-11-17T08:56:49Z</time>
      </trkpt>
      <trkpt lat="25.379351628944278" lon="110.51248831674457">
        <ele>379.80000000000001</ele>
        <time>2013-11-17T08:56:55Z</time>
      </trkpt>
      <trkpt lat="25.379306701943278" lon="110.5124416295439">
        <ele>377</ele>
        <time>2013-11-17T08:57:01Z</time>
      </trkpt>
      <trkpt lat="25.379223302006721" lon="110.51243500784039">
        <ele>385</ele>
        <time>2013-11-17T08:57:07Z</time>
      </trkpt>
      <trkpt lat="25.379164963960648" lon="110.51242335699499">
        <ele>386.39999999999998</ele>
        <time>2013-11-17T08:57:13Z</time>
      </trkpt>
      <trkpt lat="25.379118360579014" lon="110.51237164065242">
        <ele>385</ele>
        <time>2013-11-17T08:57:19Z</time>
      </trkpt>
      <trkpt lat="25.379063291475177" lon="110.5122999753803">
        <ele>386.30000000000001</ele>
        <time>2013-11-17T08:57:25Z</time>
      </trkpt>
      <trkpt lat="25.379009982571006" lon="110.51228002645075">
        <ele>390.5</ele>
        <time>2013-11-17T08:57:31Z</time>
      </trkpt>
      <trkpt lat="25.379009982571006" lon="110.51225169561803">
        <ele>388</ele>
        <time>2013-11-17T08:57:37Z</time>
      </trkpt>
      <trkpt lat="25.379016688093543" lon="110.51222168840468">
        <ele>386.10000000000002</ele>
        <time>2013-11-17T08:57:43Z</time>
      </trkpt>
      <trkpt lat="25.378973353654146" lon="110.5122016556561">
        <ele>387.89999999999998</ele>
        <time>2013-11-17T08:57:49Z</time>
      </trkpt>
      <trkpt lat="25.378891630098224" lon="110.51218170672655">
        <ele>391.10000000000002</ele>
        <time>2013-11-17T08:57:55Z</time>
      </trkpt>
      <trkpt lat="25.37882499396801" lon="110.51214164122939">
        <ele>393</ele>
        <time>2013-11-17T08:58:01Z</time>
      </trkpt>
      <trkpt lat="25.378766655921936" lon="110.51209830678999">
        <ele>396.80000000000001</ele>
        <time>2013-11-17T08:58:07Z</time>
      </trkpt>
      <trkpt lat="25.378689961507916" lon="110.51206829957664">
        <ele>402.69999999999999</ele>
        <time>2013-11-17T08:58:13Z</time>
      </trkpt>
      <trkpt lat="25.378631707280874" lon="110.51202169619501">
        <ele>405.39999999999998</ele>
        <time>2013-11-17T08:58:19Z</time>
      </trkpt>
      <trkpt lat="25.378576638177037" lon="110.51195170730352">
        <ele>402.60000000000002</ele>
        <time>2013-11-17T08:58:25Z</time>
      </trkpt>
      <trkpt lat="25.378516707569361" lon="110.51189663819969">
        <ele>404.69999999999999</ele>
        <time>2013-11-17T08:58:31Z</time>
      </trkpt>
      <trkpt lat="25.378446634858847" lon="110.51185833290219">
        <ele>409.60000000000002</ele>
        <time>2013-11-17T08:58:37Z</time>
      </trkpt>
      <trkpt lat="25.37838670425117" lon="110.51181332208216">
        <ele>412.60000000000002</ele>
        <time>2013-11-17T08:58:43Z</time>
      </trkpt>
      <trkpt lat="25.378348315134645" lon="110.51175666041672">
        <ele>412.69999999999999</ele>
        <time>2013-11-17T08:58:49Z</time>
      </trkpt>
      <trkpt lat="25.378310009837151" lon="110.5116733442992">
        <ele>407.39999999999998</ele>
        <time>2013-11-17T08:58:55Z</time>
      </trkpt>
      <trkpt lat="25.378259969875216" lon="110.51159497350454">
        <ele>404.39999999999998</ele>
        <time>2013-11-17T08:59:01Z</time>
      </trkpt>
      <trkpt lat="25.378229962661862" lon="110.51151501014829">
        <ele>397.89999999999998</ele>
        <time>2013-11-17T08:59:07Z</time>
      </trkpt>
      <trkpt lat="25.378186628222466" lon="110.51145331934094">
        <ele>393.10000000000002</ele>
        <time>2013-11-17T08:59:13Z</time>
      </trkpt>
      <trkpt lat="25.378134995698929" lon="110.51142666488886">
        <ele>394.69999999999999</ele>
        <time>2013-11-17T08:59:19Z</time>
      </trkpt>
      <trkpt lat="25.378089984878898" lon="110.51136329770088">
        <ele>393.10000000000002</ele>
        <time>2013-11-17T08:59:25Z</time>
      </trkpt>
      <trkpt lat="25.378033323213458" lon="110.51131501793861">
        <ele>391.69999999999999</ele>
        <time>2013-11-17T08:59:31Z</time>
      </trkpt>
      <trkpt lat="25.377986636012793" lon="110.51127000711858">
        <ele>387.89999999999998</ele>
        <time>2013-11-17T08:59:37Z</time>
      </trkpt>
      <trkpt lat="25.377935003489256" lon="110.51122164353728">
        <ele>384.89999999999998</ele>
        <time>2013-11-17T08:59:43Z</time>
      </trkpt>
      <trkpt lat="25.377881694585085" lon="110.51117168739438">
        <ele>384.10000000000002</ele>
        <time>2013-11-17T08:59:49Z</time>
      </trkpt>
      <trkpt lat="25.377828301861882" lon="110.51111334934831">
        <ele>383.19999999999999</ele>
        <time>2013-11-17T08:59:55Z</time>
      </trkpt>
      <trkpt lat="25.377793349325657" lon="110.51105668768287">
        <ele>378.19999999999999</ele>
        <time>2013-11-17T09:00:01Z</time>
      </trkpt>
      <trkpt lat="25.377773316577077" lon="110.51099164411426">
        <ele>374.19999999999999</ele>
        <time>2013-11-17T09:00:07Z</time>
      </trkpt>
      <trkpt lat="25.377761665731668" lon="110.51093665882945">
        <ele>372.69999999999999</ele>
        <time>2013-11-17T09:00:13Z</time>
      </trkpt>
      <trkpt lat="25.377744985744357" lon="110.51089835353196">
        <ele>375.80000000000001</ele>
        <time>2013-11-17T09:00:19Z</time>
      </trkpt>
      <trkpt lat="25.377754960209131" lon="110.51084998995066">
        <ele>373.80000000000001</ele>
        <time>2013-11-17T09:00:25Z</time>
      </trkpt>
      <trkpt lat="25.377768371254206" lon="110.51078670658171">
        <ele>371.69999999999999</ele>
        <time>2013-11-17T09:00:31Z</time>
      </trkpt>
      <trkpt lat="25.377771640196443" lon="110.51073666661978">
        <ele>373.69999999999999</ele>
        <time>2013-11-17T09:00:37Z</time>
      </trkpt>
      <trkpt lat="25.377763342112303" lon="110.51068000495434">
        <ele>374.5</ele>
        <time>2013-11-17T09:00:43Z</time>
      </trkpt>
      <trkpt lat="25.377756636589766" lon="110.5106299649924">
        <ele>375.10000000000002</ele>
        <time>2013-11-17T09:00:49Z</time>
      </trkpt>
      <trkpt lat="25.377733334898949" lon="110.51056835800409">
        <ele>373.10000000000002</ele>
        <time>2013-11-17T09:00:55Z</time>
      </trkpt>
      <trkpt lat="25.377714978531003" lon="110.51051169633865">
        <ele>373</ele>
        <time>2013-11-17T09:01:01Z</time>
      </trkpt>
      <trkpt lat="25.377705004066229" lon="110.51044832915068">
        <ele>373.30000000000001</ele>
        <time>2013-11-17T09:01:07Z</time>
      </trkpt>
      <trkpt lat="25.377666698768735" lon="110.51040667109191">
        <ele>370.60000000000002</ele>
        <time>2013-11-17T09:01:13Z</time>
      </trkpt>
      <trkpt lat="25.377636691555381" lon="110.51036668941379">
        <ele>369.30000000000001</ele>
        <time>2013-11-17T09:01:19Z</time>
      </trkpt>
      <trkpt lat="25.377603331580758" lon="110.51031329669058">
        <ele>366.60000000000002</ele>
        <time>2013-11-17T09:01:25Z</time>
      </trkpt>
      <trkpt lat="25.377573324367404" lon="110.51028337329626">
        <ele>364.80000000000001</ele>
        <time>2013-11-17T09:01:31Z</time>
      </trkpt>
      <trkpt lat="25.377541640773416" lon="110.5102433077991">
        <ele>363.39999999999998</ele>
        <time>2013-11-17T09:01:37Z</time>
      </trkpt>
      <trkpt lat="25.377493361011147" lon="110.51021497696638">
        <ele>358.5</ele>
        <time>2013-11-17T09:01:43Z</time>
      </trkpt>
      <trkpt lat="25.377463353797793" lon="110.51017331890762">
        <ele>356.80000000000001</ele>
        <time>2013-11-17T09:01:49Z</time>
      </trkpt>
      <trkpt lat="25.377429993823171" lon="110.51014666445553">
        <ele>353.80000000000001</ele>
        <time>2013-11-17T09:01:55Z</time>
      </trkpt>
      <trkpt lat="25.377390012145042" lon="110.51011665724218">
        <ele>351.69999999999999</ele>
        <time>2013-11-17T09:02:01Z</time>
      </trkpt>
      <trkpt lat="25.377341648563743" lon="110.51007835194468">
        <ele>348</ele>
        <time>2013-11-17T09:02:07Z</time>
      </trkpt>
      <trkpt lat="25.377316670492291" lon="110.51002831198275">
        <ele>344.80000000000001</ele>
        <time>2013-11-17T09:02:13Z</time>
      </trkpt>
      <trkpt lat="25.377296637743711" lon="110.50997500307858">
        <ele>345.69999999999999</ele>
        <time>2013-11-17T09:02:19Z</time>
      </trkpt>
      <trkpt lat="25.377260008826852" lon="110.50993837416172">
        <ele>348.80000000000001</ele>
        <time>2013-11-17T09:02:25Z</time>
      </trkpt>
      <trkpt lat="25.377211645245552" lon="110.5099050141871">
        <ele>349.30000000000001</ele>
        <time>2013-11-17T09:02:31Z</time>
      </trkpt>
      <trkpt lat="25.377160012722015" lon="110.5098616797477">
        <ele>346.30000000000001</ele>
        <time>2013-11-17T09:02:37Z</time>
      </trkpt>
      <trkpt lat="25.377138303592801" lon="110.50983334891498">
        <ele>345.89999999999998</ele>
        <time>2013-11-17T09:02:43Z</time>
      </trkpt>
      <trkpt lat="25.377101674675941" lon="110.50979663617909">
        <ele>345.5</ele>
        <time>2013-11-17T09:02:49Z</time>
      </trkpt>
      <trkpt lat="25.377063369378448" lon="110.50975162535906">
        <ele>344.80000000000001</ele>
        <time>2013-11-17T09:02:55Z</time>
      </trkpt>
      <trkpt lat="25.37703663110733" lon="110.50972664728761">
        <ele>340.89999999999998</ele>
        <time>2013-11-17T09:03:01Z</time>
      </trkpt>
      <trkpt lat="25.377013329416513" lon="110.50971164368093">
        <ele>336.60000000000002</ele>
        <time>2013-11-17T09:03:07Z</time>
      </trkpt>
      <trkpt lat="25.376976700499654" lon="110.50968666560948">
        <ele>335.69999999999999</ele>
        <time>2013-11-17T09:03:13Z</time>
      </trkpt>
      <trkpt lat="25.376936635002494" lon="110.5096650402993">
        <ele>335.69999999999999</ele>
        <time>2013-11-17T09:03:19Z</time>
      </trkpt>
      <trkpt lat="25.376916686072946" lon="110.50964668393135">
        <ele>337.19999999999999</ele>
        <time>2013-11-17T09:03:25Z</time>
      </trkpt>
      <trkpt lat="25.376881649717689" lon="110.50965833477676">
        <ele>337.39999999999998</ele>
        <time>2013-11-17T09:03:31Z</time>
      </trkpt>
      <trkpt lat="25.3768499661237" lon="110.50969831645489">
        <ele>344</ele>
        <time>2013-11-17T09:03:37Z</time>
      </trkpt>
      <trkpt lat="25.376828340813518" lon="110.50968666560948">
        <ele>340.80000000000001</ele>
        <time>2013-11-17T09:03:43Z</time>
      </trkpt>
      <trkpt lat="25.376803362742066" lon="110.50966830924153">
        <ele>341.30000000000001</ele>
        <time>2013-11-17T09:03:49Z</time>
      </trkpt>
      <trkpt lat="25.376793304458261" lon="110.50965498201549">
        <ele>334.30000000000001</ele>
        <time>2013-11-17T09:03:55Z</time>
      </trkpt>
      <trkpt lat="25.376771679148078" lon="110.50963000394404">
        <ele>332.89999999999998</ele>
        <time>2013-11-17T09:04:01Z</time>
      </trkpt>
      <trkpt lat="25.376743348315358" lon="110.50960829481483">
        <ele>330.5</ele>
        <time>2013-11-17T09:04:07Z</time>
      </trkpt>
      <trkpt lat="25.376709988340735" lon="110.50959329120815">
        <ele>328.69999999999999</ele>
        <time>2013-11-17T09:04:13Z</time>
      </trkpt>
      <trkpt lat="25.37667503580451" lon="110.50959002226591">
        <ele>331.39999999999998</ele>
        <time>2013-11-17T09:04:19Z</time>
      </trkpt>
      <trkpt lat="25.37666330114007" lon="110.5096217058599">
        <ele>334.60000000000002</ele>
        <time>2013-11-17T09:04:25Z</time>
      </trkpt>
      <trkpt lat="25.37666330114007" lon="110.50963503308594">
        <ele>328.89999999999998</ele>
        <time>2013-11-17T09:04:31Z</time>
      </trkpt>
      <trkpt lat="25.376643352210522" lon="110.50961164757609">
        <ele>327.69999999999999</ele>
        <time>2013-11-17T09:04:37Z</time>
      </trkpt>
      <trkpt lat="25.376615021377802" lon="110.50957501865923">
        <ele>328.80000000000001</ele>
        <time>2013-11-17T09:04:43Z</time>
      </trkpt>
      <trkpt lat="25.376588366925716" lon="110.50955330953002">
        <ele>325.69999999999999</ele>
        <time>2013-11-17T09:04:49Z</time>
      </trkpt>
      <trkpt lat="25.376534974202514" lon="110.5095249786973">
        <ele>323.10000000000002</ele>
        <time>2013-11-17T09:04:55Z</time>
      </trkpt>
      <trkpt lat="25.376493316143751" lon="110.50950000062585">
        <ele>319.69999999999999</ele>
        <time>2013-11-17T09:05:01Z</time>
      </trkpt>
      <trkpt lat="25.376453334465623" lon="110.50947829149663">
        <ele>319.19999999999999</ele>
        <time>2013-11-17T09:05:07Z</time>
      </trkpt>
      <trkpt lat="25.376408323645592" lon="110.50944669172168">
        <ele>320.19999999999999</ele>
        <time>2013-11-17T09:05:13Z</time>
      </trkpt>
      <trkpt lat="25.376358367502689" lon="110.50941500812769">
        <ele>320.19999999999999</ele>
        <time>2013-11-17T09:05:19Z</time>
      </trkpt>
      <trkpt lat="25.376325007528067" lon="110.50939832814038">
        <ele>321</ele>
        <time>2013-11-17T09:05:25Z</time>
      </trkpt>
      <trkpt lat="25.376283349469304" lon="110.50936329178512">
        <ele>317</ele>
        <time>2013-11-17T09:05:31Z</time>
      </trkpt>
      <trkpt lat="25.376248313114047" lon="110.50933663733304">
        <ele>315.19999999999999</ele>
        <time>2013-11-17T09:05:37Z</time>
      </trkpt>
      <trkpt lat="25.376211684197187" lon="110.50931668840349">
        <ele>314.89999999999998</ele>
        <time>2013-11-17T09:05:43Z</time>
      </trkpt>
      <trkpt lat="25.376181676983833" lon="110.50929833203554">
        <ele>316.60000000000002</ele>
        <time>2013-11-17T09:05:49Z</time>
      </trkpt>
      <trkpt lat="25.376151669770479" lon="110.50930000841618">
        <ele>317</ele>
        <time>2013-11-17T09:05:55Z</time>
      </trkpt>
      <trkpt lat="25.376121662557125" lon="110.50928165204823">
        <ele>315</ele>
        <time>2013-11-17T09:06:01Z</time>
      </trkpt>
      <trkpt lat="25.376104982569814" lon="110.50925164483488">
        <ele>313</ele>
        <time>2013-11-17T09:06:07Z</time>
      </trkpt>
      <trkpt lat="25.376070030033588" lon="110.50925164483488">
        <ele>311.10000000000002</ele>
        <time>2013-11-17T09:06:13Z</time>
      </trkpt>
      <trkpt lat="25.376033317297697" lon="110.50924334675074">
        <ele>306.19999999999999</ele>
        <time>2013-11-17T09:06:19Z</time>
      </trkpt>
      <trkpt lat="25.376013368368149" lon="110.50920168869197">
        <ele>303</ele>
        <time>2013-11-17T09:06:25Z</time>
      </trkpt>
      <trkpt lat="25.375978332012892" lon="110.50917000509799">
        <ele>301</ele>
        <time>2013-11-17T09:06:31Z</time>
      </trkpt>
      <trkpt lat="25.375959975644946" lon="110.50915164873004">
        <ele>300.60000000000002</ele>
        <time>2013-11-17T09:06:37Z</time>
      </trkpt>
      <trkpt lat="25.375940026715398" lon="110.50913496874273">
        <ele>296.89999999999998</ele>
        <time>2013-11-17T09:06:43Z</time>
      </trkpt>
      <trkpt lat="25.375911695882678" lon="110.50912164151669">
        <ele>298.39999999999998</ele>
        <time>2013-11-17T09:06:49Z</time>
      </trkpt>
      <trkpt lat="25.375910019502044" lon="110.50908333621919">
        <ele>294.80000000000001</ele>
        <time>2013-11-17T09:06:55Z</time>
      </trkpt>
      <trkpt lat="25.375888310372829" lon="110.50904829986393">
        <ele>291.60000000000002</ele>
        <time>2013-11-17T09:07:01Z</time>
      </trkpt>
      <trkpt lat="25.375856626778841" lon="110.50901996903121">
        <ele>288.89999999999998</ele>
        <time>2013-11-17T09:07:07Z</time>
      </trkpt>
      <trkpt lat="25.375835001468658" lon="110.50903497263789">
        <ele>288</ele>
        <time>2013-11-17T09:07:13Z</time>
      </trkpt>
      <trkpt lat="25.375799965113401" lon="110.50902332179248">
        <ele>288.10000000000002</ele>
        <time>2013-11-17T09:07:19Z</time>
      </trkpt>
      <trkpt lat="25.37576668895781" lon="110.50901670008898">
        <ele>288.5</ele>
        <time>2013-11-17T09:07:25Z</time>
      </trkpt>
      <trkpt lat="25.375720001757145" lon="110.50903497263789">
        <ele>289.19999999999999</ele>
        <time>2013-11-17T09:07:31Z</time>
      </trkpt>
      <trkpt lat="25.37566501647234" lon="110.50904670730233">
        <ele>290.30000000000001</ele>
        <time>2013-11-17T09:07:37Z</time>
      </trkpt>
      <trkpt lat="25.375606678426266" lon="110.50904829986393">
        <ele>291.5</ele>
        <time>2013-11-17T09:07:43Z</time>
      </trkpt>
      <trkpt lat="25.375538365915418" lon="110.50905500538647">
        <ele>292.10000000000002</ele>
        <time>2013-11-17T09:07:49Z</time>
      </trkpt>
      <trkpt lat="25.375481704249978" lon="110.50907336175442">
        <ele>290.69999999999999</ele>
        <time>2013-11-17T09:07:55Z</time>
      </trkpt>
      <trkpt lat="25.375444991514087" lon="110.50909666344523">
        <ele>291.19999999999999</ele>
        <time>2013-11-17T09:08:01Z</time>
      </trkpt>
      <trkpt lat="25.37542168982327" lon="110.50909666344523">
        <ele>289</ele>
        <time>2013-11-17T09:08:07Z</time>
      </trkpt>
      <trkpt lat="25.375395035371184" lon="110.50909163430333">
        <ele>287.80000000000001</ele>
        <time>2013-11-17T09:08:13Z</time>
      </trkpt>
      <trkpt lat="25.37536502815783" lon="110.50907663069665">
        <ele>286.5</ele>
        <time>2013-11-17T09:08:19Z</time>
      </trkpt>
      <trkpt lat="25.37532496266067" lon="110.50907000899315">
        <ele>284</ele>
        <time>2013-11-17T09:08:25Z</time>
      </trkpt>
      <trkpt lat="25.375293362885714" lon="110.50907503813505">
        <ele>284.10000000000002</ele>
        <time>2013-11-17T09:08:31Z</time>
      </trkpt>
      <trkpt lat="25.375299984589219" lon="110.50908836536109">
        <ele>286.69999999999999</ele>
        <time>2013-11-17T09:08:37Z</time>
      </trkpt>
      <trkpt lat="25.375313311815262" lon="110.50910336896777">
        <ele>288.60000000000002</ele>
        <time>2013-11-17T09:08:43Z</time>
      </trkpt>
      <trkpt lat="25.375323370099068" lon="110.5091000162065">
        <ele>286.60000000000002</ele>
        <time>2013-11-17T09:08:49Z</time>
      </trkpt>
      <trkpt lat="25.375358322635293" lon="110.50907503813505">
        <ele>281.89999999999998</ele>
        <time>2013-11-17T09:08:55Z</time>
      </trkpt>
      <trkpt lat="25.375343319028616" lon="110.50907830707729">
        <ele>278.89999999999998</ele>
        <time>2013-11-17T09:09:01Z</time>
      </trkpt>
      <trkpt lat="25.37531666457653" lon="110.50909833982587">
        <ele>284.19999999999999</ele>
        <time>2013-11-17T09:09:07Z</time>
      </trkpt>
      <trkpt lat="25.375281628221273" lon="110.50910831429064">
        <ele>288.5</ele>
        <time>2013-11-17T09:09:13Z</time>
      </trkpt>
      <trkpt lat="25.375254973769188" lon="110.50911669619381">
        <ele>294.10000000000002</ele>
        <time>2013-11-17T09:09:19Z</time>
      </trkpt>
      <trkpt lat="25.375203341245651" lon="110.50912164151669">
        <ele>300</ele>
        <time>2013-11-17T09:09:25Z</time>
      </trkpt>
      <trkpt lat="25.375131675973535" lon="110.50911166705191">
        <ele>303</ele>
        <time>2013-11-17T09:09:31Z</time>
      </trkpt>
      <trkpt lat="25.375050036236644" lon="110.50909163430333">
        <ele>303.60000000000002</ele>
        <time>2013-11-17T09:09:37Z</time>
      </trkpt>
      <trkpt lat="25.374966636300087" lon="110.50907000899315">
        <ele>301.19999999999999</ele>
        <time>2013-11-17T09:09:43Z</time>
      </trkpt>
      <trkpt lat="25.37490670569241" lon="110.50905332900584">
        <ele>300.10000000000002</ele>
        <time>2013-11-17T09:09:48Z</time>
      </trkpt>
      <trkpt lat="25.374806625768542" lon="110.50907663069665">
        <ele>310.60000000000002</ele>
        <time>2013-11-17T09:09:55Z</time>
      </trkpt>
      <trkpt lat="25.374730015173554" lon="110.50906162708998">
        <ele>316</ele>
        <time>2013-11-17T09:10:01Z</time>
      </trkpt>
      <trkpt lat="25.374698331579566" lon="110.50902164541185">
        <ele>315.60000000000002</ele>
        <time>2013-11-17T09:10:06Z</time>
      </trkpt>
      <trkpt lat="25.374619960784912" lon="110.50898996181786">
        <ele>316.30000000000001</ele>
        <time>2013-11-17T09:10:13Z</time>
      </trkpt>
      <trkpt lat="25.374534968286753" lon="110.50897998735309">
        <ele>315.69999999999999</ele>
        <time>2013-11-17T09:10:19Z</time>
      </trkpt>
      <trkpt lat="25.374511666595936" lon="110.50891829654574">
        <ele>310.80000000000001</ele>
        <time>2013-11-17T09:10:24Z</time>
      </trkpt>
      <trkpt lat="25.374463303014636" lon="110.50887169316411">
        <ele>303.10000000000002</ele>
        <time>2013-11-17T09:10:31Z</time>
      </trkpt>
      <trkpt lat="25.374411670491099" lon="110.50880497321486">
        <ele>299.5</ele>
        <time>2013-11-17T09:10:37Z</time>
      </trkpt>
      <trkpt lat="25.374351656064391" lon="110.50878670066595">
        <ele>299.10000000000002</ele>
        <time>2013-11-17T09:10:42Z</time>
      </trkpt>
      <trkpt lat="25.374276638031006" lon="110.5087633151561">
        <ele>300.60000000000002</ele>
        <time>2013-11-17T09:10:48Z</time>
      </trkpt>
      <trkpt lat="25.374086704105139" lon="110.5086649954319">
        <ele>302.5</ele>
        <time>2013-11-17T09:11:07Z</time>
      </trkpt>
      <trkpt lat="25.373938344419003" lon="110.50847003236413">
        <ele>289.80000000000001</ele>
        <time>2013-11-17T09:11:24Z</time>
      </trkpt>
      <trkpt lat="25.373823344707489" lon="110.50841337069869">
        <ele>312.39999999999998</ele>
        <time>2013-11-17T09:11:36Z</time>
      </trkpt>
      <trkpt lat="25.373804988339543" lon="110.50836835987866">
        <ele>313.80000000000001</ele>
        <time>2013-11-17T09:11:42Z</time>
      </trkpt>
      <trkpt lat="25.373825021088123" lon="110.50833667628467">
        <ele>311.80000000000001</ele>
        <time>2013-11-17T09:11:48Z</time>
      </trkpt>
      <trkpt lat="25.373776657506824" lon="110.50837003625929">
        <ele>310.69999999999999</ele>
        <time>2013-11-17T09:11:54Z</time>
      </trkpt>
      <trkpt lat="25.373703315854073" lon="110.50842837430537">
        <ele>312.69999999999999</ele>
        <time>2013-11-17T09:12:00Z</time>
      </trkpt>
      <trkpt lat="25.373713374137878" lon="110.50840498879552">
        <ele>313</ele>
        <time>2013-11-17T09:12:06Z</time>
      </trkpt>
      <trkpt lat="25.373728293925524" lon="110.5083766579628">
        <time>2013-11-17T09:12:12Z</time>
      </trkpt>
      <trkpt lat="25.373731646686792" lon="110.50836500711739">
        <ele>313.80000000000001</ele>
        <time>2013-11-17T09:12:13Z</time>
      </trkpt>
      <trkpt lat="25.373736675828695" lon="110.50831337459385">
        <ele>309.19999999999999</ele>
        <time>2013-11-17T09:12:18Z</time>
      </trkpt>
      <trkpt lat="25.373755032196641" lon="110.50820499658585">
        <time>2013-11-17T09:12:30Z</time>
      </trkpt>
      <trkpt lat="25.373746650293469" lon="110.50820499658585">
        <ele>296.30000000000001</ele>
        <time>2013-11-17T09:12:31Z</time>
      </trkpt>
      <trkpt lat="25.373708344995975" lon="110.5082299746573">
        <time>2013-11-17T09:12:36Z</time>
      </trkpt>
      <trkpt lat="25.373703315854073" lon="110.50823668017983">
        <ele>300.60000000000002</ele>
        <time>2013-11-17T09:12:37Z</time>
      </trkpt>
      <trkpt lat="25.373726701363921" lon="110.50822502933443">
        <time>2013-11-17T09:12:48Z</time>
      </trkpt>
      <trkpt lat="25.373725024983287" lon="110.50822502933443">
        <ele>312.19999999999999</ele>
        <time>2013-11-17T09:12:49Z</time>
      </trkpt>
      <trkpt lat="25.373746650293469" lon="110.50821832381189">
        <time>2013-11-17T09:12:54Z</time>
      </trkpt>
      <trkpt lat="25.373753355816007" lon="110.50821497105062">
        <ele>313.69999999999999</ele>
        <time>2013-11-17T09:12:55Z</time>
      </trkpt>
      <trkpt lat="25.373783363029361" lon="110.50816996023059">
        <time>2013-11-17T09:13:06Z</time>
      </trkpt>
      <trkpt lat="25.373791661113501" lon="110.50816166214645">
        <ele>307.30000000000001</ele>
        <time>2013-11-17T09:13:07Z</time>
      </trkpt>
      <trkpt lat="25.373851675540209" lon="110.50810835324228">
        <time>2013-11-17T09:13:12Z</time>
      </trkpt>
      <trkpt lat="25.373853351920843" lon="110.50809670239687">
        <ele>303.10000000000002</ele>
        <time>2013-11-17T09:13:13Z</time>
      </trkpt>
      <trkpt lat="25.373859973624349" lon="110.50806996412575">
        <time>2013-11-17T09:13:18Z</time>
      </trkpt>
      <trkpt lat="25.373855028301477" lon="110.50807331688702">
        <ele>300.19999999999999</ele>
        <time>2013-11-17T09:13:19Z</time>
      </trkpt>
      <trkpt lat="25.373841701075435" lon="110.50807331688702">
        <time>2013-11-17T09:13:24Z</time>
      </trkpt>
      <trkpt lat="25.3738400246948" lon="110.50807164050639">
        <ele>303</ele>
        <time>2013-11-17T09:13:25Z</time>
      </trkpt>
      <trkpt lat="25.373818315565586" lon="110.50807499326766">
        <time>2013-11-17T09:13:30Z</time>
      </trkpt>
      <trkpt lat="25.373811693862081" lon="110.50807666964829">
        <ele>310.39999999999998</ele>
        <time>2013-11-17T09:13:31Z</time>
      </trkpt>
      <trkpt lat="25.373796690255404" lon="110.50805336795747">
        <time>2013-11-17T09:13:36Z</time>
      </trkpt>
      <trkpt lat="25.373791661113501" lon="110.5080449860543">
        <ele>311.30000000000001</ele>
        <time>2013-11-17T09:13:37Z</time>
      </trkpt>
      <trkpt lat="25.373788308352232" lon="110.50799167715013">
        <time>2013-11-17T09:13:42Z</time>
      </trkpt>
      <trkpt lat="25.373786631971598" lon="110.50798170268536">
        <ele>310.39999999999998</ele>
        <time>2013-11-17T09:13:43Z</time>
      </trkpt>
      <trkpt lat="25.373781686648726" lon="110.50791162997484">
        <time>2013-11-17T09:13:48Z</time>
      </trkpt>
      <trkpt lat="25.373783363029361" lon="110.5078983027488">
        <ele>306.60000000000002</ele>
        <time>2013-11-17T09:13:49Z</time>
      </trkpt>
      <trkpt lat="25.373796690255404" lon="110.50782496109605">
        <time>2013-11-17T09:13:54Z</time>
      </trkpt>
      <trkpt lat="25.373796690255404" lon="110.50781331025064">
        <ele>301.80000000000001</ele>
        <time>2013-11-17T09:13:55Z</time>
      </trkpt>
      <trkpt lat="25.373789984732866" lon="110.50774332135916">
        <time>2013-11-17T09:14:00Z</time>
      </trkpt>
      <trkpt lat="25.373785039409995" lon="110.50773502327502">
        <ele>297.5</ele>
        <time>2013-11-17T09:14:01Z</time>
      </trkpt>
      <trkpt lat="25.373774981126189" lon="110.50767836160958">
        <time>2013-11-17T09:14:06Z</time>
      </trkpt>
      <trkpt lat="25.373771628364921" lon="110.50766830332577">
        <ele>296.19999999999999</ele>
        <time>2013-11-17T09:14:07Z</time>
      </trkpt>
      <trkpt lat="25.373746650293469" lon="110.5076200235635">
        <time>2013-11-17T09:14:12Z</time>
      </trkpt>
      <trkpt lat="25.373741704970598" lon="110.5076083727181">
        <ele>296.5</ele>
        <time>2013-11-17T09:14:13Z</time>
      </trkpt>
      <trkpt lat="25.373726701363921" lon="110.50754668191075">
        <time>2013-11-17T09:14:18Z</time>
      </trkpt>
      <trkpt lat="25.373725024983287" lon="110.50753830000758">
        <ele>294.80000000000001</ele>
        <time>2013-11-17T09:14:19Z</time>
      </trkpt>
      <trkpt lat="25.373703315854073" lon="110.50749337300658">
        <time>2013-11-17T09:14:24Z</time>
      </trkpt>
      <trkpt lat="25.373696694150567" lon="110.50748163834214">
        <ele>294.69999999999999</ele>
        <time>2013-11-17T09:14:25Z</time>
      </trkpt>
      <trkpt lat="25.373676661401987" lon="110.50742003135383">
        <time>2013-11-17T09:14:30Z</time>
      </trkpt>
      <trkpt lat="25.373668363317847" lon="110.50740829668939">
        <ele>295.69999999999999</ele>
        <time>2013-11-17T09:14:31Z</time>
      </trkpt>
      <trkpt lat="25.373621676117182" lon="110.50733503885567">
        <time>2013-11-17T09:14:36Z</time>
      </trkpt>
      <trkpt lat="25.373614970594645" lon="110.5073216278106">
        <ele>289.69999999999999</ele>
        <time>2013-11-17T09:14:37Z</time>
      </trkpt>
      <trkpt lat="25.373596698045731" lon="110.50725834444165">
        <time>2013-11-17T09:14:42Z</time>
      </trkpt>
      <trkpt lat="25.373588316142559" lon="110.50724836997688">
        <ele>288.10000000000002</ele>
        <time>2013-11-17T09:14:43Z</time>
      </trkpt>
      <trkpt lat="25.373546658083797" lon="110.50719330087304">
        <time>2013-11-17T09:14:48Z</time>
      </trkpt>
      <trkpt lat="25.373541628941894" lon="110.50718165002763">
        <ele>286.69999999999999</ele>
        <time>2013-11-17T09:14:49Z</time>
      </trkpt>
      <trkpt lat="25.373514974489808" lon="110.50713496282697">
        <time>2013-11-17T09:14:54Z</time>
      </trkpt>
      <trkpt lat="25.373510029166937" lon="110.50712666474283">
        <ele>288.19999999999999</ele>
        <time>2013-11-17T09:14:55Z</time>
      </trkpt>
      <trkpt lat="25.373489996418357" lon="110.50707670859993">
        <time>2013-11-17T09:15:00Z</time>
      </trkpt>
      <trkpt lat="25.373483374714851" lon="110.50707000307739">
        <ele>289</ele>
        <time>2013-11-17T09:15:01Z</time>
      </trkpt>
      <trkpt lat="25.373444985598326" lon="110.50702499225736">
        <time>2013-11-17T09:15:06Z</time>
      </trkpt>
      <trkpt lat="25.373429981991649" lon="110.50702331587672">
        <ele>288.89999999999998</ele>
        <time>2013-11-17T09:15:07Z</time>
      </trkpt>
      <trkpt lat="25.373386647552252" lon="110.50699163228273">
        <time>2013-11-17T09:15:12Z</time>
      </trkpt>
      <trkpt lat="25.373376673087478" lon="110.50697998143733">
        <ele>288.89999999999998</ele>
        <time>2013-11-17T09:15:13Z</time>
      </trkpt>
      <trkpt lat="25.373329985886812" lon="110.50691502168775">
        <time>2013-11-17T09:15:18Z</time>
      </trkpt>
      <trkpt lat="25.373325040563941" lon="110.50690001808107">
        <ele>284.60000000000002</ele>
        <time>2013-11-17T09:15:19Z</time>
      </trkpt>
      <trkpt lat="25.373281706124544" lon="110.5068483017385">
        <ele>283.89999999999998</ele>
        <time>2013-11-17T09:15:24Z</time>
      </trkpt>
      <trkpt lat="25.373206688091159" lon="110.50681334920228">
        <time>2013-11-17T09:15:30Z</time>
      </trkpt>
      <trkpt lat="25.373196629807353" lon="110.5068033747375">
        <ele>285.30000000000001</ele>
        <time>2013-11-17T09:15:31Z</time>
      </trkpt>
      <trkpt lat="25.373139968141913" lon="110.50677001476288">
        <time>2013-11-17T09:15:36Z</time>
      </trkpt>
      <trkpt lat="25.373133346438408" lon="110.50675836391747">
        <ele>287.80000000000001</ele>
        <time>2013-11-17T09:15:37Z</time>
      </trkpt>
      <trkpt lat="25.373096633702517" lon="110.50671997480094">
        <ele>286.89999999999998</ele>
        <time>2013-11-17T09:15:42Z</time>
      </trkpt>
      <trkpt lat="25.373029997572303" lon="110.50667496398091">
        <time>2013-11-17T09:15:48Z</time>
      </trkpt>
      <trkpt lat="25.373023292049766" lon="110.5066633131355">
        <ele>286</ele>
        <time>2013-11-17T09:15:49Z</time>
      </trkpt>
      <trkpt lat="25.372978365048766" lon="110.50663003697991">
        <time>2013-11-17T09:15:54Z</time>
      </trkpt>
      <trkpt lat="25.372969983145595" lon="110.50662500783801">
        <ele>286.5</ele>
        <time>2013-11-17T09:15:55Z</time>
      </trkpt>
      <trkpt lat="25.372926648706198" lon="110.50660497508943">
        <ele>287.5</ele>
        <time>2013-11-17T09:16:00Z</time>
      </trkpt>
      <trkpt lat="25.372905023396015" lon="110.50658334977925">
        <time>2013-11-17T09:16:06Z</time>
      </trkpt>
      <trkpt lat="25.372894965112209" lon="110.50657999701798">
        <ele>288.5</ele>
        <time>2013-11-17T09:16:07Z</time>
      </trkpt>
      <trkpt lat="25.37285833619535" lon="110.50657329149544">
        <time>2013-11-17T09:16:12Z</time>
      </trkpt>
      <trkpt lat="25.372853307053447" lon="110.50657329149544">
        <ele>286.30000000000001</ele>
        <time>2013-11-17T09:16:13Z</time>
      </trkpt>
      <trkpt lat="25.372811648994684" lon="110.50656834617257">
        <ele>286.60000000000002</ele>
        <time>2013-11-17T09:16:18Z</time>
      </trkpt>
      <trkpt lat="25.372764961794019" lon="110.50653498619795">
        <ele>290.5</ele>
        <time>2013-11-17T09:16:24Z</time>
      </trkpt>
      <trkpt lat="25.372739983722568" lon="110.50652333535254">
        <time>2013-11-17T09:16:30Z</time>
      </trkpt>
      <trkpt lat="25.372735038399696" lon="110.50651998259127">
        <ele>293.80000000000001</ele>
        <time>2013-11-17T09:16:31Z</time>
      </trkpt>
      <trkpt lat="25.372711652889848" lon="110.50651336088777">
        <ele>295.89999999999998</ele>
        <time>2013-11-17T09:16:36Z</time>
      </trkpt>
      <trkpt lat="25.372681645676494" lon="110.50647832453251">
        <ele>300.30000000000001</ele>
        <time>2013-11-17T09:16:42Z</time>
      </trkpt>
      <trkpt lat="25.372643340379" lon="110.50649165175855">
        <time>2013-11-17T09:16:48Z</time>
      </trkpt>
      <trkpt lat="25.372639987617731" lon="110.50649668090045">
        <ele>302.69999999999999</ele>
        <time>2013-11-17T09:16:49Z</time>
      </trkpt>
      <trkpt lat="25.372605035081506" lon="110.50653004087508">
        <ele>299.19999999999999</ele>
        <time>2013-11-17T09:16:54Z</time>
      </trkpt>
      <trkpt lat="25.37255834788084" lon="110.50656331703067">
        <ele>302.30000000000001</ele>
        <time>2013-11-17T09:17:00Z</time>
      </trkpt>
      <trkpt lat="25.372546697035432" lon="110.50657832063735">
        <ele>299.19999999999999</ele>
        <time>2013-11-17T09:17:06Z</time>
      </trkpt>
      <trkpt lat="25.372575027868152" lon="110.50653498619795">
        <ele>303.5</ele>
        <time>2013-11-17T09:17:12Z</time>
      </trkpt>
      <trkpt lat="25.372576704248786" lon="110.50649500451982">
        <ele>305</ele>
        <time>2013-11-17T09:17:18Z</time>
      </trkpt>
      <trkpt lat="25.372569998726249" lon="110.50644001923501">
        <ele>307.89999999999998</ele>
        <time>2013-11-17T09:17:24Z</time>
      </trkpt>
      <trkpt lat="25.372551642358303" lon="110.50639333203435">
        <ele>306.30000000000001</ele>
        <time>2013-11-17T09:17:30Z</time>
      </trkpt>
      <trkpt lat="25.372561700642109" lon="110.5063683539629">
        <ele>301</ele>
        <time>2013-11-17T09:17:36Z</time>
      </trkpt>
      <trkpt lat="25.372539991512895" lon="110.50636667758226">
        <ele>293.69999999999999</ele>
        <time>2013-11-17T09:17:42Z</time>
      </trkpt>
      <trkpt lat="25.372553318738937" lon="110.50634329207242">
        <ele>289.30000000000001</ele>
        <time>2013-11-17T09:17:48Z</time>
      </trkpt>
      <trkpt lat="25.3725949767977" lon="110.50630498677492">
        <ele>286.60000000000002</ele>
        <time>2013-11-17T09:17:54Z</time>
      </trkpt>
      <trkpt lat="25.372600005939603" lon="110.50625997595489">
        <ele>282.89999999999998</ele>
        <time>2013-11-17T09:18:00Z</time>
      </trkpt>
      <trkpt lat="25.372626660391688" lon="110.50620834343135">
        <ele>279.69999999999999</ele>
        <time>2013-11-17T09:18:06Z</time>
      </trkpt>
      <trkpt lat="25.372628336772323" lon="110.50614665262401">
        <ele>274.10000000000002</ele>
        <time>2013-11-17T09:18:12Z</time>
      </trkpt>
      <trkpt lat="25.372646693140268" lon="110.50609166733921">
        <ele>273.69999999999999</ele>
        <time>2013-11-17T09:18:18Z</time>
      </trkpt>
      <trkpt lat="25.372645016759634" lon="110.50602830015123">
        <ele>275.30000000000001</ele>
        <time>2013-11-17T09:18:24Z</time>
      </trkpt>
      <trkpt lat="25.372653314843774" lon="110.50595168955624">
        <ele>277.10000000000002</ele>
        <time>2013-11-17T09:18:30Z</time>
      </trkpt>
      <trkpt lat="25.372669994831085" lon="110.50589335151017">
        <ele>281.10000000000002</ele>
        <time>2013-11-17T09:18:36Z</time>
      </trkpt>
      <trkpt lat="25.372666642069817" lon="110.50584331154823">
        <ele>286.89999999999998</ele>
        <time>2013-11-17T09:18:42Z</time>
      </trkpt>
      <trkpt lat="25.372649962082505" lon="110.50576502457261">
        <ele>285.39999999999998</ele>
        <time>2013-11-17T09:18:48Z</time>
      </trkpt>
      <trkpt lat="25.37265163846314" lon="110.50568497739732">
        <ele>287.60000000000002</ele>
        <time>2013-11-17T09:18:54Z</time>
      </trkpt>
      <trkpt lat="25.372624984011054" lon="110.5056016612798">
        <ele>284.60000000000002</ele>
        <time>2013-11-17T09:19:00Z</time>
      </trkpt>
      <trkpt lat="25.372630013152957" lon="110.50550669431686">
        <ele>278.60000000000002</ele>
        <time>2013-11-17T09:19:06Z</time>
      </trkpt>
      <trkpt lat="25.372620038688183" lon="110.5054217018187">
        <ele>278.30000000000001</ele>
        <time>2013-11-17T09:19:12Z</time>
      </trkpt>
      <trkpt lat="25.372593300417066" lon="110.50535162910819">
        <ele>276.10000000000002</ele>
        <time>2013-11-17T09:19:18Z</time>
      </trkpt>
      <trkpt lat="25.37255834788084" lon="110.50528499297798">
        <ele>275</ele>
        <time>2013-11-17T09:19:24Z</time>
      </trkpt>
      <trkpt lat="25.37253831513226" lon="110.50520670600235">
        <ele>273.89999999999998</ele>
        <time>2013-11-17T09:19:30Z</time>
      </trkpt>
      <trkpt lat="25.372523311525583" lon="110.50511836074293">
        <ele>272.10000000000002</ele>
        <time>2013-11-17T09:19:36Z</time>
      </trkpt>
      <trkpt lat="25.372513337060809" lon="110.50503169186413">
        <ele>268.39999999999998</ele>
        <time>2013-11-17T09:19:42Z</time>
      </trkpt>
      <trkpt lat="25.372478300705552" lon="110.50496329553425">
        <ele>269.39999999999998</ele>
        <time>2013-11-17T09:19:48Z</time>
      </trkpt>
      <trkpt lat="25.372413340955973" lon="110.50491669215262">
        <ele>269</ele>
        <time>2013-11-17T09:19:54Z</time>
      </trkpt>
      <trkpt lat="25.372345028445125" lon="110.50485667772591">
        <ele>269.69999999999999</ele>
        <time>2013-11-17T09:20:00Z</time>
      </trkpt>
      <trkpt lat="25.372288366779685" lon="110.50478333607316">
        <ele>271.19999999999999</ele>
        <time>2013-11-17T09:20:06Z</time>
      </trkpt>
      <trkpt lat="25.372234974056482" lon="110.50471334718168">
        <ele>271.39999999999998</ele>
        <time>2013-11-17T09:20:12Z</time>
      </trkpt>
      <trkpt lat="25.372181665152311" lon="110.50462835468352">
        <ele>272.60000000000002</ele>
        <time>2013-11-17T09:20:18Z</time>
      </trkpt>
      <trkpt lat="25.372143359854817" lon="110.50454998388886">
        <ele>272.89999999999998</ele>
        <time>2013-11-17T09:20:24Z</time>
      </trkpt>
      <trkpt lat="25.372086698189378" lon="110.50448167137802">
        <ele>276.10000000000002</ele>
        <time>2013-11-17T09:20:30Z</time>
      </trkpt>
      <trkpt lat="25.372008327394724" lon="110.5044599622488">
        <ele>278.5</ele>
        <time>2013-11-17T09:20:36Z</time>
      </trkpt>
      <trkpt lat="25.371936662122607" lon="110.50442836247385">
        <ele>282.69999999999999</ele>
        <time>2013-11-17T09:20:42Z</time>
      </trkpt>
      <trkpt lat="25.371876647695899" lon="110.50437496975064">
        <ele>284.19999999999999</ele>
        <time>2013-11-17T09:20:48Z</time>
      </trkpt>
      <trkpt lat="25.371833313256502" lon="110.50431663170457">
        <ele>287.39999999999998</ele>
        <time>2013-11-17T09:20:54Z</time>
      </trkpt>
      <trkpt lat="25.371773298829794" lon="110.50427497364581">
        <ele>288.39999999999998</ele>
        <time>2013-11-17T09:21:00Z</time>
      </trkpt>
      <trkpt lat="25.37172669544816" lon="110.50422837026417">
        <ele>290.89999999999998</ele>
        <time>2013-11-17T09:21:06Z</time>
      </trkpt>
      <trkpt lat="25.371688306331635" lon="110.50416667945683">
        <ele>292.10000000000002</ele>
        <time>2013-11-17T09:21:12Z</time>
      </trkpt>
      <trkpt lat="25.371655030176044" lon="110.50411001779139">
        <ele>292</ele>
        <time>2013-11-17T09:21:18Z</time>
      </trkpt>
      <trkpt lat="25.371623346582055" lon="110.50406333059072">
        <ele>289.10000000000002</ele>
        <time>2013-11-17T09:21:24Z</time>
      </trkpt>
      <trkpt lat="25.371586633846164" lon="110.50402502529323">
        <ele>288.5</ele>
        <time>2013-11-17T09:21:30Z</time>
      </trkpt>
      <trkpt lat="25.371535001322627" lon="110.50399837084115">
        <ele>282.89999999999998</ele>
        <time>2013-11-17T09:21:36Z</time>
      </trkpt>
      <trkpt lat="25.371468365192413" lon="110.50396333448589">
        <ele>277.10000000000002</ele>
        <time>2013-11-17T09:21:42Z</time>
      </trkpt>
      <trkpt lat="25.371395023539662" lon="110.50393835641444">
        <ele>271.80000000000001</ele>
        <time>2013-11-17T09:21:48Z</time>
      </trkpt>
      <trkpt lat="25.3713050018996" lon="110.50390332005918">
        <ele>267.69999999999999</ele>
        <time>2013-11-17T09:21:54Z</time>
      </trkpt>
      <trkpt lat="25.371231660246849" lon="110.50386996008456">
        <ele>263.39999999999998</ele>
        <time>2013-11-17T09:22:00Z</time>
      </trkpt>
      <trkpt lat="25.371165024116635" lon="110.50382335670292">
        <ele>259.30000000000001</ele>
        <time>2013-11-17T09:22:06Z</time>
      </trkpt>
      <trkpt lat="25.371116660535336" lon="110.50378329120576">
        <ele>261.5</ele>
        <time>2013-11-17T09:22:12Z</time>
      </trkpt>
      <trkpt lat="25.371091682463884" lon="110.50373333506286">
        <ele>264.19999999999999</ele>
        <time>2013-11-17T09:22:18Z</time>
      </trkpt>
      <trkpt lat="25.37106167525053" lon="110.50367164425552">
        <ele>260.5</ele>
        <time>2013-11-17T09:22:24Z</time>
      </trkpt>
      <trkpt lat="25.371026638895273" lon="110.50360500812531">
        <ele>257.69999999999999</ele>
        <time>2013-11-17T09:22:30Z</time>
      </trkpt>
      <trkpt lat="25.371001660823822" lon="110.50352831371129">
        <ele>254.09999999999999</ele>
        <time>2013-11-17T09:22:36Z</time>
      </trkpt>
      <trkpt lat="25.370990009978414" lon="110.50342999398708">
        <ele>252.40000000000001</ele>
        <time>2013-11-17T09:22:42Z</time>
      </trkpt>
      <trkpt lat="25.370965031906962" lon="110.50333335064352">
        <ele>251.40000000000001</ele>
        <time>2013-11-17T09:22:48Z</time>
      </trkpt>
      <trkpt lat="25.370888337492943" lon="110.50327836535871">
        <ele>250.69999999999999</ele>
        <time>2013-11-17T09:22:54Z</time>
      </trkpt>
      <trkpt lat="25.370843326672912" lon="110.50322497263551">
        <ele>254.19999999999999</ele>
        <time>2013-11-17T09:23:00Z</time>
      </trkpt>
      <trkpt lat="25.370806697756052" lon="110.50315833650529">
        <ele>255.30000000000001</ele>
        <time>2013-11-17T09:23:06Z</time>
      </trkpt>
      <trkpt lat="25.370758334174752" lon="110.50309999845922">
        <ele>255</ele>
        <time>2013-11-17T09:23:12Z</time>
      </trkpt>
      <trkpt lat="25.37071667611599" lon="110.50303000956774">
        <ele>252.59999999999999</ele>
        <time>2013-11-17T09:23:18Z</time>
      </trkpt>
      <trkpt lat="25.370669988915324" lon="110.50296999514103">
        <ele>250.5</ele>
        <time>2013-11-17T09:23:24Z</time>
      </trkpt>
      <trkpt lat="25.370654985308647" lon="110.50294669345021">
        <ele>247.69999999999999</ele>
        <time>2013-11-17T09:23:30Z</time>
      </trkpt>
      <trkpt lat="25.37063998170197" lon="110.50293998792768">
        <ele>248.69999999999999</ele>
        <time>2013-11-17T09:23:36Z</time>
      </trkpt>
      <trkpt lat="25.370613327249885" lon="110.50290830433369">
        <ele>244.19999999999999</ele>
        <time>2013-11-17T09:23:42Z</time>
      </trkpt>
      <trkpt lat="25.370606705546379" lon="110.5028866790235">
        <ele>237.5</ele>
        <time>2013-11-17T09:23:48Z</time>
      </trkpt>
      <trkpt lat="25.370616680011153" lon="110.50289170816541">
        <ele>240.90000000000001</ele>
        <time>2013-11-17T09:23:54Z</time>
      </trkpt>
      <trkpt lat="25.370616680011153" lon="110.50289003178477">
        <ele>240.30000000000001</ele>
        <time>2013-11-17T09:24:00Z</time>
      </trkpt>
      <trkpt lat="25.370620032772422" lon="110.50288500264287">
        <ele>238.80000000000001</ele>
        <time>2013-11-17T09:24:06Z</time>
      </trkpt>
      <trkpt lat="25.370628330856562" lon="110.50288835540414">
        <ele>241.30000000000001</ele>
        <time>2013-11-17T09:24:12Z</time>
      </trkpt>
      <trkpt lat="25.370636628940701" lon="110.50289497710764">
        <ele>242.19999999999999</ele>
        <time>2013-11-17T09:24:18Z</time>
      </trkpt>
      <trkpt lat="25.370650039985776" lon="110.50289330072701">
        <ele>240.59999999999999</ele>
        <time>2013-11-17T09:24:24Z</time>
      </trkpt>
      <trkpt lat="25.370636628940701" lon="110.50289330072701">
        <ele>239.30000000000001</ele>
        <time>2013-11-17T09:24:30Z</time>
      </trkpt>
      <trkpt lat="25.37060335278511" lon="110.5028866790235">
        <ele>238.30000000000001</ele>
        <time>2013-11-17T09:24:36Z</time>
      </trkpt>
      <trkpt lat="25.370578374713659" lon="110.50286664627492">
        <ele>236.09999999999999</ele>
        <time>2013-11-17T09:24:42Z</time>
      </trkpt>
      <trkpt lat="25.370549960061908" lon="110.50283496268094">
        <ele>235.59999999999999</ele>
        <time>2013-11-17T09:24:48Z</time>
      </trkpt>
      <trkpt lat="25.370554989203811" lon="110.50280998460948">
        <ele>231.69999999999999</ele>
        <time>2013-11-17T09:24:54Z</time>
      </trkpt>
      <trkpt lat="25.370556665584445" lon="110.50280503928661">
        <ele>232.5</ele>
        <time>2013-11-17T09:25:00Z</time>
      </trkpt>
      <trkpt lat="25.370569992810488" lon="110.50278668291867">
        <ele>232.09999999999999</ele>
        <time>2013-11-17T09:25:06Z</time>
      </trkpt>
      <trkpt lat="25.370578374713659" lon="110.5027833301574">
        <ele>232.40000000000001</ele>
        <time>2013-11-17T09:25:12Z</time>
      </trkpt>
      <trkpt lat="25.370591701939702" lon="110.5027833301574">
        <ele>236.80000000000001</ele>
        <time>2013-11-17T09:25:18Z</time>
      </trkpt>
      <trkpt lat="25.370596647262573" lon="110.50278165377676">
        <ele>237.09999999999999</ele>
        <time>2013-11-17T09:25:24Z</time>
      </trkpt>
      <trkpt lat="25.370591701939702" lon="110.50277997739613">
        <ele>237.40000000000001</ele>
        <time>2013-11-17T09:25:30Z</time>
      </trkpt>
      <trkpt lat="25.370575021952391" lon="110.50277167931199">
        <ele>237.19999999999999</ele>
        <time>2013-11-17T09:25:36Z</time>
      </trkpt>
      <trkpt lat="25.370545014739037" lon="110.50275332294405">
        <ele>236.40000000000001</ele>
        <time>2013-11-17T09:25:42Z</time>
      </trkpt>
      <trkpt lat="25.370521629229188" lon="110.50271669402719">
        <ele>235.5</ele>
        <time>2013-11-17T09:25:48Z</time>
      </trkpt>
      <trkpt lat="25.370479971170425" lon="110.50268333405256">
        <ele>236.19999999999999</ele>
        <time>2013-11-17T09:25:54Z</time>
      </trkpt>
      <trkpt lat="25.370439989492297" lon="110.50265165045857">
        <ele>235.69999999999999</ele>
        <time>2013-11-17T09:26:00Z</time>
      </trkpt>
      <trkpt lat="25.370431691408157" lon="110.50265835598111">
        <ele>236.30000000000001</ele>
        <time>2013-11-17T09:26:06Z</time>
      </trkpt>
      <trkpt lat="25.370400007814169" lon="110.50263999961317">
        <ele>232.59999999999999</ele>
        <time>2013-11-17T09:26:12Z</time>
      </trkpt>
      <trkpt lat="25.370376706123352" lon="110.50261837430298">
        <ele>225.5</ele>
        <time>2013-11-17T09:26:18Z</time>
      </trkpt>
      <trkpt lat="25.370348291471601" lon="110.50258166156709">
        <ele>226.30000000000001</ele>
        <time>2013-11-17T09:26:24Z</time>
      </trkpt>
      <trkpt lat="25.370308309793472" lon="110.50257503986359">
        <ele>227.80000000000001</ele>
        <time>2013-11-17T09:26:30Z</time>
      </trkpt>
      <trkpt lat="25.370278302580118" lon="110.50256665796041">
        <ele>229.09999999999999</ele>
        <time>2013-11-17T09:26:36Z</time>
      </trkpt>
      <trkpt lat="25.370276626199484" lon="110.50257001072168">
        <ele>229.80000000000001</ele>
        <time>2013-11-17T09:26:42Z</time>
      </trkpt>
      <trkpt lat="25.370248295366764" lon="110.50253170542419">
        <ele>232.40000000000001</ele>
        <time>2013-11-17T09:26:48Z</time>
      </trkpt>
      <trkpt lat="25.370186688378453" lon="110.5025000218302">
        <ele>232.30000000000001</ele>
        <time>2013-11-17T09:26:54Z</time>
      </trkpt>
      <trkpt lat="25.370138324797153" lon="110.50247998908162">
        <ele>233.19999999999999</ele>
        <time>2013-11-17T09:27:00Z</time>
      </trkpt>
      <trkpt lat="25.37007998675108" lon="110.50247169099748">
        <ele>234.80000000000001</ele>
        <time>2013-11-17T09:27:06Z</time>
      </trkpt>
      <trkpt lat="25.370021648705006" lon="110.50245501101017">
        <ele>236.30000000000001</ele>
        <time>2013-11-17T09:27:12Z</time>
      </trkpt>
      <trkpt lat="25.369941685348749" lon="110.50242500379682">
        <ele>237.59999999999999</ele>
        <time>2013-11-17T09:27:18Z</time>
      </trkpt>
      <trkpt lat="25.36986499093473" lon="110.50239332020283">
        <ele>237</ele>
        <time>2013-11-17T09:27:24Z</time>
      </trkpt>
      <trkpt lat="25.369783351197839" lon="110.5023533385247">
        <ele>235.90000000000001</ele>
        <time>2013-11-17T09:27:30Z</time>
      </trkpt>
      <trkpt lat="25.369708333164454" lon="110.50233162939548">
        <ele>235.19999999999999</ele>
        <time>2013-11-17T09:27:36Z</time>
      </trkpt>
      <trkpt lat="25.369646642357111" lon="110.50230832770467">
        <ele>236</ele>
        <time>2013-11-17T09:27:42Z</time>
      </trkpt>
      <trkpt lat="25.369581682607532" lon="110.50227664411068">
        <ele>234.90000000000001</ele>
        <time>2013-11-17T09:27:48Z</time>
      </trkpt>
      <trkpt lat="25.369519991800189" lon="110.50224336795509">
        <ele>232.30000000000001</ele>
        <time>2013-11-17T09:27:54Z</time>
      </trkpt>
      <trkpt lat="25.369459977373481" lon="110.50221336074173">
        <ele>231.19999999999999</ele>
        <time>2013-11-17T09:28:00Z</time>
      </trkpt>
      <trkpt lat="25.369401639327407" lon="110.50218167714775">
        <ele>230</ele>
        <time>2013-11-17T09:28:06Z</time>
      </trkpt>
      <trkpt lat="25.369331650435925" lon="110.50214169546962">
        <ele>230.90000000000001</ele>
        <time>2013-11-17T09:28:12Z</time>
      </trkpt>
      <trkpt lat="25.369265014305711" lon="110.50210498273373">
        <ele>230.40000000000001</ele>
        <time>2013-11-17T09:28:18Z</time>
      </trkpt>
      <trkpt lat="25.369218327105045" lon="110.5020650010556">
        <ele>229.80000000000001</ele>
        <time>2013-11-17T09:28:24Z</time>
      </trkpt>
      <trkpt lat="25.369161665439606" lon="110.50203331746161">
        <ele>229.5</ele>
        <time>2013-11-17T09:28:30Z</time>
      </trkpt>
      <trkpt lat="25.36914330907166" lon="110.50201999023557">
        <ele>231.59999999999999</ele>
        <time>2013-11-17T09:28:36Z</time>
      </trkpt>
      <trkpt lat="25.369126629084349" lon="110.50203499384224">
        <ele>237.40000000000001</ele>
        <time>2013-11-17T09:28:42Z</time>
      </trkpt>
      <trkpt lat="25.369110032916069" lon="110.50202996470034">
        <ele>237.09999999999999</ele>
        <time>2013-11-17T09:28:48Z</time>
      </trkpt>
      <trkpt lat="25.369091676548123" lon="110.5020166374743">
        <ele>239.59999999999999</ele>
        <time>2013-11-17T09:28:54Z</time>
      </trkpt>
      <trkpt lat="25.369078349322081" lon="110.50201999023557">
        <ele>229.5</ele>
        <time>2013-11-17T09:29:00Z</time>
      </trkpt>
      <trkpt lat="25.369046665728092" lon="110.50201001577079">
        <ele>222.5</ele>
        <time>2013-11-17T09:29:06Z</time>
      </trkpt>
      <trkpt lat="25.368991680443287" lon="110.50198000855744">
        <ele>224.90000000000001</ele>
        <time>2013-11-17T09:29:12Z</time>
      </trkpt>
      <trkpt lat="25.368929989635944" lon="110.50195167772472">
        <ele>224.69999999999999</ele>
        <time>2013-11-17T09:29:18Z</time>
      </trkpt>
      <trkpt lat="25.368875004351139" lon="110.50192167051136">
        <ele>224.5</ele>
        <time>2013-11-17T09:29:24Z</time>
      </trkpt>
      <trkpt lat="25.368875004351139" lon="110.50191664136946">
        <ele>224.80000000000001</ele>
        <time>2013-11-17T09:29:30Z</time>
      </trkpt>
      <trkpt lat="25.368878357112408" lon="110.50191496498883">
        <ele>225.5</ele>
        <time>2013-11-17T09:29:36Z</time>
      </trkpt>
      <trkpt lat="25.368880033493042" lon="110.50191169604659">
        <ele>226</ele>
        <time>2013-11-17T09:29:42Z</time>
      </trkpt>
      <trkpt lat="25.368881626054645" lon="110.50191001966596">
        <ele>226.59999999999999</ele>
        <time>2013-11-17T09:29:48Z</time>
      </trkpt>
      <trkpt lat="25.368883302435279" lon="110.50190499052405">
        <ele>227.09999999999999</ele>
        <time>2013-11-17T09:29:54Z</time>
      </trkpt>
      <trkpt lat="25.368881626054645" lon="110.50190163776278">
        <ele>227.40000000000001</ele>
        <time>2013-11-17T09:30:00Z</time>
      </trkpt>
      <trkpt lat="25.368814989924431" lon="110.5018800124526">
        <ele>227.30000000000001</ele>
        <time>2013-11-17T09:30:06Z</time>
      </trkpt>
      <trkpt lat="25.368750030174851" lon="110.50185662694275">
        <ele>227.40000000000001</ele>
        <time>2013-11-17T09:30:12Z</time>
      </trkpt>
      <trkpt lat="25.368693368509412" lon="110.50183835439384">
        <ele>226.5</ele>
        <time>2013-11-17T09:30:18Z</time>
      </trkpt>
      <trkpt lat="25.368635030463338" lon="110.50182335078716">
        <ele>226.40000000000001</ele>
        <time>2013-11-17T09:30:24Z</time>
      </trkpt>
      <trkpt lat="25.368571663275361" lon="110.50180164165795">
        <ele>227</ele>
        <time>2013-11-17T09:30:30Z</time>
      </trkpt>
      <trkpt lat="25.36851835437119" lon="110.50177498720586">
        <ele>226.59999999999999</ele>
        <time>2013-11-17T09:30:36Z</time>
      </trkpt>
      <trkpt lat="25.368446689099073" lon="110.50174330361187">
        <ele>226.40000000000001</ele>
        <time>2013-11-17T09:30:42Z</time>
      </trkpt>
      <trkpt lat="25.368363372981548" lon="110.50171497277915">
        <ele>227.69999999999999</ele>
        <time>2013-11-17T09:30:48Z</time>
      </trkpt>
      <trkpt lat="25.368291707709432" lon="110.50170332193375">
        <ele>228.30000000000001</ele>
        <time>2013-11-17T09:30:54Z</time>
      </trkpt>
      <trkpt lat="25.368206631392241" lon="110.50168169662356">
        <ele>228</ele>
        <time>2013-11-17T09:31:00Z</time>
      </trkpt>
      <trkpt lat="25.368123315274715" lon="110.50165831111372">
        <ele>226.69999999999999</ele>
        <time>2013-11-17T09:31:06Z</time>
      </trkpt>
      <trkpt lat="25.36803999915719" lon="110.50163836218417">
        <ele>227</ele>
        <time>2013-11-17T09:31:12Z</time>
      </trkpt>
      <trkpt lat="25.367975039407611" lon="110.50158999860287">
        <ele>229.30000000000001</ele>
        <time>2013-11-17T09:31:18Z</time>
      </trkpt>
      <trkpt lat="25.367909995839" lon="110.50153333693743">
        <ele>230.30000000000001</ele>
        <time>2013-11-17T09:31:24Z</time>
      </trkpt>
      <trkpt lat="25.367849981412292" lon="110.50147499889135">
        <ele>230.90000000000001</ele>
        <time>2013-11-17T09:31:30Z</time>
      </trkpt>
      <trkpt lat="25.367789966985583" lon="110.50141330808401">
        <ele>229.09999999999999</ele>
        <time>2013-11-17T09:31:36Z</time>
      </trkpt>
      <trkpt lat="25.367726683616638" lon="110.50137500278652">
        <ele>227.19999999999999</ele>
        <time>2013-11-17T09:31:42Z</time>
      </trkpt>
      <trkpt lat="25.367659963667393" lon="110.50132496282458">
        <ele>226</ele>
        <time>2013-11-17T09:31:48Z</time>
      </trkpt>
      <trkpt lat="25.367593327537179" lon="110.50128498114645">
        <ele>225.80000000000001</ele>
        <time>2013-11-17T09:31:54Z</time>
      </trkpt>
      <trkpt lat="25.367521662265062" lon="110.501260003075">
        <ele>229.19999999999999</ele>
        <time>2013-11-17T09:32:00Z</time>
      </trkpt>
      <trkpt lat="25.367455026134849" lon="110.50121834501624">
        <ele>229.19999999999999</ele>
        <time>2013-11-17T09:32:06Z</time>
      </trkpt>
      <trkpt lat="25.367404986172915" lon="110.5011566542089">
        <ele>227.59999999999999</ele>
        <time>2013-11-17T09:32:12Z</time>
      </trkpt>
      <trkpt lat="25.367359975352883" lon="110.50109999254346">
        <ele>227.19999999999999</ele>
        <time>2013-11-17T09:32:18Z</time>
      </trkpt>
      <trkpt lat="25.367306666448712" lon="110.50106663256884">
        <ele>227.19999999999999</ele>
        <time>2013-11-17T09:32:24Z</time>
      </trkpt>
      <trkpt lat="25.367286633700132" lon="110.50105665810406">
        <ele>224.90000000000001</ele>
        <time>2013-11-17T09:32:30Z</time>
      </trkpt>
      <trkpt lat="25.36728504113853" lon="110.50105665810406">
        <ele>220.40000000000001</ele>
        <time>2013-11-17T09:32:36Z</time>
      </trkpt>
      <trkpt lat="25.367251681163907" lon="110.50103503279388">
        <ele>212</ele>
        <time>2013-11-17T09:32:42Z</time>
      </trkpt>
      <trkpt lat="25.367173310369253" lon="110.5010099709034">
        <ele>208.19999999999999</ele>
        <time>2013-11-17T09:32:48Z</time>
      </trkpt>
      <trkpt lat="25.367091670632362" lon="110.50097996369004">
        <ele>207</ele>
        <time>2013-11-17T09:32:54Z</time>
      </trkpt>
      <trkpt lat="25.367061663419008" lon="110.50097334198654">
        <ele>206</ele>
        <time>2013-11-17T09:33:00Z</time>
      </trkpt>
      <trkpt lat="25.367051688954234" lon="110.5009716656059">
        <ele>206.59999999999999</ele>
        <time>2013-11-17T09:33:06Z</time>
      </trkpt>
      <trkpt lat="25.367041630670428" lon="110.50096998922527">
        <ele>206.80000000000001</ele>
        <time>2013-11-17T09:33:12Z</time>
      </trkpt>
      <trkpt lat="25.367035008966923" lon="110.50096169114113">
        <ele>206.59999999999999</ele>
        <time>2013-11-17T09:33:18Z</time>
      </trkpt>
      <trkpt lat="25.367026627063751" lon="110.50096336752176">
        <ele>206.30000000000001</ele>
        <time>2013-11-17T09:33:24Z</time>
      </trkpt>
      <trkpt lat="25.367023358121514" lon="110.50095330923796">
        <ele>206.09999999999999</ele>
        <time>2013-11-17T09:33:30Z</time>
      </trkpt>
      <trkpt lat="25.367006678134203" lon="110.50091332755983">
        <ele>206.30000000000001</ele>
        <time>2013-11-17T09:33:36Z</time>
      </trkpt>
      <trkpt lat="25.366995027288795" lon="110.50090502947569">
        <ele>210</ele>
        <time>2013-11-17T09:33:42Z</time>
      </trkpt>
      <trkpt lat="25.366968372836709" lon="110.50085331313312">
        <ele>211.59999999999999</ele>
        <time>2013-11-17T09:33:48Z</time>
      </trkpt>
      <trkpt lat="25.366938365623355" lon="110.50079832784832">
        <ele>214.40000000000001</ele>
        <time>2013-11-17T09:33:54Z</time>
      </trkpt>
      <trkpt lat="25.366903329268098" lon="110.50074166618288">
        <ele>217.40000000000001</ele>
        <time>2013-11-17T09:34:00Z</time>
      </trkpt>
      <trkpt lat="25.366861671209335" lon="110.5006883572787">
        <ele>219</ele>
        <time>2013-11-17T09:34:06Z</time>
      </trkpt>
      <trkpt lat="25.366850020363927" lon="110.50065332092345">
        <ele>220.19999999999999</ele>
        <time>2013-11-17T09:34:12Z</time>
      </trkpt>
      <trkpt lat="25.366846667602658" lon="110.50062666647136">
        <ele>222.19999999999999</ele>
        <time>2013-11-17T09:34:18Z</time>
      </trkpt>
      <trkpt lat="25.366808362305164" lon="110.50056329928339">
        <ele>222.80000000000001</ele>
        <time>2013-11-17T09:34:24Z</time>
      </trkpt>
      <trkpt lat="25.366766704246402" lon="110.50049833953381">
        <ele>223.19999999999999</ele>
        <time>2013-11-17T09:34:30Z</time>
      </trkpt>
      <trkpt lat="25.366733344271779" lon="110.50043664872646">
        <ele>224.80000000000001</ele>
        <time>2013-11-17T09:34:36Z</time>
      </trkpt>
      <trkpt lat="25.366713311523199" lon="110.5003949906677">
        <ele>225.80000000000001</ele>
        <time>2013-11-17T09:34:42Z</time>
      </trkpt>
      <trkpt lat="25.366676682606339" lon="110.50033329986036">
        <ele>226.59999999999999</ele>
        <time>2013-11-17T09:34:48Z</time>
      </trkpt>
      <trkpt lat="25.366639969870448" lon="110.50027663819492">
        <ele>227.40000000000001</ele>
        <time>2013-11-17T09:34:54Z</time>
      </trkpt>
      <trkpt lat="25.366586660966277" lon="110.50021670758724">
        <ele>226.30000000000001</ele>
        <time>2013-11-17T09:35:00Z</time>
      </trkpt>
      <trkpt lat="25.366548355668783" lon="110.50017999485135">
        <ele>224.90000000000001</ele>
        <time>2013-11-17T09:35:06Z</time>
      </trkpt>
      <trkpt lat="25.366493370383978" lon="110.50011830404401">
        <ele>223.69999999999999</ele>
        <time>2013-11-17T09:35:12Z</time>
      </trkpt>
      <trkpt lat="25.366448359563947" lon="110.50005166791379">
        <ele>222.80000000000001</ele>
        <time>2013-11-17T09:35:18Z</time>
      </trkpt>
      <trkpt lat="25.366409970447421" lon="110.49999835900962">
        <ele>221.30000000000001</ele>
        <time>2013-11-17T09:35:24Z</time>
      </trkpt>
      <trkpt lat="25.366406701505184" lon="110.49998830072582">
        <ele>219.69999999999999</ele>
        <time>2013-11-17T09:35:30Z</time>
      </trkpt>
      <trkpt lat="25.366398319602013" lon="110.49995670095086">
        <ele>217.5</ele>
        <time>2013-11-17T09:35:36Z</time>
      </trkpt>
      <trkpt lat="25.366343334317207" lon="110.49990003928542">
        <ele>216.90000000000001</ele>
        <time>2013-11-17T09:35:42Z</time>
      </trkpt>
      <trkpt lat="25.366278374567628" lon="110.49984999932349">
        <ele>217.59999999999999</ele>
        <time>2013-11-17T09:35:48Z</time>
      </trkpt>
      <trkpt lat="25.366216683760285" lon="110.49979995936155">
        <ele>217.80000000000001</ele>
        <time>2013-11-17T09:35:54Z</time>
      </trkpt>
      <trkpt lat="25.366156669333577" lon="110.49975503236055">
        <ele>217.5</ele>
        <time>2013-11-17T09:36:00Z</time>
      </trkpt>
      <trkpt lat="25.366090033203363" lon="110.49971002154052">
        <ele>218.09999999999999</ele>
        <time>2013-11-17T09:36:06Z</time>
      </trkpt>
      <trkpt lat="25.366026666015387" lon="110.499671632424">
        <ele>217.69999999999999</ele>
        <time>2013-11-17T09:36:12Z</time>
      </trkpt>
      <trkpt lat="25.365961706265807" lon="110.4996333271265">
        <ele>216.59999999999999</ele>
        <time>2013-11-17T09:36:18Z</time>
      </trkpt>
      <trkpt lat="25.365921640768647" lon="110.49960667267442">
        <ele>217.80000000000001</ele>
        <time>2013-11-17T09:36:24Z</time>
      </trkpt>
      <trkpt lat="25.36591837182641" lon="110.49961170181632">
        <ele>218.59999999999999</ele>
        <time>2013-11-17T09:36:30Z</time>
      </trkpt>
      <trkpt lat="25.365915019065142" lon="110.49961170181632">
        <ele>218</ele>
        <time>2013-11-17T09:36:36Z</time>
      </trkpt>
      <trkpt lat="25.365915019065142" lon="110.49960834905505">
        <ele>218.30000000000001</ele>
        <time>2013-11-17T09:36:42Z</time>
      </trkpt>
      <trkpt lat="25.365903368219733" lon="110.49958169460297">
        <ele>206.09999999999999</ele>
        <time>2013-11-17T09:36:48Z</time>
      </trkpt>
      <trkpt lat="25.365843353793025" lon="110.49954330548644">
        <ele>209.19999999999999</ele>
        <time>2013-11-17T09:36:54Z</time>
      </trkpt>
      <trkpt lat="25.36576833575964" lon="110.49949829466641">
        <ele>210.80000000000001</ele>
        <time>2013-11-17T09:37:00Z</time>
      </trkpt>
      <trkpt lat="25.365696670487523" lon="110.49945831298828">
        <ele>211.40000000000001</ele>
        <time>2013-11-17T09:37:06Z</time>
      </trkpt>
      <trkpt lat="25.365631626918912" lon="110.49940500408411">
        <ele>212.69999999999999</ele>
        <time>2013-11-17T09:37:12Z</time>
      </trkpt>
      <trkpt lat="25.365566667169333" lon="110.49935496412218">
        <ele>212.69999999999999</ele>
        <time>2013-11-17T09:37:18Z</time>
      </trkpt>
      <trkpt lat="25.365501707419753" lon="110.49928832799196">
        <ele>211.5</ele>
        <time>2013-11-17T09:37:24Z</time>
      </trkpt>
      <trkpt lat="25.365438340231776" lon="110.49922663718462">
        <ele>210.30000000000001</ele>
        <time>2013-11-17T09:37:30Z</time>
      </trkpt>
      <trkpt lat="25.365368351340294" lon="110.49917165189981">
        <ele>209.69999999999999</ele>
        <time>2013-11-17T09:37:36Z</time>
      </trkpt>
      <trkpt lat="25.365311689674854" lon="110.49911499023437">
        <ele>209.80000000000001</ele>
        <time>2013-11-17T09:37:42Z</time>
      </trkpt>
      <trkpt lat="25.365256704390049" lon="110.49907333217561">
        <ele>211.19999999999999</ele>
        <time>2013-11-17T09:37:48Z</time>
      </trkpt>
      <trkpt lat="25.365201635286212" lon="110.49902329221368">
        <ele>212.80000000000001</ele>
        <time>2013-11-17T09:37:54Z</time>
      </trkpt>
      <trkpt lat="25.365146650001407" lon="110.49897333607078">
        <ele>213.40000000000001</ele>
        <time>2013-11-17T09:38:00Z</time>
      </trkpt>
      <trkpt lat="25.365086635574698" lon="110.49892497248948">
        <ele>213.40000000000001</ele>
        <time>2013-11-17T09:38:06Z</time>
      </trkpt>
      <trkpt lat="25.365036679431796" lon="110.49886831082404">
        <ele>214.5</ele>
        <time>2013-11-17T09:38:12Z</time>
      </trkpt>
      <trkpt lat="25.364993344992399" lon="110.49880829639733">
        <ele>215</ele>
        <time>2013-11-17T09:38:18Z</time>
      </trkpt>
      <trkpt lat="25.36493668332696" lon="110.49874836578965">
        <ele>213</ele>
        <time>2013-11-17T09:38:24Z</time>
      </trkpt>
      <trkpt lat="25.364886643365026" lon="110.49873663112521">
        <ele>212.30000000000001</ele>
        <time>2013-11-17T09:38:30Z</time>
      </trkpt>
      <trkpt lat="25.364835010841489" lon="110.49868835136294">
        <ele>211.5</ele>
        <time>2013-11-17T09:38:36Z</time>
      </trkpt>
      <trkpt lat="25.364784970879555" lon="110.49864166416228">
        <ele>210.80000000000001</ele>
        <time>2013-11-17T09:38:42Z</time>
      </trkpt>
      <trkpt lat="25.364728309214115" lon="110.49859497696161">
        <ele>210.09999999999999</ele>
        <time>2013-11-17T09:38:48Z</time>
      </trkpt>
      <trkpt lat="25.364661673083901" lon="110.49855834804475">
        <ele>211.5</ele>
        <time>2013-11-17T09:38:54Z</time>
      </trkpt>
      <trkpt lat="25.364603335037827" lon="110.49851836636662">
        <ele>212.59999999999999</ele>
        <time>2013-11-17T09:39:00Z</time>
      </trkpt>
      <trkpt lat="25.364554971456528" lon="110.4984799772501">
        <ele>214.30000000000001</ele>
        <time>2013-11-17T09:39:06Z</time>
      </trkpt>
      <trkpt lat="25.364511637017131" lon="110.49843337386847">
        <ele>215.19999999999999</ele>
        <time>2013-11-17T09:39:12Z</time>
      </trkpt>
      <trkpt lat="25.364463357254863" lon="110.49838501028717">
        <ele>215.30000000000001</ele>
        <time>2013-11-17T09:39:18Z</time>
      </trkpt>
      <trkpt lat="25.364420022815466" lon="110.49833497032523">
        <ele>216.80000000000001</ele>
        <time>2013-11-17T09:39:24Z</time>
      </trkpt>
      <trkpt lat="25.364368306472898" lon="110.4982883669436">
        <ele>217.19999999999999</ele>
        <time>2013-11-17T09:39:30Z</time>
      </trkpt>
      <trkpt lat="25.364311644807458" lon="110.49824830144644">
        <ele>217.59999999999999</ele>
        <time>2013-11-17T09:39:36Z</time>
      </trkpt>
      <trkpt lat="25.364250037819147" lon="110.49821167252958">
        <ele>218.09999999999999</ele>
        <time>2013-11-17T09:39:42Z</time>
      </trkpt>
      <trkpt lat="25.364196645095944" lon="110.49816666170955">
        <ele>218.40000000000001</ele>
        <time>2013-11-17T09:39:48Z</time>
      </trkpt>
      <trkpt lat="25.364143336191773" lon="110.49811335280538">
        <ele>218.09999999999999</ele>
        <time>2013-11-17T09:39:54Z</time>
      </trkpt>
      <trkpt lat="25.364096648991108" lon="110.49805996008217">
        <ele>218.30000000000001</ele>
        <time>2013-11-17T09:40:00Z</time>
      </trkpt>
      <trkpt lat="25.364051638171077" lon="110.49800832755864">
        <ele>219.30000000000001</ele>
        <time>2013-11-17T09:40:06Z</time>
      </trkpt>
      <trkpt lat="25.363994976505637" lon="110.49796164035797">
        <ele>218.90000000000001</ele>
        <time>2013-11-17T09:40:12Z</time>
      </trkpt>
      <trkpt lat="25.363936638459563" lon="110.49792836420238">
        <ele>217.5</ele>
        <time>2013-11-17T09:40:18Z</time>
      </trkpt>
      <trkpt lat="25.36387000232935" lon="110.49790162593126">
        <ele>216.90000000000001</ele>
        <time>2013-11-17T09:40:24Z</time>
      </trkpt>
      <trkpt lat="25.363800013437867" lon="110.49788167700171">
        <ele>215.90000000000001</ele>
        <time>2013-11-17T09:40:30Z</time>
      </trkpt>
      <trkpt lat="25.36373664624989" lon="110.49787497147918">
        <ele>216</ele>
        <time>2013-11-17T09:40:36Z</time>
      </trkpt>
      <trkpt lat="25.363673362880945" lon="110.49786164425313">
        <ele>216.09999999999999</ele>
        <time>2013-11-17T09:40:42Z</time>
      </trkpt>
      <trkpt lat="25.363615024834871" lon="110.49784496426582">
        <ele>216.59999999999999</ele>
        <time>2013-11-17T09:40:48Z</time>
      </trkpt>
      <trkpt lat="25.363556686788797" lon="110.4978150408715">
        <ele>217.19999999999999</ele>
        <time>2013-11-17T09:40:54Z</time>
      </trkpt>
      <trkpt lat="25.363493319600821" lon="110.49778335727751">
        <ele>217.09999999999999</ele>
        <time>2013-11-17T09:41:00Z</time>
      </trkpt>
      <trkpt lat="25.363428359851241" lon="110.49775829538703">
        <ele>217.5</ele>
        <time>2013-11-17T09:41:06Z</time>
      </trkpt>
      <trkpt lat="25.363371698185802" lon="110.49774329178035">
        <ele>217.09999999999999</ele>
        <time>2013-11-17T09:41:12Z</time>
      </trkpt>
      <trkpt lat="25.363301625475287" lon="110.49773164093494">
        <ele>217</ele>
        <time>2013-11-17T09:41:18Z</time>
      </trkpt>
      <trkpt lat="25.363240018486977" lon="110.49773164093494">
        <ele>216.5</ele>
        <time>2013-11-17T09:41:24Z</time>
      </trkpt>
      <trkpt lat="25.363178327679634" lon="110.49774496816099">
        <ele>215.80000000000001</ele>
        <time>2013-11-17T09:41:30Z</time>
      </trkpt>
      <trkpt lat="25.363121666014194" lon="110.4977616481483">
        <ele>215.30000000000001</ele>
        <time>2013-11-17T09:41:36Z</time>
      </trkpt>
      <trkpt lat="25.363065004348755" lon="110.4977717064321">
        <ele>215</ele>
        <time>2013-11-17T09:41:42Z</time>
      </trkpt>
      <trkpt lat="25.363003313541412" lon="110.49777832813561">
        <ele>215.09999999999999</ele>
        <time>2013-11-17T09:41:48Z</time>
      </trkpt>
      <trkpt lat="25.362943299114704" lon="110.49776835367084">
        <ele>215</ele>
        <time>2013-11-17T09:41:54Z</time>
      </trkpt>
      <trkpt lat="25.362880015745759" lon="110.49775502644479">
        <ele>214.80000000000001</ele>
        <time>2013-11-17T09:42:00Z</time>
      </trkpt>
      <trkpt lat="25.362814972177148" lon="110.49775502644479">
        <ele>214.5</ele>
        <time>2013-11-17T09:42:06Z</time>
      </trkpt>
      <trkpt lat="25.362753365188837" lon="110.4977666772902">
        <ele>214.30000000000001</ele>
        <time>2013-11-17T09:42:12Z</time>
      </trkpt>
      <trkpt lat="25.362691674381495" lon="110.4977616481483">
        <ele>215.5</ele>
        <time>2013-11-17T09:42:18Z</time>
      </trkpt>
      <trkpt lat="25.362625038251281" lon="110.49773834645748">
        <ele>215.59999999999999</ele>
        <time>2013-11-17T09:42:24Z</time>
      </trkpt>
      <trkpt lat="25.362565023824573" lon="110.49770666286349">
        <ele>216.40000000000001</ele>
        <time>2013-11-17T09:42:30Z</time>
      </trkpt>
      <trkpt lat="25.362520013004541" lon="110.49767162650824">
        <ele>215.59999999999999</ele>
        <time>2013-11-17T09:42:36Z</time>
      </trkpt>
      <trkpt lat="25.36248330026865" lon="110.49765167757869">
        <ele>215.69999999999999</ele>
        <time>2013-11-17T09:42:42Z</time>
      </trkpt>
      <trkpt lat="25.362420016899705" lon="110.49762996844947">
        <ele>216</ele>
        <time>2013-11-17T09:42:48Z</time>
      </trkpt>
      <trkpt lat="25.362353296950459" lon="110.4976250231266">
        <ele>216.59999999999999</ele>
        <time>2013-11-17T09:42:54Z</time>
      </trkpt>
      <trkpt lat="25.36229663528502" lon="110.4976250231266">
        <ele>217.09999999999999</ele>
        <time>2013-11-17T09:43:00Z</time>
      </trkpt>
      <trkpt lat="25.362303340807557" lon="110.4976250231266">
        <ele>218.19999999999999</ele>
        <time>2013-11-17T09:43:06Z</time>
      </trkpt>
      <trkpt lat="25.362283308058977" lon="110.4976199939847">
        <ele>218.09999999999999</ele>
        <time>2013-11-17T09:43:12Z</time>
      </trkpt>
      <trkpt lat="25.362216671928763" lon="110.4976149648428">
        <ele>218.19999999999999</ele>
        <time>2013-11-17T09:43:18Z</time>
      </trkpt>
      <trkpt lat="25.362145006656647" lon="110.49759501591325">
        <ele>218.40000000000001</ele>
        <time>2013-11-17T09:43:24Z</time>
      </trkpt>
      <trkpt lat="25.362075017765164" lon="110.49756668508053">
        <ele>218.5</ele>
        <time>2013-11-17T09:43:30Z</time>
      </trkpt>
      <trkpt lat="25.362005028873682" lon="110.49753500148654">
        <ele>218.40000000000001</ele>
        <time>2013-11-17T09:43:36Z</time>
      </trkpt>
      <trkpt lat="25.3619350399822" lon="110.49750331789255">
        <ele>218</ele>
        <time>2013-11-17T09:43:42Z</time>
      </trkpt>
      <trkpt lat="25.361873349174857" lon="110.49746836535633">
        <ele>218.40000000000001</ele>
        <time>2013-11-17T09:43:48Z</time>
      </trkpt>
      <trkpt lat="25.361828338354826" lon="110.49742670729756">
        <ele>217.69999999999999</ele>
        <time>2013-11-17T09:43:54Z</time>
      </trkpt>
      <trkpt lat="25.361811658367515" lon="110.49740667454898">
        <ele>216.30000000000001</ele>
        <time>2013-11-17T09:44:00Z</time>
      </trkpt>
      <trkpt lat="25.361761702224612" lon="110.49737834371626">
        <ele>216.90000000000001</ele>
        <time>2013-11-17T09:44:06Z</time>
      </trkpt>
      <trkpt lat="25.36170830950141" lon="110.49734498374164">
        <ele>218</ele>
        <time>2013-11-17T09:44:12Z</time>
      </trkpt>
      <trkpt lat="25.361664975062013" lon="110.49730164930224">
        <ele>218.09999999999999</ele>
        <time>2013-11-17T09:44:18Z</time>
      </trkpt>
      <trkpt lat="25.361619964241982" lon="110.49725663848221">
        <ele>218.19999999999999</ele>
        <time>2013-11-17T09:44:24Z</time>
      </trkpt>
      <trkpt lat="25.361570008099079" lon="110.49720332957804">
        <ele>217.80000000000001</ele>
        <time>2013-11-17T09:44:30Z</time>
      </trkpt>
      <trkpt lat="25.361526673659682" lon="110.49715169705451">
        <ele>218.30000000000001</ele>
        <time>2013-11-17T09:44:36Z</time>
      </trkpt>
      <trkpt lat="25.361476633697748" lon="110.49710500985384">
        <ele>219.5</ele>
        <time>2013-11-17T09:44:42Z</time>
      </trkpt>
      <trkpt lat="25.361421648412943" lon="110.49706167541444">
        <ele>219.30000000000001</ele>
        <time>2013-11-17T09:44:48Z</time>
      </trkpt>
      <trkpt lat="25.361370015889406" lon="110.49702496267855">
        <ele>218.40000000000001</ele>
        <time>2013-11-17T09:44:54Z</time>
      </trkpt>
      <trkpt lat="25.361319975927472" lon="110.49698330461979">
        <ele>217.90000000000001</ele>
        <time>2013-11-17T09:45:00Z</time>
      </trkpt>
      <trkpt lat="25.361261637881398" lon="110.49694332294166">
        <ele>218</ele>
        <time>2013-11-17T09:45:06Z</time>
      </trkpt>
      <trkpt lat="25.361206652596593" lon="110.49689998850226">
        <ele>217</ele>
        <time>2013-11-17T09:45:12Z</time>
      </trkpt>
      <trkpt lat="25.361146638169885" lon="110.49684500321746">
        <ele>216.40000000000001</ele>
        <time>2013-11-17T09:45:18Z</time>
      </trkpt>
      <trkpt lat="25.361086707562208" lon="110.4968033451587">
        <ele>216.09999999999999</ele>
        <time>2013-11-17T09:45:24Z</time>
      </trkpt>
      <trkpt lat="25.361023340374231" lon="110.49675162881613">
        <ele>215</ele>
        <time>2013-11-17T09:45:30Z</time>
      </trkpt>
      <trkpt lat="25.360965002328157" lon="110.49670502543449">
        <ele>214.80000000000001</ele>
        <time>2013-11-17T09:45:36Z</time>
      </trkpt>
      <trkpt lat="25.360914962366223" lon="110.49665330909193">
        <ele>215.30000000000001</ele>
        <time>2013-11-17T09:45:42Z</time>
      </trkpt>
      <trkpt lat="25.360865006223321" lon="110.49659329466522">
        <ele>214.59999999999999</ele>
        <time>2013-11-17T09:45:48Z</time>
      </trkpt>
      <trkpt lat="25.360823348164558" lon="110.49652833491564">
        <ele>214.40000000000001</ele>
        <time>2013-11-17T09:45:54Z</time>
      </trkpt>
      <trkpt lat="25.360778337344527" lon="110.49646832048893">
        <ele>214.69999999999999</ele>
        <time>2013-11-17T09:46:00Z</time>
      </trkpt>
      <trkpt lat="25.36073500290513" lon="110.49641165882349">
        <ele>214</ele>
        <time>2013-11-17T09:46:06Z</time>
      </trkpt>
      <trkpt lat="25.360691668465734" lon="110.49635667353868">
        <ele>212.80000000000001</ele>
        <time>2013-11-17T09:46:12Z</time>
      </trkpt>
      <trkpt lat="25.360641628503799" lon="110.49630504101515">
        <ele>211.80000000000001</ele>
        <time>2013-11-17T09:46:18Z</time>
      </trkpt>
      <trkpt lat="25.360591672360897" lon="110.49625500105321">
        <ele>211.69999999999999</ele>
        <time>2013-11-17T09:46:24Z</time>
      </trkpt>
      <trkpt lat="25.36054003983736" lon="110.49620169214904">
        <ele>212.40000000000001</ele>
        <time>2013-11-17T09:46:30Z</time>
      </trkpt>
      <trkpt lat="25.360506679862738" lon="110.49614335410297">
        <ele>211.30000000000001</ele>
        <time>2013-11-17T09:46:36Z</time>
      </trkpt>
      <trkpt lat="25.360459992662072" lon="110.49609499052167">
        <ele>210.90000000000001</ele>
        <time>2013-11-17T09:46:42Z</time>
      </trkpt>
      <trkpt lat="25.360414981842041" lon="110.49603003077209">
        <ele>209.59999999999999</ele>
        <time>2013-11-17T09:46:48Z</time>
      </trkpt>
      <trkpt lat="25.360383298248053" lon="110.49596331082284">
        <ele>209.09999999999999</ele>
        <time>2013-11-17T09:46:54Z</time>
      </trkpt>
      <trkpt lat="25.360350022092462" lon="110.4959066491574">
        <ele>211</ele>
        <time>2013-11-17T09:47:00Z</time>
      </trkpt>
      <trkpt lat="25.360324960201979" lon="110.49583498388529">
        <ele>210</ele>
        <time>2013-11-17T09:47:06Z</time>
      </trkpt>
      <trkpt lat="25.360295036807656" lon="110.49577002413571">
        <ele>210.30000000000001</ele>
        <time>2013-11-17T09:47:12Z</time>
      </trkpt>
      <trkpt lat="25.360256647691131" lon="110.49570665694773">
        <ele>210</ele>
        <time>2013-11-17T09:47:18Z</time>
      </trkpt>
      <trkpt lat="25.360226640477777" lon="110.49563331529498">
        <ele>208.40000000000001</ele>
        <time>2013-11-17T09:47:24Z</time>
      </trkpt>
      <trkpt lat="25.360186658799648" lon="110.49555670469999">
        <ele>206.40000000000001</ele>
        <time>2013-11-17T09:47:30Z</time>
      </trkpt>
      <trkpt lat="25.36014667712152" lon="110.49548663198948">
        <ele>204.90000000000001</ele>
        <time>2013-11-17T09:47:36Z</time>
      </trkpt>
      <trkpt lat="25.360109964385629" lon="110.4954216722399">
        <ele>204.5</ele>
        <time>2013-11-17T09:47:42Z</time>
      </trkpt>
      <trkpt lat="25.360073335468769" lon="110.49535168334842">
        <ele>204.30000000000001</ele>
        <time>2013-11-17T09:47:48Z</time>
      </trkpt>
      <trkpt lat="25.360035030171275" lon="110.49528831616044">
        <ele>203.59999999999999</ele>
        <time>2013-11-17T09:47:54Z</time>
      </trkpt>
      <trkpt lat="25.359994964674115" lon="110.49521665088832">
        <ele>202.80000000000001</ele>
        <time>2013-11-17T09:48:00Z</time>
      </trkpt>
      <trkpt lat="25.359950037673116" lon="110.49516334198415">
        <ele>203.69999999999999</ele>
        <time>2013-11-17T09:48:06Z</time>
      </trkpt>
      <trkpt lat="25.359901674091816" lon="110.49509997479618">
        <ele>204.09999999999999</ele>
        <time>2013-11-17T09:48:12Z</time>
      </trkpt>
      <trkpt lat="25.359861692413688" lon="110.49503166228533">
        <ele>204.40000000000001</ele>
        <time>2013-11-17T09:48:18Z</time>
      </trkpt>
      <trkpt lat="25.359824979677796" lon="110.49497332423925">
        <ele>205.90000000000001</ele>
        <time>2013-11-17T09:48:24Z</time>
      </trkpt>
      <trkpt lat="25.359788350760937" lon="110.49491666257381">
        <ele>207.5</ele>
        <time>2013-11-17T09:48:30Z</time>
      </trkpt>
      <trkpt lat="25.359749961644411" lon="110.49484835006297">
        <ele>207.5</ele>
        <time>2013-11-17T09:48:36Z</time>
      </trkpt>
      <trkpt lat="25.359713332727551" lon="110.49477333202958">
        <ele>206.30000000000001</ele>
        <time>2013-11-17T09:48:42Z</time>
      </trkpt>
      <trkpt lat="25.359671674668789" lon="110.49470501951873">
        <ele>205.30000000000001</ele>
        <time>2013-11-17T09:48:48Z</time>
      </trkpt>
      <trkpt lat="25.359628340229392" lon="110.49463503062725">
        <ele>204.30000000000001</ele>
        <time>2013-11-17T09:48:54Z</time>
      </trkpt>
      <trkpt lat="25.359585005789995" lon="110.49457166343927">
        <ele>204.40000000000001</ele>
        <time>2013-11-17T09:49:00Z</time>
      </trkpt>
      <trkpt lat="25.359551645815372" lon="110.49450335092843">
        <ele>204.5</ele>
        <time>2013-11-17T09:49:06Z</time>
      </trkpt>
      <trkpt lat="25.359524991363287" lon="110.49443168565631">
        <ele>204.09999999999999</ele>
        <time>2013-11-17T09:49:12Z</time>
      </trkpt>
      <trkpt lat="25.359491631388664" lon="110.49437502399087">
        <ele>204.19999999999999</ele>
        <time>2013-11-17T09:49:18Z</time>
      </trkpt>
      <trkpt lat="25.359490038827062" lon="110.4943666420877">
        <ele>204</ele>
        <time>2013-11-17T09:49:24Z</time>
      </trkpt>
      <trkpt lat="25.359476627781987" lon="110.49434836953878">
        <ele>204.90000000000001</ele>
        <time>2013-11-17T09:49:30Z</time>
      </trkpt>
      <trkpt lat="25.359471682459116" lon="110.49432163126767">
        <ele>205.59999999999999</ele>
        <time>2013-11-17T09:49:36Z</time>
      </trkpt>
      <trkpt lat="25.359471682459116" lon="110.49430830404162">
        <ele>205.30000000000001</ele>
        <time>2013-11-17T09:49:42Z</time>
      </trkpt>
      <trkpt lat="25.35945332609117" lon="110.49426496960223">
        <ele>205.59999999999999</ele>
        <time>2013-11-17T09:49:48Z</time>
      </trkpt>
      <trkpt lat="25.359428348019719" lon="110.49419665709138">
        <ele>205.69999999999999</ele>
        <time>2013-11-17T09:49:54Z</time>
      </trkpt>
      <trkpt lat="25.359391635283828" lon="110.49412834458053">
        <ele>205.59999999999999</ele>
        <time>2013-11-17T09:50:00Z</time>
      </trkpt>
      <trkpt lat="25.359349977225065" lon="110.49405835568905">
        <ele>204.80000000000001</ele>
        <time>2013-11-17T09:50:06Z</time>
      </trkpt>
      <trkpt lat="25.359333297237754" lon="110.49401334486902">
        <ele>204.09999999999999</ele>
        <time>2013-11-17T09:50:12Z</time>
      </trkpt>
      <trkpt lat="25.359311671927571" lon="110.49397168681026">
        <ele>203.5</ele>
        <time>2013-11-17T09:50:18Z</time>
      </trkpt>
      <trkpt lat="25.359291639178991" lon="110.49396162852645">
        <ele>204.59999999999999</ele>
        <time>2013-11-17T09:50:24Z</time>
      </trkpt>
      <trkpt lat="25.359293315559626" lon="110.49397168681026">
        <ele>206.5</ele>
        <time>2013-11-17T09:50:30Z</time>
      </trkpt>
      <trkpt lat="25.359293315559626" lon="110.49396162852645">
        <ele>205.69999999999999</ele>
        <time>2013-11-17T09:50:36Z</time>
      </trkpt>
      <trkpt lat="25.359311671927571" lon="110.49397001042962">
        <ele>206.09999999999999</ele>
        <time>2013-11-17T09:50:42Z</time>
      </trkpt>
      <trkpt lat="25.359304966405034" lon="110.49397001042962">
        <ele>206.59999999999999</ele>
        <time>2013-11-17T09:50:48Z</time>
      </trkpt>
      <trkpt lat="25.359301697462797" lon="110.49397998489439">
        <ele>206.69999999999999</ele>
        <time>2013-11-17T09:50:54Z</time>
      </trkpt>
      <trkpt lat="25.35929499194026" lon="110.49398166127503">
        <ele>206.69999999999999</ele>
        <time>2013-11-17T09:51:00Z</time>
      </trkpt>
      <trkpt lat="25.359291639178991" lon="110.49398166127503">
        <ele>206.90000000000001</ele>
        <time>2013-11-17T09:51:06Z</time>
      </trkpt>
      <trkpt lat="25.359288370236754" lon="110.4939850140363">
        <ele>206.69999999999999</ele>
        <time>2013-11-17T09:51:12Z</time>
      </trkpt>
      <trkpt lat="25.359296668320894" lon="110.49399666488171">
        <ele>206.80000000000001</ele>
        <time>2013-11-17T09:51:18Z</time>
      </trkpt>
      <trkpt lat="25.359296668320894" lon="110.49399834126234">
        <ele>206.69999999999999</ele>
        <time>2013-11-17T09:51:24Z</time>
      </trkpt>
      <trkpt lat="25.359309995546937" lon="110.49402667209506">
        <ele>205</ele>
        <time>2013-11-17T09:51:30Z</time>
      </trkpt>
      <trkpt lat="25.359348300844431" lon="110.4940883629024">
        <ele>204.90000000000001</ele>
        <time>2013-11-17T09:51:36Z</time>
      </trkpt>
      <trkpt lat="25.359381660819054" lon="110.49416497349739">
        <ele>205.5</ele>
        <time>2013-11-17T09:51:42Z</time>
      </trkpt>
      <trkpt lat="25.359389958903193" lon="110.49425331875682">
        <ele>206</ele>
        <time>2013-11-17T09:51:48Z</time>
      </trkpt>
      <trkpt lat="25.359363304451108" lon="110.4943283367902">
        <ele>206.90000000000001</ele>
        <time>2013-11-17T09:51:54Z</time>
      </trkpt>
      <trkpt lat="25.359309995546937" lon="110.49438667483628">
        <ele>208.09999999999999</ele>
        <time>2013-11-17T09:52:00Z</time>
      </trkpt>
      <trkpt lat="25.359248304739594" lon="110.49443336203694">
        <ele>208.30000000000001</ele>
        <time>2013-11-17T09:52:06Z</time>
      </trkpt>
      <trkpt lat="25.359179992228746" lon="110.49447334371507">
        <ele>209.09999999999999</ele>
        <time>2013-11-17T09:52:12Z</time>
      </trkpt>
      <trkpt lat="25.359119977802038" lon="110.4945082962513">
        <ele>210.5</ele>
        <time>2013-11-17T09:52:18Z</time>
      </trkpt>
      <trkpt lat="25.35905166529119" lon="110.49453000538051">
        <ele>211.59999999999999</ele>
        <time>2013-11-17T09:52:24Z</time>
      </trkpt>
      <trkpt lat="25.358993327245116" lon="110.49456336535513">
        <ele>212.90000000000001</ele>
        <time>2013-11-17T09:52:30Z</time>
      </trkpt>
      <trkpt lat="25.358926691114902" lon="110.49459664151073">
        <ele>214.09999999999999</ele>
        <time>2013-11-17T09:52:36Z</time>
      </trkpt>
      <trkpt lat="25.358859971165657" lon="110.49463000148535">
        <ele>215.5</ele>
        <time>2013-11-17T09:52:42Z</time>
      </trkpt>
      <trkpt lat="25.35880833864212" lon="110.49465833231807">
        <ele>217.5</ele>
        <time>2013-11-17T09:52:48Z</time>
      </trkpt>
      <trkpt lat="25.358738349750638" lon="110.49468833953142">
        <ele>218.5</ele>
        <time>2013-11-17T09:52:54Z</time>
      </trkpt>
      <trkpt lat="25.358661655336618" lon="110.49469663761556">
        <ele>220.5</ele>
        <time>2013-11-17T09:53:00Z</time>
      </trkpt>
      <trkpt lat="25.358589990064502" lon="110.49471834674478">
        <ele>220.40000000000001</ele>
        <time>2013-11-17T09:53:06Z</time>
      </trkpt>
      <trkpt lat="25.358548332005739" lon="110.49474164843559">
        <ele>220.5</ele>
        <time>2013-11-17T09:53:12Z</time>
      </trkpt>
      <trkpt lat="25.358513295650482" lon="110.49475665204227">
        <ele>221.09999999999999</ele>
        <time>2013-11-17T09:53:18Z</time>
      </trkpt>
      <trkpt lat="25.358496699482203" lon="110.49478665925562">
        <ele>223.30000000000001</ele>
        <time>2013-11-17T09:53:24Z</time>
      </trkpt>
      <trkpt lat="25.35843500867486" lon="110.49481666646898">
        <ele>225.5</ele>
        <time>2013-11-17T09:53:30Z</time>
      </trkpt>
      <trkpt lat="25.358343310654163" lon="110.49480501562357">
        <ele>227.09999999999999</ele>
        <time>2013-11-17T09:53:36Z</time>
      </trkpt>
      <trkpt lat="25.358281703665853" lon="110.49485170282423">
        <ele>230.59999999999999</ele>
        <time>2013-11-17T09:53:42Z</time>
      </trkpt>
      <trkpt lat="25.358211630955338" lon="110.49489168450236">
        <ele>236.19999999999999</ele>
        <time>2013-11-17T09:53:48Z</time>
      </trkpt>
      <trkpt lat="25.358139965683222" lon="110.49492663703859">
        <ele>241.80000000000001</ele>
        <time>2013-11-17T09:53:54Z</time>
      </trkpt>
      <trkpt lat="25.358124962076545" lon="110.49493334256113">
        <ele>240.30000000000001</ele>
        <time>2013-11-17T09:54:00Z</time>
      </trkpt>
      <trkpt lat="25.358124962076545" lon="110.49493166618049">
        <ele>238.09999999999999</ele>
        <time>2013-11-17T09:54:06Z</time>
      </trkpt>
      <trkpt lat="25.358078358694911" lon="110.49499830231071">
        <ele>236.80000000000001</ele>
        <time>2013-11-17T09:54:12Z</time>
      </trkpt>
      <trkpt lat="25.358058325946331" lon="110.4950350150466">
        <ele>234.09999999999999</ele>
        <time>2013-11-17T09:54:18Z</time>
      </trkpt>
      <trkpt lat="25.358036700636148" lon="110.49505999311805">
        <ele>231.5</ele>
        <time>2013-11-17T09:54:24Z</time>
      </trkpt>
      <trkpt lat="25.358023373410106" lon="110.49508664757013">
        <ele>226.5</ele>
        <time>2013-11-17T09:54:30Z</time>
      </trkpt>
      <trkpt lat="25.358021697029471" lon="110.49511330202222">
        <ele>225.69999999999999</ele>
        <time>2013-11-17T09:54:36Z</time>
      </trkpt>
      <trkpt lat="25.3580133151263" lon="110.49510668031871">
        <ele>223</ele>
        <time>2013-11-17T09:54:42Z</time>
      </trkpt>
      <trkpt lat="25.358020020648837" lon="110.49510165117681">
        <ele>220.59999999999999</ele>
        <time>2013-11-17T09:54:48Z</time>
      </trkpt>
      <trkpt lat="25.3580133151263" lon="110.49509167671204">
        <ele>219.40000000000001</ele>
        <time>2013-11-17T09:54:54Z</time>
      </trkpt>
      <trkpt lat="25.358023373410106" lon="110.49508329480886">
        <ele>216.69999999999999</ele>
        <time>2013-11-17T09:55:00Z</time>
      </trkpt>
      <trkpt lat="25.358020020648837" lon="110.49508170224726">
        <ele>214</ele>
        <time>2013-11-17T09:55:06Z</time>
      </trkpt>
      <trkpt lat="25.358006693422794" lon="110.49508832395077">
        <ele>212</ele>
        <time>2013-11-17T09:55:12Z</time>
      </trkpt>
      <trkpt lat="25.358006693422794" lon="110.49510165117681">
        <ele>212.59999999999999</ele>
        <time>2013-11-17T09:55:18Z</time>
      </trkpt>
      <trkpt lat="25.358011638745666" lon="110.49509997479618">
        <ele>214.90000000000001</ele>
        <time>2013-11-17T09:55:24Z</time>
      </trkpt>
      <trkpt lat="25.358044998720288" lon="110.49506996758282">
        <ele>215.69999999999999</ele>
        <time>2013-11-17T09:55:30Z</time>
      </trkpt>
      <trkpt lat="25.358065031468868" lon="110.49502998590469">
        <ele>217.30000000000001</ele>
        <time>2013-11-17T09:55:36Z</time>
      </trkpt>
      <trkpt lat="25.358101660385728" lon="110.49499000422657">
        <ele>218.80000000000001</ele>
        <time>2013-11-17T09:55:42Z</time>
      </trkpt>
      <trkpt lat="25.358124962076545" lon="110.49495496787131">
        <ele>219.90000000000001</ele>
        <time>2013-11-17T09:55:48Z</time>
      </trkpt>
      <trkpt lat="25.358131667599082" lon="110.49494499340653">
        <ele>221.59999999999999</ele>
        <time>2013-11-17T09:55:54Z</time>
      </trkpt>
      <trkpt lat="25.358181707561016" lon="110.49486503005028">
        <ele>224.59999999999999</ele>
        <time>2013-11-17T09:56:00Z</time>
      </trkpt>
      <trkpt lat="25.358253372833133" lon="110.49482001923025">
        <ele>224.69999999999999</ele>
        <time>2013-11-17T09:56:06Z</time>
      </trkpt>
      <trkpt lat="25.358303328976035" lon="110.49476830288768">
        <ele>227.19999999999999</ele>
        <time>2013-11-17T09:56:12Z</time>
      </trkpt>
      <trkpt lat="25.358348339796066" lon="110.49473502673209">
        <ele>229</ele>
        <time>2013-11-17T09:56:18Z</time>
      </trkpt>
      <trkpt lat="25.358399972319603" lon="110.49471834674478">
        <ele>227.80000000000001</ele>
        <time>2013-11-17T09:56:24Z</time>
      </trkpt>
      <trkpt lat="25.358458310365677" lon="110.49467165954411">
        <ele>232</ele>
        <time>2013-11-17T09:56:30Z</time>
      </trkpt>
      <trkpt lat="25.358526706695557" lon="110.49463335424662">
        <ele>235</ele>
        <time>2013-11-17T09:56:36Z</time>
      </trkpt>
      <trkpt lat="25.358589990064502" lon="110.49462329596281">
        <ele>230.59999999999999</ele>
        <time>2013-11-17T09:56:42Z</time>
      </trkpt>
      <trkpt lat="25.358648328110576" lon="110.49459999427199">
        <ele>229.09999999999999</ele>
        <time>2013-11-17T09:56:48Z</time>
      </trkpt>
      <trkpt lat="25.358718317002058" lon="110.49457669258118">
        <ele>226.5</ele>
        <time>2013-11-17T09:56:54Z</time>
      </trkpt>
      <trkpt lat="25.358778331428766" lon="110.49455833621323">
        <ele>223.09999999999999</ele>
        <time>2013-11-17T09:57:00Z</time>
      </trkpt>
      <trkpt lat="25.358841698616743" lon="110.49453335814178">
        <ele>221</ele>
        <time>2013-11-17T09:57:06Z</time>
      </trkpt>
      <trkpt lat="25.358903305605054" lon="110.49450502730906">
        <ele>220</ele>
        <time>2013-11-17T09:57:12Z</time>
      </trkpt>
      <trkpt lat="25.358974970877171" lon="110.49447669647634">
        <ele>221.90000000000001</ele>
        <time>2013-11-17T09:57:18Z</time>
      </trkpt>
      <trkpt lat="25.359049988910556" lon="110.49445163458586">
        <ele>220.30000000000001</ele>
        <time>2013-11-17T09:57:24Z</time>
      </trkpt>
      <trkpt lat="25.35910832695663" lon="110.49443000927567">
        <ele>216.90000000000001</ele>
        <time>2013-11-17T09:57:30Z</time>
      </trkpt>
      <trkpt lat="25.359174963086843" lon="110.49440503120422">
        <ele>214.09999999999999</ele>
        <time>2013-11-17T09:57:36Z</time>
      </trkpt>
      <trkpt lat="25.359241683036089" lon="110.4943666420877">
        <ele>212.90000000000001</ele>
        <time>2013-11-17T09:57:42Z</time>
      </trkpt>
      <trkpt lat="25.359303373843431" lon="110.4943233076483">
        <ele>211.30000000000001</ele>
        <time>2013-11-17T09:57:48Z</time>
      </trkpt>
      <trkpt lat="25.359349977225065" lon="110.4942733515054">
        <ele>214.30000000000001</ele>
        <time>2013-11-17T09:57:54Z</time>
      </trkpt>
      <trkpt lat="25.359341679140925" lon="110.49420000985265">
        <ele>213.90000000000001</ele>
        <time>2013-11-17T09:58:00Z</time>
      </trkpt>
      <trkpt lat="25.359313348308206" lon="110.49413002096117">
        <ele>213.19999999999999</ele>
        <time>2013-11-17T09:58:06Z</time>
      </trkpt>
      <trkpt lat="25.359279988333583" lon="110.49405835568905">
        <ele>212.69999999999999</ele>
        <time>2013-11-17T09:58:12Z</time>
      </trkpt>
      <trkpt lat="25.359249981120229" lon="110.49398836679757">
        <ele>212</ele>
        <time>2013-11-17T09:58:18Z</time>
      </trkpt>
      <trkpt lat="25.359228355810046" lon="110.49395500682294">
        <ele>211.80000000000001</ele>
        <time>2013-11-17T09:58:24Z</time>
      </trkpt>
      <trkpt lat="25.359236653894186" lon="110.493936650455">
        <ele>210.59999999999999</ele>
        <time>2013-11-17T09:58:30Z</time>
      </trkpt>
      <trkpt lat="25.359230032190681" lon="110.49392499960959">
        <ele>208.19999999999999</ele>
        <time>2013-11-17T09:58:36Z</time>
      </trkpt>
      <trkpt lat="25.359231708571315" lon="110.49391997046769">
        <ele>206.40000000000001</ele>
        <time>2013-11-17T09:58:42Z</time>
      </trkpt>
      <trkpt lat="25.359236653894186" lon="110.49391334876418">
        <ele>205.40000000000001</ele>
        <time>2013-11-17T09:58:48Z</time>
      </trkpt>
      <trkpt lat="25.359245035797358" lon="110.49391502514482">
        <ele>205.40000000000001</ele>
        <time>2013-11-17T09:58:54Z</time>
      </trkpt>
      <trkpt lat="25.359240006655455" lon="110.49391670152545">
        <ele>204.59999999999999</ele>
        <time>2013-11-17T09:59:00Z</time>
      </trkpt>
      <trkpt lat="25.359233301132917" lon="110.49391997046769">
        <ele>204.30000000000001</ele>
        <time>2013-11-17T09:59:06Z</time>
      </trkpt>
      <trkpt lat="25.359233301132917" lon="110.49392332322896">
        <ele>204.5</ele>
        <time>2013-11-17T09:59:12Z</time>
      </trkpt>
      <trkpt lat="25.359240006655455" lon="110.49392164684832">
        <ele>204.59999999999999</ele>
        <time>2013-11-17T09:59:18Z</time>
      </trkpt>
      <trkpt lat="25.359243359416723" lon="110.49392164684832">
        <ele>204.90000000000001</ele>
        <time>2013-11-17T09:59:24Z</time>
      </trkpt>
      <trkpt lat="25.359243359416723" lon="110.49391997046769">
        <ele>205.09999999999999</ele>
        <time>2013-11-17T09:59:30Z</time>
      </trkpt>
      <trkpt lat="25.35923833027482" lon="110.49392164684832">
        <ele>205.59999999999999</ele>
        <time>2013-11-17T09:59:36Z</time>
      </trkpt>
      <trkpt lat="25.359234977513552" lon="110.49392164684832">
        <ele>205.90000000000001</ele>
        <time>2013-11-17T09:59:42Z</time>
      </trkpt>
      <trkpt lat="25.359233301132917" lon="110.49392164684832">
        <ele>206</ele>
        <time>2013-11-17T09:59:48Z</time>
      </trkpt>
      <trkpt lat="25.359230032190681" lon="110.49392332322896">
        <ele>206.40000000000001</ele>
        <time>2013-11-17T09:59:54Z</time>
      </trkpt>
      <trkpt lat="25.359228355810046" lon="110.49392164684832">
        <ele>206.40000000000001</ele>
        <time>2013-11-17T10:00:00Z</time>
      </trkpt>
      <trkpt lat="25.359225003048778" lon="110.49392164684832">
        <ele>206.80000000000001</ele>
        <time>2013-11-17T10:00:06Z</time>
      </trkpt>
      <trkpt lat="25.359230032190681" lon="110.49391997046769">
        <ele>206.59999999999999</ele>
        <time>2013-11-17T10:00:12Z</time>
      </trkpt>
      <trkpt lat="25.359233301132917" lon="110.49391829408705">
        <ele>206.40000000000001</ele>
        <time>2013-11-17T10:00:18Z</time>
      </trkpt>
      <trkpt lat="25.359230032190681" lon="110.49391997046769">
        <ele>206.90000000000001</ele>
        <time>2013-11-17T10:00:24Z</time>
      </trkpt>
      <trkpt lat="25.359234977513552" lon="110.49391829408705">
        <ele>206.80000000000001</ele>
        <time>2013-11-17T10:00:30Z</time>
      </trkpt>
      <trkpt lat="25.359236653894186" lon="110.49391502514482">
        <ele>206.40000000000001</ele>
        <time>2013-11-17T10:00:36Z</time>
      </trkpt>
      <trkpt lat="25.359240006655455" lon="110.49391334876418">
        <ele>205.90000000000001</ele>
        <time>2013-11-17T10:00:42Z</time>
      </trkpt>
      <trkpt lat="25.359245035797358" lon="110.49390999600291">
        <ele>205.40000000000001</ele>
        <time>2013-11-17T10:00:48Z</time>
      </trkpt>
      <trkpt lat="25.359249981120229" lon="110.49390831962228">
        <ele>205.09999999999999</ele>
        <time>2013-11-17T10:00:54Z</time>
      </trkpt>
      <trkpt lat="25.359251657500863" lon="110.49390831962228">
        <ele>205.09999999999999</ele>
        <time>2013-11-17T10:01:00Z</time>
      </trkpt>
      <trkpt lat="25.359251657500863" lon="110.49390831962228">
        <ele>205.19999999999999</ele>
        <time>2013-11-17T10:01:06Z</time>
      </trkpt>
      <trkpt lat="25.35924662835896" lon="110.49390999600291">
        <ele>205.80000000000001</ele>
        <time>2013-11-17T10:01:12Z</time>
      </trkpt>
      <trkpt lat="25.359243359416723" lon="110.49391334876418">
        <ele>206.59999999999999</ele>
        <time>2013-11-17T10:01:18Z</time>
      </trkpt>
      <trkpt lat="25.35923833027482" lon="110.49391829408705">
        <ele>207.90000000000001</ele>
        <time>2013-11-17T10:01:24Z</time>
      </trkpt>
      <trkpt lat="25.359234977513552" lon="110.49392164684832">
        <ele>209.30000000000001</ele>
        <time>2013-11-17T10:01:30Z</time>
      </trkpt>
      <trkpt lat="25.359233301132917" lon="110.49392332322896">
        <ele>209.69999999999999</ele>
        <time>2013-11-17T10:01:36Z</time>
      </trkpt>
      <trkpt lat="25.359234977513552" lon="110.49392332322896">
        <ele>209.69999999999999</ele>
        <time>2013-11-17T10:01:42Z</time>
      </trkpt>
      <trkpt lat="25.359230032190681" lon="110.49392499960959">
        <ele>210.5</ele>
        <time>2013-11-17T10:01:48Z</time>
      </trkpt>
      <trkpt lat="25.359223326668143" lon="110.49392835237086">
        <ele>210.30000000000001</ele>
        <time>2013-11-17T10:01:54Z</time>
      </trkpt>
      <trkpt lat="25.359230032190681" lon="110.49392667599022">
        <ele>209.30000000000001</ele>
        <time>2013-11-17T10:02:00Z</time>
      </trkpt>
      <trkpt lat="25.359230032190681" lon="110.49391829408705">
        <ele>208.90000000000001</ele>
        <time>2013-11-17T10:02:06Z</time>
      </trkpt>
      <trkpt lat="25.359231708571315" lon="110.49389499239624">
        <ele>208.90000000000001</ele>
        <time>2013-11-17T10:02:12Z</time>
      </trkpt>
      <trkpt lat="25.359231708571315" lon="110.49390002153814">
        <ele>208.69999999999999</ele>
        <time>2013-11-17T10:02:18Z</time>
      </trkpt>
      <trkpt lat="25.35923833027482" lon="110.49390169791877">
        <ele>208.69999999999999</ele>
        <time>2013-11-17T10:02:24Z</time>
      </trkpt>
      <trkpt lat="25.359251657500863" lon="110.49390831962228">
        <ele>209.5</ele>
        <time>2013-11-17T10:02:30Z</time>
      </trkpt>
      <trkpt lat="25.359260039404035" lon="110.49390999600291">
        <ele>208.69999999999999</ele>
        <time>2013-11-17T10:02:36Z</time>
      </trkpt>
      <trkpt lat="25.359263308346272" lon="110.49391167238355">
        <ele>208.19999999999999</ele>
        <time>2013-11-17T10:02:42Z</time>
      </trkpt>
      <trkpt lat="25.359263308346272" lon="110.49391334876418">
        <ele>208.09999999999999</ele>
        <time>2013-11-17T10:02:48Z</time>
      </trkpt>
      <trkpt lat="25.35926666110754" lon="110.49391502514482">
        <ele>208.19999999999999</ele>
        <time>2013-11-17T10:02:54Z</time>
      </trkpt>
      <trkpt lat="25.359268337488174" lon="110.49391502514482">
        <ele>207.90000000000001</ele>
        <time>2013-11-17T10:03:00Z</time>
      </trkpt>
      <trkpt lat="25.35929499194026" lon="110.49392332322896">
        <ele>210.59999999999999</ele>
        <time>2013-11-17T10:03:06Z</time>
      </trkpt>
      <trkpt lat="25.359319970011711" lon="110.49393170513213">
        <ele>213</ele>
        <time>2013-11-17T10:03:12Z</time>
      </trkpt>
      <trkpt lat="25.359341679140925" lon="110.49393329769373">
        <ele>213.69999999999999</ele>
        <time>2013-11-17T10:03:18Z</time>
      </trkpt>
      <trkpt lat="25.359361628070474" lon="110.49393329769373">
        <ele>214.19999999999999</ele>
        <time>2013-11-17T10:03:24Z</time>
      </trkpt>
      <trkpt lat="25.359375039115548" lon="110.49393170513213">
        <ele>214.09999999999999</ele>
        <time>2013-11-17T10:03:30Z</time>
      </trkpt>
      <trkpt lat="25.359375039115548" lon="110.49392667599022">
        <ele>212.5</ele>
        <time>2013-11-17T10:03:36Z</time>
      </trkpt>
      <trkpt lat="25.359403369948268" lon="110.49391502514482">
        <ele>209.90000000000001</ele>
        <time>2013-11-17T10:03:42Z</time>
      </trkpt>
      <trkpt lat="25.359403369948268" lon="110.49391502514482">
        <ele>209.59999999999999</ele>
        <time>2013-11-17T10:03:48Z</time>
      </trkpt>
      <trkpt lat="25.359383337199688" lon="110.49392164684832">
        <ele>211.19999999999999</ele>
        <time>2013-11-17T10:03:54Z</time>
      </trkpt>
      <trkpt lat="25.359370009973645" lon="110.49392667599022">
        <ele>212</ele>
        <time>2013-11-17T10:04:00Z</time>
      </trkpt>
      <trkpt lat="25.359361628070474" lon="110.49393329769373">
        <ele>213.59999999999999</ele>
        <time>2013-11-17T10:04:06Z</time>
      </trkpt>
      <trkpt lat="25.359345031902194" lon="110.49393329769373">
        <ele>214.30000000000001</ele>
        <time>2013-11-17T10:04:12Z</time>
      </trkpt>
      <trkpt lat="25.359319970011711" lon="110.49392332322896">
        <ele>212.30000000000001</ele>
        <time>2013-11-17T10:04:18Z</time>
      </trkpt>
      <trkpt lat="25.35928669385612" lon="110.49392164684832">
        <ele>209.90000000000001</ele>
        <time>2013-11-17T10:04:24Z</time>
      </trkpt>
      <trkpt lat="25.359255010262132" lon="110.49390999600291">
        <ele>208.69999999999999</ele>
        <time>2013-11-17T10:04:30Z</time>
      </trkpt>
      <trkpt lat="25.35924662835896" lon="110.4938933160156">
        <ele>208.80000000000001</ele>
        <time>2013-11-17T10:04:36Z</time>
      </trkpt>
      <trkpt lat="25.359248304739594" lon="110.49389163963497">
        <ele>209.30000000000001</ele>
        <time>2013-11-17T10:04:42Z</time>
      </trkpt>
      <trkpt lat="25.3592583630234" lon="110.49388996325433">
        <ele>211.90000000000001</ele>
        <time>2013-11-17T10:04:48Z</time>
      </trkpt>
      <trkpt lat="25.359251657500863" lon="110.49387169070542">
        <ele>211.59999999999999</ele>
        <time>2013-11-17T10:04:54Z</time>
      </trkpt>
      <trkpt lat="25.359236653894186" lon="110.49386003986001">
        <ele>209.90000000000001</ele>
        <time>2013-11-17T10:05:00Z</time>
      </trkpt>
    </trkseg>
  </trk>

</gpx>